<?xml version="1.0" encoding="UTF-8"?>
<gpx version="1.1" creator="https://www.youtrack.es" xsi:schemaLocation="http://www.topografix.com/GPX/1/1 http://www.topografix.com/GPX/1/1/gpx.xsd http://www.garmin.com/xmlschemas/GpxExtensions/v3 http://www.garmin.com/xmlschemas/GpxExtensionsv3.xsd http://www.garmin.com/xmlschemas/TrackPointExtension/v1 http://www.garmin.com/xmlschemas/TrackPointExtensionv1.xsd" xmlns:gpxtpx="http://www.garmin.com/xmlschemas/TrackPointExtension/v1" xmlns:gpxx="http://www.garmin.com/xmlschemas/GpxExtensions/v3" xmlns:xsi="http://www.w3.org/2001/XMLSchema-instance">
  <metadata>
    <link href="https://www.youtrack.es">
      <text>YouTrack.es</text>
    </link>
    <time>2026-05-08T13:04:53Z</time>
  </metadata>
  <trk>
    <src>https://www.youtrack.es</src>
    <link href="https://www.youtrack.es/ruta/18218-subida-al-montau-2020">
      <text>YouTrack.es</text>
    </link>
    <trkseg>
      <trkpt lat="41.33439" lon="2.032705">
        <ele>38.9</ele>
        <time>1970-01-01T00:00:00.000Z</time>
      </trkpt>
      <trkpt lat="41.334373" lon="2.032742">
        <ele>38.9</ele>
        <time>1970-01-01T00:00:01.000Z</time>
      </trkpt>
      <trkpt lat="41.334373" lon="2.032742">
        <ele>38.9</ele>
        <time>1970-01-01T00:00:02.000Z</time>
      </trkpt>
      <trkpt lat="41.33432" lon="2.032785">
        <ele>38.9</ele>
        <time>1970-01-01T00:00:03.000Z</time>
      </trkpt>
      <trkpt lat="41.33432" lon="2.032785">
        <ele>38.9</ele>
        <time>1970-01-01T00:00:04.000Z</time>
      </trkpt>
      <trkpt lat="41.33427" lon="2.032777">
        <ele>38.9</ele>
        <time>1970-01-01T00:00:05.000Z</time>
      </trkpt>
      <trkpt lat="41.334252" lon="2.032758">
        <ele>38.9</ele>
        <time>1970-01-01T00:00:06.000Z</time>
      </trkpt>
      <trkpt lat="41.334252" lon="2.032758">
        <ele>38.9</ele>
        <time>1970-01-01T00:00:07.000Z</time>
      </trkpt>
      <trkpt lat="41.334233" lon="2.032743">
        <ele>38.9</ele>
        <time>1970-01-01T00:00:08.000Z</time>
      </trkpt>
      <trkpt lat="41.334187" lon="2.032722">
        <ele>38.9</ele>
        <time>1970-01-01T00:00:09.000Z</time>
      </trkpt>
      <trkpt lat="41.334187" lon="2.032722">
        <ele>38.9</ele>
        <time>1970-01-01T00:00:10.000Z</time>
      </trkpt>
      <trkpt lat="41.334138" lon="2.032683">
        <ele>38.9</ele>
        <time>1970-01-01T00:00:11.000Z</time>
      </trkpt>
      <trkpt lat="41.334138" lon="2.032683">
        <ele>38.9</ele>
        <time>1970-01-01T00:00:12.000Z</time>
      </trkpt>
      <trkpt lat="41.334093" lon="2.032643">
        <ele>38.9</ele>
        <time>1970-01-01T00:00:13.000Z</time>
      </trkpt>
      <trkpt lat="41.334073" lon="2.032618">
        <ele>38.9</ele>
        <time>1970-01-01T00:00:14.000Z</time>
      </trkpt>
      <trkpt lat="41.334073" lon="2.032618">
        <ele>38.9</ele>
        <time>1970-01-01T00:00:15.000Z</time>
      </trkpt>
      <trkpt lat="41.334038" lon="2.032565">
        <ele>38.9</ele>
        <time>1970-01-01T00:00:16.000Z</time>
      </trkpt>
      <trkpt lat="41.334038" lon="2.032565">
        <ele>38.9</ele>
        <time>1970-01-01T00:00:17.000Z</time>
      </trkpt>
      <trkpt lat="41.334002" lon="2.032505">
        <ele>38.9</ele>
        <time>1970-01-01T00:00:18.000Z</time>
      </trkpt>
      <trkpt lat="41.334002" lon="2.032505">
        <ele>38.9</ele>
        <time>1970-01-01T00:00:19.000Z</time>
      </trkpt>
      <trkpt lat="41.33397" lon="2.032442">
        <ele>38.9</ele>
        <time>1970-01-01T00:00:20.000Z</time>
      </trkpt>
      <trkpt lat="41.333958" lon="2.032412">
        <ele>38.9</ele>
        <time>1970-01-01T00:00:21.000Z</time>
      </trkpt>
      <trkpt lat="41.333958" lon="2.032412">
        <ele>38.9</ele>
        <time>1970-01-01T00:00:22.000Z</time>
      </trkpt>
      <trkpt lat="41.333942" lon="2.03235">
        <ele>38.9</ele>
        <time>1970-01-01T00:00:23.000Z</time>
      </trkpt>
      <trkpt lat="41.333933" lon="2.032317">
        <ele>39.9</ele>
        <time>1970-01-01T00:00:24.000Z</time>
      </trkpt>
      <trkpt lat="41.333933" lon="2.032317">
        <ele>39.9</ele>
        <time>1970-01-01T00:00:25.000Z</time>
      </trkpt>
      <trkpt lat="41.333922" lon="2.032257">
        <ele>39.9</ele>
        <time>1970-01-01T00:00:26.000Z</time>
      </trkpt>
      <trkpt lat="41.333922" lon="2.032257">
        <ele>39.9</ele>
        <time>1970-01-01T00:00:27.000Z</time>
      </trkpt>
      <trkpt lat="41.333912" lon="2.0322">
        <ele>39.9</ele>
        <time>1970-01-01T00:00:28.000Z</time>
      </trkpt>
      <trkpt lat="41.333912" lon="2.0322">
        <ele>39.9</ele>
        <time>1970-01-01T00:00:29.000Z</time>
      </trkpt>
      <trkpt lat="41.333902" lon="2.032137">
        <ele>39.9</ele>
        <time>1970-01-01T00:00:30.000Z</time>
      </trkpt>
      <trkpt lat="41.333902" lon="2.032137">
        <ele>39.9</ele>
        <time>1970-01-01T00:00:31.000Z</time>
      </trkpt>
      <trkpt lat="41.3339" lon="2.032075">
        <ele>39.9</ele>
        <time>1970-01-01T00:00:32.000Z</time>
      </trkpt>
      <trkpt lat="41.3339" lon="2.032075">
        <ele>39.9</ele>
        <time>1970-01-01T00:00:33.000Z</time>
      </trkpt>
      <trkpt lat="41.333898" lon="2.032012">
        <ele>39.9</ele>
        <time>1970-01-01T00:00:34.000Z</time>
      </trkpt>
      <trkpt lat="41.333898" lon="2.032012">
        <ele>39.9</ele>
        <time>1970-01-01T00:00:35.000Z</time>
      </trkpt>
      <trkpt lat="41.333897" lon="2.031948">
        <ele>39.9</ele>
        <time>1970-01-01T00:00:36.000Z</time>
      </trkpt>
      <trkpt lat="41.333897" lon="2.031948">
        <ele>39.9</ele>
        <time>1970-01-01T00:00:37.000Z</time>
      </trkpt>
      <trkpt lat="41.333875" lon="2.031892">
        <ele>39.9</ele>
        <time>1970-01-01T00:00:38.000Z</time>
      </trkpt>
      <trkpt lat="41.333875" lon="2.031892">
        <ele>39.9</ele>
        <time>1970-01-01T00:00:39.000Z</time>
      </trkpt>
      <trkpt lat="41.333822" lon="2.03186">
        <ele>39.9</ele>
        <time>1970-01-01T00:00:40.000Z</time>
      </trkpt>
      <trkpt lat="41.333822" lon="2.03186">
        <ele>39.9</ele>
        <time>1970-01-01T00:00:41.000Z</time>
      </trkpt>
      <trkpt lat="41.333775" lon="2.031815">
        <ele>39.9</ele>
        <time>1970-01-01T00:00:42.000Z</time>
      </trkpt>
      <trkpt lat="41.333775" lon="2.031815">
        <ele>39.9</ele>
        <time>1970-01-01T00:00:43.000Z</time>
      </trkpt>
      <trkpt lat="41.33373" lon="2.031772">
        <ele>39.9</ele>
        <time>1970-01-01T00:00:44.000Z</time>
      </trkpt>
      <trkpt lat="41.33373" lon="2.031772">
        <ele>39.9</ele>
        <time>1970-01-01T00:00:45.000Z</time>
      </trkpt>
      <trkpt lat="41.333697" lon="2.03172">
        <ele>39.9</ele>
        <time>1970-01-01T00:00:46.000Z</time>
      </trkpt>
      <trkpt lat="41.333697" lon="2.03172">
        <ele>39.9</ele>
        <time>1970-01-01T00:00:47.000Z</time>
      </trkpt>
      <trkpt lat="41.333657" lon="2.031675">
        <ele>39.9</ele>
        <time>1970-01-01T00:00:48.000Z</time>
      </trkpt>
      <trkpt lat="41.333657" lon="2.031675">
        <ele>39.9</ele>
        <time>1970-01-01T00:00:49.000Z</time>
      </trkpt>
      <trkpt lat="41.333615" lon="2.031637">
        <ele>39.9</ele>
        <time>1970-01-01T00:00:50.000Z</time>
      </trkpt>
      <trkpt lat="41.333615" lon="2.031637">
        <ele>39.9</ele>
        <time>1970-01-01T00:00:51.000Z</time>
      </trkpt>
      <trkpt lat="41.333578" lon="2.031595">
        <ele>39.9</ele>
        <time>1970-01-01T00:00:52.000Z</time>
      </trkpt>
      <trkpt lat="41.333578" lon="2.031595">
        <ele>39.9</ele>
        <time>1970-01-01T00:00:53.000Z</time>
      </trkpt>
      <trkpt lat="41.333537" lon="2.031562">
        <ele>39.9</ele>
        <time>1970-01-01T00:00:54.000Z</time>
      </trkpt>
      <trkpt lat="41.333537" lon="2.031562">
        <ele>39.9</ele>
        <time>1970-01-01T00:00:55.000Z</time>
      </trkpt>
      <trkpt lat="41.333495" lon="2.031532">
        <ele>39.9</ele>
        <time>1970-01-01T00:00:56.000Z</time>
      </trkpt>
      <trkpt lat="41.333462" lon="2.03151">
        <ele>39.9</ele>
        <time>1970-01-01T00:00:57.000Z</time>
      </trkpt>
      <trkpt lat="41.333462" lon="2.03151">
        <ele>39.9</ele>
        <time>1970-01-01T00:00:58.000Z</time>
      </trkpt>
      <trkpt lat="41.333375" lon="2.031453">
        <ele>38.9</ele>
        <time>1970-01-01T00:00:59.000Z</time>
      </trkpt>
      <trkpt lat="41.333333" lon="2.031453">
        <ele>38.9</ele>
        <time>1970-01-01T00:01:00.000Z</time>
      </trkpt>
      <trkpt lat="41.333333" lon="2.031453">
        <ele>38.9</ele>
        <time>1970-01-01T00:01:01.000Z</time>
      </trkpt>
      <trkpt lat="41.333263" lon="2.031435">
        <ele>38.9</ele>
        <time>1970-01-01T00:01:02.000Z</time>
      </trkpt>
      <trkpt lat="41.333263" lon="2.031435">
        <ele>38.9</ele>
        <time>1970-01-01T00:01:03.000Z</time>
      </trkpt>
      <trkpt lat="41.3332" lon="2.031387">
        <ele>38.9</ele>
        <time>1970-01-01T00:01:04.000Z</time>
      </trkpt>
      <trkpt lat="41.3332" lon="2.031387">
        <ele>38.9</ele>
        <time>1970-01-01T00:01:05.000Z</time>
      </trkpt>
      <trkpt lat="41.333142" lon="2.031312">
        <ele>38.9</ele>
        <time>1970-01-01T00:01:06.000Z</time>
      </trkpt>
      <trkpt lat="41.333142" lon="2.031312">
        <ele>38.9</ele>
        <time>1970-01-01T00:01:07.000Z</time>
      </trkpt>
      <trkpt lat="41.333095" lon="2.031218">
        <ele>38.9</ele>
        <time>1970-01-01T00:01:08.000Z</time>
      </trkpt>
      <trkpt lat="41.333082" lon="2.031172">
        <ele>37.9</ele>
        <time>1970-01-01T00:01:09.000Z</time>
      </trkpt>
      <trkpt lat="41.333075" lon="2.031133">
        <ele>37.9</ele>
        <time>1970-01-01T00:01:10.000Z</time>
      </trkpt>
      <trkpt lat="41.333075" lon="2.031133">
        <ele>37.9</ele>
        <time>1970-01-01T00:01:11.000Z</time>
      </trkpt>
      <trkpt lat="41.333075" lon="2.031065">
        <ele>37.9</ele>
        <time>1970-01-01T00:01:12.000Z</time>
      </trkpt>
      <trkpt lat="41.333078" lon="2.031033">
        <ele>37.9</ele>
        <time>1970-01-01T00:01:13.000Z</time>
      </trkpt>
      <trkpt lat="41.333078" lon="2.031033">
        <ele>37.9</ele>
        <time>1970-01-01T00:01:14.000Z</time>
      </trkpt>
      <trkpt lat="41.333087" lon="2.03095">
        <ele>37.9</ele>
        <time>1970-01-01T00:01:15.000Z</time>
      </trkpt>
      <trkpt lat="41.333082" lon="2.030902">
        <ele>37.9</ele>
        <time>1970-01-01T00:01:16.000Z</time>
      </trkpt>
      <trkpt lat="41.333082" lon="2.030902">
        <ele>37.9</ele>
        <time>1970-01-01T00:01:17.000Z</time>
      </trkpt>
      <trkpt lat="41.333042" lon="2.030795">
        <ele>37.9</ele>
        <time>1970-01-01T00:01:18.000Z</time>
      </trkpt>
      <trkpt lat="41.333025" lon="2.030738">
        <ele>37.9</ele>
        <time>1970-01-01T00:01:19.000Z</time>
      </trkpt>
      <trkpt lat="41.333008" lon="2.030682">
        <ele>37.9</ele>
        <time>1970-01-01T00:01:20.000Z</time>
      </trkpt>
      <trkpt lat="41.333008" lon="2.030682">
        <ele>37.9</ele>
        <time>1970-01-01T00:01:21.000Z</time>
      </trkpt>
      <trkpt lat="41.332993" lon="2.0306">
        <ele>37.9</ele>
        <time>1970-01-01T00:01:22.000Z</time>
      </trkpt>
      <trkpt lat="41.332985" lon="2.030565">
        <ele>37.9</ele>
        <time>1970-01-01T00:01:23.000Z</time>
      </trkpt>
      <trkpt lat="41.332985" lon="2.030565">
        <ele>37.9</ele>
        <time>1970-01-01T00:01:24.000Z</time>
      </trkpt>
      <trkpt lat="41.33297" lon="2.030495">
        <ele>37.9</ele>
        <time>1970-01-01T00:01:25.000Z</time>
      </trkpt>
      <trkpt lat="41.33296" lon="2.030458">
        <ele>37.9</ele>
        <time>1970-01-01T00:01:26.000Z</time>
      </trkpt>
      <trkpt lat="41.33296" lon="2.030458">
        <ele>37.9</ele>
        <time>1970-01-01T00:01:27.000Z</time>
      </trkpt>
      <trkpt lat="41.332932" lon="2.03039">
        <ele>37.9</ele>
        <time>1970-01-01T00:01:28.000Z</time>
      </trkpt>
      <trkpt lat="41.332932" lon="2.03039">
        <ele>37.9</ele>
        <time>1970-01-01T00:01:29.000Z</time>
      </trkpt>
      <trkpt lat="41.332908" lon="2.030325">
        <ele>37.9</ele>
        <time>1970-01-01T00:01:30.000Z</time>
      </trkpt>
      <trkpt lat="41.332908" lon="2.030325">
        <ele>37.9</ele>
        <time>1970-01-01T00:01:31.000Z</time>
      </trkpt>
      <trkpt lat="41.332887" lon="2.030265">
        <ele>37.9</ele>
        <time>1970-01-01T00:01:32.000Z</time>
      </trkpt>
      <trkpt lat="41.332887" lon="2.030265">
        <ele>37.9</ele>
        <time>1970-01-01T00:01:33.000Z</time>
      </trkpt>
      <trkpt lat="41.332858" lon="2.03021">
        <ele>37.9</ele>
        <time>1970-01-01T00:01:34.000Z</time>
      </trkpt>
      <trkpt lat="41.332847" lon="2.030185">
        <ele>37.9</ele>
        <time>1970-01-01T00:01:35.000Z</time>
      </trkpt>
      <trkpt lat="41.332847" lon="2.030185">
        <ele>37.9</ele>
        <time>1970-01-01T00:01:36.000Z</time>
      </trkpt>
      <trkpt lat="41.332817" lon="2.030135">
        <ele>37.9</ele>
        <time>1970-01-01T00:01:37.000Z</time>
      </trkpt>
      <trkpt lat="41.332798" lon="2.030108">
        <ele>37.9</ele>
        <time>1970-01-01T00:01:38.000Z</time>
      </trkpt>
      <trkpt lat="41.332798" lon="2.030108">
        <ele>37.9</ele>
        <time>1970-01-01T00:01:39.000Z</time>
      </trkpt>
      <trkpt lat="41.332758" lon="2.030057">
        <ele>37.9</ele>
        <time>1970-01-01T00:01:40.000Z</time>
      </trkpt>
      <trkpt lat="41.332758" lon="2.030057">
        <ele>37.9</ele>
        <time>1970-01-01T00:01:41.000Z</time>
      </trkpt>
      <trkpt lat="41.332727" lon="2.030018">
        <ele>37.9</ele>
        <time>1970-01-01T00:01:42.000Z</time>
      </trkpt>
      <trkpt lat="41.332713" lon="2.030002">
        <ele>37.9</ele>
        <time>1970-01-01T00:01:43.000Z</time>
      </trkpt>
      <trkpt lat="41.332713" lon="2.030002">
        <ele>37.9</ele>
        <time>1970-01-01T00:01:44.000Z</time>
      </trkpt>
      <trkpt lat="41.332693" lon="2.029965">
        <ele>37.9</ele>
        <time>1970-01-01T00:01:45.000Z</time>
      </trkpt>
      <trkpt lat="41.33269" lon="2.029935">
        <ele>37.9</ele>
        <time>1970-01-01T00:01:46.000Z</time>
      </trkpt>
      <trkpt lat="41.33269" lon="2.029935">
        <ele>38.9</ele>
        <time>1970-01-01T00:01:47.000Z</time>
      </trkpt>
      <trkpt lat="41.332693" lon="2.029893">
        <ele>38.9</ele>
        <time>1970-01-01T00:01:48.000Z</time>
      </trkpt>
      <trkpt lat="41.332693" lon="2.029893">
        <ele>39.9</ele>
        <time>1970-01-01T00:01:49.000Z</time>
      </trkpt>
      <trkpt lat="41.332693" lon="2.02986">
        <ele>39.9</ele>
        <time>1970-01-01T00:01:50.000Z</time>
      </trkpt>
      <trkpt lat="41.332693" lon="2.02986">
        <ele>39.9</ele>
        <time>1970-01-01T00:01:51.000Z</time>
      </trkpt>
      <trkpt lat="41.332685" lon="2.029817">
        <ele>39.9</ele>
        <time>1970-01-01T00:01:52.000Z</time>
      </trkpt>
      <trkpt lat="41.332685" lon="2.029817">
        <ele>39.9</ele>
        <time>1970-01-01T00:01:53.000Z</time>
      </trkpt>
      <trkpt lat="41.332663" lon="2.029762">
        <ele>40.9</ele>
        <time>1970-01-01T00:01:54.000Z</time>
      </trkpt>
      <trkpt lat="41.332652" lon="2.029728">
        <ele>40.9</ele>
        <time>1970-01-01T00:01:55.000Z</time>
      </trkpt>
      <trkpt lat="41.33264" lon="2.029695">
        <ele>40.9</ele>
        <time>1970-01-01T00:01:56.000Z</time>
      </trkpt>
      <trkpt lat="41.33264" lon="2.029695">
        <ele>40.9</ele>
        <time>1970-01-01T00:01:57.000Z</time>
      </trkpt>
      <trkpt lat="41.332623" lon="2.029622">
        <ele>40.9</ele>
        <time>1970-01-01T00:01:58.000Z</time>
      </trkpt>
      <trkpt lat="41.332623" lon="2.029622">
        <ele>40.9</ele>
        <time>1970-01-01T00:01:59.000Z</time>
      </trkpt>
      <trkpt lat="41.332607" lon="2.029553">
        <ele>41.9</ele>
        <time>1970-01-01T00:02:00.000Z</time>
      </trkpt>
      <trkpt lat="41.3326" lon="2.029518">
        <ele>41.9</ele>
        <time>1970-01-01T00:02:01.000Z</time>
      </trkpt>
      <trkpt lat="41.33259" lon="2.029502">
        <ele>41.9</ele>
        <time>1970-01-01T00:02:02.000Z</time>
      </trkpt>
      <trkpt lat="41.33259" lon="2.029502">
        <ele>41.9</ele>
        <time>1970-01-01T00:02:03.000Z</time>
      </trkpt>
      <trkpt lat="41.33256" lon="2.029463">
        <ele>42.9</ele>
        <time>1970-01-01T00:02:04.000Z</time>
      </trkpt>
      <trkpt lat="41.332542" lon="2.029443">
        <ele>42.9</ele>
        <time>1970-01-01T00:02:05.000Z</time>
      </trkpt>
      <trkpt lat="41.332542" lon="2.029443">
        <ele>42.9</ele>
        <time>1970-01-01T00:02:06.000Z</time>
      </trkpt>
      <trkpt lat="41.332497" lon="2.029423">
        <ele>42.9</ele>
        <time>1970-01-01T00:02:07.000Z</time>
      </trkpt>
      <trkpt lat="41.332478" lon="2.02942">
        <ele>42.9</ele>
        <time>1970-01-01T00:02:08.000Z</time>
      </trkpt>
      <trkpt lat="41.332478" lon="2.02942">
        <ele>42.9</ele>
        <time>1970-01-01T00:02:09.000Z</time>
      </trkpt>
      <trkpt lat="41.332445" lon="2.029422">
        <ele>43.9</ele>
        <time>1970-01-01T00:02:10.000Z</time>
      </trkpt>
      <trkpt lat="41.332445" lon="2.029422">
        <ele>43.9</ele>
        <time>1970-01-01T00:02:11.000Z</time>
      </trkpt>
      <trkpt lat="41.33241" lon="2.029435">
        <ele>43.9</ele>
        <time>1970-01-01T00:02:12.000Z</time>
      </trkpt>
      <trkpt lat="41.33241" lon="2.029435">
        <ele>43.9</ele>
        <time>1970-01-01T00:02:13.000Z</time>
      </trkpt>
      <trkpt lat="41.332372" lon="2.029452">
        <ele>44.9</ele>
        <time>1970-01-01T00:02:14.000Z</time>
      </trkpt>
      <trkpt lat="41.332372" lon="2.029452">
        <ele>44.9</ele>
        <time>1970-01-01T00:02:15.000Z</time>
      </trkpt>
      <trkpt lat="41.332332" lon="2.029462">
        <ele>44.9</ele>
        <time>1970-01-01T00:02:16.000Z</time>
      </trkpt>
      <trkpt lat="41.332332" lon="2.029462">
        <ele>44.9</ele>
        <time>1970-01-01T00:02:17.000Z</time>
      </trkpt>
      <trkpt lat="41.332293" lon="2.029468">
        <ele>44.9</ele>
        <time>1970-01-01T00:02:18.000Z</time>
      </trkpt>
      <trkpt lat="41.332293" lon="2.029468">
        <ele>44.9</ele>
        <time>1970-01-01T00:02:19.000Z</time>
      </trkpt>
      <trkpt lat="41.332252" lon="2.02948">
        <ele>45.9</ele>
        <time>1970-01-01T00:02:20.000Z</time>
      </trkpt>
      <trkpt lat="41.33223" lon="2.029487">
        <ele>45.9</ele>
        <time>1970-01-01T00:02:21.000Z</time>
      </trkpt>
      <trkpt lat="41.33223" lon="2.029487">
        <ele>45.9</ele>
        <time>1970-01-01T00:02:22.000Z</time>
      </trkpt>
      <trkpt lat="41.332188" lon="2.029508">
        <ele>45.9</ele>
        <time>1970-01-01T00:02:23.000Z</time>
      </trkpt>
      <trkpt lat="41.332168" lon="2.029522">
        <ele>46.9</ele>
        <time>1970-01-01T00:02:24.000Z</time>
      </trkpt>
      <trkpt lat="41.332148" lon="2.029528">
        <ele>46.9</ele>
        <time>1970-01-01T00:02:25.000Z</time>
      </trkpt>
      <trkpt lat="41.332128" lon="2.029525">
        <ele>46.9</ele>
        <time>1970-01-01T00:02:26.000Z</time>
      </trkpt>
      <trkpt lat="41.332128" lon="2.029525">
        <ele>46.9</ele>
        <time>1970-01-01T00:02:27.000Z</time>
      </trkpt>
      <trkpt lat="41.332088" lon="2.02951">
        <ele>46.9</ele>
        <time>1970-01-01T00:02:28.000Z</time>
      </trkpt>
      <trkpt lat="41.332088" lon="2.02951">
        <ele>46.9</ele>
        <time>1970-01-01T00:02:29.000Z</time>
      </trkpt>
      <trkpt lat="41.332057" lon="2.02949">
        <ele>47.9</ele>
        <time>1970-01-01T00:02:30.000Z</time>
      </trkpt>
      <trkpt lat="41.332057" lon="2.02949">
        <ele>47.9</ele>
        <time>1970-01-01T00:02:31.000Z</time>
      </trkpt>
      <trkpt lat="41.33202" lon="2.029485">
        <ele>47.9</ele>
        <time>1970-01-01T00:02:32.000Z</time>
      </trkpt>
      <trkpt lat="41.33202" lon="2.029485">
        <ele>47.9</ele>
        <time>1970-01-01T00:02:33.000Z</time>
      </trkpt>
      <trkpt lat="41.33198" lon="2.029472">
        <ele>47.9</ele>
        <time>1970-01-01T00:02:34.000Z</time>
      </trkpt>
      <trkpt lat="41.33198" lon="2.029472">
        <ele>47.9</ele>
        <time>1970-01-01T00:02:35.000Z</time>
      </trkpt>
      <trkpt lat="41.331938" lon="2.02946">
        <ele>47.9</ele>
        <time>1970-01-01T00:02:36.000Z</time>
      </trkpt>
      <trkpt lat="41.331938" lon="2.02946">
        <ele>48.9</ele>
        <time>1970-01-01T00:02:37.000Z</time>
      </trkpt>
      <trkpt lat="41.331893" lon="2.029447">
        <ele>48.9</ele>
        <time>1970-01-01T00:02:38.000Z</time>
      </trkpt>
      <trkpt lat="41.331873" lon="2.029438">
        <ele>48.9</ele>
        <time>1970-01-01T00:02:39.000Z</time>
      </trkpt>
      <trkpt lat="41.331873" lon="2.029438">
        <ele>48.9</ele>
        <time>1970-01-01T00:02:40.000Z</time>
      </trkpt>
      <trkpt lat="41.331835" lon="2.029413">
        <ele>48.9</ele>
        <time>1970-01-01T00:02:41.000Z</time>
      </trkpt>
      <trkpt lat="41.331835" lon="2.029413">
        <ele>48.9</ele>
        <time>1970-01-01T00:02:42.000Z</time>
      </trkpt>
      <trkpt lat="41.3318" lon="2.029385">
        <ele>48.9</ele>
        <time>1970-01-01T00:02:43.000Z</time>
      </trkpt>
      <trkpt lat="41.331785" lon="2.029372">
        <ele>48.9</ele>
        <time>1970-01-01T00:02:44.000Z</time>
      </trkpt>
      <trkpt lat="41.331785" lon="2.029372">
        <ele>48.9</ele>
        <time>1970-01-01T00:02:45.000Z</time>
      </trkpt>
      <trkpt lat="41.331748" lon="2.029343">
        <ele>49.9</ele>
        <time>1970-01-01T00:02:46.000Z</time>
      </trkpt>
      <trkpt lat="41.331748" lon="2.029343">
        <ele>49.9</ele>
        <time>1970-01-01T00:02:47.000Z</time>
      </trkpt>
      <trkpt lat="41.331708" lon="2.029322">
        <ele>49.9</ele>
        <time>1970-01-01T00:02:48.000Z</time>
      </trkpt>
      <trkpt lat="41.331708" lon="2.029322">
        <ele>49.9</ele>
        <time>1970-01-01T00:02:49.000Z</time>
      </trkpt>
      <trkpt lat="41.33167" lon="2.029297">
        <ele>49.9</ele>
        <time>1970-01-01T00:02:50.000Z</time>
      </trkpt>
      <trkpt lat="41.33167" lon="2.029297">
        <ele>49.9</ele>
        <time>1970-01-01T00:02:51.000Z</time>
      </trkpt>
      <trkpt lat="41.331638" lon="2.02926">
        <ele>51.9</ele>
        <time>1970-01-01T00:02:52.000Z</time>
      </trkpt>
      <trkpt lat="41.331638" lon="2.02926">
        <ele>51.9</ele>
        <time>1970-01-01T00:02:53.000Z</time>
      </trkpt>
      <trkpt lat="41.331615" lon="2.029218">
        <ele>51.9</ele>
        <time>1970-01-01T00:02:54.000Z</time>
      </trkpt>
      <trkpt lat="41.331615" lon="2.029218">
        <ele>51.9</ele>
        <time>1970-01-01T00:02:55.000Z</time>
      </trkpt>
      <trkpt lat="41.331592" lon="2.029175">
        <ele>51.9</ele>
        <time>1970-01-01T00:02:56.000Z</time>
      </trkpt>
      <trkpt lat="41.331592" lon="2.029175">
        <ele>51.9</ele>
        <time>1970-01-01T00:02:57.000Z</time>
      </trkpt>
      <trkpt lat="41.331572" lon="2.02913">
        <ele>51.9</ele>
        <time>1970-01-01T00:02:58.000Z</time>
      </trkpt>
      <trkpt lat="41.331572" lon="2.02913">
        <ele>51.9</ele>
        <time>1970-01-01T00:02:59.000Z</time>
      </trkpt>
      <trkpt lat="41.331555" lon="2.029088">
        <ele>52.9</ele>
        <time>1970-01-01T00:03:00.000Z</time>
      </trkpt>
      <trkpt lat="41.331555" lon="2.029088">
        <ele>52.9</ele>
        <time>1970-01-01T00:03:01.000Z</time>
      </trkpt>
      <trkpt lat="41.331547" lon="2.02904">
        <ele>53.9</ele>
        <time>1970-01-01T00:03:02.000Z</time>
      </trkpt>
      <trkpt lat="41.331547" lon="2.02904">
        <ele>53.9</ele>
        <time>1970-01-01T00:03:03.000Z</time>
      </trkpt>
      <trkpt lat="41.331532" lon="2.028992">
        <ele>53.9</ele>
        <time>1970-01-01T00:03:04.000Z</time>
      </trkpt>
      <trkpt lat="41.331532" lon="2.028992">
        <ele>53.9</ele>
        <time>1970-01-01T00:03:05.000Z</time>
      </trkpt>
      <trkpt lat="41.331515" lon="2.028947">
        <ele>53.9</ele>
        <time>1970-01-01T00:03:06.000Z</time>
      </trkpt>
      <trkpt lat="41.331515" lon="2.028947">
        <ele>53.9</ele>
        <time>1970-01-01T00:03:07.000Z</time>
      </trkpt>
      <trkpt lat="41.331498" lon="2.028898">
        <ele>53.9</ele>
        <time>1970-01-01T00:03:08.000Z</time>
      </trkpt>
      <trkpt lat="41.331498" lon="2.028898">
        <ele>53.9</ele>
        <time>1970-01-01T00:03:09.000Z</time>
      </trkpt>
      <trkpt lat="41.331483" lon="2.028853">
        <ele>53.9</ele>
        <time>1970-01-01T00:03:10.000Z</time>
      </trkpt>
      <trkpt lat="41.331483" lon="2.028853">
        <ele>53.9</ele>
        <time>1970-01-01T00:03:11.000Z</time>
      </trkpt>
      <trkpt lat="41.331465" lon="2.028807">
        <ele>53.9</ele>
        <time>1970-01-01T00:03:12.000Z</time>
      </trkpt>
      <trkpt lat="41.331455" lon="2.028785">
        <ele>53.9</ele>
        <time>1970-01-01T00:03:13.000Z</time>
      </trkpt>
      <trkpt lat="41.331455" lon="2.028785">
        <ele>54.9</ele>
        <time>1970-01-01T00:03:14.000Z</time>
      </trkpt>
      <trkpt lat="41.331435" lon="2.028747">
        <ele>54.9</ele>
        <time>1970-01-01T00:03:15.000Z</time>
      </trkpt>
      <trkpt lat="41.331423" lon="2.028728">
        <ele>54.9</ele>
        <time>1970-01-01T00:03:16.000Z</time>
      </trkpt>
      <trkpt lat="41.331423" lon="2.028728">
        <ele>54.9</ele>
        <time>1970-01-01T00:03:17.000Z</time>
      </trkpt>
      <trkpt lat="41.331397" lon="2.02869">
        <ele>54.9</ele>
        <time>1970-01-01T00:03:18.000Z</time>
      </trkpt>
      <trkpt lat="41.331397" lon="2.02869">
        <ele>55.9</ele>
        <time>1970-01-01T00:03:19.000Z</time>
      </trkpt>
      <trkpt lat="41.331367" lon="2.028655">
        <ele>55.9</ele>
        <time>1970-01-01T00:03:20.000Z</time>
      </trkpt>
      <trkpt lat="41.331367" lon="2.028655">
        <ele>55.9</ele>
        <time>1970-01-01T00:03:21.000Z</time>
      </trkpt>
      <trkpt lat="41.33133" lon="2.028635">
        <ele>55.9</ele>
        <time>1970-01-01T00:03:22.000Z</time>
      </trkpt>
      <trkpt lat="41.33133" lon="2.028635">
        <ele>55.9</ele>
        <time>1970-01-01T00:03:23.000Z</time>
      </trkpt>
      <trkpt lat="41.331285" lon="2.028628">
        <ele>55.9</ele>
        <time>1970-01-01T00:03:24.000Z</time>
      </trkpt>
      <trkpt lat="41.331285" lon="2.028628">
        <ele>55.9</ele>
        <time>1970-01-01T00:03:25.000Z</time>
      </trkpt>
      <trkpt lat="41.331232" lon="2.028627">
        <ele>55.9</ele>
        <time>1970-01-01T00:03:26.000Z</time>
      </trkpt>
      <trkpt lat="41.331232" lon="2.028627">
        <ele>55.9</ele>
        <time>1970-01-01T00:03:27.000Z</time>
      </trkpt>
      <trkpt lat="41.331175" lon="2.028635">
        <ele>55.9</ele>
        <time>1970-01-01T00:03:28.000Z</time>
      </trkpt>
      <trkpt lat="41.331175" lon="2.028635">
        <ele>55.9</ele>
        <time>1970-01-01T00:03:29.000Z</time>
      </trkpt>
      <trkpt lat="41.33112" lon="2.028645">
        <ele>55.9</ele>
        <time>1970-01-01T00:03:30.000Z</time>
      </trkpt>
      <trkpt lat="41.33112" lon="2.028645">
        <ele>55.9</ele>
        <time>1970-01-01T00:03:31.000Z</time>
      </trkpt>
      <trkpt lat="41.331067" lon="2.028655">
        <ele>55.9</ele>
        <time>1970-01-01T00:03:32.000Z</time>
      </trkpt>
      <trkpt lat="41.331067" lon="2.028655">
        <ele>55.9</ele>
        <time>1970-01-01T00:03:33.000Z</time>
      </trkpt>
      <trkpt lat="41.331013" lon="2.02865">
        <ele>51.9</ele>
        <time>1970-01-01T00:03:34.000Z</time>
      </trkpt>
      <trkpt lat="41.331013" lon="2.02865">
        <ele>51.9</ele>
        <time>1970-01-01T00:03:35.000Z</time>
      </trkpt>
      <trkpt lat="41.330965" lon="2.028632">
        <ele>50.9</ele>
        <time>1970-01-01T00:03:36.000Z</time>
      </trkpt>
      <trkpt lat="41.330965" lon="2.028632">
        <ele>50.9</ele>
        <time>1970-01-01T00:03:37.000Z</time>
      </trkpt>
      <trkpt lat="41.330913" lon="2.028605">
        <ele>52.9</ele>
        <time>1970-01-01T00:03:38.000Z</time>
      </trkpt>
      <trkpt lat="41.330913" lon="2.028605">
        <ele>52.9</ele>
        <time>1970-01-01T00:03:39.000Z</time>
      </trkpt>
      <trkpt lat="41.330857" lon="2.028592">
        <ele>53.9</ele>
        <time>1970-01-01T00:03:40.000Z</time>
      </trkpt>
      <trkpt lat="41.330857" lon="2.028592">
        <ele>53.9</ele>
        <time>1970-01-01T00:03:41.000Z</time>
      </trkpt>
      <trkpt lat="41.330802" lon="2.02858">
        <ele>53.9</ele>
        <time>1970-01-01T00:03:42.000Z</time>
      </trkpt>
      <trkpt lat="41.33077" lon="2.028577">
        <ele>53.9</ele>
        <time>1970-01-01T00:03:43.000Z</time>
      </trkpt>
      <trkpt lat="41.33077" lon="2.028577">
        <ele>53.9</ele>
        <time>1970-01-01T00:03:44.000Z</time>
      </trkpt>
      <trkpt lat="41.330697" lon="2.02857">
        <ele>53.9</ele>
        <time>1970-01-01T00:03:45.000Z</time>
      </trkpt>
      <trkpt lat="41.330697" lon="2.02857">
        <ele>53.9</ele>
        <time>1970-01-01T00:03:46.000Z</time>
      </trkpt>
      <trkpt lat="41.330603" lon="2.028568">
        <ele>53.9</ele>
        <time>1970-01-01T00:03:47.000Z</time>
      </trkpt>
      <trkpt lat="41.330603" lon="2.028568">
        <ele>53.9</ele>
        <time>1970-01-01T00:03:48.000Z</time>
      </trkpt>
      <trkpt lat="41.330512" lon="2.028545">
        <ele>53.9</ele>
        <time>1970-01-01T00:03:49.000Z</time>
      </trkpt>
      <trkpt lat="41.330473" lon="2.02853">
        <ele>53.9</ele>
        <time>1970-01-01T00:03:50.000Z</time>
      </trkpt>
      <trkpt lat="41.330473" lon="2.02853">
        <ele>53.9</ele>
        <time>1970-01-01T00:03:51.000Z</time>
      </trkpt>
      <trkpt lat="41.330413" lon="2.02849">
        <ele>53.9</ele>
        <time>1970-01-01T00:03:52.000Z</time>
      </trkpt>
      <trkpt lat="41.330413" lon="2.02849">
        <ele>53.9</ele>
        <time>1970-01-01T00:03:53.000Z</time>
      </trkpt>
      <trkpt lat="41.330365" lon="2.028442">
        <ele>53.9</ele>
        <time>1970-01-01T00:03:54.000Z</time>
      </trkpt>
      <trkpt lat="41.330365" lon="2.028442">
        <ele>53.9</ele>
        <time>1970-01-01T00:03:55.000Z</time>
      </trkpt>
      <trkpt lat="41.330325" lon="2.028383">
        <ele>53.9</ele>
        <time>1970-01-01T00:03:56.000Z</time>
      </trkpt>
      <trkpt lat="41.330325" lon="2.028383">
        <ele>53.9</ele>
        <time>1970-01-01T00:03:57.000Z</time>
      </trkpt>
      <trkpt lat="41.33029" lon="2.028327">
        <ele>55.9</ele>
        <time>1970-01-01T00:03:58.000Z</time>
      </trkpt>
      <trkpt lat="41.33029" lon="2.028327">
        <ele>55.9</ele>
        <time>1970-01-01T00:03:59.000Z</time>
      </trkpt>
      <trkpt lat="41.330257" lon="2.028273">
        <ele>55.9</ele>
        <time>1970-01-01T00:04:00.000Z</time>
      </trkpt>
      <trkpt lat="41.330257" lon="2.028273">
        <ele>55.9</ele>
        <time>1970-01-01T00:04:01.000Z</time>
      </trkpt>
      <trkpt lat="41.330227" lon="2.028222">
        <ele>55.9</ele>
        <time>1970-01-01T00:04:02.000Z</time>
      </trkpt>
      <trkpt lat="41.330227" lon="2.028222">
        <ele>55.9</ele>
        <time>1970-01-01T00:04:03.000Z</time>
      </trkpt>
      <trkpt lat="41.330202" lon="2.02817">
        <ele>55.9</ele>
        <time>1970-01-01T00:04:04.000Z</time>
      </trkpt>
      <trkpt lat="41.330202" lon="2.02817">
        <ele>57.9</ele>
        <time>1970-01-01T00:04:05.000Z</time>
      </trkpt>
      <trkpt lat="41.330178" lon="2.028117">
        <ele>57.9</ele>
        <time>1970-01-01T00:04:06.000Z</time>
      </trkpt>
      <trkpt lat="41.330178" lon="2.028117">
        <ele>57.9</ele>
        <time>1970-01-01T00:04:07.000Z</time>
      </trkpt>
      <trkpt lat="41.330158" lon="2.02807">
        <ele>57.9</ele>
        <time>1970-01-01T00:04:08.000Z</time>
      </trkpt>
      <trkpt lat="41.330158" lon="2.02807">
        <ele>58.9</ele>
        <time>1970-01-01T00:04:09.000Z</time>
      </trkpt>
      <trkpt lat="41.330128" lon="2.02803">
        <ele>58.9</ele>
        <time>1970-01-01T00:04:10.000Z</time>
      </trkpt>
      <trkpt lat="41.330128" lon="2.02803">
        <ele>58.9</ele>
        <time>1970-01-01T00:04:11.000Z</time>
      </trkpt>
      <trkpt lat="41.330095" lon="2.027993">
        <ele>58.9</ele>
        <time>1970-01-01T00:04:12.000Z</time>
      </trkpt>
      <trkpt lat="41.330095" lon="2.027993">
        <ele>59.9</ele>
        <time>1970-01-01T00:04:13.000Z</time>
      </trkpt>
      <trkpt lat="41.330053" lon="2.027947">
        <ele>59.9</ele>
        <time>1970-01-01T00:04:14.000Z</time>
      </trkpt>
      <trkpt lat="41.330053" lon="2.027947">
        <ele>59.9</ele>
        <time>1970-01-01T00:04:15.000Z</time>
      </trkpt>
      <trkpt lat="41.330035" lon="2.027872">
        <ele>59.9</ele>
        <time>1970-01-01T00:04:16.000Z</time>
      </trkpt>
      <trkpt lat="41.330035" lon="2.027872">
        <ele>60.9</ele>
        <time>1970-01-01T00:04:17.000Z</time>
      </trkpt>
      <trkpt lat="41.33003" lon="2.027822">
        <ele>60.9</ele>
        <time>1970-01-01T00:04:18.000Z</time>
      </trkpt>
      <trkpt lat="41.33003" lon="2.027822">
        <ele>61.9</ele>
        <time>1970-01-01T00:04:19.000Z</time>
      </trkpt>
      <trkpt lat="41.330045" lon="2.027765">
        <ele>61.9</ele>
        <time>1970-01-01T00:04:20.000Z</time>
      </trkpt>
      <trkpt lat="41.330045" lon="2.027765">
        <ele>61.9</ele>
        <time>1970-01-01T00:04:21.000Z</time>
      </trkpt>
      <trkpt lat="41.33006" lon="2.027713">
        <ele>61.9</ele>
        <time>1970-01-01T00:04:22.000Z</time>
      </trkpt>
      <trkpt lat="41.33006" lon="2.027713">
        <ele>63.9</ele>
        <time>1970-01-01T00:04:23.000Z</time>
      </trkpt>
      <trkpt lat="41.330083" lon="2.027658">
        <ele>63.9</ele>
        <time>1970-01-01T00:04:24.000Z</time>
      </trkpt>
      <trkpt lat="41.330083" lon="2.027658">
        <ele>63.9</ele>
        <time>1970-01-01T00:04:25.000Z</time>
      </trkpt>
      <trkpt lat="41.330103" lon="2.027597">
        <ele>63.9</ele>
        <time>1970-01-01T00:04:26.000Z</time>
      </trkpt>
      <trkpt lat="41.330112" lon="2.027562">
        <ele>63.9</ele>
        <time>1970-01-01T00:04:27.000Z</time>
      </trkpt>
      <trkpt lat="41.330122" lon="2.027527">
        <ele>63.9</ele>
        <time>1970-01-01T00:04:28.000Z</time>
      </trkpt>
      <trkpt lat="41.330122" lon="2.027527">
        <ele>63.9</ele>
        <time>1970-01-01T00:04:29.000Z</time>
      </trkpt>
      <trkpt lat="41.330133" lon="2.027452">
        <ele>63.9</ele>
        <time>1970-01-01T00:04:30.000Z</time>
      </trkpt>
      <trkpt lat="41.330137" lon="2.027415">
        <ele>63.9</ele>
        <time>1970-01-01T00:04:31.000Z</time>
      </trkpt>
      <trkpt lat="41.330137" lon="2.027375">
        <ele>63.9</ele>
        <time>1970-01-01T00:04:32.000Z</time>
      </trkpt>
      <trkpt lat="41.330137" lon="2.027375">
        <ele>63.9</ele>
        <time>1970-01-01T00:04:33.000Z</time>
      </trkpt>
      <trkpt lat="41.330128" lon="2.02728">
        <ele>63.9</ele>
        <time>1970-01-01T00:04:34.000Z</time>
      </trkpt>
      <trkpt lat="41.330128" lon="2.02728">
        <ele>63.9</ele>
        <time>1970-01-01T00:04:35.000Z</time>
      </trkpt>
      <trkpt lat="41.330128" lon="2.02728">
        <ele>63.9</ele>
        <time>1970-01-01T00:04:36.000Z</time>
      </trkpt>
      <trkpt lat="41.330102" lon="2.027158">
        <ele>63.9</ele>
        <time>1970-01-01T00:04:37.000Z</time>
      </trkpt>
      <trkpt lat="41.330072" lon="2.027017">
        <ele>63.9</ele>
        <time>1970-01-01T00:04:38.000Z</time>
      </trkpt>
      <trkpt lat="41.330072" lon="2.027017">
        <ele>62.9</ele>
        <time>1970-01-01T00:04:39.000Z</time>
      </trkpt>
      <trkpt lat="41.330042" lon="2.026862">
        <ele>62.9</ele>
        <time>1970-01-01T00:04:40.000Z</time>
      </trkpt>
      <trkpt lat="41.330042" lon="2.026862">
        <ele>62.9</ele>
        <time>1970-01-01T00:04:41.000Z</time>
      </trkpt>
      <trkpt lat="41.329987" lon="2.026712">
        <ele>61.9</ele>
        <time>1970-01-01T00:04:42.000Z</time>
      </trkpt>
      <trkpt lat="41.329957" lon="2.026642">
        <ele>61.9</ele>
        <time>1970-01-01T00:04:43.000Z</time>
      </trkpt>
      <trkpt lat="41.329923" lon="2.026575">
        <ele>61.9</ele>
        <time>1970-01-01T00:04:44.000Z</time>
      </trkpt>
      <trkpt lat="41.329923" lon="2.026575">
        <ele>61.9</ele>
        <time>1970-01-01T00:04:45.000Z</time>
      </trkpt>
      <trkpt lat="41.329862" lon="2.026448">
        <ele>60.9</ele>
        <time>1970-01-01T00:04:46.000Z</time>
      </trkpt>
      <trkpt lat="41.329862" lon="2.026448">
        <ele>60.9</ele>
        <time>1970-01-01T00:04:47.000Z</time>
      </trkpt>
      <trkpt lat="41.329797" lon="2.026332">
        <ele>60.9</ele>
        <time>1970-01-01T00:04:48.000Z</time>
      </trkpt>
      <trkpt lat="41.329797" lon="2.026332">
        <ele>60.9</ele>
        <time>1970-01-01T00:04:49.000Z</time>
      </trkpt>
      <trkpt lat="41.329723" lon="2.026242">
        <ele>60.9</ele>
        <time>1970-01-01T00:04:50.000Z</time>
      </trkpt>
      <trkpt lat="41.329723" lon="2.026242">
        <ele>60.9</ele>
        <time>1970-01-01T00:04:51.000Z</time>
      </trkpt>
      <trkpt lat="41.329655" lon="2.02618">
        <ele>60.9</ele>
        <time>1970-01-01T00:04:52.000Z</time>
      </trkpt>
      <trkpt lat="41.329655" lon="2.02618">
        <ele>60.9</ele>
        <time>1970-01-01T00:04:53.000Z</time>
      </trkpt>
      <trkpt lat="41.329593" lon="2.026137">
        <ele>60.9</ele>
        <time>1970-01-01T00:04:54.000Z</time>
      </trkpt>
      <trkpt lat="41.329593" lon="2.026137">
        <ele>60.9</ele>
        <time>1970-01-01T00:04:55.000Z</time>
      </trkpt>
      <trkpt lat="41.32953" lon="2.026097">
        <ele>60.9</ele>
        <time>1970-01-01T00:04:56.000Z</time>
      </trkpt>
      <trkpt lat="41.3295" lon="2.026075">
        <ele>60.9</ele>
        <time>1970-01-01T00:04:57.000Z</time>
      </trkpt>
      <trkpt lat="41.3295" lon="2.026075">
        <ele>60.9</ele>
        <time>1970-01-01T00:04:58.000Z</time>
      </trkpt>
      <trkpt lat="41.329443" lon="2.026038">
        <ele>60.9</ele>
        <time>1970-01-01T00:04:59.000Z</time>
      </trkpt>
      <trkpt lat="41.329443" lon="2.026038">
        <ele>60.9</ele>
        <time>1970-01-01T00:05:00.000Z</time>
      </trkpt>
      <trkpt lat="41.32939" lon="2.026003">
        <ele>60.9</ele>
        <time>1970-01-01T00:05:01.000Z</time>
      </trkpt>
      <trkpt lat="41.32939" lon="2.026003">
        <ele>61.9</ele>
        <time>1970-01-01T00:05:02.000Z</time>
      </trkpt>
      <trkpt lat="41.329335" lon="2.025963">
        <ele>61.9</ele>
        <time>1970-01-01T00:05:03.000Z</time>
      </trkpt>
      <trkpt lat="41.329305" lon="2.025945">
        <ele>61.9</ele>
        <time>1970-01-01T00:05:04.000Z</time>
      </trkpt>
      <trkpt lat="41.329305" lon="2.025945">
        <ele>61.9</ele>
        <time>1970-01-01T00:05:05.000Z</time>
      </trkpt>
      <trkpt lat="41.32924" lon="2.025917">
        <ele>61.9</ele>
        <time>1970-01-01T00:05:06.000Z</time>
      </trkpt>
      <trkpt lat="41.329205" lon="2.025907">
        <ele>61.9</ele>
        <time>1970-01-01T00:05:07.000Z</time>
      </trkpt>
      <trkpt lat="41.329172" lon="2.025897">
        <ele>62.9</ele>
        <time>1970-01-01T00:05:08.000Z</time>
      </trkpt>
      <trkpt lat="41.32914" lon="2.025887">
        <ele>62.9</ele>
        <time>1970-01-01T00:05:09.000Z</time>
      </trkpt>
      <trkpt lat="41.32914" lon="2.025887">
        <ele>62.9</ele>
        <time>1970-01-01T00:05:10.000Z</time>
      </trkpt>
      <trkpt lat="41.329077" lon="2.02587">
        <ele>62.9</ele>
        <time>1970-01-01T00:05:11.000Z</time>
      </trkpt>
      <trkpt lat="41.32905" lon="2.025868">
        <ele>62.9</ele>
        <time>1970-01-01T00:05:12.000Z</time>
      </trkpt>
      <trkpt lat="41.329017" lon="2.025867">
        <ele>62.9</ele>
        <time>1970-01-01T00:05:13.000Z</time>
      </trkpt>
      <trkpt lat="41.329017" lon="2.025867">
        <ele>62.9</ele>
        <time>1970-01-01T00:05:14.000Z</time>
      </trkpt>
      <trkpt lat="41.328948" lon="2.025867">
        <ele>62.9</ele>
        <time>1970-01-01T00:05:15.000Z</time>
      </trkpt>
      <trkpt lat="41.328915" lon="2.025872">
        <ele>63.9</ele>
        <time>1970-01-01T00:05:16.000Z</time>
      </trkpt>
      <trkpt lat="41.328915" lon="2.025872">
        <ele>63.9</ele>
        <time>1970-01-01T00:05:17.000Z</time>
      </trkpt>
      <trkpt lat="41.328857" lon="2.025868">
        <ele>63.9</ele>
        <time>1970-01-01T00:05:18.000Z</time>
      </trkpt>
      <trkpt lat="41.328857" lon="2.025868">
        <ele>63.9</ele>
        <time>1970-01-01T00:05:19.000Z</time>
      </trkpt>
      <trkpt lat="41.328797" lon="2.02586">
        <ele>63.9</ele>
        <time>1970-01-01T00:05:20.000Z</time>
      </trkpt>
      <trkpt lat="41.328797" lon="2.02586">
        <ele>63.9</ele>
        <time>1970-01-01T00:05:21.000Z</time>
      </trkpt>
      <trkpt lat="41.328735" lon="2.025853">
        <ele>64.9</ele>
        <time>1970-01-01T00:05:22.000Z</time>
      </trkpt>
      <trkpt lat="41.328735" lon="2.025853">
        <ele>64.9</ele>
        <time>1970-01-01T00:05:23.000Z</time>
      </trkpt>
      <trkpt lat="41.328678" lon="2.025845">
        <ele>64.9</ele>
        <time>1970-01-01T00:05:24.000Z</time>
      </trkpt>
      <trkpt lat="41.328657" lon="2.025845">
        <ele>65.9</ele>
        <time>1970-01-01T00:05:25.000Z</time>
      </trkpt>
      <trkpt lat="41.328635" lon="2.025838">
        <ele>65.9</ele>
        <time>1970-01-01T00:05:26.000Z</time>
      </trkpt>
      <trkpt lat="41.328635" lon="2.025838">
        <ele>65.9</ele>
        <time>1970-01-01T00:05:27.000Z</time>
      </trkpt>
      <trkpt lat="41.328587" lon="2.025818">
        <ele>65.9</ele>
        <time>1970-01-01T00:05:28.000Z</time>
      </trkpt>
      <trkpt lat="41.328587" lon="2.025818">
        <ele>66.9</ele>
        <time>1970-01-01T00:05:29.000Z</time>
      </trkpt>
      <trkpt lat="41.328527" lon="2.025805">
        <ele>66.9</ele>
        <time>1970-01-01T00:05:30.000Z</time>
      </trkpt>
      <trkpt lat="41.328527" lon="2.025805">
        <ele>66.9</ele>
        <time>1970-01-01T00:05:31.000Z</time>
      </trkpt>
      <trkpt lat="41.328473" lon="2.02579">
        <ele>66.9</ele>
        <time>1970-01-01T00:05:32.000Z</time>
      </trkpt>
      <trkpt lat="41.328473" lon="2.02579">
        <ele>66.9</ele>
        <time>1970-01-01T00:05:33.000Z</time>
      </trkpt>
      <trkpt lat="41.328425" lon="2.025782">
        <ele>66.9</ele>
        <time>1970-01-01T00:05:34.000Z</time>
      </trkpt>
      <trkpt lat="41.328425" lon="2.025782">
        <ele>67.9</ele>
        <time>1970-01-01T00:05:35.000Z</time>
      </trkpt>
      <trkpt lat="41.328377" lon="2.025763">
        <ele>67.9</ele>
        <time>1970-01-01T00:05:36.000Z</time>
      </trkpt>
      <trkpt lat="41.328377" lon="2.025763">
        <ele>67.9</ele>
        <time>1970-01-01T00:05:37.000Z</time>
      </trkpt>
      <trkpt lat="41.328325" lon="2.025737">
        <ele>67.9</ele>
        <time>1970-01-01T00:05:38.000Z</time>
      </trkpt>
      <trkpt lat="41.328325" lon="2.025737">
        <ele>68.9</ele>
        <time>1970-01-01T00:05:39.000Z</time>
      </trkpt>
      <trkpt lat="41.328278" lon="2.025698">
        <ele>68.9</ele>
        <time>1970-01-01T00:05:40.000Z</time>
      </trkpt>
      <trkpt lat="41.328278" lon="2.025698">
        <ele>68.9</ele>
        <time>1970-01-01T00:05:41.000Z</time>
      </trkpt>
      <trkpt lat="41.328232" lon="2.02564">
        <ele>68.9</ele>
        <time>1970-01-01T00:05:42.000Z</time>
      </trkpt>
      <trkpt lat="41.328208" lon="2.025602">
        <ele>68.9</ele>
        <time>1970-01-01T00:05:43.000Z</time>
      </trkpt>
      <trkpt lat="41.328208" lon="2.025602">
        <ele>68.9</ele>
        <time>1970-01-01T00:05:44.000Z</time>
      </trkpt>
      <trkpt lat="41.328155" lon="2.025497">
        <ele>67.9</ele>
        <time>1970-01-01T00:05:45.000Z</time>
      </trkpt>
      <trkpt lat="41.328155" lon="2.025497">
        <ele>67.9</ele>
        <time>1970-01-01T00:05:46.000Z</time>
      </trkpt>
      <trkpt lat="41.328105" lon="2.025368">
        <ele>67.9</ele>
        <time>1970-01-01T00:05:47.000Z</time>
      </trkpt>
      <trkpt lat="41.328075" lon="2.025302">
        <ele>67.9</ele>
        <time>1970-01-01T00:05:48.000Z</time>
      </trkpt>
      <trkpt lat="41.328037" lon="2.025238">
        <ele>66.9</ele>
        <time>1970-01-01T00:05:49.000Z</time>
      </trkpt>
      <trkpt lat="41.32799" lon="2.02518">
        <ele>66.9</ele>
        <time>1970-01-01T00:05:50.000Z</time>
      </trkpt>
      <trkpt lat="41.32799" lon="2.02518">
        <ele>66.9</ele>
        <time>1970-01-01T00:05:51.000Z</time>
      </trkpt>
      <trkpt lat="41.327892" lon="2.025048">
        <ele>66.9</ele>
        <time>1970-01-01T00:05:52.000Z</time>
      </trkpt>
      <trkpt lat="41.327892" lon="2.025048">
        <ele>65.9</ele>
        <time>1970-01-01T00:05:53.000Z</time>
      </trkpt>
      <trkpt lat="41.327832" lon="2.024883">
        <ele>65.9</ele>
        <time>1970-01-01T00:05:54.000Z</time>
      </trkpt>
      <trkpt lat="41.327822" lon="2.024805">
        <ele>65.9</ele>
        <time>1970-01-01T00:05:55.000Z</time>
      </trkpt>
      <trkpt lat="41.327822" lon="2.024805">
        <ele>65.9</ele>
        <time>1970-01-01T00:05:56.000Z</time>
      </trkpt>
      <trkpt lat="41.3278" lon="2.024673">
        <ele>64.9</ele>
        <time>1970-01-01T00:05:57.000Z</time>
      </trkpt>
      <trkpt lat="41.327783" lon="2.024608">
        <ele>64.9</ele>
        <time>1970-01-01T00:05:58.000Z</time>
      </trkpt>
      <trkpt lat="41.327773" lon="2.024543">
        <ele>64.9</ele>
        <time>1970-01-01T00:05:59.000Z</time>
      </trkpt>
      <trkpt lat="41.327773" lon="2.024543">
        <ele>64.9</ele>
        <time>1970-01-01T00:06:00.000Z</time>
      </trkpt>
      <trkpt lat="41.327785" lon="2.02443">
        <ele>64.9</ele>
        <time>1970-01-01T00:06:01.000Z</time>
      </trkpt>
      <trkpt lat="41.3278" lon="2.024377">
        <ele>64.9</ele>
        <time>1970-01-01T00:06:02.000Z</time>
      </trkpt>
      <trkpt lat="41.3278" lon="2.024377">
        <ele>64.9</ele>
        <time>1970-01-01T00:06:03.000Z</time>
      </trkpt>
      <trkpt lat="41.327832" lon="2.02427">
        <ele>64.9</ele>
        <time>1970-01-01T00:06:04.000Z</time>
      </trkpt>
      <trkpt lat="41.327832" lon="2.02427">
        <ele>64.9</ele>
        <time>1970-01-01T00:06:05.000Z</time>
      </trkpt>
      <trkpt lat="41.32787" lon="2.024155">
        <ele>64.9</ele>
        <time>1970-01-01T00:06:06.000Z</time>
      </trkpt>
      <trkpt lat="41.32787" lon="2.024155">
        <ele>64.9</ele>
        <time>1970-01-01T00:06:07.000Z</time>
      </trkpt>
      <trkpt lat="41.327913" lon="2.024043">
        <ele>64.9</ele>
        <time>1970-01-01T00:06:08.000Z</time>
      </trkpt>
      <trkpt lat="41.32793" lon="2.023985">
        <ele>64.9</ele>
        <time>1970-01-01T00:06:09.000Z</time>
      </trkpt>
      <trkpt lat="41.32793" lon="2.023985">
        <ele>64.9</ele>
        <time>1970-01-01T00:06:10.000Z</time>
      </trkpt>
      <trkpt lat="41.327952" lon="2.023867">
        <ele>64.9</ele>
        <time>1970-01-01T00:06:11.000Z</time>
      </trkpt>
      <trkpt lat="41.327952" lon="2.023867">
        <ele>64.9</ele>
        <time>1970-01-01T00:06:12.000Z</time>
      </trkpt>
      <trkpt lat="41.327967" lon="2.023758">
        <ele>64.9</ele>
        <time>1970-01-01T00:06:13.000Z</time>
      </trkpt>
      <trkpt lat="41.327967" lon="2.023758">
        <ele>64.9</ele>
        <time>1970-01-01T00:06:14.000Z</time>
      </trkpt>
      <trkpt lat="41.327982" lon="2.023662">
        <ele>65.9</ele>
        <time>1970-01-01T00:06:15.000Z</time>
      </trkpt>
      <trkpt lat="41.327982" lon="2.023662">
        <ele>65.9</ele>
        <time>1970-01-01T00:06:16.000Z</time>
      </trkpt>
      <trkpt lat="41.327993" lon="2.02358">
        <ele>66.9</ele>
        <time>1970-01-01T00:06:17.000Z</time>
      </trkpt>
      <trkpt lat="41.327997" lon="2.023545">
        <ele>66.9</ele>
        <time>1970-01-01T00:06:18.000Z</time>
      </trkpt>
      <trkpt lat="41.327997" lon="2.023545">
        <ele>66.9</ele>
        <time>1970-01-01T00:06:19.000Z</time>
      </trkpt>
      <trkpt lat="41.328007" lon="2.023467">
        <ele>66.9</ele>
        <time>1970-01-01T00:06:20.000Z</time>
      </trkpt>
      <trkpt lat="41.328007" lon="2.023467">
        <ele>66.9</ele>
        <time>1970-01-01T00:06:21.000Z</time>
      </trkpt>
      <trkpt lat="41.328013" lon="2.023363">
        <ele>66.9</ele>
        <time>1970-01-01T00:06:22.000Z</time>
      </trkpt>
      <trkpt lat="41.328013" lon="2.023363">
        <ele>66.9</ele>
        <time>1970-01-01T00:06:23.000Z</time>
      </trkpt>
      <trkpt lat="41.328027" lon="2.023228">
        <ele>66.9</ele>
        <time>1970-01-01T00:06:24.000Z</time>
      </trkpt>
      <trkpt lat="41.328035" lon="2.02315">
        <ele>66.9</ele>
        <time>1970-01-01T00:06:25.000Z</time>
      </trkpt>
      <trkpt lat="41.328035" lon="2.02315">
        <ele>66.9</ele>
        <time>1970-01-01T00:06:26.000Z</time>
      </trkpt>
      <trkpt lat="41.328062" lon="2.022983">
        <ele>65.9</ele>
        <time>1970-01-01T00:06:27.000Z</time>
      </trkpt>
      <trkpt lat="41.328093" lon="2.022913">
        <ele>65.9</ele>
        <time>1970-01-01T00:06:28.000Z</time>
      </trkpt>
      <trkpt lat="41.328138" lon="2.022862">
        <ele>64.9</ele>
        <time>1970-01-01T00:06:29.000Z</time>
      </trkpt>
      <trkpt lat="41.328138" lon="2.022862">
        <ele>64.9</ele>
        <time>1970-01-01T00:06:30.000Z</time>
      </trkpt>
      <trkpt lat="41.328208" lon="2.022805">
        <ele>64.9</ele>
        <time>1970-01-01T00:06:31.000Z</time>
      </trkpt>
      <trkpt lat="41.328228" lon="2.022755">
        <ele>64.9</ele>
        <time>1970-01-01T00:06:32.000Z</time>
      </trkpt>
      <trkpt lat="41.328228" lon="2.022755">
        <ele>63.9</ele>
        <time>1970-01-01T00:06:33.000Z</time>
      </trkpt>
      <trkpt lat="41.328248" lon="2.022618">
        <ele>63.9</ele>
        <time>1970-01-01T00:06:34.000Z</time>
      </trkpt>
      <trkpt lat="41.328248" lon="2.022618">
        <ele>63.9</ele>
        <time>1970-01-01T00:06:35.000Z</time>
      </trkpt>
      <trkpt lat="41.328242" lon="2.022517">
        <ele>63.9</ele>
        <time>1970-01-01T00:06:36.000Z</time>
      </trkpt>
      <trkpt lat="41.328242" lon="2.022517">
        <ele>63.9</ele>
        <time>1970-01-01T00:06:37.000Z</time>
      </trkpt>
      <trkpt lat="41.328205" lon="2.022425">
        <ele>63.9</ele>
        <time>1970-01-01T00:06:38.000Z</time>
      </trkpt>
      <trkpt lat="41.328205" lon="2.022425">
        <ele>63.9</ele>
        <time>1970-01-01T00:06:39.000Z</time>
      </trkpt>
      <trkpt lat="41.328178" lon="2.022333">
        <ele>63.9</ele>
        <time>1970-01-01T00:06:40.000Z</time>
      </trkpt>
      <trkpt lat="41.328178" lon="2.022333">
        <ele>63.9</ele>
        <time>1970-01-01T00:06:41.000Z</time>
      </trkpt>
      <trkpt lat="41.328147" lon="2.022243">
        <ele>63.9</ele>
        <time>1970-01-01T00:06:42.000Z</time>
      </trkpt>
      <trkpt lat="41.328127" lon="2.0222">
        <ele>63.9</ele>
        <time>1970-01-01T00:06:43.000Z</time>
      </trkpt>
      <trkpt lat="41.328107" lon="2.022152">
        <ele>63.9</ele>
        <time>1970-01-01T00:06:44.000Z</time>
      </trkpt>
      <trkpt lat="41.328107" lon="2.022152">
        <ele>63.9</ele>
        <time>1970-01-01T00:06:45.000Z</time>
      </trkpt>
      <trkpt lat="41.328065" lon="2.022073">
        <ele>63.9</ele>
        <time>1970-01-01T00:06:46.000Z</time>
      </trkpt>
      <trkpt lat="41.328065" lon="2.022073">
        <ele>63.9</ele>
        <time>1970-01-01T00:06:47.000Z</time>
      </trkpt>
      <trkpt lat="41.328023" lon="2.021992">
        <ele>63.9</ele>
        <time>1970-01-01T00:06:48.000Z</time>
      </trkpt>
      <trkpt lat="41.328023" lon="2.021992">
        <ele>63.9</ele>
        <time>1970-01-01T00:06:49.000Z</time>
      </trkpt>
      <trkpt lat="41.32799" lon="2.021905">
        <ele>63.9</ele>
        <time>1970-01-01T00:06:50.000Z</time>
      </trkpt>
      <trkpt lat="41.32799" lon="2.021905">
        <ele>63.9</ele>
        <time>1970-01-01T00:06:51.000Z</time>
      </trkpt>
      <trkpt lat="41.327962" lon="2.021815">
        <ele>63.9</ele>
        <time>1970-01-01T00:06:52.000Z</time>
      </trkpt>
      <trkpt lat="41.327962" lon="2.021815">
        <ele>63.9</ele>
        <time>1970-01-01T00:06:53.000Z</time>
      </trkpt>
      <trkpt lat="41.327932" lon="2.021717">
        <ele>63.9</ele>
        <time>1970-01-01T00:06:54.000Z</time>
      </trkpt>
      <trkpt lat="41.327932" lon="2.021717">
        <ele>63.9</ele>
        <time>1970-01-01T00:06:55.000Z</time>
      </trkpt>
      <trkpt lat="41.327903" lon="2.021607">
        <ele>63.9</ele>
        <time>1970-01-01T00:06:56.000Z</time>
      </trkpt>
      <trkpt lat="41.327903" lon="2.021607">
        <ele>63.9</ele>
        <time>1970-01-01T00:06:57.000Z</time>
      </trkpt>
      <trkpt lat="41.327882" lon="2.021482">
        <ele>63.9</ele>
        <time>1970-01-01T00:06:58.000Z</time>
      </trkpt>
      <trkpt lat="41.327882" lon="2.021482">
        <ele>63.9</ele>
        <time>1970-01-01T00:06:59.000Z</time>
      </trkpt>
      <trkpt lat="41.327883" lon="2.021347">
        <ele>63.9</ele>
        <time>1970-01-01T00:07:00.000Z</time>
      </trkpt>
      <trkpt lat="41.327883" lon="2.021347">
        <ele>63.9</ele>
        <time>1970-01-01T00:07:01.000Z</time>
      </trkpt>
      <trkpt lat="41.327898" lon="2.02122">
        <ele>62.9</ele>
        <time>1970-01-01T00:07:02.000Z</time>
      </trkpt>
      <trkpt lat="41.327913" lon="2.021165">
        <ele>62.9</ele>
        <time>1970-01-01T00:07:03.000Z</time>
      </trkpt>
      <trkpt lat="41.327913" lon="2.021165">
        <ele>62.9</ele>
        <time>1970-01-01T00:07:04.000Z</time>
      </trkpt>
      <trkpt lat="41.327947" lon="2.021063">
        <ele>62.9</ele>
        <time>1970-01-01T00:07:05.000Z</time>
      </trkpt>
      <trkpt lat="41.32796" lon="2.021012">
        <ele>62.9</ele>
        <time>1970-01-01T00:07:06.000Z</time>
      </trkpt>
      <trkpt lat="41.32796" lon="2.021012">
        <ele>62.9</ele>
        <time>1970-01-01T00:07:07.000Z</time>
      </trkpt>
      <trkpt lat="41.327992" lon="2.020905">
        <ele>62.9</ele>
        <time>1970-01-01T00:07:08.000Z</time>
      </trkpt>
      <trkpt lat="41.327992" lon="2.020905">
        <ele>62.9</ele>
        <time>1970-01-01T00:07:09.000Z</time>
      </trkpt>
      <trkpt lat="41.328002" lon="2.020788">
        <ele>62.9</ele>
        <time>1970-01-01T00:07:10.000Z</time>
      </trkpt>
      <trkpt lat="41.328002" lon="2.020788">
        <ele>62.9</ele>
        <time>1970-01-01T00:07:11.000Z</time>
      </trkpt>
      <trkpt lat="41.328002" lon="2.020667">
        <ele>62.9</ele>
        <time>1970-01-01T00:07:12.000Z</time>
      </trkpt>
      <trkpt lat="41.328003" lon="2.020603">
        <ele>62.9</ele>
        <time>1970-01-01T00:07:13.000Z</time>
      </trkpt>
      <trkpt lat="41.327998" lon="2.020537">
        <ele>62.9</ele>
        <time>1970-01-01T00:07:14.000Z</time>
      </trkpt>
      <trkpt lat="41.328002" lon="2.020477">
        <ele>62.9</ele>
        <time>1970-01-01T00:07:15.000Z</time>
      </trkpt>
      <trkpt lat="41.328002" lon="2.020477">
        <ele>62.9</ele>
        <time>1970-01-01T00:07:16.000Z</time>
      </trkpt>
      <trkpt lat="41.328005" lon="2.020363">
        <ele>62.9</ele>
        <time>1970-01-01T00:07:17.000Z</time>
      </trkpt>
      <trkpt lat="41.328005" lon="2.020363">
        <ele>62.9</ele>
        <time>1970-01-01T00:07:18.000Z</time>
      </trkpt>
      <trkpt lat="41.328017" lon="2.020235">
        <ele>62.9</ele>
        <time>1970-01-01T00:07:19.000Z</time>
      </trkpt>
      <trkpt lat="41.328017" lon="2.020235">
        <ele>62.9</ele>
        <time>1970-01-01T00:07:20.000Z</time>
      </trkpt>
      <trkpt lat="41.32805" lon="2.020113">
        <ele>62.9</ele>
        <time>1970-01-01T00:07:21.000Z</time>
      </trkpt>
      <trkpt lat="41.328063" lon="2.02004">
        <ele>62.9</ele>
        <time>1970-01-01T00:07:22.000Z</time>
      </trkpt>
      <trkpt lat="41.328063" lon="2.02004">
        <ele>62.9</ele>
        <time>1970-01-01T00:07:23.000Z</time>
      </trkpt>
      <trkpt lat="41.328062" lon="2.019875">
        <ele>61.9</ele>
        <time>1970-01-01T00:07:24.000Z</time>
      </trkpt>
      <trkpt lat="41.328048" lon="2.019782">
        <ele>61.9</ele>
        <time>1970-01-01T00:07:25.000Z</time>
      </trkpt>
      <trkpt lat="41.32804" lon="2.01969">
        <ele>59.9</ele>
        <time>1970-01-01T00:07:26.000Z</time>
      </trkpt>
      <trkpt lat="41.32804" lon="2.01969">
        <ele>59.9</ele>
        <time>1970-01-01T00:07:27.000Z</time>
      </trkpt>
      <trkpt lat="41.328068" lon="2.019522">
        <ele>58.9</ele>
        <time>1970-01-01T00:07:28.000Z</time>
      </trkpt>
      <trkpt lat="41.328068" lon="2.019522">
        <ele>58.9</ele>
        <time>1970-01-01T00:07:29.000Z</time>
      </trkpt>
      <trkpt lat="41.328167" lon="2.019407">
        <ele>57.9</ele>
        <time>1970-01-01T00:07:30.000Z</time>
      </trkpt>
      <trkpt lat="41.328218" lon="2.019357">
        <ele>57.9</ele>
        <time>1970-01-01T00:07:31.000Z</time>
      </trkpt>
      <trkpt lat="41.32826" lon="2.019292">
        <ele>57.9</ele>
        <time>1970-01-01T00:07:32.000Z</time>
      </trkpt>
      <trkpt lat="41.328278" lon="2.01921">
        <ele>56.9</ele>
        <time>1970-01-01T00:07:33.000Z</time>
      </trkpt>
      <trkpt lat="41.328273" lon="2.01913">
        <ele>55.9</ele>
        <time>1970-01-01T00:07:34.000Z</time>
      </trkpt>
      <trkpt lat="41.328273" lon="2.01913">
        <ele>55.9</ele>
        <time>1970-01-01T00:07:35.000Z</time>
      </trkpt>
      <trkpt lat="41.32823" lon="2.018992">
        <ele>55.9</ele>
        <time>1970-01-01T00:07:36.000Z</time>
      </trkpt>
      <trkpt lat="41.328202" lon="2.018928">
        <ele>54.9</ele>
        <time>1970-01-01T00:07:37.000Z</time>
      </trkpt>
      <trkpt lat="41.328172" lon="2.01887">
        <ele>54.9</ele>
        <time>1970-01-01T00:07:38.000Z</time>
      </trkpt>
      <trkpt lat="41.328127" lon="2.018825">
        <ele>54.9</ele>
        <time>1970-01-01T00:07:39.000Z</time>
      </trkpt>
      <trkpt lat="41.328127" lon="2.018825">
        <ele>54.9</ele>
        <time>1970-01-01T00:07:40.000Z</time>
      </trkpt>
      <trkpt lat="41.32802" lon="2.018745">
        <ele>54.9</ele>
        <time>1970-01-01T00:07:41.000Z</time>
      </trkpt>
      <trkpt lat="41.32802" lon="2.018745">
        <ele>54.9</ele>
        <time>1970-01-01T00:07:42.000Z</time>
      </trkpt>
      <trkpt lat="41.327958" lon="2.018623">
        <ele>53.9</ele>
        <time>1970-01-01T00:07:43.000Z</time>
      </trkpt>
      <trkpt lat="41.327952" lon="2.01855">
        <ele>53.9</ele>
        <time>1970-01-01T00:07:44.000Z</time>
      </trkpt>
      <trkpt lat="41.327952" lon="2.018478">
        <ele>53.9</ele>
        <time>1970-01-01T00:07:45.000Z</time>
      </trkpt>
      <trkpt lat="41.327952" lon="2.018478">
        <ele>53.9</ele>
        <time>1970-01-01T00:07:46.000Z</time>
      </trkpt>
      <trkpt lat="41.32796" lon="2.01834">
        <ele>53.9</ele>
        <time>1970-01-01T00:07:47.000Z</time>
      </trkpt>
      <trkpt lat="41.32796" lon="2.01834">
        <ele>53.9</ele>
        <time>1970-01-01T00:07:48.000Z</time>
      </trkpt>
      <trkpt lat="41.327983" lon="2.018202">
        <ele>53.9</ele>
        <time>1970-01-01T00:07:49.000Z</time>
      </trkpt>
      <trkpt lat="41.327983" lon="2.018202">
        <ele>52.9</ele>
        <time>1970-01-01T00:07:50.000Z</time>
      </trkpt>
      <trkpt lat="41.327997" lon="2.018067">
        <ele>52.9</ele>
        <time>1970-01-01T00:07:51.000Z</time>
      </trkpt>
      <trkpt lat="41.327997" lon="2.018067">
        <ele>52.9</ele>
        <time>1970-01-01T00:07:52.000Z</time>
      </trkpt>
      <trkpt lat="41.328013" lon="2.017922">
        <ele>52.9</ele>
        <time>1970-01-01T00:07:53.000Z</time>
      </trkpt>
      <trkpt lat="41.328022" lon="2.01784">
        <ele>51.9</ele>
        <time>1970-01-01T00:07:54.000Z</time>
      </trkpt>
      <trkpt lat="41.328022" lon="2.01784">
        <ele>51.9</ele>
        <time>1970-01-01T00:07:55.000Z</time>
      </trkpt>
      <trkpt lat="41.328067" lon="2.01767">
        <ele>51.9</ele>
        <time>1970-01-01T00:07:56.000Z</time>
      </trkpt>
      <trkpt lat="41.328067" lon="2.01767">
        <ele>51.9</ele>
        <time>1970-01-01T00:07:57.000Z</time>
      </trkpt>
      <trkpt lat="41.328092" lon="2.017507">
        <ele>50.9</ele>
        <time>1970-01-01T00:07:58.000Z</time>
      </trkpt>
      <trkpt lat="41.328082" lon="2.017425">
        <ele>50.9</ele>
        <time>1970-01-01T00:07:59.000Z</time>
      </trkpt>
      <trkpt lat="41.328082" lon="2.017425">
        <ele>50.9</ele>
        <time>1970-01-01T00:08:00.000Z</time>
      </trkpt>
      <trkpt lat="41.328018" lon="2.017288">
        <ele>50.9</ele>
        <time>1970-01-01T00:08:01.000Z</time>
      </trkpt>
      <trkpt lat="41.327978" lon="2.017228">
        <ele>49.9</ele>
        <time>1970-01-01T00:08:02.000Z</time>
      </trkpt>
      <trkpt lat="41.327978" lon="2.017228">
        <ele>49.9</ele>
        <time>1970-01-01T00:08:03.000Z</time>
      </trkpt>
      <trkpt lat="41.327913" lon="2.017103">
        <ele>49.9</ele>
        <time>1970-01-01T00:08:04.000Z</time>
      </trkpt>
      <trkpt lat="41.327895" lon="2.017037">
        <ele>49.9</ele>
        <time>1970-01-01T00:08:05.000Z</time>
      </trkpt>
      <trkpt lat="41.327895" lon="2.017037">
        <ele>49.9</ele>
        <time>1970-01-01T00:08:06.000Z</time>
      </trkpt>
      <trkpt lat="41.327865" lon="2.016907">
        <ele>49.9</ele>
        <time>1970-01-01T00:08:07.000Z</time>
      </trkpt>
      <trkpt lat="41.327865" lon="2.016907">
        <ele>48.9</ele>
        <time>1970-01-01T00:08:08.000Z</time>
      </trkpt>
      <trkpt lat="41.327842" lon="2.016787">
        <ele>48.9</ele>
        <time>1970-01-01T00:08:09.000Z</time>
      </trkpt>
      <trkpt lat="41.32783" lon="2.01673">
        <ele>48.9</ele>
        <time>1970-01-01T00:08:10.000Z</time>
      </trkpt>
      <trkpt lat="41.32783" lon="2.01673">
        <ele>48.9</ele>
        <time>1970-01-01T00:08:11.000Z</time>
      </trkpt>
      <trkpt lat="41.32781" lon="2.016623">
        <ele>48.9</ele>
        <time>1970-01-01T00:08:12.000Z</time>
      </trkpt>
      <trkpt lat="41.32781" lon="2.016623">
        <ele>48.9</ele>
        <time>1970-01-01T00:08:13.000Z</time>
      </trkpt>
      <trkpt lat="41.32779" lon="2.016523">
        <ele>49.9</ele>
        <time>1970-01-01T00:08:14.000Z</time>
      </trkpt>
      <trkpt lat="41.32779" lon="2.016523">
        <ele>49.9</ele>
        <time>1970-01-01T00:08:15.000Z</time>
      </trkpt>
      <trkpt lat="41.327777" lon="2.016433">
        <ele>49.9</ele>
        <time>1970-01-01T00:08:16.000Z</time>
      </trkpt>
      <trkpt lat="41.327775" lon="2.016388">
        <ele>49.9</ele>
        <time>1970-01-01T00:08:17.000Z</time>
      </trkpt>
      <trkpt lat="41.327775" lon="2.016342">
        <ele>49.9</ele>
        <time>1970-01-01T00:08:18.000Z</time>
      </trkpt>
      <trkpt lat="41.327775" lon="2.016342">
        <ele>49.9</ele>
        <time>1970-01-01T00:08:19.000Z</time>
      </trkpt>
      <trkpt lat="41.327772" lon="2.016235">
        <ele>49.9</ele>
        <time>1970-01-01T00:08:20.000Z</time>
      </trkpt>
      <trkpt lat="41.32777" lon="2.016172">
        <ele>50.9</ele>
        <time>1970-01-01T00:08:21.000Z</time>
      </trkpt>
      <trkpt lat="41.32777" lon="2.016172">
        <ele>50.9</ele>
        <time>1970-01-01T00:08:22.000Z</time>
      </trkpt>
      <trkpt lat="41.327778" lon="2.016027">
        <ele>50.9</ele>
        <time>1970-01-01T00:08:23.000Z</time>
      </trkpt>
      <trkpt lat="41.327778" lon="2.016027">
        <ele>50.9</ele>
        <time>1970-01-01T00:08:24.000Z</time>
      </trkpt>
      <trkpt lat="41.327782" lon="2.015877">
        <ele>50.9</ele>
        <time>1970-01-01T00:08:25.000Z</time>
      </trkpt>
      <trkpt lat="41.327782" lon="2.015877">
        <ele>50.9</ele>
        <time>1970-01-01T00:08:26.000Z</time>
      </trkpt>
      <trkpt lat="41.32777" lon="2.015728">
        <ele>50.9</ele>
        <time>1970-01-01T00:08:27.000Z</time>
      </trkpt>
      <trkpt lat="41.32777" lon="2.015728">
        <ele>50.9</ele>
        <time>1970-01-01T00:08:28.000Z</time>
      </trkpt>
      <trkpt lat="41.327728" lon="2.01558">
        <ele>49.9</ele>
        <time>1970-01-01T00:08:29.000Z</time>
      </trkpt>
      <trkpt lat="41.327703" lon="2.01552">
        <ele>49.9</ele>
        <time>1970-01-01T00:08:30.000Z</time>
      </trkpt>
      <trkpt lat="41.327703" lon="2.01552">
        <ele>49.9</ele>
        <time>1970-01-01T00:08:31.000Z</time>
      </trkpt>
      <trkpt lat="41.327652" lon="2.01545">
        <ele>49.9</ele>
        <time>1970-01-01T00:08:32.000Z</time>
      </trkpt>
      <trkpt lat="41.327652" lon="2.01545">
        <ele>49.9</ele>
        <time>1970-01-01T00:08:33.000Z</time>
      </trkpt>
      <trkpt lat="41.327652" lon="2.015335">
        <ele>49.9</ele>
        <time>1970-01-01T00:08:34.000Z</time>
      </trkpt>
      <trkpt lat="41.32766" lon="2.015273">
        <ele>48.9</ele>
        <time>1970-01-01T00:08:35.000Z</time>
      </trkpt>
      <trkpt lat="41.32766" lon="2.015273">
        <ele>48.9</ele>
        <time>1970-01-01T00:08:36.000Z</time>
      </trkpt>
      <trkpt lat="41.327678" lon="2.015145">
        <ele>48.9</ele>
        <time>1970-01-01T00:08:37.000Z</time>
      </trkpt>
      <trkpt lat="41.327688" lon="2.015073">
        <ele>48.9</ele>
        <time>1970-01-01T00:08:38.000Z</time>
      </trkpt>
      <trkpt lat="41.327697" lon="2.014995">
        <ele>47.9</ele>
        <time>1970-01-01T00:08:39.000Z</time>
      </trkpt>
      <trkpt lat="41.327697" lon="2.014995">
        <ele>47.9</ele>
        <time>1970-01-01T00:08:40.000Z</time>
      </trkpt>
      <trkpt lat="41.327717" lon="2.014835">
        <ele>47.9</ele>
        <time>1970-01-01T00:08:41.000Z</time>
      </trkpt>
      <trkpt lat="41.327717" lon="2.014835">
        <ele>47.9</ele>
        <time>1970-01-01T00:08:42.000Z</time>
      </trkpt>
      <trkpt lat="41.327732" lon="2.01467">
        <ele>46.9</ele>
        <time>1970-01-01T00:08:43.000Z</time>
      </trkpt>
      <trkpt lat="41.327732" lon="2.01467">
        <ele>46.9</ele>
        <time>1970-01-01T00:08:44.000Z</time>
      </trkpt>
      <trkpt lat="41.327748" lon="2.01449">
        <ele>46.9</ele>
        <time>1970-01-01T00:08:45.000Z</time>
      </trkpt>
      <trkpt lat="41.327748" lon="2.01449">
        <ele>46.9</ele>
        <time>1970-01-01T00:08:46.000Z</time>
      </trkpt>
      <trkpt lat="41.327747" lon="2.014308">
        <ele>46.9</ele>
        <time>1970-01-01T00:08:47.000Z</time>
      </trkpt>
      <trkpt lat="41.327728" lon="2.014218">
        <ele>46.9</ele>
        <time>1970-01-01T00:08:48.000Z</time>
      </trkpt>
      <trkpt lat="41.327728" lon="2.014218">
        <ele>46.9</ele>
        <time>1970-01-01T00:08:49.000Z</time>
      </trkpt>
      <trkpt lat="41.327708" lon="2.014032">
        <ele>46.9</ele>
        <time>1970-01-01T00:08:50.000Z</time>
      </trkpt>
      <trkpt lat="41.327713" lon="2.013932">
        <ele>44.9</ele>
        <time>1970-01-01T00:08:51.000Z</time>
      </trkpt>
      <trkpt lat="41.32772" lon="2.01383">
        <ele>44.9</ele>
        <time>1970-01-01T00:08:52.000Z</time>
      </trkpt>
      <trkpt lat="41.32772" lon="2.01383">
        <ele>43.9</ele>
        <time>1970-01-01T00:08:53.000Z</time>
      </trkpt>
      <trkpt lat="41.327722" lon="2.01362">
        <ele>43.9</ele>
        <time>1970-01-01T00:08:54.000Z</time>
      </trkpt>
      <trkpt lat="41.327722" lon="2.01362">
        <ele>42.9</ele>
        <time>1970-01-01T00:08:55.000Z</time>
      </trkpt>
      <trkpt lat="41.327703" lon="2.013407">
        <ele>42.9</ele>
        <time>1970-01-01T00:08:56.000Z</time>
      </trkpt>
      <trkpt lat="41.327703" lon="2.013407">
        <ele>41.9</ele>
        <time>1970-01-01T00:08:57.000Z</time>
      </trkpt>
      <trkpt lat="41.327657" lon="2.013178">
        <ele>41.9</ele>
        <time>1970-01-01T00:08:58.000Z</time>
      </trkpt>
      <trkpt lat="41.327657" lon="2.013178">
        <ele>39.9</ele>
        <time>1970-01-01T00:08:59.000Z</time>
      </trkpt>
      <trkpt lat="41.3276" lon="2.012922">
        <ele>39.9</ele>
        <time>1970-01-01T00:09:00.000Z</time>
      </trkpt>
      <trkpt lat="41.3276" lon="2.012922">
        <ele>38.9</ele>
        <time>1970-01-01T00:09:01.000Z</time>
      </trkpt>
      <trkpt lat="41.327535" lon="2.012638">
        <ele>35.9</ele>
        <time>1970-01-01T00:09:02.000Z</time>
      </trkpt>
      <trkpt lat="41.327487" lon="2.012495">
        <ele>35.9</ele>
        <time>1970-01-01T00:09:03.000Z</time>
      </trkpt>
      <trkpt lat="41.327487" lon="2.012495">
        <ele>33.9</ele>
        <time>1970-01-01T00:09:04.000Z</time>
      </trkpt>
      <trkpt lat="41.327403" lon="2.01222">
        <ele>33.9</ele>
        <time>1970-01-01T00:09:05.000Z</time>
      </trkpt>
      <trkpt lat="41.327367" lon="2.012108">
        <ele>31.9</ele>
        <time>1970-01-01T00:09:06.000Z</time>
      </trkpt>
      <trkpt lat="41.327367" lon="2.012108">
        <ele>31.9</ele>
        <time>1970-01-01T00:09:07.000Z</time>
      </trkpt>
      <trkpt lat="41.32732" lon="2.011933">
        <ele>29.9</ele>
        <time>1970-01-01T00:09:08.000Z</time>
      </trkpt>
      <trkpt lat="41.32732" lon="2.011933">
        <ele>29.9</ele>
        <time>1970-01-01T00:09:09.000Z</time>
      </trkpt>
      <trkpt lat="41.327332" lon="2.011778">
        <ele>28.9</ele>
        <time>1970-01-01T00:09:10.000Z</time>
      </trkpt>
      <trkpt lat="41.327332" lon="2.011778">
        <ele>28.9</ele>
        <time>1970-01-01T00:09:11.000Z</time>
      </trkpt>
      <trkpt lat="41.327347" lon="2.011638">
        <ele>28.9</ele>
        <time>1970-01-01T00:09:12.000Z</time>
      </trkpt>
      <trkpt lat="41.327347" lon="2.011638">
        <ele>28.9</ele>
        <time>1970-01-01T00:09:13.000Z</time>
      </trkpt>
      <trkpt lat="41.327288" lon="2.011522">
        <ele>27.9</ele>
        <time>1970-01-01T00:09:14.000Z</time>
      </trkpt>
      <trkpt lat="41.327288" lon="2.011522">
        <ele>27.9</ele>
        <time>1970-01-01T00:09:15.000Z</time>
      </trkpt>
      <trkpt lat="41.327195" lon="2.011497">
        <ele>27.9</ele>
        <time>1970-01-01T00:09:16.000Z</time>
      </trkpt>
      <trkpt lat="41.32715" lon="2.01151">
        <ele>27.9</ele>
        <time>1970-01-01T00:09:17.000Z</time>
      </trkpt>
      <trkpt lat="41.327103" lon="2.011517">
        <ele>27.9</ele>
        <time>1970-01-01T00:09:18.000Z</time>
      </trkpt>
      <trkpt lat="41.327103" lon="2.011517">
        <ele>27.9</ele>
        <time>1970-01-01T00:09:19.000Z</time>
      </trkpt>
      <trkpt lat="41.327028" lon="2.0115">
        <ele>26.9</ele>
        <time>1970-01-01T00:09:20.000Z</time>
      </trkpt>
      <trkpt lat="41.327028" lon="2.0115">
        <ele>26.9</ele>
        <time>1970-01-01T00:09:21.000Z</time>
      </trkpt>
      <trkpt lat="41.32698" lon="2.011442">
        <ele>26.9</ele>
        <time>1970-01-01T00:09:22.000Z</time>
      </trkpt>
      <trkpt lat="41.326963" lon="2.011405">
        <ele>26.9</ele>
        <time>1970-01-01T00:09:23.000Z</time>
      </trkpt>
      <trkpt lat="41.326963" lon="2.011405">
        <ele>27.9</ele>
        <time>1970-01-01T00:09:24.000Z</time>
      </trkpt>
      <trkpt lat="41.326937" lon="2.011322">
        <ele>27.9</ele>
        <time>1970-01-01T00:09:25.000Z</time>
      </trkpt>
      <trkpt lat="41.326932" lon="2.011275">
        <ele>27.9</ele>
        <time>1970-01-01T00:09:26.000Z</time>
      </trkpt>
      <trkpt lat="41.326932" lon="2.011275">
        <ele>27.9</ele>
        <time>1970-01-01T00:09:27.000Z</time>
      </trkpt>
      <trkpt lat="41.326935" lon="2.011183">
        <ele>28.9</ele>
        <time>1970-01-01T00:09:28.000Z</time>
      </trkpt>
      <trkpt lat="41.326935" lon="2.011183">
        <ele>28.9</ele>
        <time>1970-01-01T00:09:29.000Z</time>
      </trkpt>
      <trkpt lat="41.326967" lon="2.011108">
        <ele>28.9</ele>
        <time>1970-01-01T00:09:30.000Z</time>
      </trkpt>
      <trkpt lat="41.326967" lon="2.011108">
        <ele>28.9</ele>
        <time>1970-01-01T00:09:31.000Z</time>
      </trkpt>
      <trkpt lat="41.327015" lon="2.01105">
        <ele>28.9</ele>
        <time>1970-01-01T00:09:32.000Z</time>
      </trkpt>
      <trkpt lat="41.327015" lon="2.01105">
        <ele>28.9</ele>
        <time>1970-01-01T00:09:33.000Z</time>
      </trkpt>
      <trkpt lat="41.327072" lon="2.010997">
        <ele>28.9</ele>
        <time>1970-01-01T00:09:34.000Z</time>
      </trkpt>
      <trkpt lat="41.327072" lon="2.010997">
        <ele>28.9</ele>
        <time>1970-01-01T00:09:35.000Z</time>
      </trkpt>
      <trkpt lat="41.327125" lon="2.01094">
        <ele>29.9</ele>
        <time>1970-01-01T00:09:36.000Z</time>
      </trkpt>
      <trkpt lat="41.327125" lon="2.01094">
        <ele>29.9</ele>
        <time>1970-01-01T00:09:37.000Z</time>
      </trkpt>
      <trkpt lat="41.32718" lon="2.01088">
        <ele>29.9</ele>
        <time>1970-01-01T00:09:38.000Z</time>
      </trkpt>
      <trkpt lat="41.32718" lon="2.01088">
        <ele>29.9</ele>
        <time>1970-01-01T00:09:39.000Z</time>
      </trkpt>
      <trkpt lat="41.327238" lon="2.010825">
        <ele>29.9</ele>
        <time>1970-01-01T00:09:40.000Z</time>
      </trkpt>
      <trkpt lat="41.327238" lon="2.010825">
        <ele>29.9</ele>
        <time>1970-01-01T00:09:41.000Z</time>
      </trkpt>
      <trkpt lat="41.327295" lon="2.010765">
        <ele>29.9</ele>
        <time>1970-01-01T00:09:42.000Z</time>
      </trkpt>
      <trkpt lat="41.327325" lon="2.010737">
        <ele>29.9</ele>
        <time>1970-01-01T00:09:43.000Z</time>
      </trkpt>
      <trkpt lat="41.327353" lon="2.01071">
        <ele>30.9</ele>
        <time>1970-01-01T00:09:44.000Z</time>
      </trkpt>
      <trkpt lat="41.327353" lon="2.01071">
        <ele>30.9</ele>
        <time>1970-01-01T00:09:45.000Z</time>
      </trkpt>
      <trkpt lat="41.327408" lon="2.010653">
        <ele>30.9</ele>
        <time>1970-01-01T00:09:46.000Z</time>
      </trkpt>
      <trkpt lat="41.327408" lon="2.010653">
        <ele>30.9</ele>
        <time>1970-01-01T00:09:47.000Z</time>
      </trkpt>
      <trkpt lat="41.327462" lon="2.010595">
        <ele>30.9</ele>
        <time>1970-01-01T00:09:48.000Z</time>
      </trkpt>
      <trkpt lat="41.327462" lon="2.010595">
        <ele>30.9</ele>
        <time>1970-01-01T00:09:49.000Z</time>
      </trkpt>
      <trkpt lat="41.327517" lon="2.010542">
        <ele>30.9</ele>
        <time>1970-01-01T00:09:50.000Z</time>
      </trkpt>
      <trkpt lat="41.327517" lon="2.010542">
        <ele>30.9</ele>
        <time>1970-01-01T00:09:51.000Z</time>
      </trkpt>
      <trkpt lat="41.32757" lon="2.010485">
        <ele>30.9</ele>
        <time>1970-01-01T00:09:52.000Z</time>
      </trkpt>
      <trkpt lat="41.327598" lon="2.010457">
        <ele>30.9</ele>
        <time>1970-01-01T00:09:53.000Z</time>
      </trkpt>
      <trkpt lat="41.327598" lon="2.010457">
        <ele>30.9</ele>
        <time>1970-01-01T00:09:54.000Z</time>
      </trkpt>
      <trkpt lat="41.327652" lon="2.010398">
        <ele>30.9</ele>
        <time>1970-01-01T00:09:55.000Z</time>
      </trkpt>
      <trkpt lat="41.32768" lon="2.010372">
        <ele>30.9</ele>
        <time>1970-01-01T00:09:56.000Z</time>
      </trkpt>
      <trkpt lat="41.32768" lon="2.010372">
        <ele>31.9</ele>
        <time>1970-01-01T00:09:57.000Z</time>
      </trkpt>
      <trkpt lat="41.327733" lon="2.010315">
        <ele>31.9</ele>
        <time>1970-01-01T00:09:58.000Z</time>
      </trkpt>
      <trkpt lat="41.327733" lon="2.010315">
        <ele>31.9</ele>
        <time>1970-01-01T00:09:59.000Z</time>
      </trkpt>
      <trkpt lat="41.32779" lon="2.01026">
        <ele>31.9</ele>
        <time>1970-01-01T00:10:00.000Z</time>
      </trkpt>
      <trkpt lat="41.32779" lon="2.01026">
        <ele>31.9</ele>
        <time>1970-01-01T00:10:01.000Z</time>
      </trkpt>
      <trkpt lat="41.327847" lon="2.010198">
        <ele>31.9</ele>
        <time>1970-01-01T00:10:02.000Z</time>
      </trkpt>
      <trkpt lat="41.327875" lon="2.010168">
        <ele>31.9</ele>
        <time>1970-01-01T00:10:03.000Z</time>
      </trkpt>
      <trkpt lat="41.327875" lon="2.010168">
        <ele>31.9</ele>
        <time>1970-01-01T00:10:04.000Z</time>
      </trkpt>
      <trkpt lat="41.327932" lon="2.010108">
        <ele>31.9</ele>
        <time>1970-01-01T00:10:05.000Z</time>
      </trkpt>
      <trkpt lat="41.327932" lon="2.010108">
        <ele>31.9</ele>
        <time>1970-01-01T00:10:06.000Z</time>
      </trkpt>
      <trkpt lat="41.327987" lon="2.01005">
        <ele>31.9</ele>
        <time>1970-01-01T00:10:07.000Z</time>
      </trkpt>
      <trkpt lat="41.328013" lon="2.01002">
        <ele>31.9</ele>
        <time>1970-01-01T00:10:08.000Z</time>
      </trkpt>
      <trkpt lat="41.328013" lon="2.01002">
        <ele>32.9</ele>
        <time>1970-01-01T00:10:09.000Z</time>
      </trkpt>
      <trkpt lat="41.328068" lon="2.009957">
        <ele>32.9</ele>
        <time>1970-01-01T00:10:10.000Z</time>
      </trkpt>
      <trkpt lat="41.328068" lon="2.009957">
        <ele>32.9</ele>
        <time>1970-01-01T00:10:11.000Z</time>
      </trkpt>
      <trkpt lat="41.328127" lon="2.009893">
        <ele>32.9</ele>
        <time>1970-01-01T00:10:12.000Z</time>
      </trkpt>
      <trkpt lat="41.328157" lon="2.009862">
        <ele>32.9</ele>
        <time>1970-01-01T00:10:13.000Z</time>
      </trkpt>
      <trkpt lat="41.328188" lon="2.009828">
        <ele>32.9</ele>
        <time>1970-01-01T00:10:14.000Z</time>
      </trkpt>
      <trkpt lat="41.328188" lon="2.009828">
        <ele>32.9</ele>
        <time>1970-01-01T00:10:15.000Z</time>
      </trkpt>
      <trkpt lat="41.328257" lon="2.009765">
        <ele>32.9</ele>
        <time>1970-01-01T00:10:16.000Z</time>
      </trkpt>
      <trkpt lat="41.32829" lon="2.00973">
        <ele>32.9</ele>
        <time>1970-01-01T00:10:17.000Z</time>
      </trkpt>
      <trkpt lat="41.32829" lon="2.00973">
        <ele>32.9</ele>
        <time>1970-01-01T00:10:18.000Z</time>
      </trkpt>
      <trkpt lat="41.328358" lon="2.00966">
        <ele>32.9</ele>
        <time>1970-01-01T00:10:19.000Z</time>
      </trkpt>
      <trkpt lat="41.328358" lon="2.00966">
        <ele>32.9</ele>
        <time>1970-01-01T00:10:20.000Z</time>
      </trkpt>
      <trkpt lat="41.32843" lon="2.009592">
        <ele>32.9</ele>
        <time>1970-01-01T00:10:21.000Z</time>
      </trkpt>
      <trkpt lat="41.32843" lon="2.009592">
        <ele>32.9</ele>
        <time>1970-01-01T00:10:22.000Z</time>
      </trkpt>
      <trkpt lat="41.328497" lon="2.009527">
        <ele>32.9</ele>
        <time>1970-01-01T00:10:23.000Z</time>
      </trkpt>
      <trkpt lat="41.328497" lon="2.009527">
        <ele>32.9</ele>
        <time>1970-01-01T00:10:24.000Z</time>
      </trkpt>
      <trkpt lat="41.328568" lon="2.009468">
        <ele>32.9</ele>
        <time>1970-01-01T00:10:25.000Z</time>
      </trkpt>
      <trkpt lat="41.328568" lon="2.009468">
        <ele>32.9</ele>
        <time>1970-01-01T00:10:26.000Z</time>
      </trkpt>
      <trkpt lat="41.328643" lon="2.009413">
        <ele>32.9</ele>
        <time>1970-01-01T00:10:27.000Z</time>
      </trkpt>
      <trkpt lat="41.328682" lon="2.009385">
        <ele>32.9</ele>
        <time>1970-01-01T00:10:28.000Z</time>
      </trkpt>
      <trkpt lat="41.328682" lon="2.009385">
        <ele>32.9</ele>
        <time>1970-01-01T00:10:29.000Z</time>
      </trkpt>
      <trkpt lat="41.328758" lon="2.00933">
        <ele>32.9</ele>
        <time>1970-01-01T00:10:30.000Z</time>
      </trkpt>
      <trkpt lat="41.328758" lon="2.00933">
        <ele>32.9</ele>
        <time>1970-01-01T00:10:31.000Z</time>
      </trkpt>
      <trkpt lat="41.32884" lon="2.009285">
        <ele>32.9</ele>
        <time>1970-01-01T00:10:32.000Z</time>
      </trkpt>
      <trkpt lat="41.32884" lon="2.009285">
        <ele>32.9</ele>
        <time>1970-01-01T00:10:33.000Z</time>
      </trkpt>
      <trkpt lat="41.328918" lon="2.00924">
        <ele>32.9</ele>
        <time>1970-01-01T00:10:34.000Z</time>
      </trkpt>
      <trkpt lat="41.328918" lon="2.00924">
        <ele>32.9</ele>
        <time>1970-01-01T00:10:35.000Z</time>
      </trkpt>
      <trkpt lat="41.328995" lon="2.009195">
        <ele>32.9</ele>
        <time>1970-01-01T00:10:36.000Z</time>
      </trkpt>
      <trkpt lat="41.328995" lon="2.009195">
        <ele>32.9</ele>
        <time>1970-01-01T00:10:37.000Z</time>
      </trkpt>
      <trkpt lat="41.32907" lon="2.009152">
        <ele>32.9</ele>
        <time>1970-01-01T00:10:38.000Z</time>
      </trkpt>
      <trkpt lat="41.32907" lon="2.009152">
        <ele>32.9</ele>
        <time>1970-01-01T00:10:39.000Z</time>
      </trkpt>
      <trkpt lat="41.329145" lon="2.009115">
        <ele>32.9</ele>
        <time>1970-01-01T00:10:40.000Z</time>
      </trkpt>
      <trkpt lat="41.329145" lon="2.009115">
        <ele>32.9</ele>
        <time>1970-01-01T00:10:41.000Z</time>
      </trkpt>
      <trkpt lat="41.329217" lon="2.00907">
        <ele>32.9</ele>
        <time>1970-01-01T00:10:42.000Z</time>
      </trkpt>
      <trkpt lat="41.329217" lon="2.00907">
        <ele>32.9</ele>
        <time>1970-01-01T00:10:43.000Z</time>
      </trkpt>
      <trkpt lat="41.329288" lon="2.009015">
        <ele>32.9</ele>
        <time>1970-01-01T00:10:44.000Z</time>
      </trkpt>
      <trkpt lat="41.329288" lon="2.009015">
        <ele>32.9</ele>
        <time>1970-01-01T00:10:45.000Z</time>
      </trkpt>
      <trkpt lat="41.329363" lon="2.00896">
        <ele>32.9</ele>
        <time>1970-01-01T00:10:46.000Z</time>
      </trkpt>
      <trkpt lat="41.329363" lon="2.00896">
        <ele>32.9</ele>
        <time>1970-01-01T00:10:47.000Z</time>
      </trkpt>
      <trkpt lat="41.329433" lon="2.0089">
        <ele>32.9</ele>
        <time>1970-01-01T00:10:48.000Z</time>
      </trkpt>
      <trkpt lat="41.329467" lon="2.008868">
        <ele>32.9</ele>
        <time>1970-01-01T00:10:49.000Z</time>
      </trkpt>
      <trkpt lat="41.329467" lon="2.008868">
        <ele>32.9</ele>
        <time>1970-01-01T00:10:50.000Z</time>
      </trkpt>
      <trkpt lat="41.329532" lon="2.008803">
        <ele>32.9</ele>
        <time>1970-01-01T00:10:51.000Z</time>
      </trkpt>
      <trkpt lat="41.329562" lon="2.008768">
        <ele>32.9</ele>
        <time>1970-01-01T00:10:52.000Z</time>
      </trkpt>
      <trkpt lat="41.329562" lon="2.008768">
        <ele>32.9</ele>
        <time>1970-01-01T00:10:53.000Z</time>
      </trkpt>
      <trkpt lat="41.32962" lon="2.008695">
        <ele>32.9</ele>
        <time>1970-01-01T00:10:54.000Z</time>
      </trkpt>
      <trkpt lat="41.32962" lon="2.008695">
        <ele>32.9</ele>
        <time>1970-01-01T00:10:55.000Z</time>
      </trkpt>
      <trkpt lat="41.329678" lon="2.008618">
        <ele>33.9</ele>
        <time>1970-01-01T00:10:56.000Z</time>
      </trkpt>
      <trkpt lat="41.329678" lon="2.008618">
        <ele>33.9</ele>
        <time>1970-01-01T00:10:57.000Z</time>
      </trkpt>
      <trkpt lat="41.329735" lon="2.008542">
        <ele>33.9</ele>
        <time>1970-01-01T00:10:58.000Z</time>
      </trkpt>
      <trkpt lat="41.329735" lon="2.008542">
        <ele>33.9</ele>
        <time>1970-01-01T00:10:59.000Z</time>
      </trkpt>
      <trkpt lat="41.329793" lon="2.008467">
        <ele>33.9</ele>
        <time>1970-01-01T00:11:00.000Z</time>
      </trkpt>
      <trkpt lat="41.329823" lon="2.008428">
        <ele>33.9</ele>
        <time>1970-01-01T00:11:01.000Z</time>
      </trkpt>
      <trkpt lat="41.329823" lon="2.008428">
        <ele>33.9</ele>
        <time>1970-01-01T00:11:02.000Z</time>
      </trkpt>
      <trkpt lat="41.32988" lon="2.008353">
        <ele>33.9</ele>
        <time>1970-01-01T00:11:03.000Z</time>
      </trkpt>
      <trkpt lat="41.329908" lon="2.008317">
        <ele>33.9</ele>
        <time>1970-01-01T00:11:04.000Z</time>
      </trkpt>
      <trkpt lat="41.329908" lon="2.008317">
        <ele>33.9</ele>
        <time>1970-01-01T00:11:05.000Z</time>
      </trkpt>
      <trkpt lat="41.329973" lon="2.008248">
        <ele>33.9</ele>
        <time>1970-01-01T00:11:06.000Z</time>
      </trkpt>
      <trkpt lat="41.329973" lon="2.008248">
        <ele>33.9</ele>
        <time>1970-01-01T00:11:07.000Z</time>
      </trkpt>
      <trkpt lat="41.330022" lon="2.008183">
        <ele>33.9</ele>
        <time>1970-01-01T00:11:08.000Z</time>
      </trkpt>
      <trkpt lat="41.330022" lon="2.008183">
        <ele>33.9</ele>
        <time>1970-01-01T00:11:09.000Z</time>
      </trkpt>
      <trkpt lat="41.330068" lon="2.00811">
        <ele>33.9</ele>
        <time>1970-01-01T00:11:10.000Z</time>
      </trkpt>
      <trkpt lat="41.330095" lon="2.008072">
        <ele>33.9</ele>
        <time>1970-01-01T00:11:11.000Z</time>
      </trkpt>
      <trkpt lat="41.330095" lon="2.008072">
        <ele>34.9</ele>
        <time>1970-01-01T00:11:12.000Z</time>
      </trkpt>
      <trkpt lat="41.330147" lon="2.007998">
        <ele>34.9</ele>
        <time>1970-01-01T00:11:13.000Z</time>
      </trkpt>
      <trkpt lat="41.330173" lon="2.007962">
        <ele>34.9</ele>
        <time>1970-01-01T00:11:14.000Z</time>
      </trkpt>
      <trkpt lat="41.330173" lon="2.007962">
        <ele>34.9</ele>
        <time>1970-01-01T00:11:15.000Z</time>
      </trkpt>
      <trkpt lat="41.330227" lon="2.007887">
        <ele>34.9</ele>
        <time>1970-01-01T00:11:16.000Z</time>
      </trkpt>
      <trkpt lat="41.330227" lon="2.007887">
        <ele>34.9</ele>
        <time>1970-01-01T00:11:17.000Z</time>
      </trkpt>
      <trkpt lat="41.33028" lon="2.007812">
        <ele>34.9</ele>
        <time>1970-01-01T00:11:18.000Z</time>
      </trkpt>
      <trkpt lat="41.33028" lon="2.007812">
        <ele>35.9</ele>
        <time>1970-01-01T00:11:19.000Z</time>
      </trkpt>
      <trkpt lat="41.330335" lon="2.007737">
        <ele>35.9</ele>
        <time>1970-01-01T00:11:20.000Z</time>
      </trkpt>
      <trkpt lat="41.330362" lon="2.007698">
        <ele>35.9</ele>
        <time>1970-01-01T00:11:21.000Z</time>
      </trkpt>
      <trkpt lat="41.330387" lon="2.007662">
        <ele>35.9</ele>
        <time>1970-01-01T00:11:22.000Z</time>
      </trkpt>
      <trkpt lat="41.330387" lon="2.007662">
        <ele>35.9</ele>
        <time>1970-01-01T00:11:23.000Z</time>
      </trkpt>
      <trkpt lat="41.33044" lon="2.00759">
        <ele>35.9</ele>
        <time>1970-01-01T00:11:24.000Z</time>
      </trkpt>
      <trkpt lat="41.330465" lon="2.007555">
        <ele>35.9</ele>
        <time>1970-01-01T00:11:25.000Z</time>
      </trkpt>
      <trkpt lat="41.33049" lon="2.007522">
        <ele>35.9</ele>
        <time>1970-01-01T00:11:26.000Z</time>
      </trkpt>
      <trkpt lat="41.33049" lon="2.007522">
        <ele>35.9</ele>
        <time>1970-01-01T00:11:27.000Z</time>
      </trkpt>
      <trkpt lat="41.330537" lon="2.00745">
        <ele>35.9</ele>
        <time>1970-01-01T00:11:28.000Z</time>
      </trkpt>
      <trkpt lat="41.330537" lon="2.00745">
        <ele>35.9</ele>
        <time>1970-01-01T00:11:29.000Z</time>
      </trkpt>
      <trkpt lat="41.330583" lon="2.007373">
        <ele>35.9</ele>
        <time>1970-01-01T00:11:30.000Z</time>
      </trkpt>
      <trkpt lat="41.330583" lon="2.007373">
        <ele>35.9</ele>
        <time>1970-01-01T00:11:31.000Z</time>
      </trkpt>
      <trkpt lat="41.330627" lon="2.007288">
        <ele>35.9</ele>
        <time>1970-01-01T00:11:32.000Z</time>
      </trkpt>
      <trkpt lat="41.330627" lon="2.007288">
        <ele>36.9</ele>
        <time>1970-01-01T00:11:33.000Z</time>
      </trkpt>
      <trkpt lat="41.330662" lon="2.007195">
        <ele>36.9</ele>
        <time>1970-01-01T00:11:34.000Z</time>
      </trkpt>
      <trkpt lat="41.330662" lon="2.007195">
        <ele>36.9</ele>
        <time>1970-01-01T00:11:35.000Z</time>
      </trkpt>
      <trkpt lat="41.330693" lon="2.007098">
        <ele>36.9</ele>
        <time>1970-01-01T00:11:36.000Z</time>
      </trkpt>
      <trkpt lat="41.330693" lon="2.007098">
        <ele>36.9</ele>
        <time>1970-01-01T00:11:37.000Z</time>
      </trkpt>
      <trkpt lat="41.330715" lon="2.006993">
        <ele>36.9</ele>
        <time>1970-01-01T00:11:38.000Z</time>
      </trkpt>
      <trkpt lat="41.330715" lon="2.006993">
        <ele>36.9</ele>
        <time>1970-01-01T00:11:39.000Z</time>
      </trkpt>
      <trkpt lat="41.33073" lon="2.006887">
        <ele>36.9</ele>
        <time>1970-01-01T00:11:40.000Z</time>
      </trkpt>
      <trkpt lat="41.33073" lon="2.006887">
        <ele>36.9</ele>
        <time>1970-01-01T00:11:41.000Z</time>
      </trkpt>
      <trkpt lat="41.33075" lon="2.00678">
        <ele>36.9</ele>
        <time>1970-01-01T00:11:42.000Z</time>
      </trkpt>
      <trkpt lat="41.33075" lon="2.00678">
        <ele>36.9</ele>
        <time>1970-01-01T00:11:43.000Z</time>
      </trkpt>
      <trkpt lat="41.330767" lon="2.006675">
        <ele>36.9</ele>
        <time>1970-01-01T00:11:44.000Z</time>
      </trkpt>
      <trkpt lat="41.330767" lon="2.006675">
        <ele>36.9</ele>
        <time>1970-01-01T00:11:45.000Z</time>
      </trkpt>
      <trkpt lat="41.330785" lon="2.006573">
        <ele>36.9</ele>
        <time>1970-01-01T00:11:46.000Z</time>
      </trkpt>
      <trkpt lat="41.330785" lon="2.006573">
        <ele>36.9</ele>
        <time>1970-01-01T00:11:47.000Z</time>
      </trkpt>
      <trkpt lat="41.330803" lon="2.006472">
        <ele>36.9</ele>
        <time>1970-01-01T00:11:48.000Z</time>
      </trkpt>
      <trkpt lat="41.330803" lon="2.006472">
        <ele>36.9</ele>
        <time>1970-01-01T00:11:49.000Z</time>
      </trkpt>
      <trkpt lat="41.330823" lon="2.00637">
        <ele>36.9</ele>
        <time>1970-01-01T00:11:50.000Z</time>
      </trkpt>
      <trkpt lat="41.330833" lon="2.00632">
        <ele>36.9</ele>
        <time>1970-01-01T00:11:51.000Z</time>
      </trkpt>
      <trkpt lat="41.330833" lon="2.00632">
        <ele>36.9</ele>
        <time>1970-01-01T00:11:52.000Z</time>
      </trkpt>
      <trkpt lat="41.330845" lon="2.006218">
        <ele>36.9</ele>
        <time>1970-01-01T00:11:53.000Z</time>
      </trkpt>
      <trkpt lat="41.33085" lon="2.006168">
        <ele>36.9</ele>
        <time>1970-01-01T00:11:54.000Z</time>
      </trkpt>
      <trkpt lat="41.33085" lon="2.006168">
        <ele>36.9</ele>
        <time>1970-01-01T00:11:55.000Z</time>
      </trkpt>
      <trkpt lat="41.33085" lon="2.006067">
        <ele>36.9</ele>
        <time>1970-01-01T00:11:56.000Z</time>
      </trkpt>
      <trkpt lat="41.33085" lon="2.006067">
        <ele>36.9</ele>
        <time>1970-01-01T00:11:57.000Z</time>
      </trkpt>
      <trkpt lat="41.330845" lon="2.00595">
        <ele>37.9</ele>
        <time>1970-01-01T00:11:58.000Z</time>
      </trkpt>
      <trkpt lat="41.330845" lon="2.00595">
        <ele>37.9</ele>
        <time>1970-01-01T00:11:59.000Z</time>
      </trkpt>
      <trkpt lat="41.330845" lon="2.005825">
        <ele>37.9</ele>
        <time>1970-01-01T00:12:00.000Z</time>
      </trkpt>
      <trkpt lat="41.330845" lon="2.005825">
        <ele>37.9</ele>
        <time>1970-01-01T00:12:01.000Z</time>
      </trkpt>
      <trkpt lat="41.33085" lon="2.005713">
        <ele>37.9</ele>
        <time>1970-01-01T00:12:02.000Z</time>
      </trkpt>
      <trkpt lat="41.33085" lon="2.005713">
        <ele>37.9</ele>
        <time>1970-01-01T00:12:03.000Z</time>
      </trkpt>
      <trkpt lat="41.330858" lon="2.005605">
        <ele>37.9</ele>
        <time>1970-01-01T00:12:04.000Z</time>
      </trkpt>
      <trkpt lat="41.330858" lon="2.005605">
        <ele>37.9</ele>
        <time>1970-01-01T00:12:05.000Z</time>
      </trkpt>
      <trkpt lat="41.330867" lon="2.005497">
        <ele>37.9</ele>
        <time>1970-01-01T00:12:06.000Z</time>
      </trkpt>
      <trkpt lat="41.330867" lon="2.005497">
        <ele>37.9</ele>
        <time>1970-01-01T00:12:07.000Z</time>
      </trkpt>
      <trkpt lat="41.330872" lon="2.005392">
        <ele>37.9</ele>
        <time>1970-01-01T00:12:08.000Z</time>
      </trkpt>
      <trkpt lat="41.330872" lon="2.005392">
        <ele>37.9</ele>
        <time>1970-01-01T00:12:09.000Z</time>
      </trkpt>
      <trkpt lat="41.33088" lon="2.00529">
        <ele>37.9</ele>
        <time>1970-01-01T00:12:10.000Z</time>
      </trkpt>
      <trkpt lat="41.33088" lon="2.00529">
        <ele>37.9</ele>
        <time>1970-01-01T00:12:11.000Z</time>
      </trkpt>
      <trkpt lat="41.330887" lon="2.005187">
        <ele>37.9</ele>
        <time>1970-01-01T00:12:12.000Z</time>
      </trkpt>
      <trkpt lat="41.330892" lon="2.005135">
        <ele>37.9</ele>
        <time>1970-01-01T00:12:13.000Z</time>
      </trkpt>
      <trkpt lat="41.330895" lon="2.005083">
        <ele>37.9</ele>
        <time>1970-01-01T00:12:14.000Z</time>
      </trkpt>
      <trkpt lat="41.330895" lon="2.005083">
        <ele>37.9</ele>
        <time>1970-01-01T00:12:15.000Z</time>
      </trkpt>
      <trkpt lat="41.330897" lon="2.004978">
        <ele>37.9</ele>
        <time>1970-01-01T00:12:16.000Z</time>
      </trkpt>
      <trkpt lat="41.330897" lon="2.004978">
        <ele>37.9</ele>
        <time>1970-01-01T00:12:17.000Z</time>
      </trkpt>
      <trkpt lat="41.330902" lon="2.004873">
        <ele>38.9</ele>
        <time>1970-01-01T00:12:18.000Z</time>
      </trkpt>
      <trkpt lat="41.330902" lon="2.004873">
        <ele>38.9</ele>
        <time>1970-01-01T00:12:19.000Z</time>
      </trkpt>
      <trkpt lat="41.330908" lon="2.004767">
        <ele>38.9</ele>
        <time>1970-01-01T00:12:20.000Z</time>
      </trkpt>
      <trkpt lat="41.330908" lon="2.004767">
        <ele>38.9</ele>
        <time>1970-01-01T00:12:21.000Z</time>
      </trkpt>
      <trkpt lat="41.33091" lon="2.00466">
        <ele>38.9</ele>
        <time>1970-01-01T00:12:22.000Z</time>
      </trkpt>
      <trkpt lat="41.330913" lon="2.004607">
        <ele>38.9</ele>
        <time>1970-01-01T00:12:23.000Z</time>
      </trkpt>
      <trkpt lat="41.330913" lon="2.004607">
        <ele>38.9</ele>
        <time>1970-01-01T00:12:24.000Z</time>
      </trkpt>
      <trkpt lat="41.330918" lon="2.004503">
        <ele>38.9</ele>
        <time>1970-01-01T00:12:25.000Z</time>
      </trkpt>
      <trkpt lat="41.330922" lon="2.004452">
        <ele>38.9</ele>
        <time>1970-01-01T00:12:26.000Z</time>
      </trkpt>
      <trkpt lat="41.330922" lon="2.004452">
        <ele>38.9</ele>
        <time>1970-01-01T00:12:27.000Z</time>
      </trkpt>
      <trkpt lat="41.330928" lon="2.004345">
        <ele>38.9</ele>
        <time>1970-01-01T00:12:28.000Z</time>
      </trkpt>
      <trkpt lat="41.330928" lon="2.004345">
        <ele>38.9</ele>
        <time>1970-01-01T00:12:29.000Z</time>
      </trkpt>
      <trkpt lat="41.330932" lon="2.004235">
        <ele>38.9</ele>
        <time>1970-01-01T00:12:30.000Z</time>
      </trkpt>
      <trkpt lat="41.330932" lon="2.004235">
        <ele>38.9</ele>
        <time>1970-01-01T00:12:31.000Z</time>
      </trkpt>
      <trkpt lat="41.330938" lon="2.004128">
        <ele>38.9</ele>
        <time>1970-01-01T00:12:32.000Z</time>
      </trkpt>
      <trkpt lat="41.330938" lon="2.004128">
        <ele>38.9</ele>
        <time>1970-01-01T00:12:33.000Z</time>
      </trkpt>
      <trkpt lat="41.330943" lon="2.00402">
        <ele>38.9</ele>
        <time>1970-01-01T00:12:34.000Z</time>
      </trkpt>
      <trkpt lat="41.330943" lon="2.00402">
        <ele>38.9</ele>
        <time>1970-01-01T00:12:35.000Z</time>
      </trkpt>
      <trkpt lat="41.330947" lon="2.003918">
        <ele>39.9</ele>
        <time>1970-01-01T00:12:36.000Z</time>
      </trkpt>
      <trkpt lat="41.330948" lon="2.003867">
        <ele>39.9</ele>
        <time>1970-01-01T00:12:37.000Z</time>
      </trkpt>
      <trkpt lat="41.330948" lon="2.003867">
        <ele>39.9</ele>
        <time>1970-01-01T00:12:38.000Z</time>
      </trkpt>
      <trkpt lat="41.330952" lon="2.003763">
        <ele>39.9</ele>
        <time>1970-01-01T00:12:39.000Z</time>
      </trkpt>
      <trkpt lat="41.330952" lon="2.003763">
        <ele>39.9</ele>
        <time>1970-01-01T00:12:40.000Z</time>
      </trkpt>
      <trkpt lat="41.330955" lon="2.003657">
        <ele>39.9</ele>
        <time>1970-01-01T00:12:41.000Z</time>
      </trkpt>
      <trkpt lat="41.330955" lon="2.003603">
        <ele>39.9</ele>
        <time>1970-01-01T00:12:42.000Z</time>
      </trkpt>
      <trkpt lat="41.330955" lon="2.003603">
        <ele>39.9</ele>
        <time>1970-01-01T00:12:43.000Z</time>
      </trkpt>
      <trkpt lat="41.330958" lon="2.003493">
        <ele>39.9</ele>
        <time>1970-01-01T00:12:44.000Z</time>
      </trkpt>
      <trkpt lat="41.330958" lon="2.003493">
        <ele>39.9</ele>
        <time>1970-01-01T00:12:45.000Z</time>
      </trkpt>
      <trkpt lat="41.330962" lon="2.003385">
        <ele>39.9</ele>
        <time>1970-01-01T00:12:46.000Z</time>
      </trkpt>
      <trkpt lat="41.330965" lon="2.003332">
        <ele>39.9</ele>
        <time>1970-01-01T00:12:47.000Z</time>
      </trkpt>
      <trkpt lat="41.330965" lon="2.003332">
        <ele>39.9</ele>
        <time>1970-01-01T00:12:48.000Z</time>
      </trkpt>
      <trkpt lat="41.33097" lon="2.003222">
        <ele>39.9</ele>
        <time>1970-01-01T00:12:49.000Z</time>
      </trkpt>
      <trkpt lat="41.33097" lon="2.003222">
        <ele>39.9</ele>
        <time>1970-01-01T00:12:50.000Z</time>
      </trkpt>
      <trkpt lat="41.330972" lon="2.00311">
        <ele>40.9</ele>
        <time>1970-01-01T00:12:51.000Z</time>
      </trkpt>
      <trkpt lat="41.330972" lon="2.00311">
        <ele>40.9</ele>
        <time>1970-01-01T00:12:52.000Z</time>
      </trkpt>
      <trkpt lat="41.330977" lon="2.003">
        <ele>40.9</ele>
        <time>1970-01-01T00:12:53.000Z</time>
      </trkpt>
      <trkpt lat="41.330977" lon="2.003">
        <ele>40.9</ele>
        <time>1970-01-01T00:12:54.000Z</time>
      </trkpt>
      <trkpt lat="41.330992" lon="2.002895">
        <ele>40.9</ele>
        <time>1970-01-01T00:12:55.000Z</time>
      </trkpt>
      <trkpt lat="41.331005" lon="2.002842">
        <ele>40.9</ele>
        <time>1970-01-01T00:12:56.000Z</time>
      </trkpt>
      <trkpt lat="41.331005" lon="2.002842">
        <ele>40.9</ele>
        <time>1970-01-01T00:12:57.000Z</time>
      </trkpt>
      <trkpt lat="41.331043" lon="2.002747">
        <ele>40.9</ele>
        <time>1970-01-01T00:12:58.000Z</time>
      </trkpt>
      <trkpt lat="41.331065" lon="2.002703">
        <ele>40.9</ele>
        <time>1970-01-01T00:12:59.000Z</time>
      </trkpt>
      <trkpt lat="41.331065" lon="2.002703">
        <ele>40.9</ele>
        <time>1970-01-01T00:13:00.000Z</time>
      </trkpt>
      <trkpt lat="41.331117" lon="2.002623">
        <ele>40.9</ele>
        <time>1970-01-01T00:13:01.000Z</time>
      </trkpt>
      <trkpt lat="41.331138" lon="2.002582">
        <ele>40.9</ele>
        <time>1970-01-01T00:13:02.000Z</time>
      </trkpt>
      <trkpt lat="41.331138" lon="2.002582">
        <ele>40.9</ele>
        <time>1970-01-01T00:13:03.000Z</time>
      </trkpt>
      <trkpt lat="41.331175" lon="2.002493">
        <ele>40.9</ele>
        <time>1970-01-01T00:13:04.000Z</time>
      </trkpt>
      <trkpt lat="41.331187" lon="2.00245">
        <ele>40.9</ele>
        <time>1970-01-01T00:13:05.000Z</time>
      </trkpt>
      <trkpt lat="41.331205" lon="2.002415">
        <ele>40.9</ele>
        <time>1970-01-01T00:13:06.000Z</time>
      </trkpt>
      <trkpt lat="41.331205" lon="2.002415">
        <ele>41.9</ele>
        <time>1970-01-01T00:13:07.000Z</time>
      </trkpt>
      <trkpt lat="41.331262" lon="2.00235">
        <ele>41.9</ele>
        <time>1970-01-01T00:13:08.000Z</time>
      </trkpt>
      <trkpt lat="41.331262" lon="2.00235">
        <ele>41.9</ele>
        <time>1970-01-01T00:13:09.000Z</time>
      </trkpt>
      <trkpt lat="41.331323" lon="2.002262">
        <ele>41.9</ele>
        <time>1970-01-01T00:13:10.000Z</time>
      </trkpt>
      <trkpt lat="41.331323" lon="2.002262">
        <ele>41.9</ele>
        <time>1970-01-01T00:13:11.000Z</time>
      </trkpt>
      <trkpt lat="41.331378" lon="2.002172">
        <ele>41.9</ele>
        <time>1970-01-01T00:13:12.000Z</time>
      </trkpt>
      <trkpt lat="41.331403" lon="2.002137">
        <ele>41.9</ele>
        <time>1970-01-01T00:13:13.000Z</time>
      </trkpt>
      <trkpt lat="41.331403" lon="2.002137">
        <ele>41.9</ele>
        <time>1970-01-01T00:13:14.000Z</time>
      </trkpt>
      <trkpt lat="41.331437" lon="2.002102">
        <ele>41.9</ele>
        <time>1970-01-01T00:13:15.000Z</time>
      </trkpt>
      <trkpt lat="41.331445" lon="2.002095">
        <ele>41.9</ele>
        <time>1970-01-01T00:13:16.000Z</time>
      </trkpt>
      <trkpt lat="41.331445" lon="2.002095">
        <ele>41.9</ele>
        <time>1970-01-01T00:13:17.000Z</time>
      </trkpt>
      <trkpt lat="41.331438" lon="2.002043">
        <ele>41.9</ele>
        <time>1970-01-01T00:13:18.000Z</time>
      </trkpt>
      <trkpt lat="41.331438" lon="2.002043">
        <ele>41.9</ele>
        <time>1970-01-01T00:13:19.000Z</time>
      </trkpt>
      <trkpt lat="41.331402" lon="2.00201">
        <ele>41.9</ele>
        <time>1970-01-01T00:13:20.000Z</time>
      </trkpt>
      <trkpt lat="41.331402" lon="2.00201">
        <ele>41.9</ele>
        <time>1970-01-01T00:13:21.000Z</time>
      </trkpt>
      <trkpt lat="41.331362" lon="2.001955">
        <ele>41.9</ele>
        <time>1970-01-01T00:13:22.000Z</time>
      </trkpt>
      <trkpt lat="41.331362" lon="2.001955">
        <ele>41.9</ele>
        <time>1970-01-01T00:13:23.000Z</time>
      </trkpt>
      <trkpt lat="41.331327" lon="2.001898">
        <ele>41.9</ele>
        <time>1970-01-01T00:13:24.000Z</time>
      </trkpt>
      <trkpt lat="41.331327" lon="2.001898">
        <ele>41.9</ele>
        <time>1970-01-01T00:13:25.000Z</time>
      </trkpt>
      <trkpt lat="41.331297" lon="2.001832">
        <ele>42.9</ele>
        <time>1970-01-01T00:13:26.000Z</time>
      </trkpt>
      <trkpt lat="41.331297" lon="2.001832">
        <ele>42.9</ele>
        <time>1970-01-01T00:13:27.000Z</time>
      </trkpt>
      <trkpt lat="41.331268" lon="2.001757">
        <ele>42.9</ele>
        <time>1970-01-01T00:13:28.000Z</time>
      </trkpt>
      <trkpt lat="41.331268" lon="2.001757">
        <ele>42.9</ele>
        <time>1970-01-01T00:13:29.000Z</time>
      </trkpt>
      <trkpt lat="41.33124" lon="2.001692">
        <ele>44.9</ele>
        <time>1970-01-01T00:13:30.000Z</time>
      </trkpt>
      <trkpt lat="41.331232" lon="2.001662">
        <ele>44.9</ele>
        <time>1970-01-01T00:13:31.000Z</time>
      </trkpt>
      <trkpt lat="41.331222" lon="2.001623">
        <ele>44.9</ele>
        <time>1970-01-01T00:13:32.000Z</time>
      </trkpt>
      <trkpt lat="41.331222" lon="2.001623">
        <ele>44.9</ele>
        <time>1970-01-01T00:13:33.000Z</time>
      </trkpt>
      <trkpt lat="41.331183" lon="2.00156">
        <ele>44.9</ele>
        <time>1970-01-01T00:13:34.000Z</time>
      </trkpt>
      <trkpt lat="41.331183" lon="2.00156">
        <ele>44.9</ele>
        <time>1970-01-01T00:13:35.000Z</time>
      </trkpt>
      <trkpt lat="41.331127" lon="2.001493">
        <ele>44.9</ele>
        <time>1970-01-01T00:13:36.000Z</time>
      </trkpt>
      <trkpt lat="41.331092" lon="2.00146">
        <ele>44.9</ele>
        <time>1970-01-01T00:13:37.000Z</time>
      </trkpt>
      <trkpt lat="41.331055" lon="2.001425">
        <ele>44.9</ele>
        <time>1970-01-01T00:13:38.000Z</time>
      </trkpt>
      <trkpt lat="41.331055" lon="2.001425">
        <ele>44.9</ele>
        <time>1970-01-01T00:13:39.000Z</time>
      </trkpt>
      <trkpt lat="41.330978" lon="2.001357">
        <ele>42.9</ele>
        <time>1970-01-01T00:13:40.000Z</time>
      </trkpt>
      <trkpt lat="41.330938" lon="2.001323">
        <ele>42.9</ele>
        <time>1970-01-01T00:13:41.000Z</time>
      </trkpt>
      <trkpt lat="41.330938" lon="2.001323">
        <ele>42.9</ele>
        <time>1970-01-01T00:13:42.000Z</time>
      </trkpt>
      <trkpt lat="41.330863" lon="2.00125">
        <ele>42.9</ele>
        <time>1970-01-01T00:13:43.000Z</time>
      </trkpt>
      <trkpt lat="41.330825" lon="2.00122">
        <ele>42.9</ele>
        <time>1970-01-01T00:13:44.000Z</time>
      </trkpt>
      <trkpt lat="41.330825" lon="2.00122">
        <ele>42.9</ele>
        <time>1970-01-01T00:13:45.000Z</time>
      </trkpt>
      <trkpt lat="41.33076" lon="2.001143">
        <ele>42.9</ele>
        <time>1970-01-01T00:13:46.000Z</time>
      </trkpt>
      <trkpt lat="41.33076" lon="2.001143">
        <ele>42.9</ele>
        <time>1970-01-01T00:13:47.000Z</time>
      </trkpt>
      <trkpt lat="41.330713" lon="2.001052">
        <ele>42.9</ele>
        <time>1970-01-01T00:13:48.000Z</time>
      </trkpt>
      <trkpt lat="41.330697" lon="2.001002">
        <ele>42.9</ele>
        <time>1970-01-01T00:13:49.000Z</time>
      </trkpt>
      <trkpt lat="41.330683" lon="2.000953">
        <ele>42.9</ele>
        <time>1970-01-01T00:13:50.000Z</time>
      </trkpt>
      <trkpt lat="41.330683" lon="2.000953">
        <ele>42.9</ele>
        <time>1970-01-01T00:13:51.000Z</time>
      </trkpt>
      <trkpt lat="41.330655" lon="2.000852">
        <ele>42.9</ele>
        <time>1970-01-01T00:13:52.000Z</time>
      </trkpt>
      <trkpt lat="41.330642" lon="2.000803">
        <ele>42.9</ele>
        <time>1970-01-01T00:13:53.000Z</time>
      </trkpt>
      <trkpt lat="41.330627" lon="2.000757">
        <ele>42.9</ele>
        <time>1970-01-01T00:13:54.000Z</time>
      </trkpt>
      <trkpt lat="41.330627" lon="2.000757">
        <ele>42.9</ele>
        <time>1970-01-01T00:13:55.000Z</time>
      </trkpt>
      <trkpt lat="41.330587" lon="2.000668">
        <ele>42.9</ele>
        <time>1970-01-01T00:13:56.000Z</time>
      </trkpt>
      <trkpt lat="41.330587" lon="2.000668">
        <ele>42.9</ele>
        <time>1970-01-01T00:13:57.000Z</time>
      </trkpt>
      <trkpt lat="41.330545" lon="2.000583">
        <ele>42.9</ele>
        <time>1970-01-01T00:13:58.000Z</time>
      </trkpt>
      <trkpt lat="41.330527" lon="2.000542">
        <ele>42.9</ele>
        <time>1970-01-01T00:13:59.000Z</time>
      </trkpt>
      <trkpt lat="41.330527" lon="2.000542">
        <ele>42.9</ele>
        <time>1970-01-01T00:14:00.000Z</time>
      </trkpt>
      <trkpt lat="41.330485" lon="2.00046">
        <ele>42.9</ele>
        <time>1970-01-01T00:14:01.000Z</time>
      </trkpt>
      <trkpt lat="41.330485" lon="2.00046">
        <ele>42.9</ele>
        <time>1970-01-01T00:14:02.000Z</time>
      </trkpt>
      <trkpt lat="41.330443" lon="2.000387">
        <ele>42.9</ele>
        <time>1970-01-01T00:14:03.000Z</time>
      </trkpt>
      <trkpt lat="41.330443" lon="2.000387">
        <ele>42.9</ele>
        <time>1970-01-01T00:14:04.000Z</time>
      </trkpt>
      <trkpt lat="41.3304" lon="2.000318">
        <ele>42.9</ele>
        <time>1970-01-01T00:14:05.000Z</time>
      </trkpt>
      <trkpt lat="41.330377" lon="2.000288">
        <ele>42.9</ele>
        <time>1970-01-01T00:14:06.000Z</time>
      </trkpt>
      <trkpt lat="41.330377" lon="2.000288">
        <ele>42.9</ele>
        <time>1970-01-01T00:14:07.000Z</time>
      </trkpt>
      <trkpt lat="41.330328" lon="2.00024">
        <ele>42.9</ele>
        <time>1970-01-01T00:14:08.000Z</time>
      </trkpt>
      <trkpt lat="41.330328" lon="2.00024">
        <ele>42.9</ele>
        <time>1970-01-01T00:14:09.000Z</time>
      </trkpt>
      <trkpt lat="41.330277" lon="2.000192">
        <ele>42.9</ele>
        <time>1970-01-01T00:14:10.000Z</time>
      </trkpt>
      <trkpt lat="41.330277" lon="2.000192">
        <ele>43.9</ele>
        <time>1970-01-01T00:14:11.000Z</time>
      </trkpt>
      <trkpt lat="41.330227" lon="2.000148">
        <ele>43.9</ele>
        <time>1970-01-01T00:14:12.000Z</time>
      </trkpt>
      <trkpt lat="41.3302" lon="2.000132">
        <ele>43.9</ele>
        <time>1970-01-01T00:14:13.000Z</time>
      </trkpt>
      <trkpt lat="41.330175" lon="2.000112">
        <ele>43.9</ele>
        <time>1970-01-01T00:14:14.000Z</time>
      </trkpt>
      <trkpt lat="41.330175" lon="2.000112">
        <ele>43.9</ele>
        <time>1970-01-01T00:14:15.000Z</time>
      </trkpt>
      <trkpt lat="41.33012" lon="2.000085">
        <ele>43.9</ele>
        <time>1970-01-01T00:14:16.000Z</time>
      </trkpt>
      <trkpt lat="41.33012" lon="2.000085">
        <ele>44.9</ele>
        <time>1970-01-01T00:14:17.000Z</time>
      </trkpt>
      <trkpt lat="41.330067" lon="2.000073">
        <ele>44.9</ele>
        <time>1970-01-01T00:14:18.000Z</time>
      </trkpt>
      <trkpt lat="41.330067" lon="2.000073">
        <ele>44.9</ele>
        <time>1970-01-01T00:14:19.000Z</time>
      </trkpt>
      <trkpt lat="41.330012" lon="2.00005">
        <ele>44.9</ele>
        <time>1970-01-01T00:14:20.000Z</time>
      </trkpt>
      <trkpt lat="41.330012" lon="2.00005">
        <ele>44.9</ele>
        <time>1970-01-01T00:14:21.000Z</time>
      </trkpt>
      <trkpt lat="41.329958" lon="2.000017">
        <ele>44.9</ele>
        <time>1970-01-01T00:14:22.000Z</time>
      </trkpt>
      <trkpt lat="41.329958" lon="2.000017">
        <ele>44.9</ele>
        <time>1970-01-01T00:14:23.000Z</time>
      </trkpt>
      <trkpt lat="41.329907" lon="1.999987">
        <ele>44.9</ele>
        <time>1970-01-01T00:14:24.000Z</time>
      </trkpt>
      <trkpt lat="41.329878" lon="1.999975">
        <ele>45.9</ele>
        <time>1970-01-01T00:14:25.000Z</time>
      </trkpt>
      <trkpt lat="41.329847" lon="1.999962">
        <ele>45.9</ele>
        <time>1970-01-01T00:14:26.000Z</time>
      </trkpt>
      <trkpt lat="41.329847" lon="1.999962">
        <ele>45.9</ele>
        <time>1970-01-01T00:14:27.000Z</time>
      </trkpt>
      <trkpt lat="41.32979" lon="1.999937">
        <ele>45.9</ele>
        <time>1970-01-01T00:14:28.000Z</time>
      </trkpt>
      <trkpt lat="41.329762" lon="1.99992">
        <ele>45.9</ele>
        <time>1970-01-01T00:14:29.000Z</time>
      </trkpt>
      <trkpt lat="41.329762" lon="1.99992">
        <ele>45.9</ele>
        <time>1970-01-01T00:14:30.000Z</time>
      </trkpt>
      <trkpt lat="41.32971" lon="1.999888">
        <ele>46.9</ele>
        <time>1970-01-01T00:14:31.000Z</time>
      </trkpt>
      <trkpt lat="41.32971" lon="1.999888">
        <ele>46.9</ele>
        <time>1970-01-01T00:14:32.000Z</time>
      </trkpt>
      <trkpt lat="41.329655" lon="1.999847">
        <ele>46.9</ele>
        <time>1970-01-01T00:14:33.000Z</time>
      </trkpt>
      <trkpt lat="41.329655" lon="1.999847">
        <ele>46.9</ele>
        <time>1970-01-01T00:14:34.000Z</time>
      </trkpt>
      <trkpt lat="41.329602" lon="1.999787">
        <ele>46.9</ele>
        <time>1970-01-01T00:14:35.000Z</time>
      </trkpt>
      <trkpt lat="41.329602" lon="1.999787">
        <ele>46.9</ele>
        <time>1970-01-01T00:14:36.000Z</time>
      </trkpt>
      <trkpt lat="41.329562" lon="1.999708">
        <ele>46.9</ele>
        <time>1970-01-01T00:14:37.000Z</time>
      </trkpt>
      <trkpt lat="41.329547" lon="1.999667">
        <ele>46.9</ele>
        <time>1970-01-01T00:14:38.000Z</time>
      </trkpt>
      <trkpt lat="41.329547" lon="1.999667">
        <ele>46.9</ele>
        <time>1970-01-01T00:14:39.000Z</time>
      </trkpt>
      <trkpt lat="41.329523" lon="1.999588">
        <ele>46.9</ele>
        <time>1970-01-01T00:14:40.000Z</time>
      </trkpt>
      <trkpt lat="41.329512" lon="1.999552">
        <ele>47.9</ele>
        <time>1970-01-01T00:14:41.000Z</time>
      </trkpt>
      <trkpt lat="41.329512" lon="1.999552">
        <ele>47.9</ele>
        <time>1970-01-01T00:14:42.000Z</time>
      </trkpt>
      <trkpt lat="41.32949" lon="1.99948">
        <ele>47.9</ele>
        <time>1970-01-01T00:14:43.000Z</time>
      </trkpt>
      <trkpt lat="41.329482" lon="1.999447">
        <ele>47.9</ele>
        <time>1970-01-01T00:14:44.000Z</time>
      </trkpt>
      <trkpt lat="41.329482" lon="1.999447">
        <ele>48.9</ele>
        <time>1970-01-01T00:14:45.000Z</time>
      </trkpt>
      <trkpt lat="41.329475" lon="1.999377">
        <ele>48.9</ele>
        <time>1970-01-01T00:14:46.000Z</time>
      </trkpt>
      <trkpt lat="41.329473" lon="1.999342">
        <ele>48.9</ele>
        <time>1970-01-01T00:14:47.000Z</time>
      </trkpt>
      <trkpt lat="41.329473" lon="1.999342">
        <ele>48.9</ele>
        <time>1970-01-01T00:14:48.000Z</time>
      </trkpt>
      <trkpt lat="41.32949" lon="1.999267">
        <ele>48.9</ele>
        <time>1970-01-01T00:14:49.000Z</time>
      </trkpt>
      <trkpt lat="41.329498" lon="1.999233">
        <ele>48.9</ele>
        <time>1970-01-01T00:14:50.000Z</time>
      </trkpt>
      <trkpt lat="41.329498" lon="1.999233">
        <ele>49.9</ele>
        <time>1970-01-01T00:14:51.000Z</time>
      </trkpt>
      <trkpt lat="41.32952" lon="1.999172">
        <ele>49.9</ele>
        <time>1970-01-01T00:14:52.000Z</time>
      </trkpt>
      <trkpt lat="41.32952" lon="1.999172">
        <ele>49.9</ele>
        <time>1970-01-01T00:14:53.000Z</time>
      </trkpt>
      <trkpt lat="41.329555" lon="1.999117">
        <ele>49.9</ele>
        <time>1970-01-01T00:14:54.000Z</time>
      </trkpt>
      <trkpt lat="41.329555" lon="1.999117">
        <ele>49.9</ele>
        <time>1970-01-01T00:14:55.000Z</time>
      </trkpt>
      <trkpt lat="41.329585" lon="1.99907">
        <ele>49.9</ele>
        <time>1970-01-01T00:14:56.000Z</time>
      </trkpt>
      <trkpt lat="41.329585" lon="1.99907">
        <ele>49.9</ele>
        <time>1970-01-01T00:14:57.000Z</time>
      </trkpt>
      <trkpt lat="41.329612" lon="1.999022">
        <ele>49.9</ele>
        <time>1970-01-01T00:14:58.000Z</time>
      </trkpt>
      <trkpt lat="41.329612" lon="1.999022">
        <ele>49.9</ele>
        <time>1970-01-01T00:14:59.000Z</time>
      </trkpt>
      <trkpt lat="41.329632" lon="1.998967">
        <ele>50.9</ele>
        <time>1970-01-01T00:15:00.000Z</time>
      </trkpt>
      <trkpt lat="41.32964" lon="1.998937">
        <ele>50.9</ele>
        <time>1970-01-01T00:15:01.000Z</time>
      </trkpt>
      <trkpt lat="41.32964" lon="1.998937">
        <ele>50.9</ele>
        <time>1970-01-01T00:15:02.000Z</time>
      </trkpt>
      <trkpt lat="41.329657" lon="1.998867">
        <ele>50.9</ele>
        <time>1970-01-01T00:15:03.000Z</time>
      </trkpt>
      <trkpt lat="41.329663" lon="1.99883">
        <ele>50.9</ele>
        <time>1970-01-01T00:15:04.000Z</time>
      </trkpt>
      <trkpt lat="41.329663" lon="1.99883">
        <ele>50.9</ele>
        <time>1970-01-01T00:15:05.000Z</time>
      </trkpt>
      <trkpt lat="41.32967" lon="1.998753">
        <ele>50.9</ele>
        <time>1970-01-01T00:15:06.000Z</time>
      </trkpt>
      <trkpt lat="41.32967" lon="1.998753">
        <ele>50.9</ele>
        <time>1970-01-01T00:15:07.000Z</time>
      </trkpt>
      <trkpt lat="41.329673" lon="1.998677">
        <ele>50.9</ele>
        <time>1970-01-01T00:15:08.000Z</time>
      </trkpt>
      <trkpt lat="41.329673" lon="1.998677">
        <ele>50.9</ele>
        <time>1970-01-01T00:15:09.000Z</time>
      </trkpt>
      <trkpt lat="41.329682" lon="1.9986">
        <ele>50.9</ele>
        <time>1970-01-01T00:15:10.000Z</time>
      </trkpt>
      <trkpt lat="41.329682" lon="1.9986">
        <ele>50.9</ele>
        <time>1970-01-01T00:15:11.000Z</time>
      </trkpt>
      <trkpt lat="41.329685" lon="1.998538">
        <ele>51.9</ele>
        <time>1970-01-01T00:15:12.000Z</time>
      </trkpt>
      <trkpt lat="41.329685" lon="1.998538">
        <ele>51.9</ele>
        <time>1970-01-01T00:15:13.000Z</time>
      </trkpt>
      <trkpt lat="41.329702" lon="1.99848">
        <ele>51.9</ele>
        <time>1970-01-01T00:15:14.000Z</time>
      </trkpt>
      <trkpt lat="41.329702" lon="1.99848">
        <ele>51.9</ele>
        <time>1970-01-01T00:15:15.000Z</time>
      </trkpt>
      <trkpt lat="41.329732" lon="1.998428">
        <ele>52.9</ele>
        <time>1970-01-01T00:15:16.000Z</time>
      </trkpt>
      <trkpt lat="41.329732" lon="1.998428">
        <ele>52.9</ele>
        <time>1970-01-01T00:15:17.000Z</time>
      </trkpt>
      <trkpt lat="41.329773" lon="1.998382">
        <ele>52.9</ele>
        <time>1970-01-01T00:15:18.000Z</time>
      </trkpt>
      <trkpt lat="41.329773" lon="1.998382">
        <ele>52.9</ele>
        <time>1970-01-01T00:15:19.000Z</time>
      </trkpt>
      <trkpt lat="41.329822" lon="1.998338">
        <ele>52.9</ele>
        <time>1970-01-01T00:15:20.000Z</time>
      </trkpt>
      <trkpt lat="41.329822" lon="1.998338">
        <ele>52.9</ele>
        <time>1970-01-01T00:15:21.000Z</time>
      </trkpt>
      <trkpt lat="41.32987" lon="1.998288">
        <ele>52.9</ele>
        <time>1970-01-01T00:15:22.000Z</time>
      </trkpt>
      <trkpt lat="41.329898" lon="1.998265">
        <ele>52.9</ele>
        <time>1970-01-01T00:15:23.000Z</time>
      </trkpt>
      <trkpt lat="41.329898" lon="1.998265">
        <ele>52.9</ele>
        <time>1970-01-01T00:15:24.000Z</time>
      </trkpt>
      <trkpt lat="41.32996" lon="1.998222">
        <ele>52.9</ele>
        <time>1970-01-01T00:15:25.000Z</time>
      </trkpt>
      <trkpt lat="41.329988" lon="1.998203">
        <ele>52.9</ele>
        <time>1970-01-01T00:15:26.000Z</time>
      </trkpt>
      <trkpt lat="41.329988" lon="1.998203">
        <ele>52.9</ele>
        <time>1970-01-01T00:15:27.000Z</time>
      </trkpt>
      <trkpt lat="41.330047" lon="1.998148">
        <ele>52.9</ele>
        <time>1970-01-01T00:15:28.000Z</time>
      </trkpt>
      <trkpt lat="41.330077" lon="1.998115">
        <ele>52.9</ele>
        <time>1970-01-01T00:15:29.000Z</time>
      </trkpt>
      <trkpt lat="41.330077" lon="1.998115">
        <ele>52.9</ele>
        <time>1970-01-01T00:15:30.000Z</time>
      </trkpt>
      <trkpt lat="41.330127" lon="1.998032">
        <ele>52.9</ele>
        <time>1970-01-01T00:15:31.000Z</time>
      </trkpt>
      <trkpt lat="41.330142" lon="1.997985">
        <ele>52.9</ele>
        <time>1970-01-01T00:15:32.000Z</time>
      </trkpt>
      <trkpt lat="41.330142" lon="1.997985">
        <ele>52.9</ele>
        <time>1970-01-01T00:15:33.000Z</time>
      </trkpt>
      <trkpt lat="41.330163" lon="1.997895">
        <ele>52.9</ele>
        <time>1970-01-01T00:15:34.000Z</time>
      </trkpt>
      <trkpt lat="41.330168" lon="1.997845">
        <ele>52.9</ele>
        <time>1970-01-01T00:15:35.000Z</time>
      </trkpt>
      <trkpt lat="41.330168" lon="1.997845">
        <ele>52.9</ele>
        <time>1970-01-01T00:15:36.000Z</time>
      </trkpt>
      <trkpt lat="41.330162" lon="1.99775">
        <ele>52.9</ele>
        <time>1970-01-01T00:15:37.000Z</time>
      </trkpt>
      <trkpt lat="41.330162" lon="1.99775">
        <ele>52.9</ele>
        <time>1970-01-01T00:15:38.000Z</time>
      </trkpt>
      <trkpt lat="41.330142" lon="1.997653">
        <ele>52.9</ele>
        <time>1970-01-01T00:15:39.000Z</time>
      </trkpt>
      <trkpt lat="41.330142" lon="1.997653">
        <ele>52.9</ele>
        <time>1970-01-01T00:15:40.000Z</time>
      </trkpt>
      <trkpt lat="41.330118" lon="1.997563">
        <ele>52.9</ele>
        <time>1970-01-01T00:15:41.000Z</time>
      </trkpt>
      <trkpt lat="41.330108" lon="1.997522">
        <ele>52.9</ele>
        <time>1970-01-01T00:15:42.000Z</time>
      </trkpt>
      <trkpt lat="41.330098" lon="1.997478">
        <ele>52.9</ele>
        <time>1970-01-01T00:15:43.000Z</time>
      </trkpt>
      <trkpt lat="41.330085" lon="1.997435">
        <ele>52.9</ele>
        <time>1970-01-01T00:15:44.000Z</time>
      </trkpt>
      <trkpt lat="41.330085" lon="1.997435">
        <ele>52.9</ele>
        <time>1970-01-01T00:15:45.000Z</time>
      </trkpt>
      <trkpt lat="41.330062" lon="1.997355">
        <ele>52.9</ele>
        <time>1970-01-01T00:15:46.000Z</time>
      </trkpt>
      <trkpt lat="41.330048" lon="1.997317">
        <ele>53.9</ele>
        <time>1970-01-01T00:15:47.000Z</time>
      </trkpt>
      <trkpt lat="41.330048" lon="1.997317">
        <ele>53.9</ele>
        <time>1970-01-01T00:15:48.000Z</time>
      </trkpt>
      <trkpt lat="41.330027" lon="1.997242">
        <ele>53.9</ele>
        <time>1970-01-01T00:15:49.000Z</time>
      </trkpt>
      <trkpt lat="41.330027" lon="1.997242">
        <ele>53.9</ele>
        <time>1970-01-01T00:15:50.000Z</time>
      </trkpt>
      <trkpt lat="41.330012" lon="1.997172">
        <ele>53.9</ele>
        <time>1970-01-01T00:15:51.000Z</time>
      </trkpt>
      <trkpt lat="41.330012" lon="1.997172">
        <ele>53.9</ele>
        <time>1970-01-01T00:15:52.000Z</time>
      </trkpt>
      <trkpt lat="41.329985" lon="1.99711">
        <ele>54.9</ele>
        <time>1970-01-01T00:15:53.000Z</time>
      </trkpt>
      <trkpt lat="41.329985" lon="1.99711">
        <ele>54.9</ele>
        <time>1970-01-01T00:15:54.000Z</time>
      </trkpt>
      <trkpt lat="41.329955" lon="1.997055">
        <ele>54.9</ele>
        <time>1970-01-01T00:15:55.000Z</time>
      </trkpt>
      <trkpt lat="41.329955" lon="1.997055">
        <ele>54.9</ele>
        <time>1970-01-01T00:15:56.000Z</time>
      </trkpt>
      <trkpt lat="41.329927" lon="1.996992">
        <ele>54.9</ele>
        <time>1970-01-01T00:15:57.000Z</time>
      </trkpt>
      <trkpt lat="41.329927" lon="1.996992">
        <ele>54.9</ele>
        <time>1970-01-01T00:15:58.000Z</time>
      </trkpt>
      <trkpt lat="41.32989" lon="1.996942">
        <ele>55.9</ele>
        <time>1970-01-01T00:15:59.000Z</time>
      </trkpt>
      <trkpt lat="41.329872" lon="1.996913">
        <ele>55.9</ele>
        <time>1970-01-01T00:16:00.000Z</time>
      </trkpt>
      <trkpt lat="41.329872" lon="1.996913">
        <ele>55.9</ele>
        <time>1970-01-01T00:16:01.000Z</time>
      </trkpt>
      <trkpt lat="41.32984" lon="1.996858">
        <ele>55.9</ele>
        <time>1970-01-01T00:16:02.000Z</time>
      </trkpt>
      <trkpt lat="41.32984" lon="1.996858">
        <ele>55.9</ele>
        <time>1970-01-01T00:16:03.000Z</time>
      </trkpt>
      <trkpt lat="41.329808" lon="1.996803">
        <ele>55.9</ele>
        <time>1970-01-01T00:16:04.000Z</time>
      </trkpt>
      <trkpt lat="41.329808" lon="1.996803">
        <ele>55.9</ele>
        <time>1970-01-01T00:16:05.000Z</time>
      </trkpt>
      <trkpt lat="41.329768" lon="1.996747">
        <ele>55.9</ele>
        <time>1970-01-01T00:16:06.000Z</time>
      </trkpt>
      <trkpt lat="41.329768" lon="1.996747">
        <ele>55.9</ele>
        <time>1970-01-01T00:16:07.000Z</time>
      </trkpt>
      <trkpt lat="41.329723" lon="1.996693">
        <ele>55.9</ele>
        <time>1970-01-01T00:16:08.000Z</time>
      </trkpt>
      <trkpt lat="41.329723" lon="1.996693">
        <ele>55.9</ele>
        <time>1970-01-01T00:16:09.000Z</time>
      </trkpt>
      <trkpt lat="41.329682" lon="1.996635">
        <ele>55.9</ele>
        <time>1970-01-01T00:16:10.000Z</time>
      </trkpt>
      <trkpt lat="41.329682" lon="1.996635">
        <ele>56.9</ele>
        <time>1970-01-01T00:16:11.000Z</time>
      </trkpt>
      <trkpt lat="41.329642" lon="1.996578">
        <ele>56.9</ele>
        <time>1970-01-01T00:16:12.000Z</time>
      </trkpt>
      <trkpt lat="41.329642" lon="1.996578">
        <ele>56.9</ele>
        <time>1970-01-01T00:16:13.000Z</time>
      </trkpt>
      <trkpt lat="41.329602" lon="1.996535">
        <ele>56.9</ele>
        <time>1970-01-01T00:16:14.000Z</time>
      </trkpt>
      <trkpt lat="41.329582" lon="1.996508">
        <ele>56.9</ele>
        <time>1970-01-01T00:16:15.000Z</time>
      </trkpt>
      <trkpt lat="41.329582" lon="1.996508">
        <ele>56.9</ele>
        <time>1970-01-01T00:16:16.000Z</time>
      </trkpt>
      <trkpt lat="41.329543" lon="1.996463">
        <ele>56.9</ele>
        <time>1970-01-01T00:16:17.000Z</time>
      </trkpt>
      <trkpt lat="41.329543" lon="1.996463">
        <ele>56.9</ele>
        <time>1970-01-01T00:16:18.000Z</time>
      </trkpt>
      <trkpt lat="41.329503" lon="1.996413">
        <ele>57.9</ele>
        <time>1970-01-01T00:16:19.000Z</time>
      </trkpt>
      <trkpt lat="41.329503" lon="1.996413">
        <ele>57.9</ele>
        <time>1970-01-01T00:16:20.000Z</time>
      </trkpt>
      <trkpt lat="41.329467" lon="1.99636">
        <ele>57.9</ele>
        <time>1970-01-01T00:16:21.000Z</time>
      </trkpt>
      <trkpt lat="41.329467" lon="1.99636">
        <ele>57.9</ele>
        <time>1970-01-01T00:16:22.000Z</time>
      </trkpt>
      <trkpt lat="41.329433" lon="1.996315">
        <ele>57.9</ele>
        <time>1970-01-01T00:16:23.000Z</time>
      </trkpt>
      <trkpt lat="41.329433" lon="1.996315">
        <ele>58.9</ele>
        <time>1970-01-01T00:16:24.000Z</time>
      </trkpt>
      <trkpt lat="41.329393" lon="1.99627">
        <ele>58.9</ele>
        <time>1970-01-01T00:16:25.000Z</time>
      </trkpt>
      <trkpt lat="41.32937" lon="1.996248">
        <ele>58.9</ele>
        <time>1970-01-01T00:16:26.000Z</time>
      </trkpt>
      <trkpt lat="41.32937" lon="1.996248">
        <ele>58.9</ele>
        <time>1970-01-01T00:16:27.000Z</time>
      </trkpt>
      <trkpt lat="41.329327" lon="1.996208">
        <ele>58.9</ele>
        <time>1970-01-01T00:16:28.000Z</time>
      </trkpt>
      <trkpt lat="41.329307" lon="1.996188">
        <ele>58.9</ele>
        <time>1970-01-01T00:16:29.000Z</time>
      </trkpt>
      <trkpt lat="41.329283" lon="1.996167">
        <ele>59.9</ele>
        <time>1970-01-01T00:16:30.000Z</time>
      </trkpt>
      <trkpt lat="41.329283" lon="1.996167">
        <ele>59.9</ele>
        <time>1970-01-01T00:16:31.000Z</time>
      </trkpt>
      <trkpt lat="41.329233" lon="1.99613">
        <ele>59.9</ele>
        <time>1970-01-01T00:16:32.000Z</time>
      </trkpt>
      <trkpt lat="41.329233" lon="1.99613">
        <ele>59.9</ele>
        <time>1970-01-01T00:16:33.000Z</time>
      </trkpt>
      <trkpt lat="41.329188" lon="1.996093">
        <ele>59.9</ele>
        <time>1970-01-01T00:16:34.000Z</time>
      </trkpt>
      <trkpt lat="41.329163" lon="1.996075">
        <ele>59.9</ele>
        <time>1970-01-01T00:16:35.000Z</time>
      </trkpt>
      <trkpt lat="41.329163" lon="1.996075">
        <ele>60.9</ele>
        <time>1970-01-01T00:16:36.000Z</time>
      </trkpt>
      <trkpt lat="41.329127" lon="1.996038">
        <ele>60.9</ele>
        <time>1970-01-01T00:16:37.000Z</time>
      </trkpt>
      <trkpt lat="41.329127" lon="1.996038">
        <ele>60.9</ele>
        <time>1970-01-01T00:16:38.000Z</time>
      </trkpt>
      <trkpt lat="41.329088" lon="1.995992">
        <ele>60.9</ele>
        <time>1970-01-01T00:16:39.000Z</time>
      </trkpt>
      <trkpt lat="41.329088" lon="1.995992">
        <ele>60.9</ele>
        <time>1970-01-01T00:16:40.000Z</time>
      </trkpt>
      <trkpt lat="41.329047" lon="1.995925">
        <ele>60.9</ele>
        <time>1970-01-01T00:16:41.000Z</time>
      </trkpt>
      <trkpt lat="41.329047" lon="1.995925">
        <ele>61.9</ele>
        <time>1970-01-01T00:16:42.000Z</time>
      </trkpt>
      <trkpt lat="41.329008" lon="1.995853">
        <ele>61.9</ele>
        <time>1970-01-01T00:16:43.000Z</time>
      </trkpt>
      <trkpt lat="41.329008" lon="1.995853">
        <ele>61.9</ele>
        <time>1970-01-01T00:16:44.000Z</time>
      </trkpt>
      <trkpt lat="41.32897" lon="1.995777">
        <ele>61.9</ele>
        <time>1970-01-01T00:16:45.000Z</time>
      </trkpt>
      <trkpt lat="41.32897" lon="1.995777">
        <ele>61.9</ele>
        <time>1970-01-01T00:16:46.000Z</time>
      </trkpt>
      <trkpt lat="41.328943" lon="1.995692">
        <ele>61.9</ele>
        <time>1970-01-01T00:16:47.000Z</time>
      </trkpt>
      <trkpt lat="41.328943" lon="1.995692">
        <ele>61.9</ele>
        <time>1970-01-01T00:16:48.000Z</time>
      </trkpt>
      <trkpt lat="41.328925" lon="1.995597">
        <ele>61.9</ele>
        <time>1970-01-01T00:16:49.000Z</time>
      </trkpt>
      <trkpt lat="41.328923" lon="1.995545">
        <ele>61.9</ele>
        <time>1970-01-01T00:16:50.000Z</time>
      </trkpt>
      <trkpt lat="41.328923" lon="1.995545">
        <ele>61.9</ele>
        <time>1970-01-01T00:16:51.000Z</time>
      </trkpt>
      <trkpt lat="41.328933" lon="1.995452">
        <ele>61.9</ele>
        <time>1970-01-01T00:16:52.000Z</time>
      </trkpt>
      <trkpt lat="41.328933" lon="1.995452">
        <ele>61.9</ele>
        <time>1970-01-01T00:16:53.000Z</time>
      </trkpt>
      <trkpt lat="41.32896" lon="1.995348">
        <ele>61.9</ele>
        <time>1970-01-01T00:16:54.000Z</time>
      </trkpt>
      <trkpt lat="41.328982" lon="1.995295">
        <ele>61.9</ele>
        <time>1970-01-01T00:16:55.000Z</time>
      </trkpt>
      <trkpt lat="41.328982" lon="1.995295">
        <ele>61.9</ele>
        <time>1970-01-01T00:16:56.000Z</time>
      </trkpt>
      <trkpt lat="41.329052" lon="1.995193">
        <ele>61.9</ele>
        <time>1970-01-01T00:16:57.000Z</time>
      </trkpt>
      <trkpt lat="41.329052" lon="1.995193">
        <ele>61.9</ele>
        <time>1970-01-01T00:16:58.000Z</time>
      </trkpt>
      <trkpt lat="41.329153" lon="1.995112">
        <ele>61.9</ele>
        <time>1970-01-01T00:16:59.000Z</time>
      </trkpt>
      <trkpt lat="41.329212" lon="1.995078">
        <ele>59.9</ele>
        <time>1970-01-01T00:17:00.000Z</time>
      </trkpt>
      <trkpt lat="41.329212" lon="1.995078">
        <ele>59.9</ele>
        <time>1970-01-01T00:17:01.000Z</time>
      </trkpt>
      <trkpt lat="41.329333" lon="1.995032">
        <ele>59.9</ele>
        <time>1970-01-01T00:17:02.000Z</time>
      </trkpt>
      <trkpt lat="41.329333" lon="1.995032">
        <ele>58.9</ele>
        <time>1970-01-01T00:17:03.000Z</time>
      </trkpt>
      <trkpt lat="41.329438" lon="1.994935">
        <ele>58.9</ele>
        <time>1970-01-01T00:17:04.000Z</time>
      </trkpt>
      <trkpt lat="41.329438" lon="1.994935">
        <ele>57.9</ele>
        <time>1970-01-01T00:17:05.000Z</time>
      </trkpt>
      <trkpt lat="41.329515" lon="1.99482">
        <ele>57.9</ele>
        <time>1970-01-01T00:17:06.000Z</time>
      </trkpt>
      <trkpt lat="41.329515" lon="1.99482">
        <ele>57.9</ele>
        <time>1970-01-01T00:17:07.000Z</time>
      </trkpt>
      <trkpt lat="41.329545" lon="1.994723">
        <ele>57.9</ele>
        <time>1970-01-01T00:17:08.000Z</time>
      </trkpt>
      <trkpt lat="41.329545" lon="1.994723">
        <ele>57.9</ele>
        <time>1970-01-01T00:17:09.000Z</time>
      </trkpt>
      <trkpt lat="41.329542" lon="1.99463">
        <ele>57.9</ele>
        <time>1970-01-01T00:17:10.000Z</time>
      </trkpt>
      <trkpt lat="41.329542" lon="1.99463">
        <ele>58.9</ele>
        <time>1970-01-01T00:17:11.000Z</time>
      </trkpt>
      <trkpt lat="41.329523" lon="1.994538">
        <ele>58.9</ele>
        <time>1970-01-01T00:17:12.000Z</time>
      </trkpt>
      <trkpt lat="41.329523" lon="1.994538">
        <ele>58.9</ele>
        <time>1970-01-01T00:17:13.000Z</time>
      </trkpt>
      <trkpt lat="41.3295" lon="1.994457">
        <ele>58.9</ele>
        <time>1970-01-01T00:17:14.000Z</time>
      </trkpt>
      <trkpt lat="41.3295" lon="1.994457">
        <ele>58.9</ele>
        <time>1970-01-01T00:17:15.000Z</time>
      </trkpt>
      <trkpt lat="41.329463" lon="1.994382">
        <ele>58.9</ele>
        <time>1970-01-01T00:17:16.000Z</time>
      </trkpt>
      <trkpt lat="41.329463" lon="1.994382">
        <ele>58.9</ele>
        <time>1970-01-01T00:17:17.000Z</time>
      </trkpt>
      <trkpt lat="41.329422" lon="1.994315">
        <ele>58.9</ele>
        <time>1970-01-01T00:17:18.000Z</time>
      </trkpt>
      <trkpt lat="41.329422" lon="1.994315">
        <ele>59.9</ele>
        <time>1970-01-01T00:17:19.000Z</time>
      </trkpt>
      <trkpt lat="41.329368" lon="1.994252">
        <ele>59.9</ele>
        <time>1970-01-01T00:17:20.000Z</time>
      </trkpt>
      <trkpt lat="41.329368" lon="1.994252">
        <ele>59.9</ele>
        <time>1970-01-01T00:17:21.000Z</time>
      </trkpt>
      <trkpt lat="41.329313" lon="1.994197">
        <ele>59.9</ele>
        <time>1970-01-01T00:17:22.000Z</time>
      </trkpt>
      <trkpt lat="41.329313" lon="1.994197">
        <ele>59.9</ele>
        <time>1970-01-01T00:17:23.000Z</time>
      </trkpt>
      <trkpt lat="41.329252" lon="1.994155">
        <ele>59.9</ele>
        <time>1970-01-01T00:17:24.000Z</time>
      </trkpt>
      <trkpt lat="41.329222" lon="1.994132">
        <ele>59.9</ele>
        <time>1970-01-01T00:17:25.000Z</time>
      </trkpt>
      <trkpt lat="41.329188" lon="1.994108">
        <ele>59.9</ele>
        <time>1970-01-01T00:17:26.000Z</time>
      </trkpt>
      <trkpt lat="41.329188" lon="1.994108">
        <ele>59.9</ele>
        <time>1970-01-01T00:17:27.000Z</time>
      </trkpt>
      <trkpt lat="41.329128" lon="1.994063">
        <ele>59.9</ele>
        <time>1970-01-01T00:17:28.000Z</time>
      </trkpt>
      <trkpt lat="41.329128" lon="1.994063">
        <ele>59.9</ele>
        <time>1970-01-01T00:17:29.000Z</time>
      </trkpt>
      <trkpt lat="41.329072" lon="1.99402">
        <ele>59.9</ele>
        <time>1970-01-01T00:17:30.000Z</time>
      </trkpt>
      <trkpt lat="41.329043" lon="1.993998">
        <ele>59.9</ele>
        <time>1970-01-01T00:17:31.000Z</time>
      </trkpt>
      <trkpt lat="41.329017" lon="1.993975">
        <ele>59.9</ele>
        <time>1970-01-01T00:17:32.000Z</time>
      </trkpt>
      <trkpt lat="41.329017" lon="1.993975">
        <ele>60.9</ele>
        <time>1970-01-01T00:17:33.000Z</time>
      </trkpt>
      <trkpt lat="41.328962" lon="1.993942">
        <ele>60.9</ele>
        <time>1970-01-01T00:17:34.000Z</time>
      </trkpt>
      <trkpt lat="41.328962" lon="1.993942">
        <ele>60.9</ele>
        <time>1970-01-01T00:17:35.000Z</time>
      </trkpt>
      <trkpt lat="41.328902" lon="1.993918">
        <ele>60.9</ele>
        <time>1970-01-01T00:17:36.000Z</time>
      </trkpt>
      <trkpt lat="41.328902" lon="1.993918">
        <ele>60.9</ele>
        <time>1970-01-01T00:17:37.000Z</time>
      </trkpt>
      <trkpt lat="41.328837" lon="1.993895">
        <ele>60.9</ele>
        <time>1970-01-01T00:17:38.000Z</time>
      </trkpt>
      <trkpt lat="41.328837" lon="1.993895">
        <ele>61.9</ele>
        <time>1970-01-01T00:17:39.000Z</time>
      </trkpt>
      <trkpt lat="41.328782" lon="1.993863">
        <ele>61.9</ele>
        <time>1970-01-01T00:17:40.000Z</time>
      </trkpt>
      <trkpt lat="41.328782" lon="1.993863">
        <ele>61.9</ele>
        <time>1970-01-01T00:17:41.000Z</time>
      </trkpt>
      <trkpt lat="41.328728" lon="1.993827">
        <ele>61.9</ele>
        <time>1970-01-01T00:17:42.000Z</time>
      </trkpt>
      <trkpt lat="41.328702" lon="1.993803">
        <ele>62.9</ele>
        <time>1970-01-01T00:17:43.000Z</time>
      </trkpt>
      <trkpt lat="41.328677" lon="1.993778">
        <ele>62.9</ele>
        <time>1970-01-01T00:17:44.000Z</time>
      </trkpt>
      <trkpt lat="41.328677" lon="1.993778">
        <ele>62.9</ele>
        <time>1970-01-01T00:17:45.000Z</time>
      </trkpt>
      <trkpt lat="41.328645" lon="1.993725">
        <ele>62.9</ele>
        <time>1970-01-01T00:17:46.000Z</time>
      </trkpt>
      <trkpt lat="41.328633" lon="1.99369">
        <ele>62.9</ele>
        <time>1970-01-01T00:17:47.000Z</time>
      </trkpt>
      <trkpt lat="41.328623" lon="1.99365">
        <ele>62.9</ele>
        <time>1970-01-01T00:17:48.000Z</time>
      </trkpt>
      <trkpt lat="41.328623" lon="1.99365">
        <ele>62.9</ele>
        <time>1970-01-01T00:17:49.000Z</time>
      </trkpt>
      <trkpt lat="41.328608" lon="1.993557">
        <ele>62.9</ele>
        <time>1970-01-01T00:17:50.000Z</time>
      </trkpt>
      <trkpt lat="41.328608" lon="1.993557">
        <ele>62.9</ele>
        <time>1970-01-01T00:17:51.000Z</time>
      </trkpt>
      <trkpt lat="41.328592" lon="1.993473">
        <ele>62.9</ele>
        <time>1970-01-01T00:17:52.000Z</time>
      </trkpt>
      <trkpt lat="41.328585" lon="1.993435">
        <ele>62.9</ele>
        <time>1970-01-01T00:17:53.000Z</time>
      </trkpt>
      <trkpt lat="41.328585" lon="1.993435">
        <ele>62.9</ele>
        <time>1970-01-01T00:17:54.000Z</time>
      </trkpt>
      <trkpt lat="41.328565" lon="1.993347">
        <ele>62.9</ele>
        <time>1970-01-01T00:17:55.000Z</time>
      </trkpt>
      <trkpt lat="41.328565" lon="1.993347">
        <ele>62.9</ele>
        <time>1970-01-01T00:17:56.000Z</time>
      </trkpt>
      <trkpt lat="41.328562" lon="1.993248">
        <ele>62.9</ele>
        <time>1970-01-01T00:17:57.000Z</time>
      </trkpt>
      <trkpt lat="41.328555" lon="1.993197">
        <ele>63.9</ele>
        <time>1970-01-01T00:17:58.000Z</time>
      </trkpt>
      <trkpt lat="41.328555" lon="1.993197">
        <ele>63.9</ele>
        <time>1970-01-01T00:17:59.000Z</time>
      </trkpt>
      <trkpt lat="41.328547" lon="1.993097">
        <ele>63.9</ele>
        <time>1970-01-01T00:18:00.000Z</time>
      </trkpt>
      <trkpt lat="41.328547" lon="1.993097">
        <ele>63.9</ele>
        <time>1970-01-01T00:18:01.000Z</time>
      </trkpt>
      <trkpt lat="41.328557" lon="1.992988">
        <ele>63.9</ele>
        <time>1970-01-01T00:18:02.000Z</time>
      </trkpt>
      <trkpt lat="41.328557" lon="1.992988">
        <ele>63.9</ele>
        <time>1970-01-01T00:18:03.000Z</time>
      </trkpt>
      <trkpt lat="41.32857" lon="1.99288">
        <ele>63.9</ele>
        <time>1970-01-01T00:18:04.000Z</time>
      </trkpt>
      <trkpt lat="41.328577" lon="1.992823">
        <ele>63.9</ele>
        <time>1970-01-01T00:18:05.000Z</time>
      </trkpt>
      <trkpt lat="41.328577" lon="1.992823">
        <ele>63.9</ele>
        <time>1970-01-01T00:18:06.000Z</time>
      </trkpt>
      <trkpt lat="41.328587" lon="1.99272">
        <ele>63.9</ele>
        <time>1970-01-01T00:18:07.000Z</time>
      </trkpt>
      <trkpt lat="41.32859" lon="1.992667">
        <ele>63.9</ele>
        <time>1970-01-01T00:18:08.000Z</time>
      </trkpt>
      <trkpt lat="41.32859" lon="1.992667">
        <ele>63.9</ele>
        <time>1970-01-01T00:18:09.000Z</time>
      </trkpt>
      <trkpt lat="41.328588" lon="1.992568">
        <ele>63.9</ele>
        <time>1970-01-01T00:18:10.000Z</time>
      </trkpt>
      <trkpt lat="41.328588" lon="1.992568">
        <ele>63.9</ele>
        <time>1970-01-01T00:18:11.000Z</time>
      </trkpt>
      <trkpt lat="41.328585" lon="1.992465">
        <ele>63.9</ele>
        <time>1970-01-01T00:18:12.000Z</time>
      </trkpt>
      <trkpt lat="41.328585" lon="1.992465">
        <ele>63.9</ele>
        <time>1970-01-01T00:18:13.000Z</time>
      </trkpt>
      <trkpt lat="41.328575" lon="1.992367">
        <ele>63.9</ele>
        <time>1970-01-01T00:18:14.000Z</time>
      </trkpt>
      <trkpt lat="41.328575" lon="1.992367">
        <ele>63.9</ele>
        <time>1970-01-01T00:18:15.000Z</time>
      </trkpt>
      <trkpt lat="41.328558" lon="1.992275">
        <ele>63.9</ele>
        <time>1970-01-01T00:18:16.000Z</time>
      </trkpt>
      <trkpt lat="41.328553" lon="1.992228">
        <ele>63.9</ele>
        <time>1970-01-01T00:18:17.000Z</time>
      </trkpt>
      <trkpt lat="41.328553" lon="1.992178">
        <ele>63.9</ele>
        <time>1970-01-01T00:18:18.000Z</time>
      </trkpt>
      <trkpt lat="41.328553" lon="1.992178">
        <ele>63.9</ele>
        <time>1970-01-01T00:18:19.000Z</time>
      </trkpt>
      <trkpt lat="41.328557" lon="1.992088">
        <ele>63.9</ele>
        <time>1970-01-01T00:18:20.000Z</time>
      </trkpt>
      <trkpt lat="41.328557" lon="1.992088">
        <ele>63.9</ele>
        <time>1970-01-01T00:18:21.000Z</time>
      </trkpt>
      <trkpt lat="41.32856" lon="1.991997">
        <ele>63.9</ele>
        <time>1970-01-01T00:18:22.000Z</time>
      </trkpt>
      <trkpt lat="41.32856" lon="1.991953">
        <ele>64.9</ele>
        <time>1970-01-01T00:18:23.000Z</time>
      </trkpt>
      <trkpt lat="41.32856" lon="1.991953">
        <ele>64.9</ele>
        <time>1970-01-01T00:18:24.000Z</time>
      </trkpt>
      <trkpt lat="41.328548" lon="1.991878">
        <ele>64.9</ele>
        <time>1970-01-01T00:18:25.000Z</time>
      </trkpt>
      <trkpt lat="41.32854" lon="1.991842">
        <ele>64.9</ele>
        <time>1970-01-01T00:18:26.000Z</time>
      </trkpt>
      <trkpt lat="41.32854" lon="1.991842">
        <ele>64.9</ele>
        <time>1970-01-01T00:18:27.000Z</time>
      </trkpt>
      <trkpt lat="41.328545" lon="1.991785">
        <ele>64.9</ele>
        <time>1970-01-01T00:18:28.000Z</time>
      </trkpt>
      <trkpt lat="41.328545" lon="1.991785">
        <ele>65.9</ele>
        <time>1970-01-01T00:18:29.000Z</time>
      </trkpt>
      <trkpt lat="41.328553" lon="1.991727">
        <ele>65.9</ele>
        <time>1970-01-01T00:18:30.000Z</time>
      </trkpt>
      <trkpt lat="41.328562" lon="1.991695">
        <ele>65.9</ele>
        <time>1970-01-01T00:18:31.000Z</time>
      </trkpt>
      <trkpt lat="41.328562" lon="1.991695">
        <ele>66.9</ele>
        <time>1970-01-01T00:18:32.000Z</time>
      </trkpt>
      <trkpt lat="41.328575" lon="1.991642">
        <ele>66.9</ele>
        <time>1970-01-01T00:18:33.000Z</time>
      </trkpt>
      <trkpt lat="41.328575" lon="1.991642">
        <ele>67.9</ele>
        <time>1970-01-01T00:18:34.000Z</time>
      </trkpt>
      <trkpt lat="41.32858" lon="1.991583">
        <ele>67.9</ele>
        <time>1970-01-01T00:18:35.000Z</time>
      </trkpt>
      <trkpt lat="41.32858" lon="1.991583">
        <ele>68.9</ele>
        <time>1970-01-01T00:18:36.000Z</time>
      </trkpt>
      <trkpt lat="41.328582" lon="1.991525">
        <ele>68.9</ele>
        <time>1970-01-01T00:18:37.000Z</time>
      </trkpt>
      <trkpt lat="41.328583" lon="1.991498">
        <ele>68.9</ele>
        <time>1970-01-01T00:18:38.000Z</time>
      </trkpt>
      <trkpt lat="41.328583" lon="1.991498">
        <ele>68.9</ele>
        <time>1970-01-01T00:18:39.000Z</time>
      </trkpt>
      <trkpt lat="41.328588" lon="1.991442">
        <ele>68.9</ele>
        <time>1970-01-01T00:18:40.000Z</time>
      </trkpt>
      <trkpt lat="41.328588" lon="1.991442">
        <ele>69.9</ele>
        <time>1970-01-01T00:18:41.000Z</time>
      </trkpt>
      <trkpt lat="41.328593" lon="1.991383">
        <ele>69.9</ele>
        <time>1970-01-01T00:18:42.000Z</time>
      </trkpt>
      <trkpt lat="41.328593" lon="1.991383">
        <ele>69.9</ele>
        <time>1970-01-01T00:18:43.000Z</time>
      </trkpt>
      <trkpt lat="41.3286" lon="1.99133">
        <ele>69.9</ele>
        <time>1970-01-01T00:18:44.000Z</time>
      </trkpt>
      <trkpt lat="41.3286" lon="1.99133">
        <ele>69.9</ele>
        <time>1970-01-01T00:18:45.000Z</time>
      </trkpt>
      <trkpt lat="41.328593" lon="1.991285">
        <ele>71.9</ele>
        <time>1970-01-01T00:18:46.000Z</time>
      </trkpt>
      <trkpt lat="41.328593" lon="1.991285">
        <ele>71.9</ele>
        <time>1970-01-01T00:18:47.000Z</time>
      </trkpt>
      <trkpt lat="41.328582" lon="1.99125">
        <ele>71.9</ele>
        <time>1970-01-01T00:18:48.000Z</time>
      </trkpt>
      <trkpt lat="41.328582" lon="1.99125">
        <ele>71.9</ele>
        <time>1970-01-01T00:18:49.000Z</time>
      </trkpt>
      <trkpt lat="41.328577" lon="1.9912">
        <ele>72.9</ele>
        <time>1970-01-01T00:18:50.000Z</time>
      </trkpt>
      <trkpt lat="41.328575" lon="1.991175">
        <ele>72.9</ele>
        <time>1970-01-01T00:18:51.000Z</time>
      </trkpt>
      <trkpt lat="41.328575" lon="1.991175">
        <ele>72.9</ele>
        <time>1970-01-01T00:18:52.000Z</time>
      </trkpt>
      <trkpt lat="41.328565" lon="1.991127">
        <ele>72.9</ele>
        <time>1970-01-01T00:18:53.000Z</time>
      </trkpt>
      <trkpt lat="41.32856" lon="1.991102">
        <ele>73.9</ele>
        <time>1970-01-01T00:18:54.000Z</time>
      </trkpt>
      <trkpt lat="41.32856" lon="1.991102">
        <ele>73.9</ele>
        <time>1970-01-01T00:18:55.000Z</time>
      </trkpt>
      <trkpt lat="41.328548" lon="1.991052">
        <ele>73.9</ele>
        <time>1970-01-01T00:18:56.000Z</time>
      </trkpt>
      <trkpt lat="41.328548" lon="1.991052">
        <ele>73.9</ele>
        <time>1970-01-01T00:18:57.000Z</time>
      </trkpt>
      <trkpt lat="41.32853" lon="1.991012">
        <ele>74.9</ele>
        <time>1970-01-01T00:18:58.000Z</time>
      </trkpt>
      <trkpt lat="41.32853" lon="1.991012">
        <ele>74.9</ele>
        <time>1970-01-01T00:18:59.000Z</time>
      </trkpt>
      <trkpt lat="41.328513" lon="1.990968">
        <ele>74.9</ele>
        <time>1970-01-01T00:19:00.000Z</time>
      </trkpt>
      <trkpt lat="41.328502" lon="1.990947">
        <ele>74.9</ele>
        <time>1970-01-01T00:19:01.000Z</time>
      </trkpt>
      <trkpt lat="41.328485" lon="1.990923">
        <ele>75.9</ele>
        <time>1970-01-01T00:19:02.000Z</time>
      </trkpt>
      <trkpt lat="41.328485" lon="1.990923">
        <ele>75.9</ele>
        <time>1970-01-01T00:19:03.000Z</time>
      </trkpt>
      <trkpt lat="41.328458" lon="1.990877">
        <ele>75.9</ele>
        <time>1970-01-01T00:19:04.000Z</time>
      </trkpt>
      <trkpt lat="41.328458" lon="1.990877">
        <ele>75.9</ele>
        <time>1970-01-01T00:19:05.000Z</time>
      </trkpt>
      <trkpt lat="41.328437" lon="1.990835">
        <ele>76.9</ele>
        <time>1970-01-01T00:19:06.000Z</time>
      </trkpt>
      <trkpt lat="41.328437" lon="1.990835">
        <ele>76.9</ele>
        <time>1970-01-01T00:19:07.000Z</time>
      </trkpt>
      <trkpt lat="41.328403" lon="1.99079">
        <ele>76.9</ele>
        <time>1970-01-01T00:19:08.000Z</time>
      </trkpt>
      <trkpt lat="41.328388" lon="1.99077">
        <ele>76.9</ele>
        <time>1970-01-01T00:19:09.000Z</time>
      </trkpt>
      <trkpt lat="41.328388" lon="1.99077">
        <ele>76.9</ele>
        <time>1970-01-01T00:19:10.000Z</time>
      </trkpt>
      <trkpt lat="41.328365" lon="1.99073">
        <ele>76.9</ele>
        <time>1970-01-01T00:19:11.000Z</time>
      </trkpt>
      <trkpt lat="41.328365" lon="1.99073">
        <ele>77.9</ele>
        <time>1970-01-01T00:19:12.000Z</time>
      </trkpt>
      <trkpt lat="41.328342" lon="1.99068">
        <ele>77.9</ele>
        <time>1970-01-01T00:19:13.000Z</time>
      </trkpt>
      <trkpt lat="41.328332" lon="1.990657">
        <ele>77.9</ele>
        <time>1970-01-01T00:19:14.000Z</time>
      </trkpt>
      <trkpt lat="41.328332" lon="1.990657">
        <ele>77.9</ele>
        <time>1970-01-01T00:19:15.000Z</time>
      </trkpt>
      <trkpt lat="41.328312" lon="1.990617">
        <ele>77.9</ele>
        <time>1970-01-01T00:19:16.000Z</time>
      </trkpt>
      <trkpt lat="41.328307" lon="1.990595">
        <ele>77.9</ele>
        <time>1970-01-01T00:19:17.000Z</time>
      </trkpt>
      <trkpt lat="41.328307" lon="1.990595">
        <ele>78.9</ele>
        <time>1970-01-01T00:19:18.000Z</time>
      </trkpt>
      <trkpt lat="41.328297" lon="1.990543">
        <ele>78.9</ele>
        <time>1970-01-01T00:19:19.000Z</time>
      </trkpt>
      <trkpt lat="41.328293" lon="1.990522">
        <ele>78.9</ele>
        <time>1970-01-01T00:19:20.000Z</time>
      </trkpt>
      <trkpt lat="41.328293" lon="1.990522">
        <ele>78.9</ele>
        <time>1970-01-01T00:19:21.000Z</time>
      </trkpt>
      <trkpt lat="41.328287" lon="1.990473">
        <ele>78.9</ele>
        <time>1970-01-01T00:19:22.000Z</time>
      </trkpt>
      <trkpt lat="41.328287" lon="1.990452">
        <ele>78.9</ele>
        <time>1970-01-01T00:19:23.000Z</time>
      </trkpt>
      <trkpt lat="41.328287" lon="1.990452">
        <ele>78.9</ele>
        <time>1970-01-01T00:19:24.000Z</time>
      </trkpt>
      <trkpt lat="41.328283" lon="1.990413">
        <ele>78.9</ele>
        <time>1970-01-01T00:19:25.000Z</time>
      </trkpt>
      <trkpt lat="41.328282" lon="1.99039">
        <ele>78.9</ele>
        <time>1970-01-01T00:19:26.000Z</time>
      </trkpt>
      <trkpt lat="41.328282" lon="1.99039">
        <ele>79.9</ele>
        <time>1970-01-01T00:19:27.000Z</time>
      </trkpt>
      <trkpt lat="41.328268" lon="1.990323">
        <ele>79.9</ele>
        <time>1970-01-01T00:19:28.000Z</time>
      </trkpt>
      <trkpt lat="41.328265" lon="1.990297">
        <ele>79.9</ele>
        <time>1970-01-01T00:19:29.000Z</time>
      </trkpt>
      <trkpt lat="41.328265" lon="1.990297">
        <ele>79.9</ele>
        <time>1970-01-01T00:19:30.000Z</time>
      </trkpt>
      <trkpt lat="41.328253" lon="1.990253">
        <ele>79.9</ele>
        <time>1970-01-01T00:19:31.000Z</time>
      </trkpt>
      <trkpt lat="41.328252" lon="1.99023">
        <ele>79.9</ele>
        <time>1970-01-01T00:19:32.000Z</time>
      </trkpt>
      <trkpt lat="41.328252" lon="1.99023">
        <ele>79.9</ele>
        <time>1970-01-01T00:19:33.000Z</time>
      </trkpt>
      <trkpt lat="41.328237" lon="1.990182">
        <ele>79.9</ele>
        <time>1970-01-01T00:19:34.000Z</time>
      </trkpt>
      <trkpt lat="41.328237" lon="1.990182">
        <ele>80.9</ele>
        <time>1970-01-01T00:19:35.000Z</time>
      </trkpt>
      <trkpt lat="41.328223" lon="1.990138">
        <ele>80.9</ele>
        <time>1970-01-01T00:19:36.000Z</time>
      </trkpt>
      <trkpt lat="41.328223" lon="1.990138">
        <ele>80.9</ele>
        <time>1970-01-01T00:19:37.000Z</time>
      </trkpt>
      <trkpt lat="41.328202" lon="1.990098">
        <ele>80.9</ele>
        <time>1970-01-01T00:19:38.000Z</time>
      </trkpt>
      <trkpt lat="41.328202" lon="1.990098">
        <ele>81.9</ele>
        <time>1970-01-01T00:19:39.000Z</time>
      </trkpt>
      <trkpt lat="41.32818" lon="1.990053">
        <ele>81.9</ele>
        <time>1970-01-01T00:19:40.000Z</time>
      </trkpt>
      <trkpt lat="41.32818" lon="1.990053">
        <ele>81.9</ele>
        <time>1970-01-01T00:19:41.000Z</time>
      </trkpt>
      <trkpt lat="41.328157" lon="1.990002">
        <ele>81.9</ele>
        <time>1970-01-01T00:19:42.000Z</time>
      </trkpt>
      <trkpt lat="41.328142" lon="1.989977">
        <ele>81.9</ele>
        <time>1970-01-01T00:19:43.000Z</time>
      </trkpt>
      <trkpt lat="41.328142" lon="1.989977">
        <ele>81.9</ele>
        <time>1970-01-01T00:19:44.000Z</time>
      </trkpt>
      <trkpt lat="41.328112" lon="1.98992">
        <ele>82.9</ele>
        <time>1970-01-01T00:19:45.000Z</time>
      </trkpt>
      <trkpt lat="41.328112" lon="1.98992">
        <ele>82.9</ele>
        <time>1970-01-01T00:19:46.000Z</time>
      </trkpt>
      <trkpt lat="41.32809" lon="1.989872">
        <ele>82.9</ele>
        <time>1970-01-01T00:19:47.000Z</time>
      </trkpt>
      <trkpt lat="41.328073" lon="1.98985">
        <ele>82.9</ele>
        <time>1970-01-01T00:19:48.000Z</time>
      </trkpt>
      <trkpt lat="41.328073" lon="1.98985">
        <ele>82.9</ele>
        <time>1970-01-01T00:19:49.000Z</time>
      </trkpt>
      <trkpt lat="41.328035" lon="1.989813">
        <ele>82.9</ele>
        <time>1970-01-01T00:19:50.000Z</time>
      </trkpt>
      <trkpt lat="41.328017" lon="1.989797">
        <ele>82.9</ele>
        <time>1970-01-01T00:19:51.000Z</time>
      </trkpt>
      <trkpt lat="41.328017" lon="1.989797">
        <ele>82.9</ele>
        <time>1970-01-01T00:19:52.000Z</time>
      </trkpt>
      <trkpt lat="41.327987" lon="1.98977">
        <ele>82.9</ele>
        <time>1970-01-01T00:19:53.000Z</time>
      </trkpt>
      <trkpt lat="41.327987" lon="1.98977">
        <ele>82.9</ele>
        <time>1970-01-01T00:19:54.000Z</time>
      </trkpt>
      <trkpt lat="41.327953" lon="1.989748">
        <ele>82.9</ele>
        <time>1970-01-01T00:19:55.000Z</time>
      </trkpt>
      <trkpt lat="41.327935" lon="1.989737">
        <ele>82.9</ele>
        <time>1970-01-01T00:19:56.000Z</time>
      </trkpt>
      <trkpt lat="41.327935" lon="1.989737">
        <ele>83.9</ele>
        <time>1970-01-01T00:19:57.000Z</time>
      </trkpt>
      <trkpt lat="41.327897" lon="1.989715">
        <ele>83.9</ele>
        <time>1970-01-01T00:19:58.000Z</time>
      </trkpt>
      <trkpt lat="41.327878" lon="1.989703">
        <ele>83.9</ele>
        <time>1970-01-01T00:19:59.000Z</time>
      </trkpt>
      <trkpt lat="41.327878" lon="1.989703">
        <ele>83.9</ele>
        <time>1970-01-01T00:20:00.000Z</time>
      </trkpt>
      <trkpt lat="41.327838" lon="1.989687">
        <ele>83.9</ele>
        <time>1970-01-01T00:20:01.000Z</time>
      </trkpt>
      <trkpt lat="41.327838" lon="1.989687">
        <ele>83.9</ele>
        <time>1970-01-01T00:20:02.000Z</time>
      </trkpt>
      <trkpt lat="41.327805" lon="1.989672">
        <ele>83.9</ele>
        <time>1970-01-01T00:20:03.000Z</time>
      </trkpt>
      <trkpt lat="41.327805" lon="1.989672">
        <ele>84.9</ele>
        <time>1970-01-01T00:20:04.000Z</time>
      </trkpt>
      <trkpt lat="41.327763" lon="1.989663">
        <ele>84.9</ele>
        <time>1970-01-01T00:20:05.000Z</time>
      </trkpt>
      <trkpt lat="41.327742" lon="1.989665">
        <ele>84.9</ele>
        <time>1970-01-01T00:20:06.000Z</time>
      </trkpt>
      <trkpt lat="41.327742" lon="1.989665">
        <ele>84.9</ele>
        <time>1970-01-01T00:20:07.000Z</time>
      </trkpt>
      <trkpt lat="41.327703" lon="1.989663">
        <ele>85.9</ele>
        <time>1970-01-01T00:20:08.000Z</time>
      </trkpt>
      <trkpt lat="41.327703" lon="1.989663">
        <ele>85.9</ele>
        <time>1970-01-01T00:20:09.000Z</time>
      </trkpt>
      <trkpt lat="41.327658" lon="1.98966">
        <ele>85.9</ele>
        <time>1970-01-01T00:20:10.000Z</time>
      </trkpt>
      <trkpt lat="41.327635" lon="1.989658">
        <ele>85.9</ele>
        <time>1970-01-01T00:20:11.000Z</time>
      </trkpt>
      <trkpt lat="41.327613" lon="1.989658">
        <ele>86.9</ele>
        <time>1970-01-01T00:20:12.000Z</time>
      </trkpt>
      <trkpt lat="41.327613" lon="1.989658">
        <ele>86.9</ele>
        <time>1970-01-01T00:20:13.000Z</time>
      </trkpt>
      <trkpt lat="41.327568" lon="1.98965">
        <ele>86.9</ele>
        <time>1970-01-01T00:20:14.000Z</time>
      </trkpt>
      <trkpt lat="41.327568" lon="1.98965">
        <ele>86.9</ele>
        <time>1970-01-01T00:20:15.000Z</time>
      </trkpt>
      <trkpt lat="41.32753" lon="1.989635">
        <ele>87.9</ele>
        <time>1970-01-01T00:20:16.000Z</time>
      </trkpt>
      <trkpt lat="41.32753" lon="1.989635">
        <ele>87.9</ele>
        <time>1970-01-01T00:20:17.000Z</time>
      </trkpt>
      <trkpt lat="41.327497" lon="1.989625">
        <ele>87.9</ele>
        <time>1970-01-01T00:20:18.000Z</time>
      </trkpt>
      <trkpt lat="41.327497" lon="1.989625">
        <ele>87.9</ele>
        <time>1970-01-01T00:20:19.000Z</time>
      </trkpt>
      <trkpt lat="41.327453" lon="1.989618">
        <ele>88.9</ele>
        <time>1970-01-01T00:20:20.000Z</time>
      </trkpt>
      <trkpt lat="41.327453" lon="1.989618">
        <ele>88.9</ele>
        <time>1970-01-01T00:20:21.000Z</time>
      </trkpt>
      <trkpt lat="41.327415" lon="1.9896">
        <ele>88.9</ele>
        <time>1970-01-01T00:20:22.000Z</time>
      </trkpt>
      <trkpt lat="41.327415" lon="1.9896">
        <ele>88.9</ele>
        <time>1970-01-01T00:20:23.000Z</time>
      </trkpt>
      <trkpt lat="41.32737" lon="1.989592">
        <ele>89.9</ele>
        <time>1970-01-01T00:20:24.000Z</time>
      </trkpt>
      <trkpt lat="41.32737" lon="1.989592">
        <ele>89.9</ele>
        <time>1970-01-01T00:20:25.000Z</time>
      </trkpt>
      <trkpt lat="41.32733" lon="1.989582">
        <ele>89.9</ele>
        <time>1970-01-01T00:20:26.000Z</time>
      </trkpt>
      <trkpt lat="41.32733" lon="1.989582">
        <ele>89.9</ele>
        <time>1970-01-01T00:20:27.000Z</time>
      </trkpt>
      <trkpt lat="41.327295" lon="1.989568">
        <ele>90.9</ele>
        <time>1970-01-01T00:20:28.000Z</time>
      </trkpt>
      <trkpt lat="41.327295" lon="1.989568">
        <ele>90.9</ele>
        <time>1970-01-01T00:20:29.000Z</time>
      </trkpt>
      <trkpt lat="41.327255" lon="1.989555">
        <ele>91.9</ele>
        <time>1970-01-01T00:20:30.000Z</time>
      </trkpt>
      <trkpt lat="41.327255" lon="1.989555">
        <ele>91.9</ele>
        <time>1970-01-01T00:20:31.000Z</time>
      </trkpt>
      <trkpt lat="41.327217" lon="1.989542">
        <ele>91.9</ele>
        <time>1970-01-01T00:20:32.000Z</time>
      </trkpt>
      <trkpt lat="41.327217" lon="1.989542">
        <ele>91.9</ele>
        <time>1970-01-01T00:20:33.000Z</time>
      </trkpt>
      <trkpt lat="41.327168" lon="1.989533">
        <ele>92.9</ele>
        <time>1970-01-01T00:20:34.000Z</time>
      </trkpt>
      <trkpt lat="41.327168" lon="1.989533">
        <ele>92.9</ele>
        <time>1970-01-01T00:20:35.000Z</time>
      </trkpt>
      <trkpt lat="41.327118" lon="1.989523">
        <ele>92.9</ele>
        <time>1970-01-01T00:20:36.000Z</time>
      </trkpt>
      <trkpt lat="41.327098" lon="1.989517">
        <ele>92.9</ele>
        <time>1970-01-01T00:20:37.000Z</time>
      </trkpt>
      <trkpt lat="41.327098" lon="1.989517">
        <ele>93.9</ele>
        <time>1970-01-01T00:20:38.000Z</time>
      </trkpt>
      <trkpt lat="41.32706" lon="1.989493">
        <ele>93.9</ele>
        <time>1970-01-01T00:20:39.000Z</time>
      </trkpt>
      <trkpt lat="41.32706" lon="1.989493">
        <ele>94.9</ele>
        <time>1970-01-01T00:20:40.000Z</time>
      </trkpt>
      <trkpt lat="41.32702" lon="1.989483">
        <ele>94.9</ele>
        <time>1970-01-01T00:20:41.000Z</time>
      </trkpt>
      <trkpt lat="41.32702" lon="1.989483">
        <ele>94.9</ele>
        <time>1970-01-01T00:20:42.000Z</time>
      </trkpt>
      <trkpt lat="41.326973" lon="1.989483">
        <ele>94.9</ele>
        <time>1970-01-01T00:20:43.000Z</time>
      </trkpt>
      <trkpt lat="41.326945" lon="1.989485">
        <ele>94.9</ele>
        <time>1970-01-01T00:20:44.000Z</time>
      </trkpt>
      <trkpt lat="41.326945" lon="1.989485">
        <ele>94.9</ele>
        <time>1970-01-01T00:20:45.000Z</time>
      </trkpt>
      <trkpt lat="41.326903" lon="1.989485">
        <ele>94.9</ele>
        <time>1970-01-01T00:20:46.000Z</time>
      </trkpt>
      <trkpt lat="41.326885" lon="1.989488">
        <ele>94.9</ele>
        <time>1970-01-01T00:20:47.000Z</time>
      </trkpt>
      <trkpt lat="41.326865" lon="1.989497">
        <ele>94.9</ele>
        <time>1970-01-01T00:20:48.000Z</time>
      </trkpt>
      <trkpt lat="41.326865" lon="1.989497">
        <ele>94.9</ele>
        <time>1970-01-01T00:20:49.000Z</time>
      </trkpt>
      <trkpt lat="41.32681" lon="1.989508">
        <ele>95.9</ele>
        <time>1970-01-01T00:20:50.000Z</time>
      </trkpt>
      <trkpt lat="41.32681" lon="1.989508">
        <ele>95.9</ele>
        <time>1970-01-01T00:20:51.000Z</time>
      </trkpt>
      <trkpt lat="41.326755" lon="1.989522">
        <ele>95.9</ele>
        <time>1970-01-01T00:20:52.000Z</time>
      </trkpt>
      <trkpt lat="41.326728" lon="1.98953">
        <ele>95.9</ele>
        <time>1970-01-01T00:20:53.000Z</time>
      </trkpt>
      <trkpt lat="41.326728" lon="1.98953">
        <ele>95.9</ele>
        <time>1970-01-01T00:20:54.000Z</time>
      </trkpt>
      <trkpt lat="41.32668" lon="1.989555">
        <ele>95.9</ele>
        <time>1970-01-01T00:20:55.000Z</time>
      </trkpt>
      <trkpt lat="41.326658" lon="1.989567">
        <ele>96.9</ele>
        <time>1970-01-01T00:20:56.000Z</time>
      </trkpt>
      <trkpt lat="41.326658" lon="1.989567">
        <ele>96.9</ele>
        <time>1970-01-01T00:20:57.000Z</time>
      </trkpt>
      <trkpt lat="41.326613" lon="1.98959">
        <ele>96.9</ele>
        <time>1970-01-01T00:20:58.000Z</time>
      </trkpt>
      <trkpt lat="41.326613" lon="1.98959">
        <ele>96.9</ele>
        <time>1970-01-01T00:20:59.000Z</time>
      </trkpt>
      <trkpt lat="41.326555" lon="1.989605">
        <ele>96.9</ele>
        <time>1970-01-01T00:21:00.000Z</time>
      </trkpt>
      <trkpt lat="41.326555" lon="1.989605">
        <ele>96.9</ele>
        <time>1970-01-01T00:21:01.000Z</time>
      </trkpt>
      <trkpt lat="41.326498" lon="1.989615">
        <ele>96.9</ele>
        <time>1970-01-01T00:21:02.000Z</time>
      </trkpt>
      <trkpt lat="41.326498" lon="1.989615">
        <ele>96.9</ele>
        <time>1970-01-01T00:21:03.000Z</time>
      </trkpt>
      <trkpt lat="41.326442" lon="1.989628">
        <ele>96.9</ele>
        <time>1970-01-01T00:21:04.000Z</time>
      </trkpt>
      <trkpt lat="41.326417" lon="1.989632">
        <ele>96.9</ele>
        <time>1970-01-01T00:21:05.000Z</time>
      </trkpt>
      <trkpt lat="41.326417" lon="1.989632">
        <ele>96.9</ele>
        <time>1970-01-01T00:21:06.000Z</time>
      </trkpt>
      <trkpt lat="41.326363" lon="1.98964">
        <ele>97.9</ele>
        <time>1970-01-01T00:21:07.000Z</time>
      </trkpt>
      <trkpt lat="41.326335" lon="1.989635">
        <ele>97.9</ele>
        <time>1970-01-01T00:21:08.000Z</time>
      </trkpt>
      <trkpt lat="41.326335" lon="1.989635">
        <ele>97.9</ele>
        <time>1970-01-01T00:21:09.000Z</time>
      </trkpt>
      <trkpt lat="41.326278" lon="1.989635">
        <ele>97.9</ele>
        <time>1970-01-01T00:21:10.000Z</time>
      </trkpt>
      <trkpt lat="41.326278" lon="1.989635">
        <ele>97.9</ele>
        <time>1970-01-01T00:21:11.000Z</time>
      </trkpt>
      <trkpt lat="41.326223" lon="1.989642">
        <ele>97.9</ele>
        <time>1970-01-01T00:21:12.000Z</time>
      </trkpt>
      <trkpt lat="41.326223" lon="1.989642">
        <ele>98.9</ele>
        <time>1970-01-01T00:21:13.000Z</time>
      </trkpt>
      <trkpt lat="41.326172" lon="1.989647">
        <ele>98.9</ele>
        <time>1970-01-01T00:21:14.000Z</time>
      </trkpt>
      <trkpt lat="41.326172" lon="1.989647">
        <ele>98.9</ele>
        <time>1970-01-01T00:21:15.000Z</time>
      </trkpt>
      <trkpt lat="41.326122" lon="1.989645">
        <ele>98.9</ele>
        <time>1970-01-01T00:21:16.000Z</time>
      </trkpt>
      <trkpt lat="41.326122" lon="1.989645">
        <ele>99.9</ele>
        <time>1970-01-01T00:21:17.000Z</time>
      </trkpt>
      <trkpt lat="41.326075" lon="1.989637">
        <ele>99.9</ele>
        <time>1970-01-01T00:21:18.000Z</time>
      </trkpt>
      <trkpt lat="41.326075" lon="1.989637">
        <ele>99.9</ele>
        <time>1970-01-01T00:21:19.000Z</time>
      </trkpt>
      <trkpt lat="41.326015" lon="1.98962">
        <ele>99.9</ele>
        <time>1970-01-01T00:21:20.000Z</time>
      </trkpt>
      <trkpt lat="41.326015" lon="1.98962">
        <ele>100.9</ele>
        <time>1970-01-01T00:21:21.000Z</time>
      </trkpt>
      <trkpt lat="41.325953" lon="1.98961">
        <ele>100.9</ele>
        <time>1970-01-01T00:21:22.000Z</time>
      </trkpt>
      <trkpt lat="41.325923" lon="1.989598">
        <ele>100.9</ele>
        <time>1970-01-01T00:21:23.000Z</time>
      </trkpt>
      <trkpt lat="41.325923" lon="1.989598">
        <ele>100.9</ele>
        <time>1970-01-01T00:21:24.000Z</time>
      </trkpt>
      <trkpt lat="41.325867" lon="1.989568">
        <ele>100.9</ele>
        <time>1970-01-01T00:21:25.000Z</time>
      </trkpt>
      <trkpt lat="41.325867" lon="1.989568">
        <ele>100.9</ele>
        <time>1970-01-01T00:21:26.000Z</time>
      </trkpt>
      <trkpt lat="41.325813" lon="1.989527">
        <ele>101.9</ele>
        <time>1970-01-01T00:21:27.000Z</time>
      </trkpt>
      <trkpt lat="41.325787" lon="1.989505">
        <ele>101.9</ele>
        <time>1970-01-01T00:21:28.000Z</time>
      </trkpt>
      <trkpt lat="41.32576" lon="1.989483">
        <ele>101.9</ele>
        <time>1970-01-01T00:21:29.000Z</time>
      </trkpt>
      <trkpt lat="41.32576" lon="1.989483">
        <ele>101.9</ele>
        <time>1970-01-01T00:21:30.000Z</time>
      </trkpt>
      <trkpt lat="41.325698" lon="1.98946">
        <ele>101.9</ele>
        <time>1970-01-01T00:21:31.000Z</time>
      </trkpt>
      <trkpt lat="41.325665" lon="1.98945">
        <ele>101.9</ele>
        <time>1970-01-01T00:21:32.000Z</time>
      </trkpt>
      <trkpt lat="41.325665" lon="1.98945">
        <ele>101.9</ele>
        <time>1970-01-01T00:21:33.000Z</time>
      </trkpt>
      <trkpt lat="41.325587" lon="1.98943">
        <ele>102.9</ele>
        <time>1970-01-01T00:21:34.000Z</time>
      </trkpt>
      <trkpt lat="41.32555" lon="1.989423">
        <ele>102.9</ele>
        <time>1970-01-01T00:21:35.000Z</time>
      </trkpt>
      <trkpt lat="41.32555" lon="1.989423">
        <ele>102.9</ele>
        <time>1970-01-01T00:21:36.000Z</time>
      </trkpt>
      <trkpt lat="41.325472" lon="1.98941">
        <ele>102.9</ele>
        <time>1970-01-01T00:21:37.000Z</time>
      </trkpt>
      <trkpt lat="41.325435" lon="1.989403">
        <ele>102.9</ele>
        <time>1970-01-01T00:21:38.000Z</time>
      </trkpt>
      <trkpt lat="41.325398" lon="1.989395">
        <ele>102.9</ele>
        <time>1970-01-01T00:21:39.000Z</time>
      </trkpt>
      <trkpt lat="41.325398" lon="1.989395">
        <ele>102.9</ele>
        <time>1970-01-01T00:21:40.000Z</time>
      </trkpt>
      <trkpt lat="41.325323" lon="1.989377">
        <ele>102.9</ele>
        <time>1970-01-01T00:21:41.000Z</time>
      </trkpt>
      <trkpt lat="41.325285" lon="1.989367">
        <ele>102.9</ele>
        <time>1970-01-01T00:21:42.000Z</time>
      </trkpt>
      <trkpt lat="41.325245" lon="1.98936">
        <ele>102.9</ele>
        <time>1970-01-01T00:21:43.000Z</time>
      </trkpt>
      <trkpt lat="41.325245" lon="1.98936">
        <ele>102.9</ele>
        <time>1970-01-01T00:21:44.000Z</time>
      </trkpt>
      <trkpt lat="41.325157" lon="1.989348">
        <ele>102.9</ele>
        <time>1970-01-01T00:21:45.000Z</time>
      </trkpt>
      <trkpt lat="41.325157" lon="1.989348">
        <ele>102.9</ele>
        <time>1970-01-01T00:21:46.000Z</time>
      </trkpt>
      <trkpt lat="41.325062" lon="1.98934">
        <ele>102.9</ele>
        <time>1970-01-01T00:21:47.000Z</time>
      </trkpt>
      <trkpt lat="41.325062" lon="1.98934">
        <ele>101.9</ele>
        <time>1970-01-01T00:21:48.000Z</time>
      </trkpt>
      <trkpt lat="41.32497" lon="1.989357">
        <ele>101.9</ele>
        <time>1970-01-01T00:21:49.000Z</time>
      </trkpt>
      <trkpt lat="41.324925" lon="1.989372">
        <ele>101.9</ele>
        <time>1970-01-01T00:21:50.000Z</time>
      </trkpt>
      <trkpt lat="41.324925" lon="1.989372">
        <ele>101.9</ele>
        <time>1970-01-01T00:21:51.000Z</time>
      </trkpt>
      <trkpt lat="41.324842" lon="1.989398">
        <ele>101.9</ele>
        <time>1970-01-01T00:21:52.000Z</time>
      </trkpt>
      <trkpt lat="41.324805" lon="1.989418">
        <ele>101.9</ele>
        <time>1970-01-01T00:21:53.000Z</time>
      </trkpt>
      <trkpt lat="41.324805" lon="1.989418">
        <ele>101.9</ele>
        <time>1970-01-01T00:21:54.000Z</time>
      </trkpt>
      <trkpt lat="41.32473" lon="1.98948">
        <ele>101.9</ele>
        <time>1970-01-01T00:21:55.000Z</time>
      </trkpt>
      <trkpt lat="41.324695" lon="1.989522">
        <ele>101.9</ele>
        <time>1970-01-01T00:21:56.000Z</time>
      </trkpt>
      <trkpt lat="41.324663" lon="1.98956">
        <ele>101.9</ele>
        <time>1970-01-01T00:21:57.000Z</time>
      </trkpt>
      <trkpt lat="41.324663" lon="1.98956">
        <ele>101.9</ele>
        <time>1970-01-01T00:21:58.000Z</time>
      </trkpt>
      <trkpt lat="41.324597" lon="1.989593">
        <ele>101.9</ele>
        <time>1970-01-01T00:21:59.000Z</time>
      </trkpt>
      <trkpt lat="41.324597" lon="1.989593">
        <ele>101.9</ele>
        <time>1970-01-01T00:22:00.000Z</time>
      </trkpt>
      <trkpt lat="41.324538" lon="1.989545">
        <ele>101.9</ele>
        <time>1970-01-01T00:22:01.000Z</time>
      </trkpt>
      <trkpt lat="41.324538" lon="1.989545">
        <ele>102.9</ele>
        <time>1970-01-01T00:22:02.000Z</time>
      </trkpt>
      <trkpt lat="41.324503" lon="1.98946">
        <ele>102.9</ele>
        <time>1970-01-01T00:22:03.000Z</time>
      </trkpt>
      <trkpt lat="41.324503" lon="1.98946">
        <ele>102.9</ele>
        <time>1970-01-01T00:22:04.000Z</time>
      </trkpt>
      <trkpt lat="41.324477" lon="1.989358">
        <ele>102.9</ele>
        <time>1970-01-01T00:22:05.000Z</time>
      </trkpt>
      <trkpt lat="41.324462" lon="1.989312">
        <ele>102.9</ele>
        <time>1970-01-01T00:22:06.000Z</time>
      </trkpt>
      <trkpt lat="41.324448" lon="1.989273">
        <ele>102.9</ele>
        <time>1970-01-01T00:22:07.000Z</time>
      </trkpt>
      <trkpt lat="41.324432" lon="1.989232">
        <ele>102.9</ele>
        <time>1970-01-01T00:22:08.000Z</time>
      </trkpt>
      <trkpt lat="41.324432" lon="1.989232">
        <ele>102.9</ele>
        <time>1970-01-01T00:22:09.000Z</time>
      </trkpt>
      <trkpt lat="41.324385" lon="1.989158">
        <ele>102.9</ele>
        <time>1970-01-01T00:22:10.000Z</time>
      </trkpt>
      <trkpt lat="41.32436" lon="1.989118">
        <ele>102.9</ele>
        <time>1970-01-01T00:22:11.000Z</time>
      </trkpt>
      <trkpt lat="41.324337" lon="1.989083">
        <ele>102.9</ele>
        <time>1970-01-01T00:22:12.000Z</time>
      </trkpt>
      <trkpt lat="41.324337" lon="1.989083">
        <ele>103.9</ele>
        <time>1970-01-01T00:22:13.000Z</time>
      </trkpt>
      <trkpt lat="41.324297" lon="1.989013">
        <ele>103.9</ele>
        <time>1970-01-01T00:22:14.000Z</time>
      </trkpt>
      <trkpt lat="41.324297" lon="1.989013">
        <ele>103.9</ele>
        <time>1970-01-01T00:22:15.000Z</time>
      </trkpt>
      <trkpt lat="41.324252" lon="1.988958">
        <ele>105.9</ele>
        <time>1970-01-01T00:22:16.000Z</time>
      </trkpt>
      <trkpt lat="41.324252" lon="1.988958">
        <ele>105.9</ele>
        <time>1970-01-01T00:22:17.000Z</time>
      </trkpt>
      <trkpt lat="41.324203" lon="1.988898">
        <ele>105.9</ele>
        <time>1970-01-01T00:22:18.000Z</time>
      </trkpt>
      <trkpt lat="41.324203" lon="1.988898">
        <ele>105.9</ele>
        <time>1970-01-01T00:22:19.000Z</time>
      </trkpt>
      <trkpt lat="41.324148" lon="1.988845">
        <ele>106.9</ele>
        <time>1970-01-01T00:22:20.000Z</time>
      </trkpt>
      <trkpt lat="41.324115" lon="1.988823">
        <ele>106.9</ele>
        <time>1970-01-01T00:22:21.000Z</time>
      </trkpt>
      <trkpt lat="41.324115" lon="1.988823">
        <ele>106.9</ele>
        <time>1970-01-01T00:22:22.000Z</time>
      </trkpt>
      <trkpt lat="41.324048" lon="1.988797">
        <ele>106.9</ele>
        <time>1970-01-01T00:22:23.000Z</time>
      </trkpt>
      <trkpt lat="41.324013" lon="1.988788">
        <ele>106.9</ele>
        <time>1970-01-01T00:22:24.000Z</time>
      </trkpt>
      <trkpt lat="41.324013" lon="1.988788">
        <ele>106.9</ele>
        <time>1970-01-01T00:22:25.000Z</time>
      </trkpt>
      <trkpt lat="41.323948" lon="1.98877">
        <ele>106.9</ele>
        <time>1970-01-01T00:22:26.000Z</time>
      </trkpt>
      <trkpt lat="41.323948" lon="1.98877">
        <ele>106.9</ele>
        <time>1970-01-01T00:22:27.000Z</time>
      </trkpt>
      <trkpt lat="41.32389" lon="1.988748">
        <ele>107.9</ele>
        <time>1970-01-01T00:22:28.000Z</time>
      </trkpt>
      <trkpt lat="41.32389" lon="1.988748">
        <ele>107.9</ele>
        <time>1970-01-01T00:22:29.000Z</time>
      </trkpt>
      <trkpt lat="41.323825" lon="1.988723">
        <ele>107.9</ele>
        <time>1970-01-01T00:22:30.000Z</time>
      </trkpt>
      <trkpt lat="41.323825" lon="1.988723">
        <ele>107.9</ele>
        <time>1970-01-01T00:22:31.000Z</time>
      </trkpt>
      <trkpt lat="41.323762" lon="1.98868">
        <ele>107.9</ele>
        <time>1970-01-01T00:22:32.000Z</time>
      </trkpt>
      <trkpt lat="41.323762" lon="1.98868">
        <ele>107.9</ele>
        <time>1970-01-01T00:22:33.000Z</time>
      </trkpt>
      <trkpt lat="41.323715" lon="1.988618">
        <ele>107.9</ele>
        <time>1970-01-01T00:22:34.000Z</time>
      </trkpt>
      <trkpt lat="41.323715" lon="1.988618">
        <ele>107.9</ele>
        <time>1970-01-01T00:22:35.000Z</time>
      </trkpt>
      <trkpt lat="41.323668" lon="1.988553">
        <ele>108.9</ele>
        <time>1970-01-01T00:22:36.000Z</time>
      </trkpt>
      <trkpt lat="41.323647" lon="1.988518">
        <ele>108.9</ele>
        <time>1970-01-01T00:22:37.000Z</time>
      </trkpt>
      <trkpt lat="41.323647" lon="1.988518">
        <ele>108.9</ele>
        <time>1970-01-01T00:22:38.000Z</time>
      </trkpt>
      <trkpt lat="41.32361" lon="1.988448">
        <ele>108.9</ele>
        <time>1970-01-01T00:22:39.000Z</time>
      </trkpt>
      <trkpt lat="41.32361" lon="1.988448">
        <ele>108.9</ele>
        <time>1970-01-01T00:22:40.000Z</time>
      </trkpt>
      <trkpt lat="41.32358" lon="1.988368">
        <ele>108.9</ele>
        <time>1970-01-01T00:22:41.000Z</time>
      </trkpt>
      <trkpt lat="41.32358" lon="1.988368">
        <ele>108.9</ele>
        <time>1970-01-01T00:22:42.000Z</time>
      </trkpt>
      <trkpt lat="41.32355" lon="1.988293">
        <ele>108.9</ele>
        <time>1970-01-01T00:22:43.000Z</time>
      </trkpt>
      <trkpt lat="41.32355" lon="1.988293">
        <ele>108.9</ele>
        <time>1970-01-01T00:22:44.000Z</time>
      </trkpt>
      <trkpt lat="41.323523" lon="1.988222">
        <ele>108.9</ele>
        <time>1970-01-01T00:22:45.000Z</time>
      </trkpt>
      <trkpt lat="41.323523" lon="1.988222">
        <ele>109.9</ele>
        <time>1970-01-01T00:22:46.000Z</time>
      </trkpt>
      <trkpt lat="41.323493" lon="1.988142">
        <ele>109.9</ele>
        <time>1970-01-01T00:22:47.000Z</time>
      </trkpt>
      <trkpt lat="41.323493" lon="1.988142">
        <ele>109.9</ele>
        <time>1970-01-01T00:22:48.000Z</time>
      </trkpt>
      <trkpt lat="41.323468" lon="1.98806">
        <ele>109.9</ele>
        <time>1970-01-01T00:22:49.000Z</time>
      </trkpt>
      <trkpt lat="41.323455" lon="1.988023">
        <ele>109.9</ele>
        <time>1970-01-01T00:22:50.000Z</time>
      </trkpt>
      <trkpt lat="41.323455" lon="1.988023">
        <ele>109.9</ele>
        <time>1970-01-01T00:22:51.000Z</time>
      </trkpt>
      <trkpt lat="41.323418" lon="1.987948">
        <ele>110.9</ele>
        <time>1970-01-01T00:22:52.000Z</time>
      </trkpt>
      <trkpt lat="41.323418" lon="1.987948">
        <ele>110.9</ele>
        <time>1970-01-01T00:22:53.000Z</time>
      </trkpt>
      <trkpt lat="41.32338" lon="1.987882">
        <ele>110.9</ele>
        <time>1970-01-01T00:22:54.000Z</time>
      </trkpt>
      <trkpt lat="41.323362" lon="1.987853">
        <ele>110.9</ele>
        <time>1970-01-01T00:22:55.000Z</time>
      </trkpt>
      <trkpt lat="41.323362" lon="1.987853">
        <ele>111.9</ele>
        <time>1970-01-01T00:22:56.000Z</time>
      </trkpt>
      <trkpt lat="41.323328" lon="1.987788">
        <ele>111.9</ele>
        <time>1970-01-01T00:22:57.000Z</time>
      </trkpt>
      <trkpt lat="41.323328" lon="1.987788">
        <ele>111.9</ele>
        <time>1970-01-01T00:22:58.000Z</time>
      </trkpt>
      <trkpt lat="41.323295" lon="1.987722">
        <ele>111.9</ele>
        <time>1970-01-01T00:22:59.000Z</time>
      </trkpt>
      <trkpt lat="41.323282" lon="1.98769">
        <ele>111.9</ele>
        <time>1970-01-01T00:23:00.000Z</time>
      </trkpt>
      <trkpt lat="41.323282" lon="1.98769">
        <ele>112.9</ele>
        <time>1970-01-01T00:23:01.000Z</time>
      </trkpt>
      <trkpt lat="41.323253" lon="1.987627">
        <ele>113.9</ele>
        <time>1970-01-01T00:23:02.000Z</time>
      </trkpt>
      <trkpt lat="41.323253" lon="1.987627">
        <ele>113.9</ele>
        <time>1970-01-01T00:23:03.000Z</time>
      </trkpt>
      <trkpt lat="41.32321" lon="1.987565">
        <ele>113.9</ele>
        <time>1970-01-01T00:23:04.000Z</time>
      </trkpt>
      <trkpt lat="41.323193" lon="1.987532">
        <ele>113.9</ele>
        <time>1970-01-01T00:23:05.000Z</time>
      </trkpt>
      <trkpt lat="41.323193" lon="1.987532">
        <ele>114.9</ele>
        <time>1970-01-01T00:23:06.000Z</time>
      </trkpt>
      <trkpt lat="41.323142" lon="1.987478">
        <ele>114.9</ele>
        <time>1970-01-01T00:23:07.000Z</time>
      </trkpt>
      <trkpt lat="41.323122" lon="1.98745">
        <ele>114.9</ele>
        <time>1970-01-01T00:23:08.000Z</time>
      </trkpt>
      <trkpt lat="41.323122" lon="1.98745">
        <ele>114.9</ele>
        <time>1970-01-01T00:23:09.000Z</time>
      </trkpt>
      <trkpt lat="41.323082" lon="1.987388">
        <ele>115.9</ele>
        <time>1970-01-01T00:23:10.000Z</time>
      </trkpt>
      <trkpt lat="41.323082" lon="1.987388">
        <ele>115.9</ele>
        <time>1970-01-01T00:23:11.000Z</time>
      </trkpt>
      <trkpt lat="41.323057" lon="1.987312">
        <ele>115.9</ele>
        <time>1970-01-01T00:23:12.000Z</time>
      </trkpt>
      <trkpt lat="41.323045" lon="1.987273">
        <ele>115.9</ele>
        <time>1970-01-01T00:23:13.000Z</time>
      </trkpt>
      <trkpt lat="41.323045" lon="1.987273">
        <ele>115.9</ele>
        <time>1970-01-01T00:23:14.000Z</time>
      </trkpt>
      <trkpt lat="41.323032" lon="1.987187">
        <ele>115.9</ele>
        <time>1970-01-01T00:23:15.000Z</time>
      </trkpt>
      <trkpt lat="41.323032" lon="1.987187">
        <ele>115.9</ele>
        <time>1970-01-01T00:23:16.000Z</time>
      </trkpt>
      <trkpt lat="41.323015" lon="1.987098">
        <ele>115.9</ele>
        <time>1970-01-01T00:23:17.000Z</time>
      </trkpt>
      <trkpt lat="41.323003" lon="1.987053">
        <ele>115.9</ele>
        <time>1970-01-01T00:23:18.000Z</time>
      </trkpt>
      <trkpt lat="41.322988" lon="1.987012">
        <ele>115.9</ele>
        <time>1970-01-01T00:23:19.000Z</time>
      </trkpt>
      <trkpt lat="41.322988" lon="1.987012">
        <ele>116.9</ele>
        <time>1970-01-01T00:23:20.000Z</time>
      </trkpt>
      <trkpt lat="41.322958" lon="1.98693">
        <ele>116.9</ele>
        <time>1970-01-01T00:23:21.000Z</time>
      </trkpt>
      <trkpt lat="41.32294" lon="1.986893">
        <ele>116.9</ele>
        <time>1970-01-01T00:23:22.000Z</time>
      </trkpt>
      <trkpt lat="41.32294" lon="1.986893">
        <ele>116.9</ele>
        <time>1970-01-01T00:23:23.000Z</time>
      </trkpt>
      <trkpt lat="41.322893" lon="1.986828">
        <ele>116.9</ele>
        <time>1970-01-01T00:23:24.000Z</time>
      </trkpt>
      <trkpt lat="41.322893" lon="1.986828">
        <ele>116.9</ele>
        <time>1970-01-01T00:23:25.000Z</time>
      </trkpt>
      <trkpt lat="41.322845" lon="1.986765">
        <ele>117.9</ele>
        <time>1970-01-01T00:23:26.000Z</time>
      </trkpt>
      <trkpt lat="41.322845" lon="1.986765">
        <ele>117.9</ele>
        <time>1970-01-01T00:23:27.000Z</time>
      </trkpt>
      <trkpt lat="41.322798" lon="1.986713">
        <ele>117.9</ele>
        <time>1970-01-01T00:23:28.000Z</time>
      </trkpt>
      <trkpt lat="41.322775" lon="1.986692">
        <ele>117.9</ele>
        <time>1970-01-01T00:23:29.000Z</time>
      </trkpt>
      <trkpt lat="41.322775" lon="1.986692">
        <ele>117.9</ele>
        <time>1970-01-01T00:23:30.000Z</time>
      </trkpt>
      <trkpt lat="41.322725" lon="1.986652">
        <ele>117.9</ele>
        <time>1970-01-01T00:23:31.000Z</time>
      </trkpt>
      <trkpt lat="41.322725" lon="1.986652">
        <ele>118.9</ele>
        <time>1970-01-01T00:23:32.000Z</time>
      </trkpt>
      <trkpt lat="41.322677" lon="1.986607">
        <ele>118.9</ele>
        <time>1970-01-01T00:23:33.000Z</time>
      </trkpt>
      <trkpt lat="41.322677" lon="1.986607">
        <ele>118.9</ele>
        <time>1970-01-01T00:23:34.000Z</time>
      </trkpt>
      <trkpt lat="41.322633" lon="1.986548">
        <ele>118.9</ele>
        <time>1970-01-01T00:23:35.000Z</time>
      </trkpt>
      <trkpt lat="41.322633" lon="1.986548">
        <ele>119.9</ele>
        <time>1970-01-01T00:23:36.000Z</time>
      </trkpt>
      <trkpt lat="41.322597" lon="1.986488">
        <ele>119.9</ele>
        <time>1970-01-01T00:23:37.000Z</time>
      </trkpt>
      <trkpt lat="41.322597" lon="1.986488">
        <ele>119.9</ele>
        <time>1970-01-01T00:23:38.000Z</time>
      </trkpt>
      <trkpt lat="41.322588" lon="1.986412">
        <ele>119.9</ele>
        <time>1970-01-01T00:23:39.000Z</time>
      </trkpt>
      <trkpt lat="41.322588" lon="1.986412">
        <ele>119.9</ele>
        <time>1970-01-01T00:23:40.000Z</time>
      </trkpt>
      <trkpt lat="41.322585" lon="1.986327">
        <ele>119.9</ele>
        <time>1970-01-01T00:23:41.000Z</time>
      </trkpt>
      <trkpt lat="41.322585" lon="1.986327">
        <ele>120.9</ele>
        <time>1970-01-01T00:23:42.000Z</time>
      </trkpt>
      <trkpt lat="41.32258" lon="1.986237">
        <ele>120.9</ele>
        <time>1970-01-01T00:23:43.000Z</time>
      </trkpt>
      <trkpt lat="41.322573" lon="1.986192">
        <ele>120.9</ele>
        <time>1970-01-01T00:23:44.000Z</time>
      </trkpt>
      <trkpt lat="41.322573" lon="1.986192">
        <ele>121.9</ele>
        <time>1970-01-01T00:23:45.000Z</time>
      </trkpt>
      <trkpt lat="41.322552" lon="1.986112">
        <ele>121.9</ele>
        <time>1970-01-01T00:23:46.000Z</time>
      </trkpt>
      <trkpt lat="41.322552" lon="1.986112">
        <ele>121.9</ele>
        <time>1970-01-01T00:23:47.000Z</time>
      </trkpt>
      <trkpt lat="41.322523" lon="1.98604">
        <ele>121.9</ele>
        <time>1970-01-01T00:23:48.000Z</time>
      </trkpt>
      <trkpt lat="41.322523" lon="1.98604">
        <ele>122.9</ele>
        <time>1970-01-01T00:23:49.000Z</time>
      </trkpt>
      <trkpt lat="41.322498" lon="1.985962">
        <ele>122.9</ele>
        <time>1970-01-01T00:23:50.000Z</time>
      </trkpt>
      <trkpt lat="41.322498" lon="1.985962">
        <ele>122.9</ele>
        <time>1970-01-01T00:23:51.000Z</time>
      </trkpt>
      <trkpt lat="41.322477" lon="1.985888">
        <ele>122.9</ele>
        <time>1970-01-01T00:23:52.000Z</time>
      </trkpt>
      <trkpt lat="41.322477" lon="1.985888">
        <ele>123.9</ele>
        <time>1970-01-01T00:23:53.000Z</time>
      </trkpt>
      <trkpt lat="41.322462" lon="1.98582">
        <ele>123.9</ele>
        <time>1970-01-01T00:23:54.000Z</time>
      </trkpt>
      <trkpt lat="41.322462" lon="1.98582">
        <ele>123.9</ele>
        <time>1970-01-01T00:23:55.000Z</time>
      </trkpt>
      <trkpt lat="41.322458" lon="1.985755">
        <ele>123.9</ele>
        <time>1970-01-01T00:23:56.000Z</time>
      </trkpt>
      <trkpt lat="41.322458" lon="1.985755">
        <ele>123.9</ele>
        <time>1970-01-01T00:23:57.000Z</time>
      </trkpt>
      <trkpt lat="41.322482" lon="1.985705">
        <ele>123.9</ele>
        <time>1970-01-01T00:23:58.000Z</time>
      </trkpt>
      <trkpt lat="41.322482" lon="1.985705">
        <ele>124.9</ele>
        <time>1970-01-01T00:23:59.000Z</time>
      </trkpt>
      <trkpt lat="41.322518" lon="1.985703">
        <ele>124.9</ele>
        <time>1970-01-01T00:24:00.000Z</time>
      </trkpt>
      <trkpt lat="41.322518" lon="1.985703">
        <ele>125.9</ele>
        <time>1970-01-01T00:24:01.000Z</time>
      </trkpt>
      <trkpt lat="41.322548" lon="1.985733">
        <ele>125.9</ele>
        <time>1970-01-01T00:24:02.000Z</time>
      </trkpt>
      <trkpt lat="41.322548" lon="1.985733">
        <ele>125.9</ele>
        <time>1970-01-01T00:24:03.000Z</time>
      </trkpt>
      <trkpt lat="41.322572" lon="1.985773">
        <ele>125.9</ele>
        <time>1970-01-01T00:24:04.000Z</time>
      </trkpt>
      <trkpt lat="41.322583" lon="1.985793">
        <ele>126.9</ele>
        <time>1970-01-01T00:24:05.000Z</time>
      </trkpt>
      <trkpt lat="41.322583" lon="1.985793">
        <ele>126.9</ele>
        <time>1970-01-01T00:24:06.000Z</time>
      </trkpt>
      <trkpt lat="41.322613" lon="1.985833">
        <ele>126.9</ele>
        <time>1970-01-01T00:24:07.000Z</time>
      </trkpt>
      <trkpt lat="41.322628" lon="1.985853">
        <ele>126.9</ele>
        <time>1970-01-01T00:24:08.000Z</time>
      </trkpt>
      <trkpt lat="41.322628" lon="1.985853">
        <ele>127.9</ele>
        <time>1970-01-01T00:24:09.000Z</time>
      </trkpt>
      <trkpt lat="41.322668" lon="1.985882">
        <ele>127.9</ele>
        <time>1970-01-01T00:24:10.000Z</time>
      </trkpt>
      <trkpt lat="41.322687" lon="1.98589">
        <ele>127.9</ele>
        <time>1970-01-01T00:24:11.000Z</time>
      </trkpt>
      <trkpt lat="41.322687" lon="1.98589">
        <ele>127.9</ele>
        <time>1970-01-01T00:24:12.000Z</time>
      </trkpt>
      <trkpt lat="41.32273" lon="1.985893">
        <ele>128.9</ele>
        <time>1970-01-01T00:24:13.000Z</time>
      </trkpt>
      <trkpt lat="41.32273" lon="1.985893">
        <ele>128.9</ele>
        <time>1970-01-01T00:24:14.000Z</time>
      </trkpt>
      <trkpt lat="41.322773" lon="1.985875">
        <ele>128.9</ele>
        <time>1970-01-01T00:24:15.000Z</time>
      </trkpt>
      <trkpt lat="41.322773" lon="1.985875">
        <ele>128.9</ele>
        <time>1970-01-01T00:24:16.000Z</time>
      </trkpt>
      <trkpt lat="41.322808" lon="1.985835">
        <ele>128.9</ele>
        <time>1970-01-01T00:24:17.000Z</time>
      </trkpt>
      <trkpt lat="41.322822" lon="1.985808">
        <ele>129.9</ele>
        <time>1970-01-01T00:24:18.000Z</time>
      </trkpt>
      <trkpt lat="41.322822" lon="1.985808">
        <ele>129.9</ele>
        <time>1970-01-01T00:24:19.000Z</time>
      </trkpt>
      <trkpt lat="41.322832" lon="1.98575">
        <ele>129.9</ele>
        <time>1970-01-01T00:24:20.000Z</time>
      </trkpt>
      <trkpt lat="41.32283" lon="1.985718">
        <ele>129.9</ele>
        <time>1970-01-01T00:24:21.000Z</time>
      </trkpt>
      <trkpt lat="41.32283" lon="1.985718">
        <ele>130.9</ele>
        <time>1970-01-01T00:24:22.000Z</time>
      </trkpt>
      <trkpt lat="41.322827" lon="1.985658">
        <ele>130.9</ele>
        <time>1970-01-01T00:24:23.000Z</time>
      </trkpt>
      <trkpt lat="41.322827" lon="1.985658">
        <ele>130.9</ele>
        <time>1970-01-01T00:24:24.000Z</time>
      </trkpt>
      <trkpt lat="41.322818" lon="1.985598">
        <ele>130.9</ele>
        <time>1970-01-01T00:24:25.000Z</time>
      </trkpt>
      <trkpt lat="41.322812" lon="1.985572">
        <ele>131.9</ele>
        <time>1970-01-01T00:24:26.000Z</time>
      </trkpt>
      <trkpt lat="41.322812" lon="1.985572">
        <ele>131.9</ele>
        <time>1970-01-01T00:24:27.000Z</time>
      </trkpt>
      <trkpt lat="41.3228" lon="1.985517">
        <ele>131.9</ele>
        <time>1970-01-01T00:24:28.000Z</time>
      </trkpt>
      <trkpt lat="41.322797" lon="1.985492">
        <ele>131.9</ele>
        <time>1970-01-01T00:24:29.000Z</time>
      </trkpt>
      <trkpt lat="41.322797" lon="1.985492">
        <ele>132.9</ele>
        <time>1970-01-01T00:24:30.000Z</time>
      </trkpt>
      <trkpt lat="41.322788" lon="1.985443">
        <ele>132.9</ele>
        <time>1970-01-01T00:24:31.000Z</time>
      </trkpt>
      <trkpt lat="41.322783" lon="1.985418">
        <ele>132.9</ele>
        <time>1970-01-01T00:24:32.000Z</time>
      </trkpt>
      <trkpt lat="41.32278" lon="1.985395">
        <ele>132.9</ele>
        <time>1970-01-01T00:24:33.000Z</time>
      </trkpt>
      <trkpt lat="41.32278" lon="1.985395">
        <ele>133.9</ele>
        <time>1970-01-01T00:24:34.000Z</time>
      </trkpt>
      <trkpt lat="41.322773" lon="1.985345">
        <ele>133.9</ele>
        <time>1970-01-01T00:24:35.000Z</time>
      </trkpt>
      <trkpt lat="41.322773" lon="1.985345">
        <ele>133.9</ele>
        <time>1970-01-01T00:24:36.000Z</time>
      </trkpt>
      <trkpt lat="41.322768" lon="1.985295">
        <ele>133.9</ele>
        <time>1970-01-01T00:24:37.000Z</time>
      </trkpt>
      <trkpt lat="41.322767" lon="1.985268">
        <ele>134.9</ele>
        <time>1970-01-01T00:24:38.000Z</time>
      </trkpt>
      <trkpt lat="41.322765" lon="1.985242">
        <ele>134.9</ele>
        <time>1970-01-01T00:24:39.000Z</time>
      </trkpt>
      <trkpt lat="41.322765" lon="1.985242">
        <ele>134.9</ele>
        <time>1970-01-01T00:24:40.000Z</time>
      </trkpt>
      <trkpt lat="41.32276" lon="1.98519">
        <ele>134.9</ele>
        <time>1970-01-01T00:24:41.000Z</time>
      </trkpt>
      <trkpt lat="41.322758" lon="1.985167">
        <ele>135.9</ele>
        <time>1970-01-01T00:24:42.000Z</time>
      </trkpt>
      <trkpt lat="41.322758" lon="1.985167">
        <ele>135.9</ele>
        <time>1970-01-01T00:24:43.000Z</time>
      </trkpt>
      <trkpt lat="41.322762" lon="1.985118">
        <ele>136.9</ele>
        <time>1970-01-01T00:24:44.000Z</time>
      </trkpt>
      <trkpt lat="41.322762" lon="1.985118">
        <ele>136.9</ele>
        <time>1970-01-01T00:24:45.000Z</time>
      </trkpt>
      <trkpt lat="41.322762" lon="1.985067">
        <ele>136.9</ele>
        <time>1970-01-01T00:24:46.000Z</time>
      </trkpt>
      <trkpt lat="41.322762" lon="1.985067">
        <ele>136.9</ele>
        <time>1970-01-01T00:24:47.000Z</time>
      </trkpt>
      <trkpt lat="41.322775" lon="1.985007">
        <ele>137.9</ele>
        <time>1970-01-01T00:24:48.000Z</time>
      </trkpt>
      <trkpt lat="41.32278" lon="1.984983">
        <ele>137.9</ele>
        <time>1970-01-01T00:24:49.000Z</time>
      </trkpt>
      <trkpt lat="41.32278" lon="1.984983">
        <ele>137.9</ele>
        <time>1970-01-01T00:24:50.000Z</time>
      </trkpt>
      <trkpt lat="41.32279" lon="1.984935">
        <ele>137.9</ele>
        <time>1970-01-01T00:24:51.000Z</time>
      </trkpt>
      <trkpt lat="41.32279" lon="1.984935">
        <ele>138.9</ele>
        <time>1970-01-01T00:24:52.000Z</time>
      </trkpt>
      <trkpt lat="41.322803" lon="1.984887">
        <ele>138.9</ele>
        <time>1970-01-01T00:24:53.000Z</time>
      </trkpt>
      <trkpt lat="41.322803" lon="1.984887">
        <ele>139.9</ele>
        <time>1970-01-01T00:24:54.000Z</time>
      </trkpt>
      <trkpt lat="41.322817" lon="1.984837">
        <ele>139.9</ele>
        <time>1970-01-01T00:24:55.000Z</time>
      </trkpt>
      <trkpt lat="41.322822" lon="1.984812">
        <ele>140.9</ele>
        <time>1970-01-01T00:24:56.000Z</time>
      </trkpt>
      <trkpt lat="41.322822" lon="1.984812">
        <ele>140.9</ele>
        <time>1970-01-01T00:24:57.000Z</time>
      </trkpt>
      <trkpt lat="41.322835" lon="1.984768">
        <ele>140.9</ele>
        <time>1970-01-01T00:24:58.000Z</time>
      </trkpt>
      <trkpt lat="41.322843" lon="1.984745">
        <ele>140.9</ele>
        <time>1970-01-01T00:24:59.000Z</time>
      </trkpt>
      <trkpt lat="41.322843" lon="1.984745">
        <ele>141.9</ele>
        <time>1970-01-01T00:25:00.000Z</time>
      </trkpt>
      <trkpt lat="41.322852" lon="1.984697">
        <ele>141.9</ele>
        <time>1970-01-01T00:25:01.000Z</time>
      </trkpt>
      <trkpt lat="41.322855" lon="1.984672">
        <ele>141.9</ele>
        <time>1970-01-01T00:25:02.000Z</time>
      </trkpt>
      <trkpt lat="41.32286" lon="1.984647">
        <ele>141.9</ele>
        <time>1970-01-01T00:25:03.000Z</time>
      </trkpt>
      <trkpt lat="41.32286" lon="1.984647">
        <ele>142.9</ele>
        <time>1970-01-01T00:25:04.000Z</time>
      </trkpt>
      <trkpt lat="41.32287" lon="1.984602">
        <ele>142.9</ele>
        <time>1970-01-01T00:25:05.000Z</time>
      </trkpt>
      <trkpt lat="41.32287" lon="1.984602">
        <ele>142.9</ele>
        <time>1970-01-01T00:25:06.000Z</time>
      </trkpt>
      <trkpt lat="41.322883" lon="1.984555">
        <ele>142.9</ele>
        <time>1970-01-01T00:25:07.000Z</time>
      </trkpt>
      <trkpt lat="41.322883" lon="1.984555">
        <ele>142.9</ele>
        <time>1970-01-01T00:25:08.000Z</time>
      </trkpt>
      <trkpt lat="41.322897" lon="1.984513">
        <ele>142.9</ele>
        <time>1970-01-01T00:25:09.000Z</time>
      </trkpt>
      <trkpt lat="41.322897" lon="1.984513">
        <ele>143.9</ele>
        <time>1970-01-01T00:25:10.000Z</time>
      </trkpt>
      <trkpt lat="41.322912" lon="1.984467">
        <ele>143.9</ele>
        <time>1970-01-01T00:25:11.000Z</time>
      </trkpt>
      <trkpt lat="41.322918" lon="1.984443">
        <ele>143.9</ele>
        <time>1970-01-01T00:25:12.000Z</time>
      </trkpt>
      <trkpt lat="41.322918" lon="1.984443">
        <ele>144.9</ele>
        <time>1970-01-01T00:25:13.000Z</time>
      </trkpt>
      <trkpt lat="41.322932" lon="1.984402">
        <ele>144.9</ele>
        <time>1970-01-01T00:25:14.000Z</time>
      </trkpt>
      <trkpt lat="41.322932" lon="1.984402">
        <ele>144.9</ele>
        <time>1970-01-01T00:25:15.000Z</time>
      </trkpt>
      <trkpt lat="41.322942" lon="1.984363">
        <ele>144.9</ele>
        <time>1970-01-01T00:25:16.000Z</time>
      </trkpt>
      <trkpt lat="41.322942" lon="1.984363">
        <ele>144.9</ele>
        <time>1970-01-01T00:25:17.000Z</time>
      </trkpt>
      <trkpt lat="41.322957" lon="1.984328">
        <ele>144.9</ele>
        <time>1970-01-01T00:25:18.000Z</time>
      </trkpt>
      <trkpt lat="41.322957" lon="1.984328">
        <ele>145.9</ele>
        <time>1970-01-01T00:25:19.000Z</time>
      </trkpt>
      <trkpt lat="41.322977" lon="1.984285">
        <ele>145.9</ele>
        <time>1970-01-01T00:25:20.000Z</time>
      </trkpt>
      <trkpt lat="41.322977" lon="1.984285">
        <ele>145.9</ele>
        <time>1970-01-01T00:25:21.000Z</time>
      </trkpt>
      <trkpt lat="41.322995" lon="1.984238">
        <ele>145.9</ele>
        <time>1970-01-01T00:25:22.000Z</time>
      </trkpt>
      <trkpt lat="41.322995" lon="1.984238">
        <ele>145.9</ele>
        <time>1970-01-01T00:25:23.000Z</time>
      </trkpt>
      <trkpt lat="41.323012" lon="1.984187">
        <ele>145.9</ele>
        <time>1970-01-01T00:25:24.000Z</time>
      </trkpt>
      <trkpt lat="41.323012" lon="1.984187">
        <ele>146.9</ele>
        <time>1970-01-01T00:25:25.000Z</time>
      </trkpt>
      <trkpt lat="41.323032" lon="1.984142">
        <ele>146.9</ele>
        <time>1970-01-01T00:25:26.000Z</time>
      </trkpt>
      <trkpt lat="41.323032" lon="1.984142">
        <ele>146.9</ele>
        <time>1970-01-01T00:25:27.000Z</time>
      </trkpt>
      <trkpt lat="41.323055" lon="1.984097">
        <ele>146.9</ele>
        <time>1970-01-01T00:25:28.000Z</time>
      </trkpt>
      <trkpt lat="41.323055" lon="1.984097">
        <ele>146.9</ele>
        <time>1970-01-01T00:25:29.000Z</time>
      </trkpt>
      <trkpt lat="41.323073" lon="1.984053">
        <ele>146.9</ele>
        <time>1970-01-01T00:25:30.000Z</time>
      </trkpt>
      <trkpt lat="41.323073" lon="1.984053">
        <ele>147.9</ele>
        <time>1970-01-01T00:25:31.000Z</time>
      </trkpt>
      <trkpt lat="41.323087" lon="1.984005">
        <ele>147.9</ele>
        <time>1970-01-01T00:25:32.000Z</time>
      </trkpt>
      <trkpt lat="41.323092" lon="1.98398">
        <ele>147.9</ele>
        <time>1970-01-01T00:25:33.000Z</time>
      </trkpt>
      <trkpt lat="41.323092" lon="1.98398">
        <ele>147.9</ele>
        <time>1970-01-01T00:25:34.000Z</time>
      </trkpt>
      <trkpt lat="41.3231" lon="1.983928">
        <ele>147.9</ele>
        <time>1970-01-01T00:25:35.000Z</time>
      </trkpt>
      <trkpt lat="41.3231" lon="1.983928">
        <ele>147.9</ele>
        <time>1970-01-01T00:25:36.000Z</time>
      </trkpt>
      <trkpt lat="41.323103" lon="1.983882">
        <ele>147.9</ele>
        <time>1970-01-01T00:25:37.000Z</time>
      </trkpt>
      <trkpt lat="41.323107" lon="1.983862">
        <ele>147.9</ele>
        <time>1970-01-01T00:25:38.000Z</time>
      </trkpt>
      <trkpt lat="41.323107" lon="1.983862">
        <ele>147.9</ele>
        <time>1970-01-01T00:25:39.000Z</time>
      </trkpt>
      <trkpt lat="41.323113" lon="1.983818">
        <ele>147.9</ele>
        <time>1970-01-01T00:25:40.000Z</time>
      </trkpt>
      <trkpt lat="41.32312" lon="1.9838">
        <ele>149.9</ele>
        <time>1970-01-01T00:25:41.000Z</time>
      </trkpt>
      <trkpt lat="41.32312" lon="1.9838">
        <ele>149.9</ele>
        <time>1970-01-01T00:25:42.000Z</time>
      </trkpt>
      <trkpt lat="41.323137" lon="1.98376">
        <ele>149.9</ele>
        <time>1970-01-01T00:25:43.000Z</time>
      </trkpt>
      <trkpt lat="41.323137" lon="1.98376">
        <ele>149.9</ele>
        <time>1970-01-01T00:25:44.000Z</time>
      </trkpt>
      <trkpt lat="41.323162" lon="1.983717">
        <ele>149.9</ele>
        <time>1970-01-01T00:25:45.000Z</time>
      </trkpt>
      <trkpt lat="41.323162" lon="1.983717">
        <ele>149.9</ele>
        <time>1970-01-01T00:25:46.000Z</time>
      </trkpt>
      <trkpt lat="41.323192" lon="1.983667">
        <ele>149.9</ele>
        <time>1970-01-01T00:25:47.000Z</time>
      </trkpt>
      <trkpt lat="41.323192" lon="1.983667">
        <ele>149.9</ele>
        <time>1970-01-01T00:25:48.000Z</time>
      </trkpt>
      <trkpt lat="41.323218" lon="1.983617">
        <ele>149.9</ele>
        <time>1970-01-01T00:25:49.000Z</time>
      </trkpt>
      <trkpt lat="41.323218" lon="1.983617">
        <ele>149.9</ele>
        <time>1970-01-01T00:25:50.000Z</time>
      </trkpt>
      <trkpt lat="41.323245" lon="1.983562">
        <ele>149.9</ele>
        <time>1970-01-01T00:25:51.000Z</time>
      </trkpt>
      <trkpt lat="41.323245" lon="1.983562">
        <ele>149.9</ele>
        <time>1970-01-01T00:25:52.000Z</time>
      </trkpt>
      <trkpt lat="41.32328" lon="1.983522">
        <ele>150.9</ele>
        <time>1970-01-01T00:25:53.000Z</time>
      </trkpt>
      <trkpt lat="41.323298" lon="1.983503">
        <ele>150.9</ele>
        <time>1970-01-01T00:25:54.000Z</time>
      </trkpt>
      <trkpt lat="41.323315" lon="1.983483">
        <ele>150.9</ele>
        <time>1970-01-01T00:25:55.000Z</time>
      </trkpt>
      <trkpt lat="41.323315" lon="1.983483">
        <ele>150.9</ele>
        <time>1970-01-01T00:25:56.000Z</time>
      </trkpt>
      <trkpt lat="41.323348" lon="1.98344">
        <ele>150.9</ele>
        <time>1970-01-01T00:25:57.000Z</time>
      </trkpt>
      <trkpt lat="41.323365" lon="1.98342">
        <ele>150.9</ele>
        <time>1970-01-01T00:25:58.000Z</time>
      </trkpt>
      <trkpt lat="41.323365" lon="1.98342">
        <ele>150.9</ele>
        <time>1970-01-01T00:25:59.000Z</time>
      </trkpt>
      <trkpt lat="41.3234" lon="1.983383">
        <ele>150.9</ele>
        <time>1970-01-01T00:26:00.000Z</time>
      </trkpt>
      <trkpt lat="41.323417" lon="1.983365">
        <ele>150.9</ele>
        <time>1970-01-01T00:26:01.000Z</time>
      </trkpt>
      <trkpt lat="41.323433" lon="1.983347">
        <ele>150.9</ele>
        <time>1970-01-01T00:26:02.000Z</time>
      </trkpt>
      <trkpt lat="41.323433" lon="1.983347">
        <ele>150.9</ele>
        <time>1970-01-01T00:26:03.000Z</time>
      </trkpt>
      <trkpt lat="41.323468" lon="1.983313">
        <ele>151.9</ele>
        <time>1970-01-01T00:26:04.000Z</time>
      </trkpt>
      <trkpt lat="41.323483" lon="1.983297">
        <ele>151.9</ele>
        <time>1970-01-01T00:26:05.000Z</time>
      </trkpt>
      <trkpt lat="41.323483" lon="1.983297">
        <ele>151.9</ele>
        <time>1970-01-01T00:26:06.000Z</time>
      </trkpt>
      <trkpt lat="41.32352" lon="1.983263">
        <ele>151.9</ele>
        <time>1970-01-01T00:26:07.000Z</time>
      </trkpt>
      <trkpt lat="41.323538" lon="1.983247">
        <ele>151.9</ele>
        <time>1970-01-01T00:26:08.000Z</time>
      </trkpt>
      <trkpt lat="41.323557" lon="1.983235">
        <ele>151.9</ele>
        <time>1970-01-01T00:26:09.000Z</time>
      </trkpt>
      <trkpt lat="41.323557" lon="1.983235">
        <ele>152.9</ele>
        <time>1970-01-01T00:26:10.000Z</time>
      </trkpt>
      <trkpt lat="41.323597" lon="1.983208">
        <ele>152.9</ele>
        <time>1970-01-01T00:26:11.000Z</time>
      </trkpt>
      <trkpt lat="41.323597" lon="1.983208">
        <ele>152.9</ele>
        <time>1970-01-01T00:26:12.000Z</time>
      </trkpt>
      <trkpt lat="41.32363" lon="1.983178">
        <ele>152.9</ele>
        <time>1970-01-01T00:26:13.000Z</time>
      </trkpt>
      <trkpt lat="41.32363" lon="1.983178">
        <ele>153.9</ele>
        <time>1970-01-01T00:26:14.000Z</time>
      </trkpt>
      <trkpt lat="41.323662" lon="1.983152">
        <ele>153.9</ele>
        <time>1970-01-01T00:26:15.000Z</time>
      </trkpt>
      <trkpt lat="41.323682" lon="1.983138">
        <ele>153.9</ele>
        <time>1970-01-01T00:26:16.000Z</time>
      </trkpt>
      <trkpt lat="41.323682" lon="1.983138">
        <ele>153.9</ele>
        <time>1970-01-01T00:26:17.000Z</time>
      </trkpt>
      <trkpt lat="41.323713" lon="1.983108">
        <ele>154.9</ele>
        <time>1970-01-01T00:26:18.000Z</time>
      </trkpt>
      <trkpt lat="41.32373" lon="1.983093">
        <ele>154.9</ele>
        <time>1970-01-01T00:26:19.000Z</time>
      </trkpt>
      <trkpt lat="41.323747" lon="1.983075">
        <ele>154.9</ele>
        <time>1970-01-01T00:26:20.000Z</time>
      </trkpt>
      <trkpt lat="41.323747" lon="1.983075">
        <ele>154.9</ele>
        <time>1970-01-01T00:26:21.000Z</time>
      </trkpt>
      <trkpt lat="41.323783" lon="1.983023">
        <ele>155.9</ele>
        <time>1970-01-01T00:26:22.000Z</time>
      </trkpt>
      <trkpt lat="41.323783" lon="1.983023">
        <ele>155.9</ele>
        <time>1970-01-01T00:26:23.000Z</time>
      </trkpt>
      <trkpt lat="41.323813" lon="1.982958">
        <ele>155.9</ele>
        <time>1970-01-01T00:26:24.000Z</time>
      </trkpt>
      <trkpt lat="41.323813" lon="1.982958">
        <ele>155.9</ele>
        <time>1970-01-01T00:26:25.000Z</time>
      </trkpt>
      <trkpt lat="41.323832" lon="1.982885">
        <ele>155.9</ele>
        <time>1970-01-01T00:26:26.000Z</time>
      </trkpt>
      <trkpt lat="41.323832" lon="1.982885">
        <ele>155.9</ele>
        <time>1970-01-01T00:26:27.000Z</time>
      </trkpt>
      <trkpt lat="41.32384" lon="1.982813">
        <ele>155.9</ele>
        <time>1970-01-01T00:26:28.000Z</time>
      </trkpt>
      <trkpt lat="41.323842" lon="1.982773">
        <ele>155.9</ele>
        <time>1970-01-01T00:26:29.000Z</time>
      </trkpt>
      <trkpt lat="41.323842" lon="1.982773">
        <ele>155.9</ele>
        <time>1970-01-01T00:26:30.000Z</time>
      </trkpt>
      <trkpt lat="41.323845" lon="1.982698">
        <ele>155.9</ele>
        <time>1970-01-01T00:26:31.000Z</time>
      </trkpt>
      <trkpt lat="41.323847" lon="1.982665">
        <ele>155.9</ele>
        <time>1970-01-01T00:26:32.000Z</time>
      </trkpt>
      <trkpt lat="41.323847" lon="1.982665">
        <ele>155.9</ele>
        <time>1970-01-01T00:26:33.000Z</time>
      </trkpt>
      <trkpt lat="41.323852" lon="1.982595">
        <ele>155.9</ele>
        <time>1970-01-01T00:26:34.000Z</time>
      </trkpt>
      <trkpt lat="41.323852" lon="1.982595">
        <ele>156.9</ele>
        <time>1970-01-01T00:26:35.000Z</time>
      </trkpt>
      <trkpt lat="41.323858" lon="1.982535">
        <ele>156.9</ele>
        <time>1970-01-01T00:26:36.000Z</time>
      </trkpt>
      <trkpt lat="41.323858" lon="1.982535">
        <ele>156.9</ele>
        <time>1970-01-01T00:26:37.000Z</time>
      </trkpt>
      <trkpt lat="41.323858" lon="1.982472">
        <ele>156.9</ele>
        <time>1970-01-01T00:26:38.000Z</time>
      </trkpt>
      <trkpt lat="41.323858" lon="1.982472">
        <ele>156.9</ele>
        <time>1970-01-01T00:26:39.000Z</time>
      </trkpt>
      <trkpt lat="41.323853" lon="1.982412">
        <ele>157.9</ele>
        <time>1970-01-01T00:26:40.000Z</time>
      </trkpt>
      <trkpt lat="41.323853" lon="1.982412">
        <ele>157.9</ele>
        <time>1970-01-01T00:26:41.000Z</time>
      </trkpt>
      <trkpt lat="41.323837" lon="1.982358">
        <ele>157.9</ele>
        <time>1970-01-01T00:26:42.000Z</time>
      </trkpt>
      <trkpt lat="41.323837" lon="1.982358">
        <ele>157.9</ele>
        <time>1970-01-01T00:26:43.000Z</time>
      </trkpt>
      <trkpt lat="41.323812" lon="1.982313">
        <ele>158.9</ele>
        <time>1970-01-01T00:26:44.000Z</time>
      </trkpt>
      <trkpt lat="41.323812" lon="1.982313">
        <ele>158.9</ele>
        <time>1970-01-01T00:26:45.000Z</time>
      </trkpt>
      <trkpt lat="41.323783" lon="1.982272">
        <ele>158.9</ele>
        <time>1970-01-01T00:26:46.000Z</time>
      </trkpt>
      <trkpt lat="41.323783" lon="1.982272">
        <ele>158.9</ele>
        <time>1970-01-01T00:26:47.000Z</time>
      </trkpt>
      <trkpt lat="41.32375" lon="1.982228">
        <ele>158.9</ele>
        <time>1970-01-01T00:26:48.000Z</time>
      </trkpt>
      <trkpt lat="41.323733" lon="1.982215">
        <ele>158.9</ele>
        <time>1970-01-01T00:26:49.000Z</time>
      </trkpt>
      <trkpt lat="41.323733" lon="1.982215">
        <ele>159.9</ele>
        <time>1970-01-01T00:26:50.000Z</time>
      </trkpt>
      <trkpt lat="41.323695" lon="1.982188">
        <ele>159.9</ele>
        <time>1970-01-01T00:26:51.000Z</time>
      </trkpt>
      <trkpt lat="41.323695" lon="1.982188">
        <ele>159.9</ele>
        <time>1970-01-01T00:26:52.000Z</time>
      </trkpt>
      <trkpt lat="41.32366" lon="1.982152">
        <ele>159.9</ele>
        <time>1970-01-01T00:26:53.000Z</time>
      </trkpt>
      <trkpt lat="41.32366" lon="1.982152">
        <ele>160.9</ele>
        <time>1970-01-01T00:26:54.000Z</time>
      </trkpt>
      <trkpt lat="41.323632" lon="1.982113">
        <ele>160.9</ele>
        <time>1970-01-01T00:26:55.000Z</time>
      </trkpt>
      <trkpt lat="41.323632" lon="1.982113">
        <ele>160.9</ele>
        <time>1970-01-01T00:26:56.000Z</time>
      </trkpt>
      <trkpt lat="41.323608" lon="1.98207">
        <ele>160.9</ele>
        <time>1970-01-01T00:26:57.000Z</time>
      </trkpt>
      <trkpt lat="41.323608" lon="1.98207">
        <ele>161.9</ele>
        <time>1970-01-01T00:26:58.000Z</time>
      </trkpt>
      <trkpt lat="41.323602" lon="1.982017">
        <ele>161.9</ele>
        <time>1970-01-01T00:26:59.000Z</time>
      </trkpt>
      <trkpt lat="41.323602" lon="1.982017">
        <ele>161.9</ele>
        <time>1970-01-01T00:27:00.000Z</time>
      </trkpt>
      <trkpt lat="41.323607" lon="1.981965">
        <ele>161.9</ele>
        <time>1970-01-01T00:27:01.000Z</time>
      </trkpt>
      <trkpt lat="41.323607" lon="1.981937">
        <ele>161.9</ele>
        <time>1970-01-01T00:27:02.000Z</time>
      </trkpt>
      <trkpt lat="41.323607" lon="1.981937">
        <ele>161.9</ele>
        <time>1970-01-01T00:27:03.000Z</time>
      </trkpt>
      <trkpt lat="41.32362" lon="1.981883">
        <ele>162.9</ele>
        <time>1970-01-01T00:27:04.000Z</time>
      </trkpt>
      <trkpt lat="41.32362" lon="1.981883">
        <ele>162.9</ele>
        <time>1970-01-01T00:27:05.000Z</time>
      </trkpt>
      <trkpt lat="41.323637" lon="1.981827">
        <ele>162.9</ele>
        <time>1970-01-01T00:27:06.000Z</time>
      </trkpt>
      <trkpt lat="41.323637" lon="1.981827">
        <ele>162.9</ele>
        <time>1970-01-01T00:27:07.000Z</time>
      </trkpt>
      <trkpt lat="41.323673" lon="1.981767">
        <ele>163.9</ele>
        <time>1970-01-01T00:27:08.000Z</time>
      </trkpt>
      <trkpt lat="41.323673" lon="1.981767">
        <ele>163.9</ele>
        <time>1970-01-01T00:27:09.000Z</time>
      </trkpt>
      <trkpt lat="41.323723" lon="1.98171">
        <ele>163.9</ele>
        <time>1970-01-01T00:27:10.000Z</time>
      </trkpt>
      <trkpt lat="41.323748" lon="1.98168">
        <ele>163.9</ele>
        <time>1970-01-01T00:27:11.000Z</time>
      </trkpt>
      <trkpt lat="41.323748" lon="1.98168">
        <ele>163.9</ele>
        <time>1970-01-01T00:27:12.000Z</time>
      </trkpt>
      <trkpt lat="41.323808" lon="1.981618">
        <ele>163.9</ele>
        <time>1970-01-01T00:27:13.000Z</time>
      </trkpt>
      <trkpt lat="41.323837" lon="1.981583">
        <ele>163.9</ele>
        <time>1970-01-01T00:27:14.000Z</time>
      </trkpt>
      <trkpt lat="41.323837" lon="1.981583">
        <ele>163.9</ele>
        <time>1970-01-01T00:27:15.000Z</time>
      </trkpt>
      <trkpt lat="41.323883" lon="1.9815">
        <ele>163.9</ele>
        <time>1970-01-01T00:27:16.000Z</time>
      </trkpt>
      <trkpt lat="41.323883" lon="1.9815">
        <ele>163.9</ele>
        <time>1970-01-01T00:27:17.000Z</time>
      </trkpt>
      <trkpt lat="41.323937" lon="1.981405">
        <ele>163.9</ele>
        <time>1970-01-01T00:27:18.000Z</time>
      </trkpt>
      <trkpt lat="41.323962" lon="1.981352">
        <ele>163.9</ele>
        <time>1970-01-01T00:27:19.000Z</time>
      </trkpt>
      <trkpt lat="41.323962" lon="1.981352">
        <ele>163.9</ele>
        <time>1970-01-01T00:27:20.000Z</time>
      </trkpt>
      <trkpt lat="41.32399" lon="1.981257">
        <ele>163.9</ele>
        <time>1970-01-01T00:27:21.000Z</time>
      </trkpt>
      <trkpt lat="41.32399" lon="1.981257">
        <ele>163.9</ele>
        <time>1970-01-01T00:27:22.000Z</time>
      </trkpt>
      <trkpt lat="41.323988" lon="1.981158">
        <ele>163.9</ele>
        <time>1970-01-01T00:27:23.000Z</time>
      </trkpt>
      <trkpt lat="41.323987" lon="1.981118">
        <ele>163.9</ele>
        <time>1970-01-01T00:27:24.000Z</time>
      </trkpt>
      <trkpt lat="41.323987" lon="1.981118">
        <ele>163.9</ele>
        <time>1970-01-01T00:27:25.000Z</time>
      </trkpt>
      <trkpt lat="41.323983" lon="1.981037">
        <ele>163.9</ele>
        <time>1970-01-01T00:27:26.000Z</time>
      </trkpt>
      <trkpt lat="41.323983" lon="1.981037">
        <ele>163.9</ele>
        <time>1970-01-01T00:27:27.000Z</time>
      </trkpt>
      <trkpt lat="41.323958" lon="1.980953">
        <ele>163.9</ele>
        <time>1970-01-01T00:27:28.000Z</time>
      </trkpt>
      <trkpt lat="41.323943" lon="1.980908">
        <ele>163.9</ele>
        <time>1970-01-01T00:27:29.000Z</time>
      </trkpt>
      <trkpt lat="41.323943" lon="1.980908">
        <ele>163.9</ele>
        <time>1970-01-01T00:27:30.000Z</time>
      </trkpt>
      <trkpt lat="41.323918" lon="1.980823">
        <ele>163.9</ele>
        <time>1970-01-01T00:27:31.000Z</time>
      </trkpt>
      <trkpt lat="41.32391" lon="1.980787">
        <ele>164.9</ele>
        <time>1970-01-01T00:27:32.000Z</time>
      </trkpt>
      <trkpt lat="41.32391" lon="1.980787">
        <ele>164.9</ele>
        <time>1970-01-01T00:27:33.000Z</time>
      </trkpt>
      <trkpt lat="41.323887" lon="1.980722">
        <ele>164.9</ele>
        <time>1970-01-01T00:27:34.000Z</time>
      </trkpt>
      <trkpt lat="41.323887" lon="1.980722">
        <ele>164.9</ele>
        <time>1970-01-01T00:27:35.000Z</time>
      </trkpt>
      <trkpt lat="41.323865" lon="1.980658">
        <ele>165.9</ele>
        <time>1970-01-01T00:27:36.000Z</time>
      </trkpt>
      <trkpt lat="41.323865" lon="1.980658">
        <ele>165.9</ele>
        <time>1970-01-01T00:27:37.000Z</time>
      </trkpt>
      <trkpt lat="41.32385" lon="1.980593">
        <ele>165.9</ele>
        <time>1970-01-01T00:27:38.000Z</time>
      </trkpt>
      <trkpt lat="41.32384" lon="1.980565">
        <ele>165.9</ele>
        <time>1970-01-01T00:27:39.000Z</time>
      </trkpt>
      <trkpt lat="41.32384" lon="1.980565">
        <ele>165.9</ele>
        <time>1970-01-01T00:27:40.000Z</time>
      </trkpt>
      <trkpt lat="41.323835" lon="1.980502">
        <ele>165.9</ele>
        <time>1970-01-01T00:27:41.000Z</time>
      </trkpt>
      <trkpt lat="41.323835" lon="1.980502">
        <ele>167.9</ele>
        <time>1970-01-01T00:27:42.000Z</time>
      </trkpt>
      <trkpt lat="41.32386" lon="1.980448">
        <ele>167.9</ele>
        <time>1970-01-01T00:27:43.000Z</time>
      </trkpt>
      <trkpt lat="41.32386" lon="1.980448">
        <ele>167.9</ele>
        <time>1970-01-01T00:27:44.000Z</time>
      </trkpt>
      <trkpt lat="41.323898" lon="1.98039">
        <ele>167.9</ele>
        <time>1970-01-01T00:27:45.000Z</time>
      </trkpt>
      <trkpt lat="41.323898" lon="1.98039">
        <ele>167.9</ele>
        <time>1970-01-01T00:27:46.000Z</time>
      </trkpt>
      <trkpt lat="41.32395" lon="1.980342">
        <ele>167.9</ele>
        <time>1970-01-01T00:27:47.000Z</time>
      </trkpt>
      <trkpt lat="41.32395" lon="1.980342">
        <ele>167.9</ele>
        <time>1970-01-01T00:27:48.000Z</time>
      </trkpt>
      <trkpt lat="41.323995" lon="1.98028">
        <ele>167.9</ele>
        <time>1970-01-01T00:27:49.000Z</time>
      </trkpt>
      <trkpt lat="41.323995" lon="1.98028">
        <ele>167.9</ele>
        <time>1970-01-01T00:27:50.000Z</time>
      </trkpt>
      <trkpt lat="41.32404" lon="1.980213">
        <ele>167.9</ele>
        <time>1970-01-01T00:27:51.000Z</time>
      </trkpt>
      <trkpt lat="41.32404" lon="1.980213">
        <ele>168.9</ele>
        <time>1970-01-01T00:27:52.000Z</time>
      </trkpt>
      <trkpt lat="41.324092" lon="1.980147">
        <ele>168.9</ele>
        <time>1970-01-01T00:27:53.000Z</time>
      </trkpt>
      <trkpt lat="41.324115" lon="1.980108">
        <ele>168.9</ele>
        <time>1970-01-01T00:27:54.000Z</time>
      </trkpt>
      <trkpt lat="41.324138" lon="1.980073">
        <ele>168.9</ele>
        <time>1970-01-01T00:27:55.000Z</time>
      </trkpt>
      <trkpt lat="41.324138" lon="1.980073">
        <ele>168.9</ele>
        <time>1970-01-01T00:27:56.000Z</time>
      </trkpt>
      <trkpt lat="41.324183" lon="1.980013">
        <ele>168.9</ele>
        <time>1970-01-01T00:27:57.000Z</time>
      </trkpt>
      <trkpt lat="41.324183" lon="1.980013">
        <ele>169.9</ele>
        <time>1970-01-01T00:27:58.000Z</time>
      </trkpt>
      <trkpt lat="41.324232" lon="1.979955">
        <ele>169.9</ele>
        <time>1970-01-01T00:27:59.000Z</time>
      </trkpt>
      <trkpt lat="41.324232" lon="1.979955">
        <ele>169.9</ele>
        <time>1970-01-01T00:28:00.000Z</time>
      </trkpt>
      <trkpt lat="41.324267" lon="1.979898">
        <ele>169.9</ele>
        <time>1970-01-01T00:28:01.000Z</time>
      </trkpt>
      <trkpt lat="41.324283" lon="1.979872">
        <ele>169.9</ele>
        <time>1970-01-01T00:28:02.000Z</time>
      </trkpt>
      <trkpt lat="41.324283" lon="1.979872">
        <ele>169.9</ele>
        <time>1970-01-01T00:28:03.000Z</time>
      </trkpt>
      <trkpt lat="41.324308" lon="1.979813">
        <ele>170.9</ele>
        <time>1970-01-01T00:28:04.000Z</time>
      </trkpt>
      <trkpt lat="41.324308" lon="1.979813">
        <ele>170.9</ele>
        <time>1970-01-01T00:28:05.000Z</time>
      </trkpt>
      <trkpt lat="41.324338" lon="1.979758">
        <ele>170.9</ele>
        <time>1970-01-01T00:28:06.000Z</time>
      </trkpt>
      <trkpt lat="41.324338" lon="1.979758">
        <ele>170.9</ele>
        <time>1970-01-01T00:28:07.000Z</time>
      </trkpt>
      <trkpt lat="41.324362" lon="1.979702">
        <ele>170.9</ele>
        <time>1970-01-01T00:28:08.000Z</time>
      </trkpt>
      <trkpt lat="41.324362" lon="1.979702">
        <ele>171.9</ele>
        <time>1970-01-01T00:28:09.000Z</time>
      </trkpt>
      <trkpt lat="41.324378" lon="1.979637">
        <ele>171.9</ele>
        <time>1970-01-01T00:28:10.000Z</time>
      </trkpt>
      <trkpt lat="41.324378" lon="1.979637">
        <ele>171.9</ele>
        <time>1970-01-01T00:28:11.000Z</time>
      </trkpt>
      <trkpt lat="41.324385" lon="1.979572">
        <ele>171.9</ele>
        <time>1970-01-01T00:28:12.000Z</time>
      </trkpt>
      <trkpt lat="41.324385" lon="1.979572">
        <ele>172.9</ele>
        <time>1970-01-01T00:28:13.000Z</time>
      </trkpt>
      <trkpt lat="41.324388" lon="1.979507">
        <ele>172.9</ele>
        <time>1970-01-01T00:28:14.000Z</time>
      </trkpt>
      <trkpt lat="41.324388" lon="1.979507">
        <ele>172.9</ele>
        <time>1970-01-01T00:28:15.000Z</time>
      </trkpt>
      <trkpt lat="41.324385" lon="1.97944">
        <ele>172.9</ele>
        <time>1970-01-01T00:28:16.000Z</time>
      </trkpt>
      <trkpt lat="41.324383" lon="1.979407">
        <ele>173.9</ele>
        <time>1970-01-01T00:28:17.000Z</time>
      </trkpt>
      <trkpt lat="41.324383" lon="1.979407">
        <ele>173.9</ele>
        <time>1970-01-01T00:28:18.000Z</time>
      </trkpt>
      <trkpt lat="41.32439" lon="1.97935">
        <ele>173.9</ele>
        <time>1970-01-01T00:28:19.000Z</time>
      </trkpt>
      <trkpt lat="41.324405" lon="1.979322">
        <ele>173.9</ele>
        <time>1970-01-01T00:28:20.000Z</time>
      </trkpt>
      <trkpt lat="41.324405" lon="1.979322">
        <ele>173.9</ele>
        <time>1970-01-01T00:28:21.000Z</time>
      </trkpt>
      <trkpt lat="41.32442" lon="1.979277">
        <ele>173.9</ele>
        <time>1970-01-01T00:28:22.000Z</time>
      </trkpt>
      <trkpt lat="41.32442" lon="1.979277">
        <ele>174.9</ele>
        <time>1970-01-01T00:28:23.000Z</time>
      </trkpt>
      <trkpt lat="41.324437" lon="1.979228">
        <ele>174.9</ele>
        <time>1970-01-01T00:28:24.000Z</time>
      </trkpt>
      <trkpt lat="41.324437" lon="1.979228">
        <ele>174.9</ele>
        <time>1970-01-01T00:28:25.000Z</time>
      </trkpt>
      <trkpt lat="41.324452" lon="1.979182">
        <ele>174.9</ele>
        <time>1970-01-01T00:28:26.000Z</time>
      </trkpt>
      <trkpt lat="41.324452" lon="1.979182">
        <ele>174.9</ele>
        <time>1970-01-01T00:28:27.000Z</time>
      </trkpt>
      <trkpt lat="41.324468" lon="1.97914">
        <ele>174.9</ele>
        <time>1970-01-01T00:28:28.000Z</time>
      </trkpt>
      <trkpt lat="41.324468" lon="1.97914">
        <ele>175.9</ele>
        <time>1970-01-01T00:28:29.000Z</time>
      </trkpt>
      <trkpt lat="41.324488" lon="1.979098">
        <ele>175.9</ele>
        <time>1970-01-01T00:28:30.000Z</time>
      </trkpt>
      <trkpt lat="41.324488" lon="1.979098">
        <ele>175.9</ele>
        <time>1970-01-01T00:28:31.000Z</time>
      </trkpt>
      <trkpt lat="41.324508" lon="1.979052">
        <ele>175.9</ele>
        <time>1970-01-01T00:28:32.000Z</time>
      </trkpt>
      <trkpt lat="41.324508" lon="1.979052">
        <ele>176.9</ele>
        <time>1970-01-01T00:28:33.000Z</time>
      </trkpt>
      <trkpt lat="41.32453" lon="1.979008">
        <ele>176.9</ele>
        <time>1970-01-01T00:28:34.000Z</time>
      </trkpt>
      <trkpt lat="41.32453" lon="1.979008">
        <ele>177.9</ele>
        <time>1970-01-01T00:28:35.000Z</time>
      </trkpt>
      <trkpt lat="41.324553" lon="1.978972">
        <ele>177.9</ele>
        <time>1970-01-01T00:28:36.000Z</time>
      </trkpt>
      <trkpt lat="41.324553" lon="1.978972">
        <ele>177.9</ele>
        <time>1970-01-01T00:28:37.000Z</time>
      </trkpt>
      <trkpt lat="41.324573" lon="1.978932">
        <ele>177.9</ele>
        <time>1970-01-01T00:28:38.000Z</time>
      </trkpt>
      <trkpt lat="41.324573" lon="1.978932">
        <ele>178.9</ele>
        <time>1970-01-01T00:28:39.000Z</time>
      </trkpt>
      <trkpt lat="41.324598" lon="1.978893">
        <ele>178.9</ele>
        <time>1970-01-01T00:28:40.000Z</time>
      </trkpt>
      <trkpt lat="41.324598" lon="1.978893">
        <ele>178.9</ele>
        <time>1970-01-01T00:28:41.000Z</time>
      </trkpt>
      <trkpt lat="41.324615" lon="1.978862">
        <ele>178.9</ele>
        <time>1970-01-01T00:28:42.000Z</time>
      </trkpt>
      <trkpt lat="41.324615" lon="1.978862">
        <ele>178.9</ele>
        <time>1970-01-01T00:28:43.000Z</time>
      </trkpt>
      <trkpt lat="41.324627" lon="1.978823">
        <ele>178.9</ele>
        <time>1970-01-01T00:28:44.000Z</time>
      </trkpt>
      <trkpt lat="41.324627" lon="1.978823">
        <ele>178.9</ele>
        <time>1970-01-01T00:28:45.000Z</time>
      </trkpt>
      <trkpt lat="41.324642" lon="1.978783">
        <ele>178.9</ele>
        <time>1970-01-01T00:28:46.000Z</time>
      </trkpt>
      <trkpt lat="41.324652" lon="1.978762">
        <ele>180.9</ele>
        <time>1970-01-01T00:28:47.000Z</time>
      </trkpt>
      <trkpt lat="41.324652" lon="1.978762">
        <ele>180.9</ele>
        <time>1970-01-01T00:28:48.000Z</time>
      </trkpt>
      <trkpt lat="41.324665" lon="1.978712">
        <ele>180.9</ele>
        <time>1970-01-01T00:28:49.000Z</time>
      </trkpt>
      <trkpt lat="41.324675" lon="1.978685">
        <ele>180.9</ele>
        <time>1970-01-01T00:28:50.000Z</time>
      </trkpt>
      <trkpt lat="41.324675" lon="1.978685">
        <ele>180.9</ele>
        <time>1970-01-01T00:28:51.000Z</time>
      </trkpt>
      <trkpt lat="41.324695" lon="1.978623">
        <ele>180.9</ele>
        <time>1970-01-01T00:28:52.000Z</time>
      </trkpt>
      <trkpt lat="41.324703" lon="1.97859">
        <ele>180.9</ele>
        <time>1970-01-01T00:28:53.000Z</time>
      </trkpt>
      <trkpt lat="41.324703" lon="1.97859">
        <ele>180.9</ele>
        <time>1970-01-01T00:28:54.000Z</time>
      </trkpt>
      <trkpt lat="41.324718" lon="1.978515">
        <ele>180.9</ele>
        <time>1970-01-01T00:28:55.000Z</time>
      </trkpt>
      <trkpt lat="41.324723" lon="1.978477">
        <ele>180.9</ele>
        <time>1970-01-01T00:28:56.000Z</time>
      </trkpt>
      <trkpt lat="41.324723" lon="1.978477">
        <ele>180.9</ele>
        <time>1970-01-01T00:28:57.000Z</time>
      </trkpt>
      <trkpt lat="41.324725" lon="1.978397">
        <ele>180.9</ele>
        <time>1970-01-01T00:28:58.000Z</time>
      </trkpt>
      <trkpt lat="41.324725" lon="1.978397">
        <ele>180.9</ele>
        <time>1970-01-01T00:28:59.000Z</time>
      </trkpt>
      <trkpt lat="41.324725" lon="1.978312">
        <ele>180.9</ele>
        <time>1970-01-01T00:29:00.000Z</time>
      </trkpt>
      <trkpt lat="41.324725" lon="1.978312">
        <ele>180.9</ele>
        <time>1970-01-01T00:29:01.000Z</time>
      </trkpt>
      <trkpt lat="41.324723" lon="1.978227">
        <ele>180.9</ele>
        <time>1970-01-01T00:29:02.000Z</time>
      </trkpt>
      <trkpt lat="41.324723" lon="1.978227">
        <ele>180.9</ele>
        <time>1970-01-01T00:29:03.000Z</time>
      </trkpt>
      <trkpt lat="41.324725" lon="1.97814">
        <ele>180.9</ele>
        <time>1970-01-01T00:29:04.000Z</time>
      </trkpt>
      <trkpt lat="41.324725" lon="1.97814">
        <ele>180.9</ele>
        <time>1970-01-01T00:29:05.000Z</time>
      </trkpt>
      <trkpt lat="41.324723" lon="1.97805">
        <ele>180.9</ele>
        <time>1970-01-01T00:29:06.000Z</time>
      </trkpt>
      <trkpt lat="41.324723" lon="1.97805">
        <ele>180.9</ele>
        <time>1970-01-01T00:29:07.000Z</time>
      </trkpt>
      <trkpt lat="41.324728" lon="1.977958">
        <ele>180.9</ele>
        <time>1970-01-01T00:29:08.000Z</time>
      </trkpt>
      <trkpt lat="41.324735" lon="1.977915">
        <ele>180.9</ele>
        <time>1970-01-01T00:29:09.000Z</time>
      </trkpt>
      <trkpt lat="41.324735" lon="1.977915">
        <ele>180.9</ele>
        <time>1970-01-01T00:29:10.000Z</time>
      </trkpt>
      <trkpt lat="41.32475" lon="1.977828">
        <ele>180.9</ele>
        <time>1970-01-01T00:29:11.000Z</time>
      </trkpt>
      <trkpt lat="41.32476" lon="1.977785">
        <ele>180.9</ele>
        <time>1970-01-01T00:29:12.000Z</time>
      </trkpt>
      <trkpt lat="41.32476" lon="1.977785">
        <ele>180.9</ele>
        <time>1970-01-01T00:29:13.000Z</time>
      </trkpt>
      <trkpt lat="41.324778" lon="1.977697">
        <ele>180.9</ele>
        <time>1970-01-01T00:29:14.000Z</time>
      </trkpt>
      <trkpt lat="41.324778" lon="1.977697">
        <ele>180.9</ele>
        <time>1970-01-01T00:29:15.000Z</time>
      </trkpt>
      <trkpt lat="41.324797" lon="1.977607">
        <ele>180.9</ele>
        <time>1970-01-01T00:29:16.000Z</time>
      </trkpt>
      <trkpt lat="41.324797" lon="1.977607">
        <ele>180.9</ele>
        <time>1970-01-01T00:29:17.000Z</time>
      </trkpt>
      <trkpt lat="41.324818" lon="1.977522">
        <ele>180.9</ele>
        <time>1970-01-01T00:29:18.000Z</time>
      </trkpt>
      <trkpt lat="41.324818" lon="1.977522">
        <ele>180.9</ele>
        <time>1970-01-01T00:29:19.000Z</time>
      </trkpt>
      <trkpt lat="41.324838" lon="1.977442">
        <ele>180.9</ele>
        <time>1970-01-01T00:29:20.000Z</time>
      </trkpt>
      <trkpt lat="41.324838" lon="1.977442">
        <ele>180.9</ele>
        <time>1970-01-01T00:29:21.000Z</time>
      </trkpt>
      <trkpt lat="41.324865" lon="1.977367">
        <ele>180.9</ele>
        <time>1970-01-01T00:29:22.000Z</time>
      </trkpt>
      <trkpt lat="41.324865" lon="1.977367">
        <ele>180.9</ele>
        <time>1970-01-01T00:29:23.000Z</time>
      </trkpt>
      <trkpt lat="41.324885" lon="1.977302">
        <ele>180.9</ele>
        <time>1970-01-01T00:29:24.000Z</time>
      </trkpt>
      <trkpt lat="41.324885" lon="1.977302">
        <ele>180.9</ele>
        <time>1970-01-01T00:29:25.000Z</time>
      </trkpt>
      <trkpt lat="41.324893" lon="1.977245">
        <ele>180.9</ele>
        <time>1970-01-01T00:29:26.000Z</time>
      </trkpt>
      <trkpt lat="41.324893" lon="1.977245">
        <ele>180.9</ele>
        <time>1970-01-01T00:29:27.000Z</time>
      </trkpt>
      <trkpt lat="41.324898" lon="1.977192">
        <ele>180.9</ele>
        <time>1970-01-01T00:29:28.000Z</time>
      </trkpt>
      <trkpt lat="41.324898" lon="1.977192">
        <ele>180.9</ele>
        <time>1970-01-01T00:29:29.000Z</time>
      </trkpt>
      <trkpt lat="41.324898" lon="1.977143">
        <ele>181.9</ele>
        <time>1970-01-01T00:29:30.000Z</time>
      </trkpt>
      <trkpt lat="41.324898" lon="1.977143">
        <ele>181.9</ele>
        <time>1970-01-01T00:29:31.000Z</time>
      </trkpt>
      <trkpt lat="41.324895" lon="1.977092">
        <ele>181.9</ele>
        <time>1970-01-01T00:29:32.000Z</time>
      </trkpt>
      <trkpt lat="41.324895" lon="1.977092">
        <ele>183.9</ele>
        <time>1970-01-01T00:29:33.000Z</time>
      </trkpt>
      <trkpt lat="41.324892" lon="1.977042">
        <ele>183.9</ele>
        <time>1970-01-01T00:29:34.000Z</time>
      </trkpt>
      <trkpt lat="41.32489" lon="1.977018">
        <ele>183.9</ele>
        <time>1970-01-01T00:29:35.000Z</time>
      </trkpt>
      <trkpt lat="41.32489" lon="1.977018">
        <ele>183.9</ele>
        <time>1970-01-01T00:29:36.000Z</time>
      </trkpt>
      <trkpt lat="41.32489" lon="1.976972">
        <ele>183.9</ele>
        <time>1970-01-01T00:29:37.000Z</time>
      </trkpt>
      <trkpt lat="41.32489" lon="1.97695">
        <ele>183.9</ele>
        <time>1970-01-01T00:29:38.000Z</time>
      </trkpt>
      <trkpt lat="41.32489" lon="1.97695">
        <ele>183.9</ele>
        <time>1970-01-01T00:29:39.000Z</time>
      </trkpt>
      <trkpt lat="41.324883" lon="1.976907">
        <ele>183.9</ele>
        <time>1970-01-01T00:29:40.000Z</time>
      </trkpt>
      <trkpt lat="41.324883" lon="1.976907">
        <ele>185.9</ele>
        <time>1970-01-01T00:29:41.000Z</time>
      </trkpt>
      <trkpt lat="41.32487" lon="1.976867">
        <ele>185.9</ele>
        <time>1970-01-01T00:29:42.000Z</time>
      </trkpt>
      <trkpt lat="41.32487" lon="1.976867">
        <ele>185.9</ele>
        <time>1970-01-01T00:29:43.000Z</time>
      </trkpt>
      <trkpt lat="41.324853" lon="1.97683">
        <ele>185.9</ele>
        <time>1970-01-01T00:29:44.000Z</time>
      </trkpt>
      <trkpt lat="41.324853" lon="1.97683">
        <ele>185.9</ele>
        <time>1970-01-01T00:29:45.000Z</time>
      </trkpt>
      <trkpt lat="41.324838" lon="1.976788">
        <ele>185.9</ele>
        <time>1970-01-01T00:29:46.000Z</time>
      </trkpt>
      <trkpt lat="41.324838" lon="1.976788">
        <ele>185.9</ele>
        <time>1970-01-01T00:29:47.000Z</time>
      </trkpt>
      <trkpt lat="41.324822" lon="1.976747">
        <ele>185.9</ele>
        <time>1970-01-01T00:29:48.000Z</time>
      </trkpt>
      <trkpt lat="41.324822" lon="1.976747">
        <ele>187.9</ele>
        <time>1970-01-01T00:29:49.000Z</time>
      </trkpt>
      <trkpt lat="41.324802" lon="1.976703">
        <ele>187.9</ele>
        <time>1970-01-01T00:29:50.000Z</time>
      </trkpt>
      <trkpt lat="41.324802" lon="1.976703">
        <ele>187.9</ele>
        <time>1970-01-01T00:29:51.000Z</time>
      </trkpt>
      <trkpt lat="41.324785" lon="1.976662">
        <ele>187.9</ele>
        <time>1970-01-01T00:29:52.000Z</time>
      </trkpt>
      <trkpt lat="41.324785" lon="1.976662">
        <ele>187.9</ele>
        <time>1970-01-01T00:29:53.000Z</time>
      </trkpt>
      <trkpt lat="41.324763" lon="1.9766">
        <ele>187.9</ele>
        <time>1970-01-01T00:29:54.000Z</time>
      </trkpt>
      <trkpt lat="41.324763" lon="1.9766">
        <ele>187.9</ele>
        <time>1970-01-01T00:29:55.000Z</time>
      </trkpt>
      <trkpt lat="41.324743" lon="1.976553">
        <ele>187.9</ele>
        <time>1970-01-01T00:29:56.000Z</time>
      </trkpt>
      <trkpt lat="41.324743" lon="1.976553">
        <ele>188.9</ele>
        <time>1970-01-01T00:29:57.000Z</time>
      </trkpt>
      <trkpt lat="41.324725" lon="1.976508">
        <ele>188.9</ele>
        <time>1970-01-01T00:29:58.000Z</time>
      </trkpt>
      <trkpt lat="41.324715" lon="1.976488">
        <ele>188.9</ele>
        <time>1970-01-01T00:29:59.000Z</time>
      </trkpt>
      <trkpt lat="41.324715" lon="1.976488">
        <ele>188.9</ele>
        <time>1970-01-01T00:30:00.000Z</time>
      </trkpt>
      <trkpt lat="41.324688" lon="1.976445">
        <ele>188.9</ele>
        <time>1970-01-01T00:30:01.000Z</time>
      </trkpt>
      <trkpt lat="41.324688" lon="1.976445">
        <ele>188.9</ele>
        <time>1970-01-01T00:30:02.000Z</time>
      </trkpt>
      <trkpt lat="41.324663" lon="1.976403">
        <ele>189.9</ele>
        <time>1970-01-01T00:30:03.000Z</time>
      </trkpt>
      <trkpt lat="41.324663" lon="1.976403">
        <ele>189.9</ele>
        <time>1970-01-01T00:30:04.000Z</time>
      </trkpt>
      <trkpt lat="41.324635" lon="1.976363">
        <ele>189.9</ele>
        <time>1970-01-01T00:30:05.000Z</time>
      </trkpt>
      <trkpt lat="41.324635" lon="1.976363">
        <ele>189.9</ele>
        <time>1970-01-01T00:30:06.000Z</time>
      </trkpt>
      <trkpt lat="41.324608" lon="1.976318">
        <ele>189.9</ele>
        <time>1970-01-01T00:30:07.000Z</time>
      </trkpt>
      <trkpt lat="41.324595" lon="1.976298">
        <ele>189.9</ele>
        <time>1970-01-01T00:30:08.000Z</time>
      </trkpt>
      <trkpt lat="41.324595" lon="1.976298">
        <ele>190.9</ele>
        <time>1970-01-01T00:30:09.000Z</time>
      </trkpt>
      <trkpt lat="41.324572" lon="1.97625">
        <ele>190.9</ele>
        <time>1970-01-01T00:30:10.000Z</time>
      </trkpt>
      <trkpt lat="41.324562" lon="1.976225">
        <ele>190.9</ele>
        <time>1970-01-01T00:30:11.000Z</time>
      </trkpt>
      <trkpt lat="41.324562" lon="1.976225">
        <ele>190.9</ele>
        <time>1970-01-01T00:30:12.000Z</time>
      </trkpt>
      <trkpt lat="41.324542" lon="1.976168">
        <ele>190.9</ele>
        <time>1970-01-01T00:30:13.000Z</time>
      </trkpt>
      <trkpt lat="41.324532" lon="1.97614">
        <ele>190.9</ele>
        <time>1970-01-01T00:30:14.000Z</time>
      </trkpt>
      <trkpt lat="41.324532" lon="1.97614">
        <ele>190.9</ele>
        <time>1970-01-01T00:30:15.000Z</time>
      </trkpt>
      <trkpt lat="41.324503" lon="1.976082">
        <ele>190.9</ele>
        <time>1970-01-01T00:30:16.000Z</time>
      </trkpt>
      <trkpt lat="41.324503" lon="1.976082">
        <ele>190.9</ele>
        <time>1970-01-01T00:30:17.000Z</time>
      </trkpt>
      <trkpt lat="41.324477" lon="1.976022">
        <ele>190.9</ele>
        <time>1970-01-01T00:30:18.000Z</time>
      </trkpt>
      <trkpt lat="41.324477" lon="1.976022">
        <ele>190.9</ele>
        <time>1970-01-01T00:30:19.000Z</time>
      </trkpt>
      <trkpt lat="41.324457" lon="1.975962">
        <ele>190.9</ele>
        <time>1970-01-01T00:30:20.000Z</time>
      </trkpt>
      <trkpt lat="41.324457" lon="1.975962">
        <ele>190.9</ele>
        <time>1970-01-01T00:30:21.000Z</time>
      </trkpt>
      <trkpt lat="41.324433" lon="1.975903">
        <ele>190.9</ele>
        <time>1970-01-01T00:30:22.000Z</time>
      </trkpt>
      <trkpt lat="41.324425" lon="1.97587">
        <ele>190.9</ele>
        <time>1970-01-01T00:30:23.000Z</time>
      </trkpt>
      <trkpt lat="41.324425" lon="1.97587">
        <ele>190.9</ele>
        <time>1970-01-01T00:30:24.000Z</time>
      </trkpt>
      <trkpt lat="41.324408" lon="1.975793">
        <ele>190.9</ele>
        <time>1970-01-01T00:30:25.000Z</time>
      </trkpt>
      <trkpt lat="41.3244" lon="1.975762">
        <ele>190.9</ele>
        <time>1970-01-01T00:30:26.000Z</time>
      </trkpt>
      <trkpt lat="41.3244" lon="1.975762">
        <ele>190.9</ele>
        <time>1970-01-01T00:30:27.000Z</time>
      </trkpt>
      <trkpt lat="41.324383" lon="1.975695">
        <ele>190.9</ele>
        <time>1970-01-01T00:30:28.000Z</time>
      </trkpt>
      <trkpt lat="41.324377" lon="1.975663">
        <ele>191.9</ele>
        <time>1970-01-01T00:30:29.000Z</time>
      </trkpt>
      <trkpt lat="41.324367" lon="1.975633">
        <ele>191.9</ele>
        <time>1970-01-01T00:30:30.000Z</time>
      </trkpt>
      <trkpt lat="41.324367" lon="1.975633">
        <ele>191.9</ele>
        <time>1970-01-01T00:30:31.000Z</time>
      </trkpt>
      <trkpt lat="41.324352" lon="1.975572">
        <ele>191.9</ele>
        <time>1970-01-01T00:30:32.000Z</time>
      </trkpt>
      <trkpt lat="41.324352" lon="1.975572">
        <ele>191.9</ele>
        <time>1970-01-01T00:30:33.000Z</time>
      </trkpt>
      <trkpt lat="41.324338" lon="1.975505">
        <ele>191.9</ele>
        <time>1970-01-01T00:30:34.000Z</time>
      </trkpt>
      <trkpt lat="41.324338" lon="1.975505">
        <ele>191.9</ele>
        <time>1970-01-01T00:30:35.000Z</time>
      </trkpt>
      <trkpt lat="41.324325" lon="1.97544">
        <ele>191.9</ele>
        <time>1970-01-01T00:30:36.000Z</time>
      </trkpt>
      <trkpt lat="41.32432" lon="1.975407">
        <ele>192.9</ele>
        <time>1970-01-01T00:30:37.000Z</time>
      </trkpt>
      <trkpt lat="41.32432" lon="1.975407">
        <ele>192.9</ele>
        <time>1970-01-01T00:30:38.000Z</time>
      </trkpt>
      <trkpt lat="41.32431" lon="1.975343">
        <ele>192.9</ele>
        <time>1970-01-01T00:30:39.000Z</time>
      </trkpt>
      <trkpt lat="41.32431" lon="1.975343">
        <ele>192.9</ele>
        <time>1970-01-01T00:30:40.000Z</time>
      </trkpt>
      <trkpt lat="41.324302" lon="1.975283">
        <ele>193.9</ele>
        <time>1970-01-01T00:30:41.000Z</time>
      </trkpt>
      <trkpt lat="41.324298" lon="1.975253">
        <ele>193.9</ele>
        <time>1970-01-01T00:30:42.000Z</time>
      </trkpt>
      <trkpt lat="41.324298" lon="1.975253">
        <ele>193.9</ele>
        <time>1970-01-01T00:30:43.000Z</time>
      </trkpt>
      <trkpt lat="41.324292" lon="1.975193">
        <ele>193.9</ele>
        <time>1970-01-01T00:30:44.000Z</time>
      </trkpt>
      <trkpt lat="41.324292" lon="1.975193">
        <ele>193.9</ele>
        <time>1970-01-01T00:30:45.000Z</time>
      </trkpt>
      <trkpt lat="41.324287" lon="1.975132">
        <ele>193.9</ele>
        <time>1970-01-01T00:30:46.000Z</time>
      </trkpt>
      <trkpt lat="41.324287" lon="1.975132">
        <ele>194.9</ele>
        <time>1970-01-01T00:30:47.000Z</time>
      </trkpt>
      <trkpt lat="41.324282" lon="1.975068">
        <ele>194.9</ele>
        <time>1970-01-01T00:30:48.000Z</time>
      </trkpt>
      <trkpt lat="41.324278" lon="1.975037">
        <ele>194.9</ele>
        <time>1970-01-01T00:30:49.000Z</time>
      </trkpt>
      <trkpt lat="41.324278" lon="1.975037">
        <ele>194.9</ele>
        <time>1970-01-01T00:30:50.000Z</time>
      </trkpt>
      <trkpt lat="41.324277" lon="1.974978">
        <ele>195.9</ele>
        <time>1970-01-01T00:30:51.000Z</time>
      </trkpt>
      <trkpt lat="41.324277" lon="1.974978">
        <ele>195.9</ele>
        <time>1970-01-01T00:30:52.000Z</time>
      </trkpt>
      <trkpt lat="41.324272" lon="1.974918">
        <ele>195.9</ele>
        <time>1970-01-01T00:30:53.000Z</time>
      </trkpt>
      <trkpt lat="41.324273" lon="1.974887">
        <ele>195.9</ele>
        <time>1970-01-01T00:30:54.000Z</time>
      </trkpt>
      <trkpt lat="41.324273" lon="1.974887">
        <ele>195.9</ele>
        <time>1970-01-01T00:30:55.000Z</time>
      </trkpt>
      <trkpt lat="41.324273" lon="1.974827">
        <ele>195.9</ele>
        <time>1970-01-01T00:30:56.000Z</time>
      </trkpt>
      <trkpt lat="41.324273" lon="1.974827">
        <ele>195.9</ele>
        <time>1970-01-01T00:30:57.000Z</time>
      </trkpt>
      <trkpt lat="41.324277" lon="1.97477">
        <ele>196.9</ele>
        <time>1970-01-01T00:30:58.000Z</time>
      </trkpt>
      <trkpt lat="41.324277" lon="1.97477">
        <ele>196.9</ele>
        <time>1970-01-01T00:30:59.000Z</time>
      </trkpt>
      <trkpt lat="41.32429" lon="1.974717">
        <ele>196.9</ele>
        <time>1970-01-01T00:31:00.000Z</time>
      </trkpt>
      <trkpt lat="41.32429" lon="1.974717">
        <ele>196.9</ele>
        <time>1970-01-01T00:31:01.000Z</time>
      </trkpt>
      <trkpt lat="41.324298" lon="1.974663">
        <ele>198.9</ele>
        <time>1970-01-01T00:31:02.000Z</time>
      </trkpt>
      <trkpt lat="41.324298" lon="1.974663">
        <ele>198.9</ele>
        <time>1970-01-01T00:31:03.000Z</time>
      </trkpt>
      <trkpt lat="41.32431" lon="1.974613">
        <ele>198.9</ele>
        <time>1970-01-01T00:31:04.000Z</time>
      </trkpt>
      <trkpt lat="41.324315" lon="1.97459">
        <ele>199.9</ele>
        <time>1970-01-01T00:31:05.000Z</time>
      </trkpt>
      <trkpt lat="41.324315" lon="1.97459">
        <ele>199.9</ele>
        <time>1970-01-01T00:31:06.000Z</time>
      </trkpt>
      <trkpt lat="41.324315" lon="1.974543">
        <ele>199.9</ele>
        <time>1970-01-01T00:31:07.000Z</time>
      </trkpt>
      <trkpt lat="41.324315" lon="1.974543">
        <ele>199.9</ele>
        <time>1970-01-01T00:31:08.000Z</time>
      </trkpt>
      <trkpt lat="41.32432" lon="1.974493">
        <ele>200.9</ele>
        <time>1970-01-01T00:31:09.000Z</time>
      </trkpt>
      <trkpt lat="41.32432" lon="1.974493">
        <ele>200.9</ele>
        <time>1970-01-01T00:31:10.000Z</time>
      </trkpt>
      <trkpt lat="41.32433" lon="1.974435">
        <ele>200.9</ele>
        <time>1970-01-01T00:31:11.000Z</time>
      </trkpt>
      <trkpt lat="41.32433" lon="1.974435">
        <ele>200.9</ele>
        <time>1970-01-01T00:31:12.000Z</time>
      </trkpt>
      <trkpt lat="41.324338" lon="1.97438">
        <ele>200.9</ele>
        <time>1970-01-01T00:31:13.000Z</time>
      </trkpt>
      <trkpt lat="41.324338" lon="1.97438">
        <ele>200.9</ele>
        <time>1970-01-01T00:31:14.000Z</time>
      </trkpt>
      <trkpt lat="41.324342" lon="1.974327">
        <ele>201.9</ele>
        <time>1970-01-01T00:31:15.000Z</time>
      </trkpt>
      <trkpt lat="41.324343" lon="1.974298">
        <ele>201.9</ele>
        <time>1970-01-01T00:31:16.000Z</time>
      </trkpt>
      <trkpt lat="41.324343" lon="1.974298">
        <ele>201.9</ele>
        <time>1970-01-01T00:31:17.000Z</time>
      </trkpt>
      <trkpt lat="41.324345" lon="1.974243">
        <ele>201.9</ele>
        <time>1970-01-01T00:31:18.000Z</time>
      </trkpt>
      <trkpt lat="41.324345" lon="1.974243">
        <ele>201.9</ele>
        <time>1970-01-01T00:31:19.000Z</time>
      </trkpt>
      <trkpt lat="41.324352" lon="1.97419">
        <ele>201.9</ele>
        <time>1970-01-01T00:31:20.000Z</time>
      </trkpt>
      <trkpt lat="41.324352" lon="1.97419">
        <ele>201.9</ele>
        <time>1970-01-01T00:31:21.000Z</time>
      </trkpt>
      <trkpt lat="41.324357" lon="1.974137">
        <ele>201.9</ele>
        <time>1970-01-01T00:31:22.000Z</time>
      </trkpt>
      <trkpt lat="41.324357" lon="1.974137">
        <ele>202.9</ele>
        <time>1970-01-01T00:31:23.000Z</time>
      </trkpt>
      <trkpt lat="41.324362" lon="1.97408">
        <ele>202.9</ele>
        <time>1970-01-01T00:31:24.000Z</time>
      </trkpt>
      <trkpt lat="41.324365" lon="1.974053">
        <ele>202.9</ele>
        <time>1970-01-01T00:31:25.000Z</time>
      </trkpt>
      <trkpt lat="41.324365" lon="1.974053">
        <ele>202.9</ele>
        <time>1970-01-01T00:31:26.000Z</time>
      </trkpt>
      <trkpt lat="41.32437" lon="1.974002">
        <ele>203.9</ele>
        <time>1970-01-01T00:31:27.000Z</time>
      </trkpt>
      <trkpt lat="41.324368" lon="1.973975">
        <ele>203.9</ele>
        <time>1970-01-01T00:31:28.000Z</time>
      </trkpt>
      <trkpt lat="41.324372" lon="1.973947">
        <ele>203.9</ele>
        <time>1970-01-01T00:31:29.000Z</time>
      </trkpt>
      <trkpt lat="41.324373" lon="1.97392">
        <ele>203.9</ele>
        <time>1970-01-01T00:31:30.000Z</time>
      </trkpt>
      <trkpt lat="41.324373" lon="1.97392">
        <ele>204.9</ele>
        <time>1970-01-01T00:31:31.000Z</time>
      </trkpt>
      <trkpt lat="41.324377" lon="1.97387">
        <ele>204.9</ele>
        <time>1970-01-01T00:31:32.000Z</time>
      </trkpt>
      <trkpt lat="41.324377" lon="1.97387">
        <ele>204.9</ele>
        <time>1970-01-01T00:31:33.000Z</time>
      </trkpt>
      <trkpt lat="41.324385" lon="1.97382">
        <ele>204.9</ele>
        <time>1970-01-01T00:31:34.000Z</time>
      </trkpt>
      <trkpt lat="41.324385" lon="1.97382">
        <ele>205.9</ele>
        <time>1970-01-01T00:31:35.000Z</time>
      </trkpt>
      <trkpt lat="41.324395" lon="1.97377">
        <ele>205.9</ele>
        <time>1970-01-01T00:31:36.000Z</time>
      </trkpt>
      <trkpt lat="41.324395" lon="1.97377">
        <ele>205.9</ele>
        <time>1970-01-01T00:31:37.000Z</time>
      </trkpt>
      <trkpt lat="41.324407" lon="1.973717">
        <ele>205.9</ele>
        <time>1970-01-01T00:31:38.000Z</time>
      </trkpt>
      <trkpt lat="41.324407" lon="1.973717">
        <ele>205.9</ele>
        <time>1970-01-01T00:31:39.000Z</time>
      </trkpt>
      <trkpt lat="41.324415" lon="1.973665">
        <ele>205.9</ele>
        <time>1970-01-01T00:31:40.000Z</time>
      </trkpt>
      <trkpt lat="41.324418" lon="1.973637">
        <ele>205.9</ele>
        <time>1970-01-01T00:31:41.000Z</time>
      </trkpt>
      <trkpt lat="41.324418" lon="1.973637">
        <ele>206.9</ele>
        <time>1970-01-01T00:31:42.000Z</time>
      </trkpt>
      <trkpt lat="41.32443" lon="1.973583">
        <ele>206.9</ele>
        <time>1970-01-01T00:31:43.000Z</time>
      </trkpt>
      <trkpt lat="41.324433" lon="1.973558">
        <ele>206.9</ele>
        <time>1970-01-01T00:31:44.000Z</time>
      </trkpt>
      <trkpt lat="41.324433" lon="1.973558">
        <ele>207.9</ele>
        <time>1970-01-01T00:31:45.000Z</time>
      </trkpt>
      <trkpt lat="41.324435" lon="1.973508">
        <ele>207.9</ele>
        <time>1970-01-01T00:31:46.000Z</time>
      </trkpt>
      <trkpt lat="41.324435" lon="1.973508">
        <ele>207.9</ele>
        <time>1970-01-01T00:31:47.000Z</time>
      </trkpt>
      <trkpt lat="41.324442" lon="1.973455">
        <ele>207.9</ele>
        <time>1970-01-01T00:31:48.000Z</time>
      </trkpt>
      <trkpt lat="41.324442" lon="1.973455">
        <ele>208.9</ele>
        <time>1970-01-01T00:31:49.000Z</time>
      </trkpt>
      <trkpt lat="41.324452" lon="1.973405">
        <ele>208.9</ele>
        <time>1970-01-01T00:31:50.000Z</time>
      </trkpt>
      <trkpt lat="41.324452" lon="1.973405">
        <ele>208.9</ele>
        <time>1970-01-01T00:31:51.000Z</time>
      </trkpt>
      <trkpt lat="41.324458" lon="1.973355">
        <ele>208.9</ele>
        <time>1970-01-01T00:31:52.000Z</time>
      </trkpt>
      <trkpt lat="41.324458" lon="1.973355">
        <ele>208.9</ele>
        <time>1970-01-01T00:31:53.000Z</time>
      </trkpt>
      <trkpt lat="41.324462" lon="1.973302">
        <ele>208.9</ele>
        <time>1970-01-01T00:31:54.000Z</time>
      </trkpt>
      <trkpt lat="41.324465" lon="1.973275">
        <ele>208.9</ele>
        <time>1970-01-01T00:31:55.000Z</time>
      </trkpt>
      <trkpt lat="41.324468" lon="1.973248">
        <ele>208.9</ele>
        <time>1970-01-01T00:31:56.000Z</time>
      </trkpt>
      <trkpt lat="41.324468" lon="1.973248">
        <ele>208.9</ele>
        <time>1970-01-01T00:31:57.000Z</time>
      </trkpt>
      <trkpt lat="41.324463" lon="1.973202">
        <ele>208.9</ele>
        <time>1970-01-01T00:31:58.000Z</time>
      </trkpt>
      <trkpt lat="41.324463" lon="1.973202">
        <ele>208.9</ele>
        <time>1970-01-01T00:31:59.000Z</time>
      </trkpt>
      <trkpt lat="41.32446" lon="1.973155">
        <ele>208.9</ele>
        <time>1970-01-01T00:32:00.000Z</time>
      </trkpt>
      <trkpt lat="41.32446" lon="1.973155">
        <ele>209.9</ele>
        <time>1970-01-01T00:32:01.000Z</time>
      </trkpt>
      <trkpt lat="41.32446" lon="1.973105">
        <ele>209.9</ele>
        <time>1970-01-01T00:32:02.000Z</time>
      </trkpt>
      <trkpt lat="41.324462" lon="1.97308">
        <ele>209.9</ele>
        <time>1970-01-01T00:32:03.000Z</time>
      </trkpt>
      <trkpt lat="41.324462" lon="1.97308">
        <ele>209.9</ele>
        <time>1970-01-01T00:32:04.000Z</time>
      </trkpt>
      <trkpt lat="41.32446" lon="1.973027">
        <ele>209.9</ele>
        <time>1970-01-01T00:32:05.000Z</time>
      </trkpt>
      <trkpt lat="41.32446" lon="1.973027">
        <ele>209.9</ele>
        <time>1970-01-01T00:32:06.000Z</time>
      </trkpt>
      <trkpt lat="41.32446" lon="1.97297">
        <ele>209.9</ele>
        <time>1970-01-01T00:32:07.000Z</time>
      </trkpt>
      <trkpt lat="41.32446" lon="1.97297">
        <ele>210.9</ele>
        <time>1970-01-01T00:32:08.000Z</time>
      </trkpt>
      <trkpt lat="41.324453" lon="1.972915">
        <ele>210.9</ele>
        <time>1970-01-01T00:32:09.000Z</time>
      </trkpt>
      <trkpt lat="41.324453" lon="1.972915">
        <ele>210.9</ele>
        <time>1970-01-01T00:32:10.000Z</time>
      </trkpt>
      <trkpt lat="41.324442" lon="1.972865">
        <ele>210.9</ele>
        <time>1970-01-01T00:32:11.000Z</time>
      </trkpt>
      <trkpt lat="41.32444" lon="1.97284">
        <ele>210.9</ele>
        <time>1970-01-01T00:32:12.000Z</time>
      </trkpt>
      <trkpt lat="41.32444" lon="1.97284">
        <ele>210.9</ele>
        <time>1970-01-01T00:32:13.000Z</time>
      </trkpt>
      <trkpt lat="41.324435" lon="1.97279">
        <ele>210.9</ele>
        <time>1970-01-01T00:32:14.000Z</time>
      </trkpt>
      <trkpt lat="41.324432" lon="1.972763">
        <ele>210.9</ele>
        <time>1970-01-01T00:32:15.000Z</time>
      </trkpt>
      <trkpt lat="41.324432" lon="1.972763">
        <ele>211.9</ele>
        <time>1970-01-01T00:32:16.000Z</time>
      </trkpt>
      <trkpt lat="41.324422" lon="1.972713">
        <ele>211.9</ele>
        <time>1970-01-01T00:32:17.000Z</time>
      </trkpt>
      <trkpt lat="41.324417" lon="1.972685">
        <ele>211.9</ele>
        <time>1970-01-01T00:32:18.000Z</time>
      </trkpt>
      <trkpt lat="41.324417" lon="1.972685">
        <ele>211.9</ele>
        <time>1970-01-01T00:32:19.000Z</time>
      </trkpt>
      <trkpt lat="41.32441" lon="1.97263">
        <ele>211.9</ele>
        <time>1970-01-01T00:32:20.000Z</time>
      </trkpt>
      <trkpt lat="41.32441" lon="1.97263">
        <ele>211.9</ele>
        <time>1970-01-01T00:32:21.000Z</time>
      </trkpt>
      <trkpt lat="41.324405" lon="1.972573">
        <ele>212.9</ele>
        <time>1970-01-01T00:32:22.000Z</time>
      </trkpt>
      <trkpt lat="41.324405" lon="1.972573">
        <ele>212.9</ele>
        <time>1970-01-01T00:32:23.000Z</time>
      </trkpt>
      <trkpt lat="41.3244" lon="1.97252">
        <ele>212.9</ele>
        <time>1970-01-01T00:32:24.000Z</time>
      </trkpt>
      <trkpt lat="41.3244" lon="1.97252">
        <ele>212.9</ele>
        <time>1970-01-01T00:32:25.000Z</time>
      </trkpt>
      <trkpt lat="41.324398" lon="1.972463">
        <ele>213.9</ele>
        <time>1970-01-01T00:32:26.000Z</time>
      </trkpt>
      <trkpt lat="41.324398" lon="1.972463">
        <ele>213.9</ele>
        <time>1970-01-01T00:32:27.000Z</time>
      </trkpt>
      <trkpt lat="41.324383" lon="1.972405">
        <ele>213.9</ele>
        <time>1970-01-01T00:32:28.000Z</time>
      </trkpt>
      <trkpt lat="41.324378" lon="1.972377">
        <ele>214.9</ele>
        <time>1970-01-01T00:32:29.000Z</time>
      </trkpt>
      <trkpt lat="41.324378" lon="1.972377">
        <ele>214.9</ele>
        <time>1970-01-01T00:32:30.000Z</time>
      </trkpt>
      <trkpt lat="41.324373" lon="1.972322">
        <ele>214.9</ele>
        <time>1970-01-01T00:32:31.000Z</time>
      </trkpt>
      <trkpt lat="41.32437" lon="1.972295">
        <ele>214.9</ele>
        <time>1970-01-01T00:32:32.000Z</time>
      </trkpt>
      <trkpt lat="41.32437" lon="1.972295">
        <ele>215.9</ele>
        <time>1970-01-01T00:32:33.000Z</time>
      </trkpt>
      <trkpt lat="41.324368" lon="1.972237">
        <ele>215.9</ele>
        <time>1970-01-01T00:32:34.000Z</time>
      </trkpt>
      <trkpt lat="41.324367" lon="1.972207">
        <ele>215.9</ele>
        <time>1970-01-01T00:32:35.000Z</time>
      </trkpt>
      <trkpt lat="41.324367" lon="1.972207">
        <ele>215.9</ele>
        <time>1970-01-01T00:32:36.000Z</time>
      </trkpt>
      <trkpt lat="41.324363" lon="1.972143">
        <ele>215.9</ele>
        <time>1970-01-01T00:32:37.000Z</time>
      </trkpt>
      <trkpt lat="41.324358" lon="1.97211">
        <ele>215.9</ele>
        <time>1970-01-01T00:32:38.000Z</time>
      </trkpt>
      <trkpt lat="41.324358" lon="1.97211">
        <ele>215.9</ele>
        <time>1970-01-01T00:32:39.000Z</time>
      </trkpt>
      <trkpt lat="41.324358" lon="1.972045">
        <ele>215.9</ele>
        <time>1970-01-01T00:32:40.000Z</time>
      </trkpt>
      <trkpt lat="41.324358" lon="1.972045">
        <ele>215.9</ele>
        <time>1970-01-01T00:32:41.000Z</time>
      </trkpt>
      <trkpt lat="41.324368" lon="1.971973">
        <ele>215.9</ele>
        <time>1970-01-01T00:32:42.000Z</time>
      </trkpt>
      <trkpt lat="41.324377" lon="1.97194">
        <ele>215.9</ele>
        <time>1970-01-01T00:32:43.000Z</time>
      </trkpt>
      <trkpt lat="41.324387" lon="1.971908">
        <ele>215.9</ele>
        <time>1970-01-01T00:32:44.000Z</time>
      </trkpt>
      <trkpt lat="41.324387" lon="1.971908">
        <ele>215.9</ele>
        <time>1970-01-01T00:32:45.000Z</time>
      </trkpt>
      <trkpt lat="41.324413" lon="1.97185">
        <ele>215.9</ele>
        <time>1970-01-01T00:32:46.000Z</time>
      </trkpt>
      <trkpt lat="41.32443" lon="1.971827">
        <ele>216.9</ele>
        <time>1970-01-01T00:32:47.000Z</time>
      </trkpt>
      <trkpt lat="41.32443" lon="1.971827">
        <ele>216.9</ele>
        <time>1970-01-01T00:32:48.000Z</time>
      </trkpt>
      <trkpt lat="41.324465" lon="1.971787">
        <ele>216.9</ele>
        <time>1970-01-01T00:32:49.000Z</time>
      </trkpt>
      <trkpt lat="41.324465" lon="1.971787">
        <ele>216.9</ele>
        <time>1970-01-01T00:32:50.000Z</time>
      </trkpt>
      <trkpt lat="41.324498" lon="1.97175">
        <ele>217.9</ele>
        <time>1970-01-01T00:32:51.000Z</time>
      </trkpt>
      <trkpt lat="41.324518" lon="1.971733">
        <ele>217.9</ele>
        <time>1970-01-01T00:32:52.000Z</time>
      </trkpt>
      <trkpt lat="41.324518" lon="1.971733">
        <ele>217.9</ele>
        <time>1970-01-01T00:32:53.000Z</time>
      </trkpt>
      <trkpt lat="41.324553" lon="1.971692">
        <ele>217.9</ele>
        <time>1970-01-01T00:32:54.000Z</time>
      </trkpt>
      <trkpt lat="41.324553" lon="1.971692">
        <ele>217.9</ele>
        <time>1970-01-01T00:32:55.000Z</time>
      </trkpt>
      <trkpt lat="41.324582" lon="1.971642">
        <ele>217.9</ele>
        <time>1970-01-01T00:32:56.000Z</time>
      </trkpt>
      <trkpt lat="41.324582" lon="1.971642">
        <ele>218.9</ele>
        <time>1970-01-01T00:32:57.000Z</time>
      </trkpt>
      <trkpt lat="41.324597" lon="1.971587">
        <ele>218.9</ele>
        <time>1970-01-01T00:32:58.000Z</time>
      </trkpt>
      <trkpt lat="41.324597" lon="1.971587">
        <ele>218.9</ele>
        <time>1970-01-01T00:32:59.000Z</time>
      </trkpt>
      <trkpt lat="41.324595" lon="1.971518">
        <ele>218.9</ele>
        <time>1970-01-01T00:33:00.000Z</time>
      </trkpt>
      <trkpt lat="41.32459" lon="1.971487">
        <ele>218.9</ele>
        <time>1970-01-01T00:33:01.000Z</time>
      </trkpt>
      <trkpt lat="41.324585" lon="1.97146">
        <ele>218.9</ele>
        <time>1970-01-01T00:33:02.000Z</time>
      </trkpt>
      <trkpt lat="41.324585" lon="1.97146">
        <ele>219.9</ele>
        <time>1970-01-01T00:33:03.000Z</time>
      </trkpt>
      <trkpt lat="41.324573" lon="1.971402">
        <ele>219.9</ele>
        <time>1970-01-01T00:33:04.000Z</time>
      </trkpt>
      <trkpt lat="41.324573" lon="1.971402">
        <ele>219.9</ele>
        <time>1970-01-01T00:33:05.000Z</time>
      </trkpt>
      <trkpt lat="41.324558" lon="1.971347">
        <ele>219.9</ele>
        <time>1970-01-01T00:33:06.000Z</time>
      </trkpt>
      <trkpt lat="41.324558" lon="1.971347">
        <ele>219.9</ele>
        <time>1970-01-01T00:33:07.000Z</time>
      </trkpt>
      <trkpt lat="41.324538" lon="1.97129">
        <ele>219.9</ele>
        <time>1970-01-01T00:33:08.000Z</time>
      </trkpt>
      <trkpt lat="41.324538" lon="1.97129">
        <ele>220.9</ele>
        <time>1970-01-01T00:33:09.000Z</time>
      </trkpt>
      <trkpt lat="41.324522" lon="1.97123">
        <ele>220.9</ele>
        <time>1970-01-01T00:33:10.000Z</time>
      </trkpt>
      <trkpt lat="41.324522" lon="1.97123">
        <ele>220.9</ele>
        <time>1970-01-01T00:33:11.000Z</time>
      </trkpt>
      <trkpt lat="41.324508" lon="1.97117">
        <ele>220.9</ele>
        <time>1970-01-01T00:33:12.000Z</time>
      </trkpt>
      <trkpt lat="41.324505" lon="1.97114">
        <ele>220.9</ele>
        <time>1970-01-01T00:33:13.000Z</time>
      </trkpt>
      <trkpt lat="41.324505" lon="1.97114">
        <ele>220.9</ele>
        <time>1970-01-01T00:33:14.000Z</time>
      </trkpt>
      <trkpt lat="41.324498" lon="1.97108">
        <ele>220.9</ele>
        <time>1970-01-01T00:33:15.000Z</time>
      </trkpt>
      <trkpt lat="41.324498" lon="1.97108">
        <ele>220.9</ele>
        <time>1970-01-01T00:33:16.000Z</time>
      </trkpt>
      <trkpt lat="41.324503" lon="1.971017">
        <ele>221.9</ele>
        <time>1970-01-01T00:33:17.000Z</time>
      </trkpt>
      <trkpt lat="41.324503" lon="1.971017">
        <ele>221.9</ele>
        <time>1970-01-01T00:33:18.000Z</time>
      </trkpt>
      <trkpt lat="41.324527" lon="1.970953">
        <ele>221.9</ele>
        <time>1970-01-01T00:33:19.000Z</time>
      </trkpt>
      <trkpt lat="41.324527" lon="1.970953">
        <ele>222.9</ele>
        <time>1970-01-01T00:33:20.000Z</time>
      </trkpt>
      <trkpt lat="41.324563" lon="1.970895">
        <ele>222.9</ele>
        <time>1970-01-01T00:33:21.000Z</time>
      </trkpt>
      <trkpt lat="41.324563" lon="1.970895">
        <ele>222.9</ele>
        <time>1970-01-01T00:33:22.000Z</time>
      </trkpt>
      <trkpt lat="41.324598" lon="1.970845">
        <ele>222.9</ele>
        <time>1970-01-01T00:33:23.000Z</time>
      </trkpt>
      <trkpt lat="41.324617" lon="1.970818">
        <ele>222.9</ele>
        <time>1970-01-01T00:33:24.000Z</time>
      </trkpt>
      <trkpt lat="41.324617" lon="1.970818">
        <ele>222.9</ele>
        <time>1970-01-01T00:33:25.000Z</time>
      </trkpt>
      <trkpt lat="41.324652" lon="1.970772">
        <ele>222.9</ele>
        <time>1970-01-01T00:33:26.000Z</time>
      </trkpt>
      <trkpt lat="41.324652" lon="1.970772">
        <ele>222.9</ele>
        <time>1970-01-01T00:33:27.000Z</time>
      </trkpt>
      <trkpt lat="41.324687" lon="1.970718">
        <ele>223.9</ele>
        <time>1970-01-01T00:33:28.000Z</time>
      </trkpt>
      <trkpt lat="41.324687" lon="1.970718">
        <ele>223.9</ele>
        <time>1970-01-01T00:33:29.000Z</time>
      </trkpt>
      <trkpt lat="41.324715" lon="1.970673">
        <ele>223.9</ele>
        <time>1970-01-01T00:33:30.000Z</time>
      </trkpt>
      <trkpt lat="41.324725" lon="1.970647">
        <ele>223.9</ele>
        <time>1970-01-01T00:33:31.000Z</time>
      </trkpt>
      <trkpt lat="41.324733" lon="1.970613">
        <ele>223.9</ele>
        <time>1970-01-01T00:33:32.000Z</time>
      </trkpt>
      <trkpt lat="41.324738" lon="1.97058">
        <ele>223.9</ele>
        <time>1970-01-01T00:33:33.000Z</time>
      </trkpt>
      <trkpt lat="41.324738" lon="1.97058">
        <ele>223.9</ele>
        <time>1970-01-01T00:33:34.000Z</time>
      </trkpt>
      <trkpt lat="41.32475" lon="1.97051">
        <ele>223.9</ele>
        <time>1970-01-01T00:33:35.000Z</time>
      </trkpt>
      <trkpt lat="41.32475" lon="1.97051">
        <ele>223.9</ele>
        <time>1970-01-01T00:33:36.000Z</time>
      </trkpt>
      <trkpt lat="41.324755" lon="1.970438">
        <ele>224.9</ele>
        <time>1970-01-01T00:33:37.000Z</time>
      </trkpt>
      <trkpt lat="41.324755" lon="1.970438">
        <ele>224.9</ele>
        <time>1970-01-01T00:33:38.000Z</time>
      </trkpt>
      <trkpt lat="41.324752" lon="1.97037">
        <ele>224.9</ele>
        <time>1970-01-01T00:33:39.000Z</time>
      </trkpt>
      <trkpt lat="41.324752" lon="1.97037">
        <ele>224.9</ele>
        <time>1970-01-01T00:33:40.000Z</time>
      </trkpt>
      <trkpt lat="41.324752" lon="1.970298">
        <ele>224.9</ele>
        <time>1970-01-01T00:33:41.000Z</time>
      </trkpt>
      <trkpt lat="41.324752" lon="1.970298">
        <ele>224.9</ele>
        <time>1970-01-01T00:33:42.000Z</time>
      </trkpt>
      <trkpt lat="41.324757" lon="1.970227">
        <ele>224.9</ele>
        <time>1970-01-01T00:33:43.000Z</time>
      </trkpt>
      <trkpt lat="41.32476" lon="1.970188">
        <ele>224.9</ele>
        <time>1970-01-01T00:33:44.000Z</time>
      </trkpt>
      <trkpt lat="41.32476" lon="1.970188">
        <ele>224.9</ele>
        <time>1970-01-01T00:33:45.000Z</time>
      </trkpt>
      <trkpt lat="41.32477" lon="1.970123">
        <ele>224.9</ele>
        <time>1970-01-01T00:33:46.000Z</time>
      </trkpt>
      <trkpt lat="41.324777" lon="1.970088">
        <ele>224.9</ele>
        <time>1970-01-01T00:33:47.000Z</time>
      </trkpt>
      <trkpt lat="41.324777" lon="1.970088">
        <ele>224.9</ele>
        <time>1970-01-01T00:33:48.000Z</time>
      </trkpt>
      <trkpt lat="41.324795" lon="1.970022">
        <ele>224.9</ele>
        <time>1970-01-01T00:33:49.000Z</time>
      </trkpt>
      <trkpt lat="41.324795" lon="1.970022">
        <ele>224.9</ele>
        <time>1970-01-01T00:33:50.000Z</time>
      </trkpt>
      <trkpt lat="41.324823" lon="1.969955">
        <ele>224.9</ele>
        <time>1970-01-01T00:33:51.000Z</time>
      </trkpt>
      <trkpt lat="41.324823" lon="1.969955">
        <ele>224.9</ele>
        <time>1970-01-01T00:33:52.000Z</time>
      </trkpt>
      <trkpt lat="41.324862" lon="1.969898">
        <ele>225.9</ele>
        <time>1970-01-01T00:33:53.000Z</time>
      </trkpt>
      <trkpt lat="41.324862" lon="1.969898">
        <ele>225.9</ele>
        <time>1970-01-01T00:33:54.000Z</time>
      </trkpt>
      <trkpt lat="41.324897" lon="1.969843">
        <ele>225.9</ele>
        <time>1970-01-01T00:33:55.000Z</time>
      </trkpt>
      <trkpt lat="41.324917" lon="1.969817">
        <ele>225.9</ele>
        <time>1970-01-01T00:33:56.000Z</time>
      </trkpt>
      <trkpt lat="41.324917" lon="1.969817">
        <ele>225.9</ele>
        <time>1970-01-01T00:33:57.000Z</time>
      </trkpt>
      <trkpt lat="41.32496" lon="1.969768">
        <ele>225.9</ele>
        <time>1970-01-01T00:33:58.000Z</time>
      </trkpt>
      <trkpt lat="41.324982" lon="1.969747">
        <ele>225.9</ele>
        <time>1970-01-01T00:33:59.000Z</time>
      </trkpt>
      <trkpt lat="41.324982" lon="1.969747">
        <ele>225.9</ele>
        <time>1970-01-01T00:34:00.000Z</time>
      </trkpt>
      <trkpt lat="41.325028" lon="1.969698">
        <ele>226.9</ele>
        <time>1970-01-01T00:34:01.000Z</time>
      </trkpt>
      <trkpt lat="41.325055" lon="1.969673">
        <ele>226.9</ele>
        <time>1970-01-01T00:34:02.000Z</time>
      </trkpt>
      <trkpt lat="41.325055" lon="1.969673">
        <ele>226.9</ele>
        <time>1970-01-01T00:34:03.000Z</time>
      </trkpt>
      <trkpt lat="41.325103" lon="1.969618">
        <ele>226.9</ele>
        <time>1970-01-01T00:34:04.000Z</time>
      </trkpt>
      <trkpt lat="41.325103" lon="1.969618">
        <ele>226.9</ele>
        <time>1970-01-01T00:34:05.000Z</time>
      </trkpt>
      <trkpt lat="41.325148" lon="1.969557">
        <ele>227.9</ele>
        <time>1970-01-01T00:34:06.000Z</time>
      </trkpt>
      <trkpt lat="41.325148" lon="1.969557">
        <ele>227.9</ele>
        <time>1970-01-01T00:34:07.000Z</time>
      </trkpt>
      <trkpt lat="41.325183" lon="1.96949">
        <ele>227.9</ele>
        <time>1970-01-01T00:34:08.000Z</time>
      </trkpt>
      <trkpt lat="41.325183" lon="1.96949">
        <ele>227.9</ele>
        <time>1970-01-01T00:34:09.000Z</time>
      </trkpt>
      <trkpt lat="41.32521" lon="1.969425">
        <ele>227.9</ele>
        <time>1970-01-01T00:34:10.000Z</time>
      </trkpt>
      <trkpt lat="41.325223" lon="1.96939">
        <ele>227.9</ele>
        <time>1970-01-01T00:34:11.000Z</time>
      </trkpt>
      <trkpt lat="41.325223" lon="1.96939">
        <ele>228.9</ele>
        <time>1970-01-01T00:34:12.000Z</time>
      </trkpt>
      <trkpt lat="41.325245" lon="1.969317">
        <ele>228.9</ele>
        <time>1970-01-01T00:34:13.000Z</time>
      </trkpt>
      <trkpt lat="41.325255" lon="1.96928">
        <ele>228.9</ele>
        <time>1970-01-01T00:34:14.000Z</time>
      </trkpt>
      <trkpt lat="41.325255" lon="1.96928">
        <ele>228.9</ele>
        <time>1970-01-01T00:34:15.000Z</time>
      </trkpt>
      <trkpt lat="41.325268" lon="1.969203">
        <ele>228.9</ele>
        <time>1970-01-01T00:34:16.000Z</time>
      </trkpt>
      <trkpt lat="41.325268" lon="1.969203">
        <ele>228.9</ele>
        <time>1970-01-01T00:34:17.000Z</time>
      </trkpt>
      <trkpt lat="41.325278" lon="1.969132">
        <ele>228.9</ele>
        <time>1970-01-01T00:34:18.000Z</time>
      </trkpt>
      <trkpt lat="41.325278" lon="1.969132">
        <ele>228.9</ele>
        <time>1970-01-01T00:34:19.000Z</time>
      </trkpt>
      <trkpt lat="41.325273" lon="1.969058">
        <ele>228.9</ele>
        <time>1970-01-01T00:34:20.000Z</time>
      </trkpt>
      <trkpt lat="41.325273" lon="1.969058">
        <ele>228.9</ele>
        <time>1970-01-01T00:34:21.000Z</time>
      </trkpt>
      <trkpt lat="41.32525" lon="1.968987">
        <ele>229.9</ele>
        <time>1970-01-01T00:34:22.000Z</time>
      </trkpt>
      <trkpt lat="41.32525" lon="1.968987">
        <ele>229.9</ele>
        <time>1970-01-01T00:34:23.000Z</time>
      </trkpt>
      <trkpt lat="41.325215" lon="1.968925">
        <ele>229.9</ele>
        <time>1970-01-01T00:34:24.000Z</time>
      </trkpt>
      <trkpt lat="41.325215" lon="1.968925">
        <ele>229.9</ele>
        <time>1970-01-01T00:34:25.000Z</time>
      </trkpt>
      <trkpt lat="41.325215" lon="1.968925">
        <ele>230.9</ele>
        <time>1970-01-01T00:34:26.000Z</time>
      </trkpt>
      <trkpt lat="41.325168" lon="1.968873">
        <ele>230.9</ele>
        <time>1970-01-01T00:34:27.000Z</time>
      </trkpt>
      <trkpt lat="41.325115" lon="1.968832">
        <ele>230.9</ele>
        <time>1970-01-01T00:34:28.000Z</time>
      </trkpt>
      <trkpt lat="41.325115" lon="1.968832">
        <ele>230.9</ele>
        <time>1970-01-01T00:34:29.000Z</time>
      </trkpt>
      <trkpt lat="41.325053" lon="1.9688">
        <ele>230.9</ele>
        <time>1970-01-01T00:34:30.000Z</time>
      </trkpt>
      <trkpt lat="41.325053" lon="1.9688">
        <ele>230.9</ele>
        <time>1970-01-01T00:34:31.000Z</time>
      </trkpt>
      <trkpt lat="41.324987" lon="1.968778">
        <ele>230.9</ele>
        <time>1970-01-01T00:34:32.000Z</time>
      </trkpt>
      <trkpt lat="41.324987" lon="1.968778">
        <ele>230.9</ele>
        <time>1970-01-01T00:34:33.000Z</time>
      </trkpt>
      <trkpt lat="41.324922" lon="1.968757">
        <ele>230.9</ele>
        <time>1970-01-01T00:34:34.000Z</time>
      </trkpt>
      <trkpt lat="41.324922" lon="1.968757">
        <ele>230.9</ele>
        <time>1970-01-01T00:34:35.000Z</time>
      </trkpt>
      <trkpt lat="41.324855" lon="1.968743">
        <ele>230.9</ele>
        <time>1970-01-01T00:34:36.000Z</time>
      </trkpt>
      <trkpt lat="41.324855" lon="1.968743">
        <ele>230.9</ele>
        <time>1970-01-01T00:34:37.000Z</time>
      </trkpt>
      <trkpt lat="41.32479" lon="1.96873">
        <ele>230.9</ele>
        <time>1970-01-01T00:34:38.000Z</time>
      </trkpt>
      <trkpt lat="41.32479" lon="1.96873">
        <ele>230.9</ele>
        <time>1970-01-01T00:34:39.000Z</time>
      </trkpt>
      <trkpt lat="41.32473" lon="1.968717">
        <ele>231.9</ele>
        <time>1970-01-01T00:34:40.000Z</time>
      </trkpt>
      <trkpt lat="41.32473" lon="1.968717">
        <ele>231.9</ele>
        <time>1970-01-01T00:34:41.000Z</time>
      </trkpt>
      <trkpt lat="41.32468" lon="1.968693">
        <ele>231.9</ele>
        <time>1970-01-01T00:34:42.000Z</time>
      </trkpt>
      <trkpt lat="41.324652" lon="1.96868">
        <ele>231.9</ele>
        <time>1970-01-01T00:34:43.000Z</time>
      </trkpt>
      <trkpt lat="41.324652" lon="1.96868">
        <ele>231.9</ele>
        <time>1970-01-01T00:34:44.000Z</time>
      </trkpt>
      <trkpt lat="41.324592" lon="1.968653">
        <ele>231.9</ele>
        <time>1970-01-01T00:34:45.000Z</time>
      </trkpt>
      <trkpt lat="41.324592" lon="1.968653">
        <ele>231.9</ele>
        <time>1970-01-01T00:34:46.000Z</time>
      </trkpt>
      <trkpt lat="41.324538" lon="1.968622">
        <ele>231.9</ele>
        <time>1970-01-01T00:34:47.000Z</time>
      </trkpt>
      <trkpt lat="41.324538" lon="1.968622">
        <ele>231.9</ele>
        <time>1970-01-01T00:34:48.000Z</time>
      </trkpt>
      <trkpt lat="41.324498" lon="1.968572">
        <ele>232.9</ele>
        <time>1970-01-01T00:34:49.000Z</time>
      </trkpt>
      <trkpt lat="41.324498" lon="1.968572">
        <ele>232.9</ele>
        <time>1970-01-01T00:34:50.000Z</time>
      </trkpt>
      <trkpt lat="41.324465" lon="1.968513">
        <ele>232.9</ele>
        <time>1970-01-01T00:34:51.000Z</time>
      </trkpt>
      <trkpt lat="41.324465" lon="1.968513">
        <ele>232.9</ele>
        <time>1970-01-01T00:34:52.000Z</time>
      </trkpt>
      <trkpt lat="41.324437" lon="1.96844">
        <ele>232.9</ele>
        <time>1970-01-01T00:34:53.000Z</time>
      </trkpt>
      <trkpt lat="41.324437" lon="1.96844">
        <ele>232.9</ele>
        <time>1970-01-01T00:34:54.000Z</time>
      </trkpt>
      <trkpt lat="41.324407" lon="1.96837">
        <ele>232.9</ele>
        <time>1970-01-01T00:34:55.000Z</time>
      </trkpt>
      <trkpt lat="41.32439" lon="1.968333">
        <ele>232.9</ele>
        <time>1970-01-01T00:34:56.000Z</time>
      </trkpt>
      <trkpt lat="41.32439" lon="1.968333">
        <ele>233.9</ele>
        <time>1970-01-01T00:34:57.000Z</time>
      </trkpt>
      <trkpt lat="41.324355" lon="1.968262">
        <ele>233.9</ele>
        <time>1970-01-01T00:34:58.000Z</time>
      </trkpt>
      <trkpt lat="41.324355" lon="1.968262">
        <ele>233.9</ele>
        <time>1970-01-01T00:34:59.000Z</time>
      </trkpt>
      <trkpt lat="41.324315" lon="1.968188">
        <ele>233.9</ele>
        <time>1970-01-01T00:35:00.000Z</time>
      </trkpt>
      <trkpt lat="41.324315" lon="1.968188">
        <ele>233.9</ele>
        <time>1970-01-01T00:35:01.000Z</time>
      </trkpt>
      <trkpt lat="41.324277" lon="1.968113">
        <ele>233.9</ele>
        <time>1970-01-01T00:35:02.000Z</time>
      </trkpt>
      <trkpt lat="41.324277" lon="1.968113">
        <ele>233.9</ele>
        <time>1970-01-01T00:35:03.000Z</time>
      </trkpt>
      <trkpt lat="41.32424" lon="1.968033">
        <ele>233.9</ele>
        <time>1970-01-01T00:35:04.000Z</time>
      </trkpt>
      <trkpt lat="41.32424" lon="1.968033">
        <ele>234.9</ele>
        <time>1970-01-01T00:35:05.000Z</time>
      </trkpt>
      <trkpt lat="41.324218" lon="1.967948">
        <ele>234.9</ele>
        <time>1970-01-01T00:35:06.000Z</time>
      </trkpt>
      <trkpt lat="41.324218" lon="1.967948">
        <ele>234.9</ele>
        <time>1970-01-01T00:35:07.000Z</time>
      </trkpt>
      <trkpt lat="41.324202" lon="1.967858">
        <ele>234.9</ele>
        <time>1970-01-01T00:35:08.000Z</time>
      </trkpt>
      <trkpt lat="41.324202" lon="1.967858">
        <ele>234.9</ele>
        <time>1970-01-01T00:35:09.000Z</time>
      </trkpt>
      <trkpt lat="41.324203" lon="1.967762">
        <ele>234.9</ele>
        <time>1970-01-01T00:35:10.000Z</time>
      </trkpt>
      <trkpt lat="41.324203" lon="1.967762">
        <ele>234.9</ele>
        <time>1970-01-01T00:35:11.000Z</time>
      </trkpt>
      <trkpt lat="41.324227" lon="1.967662">
        <ele>234.9</ele>
        <time>1970-01-01T00:35:12.000Z</time>
      </trkpt>
      <trkpt lat="41.324227" lon="1.967662">
        <ele>234.9</ele>
        <time>1970-01-01T00:35:13.000Z</time>
      </trkpt>
      <trkpt lat="41.324268" lon="1.967567">
        <ele>234.9</ele>
        <time>1970-01-01T00:35:14.000Z</time>
      </trkpt>
      <trkpt lat="41.324293" lon="1.96752">
        <ele>234.9</ele>
        <time>1970-01-01T00:35:15.000Z</time>
      </trkpt>
      <trkpt lat="41.324293" lon="1.96752">
        <ele>234.9</ele>
        <time>1970-01-01T00:35:16.000Z</time>
      </trkpt>
      <trkpt lat="41.324337" lon="1.967432">
        <ele>235.9</ele>
        <time>1970-01-01T00:35:17.000Z</time>
      </trkpt>
      <trkpt lat="41.324353" lon="1.967382">
        <ele>235.9</ele>
        <time>1970-01-01T00:35:18.000Z</time>
      </trkpt>
      <trkpt lat="41.324353" lon="1.967382">
        <ele>235.9</ele>
        <time>1970-01-01T00:35:19.000Z</time>
      </trkpt>
      <trkpt lat="41.32436" lon="1.967277">
        <ele>235.9</ele>
        <time>1970-01-01T00:35:20.000Z</time>
      </trkpt>
      <trkpt lat="41.32436" lon="1.967277">
        <ele>235.9</ele>
        <time>1970-01-01T00:35:21.000Z</time>
      </trkpt>
      <trkpt lat="41.324315" lon="1.9672">
        <ele>235.9</ele>
        <time>1970-01-01T00:35:22.000Z</time>
      </trkpt>
      <trkpt lat="41.324277" lon="1.967182">
        <ele>235.9</ele>
        <time>1970-01-01T00:35:23.000Z</time>
      </trkpt>
      <trkpt lat="41.324277" lon="1.967182">
        <ele>235.9</ele>
        <time>1970-01-01T00:35:24.000Z</time>
      </trkpt>
      <trkpt lat="41.324195" lon="1.967168">
        <ele>235.9</ele>
        <time>1970-01-01T00:35:25.000Z</time>
      </trkpt>
      <trkpt lat="41.324195" lon="1.967168">
        <ele>235.9</ele>
        <time>1970-01-01T00:35:26.000Z</time>
      </trkpt>
      <trkpt lat="41.324108" lon="1.967148">
        <ele>235.9</ele>
        <time>1970-01-01T00:35:27.000Z</time>
      </trkpt>
      <trkpt lat="41.324108" lon="1.967148">
        <ele>235.9</ele>
        <time>1970-01-01T00:35:28.000Z</time>
      </trkpt>
      <trkpt lat="41.324027" lon="1.9671">
        <ele>235.9</ele>
        <time>1970-01-01T00:35:29.000Z</time>
      </trkpt>
      <trkpt lat="41.324027" lon="1.9671">
        <ele>235.9</ele>
        <time>1970-01-01T00:35:30.000Z</time>
      </trkpt>
      <trkpt lat="41.323972" lon="1.966997">
        <ele>235.9</ele>
        <time>1970-01-01T00:35:31.000Z</time>
      </trkpt>
      <trkpt lat="41.32395" lon="1.966942">
        <ele>235.9</ele>
        <time>1970-01-01T00:35:32.000Z</time>
      </trkpt>
      <trkpt lat="41.32395" lon="1.966942">
        <ele>235.9</ele>
        <time>1970-01-01T00:35:33.000Z</time>
      </trkpt>
      <trkpt lat="41.323895" lon="1.966833">
        <ele>235.9</ele>
        <time>1970-01-01T00:35:34.000Z</time>
      </trkpt>
      <trkpt lat="41.323895" lon="1.966833">
        <ele>235.9</ele>
        <time>1970-01-01T00:35:35.000Z</time>
      </trkpt>
      <trkpt lat="41.323825" lon="1.966743">
        <ele>235.9</ele>
        <time>1970-01-01T00:35:36.000Z</time>
      </trkpt>
      <trkpt lat="41.323825" lon="1.966743">
        <ele>235.9</ele>
        <time>1970-01-01T00:35:37.000Z</time>
      </trkpt>
      <trkpt lat="41.323755" lon="1.966642">
        <ele>235.9</ele>
        <time>1970-01-01T00:35:38.000Z</time>
      </trkpt>
      <trkpt lat="41.323755" lon="1.966642">
        <ele>235.9</ele>
        <time>1970-01-01T00:35:39.000Z</time>
      </trkpt>
      <trkpt lat="41.32369" lon="1.96653">
        <ele>235.9</ele>
        <time>1970-01-01T00:35:40.000Z</time>
      </trkpt>
      <trkpt lat="41.32369" lon="1.96653">
        <ele>235.9</ele>
        <time>1970-01-01T00:35:41.000Z</time>
      </trkpt>
      <trkpt lat="41.323628" lon="1.96642">
        <ele>235.9</ele>
        <time>1970-01-01T00:35:42.000Z</time>
      </trkpt>
      <trkpt lat="41.323602" lon="1.966367">
        <ele>235.9</ele>
        <time>1970-01-01T00:35:43.000Z</time>
      </trkpt>
      <trkpt lat="41.323602" lon="1.966367">
        <ele>235.9</ele>
        <time>1970-01-01T00:35:44.000Z</time>
      </trkpt>
      <trkpt lat="41.323547" lon="1.966258">
        <ele>235.9</ele>
        <time>1970-01-01T00:35:45.000Z</time>
      </trkpt>
      <trkpt lat="41.323547" lon="1.966258">
        <ele>235.9</ele>
        <time>1970-01-01T00:35:46.000Z</time>
      </trkpt>
      <trkpt lat="41.323498" lon="1.96615">
        <ele>235.9</ele>
        <time>1970-01-01T00:35:47.000Z</time>
      </trkpt>
      <trkpt lat="41.323498" lon="1.96615">
        <ele>235.9</ele>
        <time>1970-01-01T00:35:48.000Z</time>
      </trkpt>
      <trkpt lat="41.323448" lon="1.966043">
        <ele>235.9</ele>
        <time>1970-01-01T00:35:49.000Z</time>
      </trkpt>
      <trkpt lat="41.323422" lon="1.965992">
        <ele>235.9</ele>
        <time>1970-01-01T00:35:50.000Z</time>
      </trkpt>
      <trkpt lat="41.3234" lon="1.965942">
        <ele>235.9</ele>
        <time>1970-01-01T00:35:51.000Z</time>
      </trkpt>
      <trkpt lat="41.3234" lon="1.965942">
        <ele>235.9</ele>
        <time>1970-01-01T00:35:52.000Z</time>
      </trkpt>
      <trkpt lat="41.323373" lon="1.96585">
        <ele>235.9</ele>
        <time>1970-01-01T00:35:53.000Z</time>
      </trkpt>
      <trkpt lat="41.323373" lon="1.96585">
        <ele>235.9</ele>
        <time>1970-01-01T00:35:54.000Z</time>
      </trkpt>
      <trkpt lat="41.32336" lon="1.96576">
        <ele>235.9</ele>
        <time>1970-01-01T00:35:55.000Z</time>
      </trkpt>
      <trkpt lat="41.32335" lon="1.965718">
        <ele>235.9</ele>
        <time>1970-01-01T00:35:56.000Z</time>
      </trkpt>
      <trkpt lat="41.32335" lon="1.965718">
        <ele>236.9</ele>
        <time>1970-01-01T00:35:57.000Z</time>
      </trkpt>
      <trkpt lat="41.323332" lon="1.965643">
        <ele>236.9</ele>
        <time>1970-01-01T00:35:58.000Z</time>
      </trkpt>
      <trkpt lat="41.323332" lon="1.965643">
        <ele>236.9</ele>
        <time>1970-01-01T00:35:59.000Z</time>
      </trkpt>
      <trkpt lat="41.323313" lon="1.96557">
        <ele>236.9</ele>
        <time>1970-01-01T00:36:00.000Z</time>
      </trkpt>
      <trkpt lat="41.323303" lon="1.965535">
        <ele>237.9</ele>
        <time>1970-01-01T00:36:01.000Z</time>
      </trkpt>
      <trkpt lat="41.323303" lon="1.965535">
        <ele>237.9</ele>
        <time>1970-01-01T00:36:02.000Z</time>
      </trkpt>
      <trkpt lat="41.323285" lon="1.965473">
        <ele>238.9</ele>
        <time>1970-01-01T00:36:03.000Z</time>
      </trkpt>
      <trkpt lat="41.323285" lon="1.965473">
        <ele>238.9</ele>
        <time>1970-01-01T00:36:04.000Z</time>
      </trkpt>
      <trkpt lat="41.323267" lon="1.965415">
        <ele>238.9</ele>
        <time>1970-01-01T00:36:05.000Z</time>
      </trkpt>
      <trkpt lat="41.323267" lon="1.965415">
        <ele>239.9</ele>
        <time>1970-01-01T00:36:06.000Z</time>
      </trkpt>
      <trkpt lat="41.323243" lon="1.965357">
        <ele>239.9</ele>
        <time>1970-01-01T00:36:07.000Z</time>
      </trkpt>
      <trkpt lat="41.323232" lon="1.965327">
        <ele>239.9</ele>
        <time>1970-01-01T00:36:08.000Z</time>
      </trkpt>
      <trkpt lat="41.323217" lon="1.965295">
        <ele>239.9</ele>
        <time>1970-01-01T00:36:09.000Z</time>
      </trkpt>
      <trkpt lat="41.323217" lon="1.965295">
        <ele>239.9</ele>
        <time>1970-01-01T00:36:10.000Z</time>
      </trkpt>
      <trkpt lat="41.323193" lon="1.965232">
        <ele>241.9</ele>
        <time>1970-01-01T00:36:11.000Z</time>
      </trkpt>
      <trkpt lat="41.323193" lon="1.965232">
        <ele>241.9</ele>
        <time>1970-01-01T00:36:12.000Z</time>
      </trkpt>
      <trkpt lat="41.323168" lon="1.965168">
        <ele>241.9</ele>
        <time>1970-01-01T00:36:13.000Z</time>
      </trkpt>
      <trkpt lat="41.323157" lon="1.965137">
        <ele>241.9</ele>
        <time>1970-01-01T00:36:14.000Z</time>
      </trkpt>
      <trkpt lat="41.323157" lon="1.965137">
        <ele>242.9</ele>
        <time>1970-01-01T00:36:15.000Z</time>
      </trkpt>
      <trkpt lat="41.323127" lon="1.965078">
        <ele>242.9</ele>
        <time>1970-01-01T00:36:16.000Z</time>
      </trkpt>
      <trkpt lat="41.323112" lon="1.965053">
        <ele>242.9</ele>
        <time>1970-01-01T00:36:17.000Z</time>
      </trkpt>
      <trkpt lat="41.323112" lon="1.965053">
        <ele>242.9</ele>
        <time>1970-01-01T00:36:18.000Z</time>
      </trkpt>
      <trkpt lat="41.32308" lon="1.964997">
        <ele>242.9</ele>
        <time>1970-01-01T00:36:19.000Z</time>
      </trkpt>
      <trkpt lat="41.323067" lon="1.964965">
        <ele>243.9</ele>
        <time>1970-01-01T00:36:20.000Z</time>
      </trkpt>
      <trkpt lat="41.323067" lon="1.964965">
        <ele>243.9</ele>
        <time>1970-01-01T00:36:21.000Z</time>
      </trkpt>
      <trkpt lat="41.323037" lon="1.964905">
        <ele>243.9</ele>
        <time>1970-01-01T00:36:22.000Z</time>
      </trkpt>
      <trkpt lat="41.323037" lon="1.964905">
        <ele>243.9</ele>
        <time>1970-01-01T00:36:23.000Z</time>
      </trkpt>
      <trkpt lat="41.323008" lon="1.964845">
        <ele>244.9</ele>
        <time>1970-01-01T00:36:24.000Z</time>
      </trkpt>
      <trkpt lat="41.322995" lon="1.964818">
        <ele>244.9</ele>
        <time>1970-01-01T00:36:25.000Z</time>
      </trkpt>
      <trkpt lat="41.322995" lon="1.964818">
        <ele>244.9</ele>
        <time>1970-01-01T00:36:26.000Z</time>
      </trkpt>
      <trkpt lat="41.322967" lon="1.964765">
        <ele>244.9</ele>
        <time>1970-01-01T00:36:27.000Z</time>
      </trkpt>
      <trkpt lat="41.322967" lon="1.964765">
        <ele>244.9</ele>
        <time>1970-01-01T00:36:28.000Z</time>
      </trkpt>
      <trkpt lat="41.322945" lon="1.964712">
        <ele>244.9</ele>
        <time>1970-01-01T00:36:29.000Z</time>
      </trkpt>
      <trkpt lat="41.322945" lon="1.964712">
        <ele>244.9</ele>
        <time>1970-01-01T00:36:30.000Z</time>
      </trkpt>
      <trkpt lat="41.32292" lon="1.96466">
        <ele>244.9</ele>
        <time>1970-01-01T00:36:31.000Z</time>
      </trkpt>
      <trkpt lat="41.322907" lon="1.964633">
        <ele>244.9</ele>
        <time>1970-01-01T00:36:32.000Z</time>
      </trkpt>
      <trkpt lat="41.322907" lon="1.964633">
        <ele>244.9</ele>
        <time>1970-01-01T00:36:33.000Z</time>
      </trkpt>
      <trkpt lat="41.322875" lon="1.964587">
        <ele>245.9</ele>
        <time>1970-01-01T00:36:34.000Z</time>
      </trkpt>
      <trkpt lat="41.322875" lon="1.964587">
        <ele>245.9</ele>
        <time>1970-01-01T00:36:35.000Z</time>
      </trkpt>
      <trkpt lat="41.322842" lon="1.964542">
        <ele>245.9</ele>
        <time>1970-01-01T00:36:36.000Z</time>
      </trkpt>
      <trkpt lat="41.322842" lon="1.964542">
        <ele>245.9</ele>
        <time>1970-01-01T00:36:37.000Z</time>
      </trkpt>
      <trkpt lat="41.322808" lon="1.964498">
        <ele>245.9</ele>
        <time>1970-01-01T00:36:38.000Z</time>
      </trkpt>
      <trkpt lat="41.322808" lon="1.964498">
        <ele>245.9</ele>
        <time>1970-01-01T00:36:39.000Z</time>
      </trkpt>
      <trkpt lat="41.322775" lon="1.964455">
        <ele>245.9</ele>
        <time>1970-01-01T00:36:40.000Z</time>
      </trkpt>
      <trkpt lat="41.322758" lon="1.96443">
        <ele>246.9</ele>
        <time>1970-01-01T00:36:41.000Z</time>
      </trkpt>
      <trkpt lat="41.322758" lon="1.96443">
        <ele>246.9</ele>
        <time>1970-01-01T00:36:42.000Z</time>
      </trkpt>
      <trkpt lat="41.322727" lon="1.96438">
        <ele>246.9</ele>
        <time>1970-01-01T00:36:43.000Z</time>
      </trkpt>
      <trkpt lat="41.322712" lon="1.964355">
        <ele>246.9</ele>
        <time>1970-01-01T00:36:44.000Z</time>
      </trkpt>
      <trkpt lat="41.322695" lon="1.964333">
        <ele>246.9</ele>
        <time>1970-01-01T00:36:45.000Z</time>
      </trkpt>
      <trkpt lat="41.322695" lon="1.964333">
        <ele>246.9</ele>
        <time>1970-01-01T00:36:46.000Z</time>
      </trkpt>
      <trkpt lat="41.322663" lon="1.964282">
        <ele>247.9</ele>
        <time>1970-01-01T00:36:47.000Z</time>
      </trkpt>
      <trkpt lat="41.322663" lon="1.964282">
        <ele>247.9</ele>
        <time>1970-01-01T00:36:48.000Z</time>
      </trkpt>
      <trkpt lat="41.322632" lon="1.964235">
        <ele>247.9</ele>
        <time>1970-01-01T00:36:49.000Z</time>
      </trkpt>
      <trkpt lat="41.322632" lon="1.964235">
        <ele>247.9</ele>
        <time>1970-01-01T00:36:50.000Z</time>
      </trkpt>
      <trkpt lat="41.322597" lon="1.964182">
        <ele>247.9</ele>
        <time>1970-01-01T00:36:51.000Z</time>
      </trkpt>
      <trkpt lat="41.322597" lon="1.964182">
        <ele>247.9</ele>
        <time>1970-01-01T00:36:52.000Z</time>
      </trkpt>
      <trkpt lat="41.322563" lon="1.964118">
        <ele>247.9</ele>
        <time>1970-01-01T00:36:53.000Z</time>
      </trkpt>
      <trkpt lat="41.322563" lon="1.964118">
        <ele>247.9</ele>
        <time>1970-01-01T00:36:54.000Z</time>
      </trkpt>
      <trkpt lat="41.322538" lon="1.964037">
        <ele>247.9</ele>
        <time>1970-01-01T00:36:55.000Z</time>
      </trkpt>
      <trkpt lat="41.322527" lon="1.963992">
        <ele>247.9</ele>
        <time>1970-01-01T00:36:56.000Z</time>
      </trkpt>
      <trkpt lat="41.322527" lon="1.963992">
        <ele>247.9</ele>
        <time>1970-01-01T00:36:57.000Z</time>
      </trkpt>
      <trkpt lat="41.322503" lon="1.963903">
        <ele>247.9</ele>
        <time>1970-01-01T00:36:58.000Z</time>
      </trkpt>
      <trkpt lat="41.322488" lon="1.963863">
        <ele>247.9</ele>
        <time>1970-01-01T00:36:59.000Z</time>
      </trkpt>
      <trkpt lat="41.322488" lon="1.963863">
        <ele>247.9</ele>
        <time>1970-01-01T00:37:00.000Z</time>
      </trkpt>
      <trkpt lat="41.322467" lon="1.963788">
        <ele>247.9</ele>
        <time>1970-01-01T00:37:01.000Z</time>
      </trkpt>
      <trkpt lat="41.322467" lon="1.963788">
        <ele>247.9</ele>
        <time>1970-01-01T00:37:02.000Z</time>
      </trkpt>
      <trkpt lat="41.322467" lon="1.96371">
        <ele>247.9</ele>
        <time>1970-01-01T00:37:03.000Z</time>
      </trkpt>
      <trkpt lat="41.322467" lon="1.96371">
        <ele>247.9</ele>
        <time>1970-01-01T00:37:04.000Z</time>
      </trkpt>
      <trkpt lat="41.322473" lon="1.963635">
        <ele>247.9</ele>
        <time>1970-01-01T00:37:05.000Z</time>
      </trkpt>
      <trkpt lat="41.322473" lon="1.963635">
        <ele>247.9</ele>
        <time>1970-01-01T00:37:06.000Z</time>
      </trkpt>
      <trkpt lat="41.322488" lon="1.963563">
        <ele>247.9</ele>
        <time>1970-01-01T00:37:07.000Z</time>
      </trkpt>
      <trkpt lat="41.322488" lon="1.963563">
        <ele>247.9</ele>
        <time>1970-01-01T00:37:08.000Z</time>
      </trkpt>
      <trkpt lat="41.322497" lon="1.963495">
        <ele>247.9</ele>
        <time>1970-01-01T00:37:09.000Z</time>
      </trkpt>
      <trkpt lat="41.3225" lon="1.963458">
        <ele>247.9</ele>
        <time>1970-01-01T00:37:10.000Z</time>
      </trkpt>
      <trkpt lat="41.3225" lon="1.963458">
        <ele>247.9</ele>
        <time>1970-01-01T00:37:11.000Z</time>
      </trkpt>
      <trkpt lat="41.322497" lon="1.963385">
        <ele>247.9</ele>
        <time>1970-01-01T00:37:12.000Z</time>
      </trkpt>
      <trkpt lat="41.322492" lon="1.963353">
        <ele>248.9</ele>
        <time>1970-01-01T00:37:13.000Z</time>
      </trkpt>
      <trkpt lat="41.322488" lon="1.963327">
        <ele>248.9</ele>
        <time>1970-01-01T00:37:14.000Z</time>
      </trkpt>
      <trkpt lat="41.322488" lon="1.963327">
        <ele>248.9</ele>
        <time>1970-01-01T00:37:15.000Z</time>
      </trkpt>
      <trkpt lat="41.322487" lon="1.963268">
        <ele>248.9</ele>
        <time>1970-01-01T00:37:16.000Z</time>
      </trkpt>
      <trkpt lat="41.322487" lon="1.963268">
        <ele>249.9</ele>
        <time>1970-01-01T00:37:17.000Z</time>
      </trkpt>
      <trkpt lat="41.322487" lon="1.963197">
        <ele>249.9</ele>
        <time>1970-01-01T00:37:18.000Z</time>
      </trkpt>
      <trkpt lat="41.322487" lon="1.963197">
        <ele>249.9</ele>
        <time>1970-01-01T00:37:19.000Z</time>
      </trkpt>
      <trkpt lat="41.322502" lon="1.963122">
        <ele>249.9</ele>
        <time>1970-01-01T00:37:20.000Z</time>
      </trkpt>
      <trkpt lat="41.322502" lon="1.963122">
        <ele>249.9</ele>
        <time>1970-01-01T00:37:21.000Z</time>
      </trkpt>
      <trkpt lat="41.322523" lon="1.963048">
        <ele>249.9</ele>
        <time>1970-01-01T00:37:22.000Z</time>
      </trkpt>
      <trkpt lat="41.322523" lon="1.963048">
        <ele>249.9</ele>
        <time>1970-01-01T00:37:23.000Z</time>
      </trkpt>
      <trkpt lat="41.322537" lon="1.96298">
        <ele>249.9</ele>
        <time>1970-01-01T00:37:24.000Z</time>
      </trkpt>
      <trkpt lat="41.322542" lon="1.962947">
        <ele>249.9</ele>
        <time>1970-01-01T00:37:25.000Z</time>
      </trkpt>
      <trkpt lat="41.322555" lon="1.96292">
        <ele>249.9</ele>
        <time>1970-01-01T00:37:26.000Z</time>
      </trkpt>
      <trkpt lat="41.322557" lon="1.962888">
        <ele>249.9</ele>
        <time>1970-01-01T00:37:27.000Z</time>
      </trkpt>
      <trkpt lat="41.322557" lon="1.962888">
        <ele>249.9</ele>
        <time>1970-01-01T00:37:28.000Z</time>
      </trkpt>
      <trkpt lat="41.32257" lon="1.962803">
        <ele>250.9</ele>
        <time>1970-01-01T00:37:29.000Z</time>
      </trkpt>
      <trkpt lat="41.32257" lon="1.962803">
        <ele>250.9</ele>
        <time>1970-01-01T00:37:30.000Z</time>
      </trkpt>
      <trkpt lat="41.322572" lon="1.962728">
        <ele>250.9</ele>
        <time>1970-01-01T00:37:31.000Z</time>
      </trkpt>
      <trkpt lat="41.32257" lon="1.962692">
        <ele>250.9</ele>
        <time>1970-01-01T00:37:32.000Z</time>
      </trkpt>
      <trkpt lat="41.32257" lon="1.962692">
        <ele>251.9</ele>
        <time>1970-01-01T00:37:33.000Z</time>
      </trkpt>
      <trkpt lat="41.322562" lon="1.962627">
        <ele>251.9</ele>
        <time>1970-01-01T00:37:34.000Z</time>
      </trkpt>
      <trkpt lat="41.322558" lon="1.962593">
        <ele>251.9</ele>
        <time>1970-01-01T00:37:35.000Z</time>
      </trkpt>
      <trkpt lat="41.322558" lon="1.962593">
        <ele>251.9</ele>
        <time>1970-01-01T00:37:36.000Z</time>
      </trkpt>
      <trkpt lat="41.322552" lon="1.962515">
        <ele>251.9</ele>
        <time>1970-01-01T00:37:37.000Z</time>
      </trkpt>
      <trkpt lat="41.322552" lon="1.962515">
        <ele>252.9</ele>
        <time>1970-01-01T00:37:38.000Z</time>
      </trkpt>
      <trkpt lat="41.322548" lon="1.962433">
        <ele>252.9</ele>
        <time>1970-01-01T00:37:39.000Z</time>
      </trkpt>
      <trkpt lat="41.322548" lon="1.962433">
        <ele>252.9</ele>
        <time>1970-01-01T00:37:40.000Z</time>
      </trkpt>
      <trkpt lat="41.322548" lon="1.962353">
        <ele>252.9</ele>
        <time>1970-01-01T00:37:41.000Z</time>
      </trkpt>
      <trkpt lat="41.322548" lon="1.962353">
        <ele>252.9</ele>
        <time>1970-01-01T00:37:42.000Z</time>
      </trkpt>
      <trkpt lat="41.322562" lon="1.96227">
        <ele>252.9</ele>
        <time>1970-01-01T00:37:43.000Z</time>
      </trkpt>
      <trkpt lat="41.322568" lon="1.962232">
        <ele>252.9</ele>
        <time>1970-01-01T00:37:44.000Z</time>
      </trkpt>
      <trkpt lat="41.322568" lon="1.962232">
        <ele>252.9</ele>
        <time>1970-01-01T00:37:45.000Z</time>
      </trkpt>
      <trkpt lat="41.32258" lon="1.962158">
        <ele>252.9</ele>
        <time>1970-01-01T00:37:46.000Z</time>
      </trkpt>
      <trkpt lat="41.32258" lon="1.962158">
        <ele>252.9</ele>
        <time>1970-01-01T00:37:47.000Z</time>
      </trkpt>
      <trkpt lat="41.322593" lon="1.962085">
        <ele>253.9</ele>
        <time>1970-01-01T00:37:48.000Z</time>
      </trkpt>
      <trkpt lat="41.322593" lon="1.962085">
        <ele>253.9</ele>
        <time>1970-01-01T00:37:49.000Z</time>
      </trkpt>
      <trkpt lat="41.322608" lon="1.96202">
        <ele>253.9</ele>
        <time>1970-01-01T00:37:50.000Z</time>
      </trkpt>
      <trkpt lat="41.322608" lon="1.96202">
        <ele>253.9</ele>
        <time>1970-01-01T00:37:51.000Z</time>
      </trkpt>
      <trkpt lat="41.322622" lon="1.961958">
        <ele>253.9</ele>
        <time>1970-01-01T00:37:52.000Z</time>
      </trkpt>
      <trkpt lat="41.322622" lon="1.961925">
        <ele>253.9</ele>
        <time>1970-01-01T00:37:53.000Z</time>
      </trkpt>
      <trkpt lat="41.322622" lon="1.961925">
        <ele>253.9</ele>
        <time>1970-01-01T00:37:54.000Z</time>
      </trkpt>
      <trkpt lat="41.322627" lon="1.961855">
        <ele>253.9</ele>
        <time>1970-01-01T00:37:55.000Z</time>
      </trkpt>
      <trkpt lat="41.322625" lon="1.96182">
        <ele>254.9</ele>
        <time>1970-01-01T00:37:56.000Z</time>
      </trkpt>
      <trkpt lat="41.322625" lon="1.96182">
        <ele>254.9</ele>
        <time>1970-01-01T00:37:57.000Z</time>
      </trkpt>
      <trkpt lat="41.32262" lon="1.96174">
        <ele>254.9</ele>
        <time>1970-01-01T00:37:58.000Z</time>
      </trkpt>
      <trkpt lat="41.32262" lon="1.96174">
        <ele>254.9</ele>
        <time>1970-01-01T00:37:59.000Z</time>
      </trkpt>
      <trkpt lat="41.32262" lon="1.96169">
        <ele>255.9</ele>
        <time>1970-01-01T00:38:00.000Z</time>
      </trkpt>
      <trkpt lat="41.322627" lon="1.961675">
        <ele>255.9</ele>
        <time>1970-01-01T00:38:01.000Z</time>
      </trkpt>
      <trkpt lat="41.322622" lon="1.961655">
        <ele>256.9</ele>
        <time>1970-01-01T00:38:02.000Z</time>
      </trkpt>
      <trkpt lat="41.322622" lon="1.961655">
        <ele>256.9</ele>
        <time>1970-01-01T00:38:03.000Z</time>
      </trkpt>
      <trkpt lat="41.322618" lon="1.961602">
        <ele>257.9</ele>
        <time>1970-01-01T00:38:04.000Z</time>
      </trkpt>
      <trkpt lat="41.322618" lon="1.961602">
        <ele>257.9</ele>
        <time>1970-01-01T00:38:05.000Z</time>
      </trkpt>
      <trkpt lat="41.322615" lon="1.961552">
        <ele>257.9</ele>
        <time>1970-01-01T00:38:06.000Z</time>
      </trkpt>
      <trkpt lat="41.322615" lon="1.961552">
        <ele>257.9</ele>
        <time>1970-01-01T00:38:07.000Z</time>
      </trkpt>
      <trkpt lat="41.322613" lon="1.961497">
        <ele>258.9</ele>
        <time>1970-01-01T00:38:08.000Z</time>
      </trkpt>
      <trkpt lat="41.322613" lon="1.961497">
        <ele>258.9</ele>
        <time>1970-01-01T00:38:09.000Z</time>
      </trkpt>
      <trkpt lat="41.322595" lon="1.961442">
        <ele>258.9</ele>
        <time>1970-01-01T00:38:10.000Z</time>
      </trkpt>
      <trkpt lat="41.322595" lon="1.961442">
        <ele>258.9</ele>
        <time>1970-01-01T00:38:11.000Z</time>
      </trkpt>
      <trkpt lat="41.322592" lon="1.961393">
        <ele>258.9</ele>
        <time>1970-01-01T00:38:12.000Z</time>
      </trkpt>
      <trkpt lat="41.32259" lon="1.961368">
        <ele>258.9</ele>
        <time>1970-01-01T00:38:13.000Z</time>
      </trkpt>
      <trkpt lat="41.32259" lon="1.961368">
        <ele>259.9</ele>
        <time>1970-01-01T00:38:14.000Z</time>
      </trkpt>
      <trkpt lat="41.322583" lon="1.961317">
        <ele>259.9</ele>
        <time>1970-01-01T00:38:15.000Z</time>
      </trkpt>
      <trkpt lat="41.322583" lon="1.961317">
        <ele>259.9</ele>
        <time>1970-01-01T00:38:16.000Z</time>
      </trkpt>
      <trkpt lat="41.32257" lon="1.961267">
        <ele>259.9</ele>
        <time>1970-01-01T00:38:17.000Z</time>
      </trkpt>
      <trkpt lat="41.32257" lon="1.961267">
        <ele>260.9</ele>
        <time>1970-01-01T00:38:18.000Z</time>
      </trkpt>
      <trkpt lat="41.322558" lon="1.961217">
        <ele>260.9</ele>
        <time>1970-01-01T00:38:19.000Z</time>
      </trkpt>
      <trkpt lat="41.322558" lon="1.961217">
        <ele>260.9</ele>
        <time>1970-01-01T00:38:20.000Z</time>
      </trkpt>
      <trkpt lat="41.322543" lon="1.961168">
        <ele>261.9</ele>
        <time>1970-01-01T00:38:21.000Z</time>
      </trkpt>
      <trkpt lat="41.322543" lon="1.961168">
        <ele>261.9</ele>
        <time>1970-01-01T00:38:22.000Z</time>
      </trkpt>
      <trkpt lat="41.322532" lon="1.961122">
        <ele>261.9</ele>
        <time>1970-01-01T00:38:23.000Z</time>
      </trkpt>
      <trkpt lat="41.322532" lon="1.961122">
        <ele>261.9</ele>
        <time>1970-01-01T00:38:24.000Z</time>
      </trkpt>
      <trkpt lat="41.322518" lon="1.961077">
        <ele>262.9</ele>
        <time>1970-01-01T00:38:25.000Z</time>
      </trkpt>
      <trkpt lat="41.322518" lon="1.961077">
        <ele>262.9</ele>
        <time>1970-01-01T00:38:26.000Z</time>
      </trkpt>
      <trkpt lat="41.322505" lon="1.961025">
        <ele>262.9</ele>
        <time>1970-01-01T00:38:27.000Z</time>
      </trkpt>
      <trkpt lat="41.322505" lon="1.961025">
        <ele>262.9</ele>
        <time>1970-01-01T00:38:28.000Z</time>
      </trkpt>
      <trkpt lat="41.322482" lon="1.960968">
        <ele>262.9</ele>
        <time>1970-01-01T00:38:29.000Z</time>
      </trkpt>
      <trkpt lat="41.322482" lon="1.960968">
        <ele>262.9</ele>
        <time>1970-01-01T00:38:30.000Z</time>
      </trkpt>
      <trkpt lat="41.322468" lon="1.960902">
        <ele>262.9</ele>
        <time>1970-01-01T00:38:31.000Z</time>
      </trkpt>
      <trkpt lat="41.322468" lon="1.960902">
        <ele>262.9</ele>
        <time>1970-01-01T00:38:32.000Z</time>
      </trkpt>
      <trkpt lat="41.322447" lon="1.960832">
        <ele>262.9</ele>
        <time>1970-01-01T00:38:33.000Z</time>
      </trkpt>
      <trkpt lat="41.32243" lon="1.960793">
        <ele>262.9</ele>
        <time>1970-01-01T00:38:34.000Z</time>
      </trkpt>
      <trkpt lat="41.322405" lon="1.960752">
        <ele>262.9</ele>
        <time>1970-01-01T00:38:35.000Z</time>
      </trkpt>
      <trkpt lat="41.322405" lon="1.960752">
        <ele>262.9</ele>
        <time>1970-01-01T00:38:36.000Z</time>
      </trkpt>
      <trkpt lat="41.322345" lon="1.96067">
        <ele>262.9</ele>
        <time>1970-01-01T00:38:37.000Z</time>
      </trkpt>
      <trkpt lat="41.322345" lon="1.96067">
        <ele>262.9</ele>
        <time>1970-01-01T00:38:38.000Z</time>
      </trkpt>
      <trkpt lat="41.322272" lon="1.960582">
        <ele>262.9</ele>
        <time>1970-01-01T00:38:39.000Z</time>
      </trkpt>
      <trkpt lat="41.322272" lon="1.960582">
        <ele>262.9</ele>
        <time>1970-01-01T00:38:40.000Z</time>
      </trkpt>
      <trkpt lat="41.322203" lon="1.960498">
        <ele>262.9</ele>
        <time>1970-01-01T00:38:41.000Z</time>
      </trkpt>
      <trkpt lat="41.322203" lon="1.960498">
        <ele>262.9</ele>
        <time>1970-01-01T00:38:42.000Z</time>
      </trkpt>
      <trkpt lat="41.322137" lon="1.96045">
        <ele>262.9</ele>
        <time>1970-01-01T00:38:43.000Z</time>
      </trkpt>
      <trkpt lat="41.322108" lon="1.960438">
        <ele>262.9</ele>
        <time>1970-01-01T00:38:44.000Z</time>
      </trkpt>
      <trkpt lat="41.322108" lon="1.960438">
        <ele>261.9</ele>
        <time>1970-01-01T00:38:45.000Z</time>
      </trkpt>
      <trkpt lat="41.322057" lon="1.960398">
        <ele>261.9</ele>
        <time>1970-01-01T00:38:46.000Z</time>
      </trkpt>
      <trkpt lat="41.322057" lon="1.960398">
        <ele>261.9</ele>
        <time>1970-01-01T00:38:47.000Z</time>
      </trkpt>
      <trkpt lat="41.322018" lon="1.960332">
        <ele>261.9</ele>
        <time>1970-01-01T00:38:48.000Z</time>
      </trkpt>
      <trkpt lat="41.322002" lon="1.960288">
        <ele>261.9</ele>
        <time>1970-01-01T00:38:49.000Z</time>
      </trkpt>
      <trkpt lat="41.322002" lon="1.960288">
        <ele>261.9</ele>
        <time>1970-01-01T00:38:50.000Z</time>
      </trkpt>
      <trkpt lat="41.321977" lon="1.960202">
        <ele>261.9</ele>
        <time>1970-01-01T00:38:51.000Z</time>
      </trkpt>
      <trkpt lat="41.321973" lon="1.960152">
        <ele>261.9</ele>
        <time>1970-01-01T00:38:52.000Z</time>
      </trkpt>
      <trkpt lat="41.321973" lon="1.960152">
        <ele>262.9</ele>
        <time>1970-01-01T00:38:53.000Z</time>
      </trkpt>
      <trkpt lat="41.321978" lon="1.960057">
        <ele>262.9</ele>
        <time>1970-01-01T00:38:54.000Z</time>
      </trkpt>
      <trkpt lat="41.321985" lon="1.960015">
        <ele>262.9</ele>
        <time>1970-01-01T00:38:55.000Z</time>
      </trkpt>
      <trkpt lat="41.321985" lon="1.960015">
        <ele>262.9</ele>
        <time>1970-01-01T00:38:56.000Z</time>
      </trkpt>
      <trkpt lat="41.322012" lon="1.959928">
        <ele>262.9</ele>
        <time>1970-01-01T00:38:57.000Z</time>
      </trkpt>
      <trkpt lat="41.322012" lon="1.959928">
        <ele>262.9</ele>
        <time>1970-01-01T00:38:58.000Z</time>
      </trkpt>
      <trkpt lat="41.321987" lon="1.959842">
        <ele>262.9</ele>
        <time>1970-01-01T00:38:59.000Z</time>
      </trkpt>
      <trkpt lat="41.321987" lon="1.959842">
        <ele>262.9</ele>
        <time>1970-01-01T00:39:00.000Z</time>
      </trkpt>
      <trkpt lat="41.32198" lon="1.95977">
        <ele>263.9</ele>
        <time>1970-01-01T00:39:01.000Z</time>
      </trkpt>
      <trkpt lat="41.32198" lon="1.95977">
        <ele>263.9</ele>
        <time>1970-01-01T00:39:02.000Z</time>
      </trkpt>
      <trkpt lat="41.321947" lon="1.959715">
        <ele>263.9</ele>
        <time>1970-01-01T00:39:03.000Z</time>
      </trkpt>
      <trkpt lat="41.321947" lon="1.959715">
        <ele>264.9</ele>
        <time>1970-01-01T00:39:04.000Z</time>
      </trkpt>
      <trkpt lat="41.321903" lon="1.95967">
        <ele>264.9</ele>
        <time>1970-01-01T00:39:05.000Z</time>
      </trkpt>
      <trkpt lat="41.321878" lon="1.959648">
        <ele>264.9</ele>
        <time>1970-01-01T00:39:06.000Z</time>
      </trkpt>
      <trkpt lat="41.321878" lon="1.959648">
        <ele>264.9</ele>
        <time>1970-01-01T00:39:07.000Z</time>
      </trkpt>
      <trkpt lat="41.32185" lon="1.9596">
        <ele>264.9</ele>
        <time>1970-01-01T00:39:08.000Z</time>
      </trkpt>
      <trkpt lat="41.32185" lon="1.9596">
        <ele>264.9</ele>
        <time>1970-01-01T00:39:09.000Z</time>
      </trkpt>
      <trkpt lat="41.321817" lon="1.959553">
        <ele>265.9</ele>
        <time>1970-01-01T00:39:10.000Z</time>
      </trkpt>
      <trkpt lat="41.321817" lon="1.959553">
        <ele>265.9</ele>
        <time>1970-01-01T00:39:11.000Z</time>
      </trkpt>
      <trkpt lat="41.321782" lon="1.9595">
        <ele>265.9</ele>
        <time>1970-01-01T00:39:12.000Z</time>
      </trkpt>
      <trkpt lat="41.321767" lon="1.959475">
        <ele>265.9</ele>
        <time>1970-01-01T00:39:13.000Z</time>
      </trkpt>
      <trkpt lat="41.321753" lon="1.959448">
        <ele>266.9</ele>
        <time>1970-01-01T00:39:14.000Z</time>
      </trkpt>
      <trkpt lat="41.321753" lon="1.959448">
        <ele>266.9</ele>
        <time>1970-01-01T00:39:15.000Z</time>
      </trkpt>
      <trkpt lat="41.321727" lon="1.959398">
        <ele>266.9</ele>
        <time>1970-01-01T00:39:16.000Z</time>
      </trkpt>
      <trkpt lat="41.321727" lon="1.959398">
        <ele>266.9</ele>
        <time>1970-01-01T00:39:17.000Z</time>
      </trkpt>
      <trkpt lat="41.321698" lon="1.959345">
        <ele>267.9</ele>
        <time>1970-01-01T00:39:18.000Z</time>
      </trkpt>
      <trkpt lat="41.321698" lon="1.959345">
        <ele>267.9</ele>
        <time>1970-01-01T00:39:19.000Z</time>
      </trkpt>
      <trkpt lat="41.321667" lon="1.959302">
        <ele>268.9</ele>
        <time>1970-01-01T00:39:20.000Z</time>
      </trkpt>
      <trkpt lat="41.321667" lon="1.959302">
        <ele>268.9</ele>
        <time>1970-01-01T00:39:21.000Z</time>
      </trkpt>
      <trkpt lat="41.321643" lon="1.95927">
        <ele>268.9</ele>
        <time>1970-01-01T00:39:22.000Z</time>
      </trkpt>
      <trkpt lat="41.321643" lon="1.95927">
        <ele>268.9</ele>
        <time>1970-01-01T00:39:23.000Z</time>
      </trkpt>
      <trkpt lat="41.321623" lon="1.959242">
        <ele>268.9</ele>
        <time>1970-01-01T00:39:24.000Z</time>
      </trkpt>
      <trkpt lat="41.321612" lon="1.959228">
        <ele>268.9</ele>
        <time>1970-01-01T00:39:25.000Z</time>
      </trkpt>
      <trkpt lat="41.321592" lon="1.959217">
        <ele>269.9</ele>
        <time>1970-01-01T00:39:26.000Z</time>
      </trkpt>
      <trkpt lat="41.321592" lon="1.959217">
        <ele>269.9</ele>
        <time>1970-01-01T00:39:27.000Z</time>
      </trkpt>
      <trkpt lat="41.321547" lon="1.959193">
        <ele>269.9</ele>
        <time>1970-01-01T00:39:28.000Z</time>
      </trkpt>
      <trkpt lat="41.321525" lon="1.959178">
        <ele>269.9</ele>
        <time>1970-01-01T00:39:29.000Z</time>
      </trkpt>
      <trkpt lat="41.321525" lon="1.959178">
        <ele>269.9</ele>
        <time>1970-01-01T00:39:30.000Z</time>
      </trkpt>
      <trkpt lat="41.321473" lon="1.95915">
        <ele>269.9</ele>
        <time>1970-01-01T00:39:31.000Z</time>
      </trkpt>
      <trkpt lat="41.32145" lon="1.959133">
        <ele>269.9</ele>
        <time>1970-01-01T00:39:32.000Z</time>
      </trkpt>
      <trkpt lat="41.32145" lon="1.959133">
        <ele>269.9</ele>
        <time>1970-01-01T00:39:33.000Z</time>
      </trkpt>
      <trkpt lat="41.321408" lon="1.959087">
        <ele>269.9</ele>
        <time>1970-01-01T00:39:34.000Z</time>
      </trkpt>
      <trkpt lat="41.321388" lon="1.959067">
        <ele>269.9</ele>
        <time>1970-01-01T00:39:35.000Z</time>
      </trkpt>
      <trkpt lat="41.321388" lon="1.959067">
        <ele>269.9</ele>
        <time>1970-01-01T00:39:36.000Z</time>
      </trkpt>
      <trkpt lat="41.321355" lon="1.959033">
        <ele>269.9</ele>
        <time>1970-01-01T00:39:37.000Z</time>
      </trkpt>
      <trkpt lat="41.321338" lon="1.959017">
        <ele>270.9</ele>
        <time>1970-01-01T00:39:38.000Z</time>
      </trkpt>
      <trkpt lat="41.321338" lon="1.959017">
        <ele>270.9</ele>
        <time>1970-01-01T00:39:39.000Z</time>
      </trkpt>
      <trkpt lat="41.321302" lon="1.958983">
        <ele>270.9</ele>
        <time>1970-01-01T00:39:40.000Z</time>
      </trkpt>
      <trkpt lat="41.321302" lon="1.958983">
        <ele>270.9</ele>
        <time>1970-01-01T00:39:41.000Z</time>
      </trkpt>
      <trkpt lat="41.321265" lon="1.95895">
        <ele>270.9</ele>
        <time>1970-01-01T00:39:42.000Z</time>
      </trkpt>
      <trkpt lat="41.321265" lon="1.95895">
        <ele>270.9</ele>
        <time>1970-01-01T00:39:43.000Z</time>
      </trkpt>
      <trkpt lat="41.321233" lon="1.958917">
        <ele>270.9</ele>
        <time>1970-01-01T00:39:44.000Z</time>
      </trkpt>
      <trkpt lat="41.321233" lon="1.958917">
        <ele>270.9</ele>
        <time>1970-01-01T00:39:45.000Z</time>
      </trkpt>
      <trkpt lat="41.321202" lon="1.958877">
        <ele>271.9</ele>
        <time>1970-01-01T00:39:46.000Z</time>
      </trkpt>
      <trkpt lat="41.321202" lon="1.958877">
        <ele>271.9</ele>
        <time>1970-01-01T00:39:47.000Z</time>
      </trkpt>
      <trkpt lat="41.32116" lon="1.958832">
        <ele>271.9</ele>
        <time>1970-01-01T00:39:48.000Z</time>
      </trkpt>
      <trkpt lat="41.32116" lon="1.958832">
        <ele>271.9</ele>
        <time>1970-01-01T00:39:49.000Z</time>
      </trkpt>
      <trkpt lat="41.321118" lon="1.958785">
        <ele>271.9</ele>
        <time>1970-01-01T00:39:50.000Z</time>
      </trkpt>
      <trkpt lat="41.321118" lon="1.958785">
        <ele>271.9</ele>
        <time>1970-01-01T00:39:51.000Z</time>
      </trkpt>
      <trkpt lat="41.321077" lon="1.958733">
        <ele>271.9</ele>
        <time>1970-01-01T00:39:52.000Z</time>
      </trkpt>
      <trkpt lat="41.321062" lon="1.958707">
        <ele>271.9</ele>
        <time>1970-01-01T00:39:53.000Z</time>
      </trkpt>
      <trkpt lat="41.321062" lon="1.958707">
        <ele>272.9</ele>
        <time>1970-01-01T00:39:54.000Z</time>
      </trkpt>
      <trkpt lat="41.321028" lon="1.958662">
        <ele>272.9</ele>
        <time>1970-01-01T00:39:55.000Z</time>
      </trkpt>
      <trkpt lat="41.321015" lon="1.958643">
        <ele>272.9</ele>
        <time>1970-01-01T00:39:56.000Z</time>
      </trkpt>
      <trkpt lat="41.321015" lon="1.958643">
        <ele>272.9</ele>
        <time>1970-01-01T00:39:57.000Z</time>
      </trkpt>
      <trkpt lat="41.320987" lon="1.95861">
        <ele>274.9</ele>
        <time>1970-01-01T00:39:58.000Z</time>
      </trkpt>
      <trkpt lat="41.32097" lon="1.958597">
        <ele>274.9</ele>
        <time>1970-01-01T00:39:59.000Z</time>
      </trkpt>
      <trkpt lat="41.32097" lon="1.958597">
        <ele>274.9</ele>
        <time>1970-01-01T00:40:00.000Z</time>
      </trkpt>
      <trkpt lat="41.320917" lon="1.958572">
        <ele>274.9</ele>
        <time>1970-01-01T00:40:01.000Z</time>
      </trkpt>
      <trkpt lat="41.320917" lon="1.958572">
        <ele>274.9</ele>
        <time>1970-01-01T00:40:02.000Z</time>
      </trkpt>
      <trkpt lat="41.32087" lon="1.958528">
        <ele>274.9</ele>
        <time>1970-01-01T00:40:03.000Z</time>
      </trkpt>
      <trkpt lat="41.32087" lon="1.958528">
        <ele>274.9</ele>
        <time>1970-01-01T00:40:04.000Z</time>
      </trkpt>
      <trkpt lat="41.320823" lon="1.958467">
        <ele>274.9</ele>
        <time>1970-01-01T00:40:05.000Z</time>
      </trkpt>
      <trkpt lat="41.320798" lon="1.958417">
        <ele>274.9</ele>
        <time>1970-01-01T00:40:06.000Z</time>
      </trkpt>
      <trkpt lat="41.320798" lon="1.958417">
        <ele>274.9</ele>
        <time>1970-01-01T00:40:07.000Z</time>
      </trkpt>
      <trkpt lat="41.320755" lon="1.958285">
        <ele>273.9</ele>
        <time>1970-01-01T00:40:08.000Z</time>
      </trkpt>
      <trkpt lat="41.320755" lon="1.958285">
        <ele>273.9</ele>
        <time>1970-01-01T00:40:09.000Z</time>
      </trkpt>
      <trkpt lat="41.32071" lon="1.95814">
        <ele>273.9</ele>
        <time>1970-01-01T00:40:10.000Z</time>
      </trkpt>
      <trkpt lat="41.32071" lon="1.95814">
        <ele>273.9</ele>
        <time>1970-01-01T00:40:11.000Z</time>
      </trkpt>
      <trkpt lat="41.320658" lon="1.958023">
        <ele>272.9</ele>
        <time>1970-01-01T00:40:12.000Z</time>
      </trkpt>
      <trkpt lat="41.320658" lon="1.958023">
        <ele>272.9</ele>
        <time>1970-01-01T00:40:13.000Z</time>
      </trkpt>
      <trkpt lat="41.32061" lon="1.957922">
        <ele>272.9</ele>
        <time>1970-01-01T00:40:14.000Z</time>
      </trkpt>
      <trkpt lat="41.32061" lon="1.957922">
        <ele>272.9</ele>
        <time>1970-01-01T00:40:15.000Z</time>
      </trkpt>
      <trkpt lat="41.32057" lon="1.957823">
        <ele>272.9</ele>
        <time>1970-01-01T00:40:16.000Z</time>
      </trkpt>
      <trkpt lat="41.32057" lon="1.957823">
        <ele>272.9</ele>
        <time>1970-01-01T00:40:17.000Z</time>
      </trkpt>
      <trkpt lat="41.320535" lon="1.957732">
        <ele>272.9</ele>
        <time>1970-01-01T00:40:18.000Z</time>
      </trkpt>
      <trkpt lat="41.320535" lon="1.957732">
        <ele>272.9</ele>
        <time>1970-01-01T00:40:19.000Z</time>
      </trkpt>
      <trkpt lat="41.320492" lon="1.957627">
        <ele>272.9</ele>
        <time>1970-01-01T00:40:20.000Z</time>
      </trkpt>
      <trkpt lat="41.320492" lon="1.957627">
        <ele>272.9</ele>
        <time>1970-01-01T00:40:21.000Z</time>
      </trkpt>
      <trkpt lat="41.320452" lon="1.957507">
        <ele>272.9</ele>
        <time>1970-01-01T00:40:22.000Z</time>
      </trkpt>
      <trkpt lat="41.320452" lon="1.957507">
        <ele>272.9</ele>
        <time>1970-01-01T00:40:23.000Z</time>
      </trkpt>
      <trkpt lat="41.320402" lon="1.957397">
        <ele>271.9</ele>
        <time>1970-01-01T00:40:24.000Z</time>
      </trkpt>
      <trkpt lat="41.320402" lon="1.957397">
        <ele>271.9</ele>
        <time>1970-01-01T00:40:25.000Z</time>
      </trkpt>
      <trkpt lat="41.320377" lon="1.957288">
        <ele>271.9</ele>
        <time>1970-01-01T00:40:26.000Z</time>
      </trkpt>
      <trkpt lat="41.320377" lon="1.957288">
        <ele>271.9</ele>
        <time>1970-01-01T00:40:27.000Z</time>
      </trkpt>
      <trkpt lat="41.32034" lon="1.957227">
        <ele>271.9</ele>
        <time>1970-01-01T00:40:28.000Z</time>
      </trkpt>
      <trkpt lat="41.32034" lon="1.957227">
        <ele>271.9</ele>
        <time>1970-01-01T00:40:29.000Z</time>
      </trkpt>
      <trkpt lat="41.320285" lon="1.957217">
        <ele>271.9</ele>
        <time>1970-01-01T00:40:30.000Z</time>
      </trkpt>
      <trkpt lat="41.320252" lon="1.957217">
        <ele>271.9</ele>
        <time>1970-01-01T00:40:31.000Z</time>
      </trkpt>
      <trkpt lat="41.320252" lon="1.957217">
        <ele>271.9</ele>
        <time>1970-01-01T00:40:32.000Z</time>
      </trkpt>
      <trkpt lat="41.320175" lon="1.957153">
        <ele>271.9</ele>
        <time>1970-01-01T00:40:33.000Z</time>
      </trkpt>
      <trkpt lat="41.320127" lon="1.95709">
        <ele>271.9</ele>
        <time>1970-01-01T00:40:34.000Z</time>
      </trkpt>
      <trkpt lat="41.320127" lon="1.95709">
        <ele>269.9</ele>
        <time>1970-01-01T00:40:35.000Z</time>
      </trkpt>
      <trkpt lat="41.319997" lon="1.956992">
        <ele>269.9</ele>
        <time>1970-01-01T00:40:36.000Z</time>
      </trkpt>
      <trkpt lat="41.319997" lon="1.956992">
        <ele>269.9</ele>
        <time>1970-01-01T00:40:37.000Z</time>
      </trkpt>
      <trkpt lat="41.319897" lon="1.95691">
        <ele>269.9</ele>
        <time>1970-01-01T00:40:38.000Z</time>
      </trkpt>
      <trkpt lat="41.319897" lon="1.95691">
        <ele>269.9</ele>
        <time>1970-01-01T00:40:39.000Z</time>
      </trkpt>
      <trkpt lat="41.319823" lon="1.956867">
        <ele>269.9</ele>
        <time>1970-01-01T00:40:40.000Z</time>
      </trkpt>
      <trkpt lat="41.319823" lon="1.956867">
        <ele>269.9</ele>
        <time>1970-01-01T00:40:41.000Z</time>
      </trkpt>
      <trkpt lat="41.319782" lon="1.956822">
        <ele>269.9</ele>
        <time>1970-01-01T00:40:42.000Z</time>
      </trkpt>
      <trkpt lat="41.319782" lon="1.956822">
        <ele>269.9</ele>
        <time>1970-01-01T00:40:43.000Z</time>
      </trkpt>
      <trkpt lat="41.319752" lon="1.956785">
        <ele>269.9</ele>
        <time>1970-01-01T00:40:44.000Z</time>
      </trkpt>
      <trkpt lat="41.319752" lon="1.956785">
        <ele>269.9</ele>
        <time>1970-01-01T00:40:45.000Z</time>
      </trkpt>
      <trkpt lat="41.319722" lon="1.956747">
        <ele>269.9</ele>
        <time>1970-01-01T00:40:46.000Z</time>
      </trkpt>
      <trkpt lat="41.319722" lon="1.956747">
        <ele>269.9</ele>
        <time>1970-01-01T00:40:47.000Z</time>
      </trkpt>
      <trkpt lat="41.3197" lon="1.956708">
        <ele>270.9</ele>
        <time>1970-01-01T00:40:48.000Z</time>
      </trkpt>
      <trkpt lat="41.3197" lon="1.956708">
        <ele>270.9</ele>
        <time>1970-01-01T00:40:49.000Z</time>
      </trkpt>
      <trkpt lat="41.319687" lon="1.956663">
        <ele>270.9</ele>
        <time>1970-01-01T00:40:50.000Z</time>
      </trkpt>
      <trkpt lat="41.319687" lon="1.956663">
        <ele>270.9</ele>
        <time>1970-01-01T00:40:51.000Z</time>
      </trkpt>
      <trkpt lat="41.319683" lon="1.956615">
        <ele>270.9</ele>
        <time>1970-01-01T00:40:52.000Z</time>
      </trkpt>
      <trkpt lat="41.319683" lon="1.956615">
        <ele>272.9</ele>
        <time>1970-01-01T00:40:53.000Z</time>
      </trkpt>
      <trkpt lat="41.319675" lon="1.956565">
        <ele>272.9</ele>
        <time>1970-01-01T00:40:54.000Z</time>
      </trkpt>
      <trkpt lat="41.319675" lon="1.956565">
        <ele>272.9</ele>
        <time>1970-01-01T00:40:55.000Z</time>
      </trkpt>
      <trkpt lat="41.319665" lon="1.956515">
        <ele>272.9</ele>
        <time>1970-01-01T00:40:56.000Z</time>
      </trkpt>
      <trkpt lat="41.319665" lon="1.956515">
        <ele>273.9</ele>
        <time>1970-01-01T00:40:57.000Z</time>
      </trkpt>
      <trkpt lat="41.319665" lon="1.956465">
        <ele>273.9</ele>
        <time>1970-01-01T00:40:58.000Z</time>
      </trkpt>
      <trkpt lat="41.319665" lon="1.956465">
        <ele>273.9</ele>
        <time>1970-01-01T00:40:59.000Z</time>
      </trkpt>
      <trkpt lat="41.319658" lon="1.956417">
        <ele>273.9</ele>
        <time>1970-01-01T00:41:00.000Z</time>
      </trkpt>
      <trkpt lat="41.319658" lon="1.956417">
        <ele>273.9</ele>
        <time>1970-01-01T00:41:01.000Z</time>
      </trkpt>
      <trkpt lat="41.319643" lon="1.956373">
        <ele>274.9</ele>
        <time>1970-01-01T00:41:02.000Z</time>
      </trkpt>
      <trkpt lat="41.319643" lon="1.956373">
        <ele>274.9</ele>
        <time>1970-01-01T00:41:03.000Z</time>
      </trkpt>
      <trkpt lat="41.319628" lon="1.956328">
        <ele>274.9</ele>
        <time>1970-01-01T00:41:04.000Z</time>
      </trkpt>
      <trkpt lat="41.319628" lon="1.956328">
        <ele>274.9</ele>
        <time>1970-01-01T00:41:05.000Z</time>
      </trkpt>
      <trkpt lat="41.319612" lon="1.95628">
        <ele>275.9</ele>
        <time>1970-01-01T00:41:06.000Z</time>
      </trkpt>
      <trkpt lat="41.319612" lon="1.95628">
        <ele>275.9</ele>
        <time>1970-01-01T00:41:07.000Z</time>
      </trkpt>
      <trkpt lat="41.319603" lon="1.956232">
        <ele>275.9</ele>
        <time>1970-01-01T00:41:08.000Z</time>
      </trkpt>
      <trkpt lat="41.319603" lon="1.956232">
        <ele>275.9</ele>
        <time>1970-01-01T00:41:09.000Z</time>
      </trkpt>
      <trkpt lat="41.3196" lon="1.956182">
        <ele>275.9</ele>
        <time>1970-01-01T00:41:10.000Z</time>
      </trkpt>
      <trkpt lat="41.3196" lon="1.956182">
        <ele>275.9</ele>
        <time>1970-01-01T00:41:11.000Z</time>
      </trkpt>
      <trkpt lat="41.319592" lon="1.956137">
        <ele>276.9</ele>
        <time>1970-01-01T00:41:12.000Z</time>
      </trkpt>
      <trkpt lat="41.319592" lon="1.956137">
        <ele>276.9</ele>
        <time>1970-01-01T00:41:13.000Z</time>
      </trkpt>
      <trkpt lat="41.319583" lon="1.95609">
        <ele>276.9</ele>
        <time>1970-01-01T00:41:14.000Z</time>
      </trkpt>
      <trkpt lat="41.319583" lon="1.95609">
        <ele>276.9</ele>
        <time>1970-01-01T00:41:15.000Z</time>
      </trkpt>
      <trkpt lat="41.319577" lon="1.956043">
        <ele>276.9</ele>
        <time>1970-01-01T00:41:16.000Z</time>
      </trkpt>
      <trkpt lat="41.319573" lon="1.956018">
        <ele>276.9</ele>
        <time>1970-01-01T00:41:17.000Z</time>
      </trkpt>
      <trkpt lat="41.319573" lon="1.956018">
        <ele>277.9</ele>
        <time>1970-01-01T00:41:18.000Z</time>
      </trkpt>
      <trkpt lat="41.319565" lon="1.95597">
        <ele>277.9</ele>
        <time>1970-01-01T00:41:19.000Z</time>
      </trkpt>
      <trkpt lat="41.319562" lon="1.955948">
        <ele>277.9</ele>
        <time>1970-01-01T00:41:20.000Z</time>
      </trkpt>
      <trkpt lat="41.319562" lon="1.955948">
        <ele>278.9</ele>
        <time>1970-01-01T00:41:21.000Z</time>
      </trkpt>
      <trkpt lat="41.31954" lon="1.955912">
        <ele>278.9</ele>
        <time>1970-01-01T00:41:22.000Z</time>
      </trkpt>
      <trkpt lat="41.31954" lon="1.955912">
        <ele>278.9</ele>
        <time>1970-01-01T00:41:23.000Z</time>
      </trkpt>
      <trkpt lat="41.319518" lon="1.955877">
        <ele>278.9</ele>
        <time>1970-01-01T00:41:24.000Z</time>
      </trkpt>
      <trkpt lat="41.319518" lon="1.955877">
        <ele>281.9</ele>
        <time>1970-01-01T00:41:25.000Z</time>
      </trkpt>
      <trkpt lat="41.319497" lon="1.955832">
        <ele>281.9</ele>
        <time>1970-01-01T00:41:26.000Z</time>
      </trkpt>
      <trkpt lat="41.319497" lon="1.955832">
        <ele>281.9</ele>
        <time>1970-01-01T00:41:27.000Z</time>
      </trkpt>
      <trkpt lat="41.319475" lon="1.955788">
        <ele>281.9</ele>
        <time>1970-01-01T00:41:28.000Z</time>
      </trkpt>
      <trkpt lat="41.319463" lon="1.955768">
        <ele>280.9</ele>
        <time>1970-01-01T00:41:29.000Z</time>
      </trkpt>
      <trkpt lat="41.319463" lon="1.955768">
        <ele>280.9</ele>
        <time>1970-01-01T00:41:30.000Z</time>
      </trkpt>
      <trkpt lat="41.31944" lon="1.955732">
        <ele>280.9</ele>
        <time>1970-01-01T00:41:31.000Z</time>
      </trkpt>
      <trkpt lat="41.31944" lon="1.955732">
        <ele>280.9</ele>
        <time>1970-01-01T00:41:32.000Z</time>
      </trkpt>
      <trkpt lat="41.319415" lon="1.955697">
        <ele>280.9</ele>
        <time>1970-01-01T00:41:33.000Z</time>
      </trkpt>
      <trkpt lat="41.319415" lon="1.955697">
        <ele>280.9</ele>
        <time>1970-01-01T00:41:34.000Z</time>
      </trkpt>
      <trkpt lat="41.319385" lon="1.955663">
        <ele>280.9</ele>
        <time>1970-01-01T00:41:35.000Z</time>
      </trkpt>
      <trkpt lat="41.319385" lon="1.955663">
        <ele>280.9</ele>
        <time>1970-01-01T00:41:36.000Z</time>
      </trkpt>
      <trkpt lat="41.319365" lon="1.95564">
        <ele>280.9</ele>
        <time>1970-01-01T00:41:37.000Z</time>
      </trkpt>
      <trkpt lat="41.319362" lon="1.95564">
        <ele>280.9</ele>
        <time>1970-01-01T00:41:38.000Z</time>
      </trkpt>
      <trkpt lat="41.319362" lon="1.95564">
        <ele>280.9</ele>
        <time>1970-01-01T00:41:39.000Z</time>
      </trkpt>
      <trkpt lat="41.319358" lon="1.955642">
        <ele>280.9</ele>
        <time>1970-01-01T00:41:40.000Z</time>
      </trkpt>
      <trkpt lat="41.319358" lon="1.955642">
        <ele>280.9</ele>
        <time>1970-01-01T00:44:22.000Z</time>
      </trkpt>
      <trkpt lat="41.319285" lon="1.955615">
        <ele>280.9</ele>
        <time>1970-01-01T00:44:23.000Z</time>
      </trkpt>
      <trkpt lat="41.319285" lon="1.955615">
        <ele>280.9</ele>
        <time>1970-01-01T00:44:24.000Z</time>
      </trkpt>
      <trkpt lat="41.319262" lon="1.955587">
        <ele>280.9</ele>
        <time>1970-01-01T00:44:25.000Z</time>
      </trkpt>
      <trkpt lat="41.319252" lon="1.955568">
        <ele>279.9</ele>
        <time>1970-01-01T00:44:26.000Z</time>
      </trkpt>
      <trkpt lat="41.319252" lon="1.955568">
        <ele>279.9</ele>
        <time>1970-01-01T00:44:27.000Z</time>
      </trkpt>
      <trkpt lat="41.319223" lon="1.955518">
        <ele>279.9</ele>
        <time>1970-01-01T00:44:28.000Z</time>
      </trkpt>
      <trkpt lat="41.31921" lon="1.955495">
        <ele>279.9</ele>
        <time>1970-01-01T00:44:29.000Z</time>
      </trkpt>
      <trkpt lat="41.31921" lon="1.955495">
        <ele>279.9</ele>
        <time>1970-01-01T00:44:30.000Z</time>
      </trkpt>
      <trkpt lat="41.319192" lon="1.955443">
        <ele>279.9</ele>
        <time>1970-01-01T00:44:31.000Z</time>
      </trkpt>
      <trkpt lat="41.319192" lon="1.955443">
        <ele>279.9</ele>
        <time>1970-01-01T00:44:32.000Z</time>
      </trkpt>
      <trkpt lat="41.319187" lon="1.95538">
        <ele>279.9</ele>
        <time>1970-01-01T00:44:33.000Z</time>
      </trkpt>
      <trkpt lat="41.319187" lon="1.955342">
        <ele>279.9</ele>
        <time>1970-01-01T00:44:34.000Z</time>
      </trkpt>
      <trkpt lat="41.319187" lon="1.955342">
        <ele>279.9</ele>
        <time>1970-01-01T00:44:35.000Z</time>
      </trkpt>
      <trkpt lat="41.319195" lon="1.955268">
        <ele>279.9</ele>
        <time>1970-01-01T00:44:36.000Z</time>
      </trkpt>
      <trkpt lat="41.319195" lon="1.955268">
        <ele>278.9</ele>
        <time>1970-01-01T00:44:37.000Z</time>
      </trkpt>
      <trkpt lat="41.319208" lon="1.955198">
        <ele>278.9</ele>
        <time>1970-01-01T00:44:38.000Z</time>
      </trkpt>
      <trkpt lat="41.319217" lon="1.955167">
        <ele>278.9</ele>
        <time>1970-01-01T00:44:39.000Z</time>
      </trkpt>
      <trkpt lat="41.319217" lon="1.955167">
        <ele>278.9</ele>
        <time>1970-01-01T00:44:40.000Z</time>
      </trkpt>
      <trkpt lat="41.319228" lon="1.955107">
        <ele>278.9</ele>
        <time>1970-01-01T00:44:41.000Z</time>
      </trkpt>
      <trkpt lat="41.319237" lon="1.955078">
        <ele>278.9</ele>
        <time>1970-01-01T00:44:42.000Z</time>
      </trkpt>
      <trkpt lat="41.319237" lon="1.955078">
        <ele>278.9</ele>
        <time>1970-01-01T00:44:43.000Z</time>
      </trkpt>
      <trkpt lat="41.319252" lon="1.955022">
        <ele>278.9</ele>
        <time>1970-01-01T00:44:44.000Z</time>
      </trkpt>
      <trkpt lat="41.319265" lon="1.954992">
        <ele>278.9</ele>
        <time>1970-01-01T00:44:45.000Z</time>
      </trkpt>
      <trkpt lat="41.319275" lon="1.954962">
        <ele>278.9</ele>
        <time>1970-01-01T00:44:46.000Z</time>
      </trkpt>
      <trkpt lat="41.319275" lon="1.954962">
        <ele>278.9</ele>
        <time>1970-01-01T00:44:47.000Z</time>
      </trkpt>
      <trkpt lat="41.319287" lon="1.954908">
        <ele>278.9</ele>
        <time>1970-01-01T00:44:48.000Z</time>
      </trkpt>
      <trkpt lat="41.319287" lon="1.954908">
        <ele>279.9</ele>
        <time>1970-01-01T00:44:49.000Z</time>
      </trkpt>
      <trkpt lat="41.319293" lon="1.954855">
        <ele>279.9</ele>
        <time>1970-01-01T00:44:50.000Z</time>
      </trkpt>
      <trkpt lat="41.319293" lon="1.954855">
        <ele>279.9</ele>
        <time>1970-01-01T00:44:51.000Z</time>
      </trkpt>
      <trkpt lat="41.319307" lon="1.954792">
        <ele>279.9</ele>
        <time>1970-01-01T00:44:52.000Z</time>
      </trkpt>
      <trkpt lat="41.319307" lon="1.954792">
        <ele>279.9</ele>
        <time>1970-01-01T00:44:53.000Z</time>
      </trkpt>
      <trkpt lat="41.319317" lon="1.954723">
        <ele>279.9</ele>
        <time>1970-01-01T00:44:54.000Z</time>
      </trkpt>
      <trkpt lat="41.319313" lon="1.954685">
        <ele>279.9</ele>
        <time>1970-01-01T00:44:55.000Z</time>
      </trkpt>
      <trkpt lat="41.319313" lon="1.954685">
        <ele>279.9</ele>
        <time>1970-01-01T00:44:56.000Z</time>
      </trkpt>
      <trkpt lat="41.319305" lon="1.954615">
        <ele>279.9</ele>
        <time>1970-01-01T00:44:57.000Z</time>
      </trkpt>
      <trkpt lat="41.319305" lon="1.954615">
        <ele>279.9</ele>
        <time>1970-01-01T00:44:58.000Z</time>
      </trkpt>
      <trkpt lat="41.319292" lon="1.954553">
        <ele>279.9</ele>
        <time>1970-01-01T00:44:59.000Z</time>
      </trkpt>
      <trkpt lat="41.319292" lon="1.954553">
        <ele>279.9</ele>
        <time>1970-01-01T00:45:00.000Z</time>
      </trkpt>
      <trkpt lat="41.319283" lon="1.954495">
        <ele>279.9</ele>
        <time>1970-01-01T00:45:01.000Z</time>
      </trkpt>
      <trkpt lat="41.319277" lon="1.954465">
        <ele>279.9</ele>
        <time>1970-01-01T00:45:02.000Z</time>
      </trkpt>
      <trkpt lat="41.319273" lon="1.95444">
        <ele>279.9</ele>
        <time>1970-01-01T00:45:03.000Z</time>
      </trkpt>
      <trkpt lat="41.319273" lon="1.95444">
        <ele>279.9</ele>
        <time>1970-01-01T00:45:04.000Z</time>
      </trkpt>
      <trkpt lat="41.319263" lon="1.954387">
        <ele>279.9</ele>
        <time>1970-01-01T00:45:05.000Z</time>
      </trkpt>
      <trkpt lat="41.319263" lon="1.954387">
        <ele>279.9</ele>
        <time>1970-01-01T00:45:06.000Z</time>
      </trkpt>
      <trkpt lat="41.319255" lon="1.95433">
        <ele>279.9</ele>
        <time>1970-01-01T00:45:07.000Z</time>
      </trkpt>
      <trkpt lat="41.319255" lon="1.95433">
        <ele>279.9</ele>
        <time>1970-01-01T00:45:08.000Z</time>
      </trkpt>
      <trkpt lat="41.319252" lon="1.954275">
        <ele>278.9</ele>
        <time>1970-01-01T00:45:09.000Z</time>
      </trkpt>
      <trkpt lat="41.319252" lon="1.954275">
        <ele>278.9</ele>
        <time>1970-01-01T00:45:10.000Z</time>
      </trkpt>
      <trkpt lat="41.319252" lon="1.954228">
        <ele>280.9</ele>
        <time>1970-01-01T00:45:11.000Z</time>
      </trkpt>
      <trkpt lat="41.319252" lon="1.954202">
        <ele>280.9</ele>
        <time>1970-01-01T00:45:12.000Z</time>
      </trkpt>
      <trkpt lat="41.319252" lon="1.954202">
        <ele>281.9</ele>
        <time>1970-01-01T00:45:13.000Z</time>
      </trkpt>
      <trkpt lat="41.319258" lon="1.954148">
        <ele>281.9</ele>
        <time>1970-01-01T00:45:14.000Z</time>
      </trkpt>
      <trkpt lat="41.31926" lon="1.954122">
        <ele>280.9</ele>
        <time>1970-01-01T00:45:15.000Z</time>
      </trkpt>
      <trkpt lat="41.31926" lon="1.954122">
        <ele>280.9</ele>
        <time>1970-01-01T00:45:16.000Z</time>
      </trkpt>
      <trkpt lat="41.319268" lon="1.954072">
        <ele>283.9</ele>
        <time>1970-01-01T00:45:17.000Z</time>
      </trkpt>
      <trkpt lat="41.319267" lon="1.95405">
        <ele>283.9</ele>
        <time>1970-01-01T00:45:18.000Z</time>
      </trkpt>
      <trkpt lat="41.319267" lon="1.95405">
        <ele>284.9</ele>
        <time>1970-01-01T00:45:19.000Z</time>
      </trkpt>
      <trkpt lat="41.319273" lon="1.954005">
        <ele>282.9</ele>
        <time>1970-01-01T00:45:20.000Z</time>
      </trkpt>
      <trkpt lat="41.319282" lon="1.953978">
        <ele>282.9</ele>
        <time>1970-01-01T00:45:21.000Z</time>
      </trkpt>
      <trkpt lat="41.319282" lon="1.953978">
        <ele>282.9</ele>
        <time>1970-01-01T00:45:22.000Z</time>
      </trkpt>
      <trkpt lat="41.319295" lon="1.953927">
        <ele>282.9</ele>
        <time>1970-01-01T00:45:23.000Z</time>
      </trkpt>
      <trkpt lat="41.3193" lon="1.9539">
        <ele>282.9</ele>
        <time>1970-01-01T00:45:24.000Z</time>
      </trkpt>
      <trkpt lat="41.3193" lon="1.9539">
        <ele>282.9</ele>
        <time>1970-01-01T00:45:25.000Z</time>
      </trkpt>
      <trkpt lat="41.3193" lon="1.953845">
        <ele>282.9</ele>
        <time>1970-01-01T00:45:26.000Z</time>
      </trkpt>
      <trkpt lat="41.3193" lon="1.953845">
        <ele>282.9</ele>
        <time>1970-01-01T00:45:27.000Z</time>
      </trkpt>
      <trkpt lat="41.319317" lon="1.95379">
        <ele>282.9</ele>
        <time>1970-01-01T00:45:28.000Z</time>
      </trkpt>
      <trkpt lat="41.319317" lon="1.95379">
        <ele>282.9</ele>
        <time>1970-01-01T00:45:29.000Z</time>
      </trkpt>
      <trkpt lat="41.319322" lon="1.95374">
        <ele>282.9</ele>
        <time>1970-01-01T00:45:30.000Z</time>
      </trkpt>
      <trkpt lat="41.319325" lon="1.953715">
        <ele>282.9</ele>
        <time>1970-01-01T00:45:31.000Z</time>
      </trkpt>
      <trkpt lat="41.319325" lon="1.953715">
        <ele>283.9</ele>
        <time>1970-01-01T00:45:32.000Z</time>
      </trkpt>
      <trkpt lat="41.319335" lon="1.953667">
        <ele>283.9</ele>
        <time>1970-01-01T00:45:33.000Z</time>
      </trkpt>
      <trkpt lat="41.319335" lon="1.953667">
        <ele>283.9</ele>
        <time>1970-01-01T00:45:34.000Z</time>
      </trkpt>
      <trkpt lat="41.319342" lon="1.95362">
        <ele>283.9</ele>
        <time>1970-01-01T00:45:35.000Z</time>
      </trkpt>
      <trkpt lat="41.319347" lon="1.953593">
        <ele>284.9</ele>
        <time>1970-01-01T00:45:36.000Z</time>
      </trkpt>
      <trkpt lat="41.319347" lon="1.953593">
        <ele>284.9</ele>
        <time>1970-01-01T00:45:37.000Z</time>
      </trkpt>
      <trkpt lat="41.319358" lon="1.953542">
        <ele>284.9</ele>
        <time>1970-01-01T00:45:38.000Z</time>
      </trkpt>
      <trkpt lat="41.319365" lon="1.953518">
        <ele>284.9</ele>
        <time>1970-01-01T00:45:39.000Z</time>
      </trkpt>
      <trkpt lat="41.319365" lon="1.953518">
        <ele>284.9</ele>
        <time>1970-01-01T00:45:40.000Z</time>
      </trkpt>
      <trkpt lat="41.319375" lon="1.953467">
        <ele>284.9</ele>
        <time>1970-01-01T00:45:41.000Z</time>
      </trkpt>
      <trkpt lat="41.319378" lon="1.953442">
        <ele>285.9</ele>
        <time>1970-01-01T00:45:42.000Z</time>
      </trkpt>
      <trkpt lat="41.319378" lon="1.953442">
        <ele>285.9</ele>
        <time>1970-01-01T00:45:43.000Z</time>
      </trkpt>
      <trkpt lat="41.31939" lon="1.953395">
        <ele>285.9</ele>
        <time>1970-01-01T00:45:44.000Z</time>
      </trkpt>
      <trkpt lat="41.3194" lon="1.95337">
        <ele>285.9</ele>
        <time>1970-01-01T00:45:45.000Z</time>
      </trkpt>
      <trkpt lat="41.3194" lon="1.95337">
        <ele>285.9</ele>
        <time>1970-01-01T00:45:46.000Z</time>
      </trkpt>
      <trkpt lat="41.319418" lon="1.953317">
        <ele>285.9</ele>
        <time>1970-01-01T00:45:47.000Z</time>
      </trkpt>
      <trkpt lat="41.319418" lon="1.953317">
        <ele>285.9</ele>
        <time>1970-01-01T00:45:48.000Z</time>
      </trkpt>
      <trkpt lat="41.319438" lon="1.953262">
        <ele>285.9</ele>
        <time>1970-01-01T00:45:49.000Z</time>
      </trkpt>
      <trkpt lat="41.319447" lon="1.953235">
        <ele>285.9</ele>
        <time>1970-01-01T00:45:50.000Z</time>
      </trkpt>
      <trkpt lat="41.319457" lon="1.953212">
        <ele>285.9</ele>
        <time>1970-01-01T00:45:51.000Z</time>
      </trkpt>
      <trkpt lat="41.319457" lon="1.953212">
        <ele>286.9</ele>
        <time>1970-01-01T00:45:52.000Z</time>
      </trkpt>
      <trkpt lat="41.319478" lon="1.953167">
        <ele>286.9</ele>
        <time>1970-01-01T00:45:53.000Z</time>
      </trkpt>
      <trkpt lat="41.319492" lon="1.953145">
        <ele>286.9</ele>
        <time>1970-01-01T00:45:54.000Z</time>
      </trkpt>
      <trkpt lat="41.319492" lon="1.953145">
        <ele>286.9</ele>
        <time>1970-01-01T00:45:55.000Z</time>
      </trkpt>
      <trkpt lat="41.319527" lon="1.953102">
        <ele>286.9</ele>
        <time>1970-01-01T00:45:56.000Z</time>
      </trkpt>
      <trkpt lat="41.319553" lon="1.953072">
        <ele>286.9</ele>
        <time>1970-01-01T00:45:57.000Z</time>
      </trkpt>
      <trkpt lat="41.319553" lon="1.953072">
        <ele>286.9</ele>
        <time>1970-01-01T00:45:58.000Z</time>
      </trkpt>
      <trkpt lat="41.319582" lon="1.953053">
        <ele>286.9</ele>
        <time>1970-01-01T00:45:59.000Z</time>
      </trkpt>
      <trkpt lat="41.319582" lon="1.953053">
        <ele>286.9</ele>
        <time>1970-01-01T00:46:00.000Z</time>
      </trkpt>
      <trkpt lat="41.319625" lon="1.953038">
        <ele>286.9</ele>
        <time>1970-01-01T00:46:01.000Z</time>
      </trkpt>
      <trkpt lat="41.319648" lon="1.953033">
        <ele>287.9</ele>
        <time>1970-01-01T00:46:02.000Z</time>
      </trkpt>
      <trkpt lat="41.319648" lon="1.953033">
        <ele>287.9</ele>
        <time>1970-01-01T00:46:03.000Z</time>
      </trkpt>
      <trkpt lat="41.31969" lon="1.95303">
        <ele>287.9</ele>
        <time>1970-01-01T00:46:04.000Z</time>
      </trkpt>
      <trkpt lat="41.31971" lon="1.953028">
        <ele>287.9</ele>
        <time>1970-01-01T00:46:05.000Z</time>
      </trkpt>
      <trkpt lat="41.319732" lon="1.95303">
        <ele>287.9</ele>
        <time>1970-01-01T00:46:06.000Z</time>
      </trkpt>
      <trkpt lat="41.319732" lon="1.95303">
        <ele>288.9</ele>
        <time>1970-01-01T00:46:07.000Z</time>
      </trkpt>
      <trkpt lat="41.319777" lon="1.953038">
        <ele>288.9</ele>
        <time>1970-01-01T00:46:08.000Z</time>
      </trkpt>
      <trkpt lat="41.319777" lon="1.953038">
        <ele>288.9</ele>
        <time>1970-01-01T00:46:09.000Z</time>
      </trkpt>
      <trkpt lat="41.319818" lon="1.95305">
        <ele>288.9</ele>
        <time>1970-01-01T00:46:10.000Z</time>
      </trkpt>
      <trkpt lat="41.319818" lon="1.95305">
        <ele>288.9</ele>
        <time>1970-01-01T00:46:11.000Z</time>
      </trkpt>
      <trkpt lat="41.31986" lon="1.953067">
        <ele>288.9</ele>
        <time>1970-01-01T00:46:12.000Z</time>
      </trkpt>
      <trkpt lat="41.31986" lon="1.953067">
        <ele>288.9</ele>
        <time>1970-01-01T00:46:13.000Z</time>
      </trkpt>
      <trkpt lat="41.319903" lon="1.95309">
        <ele>288.9</ele>
        <time>1970-01-01T00:46:14.000Z</time>
      </trkpt>
      <trkpt lat="41.319903" lon="1.95309">
        <ele>289.9</ele>
        <time>1970-01-01T00:46:15.000Z</time>
      </trkpt>
      <trkpt lat="41.319932" lon="1.953113">
        <ele>289.9</ele>
        <time>1970-01-01T00:46:16.000Z</time>
      </trkpt>
      <trkpt lat="41.319932" lon="1.953113">
        <ele>289.9</ele>
        <time>1970-01-01T00:46:17.000Z</time>
      </trkpt>
      <trkpt lat="41.319963" lon="1.953142">
        <ele>289.9</ele>
        <time>1970-01-01T00:46:18.000Z</time>
      </trkpt>
      <trkpt lat="41.319963" lon="1.953142">
        <ele>290.9</ele>
        <time>1970-01-01T00:46:19.000Z</time>
      </trkpt>
      <trkpt lat="41.319995" lon="1.953173">
        <ele>290.9</ele>
        <time>1970-01-01T00:46:20.000Z</time>
      </trkpt>
      <trkpt lat="41.32001" lon="1.95319">
        <ele>290.9</ele>
        <time>1970-01-01T00:46:21.000Z</time>
      </trkpt>
      <trkpt lat="41.32001" lon="1.95319">
        <ele>290.9</ele>
        <time>1970-01-01T00:46:22.000Z</time>
      </trkpt>
      <trkpt lat="41.320037" lon="1.953227">
        <ele>290.9</ele>
        <time>1970-01-01T00:46:23.000Z</time>
      </trkpt>
      <trkpt lat="41.320045" lon="1.953245">
        <ele>290.9</ele>
        <time>1970-01-01T00:46:24.000Z</time>
      </trkpt>
      <trkpt lat="41.320045" lon="1.953245">
        <ele>290.9</ele>
        <time>1970-01-01T00:46:25.000Z</time>
      </trkpt>
      <trkpt lat="41.320075" lon="1.953288">
        <ele>290.9</ele>
        <time>1970-01-01T00:46:26.000Z</time>
      </trkpt>
      <trkpt lat="41.320075" lon="1.953288">
        <ele>291.9</ele>
        <time>1970-01-01T00:46:27.000Z</time>
      </trkpt>
      <trkpt lat="41.32011" lon="1.953328">
        <ele>291.9</ele>
        <time>1970-01-01T00:46:28.000Z</time>
      </trkpt>
      <trkpt lat="41.32011" lon="1.953328">
        <ele>291.9</ele>
        <time>1970-01-01T00:46:29.000Z</time>
      </trkpt>
      <trkpt lat="41.320143" lon="1.953367">
        <ele>291.9</ele>
        <time>1970-01-01T00:46:30.000Z</time>
      </trkpt>
      <trkpt lat="41.32016" lon="1.953382">
        <ele>291.9</ele>
        <time>1970-01-01T00:46:31.000Z</time>
      </trkpt>
      <trkpt lat="41.32016" lon="1.953382">
        <ele>291.9</ele>
        <time>1970-01-01T00:46:32.000Z</time>
      </trkpt>
      <trkpt lat="41.32019" lon="1.953415">
        <ele>291.9</ele>
        <time>1970-01-01T00:46:33.000Z</time>
      </trkpt>
      <trkpt lat="41.32019" lon="1.953415">
        <ele>291.9</ele>
        <time>1970-01-01T00:46:34.000Z</time>
      </trkpt>
      <trkpt lat="41.320218" lon="1.953443">
        <ele>291.9</ele>
        <time>1970-01-01T00:46:35.000Z</time>
      </trkpt>
      <trkpt lat="41.320218" lon="1.953443">
        <ele>291.9</ele>
        <time>1970-01-01T00:46:36.000Z</time>
      </trkpt>
      <trkpt lat="41.320235" lon="1.953468">
        <ele>291.9</ele>
        <time>1970-01-01T00:46:37.000Z</time>
      </trkpt>
      <trkpt lat="41.320235" lon="1.953468">
        <ele>291.9</ele>
        <time>1970-01-01T00:46:38.000Z</time>
      </trkpt>
      <trkpt lat="41.320263" lon="1.953488">
        <ele>292.9</ele>
        <time>1970-01-01T00:46:39.000Z</time>
      </trkpt>
      <trkpt lat="41.320263" lon="1.953488">
        <ele>292.9</ele>
        <time>1970-01-01T00:46:40.000Z</time>
      </trkpt>
      <trkpt lat="41.32029" lon="1.953502">
        <ele>292.9</ele>
        <time>1970-01-01T00:46:41.000Z</time>
      </trkpt>
      <trkpt lat="41.32031" lon="1.953505">
        <ele>292.9</ele>
        <time>1970-01-01T00:46:42.000Z</time>
      </trkpt>
      <trkpt lat="41.32031" lon="1.953505">
        <ele>292.9</ele>
        <time>1970-01-01T00:46:43.000Z</time>
      </trkpt>
      <trkpt lat="41.320348" lon="1.95351">
        <ele>292.9</ele>
        <time>1970-01-01T00:46:44.000Z</time>
      </trkpt>
      <trkpt lat="41.320348" lon="1.95351">
        <ele>292.9</ele>
        <time>1970-01-01T00:46:45.000Z</time>
      </trkpt>
      <trkpt lat="41.32039" lon="1.953512">
        <ele>292.9</ele>
        <time>1970-01-01T00:46:46.000Z</time>
      </trkpt>
      <trkpt lat="41.32039" lon="1.953512">
        <ele>293.9</ele>
        <time>1970-01-01T00:46:47.000Z</time>
      </trkpt>
      <trkpt lat="41.320427" lon="1.953513">
        <ele>293.9</ele>
        <time>1970-01-01T00:46:48.000Z</time>
      </trkpt>
      <trkpt lat="41.320427" lon="1.953513">
        <ele>293.9</ele>
        <time>1970-01-01T00:46:49.000Z</time>
      </trkpt>
      <trkpt lat="41.320458" lon="1.95352">
        <ele>293.9</ele>
        <time>1970-01-01T00:46:50.000Z</time>
      </trkpt>
      <trkpt lat="41.320458" lon="1.95352">
        <ele>293.9</ele>
        <time>1970-01-01T00:46:51.000Z</time>
      </trkpt>
      <trkpt lat="41.320497" lon="1.953525">
        <ele>294.9</ele>
        <time>1970-01-01T00:46:52.000Z</time>
      </trkpt>
      <trkpt lat="41.320497" lon="1.953525">
        <ele>294.9</ele>
        <time>1970-01-01T00:46:53.000Z</time>
      </trkpt>
      <trkpt lat="41.320535" lon="1.953533">
        <ele>294.9</ele>
        <time>1970-01-01T00:46:54.000Z</time>
      </trkpt>
      <trkpt lat="41.320553" lon="1.953535">
        <ele>294.9</ele>
        <time>1970-01-01T00:46:55.000Z</time>
      </trkpt>
      <trkpt lat="41.320553" lon="1.953535">
        <ele>294.9</ele>
        <time>1970-01-01T00:46:56.000Z</time>
      </trkpt>
      <trkpt lat="41.320592" lon="1.953535">
        <ele>294.9</ele>
        <time>1970-01-01T00:46:57.000Z</time>
      </trkpt>
      <trkpt lat="41.320592" lon="1.953535">
        <ele>294.9</ele>
        <time>1970-01-01T00:46:58.000Z</time>
      </trkpt>
      <trkpt lat="41.32063" lon="1.953537">
        <ele>294.9</ele>
        <time>1970-01-01T00:46:59.000Z</time>
      </trkpt>
      <trkpt lat="41.32065" lon="1.953535">
        <ele>295.9</ele>
        <time>1970-01-01T00:47:00.000Z</time>
      </trkpt>
      <trkpt lat="41.32065" lon="1.953535">
        <ele>295.9</ele>
        <time>1970-01-01T00:47:01.000Z</time>
      </trkpt>
      <trkpt lat="41.32069" lon="1.953537">
        <ele>295.9</ele>
        <time>1970-01-01T00:47:02.000Z</time>
      </trkpt>
      <trkpt lat="41.32069" lon="1.953537">
        <ele>295.9</ele>
        <time>1970-01-01T00:47:03.000Z</time>
      </trkpt>
      <trkpt lat="41.320733" lon="1.95354">
        <ele>295.9</ele>
        <time>1970-01-01T00:47:04.000Z</time>
      </trkpt>
      <trkpt lat="41.320733" lon="1.95354">
        <ele>295.9</ele>
        <time>1970-01-01T00:47:05.000Z</time>
      </trkpt>
      <trkpt lat="41.320772" lon="1.953543">
        <ele>295.9</ele>
        <time>1970-01-01T00:47:06.000Z</time>
      </trkpt>
      <trkpt lat="41.320772" lon="1.953543">
        <ele>295.9</ele>
        <time>1970-01-01T00:47:07.000Z</time>
      </trkpt>
      <trkpt lat="41.32081" lon="1.95354">
        <ele>296.9</ele>
        <time>1970-01-01T00:47:08.000Z</time>
      </trkpt>
      <trkpt lat="41.320828" lon="1.953537">
        <ele>296.9</ele>
        <time>1970-01-01T00:47:09.000Z</time>
      </trkpt>
      <trkpt lat="41.320828" lon="1.953537">
        <ele>296.9</ele>
        <time>1970-01-01T00:47:10.000Z</time>
      </trkpt>
      <trkpt lat="41.320868" lon="1.953528">
        <ele>296.9</ele>
        <time>1970-01-01T00:47:11.000Z</time>
      </trkpt>
      <trkpt lat="41.320888" lon="1.953522">
        <ele>296.9</ele>
        <time>1970-01-01T00:47:12.000Z</time>
      </trkpt>
      <trkpt lat="41.320888" lon="1.953522">
        <ele>296.9</ele>
        <time>1970-01-01T00:47:13.000Z</time>
      </trkpt>
      <trkpt lat="41.320923" lon="1.953512">
        <ele>296.9</ele>
        <time>1970-01-01T00:47:14.000Z</time>
      </trkpt>
      <trkpt lat="41.320923" lon="1.953512">
        <ele>296.9</ele>
        <time>1970-01-01T00:47:15.000Z</time>
      </trkpt>
      <trkpt lat="41.320958" lon="1.953498">
        <ele>297.9</ele>
        <time>1970-01-01T00:47:16.000Z</time>
      </trkpt>
      <trkpt lat="41.320958" lon="1.953498">
        <ele>297.9</ele>
        <time>1970-01-01T00:47:17.000Z</time>
      </trkpt>
      <trkpt lat="41.32099" lon="1.953475">
        <ele>297.9</ele>
        <time>1970-01-01T00:47:18.000Z</time>
      </trkpt>
      <trkpt lat="41.32099" lon="1.953475">
        <ele>297.9</ele>
        <time>1970-01-01T00:47:19.000Z</time>
      </trkpt>
      <trkpt lat="41.32102" lon="1.953447">
        <ele>297.9</ele>
        <time>1970-01-01T00:47:20.000Z</time>
      </trkpt>
      <trkpt lat="41.32102" lon="1.953447">
        <ele>297.9</ele>
        <time>1970-01-01T00:47:21.000Z</time>
      </trkpt>
      <trkpt lat="41.32105" lon="1.953415">
        <ele>297.9</ele>
        <time>1970-01-01T00:47:22.000Z</time>
      </trkpt>
      <trkpt lat="41.32105" lon="1.953415">
        <ele>297.9</ele>
        <time>1970-01-01T00:47:23.000Z</time>
      </trkpt>
      <trkpt lat="41.321075" lon="1.953382">
        <ele>297.9</ele>
        <time>1970-01-01T00:47:24.000Z</time>
      </trkpt>
      <trkpt lat="41.321075" lon="1.953382">
        <ele>297.9</ele>
        <time>1970-01-01T00:47:25.000Z</time>
      </trkpt>
      <trkpt lat="41.3211" lon="1.953345">
        <ele>297.9</ele>
        <time>1970-01-01T00:47:26.000Z</time>
      </trkpt>
      <trkpt lat="41.3211" lon="1.953345">
        <ele>297.9</ele>
        <time>1970-01-01T00:47:27.000Z</time>
      </trkpt>
      <trkpt lat="41.32112" lon="1.953298">
        <ele>298.9</ele>
        <time>1970-01-01T00:47:28.000Z</time>
      </trkpt>
      <trkpt lat="41.321132" lon="1.953275">
        <ele>298.9</ele>
        <time>1970-01-01T00:47:29.000Z</time>
      </trkpt>
      <trkpt lat="41.321132" lon="1.953275">
        <ele>298.9</ele>
        <time>1970-01-01T00:47:30.000Z</time>
      </trkpt>
      <trkpt lat="41.32115" lon="1.953227">
        <ele>298.9</ele>
        <time>1970-01-01T00:47:31.000Z</time>
      </trkpt>
      <trkpt lat="41.32115" lon="1.953227">
        <ele>298.9</ele>
        <time>1970-01-01T00:47:32.000Z</time>
      </trkpt>
      <trkpt lat="41.321165" lon="1.95318">
        <ele>299.9</ele>
        <time>1970-01-01T00:47:33.000Z</time>
      </trkpt>
      <trkpt lat="41.321165" lon="1.95318">
        <ele>299.9</ele>
        <time>1970-01-01T00:47:34.000Z</time>
      </trkpt>
      <trkpt lat="41.32118" lon="1.95313">
        <ele>299.9</ele>
        <time>1970-01-01T00:47:35.000Z</time>
      </trkpt>
      <trkpt lat="41.32118" lon="1.95313">
        <ele>299.9</ele>
        <time>1970-01-01T00:47:36.000Z</time>
      </trkpt>
      <trkpt lat="41.321193" lon="1.953082">
        <ele>299.9</ele>
        <time>1970-01-01T00:47:37.000Z</time>
      </trkpt>
      <trkpt lat="41.321193" lon="1.953082">
        <ele>299.9</ele>
        <time>1970-01-01T00:47:38.000Z</time>
      </trkpt>
      <trkpt lat="41.321208" lon="1.953032">
        <ele>299.9</ele>
        <time>1970-01-01T00:47:39.000Z</time>
      </trkpt>
      <trkpt lat="41.321208" lon="1.953032">
        <ele>299.9</ele>
        <time>1970-01-01T00:47:40.000Z</time>
      </trkpt>
      <trkpt lat="41.321225" lon="1.952983">
        <ele>300.9</ele>
        <time>1970-01-01T00:47:41.000Z</time>
      </trkpt>
      <trkpt lat="41.321225" lon="1.952983">
        <ele>300.9</ele>
        <time>1970-01-01T00:47:42.000Z</time>
      </trkpt>
      <trkpt lat="41.321242" lon="1.952935">
        <ele>300.9</ele>
        <time>1970-01-01T00:47:43.000Z</time>
      </trkpt>
      <trkpt lat="41.321242" lon="1.952935">
        <ele>300.9</ele>
        <time>1970-01-01T00:47:44.000Z</time>
      </trkpt>
      <trkpt lat="41.32126" lon="1.952887">
        <ele>301.9</ele>
        <time>1970-01-01T00:47:45.000Z</time>
      </trkpt>
      <trkpt lat="41.32126" lon="1.952887">
        <ele>301.9</ele>
        <time>1970-01-01T00:47:46.000Z</time>
      </trkpt>
      <trkpt lat="41.321278" lon="1.95284">
        <ele>301.9</ele>
        <time>1970-01-01T00:47:47.000Z</time>
      </trkpt>
      <trkpt lat="41.321278" lon="1.95284">
        <ele>301.9</ele>
        <time>1970-01-01T00:47:48.000Z</time>
      </trkpt>
      <trkpt lat="41.321302" lon="1.9528">
        <ele>301.9</ele>
        <time>1970-01-01T00:47:49.000Z</time>
      </trkpt>
      <trkpt lat="41.321302" lon="1.9528">
        <ele>301.9</ele>
        <time>1970-01-01T00:47:50.000Z</time>
      </trkpt>
      <trkpt lat="41.321322" lon="1.952758">
        <ele>302.9</ele>
        <time>1970-01-01T00:47:51.000Z</time>
      </trkpt>
      <trkpt lat="41.321322" lon="1.952758">
        <ele>302.9</ele>
        <time>1970-01-01T00:47:52.000Z</time>
      </trkpt>
      <trkpt lat="41.32134" lon="1.952717">
        <ele>302.9</ele>
        <time>1970-01-01T00:47:53.000Z</time>
      </trkpt>
      <trkpt lat="41.32134" lon="1.952717">
        <ele>302.9</ele>
        <time>1970-01-01T00:47:54.000Z</time>
      </trkpt>
      <trkpt lat="41.321372" lon="1.952672">
        <ele>302.9</ele>
        <time>1970-01-01T00:47:55.000Z</time>
      </trkpt>
      <trkpt lat="41.321372" lon="1.952672">
        <ele>302.9</ele>
        <time>1970-01-01T00:47:56.000Z</time>
      </trkpt>
      <trkpt lat="41.321403" lon="1.952633">
        <ele>303.9</ele>
        <time>1970-01-01T00:47:57.000Z</time>
      </trkpt>
      <trkpt lat="41.321403" lon="1.952633">
        <ele>303.9</ele>
        <time>1970-01-01T00:47:58.000Z</time>
      </trkpt>
      <trkpt lat="41.32143" lon="1.952605">
        <ele>303.9</ele>
        <time>1970-01-01T00:47:59.000Z</time>
      </trkpt>
      <trkpt lat="41.32143" lon="1.952605">
        <ele>303.9</ele>
        <time>1970-01-01T00:48:00.000Z</time>
      </trkpt>
      <trkpt lat="41.321462" lon="1.952578">
        <ele>303.9</ele>
        <time>1970-01-01T00:48:01.000Z</time>
      </trkpt>
      <trkpt lat="41.321462" lon="1.952578">
        <ele>303.9</ele>
        <time>1970-01-01T00:48:02.000Z</time>
      </trkpt>
      <trkpt lat="41.321495" lon="1.952555">
        <ele>304.9</ele>
        <time>1970-01-01T00:48:03.000Z</time>
      </trkpt>
      <trkpt lat="41.321495" lon="1.952555">
        <ele>304.9</ele>
        <time>1970-01-01T00:48:04.000Z</time>
      </trkpt>
      <trkpt lat="41.321532" lon="1.95253">
        <ele>304.9</ele>
        <time>1970-01-01T00:48:05.000Z</time>
      </trkpt>
      <trkpt lat="41.321547" lon="1.952518">
        <ele>304.9</ele>
        <time>1970-01-01T00:48:06.000Z</time>
      </trkpt>
      <trkpt lat="41.321547" lon="1.952518">
        <ele>304.9</ele>
        <time>1970-01-01T00:48:07.000Z</time>
      </trkpt>
      <trkpt lat="41.321577" lon="1.952485">
        <ele>304.9</ele>
        <time>1970-01-01T00:48:08.000Z</time>
      </trkpt>
      <trkpt lat="41.321592" lon="1.952468">
        <ele>305.9</ele>
        <time>1970-01-01T00:48:09.000Z</time>
      </trkpt>
      <trkpt lat="41.321592" lon="1.952468">
        <ele>305.9</ele>
        <time>1970-01-01T00:48:10.000Z</time>
      </trkpt>
      <trkpt lat="41.321625" lon="1.952438">
        <ele>305.9</ele>
        <time>1970-01-01T00:48:11.000Z</time>
      </trkpt>
      <trkpt lat="41.321625" lon="1.952438">
        <ele>305.9</ele>
        <time>1970-01-01T00:48:12.000Z</time>
      </trkpt>
      <trkpt lat="41.321655" lon="1.952408">
        <ele>305.9</ele>
        <time>1970-01-01T00:48:13.000Z</time>
      </trkpt>
      <trkpt lat="41.321655" lon="1.952408">
        <ele>305.9</ele>
        <time>1970-01-01T00:48:14.000Z</time>
      </trkpt>
      <trkpt lat="41.321685" lon="1.952378">
        <ele>305.9</ele>
        <time>1970-01-01T00:48:15.000Z</time>
      </trkpt>
      <trkpt lat="41.321685" lon="1.952378">
        <ele>306.9</ele>
        <time>1970-01-01T00:48:16.000Z</time>
      </trkpt>
      <trkpt lat="41.321708" lon="1.952342">
        <ele>306.9</ele>
        <time>1970-01-01T00:48:17.000Z</time>
      </trkpt>
      <trkpt lat="41.321708" lon="1.952342">
        <ele>306.9</ele>
        <time>1970-01-01T00:48:18.000Z</time>
      </trkpt>
      <trkpt lat="41.321728" lon="1.952303">
        <ele>306.9</ele>
        <time>1970-01-01T00:48:19.000Z</time>
      </trkpt>
      <trkpt lat="41.321738" lon="1.952283">
        <ele>307.9</ele>
        <time>1970-01-01T00:48:20.000Z</time>
      </trkpt>
      <trkpt lat="41.321747" lon="1.952262">
        <ele>307.9</ele>
        <time>1970-01-01T00:48:21.000Z</time>
      </trkpt>
      <trkpt lat="41.321747" lon="1.952262">
        <ele>307.9</ele>
        <time>1970-01-01T00:48:22.000Z</time>
      </trkpt>
      <trkpt lat="41.321763" lon="1.95222">
        <ele>307.9</ele>
        <time>1970-01-01T00:48:23.000Z</time>
      </trkpt>
      <trkpt lat="41.321763" lon="1.95222">
        <ele>308.9</ele>
        <time>1970-01-01T00:48:24.000Z</time>
      </trkpt>
      <trkpt lat="41.321777" lon="1.952178">
        <ele>308.9</ele>
        <time>1970-01-01T00:48:25.000Z</time>
      </trkpt>
      <trkpt lat="41.321777" lon="1.952178">
        <ele>308.9</ele>
        <time>1970-01-01T00:48:26.000Z</time>
      </trkpt>
      <trkpt lat="41.32179" lon="1.952135">
        <ele>308.9</ele>
        <time>1970-01-01T00:48:27.000Z</time>
      </trkpt>
      <trkpt lat="41.32179" lon="1.952135">
        <ele>308.9</ele>
        <time>1970-01-01T00:48:28.000Z</time>
      </trkpt>
      <trkpt lat="41.321797" lon="1.95209">
        <ele>308.9</ele>
        <time>1970-01-01T00:48:29.000Z</time>
      </trkpt>
      <trkpt lat="41.321798" lon="1.952068">
        <ele>309.9</ele>
        <time>1970-01-01T00:48:30.000Z</time>
      </trkpt>
      <trkpt lat="41.321798" lon="1.952068">
        <ele>309.9</ele>
        <time>1970-01-01T00:48:31.000Z</time>
      </trkpt>
      <trkpt lat="41.321803" lon="1.952018">
        <ele>309.9</ele>
        <time>1970-01-01T00:48:32.000Z</time>
      </trkpt>
      <trkpt lat="41.321803" lon="1.952018">
        <ele>309.9</ele>
        <time>1970-01-01T00:48:33.000Z</time>
      </trkpt>
      <trkpt lat="41.321802" lon="1.951977">
        <ele>310.9</ele>
        <time>1970-01-01T00:48:34.000Z</time>
      </trkpt>
      <trkpt lat="41.321802" lon="1.951977">
        <ele>310.9</ele>
        <time>1970-01-01T00:48:35.000Z</time>
      </trkpt>
      <trkpt lat="41.321793" lon="1.951932">
        <ele>310.9</ele>
        <time>1970-01-01T00:48:36.000Z</time>
      </trkpt>
      <trkpt lat="41.321793" lon="1.951932">
        <ele>310.9</ele>
        <time>1970-01-01T00:48:37.000Z</time>
      </trkpt>
      <trkpt lat="41.321787" lon="1.951887">
        <ele>310.9</ele>
        <time>1970-01-01T00:48:38.000Z</time>
      </trkpt>
      <trkpt lat="41.32178" lon="1.951867">
        <ele>310.9</ele>
        <time>1970-01-01T00:48:39.000Z</time>
      </trkpt>
      <trkpt lat="41.32178" lon="1.951867">
        <ele>310.9</ele>
        <time>1970-01-01T00:48:40.000Z</time>
      </trkpt>
      <trkpt lat="41.321767" lon="1.95182">
        <ele>310.9</ele>
        <time>1970-01-01T00:48:41.000Z</time>
      </trkpt>
      <trkpt lat="41.321763" lon="1.951798">
        <ele>310.9</ele>
        <time>1970-01-01T00:48:42.000Z</time>
      </trkpt>
      <trkpt lat="41.321763" lon="1.951798">
        <ele>311.9</ele>
        <time>1970-01-01T00:48:43.000Z</time>
      </trkpt>
      <trkpt lat="41.321757" lon="1.951755">
        <ele>311.9</ele>
        <time>1970-01-01T00:48:44.000Z</time>
      </trkpt>
      <trkpt lat="41.321752" lon="1.951732">
        <ele>311.9</ele>
        <time>1970-01-01T00:48:45.000Z</time>
      </trkpt>
      <trkpt lat="41.321752" lon="1.951732">
        <ele>311.9</ele>
        <time>1970-01-01T00:48:46.000Z</time>
      </trkpt>
      <trkpt lat="41.32175" lon="1.951683">
        <ele>311.9</ele>
        <time>1970-01-01T00:48:47.000Z</time>
      </trkpt>
      <trkpt lat="41.321748" lon="1.951655">
        <ele>311.9</ele>
        <time>1970-01-01T00:48:48.000Z</time>
      </trkpt>
      <trkpt lat="41.321748" lon="1.951655">
        <ele>311.9</ele>
        <time>1970-01-01T00:48:49.000Z</time>
      </trkpt>
      <trkpt lat="41.321745" lon="1.951605">
        <ele>312.9</ele>
        <time>1970-01-01T00:48:50.000Z</time>
      </trkpt>
      <trkpt lat="41.321745" lon="1.951605">
        <ele>312.9</ele>
        <time>1970-01-01T00:48:51.000Z</time>
      </trkpt>
      <trkpt lat="41.321753" lon="1.951552">
        <ele>312.9</ele>
        <time>1970-01-01T00:48:52.000Z</time>
      </trkpt>
      <trkpt lat="41.321753" lon="1.951552">
        <ele>312.9</ele>
        <time>1970-01-01T00:48:53.000Z</time>
      </trkpt>
      <trkpt lat="41.32176" lon="1.951507">
        <ele>312.9</ele>
        <time>1970-01-01T00:48:54.000Z</time>
      </trkpt>
      <trkpt lat="41.32176" lon="1.951507">
        <ele>312.9</ele>
        <time>1970-01-01T00:48:55.000Z</time>
      </trkpt>
      <trkpt lat="41.321768" lon="1.951455">
        <ele>312.9</ele>
        <time>1970-01-01T00:48:56.000Z</time>
      </trkpt>
      <trkpt lat="41.321768" lon="1.951455">
        <ele>312.9</ele>
        <time>1970-01-01T00:48:57.000Z</time>
      </trkpt>
      <trkpt lat="41.321785" lon="1.951398">
        <ele>313.9</ele>
        <time>1970-01-01T00:48:58.000Z</time>
      </trkpt>
      <trkpt lat="41.321785" lon="1.951398">
        <ele>313.9</ele>
        <time>1970-01-01T00:48:59.000Z</time>
      </trkpt>
      <trkpt lat="41.321802" lon="1.951352">
        <ele>313.9</ele>
        <time>1970-01-01T00:49:00.000Z</time>
      </trkpt>
      <trkpt lat="41.321812" lon="1.951328">
        <ele>313.9</ele>
        <time>1970-01-01T00:49:01.000Z</time>
      </trkpt>
      <trkpt lat="41.321812" lon="1.951328">
        <ele>313.9</ele>
        <time>1970-01-01T00:49:02.000Z</time>
      </trkpt>
      <trkpt lat="41.321827" lon="1.951277">
        <ele>313.9</ele>
        <time>1970-01-01T00:49:03.000Z</time>
      </trkpt>
      <trkpt lat="41.321827" lon="1.951277">
        <ele>313.9</ele>
        <time>1970-01-01T00:49:04.000Z</time>
      </trkpt>
      <trkpt lat="41.321847" lon="1.95123">
        <ele>314.9</ele>
        <time>1970-01-01T00:49:05.000Z</time>
      </trkpt>
      <trkpt lat="41.321857" lon="1.95121">
        <ele>314.9</ele>
        <time>1970-01-01T00:49:06.000Z</time>
      </trkpt>
      <trkpt lat="41.321857" lon="1.95121">
        <ele>314.9</ele>
        <time>1970-01-01T00:49:07.000Z</time>
      </trkpt>
      <trkpt lat="41.321878" lon="1.951178">
        <ele>314.9</ele>
        <time>1970-01-01T00:49:08.000Z</time>
      </trkpt>
      <trkpt lat="41.32189" lon="1.951165">
        <ele>315.9</ele>
        <time>1970-01-01T00:49:09.000Z</time>
      </trkpt>
      <trkpt lat="41.32189" lon="1.951165">
        <ele>315.9</ele>
        <time>1970-01-01T00:49:10.000Z</time>
      </trkpt>
      <trkpt lat="41.321918" lon="1.951138">
        <ele>315.9</ele>
        <time>1970-01-01T00:49:11.000Z</time>
      </trkpt>
      <trkpt lat="41.32193" lon="1.951125">
        <ele>315.9</ele>
        <time>1970-01-01T00:49:12.000Z</time>
      </trkpt>
      <trkpt lat="41.32193" lon="1.951125">
        <ele>315.9</ele>
        <time>1970-01-01T00:49:13.000Z</time>
      </trkpt>
      <trkpt lat="41.321958" lon="1.951102">
        <ele>315.9</ele>
        <time>1970-01-01T00:49:14.000Z</time>
      </trkpt>
      <trkpt lat="41.321975" lon="1.95109">
        <ele>316.9</ele>
        <time>1970-01-01T00:49:15.000Z</time>
      </trkpt>
      <trkpt lat="41.321975" lon="1.95109">
        <ele>316.9</ele>
        <time>1970-01-01T00:49:16.000Z</time>
      </trkpt>
      <trkpt lat="41.322007" lon="1.951065">
        <ele>316.9</ele>
        <time>1970-01-01T00:49:17.000Z</time>
      </trkpt>
      <trkpt lat="41.322025" lon="1.951055">
        <ele>316.9</ele>
        <time>1970-01-01T00:49:18.000Z</time>
      </trkpt>
      <trkpt lat="41.322042" lon="1.951043">
        <ele>316.9</ele>
        <time>1970-01-01T00:49:19.000Z</time>
      </trkpt>
      <trkpt lat="41.322042" lon="1.951043">
        <ele>316.9</ele>
        <time>1970-01-01T00:49:20.000Z</time>
      </trkpt>
      <trkpt lat="41.322073" lon="1.951025">
        <ele>316.9</ele>
        <time>1970-01-01T00:49:21.000Z</time>
      </trkpt>
      <trkpt lat="41.322073" lon="1.951025">
        <ele>316.9</ele>
        <time>1970-01-01T00:49:22.000Z</time>
      </trkpt>
      <trkpt lat="41.322108" lon="1.951008">
        <ele>316.9</ele>
        <time>1970-01-01T00:49:23.000Z</time>
      </trkpt>
      <trkpt lat="41.322108" lon="1.951008">
        <ele>316.9</ele>
        <time>1970-01-01T00:49:24.000Z</time>
      </trkpt>
      <trkpt lat="41.32215" lon="1.950992">
        <ele>316.9</ele>
        <time>1970-01-01T00:49:25.000Z</time>
      </trkpt>
      <trkpt lat="41.32215" lon="1.950992">
        <ele>316.9</ele>
        <time>1970-01-01T00:49:26.000Z</time>
      </trkpt>
      <trkpt lat="41.322185" lon="1.95098">
        <ele>317.9</ele>
        <time>1970-01-01T00:49:27.000Z</time>
      </trkpt>
      <trkpt lat="41.322185" lon="1.95098">
        <ele>317.9</ele>
        <time>1970-01-01T00:49:28.000Z</time>
      </trkpt>
      <trkpt lat="41.322225" lon="1.950965">
        <ele>317.9</ele>
        <time>1970-01-01T00:49:29.000Z</time>
      </trkpt>
      <trkpt lat="41.322225" lon="1.950965">
        <ele>317.9</ele>
        <time>1970-01-01T00:49:30.000Z</time>
      </trkpt>
      <trkpt lat="41.32226" lon="1.95096">
        <ele>317.9</ele>
        <time>1970-01-01T00:49:31.000Z</time>
      </trkpt>
      <trkpt lat="41.32226" lon="1.95096">
        <ele>317.9</ele>
        <time>1970-01-01T00:49:32.000Z</time>
      </trkpt>
      <trkpt lat="41.322297" lon="1.950958">
        <ele>317.9</ele>
        <time>1970-01-01T00:49:33.000Z</time>
      </trkpt>
      <trkpt lat="41.322297" lon="1.950958">
        <ele>317.9</ele>
        <time>1970-01-01T00:49:34.000Z</time>
      </trkpt>
      <trkpt lat="41.322337" lon="1.950955">
        <ele>317.9</ele>
        <time>1970-01-01T00:49:35.000Z</time>
      </trkpt>
      <trkpt lat="41.322353" lon="1.950955">
        <ele>317.9</ele>
        <time>1970-01-01T00:49:36.000Z</time>
      </trkpt>
      <trkpt lat="41.322353" lon="1.950955">
        <ele>318.9</ele>
        <time>1970-01-01T00:49:37.000Z</time>
      </trkpt>
      <trkpt lat="41.322392" lon="1.950952">
        <ele>318.9</ele>
        <time>1970-01-01T00:49:38.000Z</time>
      </trkpt>
      <trkpt lat="41.322408" lon="1.95095">
        <ele>318.9</ele>
        <time>1970-01-01T00:49:39.000Z</time>
      </trkpt>
      <trkpt lat="41.322408" lon="1.95095">
        <ele>318.9</ele>
        <time>1970-01-01T00:49:40.000Z</time>
      </trkpt>
      <trkpt lat="41.32244" lon="1.950947">
        <ele>318.9</ele>
        <time>1970-01-01T00:49:41.000Z</time>
      </trkpt>
      <trkpt lat="41.32244" lon="1.950947">
        <ele>318.9</ele>
        <time>1970-01-01T00:49:42.000Z</time>
      </trkpt>
      <trkpt lat="41.322472" lon="1.950948">
        <ele>319.9</ele>
        <time>1970-01-01T00:49:43.000Z</time>
      </trkpt>
      <trkpt lat="41.32249" lon="1.950947">
        <ele>319.9</ele>
        <time>1970-01-01T00:49:44.000Z</time>
      </trkpt>
      <trkpt lat="41.322507" lon="1.950942">
        <ele>319.9</ele>
        <time>1970-01-01T00:49:45.000Z</time>
      </trkpt>
      <trkpt lat="41.322507" lon="1.950942">
        <ele>319.9</ele>
        <time>1970-01-01T00:49:46.000Z</time>
      </trkpt>
      <trkpt lat="41.322543" lon="1.950933">
        <ele>319.9</ele>
        <time>1970-01-01T00:49:47.000Z</time>
      </trkpt>
      <trkpt lat="41.322558" lon="1.950927">
        <ele>320.9</ele>
        <time>1970-01-01T00:49:48.000Z</time>
      </trkpt>
      <trkpt lat="41.322558" lon="1.950927">
        <ele>320.9</ele>
        <time>1970-01-01T00:49:49.000Z</time>
      </trkpt>
      <trkpt lat="41.322593" lon="1.950917">
        <ele>320.9</ele>
        <time>1970-01-01T00:49:50.000Z</time>
      </trkpt>
      <trkpt lat="41.322593" lon="1.950917">
        <ele>320.9</ele>
        <time>1970-01-01T00:49:51.000Z</time>
      </trkpt>
      <trkpt lat="41.322625" lon="1.950907">
        <ele>320.9</ele>
        <time>1970-01-01T00:49:52.000Z</time>
      </trkpt>
      <trkpt lat="41.322625" lon="1.950907">
        <ele>320.9</ele>
        <time>1970-01-01T00:49:53.000Z</time>
      </trkpt>
      <trkpt lat="41.322662" lon="1.950888">
        <ele>320.9</ele>
        <time>1970-01-01T00:49:54.000Z</time>
      </trkpt>
      <trkpt lat="41.322662" lon="1.950888">
        <ele>321.9</ele>
        <time>1970-01-01T00:49:55.000Z</time>
      </trkpt>
      <trkpt lat="41.322695" lon="1.950877">
        <ele>321.9</ele>
        <time>1970-01-01T00:49:56.000Z</time>
      </trkpt>
      <trkpt lat="41.322695" lon="1.950877">
        <ele>321.9</ele>
        <time>1970-01-01T00:49:57.000Z</time>
      </trkpt>
      <trkpt lat="41.322732" lon="1.950865">
        <ele>321.9</ele>
        <time>1970-01-01T00:49:58.000Z</time>
      </trkpt>
      <trkpt lat="41.322732" lon="1.950865">
        <ele>321.9</ele>
        <time>1970-01-01T00:49:59.000Z</time>
      </trkpt>
      <trkpt lat="41.322767" lon="1.950853">
        <ele>321.9</ele>
        <time>1970-01-01T00:50:00.000Z</time>
      </trkpt>
      <trkpt lat="41.322767" lon="1.950853">
        <ele>322.9</ele>
        <time>1970-01-01T00:50:01.000Z</time>
      </trkpt>
      <trkpt lat="41.322798" lon="1.950842">
        <ele>322.9</ele>
        <time>1970-01-01T00:50:02.000Z</time>
      </trkpt>
      <trkpt lat="41.322798" lon="1.950842">
        <ele>322.9</ele>
        <time>1970-01-01T00:50:03.000Z</time>
      </trkpt>
      <trkpt lat="41.322832" lon="1.950828">
        <ele>322.9</ele>
        <time>1970-01-01T00:50:04.000Z</time>
      </trkpt>
      <trkpt lat="41.322832" lon="1.950828">
        <ele>322.9</ele>
        <time>1970-01-01T00:50:05.000Z</time>
      </trkpt>
      <trkpt lat="41.322867" lon="1.950817">
        <ele>322.9</ele>
        <time>1970-01-01T00:50:06.000Z</time>
      </trkpt>
      <trkpt lat="41.322867" lon="1.950817">
        <ele>323.9</ele>
        <time>1970-01-01T00:50:07.000Z</time>
      </trkpt>
      <trkpt lat="41.322902" lon="1.950803">
        <ele>323.9</ele>
        <time>1970-01-01T00:50:08.000Z</time>
      </trkpt>
      <trkpt lat="41.322918" lon="1.950797">
        <ele>323.9</ele>
        <time>1970-01-01T00:50:09.000Z</time>
      </trkpt>
      <trkpt lat="41.322918" lon="1.950797">
        <ele>323.9</ele>
        <time>1970-01-01T00:50:10.000Z</time>
      </trkpt>
      <trkpt lat="41.322952" lon="1.950783">
        <ele>323.9</ele>
        <time>1970-01-01T00:50:11.000Z</time>
      </trkpt>
      <trkpt lat="41.322952" lon="1.950783">
        <ele>323.9</ele>
        <time>1970-01-01T00:50:12.000Z</time>
      </trkpt>
      <trkpt lat="41.322985" lon="1.95077">
        <ele>324.9</ele>
        <time>1970-01-01T00:50:13.000Z</time>
      </trkpt>
      <trkpt lat="41.322985" lon="1.95077">
        <ele>324.9</ele>
        <time>1970-01-01T00:50:14.000Z</time>
      </trkpt>
      <trkpt lat="41.32302" lon="1.950755">
        <ele>324.9</ele>
        <time>1970-01-01T00:50:15.000Z</time>
      </trkpt>
      <trkpt lat="41.32302" lon="1.950755">
        <ele>324.9</ele>
        <time>1970-01-01T00:50:16.000Z</time>
      </trkpt>
      <trkpt lat="41.323053" lon="1.950742">
        <ele>324.9</ele>
        <time>1970-01-01T00:50:17.000Z</time>
      </trkpt>
      <trkpt lat="41.323053" lon="1.950742">
        <ele>324.9</ele>
        <time>1970-01-01T00:50:18.000Z</time>
      </trkpt>
      <trkpt lat="41.323088" lon="1.950727">
        <ele>324.9</ele>
        <time>1970-01-01T00:50:19.000Z</time>
      </trkpt>
      <trkpt lat="41.323107" lon="1.950718">
        <ele>324.9</ele>
        <time>1970-01-01T00:50:20.000Z</time>
      </trkpt>
      <trkpt lat="41.323107" lon="1.950718">
        <ele>325.9</ele>
        <time>1970-01-01T00:50:21.000Z</time>
      </trkpt>
      <trkpt lat="41.32314" lon="1.950702">
        <ele>325.9</ele>
        <time>1970-01-01T00:50:22.000Z</time>
      </trkpt>
      <trkpt lat="41.32314" lon="1.950702">
        <ele>325.9</ele>
        <time>1970-01-01T00:50:23.000Z</time>
      </trkpt>
      <trkpt lat="41.323173" lon="1.950682">
        <ele>325.9</ele>
        <time>1970-01-01T00:50:24.000Z</time>
      </trkpt>
      <trkpt lat="41.323173" lon="1.950682">
        <ele>325.9</ele>
        <time>1970-01-01T00:50:25.000Z</time>
      </trkpt>
      <trkpt lat="41.323207" lon="1.950662">
        <ele>325.9</ele>
        <time>1970-01-01T00:50:26.000Z</time>
      </trkpt>
      <trkpt lat="41.323223" lon="1.950653">
        <ele>325.9</ele>
        <time>1970-01-01T00:50:27.000Z</time>
      </trkpt>
      <trkpt lat="41.323223" lon="1.950653">
        <ele>325.9</ele>
        <time>1970-01-01T00:50:28.000Z</time>
      </trkpt>
      <trkpt lat="41.323255" lon="1.950635">
        <ele>325.9</ele>
        <time>1970-01-01T00:50:29.000Z</time>
      </trkpt>
      <trkpt lat="41.323255" lon="1.950635">
        <ele>325.9</ele>
        <time>1970-01-01T00:50:30.000Z</time>
      </trkpt>
      <trkpt lat="41.323288" lon="1.950613">
        <ele>325.9</ele>
        <time>1970-01-01T00:50:31.000Z</time>
      </trkpt>
      <trkpt lat="41.323305" lon="1.950603">
        <ele>325.9</ele>
        <time>1970-01-01T00:50:32.000Z</time>
      </trkpt>
      <trkpt lat="41.323305" lon="1.950603">
        <ele>325.9</ele>
        <time>1970-01-01T00:50:33.000Z</time>
      </trkpt>
      <trkpt lat="41.323337" lon="1.950583">
        <ele>326.9</ele>
        <time>1970-01-01T00:50:34.000Z</time>
      </trkpt>
      <trkpt lat="41.323337" lon="1.950583">
        <ele>326.9</ele>
        <time>1970-01-01T00:50:35.000Z</time>
      </trkpt>
      <trkpt lat="41.323367" lon="1.950562">
        <ele>326.9</ele>
        <time>1970-01-01T00:50:36.000Z</time>
      </trkpt>
      <trkpt lat="41.323367" lon="1.950562">
        <ele>326.9</ele>
        <time>1970-01-01T00:50:37.000Z</time>
      </trkpt>
      <trkpt lat="41.3234" lon="1.950543">
        <ele>326.9</ele>
        <time>1970-01-01T00:50:38.000Z</time>
      </trkpt>
      <trkpt lat="41.323417" lon="1.950535">
        <ele>326.9</ele>
        <time>1970-01-01T00:50:39.000Z</time>
      </trkpt>
      <trkpt lat="41.323417" lon="1.950535">
        <ele>327.9</ele>
        <time>1970-01-01T00:50:40.000Z</time>
      </trkpt>
      <trkpt lat="41.323448" lon="1.950518">
        <ele>327.9</ele>
        <time>1970-01-01T00:50:41.000Z</time>
      </trkpt>
      <trkpt lat="41.323448" lon="1.950518">
        <ele>327.9</ele>
        <time>1970-01-01T00:50:42.000Z</time>
      </trkpt>
      <trkpt lat="41.323482" lon="1.950502">
        <ele>327.9</ele>
        <time>1970-01-01T00:50:43.000Z</time>
      </trkpt>
      <trkpt lat="41.323482" lon="1.950502">
        <ele>327.9</ele>
        <time>1970-01-01T00:50:44.000Z</time>
      </trkpt>
      <trkpt lat="41.323513" lon="1.950485">
        <ele>327.9</ele>
        <time>1970-01-01T00:50:45.000Z</time>
      </trkpt>
      <trkpt lat="41.323513" lon="1.950485">
        <ele>327.9</ele>
        <time>1970-01-01T00:50:46.000Z</time>
      </trkpt>
      <trkpt lat="41.323543" lon="1.95047">
        <ele>327.9</ele>
        <time>1970-01-01T00:50:47.000Z</time>
      </trkpt>
      <trkpt lat="41.323543" lon="1.95047">
        <ele>328.9</ele>
        <time>1970-01-01T00:50:48.000Z</time>
      </trkpt>
      <trkpt lat="41.323578" lon="1.950453">
        <ele>328.9</ele>
        <time>1970-01-01T00:50:49.000Z</time>
      </trkpt>
      <trkpt lat="41.323578" lon="1.950453">
        <ele>328.9</ele>
        <time>1970-01-01T00:50:50.000Z</time>
      </trkpt>
      <trkpt lat="41.323615" lon="1.950442">
        <ele>328.9</ele>
        <time>1970-01-01T00:50:51.000Z</time>
      </trkpt>
      <trkpt lat="41.323615" lon="1.950442">
        <ele>328.9</ele>
        <time>1970-01-01T00:50:52.000Z</time>
      </trkpt>
      <trkpt lat="41.323653" lon="1.95043">
        <ele>328.9</ele>
        <time>1970-01-01T00:50:53.000Z</time>
      </trkpt>
      <trkpt lat="41.323653" lon="1.95043">
        <ele>329.9</ele>
        <time>1970-01-01T00:50:54.000Z</time>
      </trkpt>
      <trkpt lat="41.323688" lon="1.95042">
        <ele>329.9</ele>
        <time>1970-01-01T00:50:55.000Z</time>
      </trkpt>
      <trkpt lat="41.323688" lon="1.95042">
        <ele>329.9</ele>
        <time>1970-01-01T00:50:56.000Z</time>
      </trkpt>
      <trkpt lat="41.323725" lon="1.950413">
        <ele>329.9</ele>
        <time>1970-01-01T00:50:57.000Z</time>
      </trkpt>
      <trkpt lat="41.323725" lon="1.950413">
        <ele>329.9</ele>
        <time>1970-01-01T00:50:58.000Z</time>
      </trkpt>
      <trkpt lat="41.323762" lon="1.950405">
        <ele>329.9</ele>
        <time>1970-01-01T00:50:59.000Z</time>
      </trkpt>
      <trkpt lat="41.323762" lon="1.950405">
        <ele>330.9</ele>
        <time>1970-01-01T00:51:00.000Z</time>
      </trkpt>
      <trkpt lat="41.323798" lon="1.9504">
        <ele>330.9</ele>
        <time>1970-01-01T00:51:01.000Z</time>
      </trkpt>
      <trkpt lat="41.323798" lon="1.9504">
        <ele>330.9</ele>
        <time>1970-01-01T00:51:02.000Z</time>
      </trkpt>
      <trkpt lat="41.323835" lon="1.950397">
        <ele>330.9</ele>
        <time>1970-01-01T00:51:03.000Z</time>
      </trkpt>
      <trkpt lat="41.323835" lon="1.950397">
        <ele>330.9</ele>
        <time>1970-01-01T00:51:04.000Z</time>
      </trkpt>
      <trkpt lat="41.32387" lon="1.950395">
        <ele>330.9</ele>
        <time>1970-01-01T00:51:05.000Z</time>
      </trkpt>
      <trkpt lat="41.32387" lon="1.950395">
        <ele>330.9</ele>
        <time>1970-01-01T00:51:06.000Z</time>
      </trkpt>
      <trkpt lat="41.323905" lon="1.950395">
        <ele>330.9</ele>
        <time>1970-01-01T00:51:07.000Z</time>
      </trkpt>
      <trkpt lat="41.323923" lon="1.950392">
        <ele>331.9</ele>
        <time>1970-01-01T00:51:08.000Z</time>
      </trkpt>
      <trkpt lat="41.323923" lon="1.950392">
        <ele>331.9</ele>
        <time>1970-01-01T00:51:09.000Z</time>
      </trkpt>
      <trkpt lat="41.323957" lon="1.95039">
        <ele>331.9</ele>
        <time>1970-01-01T00:51:10.000Z</time>
      </trkpt>
      <trkpt lat="41.323957" lon="1.95039">
        <ele>331.9</ele>
        <time>1970-01-01T00:51:11.000Z</time>
      </trkpt>
      <trkpt lat="41.323993" lon="1.950392">
        <ele>331.9</ele>
        <time>1970-01-01T00:51:12.000Z</time>
      </trkpt>
      <trkpt lat="41.323993" lon="1.950392">
        <ele>331.9</ele>
        <time>1970-01-01T00:51:13.000Z</time>
      </trkpt>
      <trkpt lat="41.324028" lon="1.95039">
        <ele>331.9</ele>
        <time>1970-01-01T00:51:14.000Z</time>
      </trkpt>
      <trkpt lat="41.324045" lon="1.950392">
        <ele>331.9</ele>
        <time>1970-01-01T00:51:15.000Z</time>
      </trkpt>
      <trkpt lat="41.324045" lon="1.950392">
        <ele>331.9</ele>
        <time>1970-01-01T00:51:16.000Z</time>
      </trkpt>
      <trkpt lat="41.324083" lon="1.950388">
        <ele>331.9</ele>
        <time>1970-01-01T00:51:17.000Z</time>
      </trkpt>
      <trkpt lat="41.3241" lon="1.950388">
        <ele>331.9</ele>
        <time>1970-01-01T00:51:18.000Z</time>
      </trkpt>
      <trkpt lat="41.3241" lon="1.950388">
        <ele>332.9</ele>
        <time>1970-01-01T00:51:19.000Z</time>
      </trkpt>
      <trkpt lat="41.324137" lon="1.950385">
        <ele>332.9</ele>
        <time>1970-01-01T00:51:20.000Z</time>
      </trkpt>
      <trkpt lat="41.324155" lon="1.950385">
        <ele>332.9</ele>
        <time>1970-01-01T00:51:21.000Z</time>
      </trkpt>
      <trkpt lat="41.324155" lon="1.950385">
        <ele>332.9</ele>
        <time>1970-01-01T00:51:22.000Z</time>
      </trkpt>
      <trkpt lat="41.324198" lon="1.950385">
        <ele>332.9</ele>
        <time>1970-01-01T00:51:23.000Z</time>
      </trkpt>
      <trkpt lat="41.324218" lon="1.950383">
        <ele>332.9</ele>
        <time>1970-01-01T00:51:24.000Z</time>
      </trkpt>
      <trkpt lat="41.324218" lon="1.950383">
        <ele>333.9</ele>
        <time>1970-01-01T00:51:25.000Z</time>
      </trkpt>
      <trkpt lat="41.324257" lon="1.950385">
        <ele>333.9</ele>
        <time>1970-01-01T00:51:26.000Z</time>
      </trkpt>
      <trkpt lat="41.324277" lon="1.950387">
        <ele>333.9</ele>
        <time>1970-01-01T00:51:27.000Z</time>
      </trkpt>
      <trkpt lat="41.324277" lon="1.950387">
        <ele>333.9</ele>
        <time>1970-01-01T00:51:28.000Z</time>
      </trkpt>
      <trkpt lat="41.324313" lon="1.950392">
        <ele>333.9</ele>
        <time>1970-01-01T00:51:29.000Z</time>
      </trkpt>
      <trkpt lat="41.324313" lon="1.950392">
        <ele>333.9</ele>
        <time>1970-01-01T00:51:30.000Z</time>
      </trkpt>
      <trkpt lat="41.32435" lon="1.950405">
        <ele>333.9</ele>
        <time>1970-01-01T00:51:31.000Z</time>
      </trkpt>
      <trkpt lat="41.32435" lon="1.950405">
        <ele>333.9</ele>
        <time>1970-01-01T00:51:32.000Z</time>
      </trkpt>
      <trkpt lat="41.324385" lon="1.950415">
        <ele>334.9</ele>
        <time>1970-01-01T00:51:33.000Z</time>
      </trkpt>
      <trkpt lat="41.324385" lon="1.950415">
        <ele>334.9</ele>
        <time>1970-01-01T00:51:34.000Z</time>
      </trkpt>
      <trkpt lat="41.32442" lon="1.950425">
        <ele>334.9</ele>
        <time>1970-01-01T00:51:35.000Z</time>
      </trkpt>
      <trkpt lat="41.324438" lon="1.950428">
        <ele>334.9</ele>
        <time>1970-01-01T00:51:36.000Z</time>
      </trkpt>
      <trkpt lat="41.324438" lon="1.950428">
        <ele>334.9</ele>
        <time>1970-01-01T00:51:37.000Z</time>
      </trkpt>
      <trkpt lat="41.324477" lon="1.95044">
        <ele>334.9</ele>
        <time>1970-01-01T00:51:38.000Z</time>
      </trkpt>
      <trkpt lat="41.324477" lon="1.95044">
        <ele>334.9</ele>
        <time>1970-01-01T00:51:39.000Z</time>
      </trkpt>
      <trkpt lat="41.324515" lon="1.950445">
        <ele>334.9</ele>
        <time>1970-01-01T00:51:40.000Z</time>
      </trkpt>
      <trkpt lat="41.324515" lon="1.950445">
        <ele>334.9</ele>
        <time>1970-01-01T00:51:41.000Z</time>
      </trkpt>
      <trkpt lat="41.324553" lon="1.950447">
        <ele>334.9</ele>
        <time>1970-01-01T00:51:42.000Z</time>
      </trkpt>
      <trkpt lat="41.324572" lon="1.950447">
        <ele>335.9</ele>
        <time>1970-01-01T00:51:43.000Z</time>
      </trkpt>
      <trkpt lat="41.324572" lon="1.950447">
        <ele>335.9</ele>
        <time>1970-01-01T00:51:44.000Z</time>
      </trkpt>
      <trkpt lat="41.324612" lon="1.950445">
        <ele>335.9</ele>
        <time>1970-01-01T00:51:45.000Z</time>
      </trkpt>
      <trkpt lat="41.324612" lon="1.950445">
        <ele>335.9</ele>
        <time>1970-01-01T00:51:46.000Z</time>
      </trkpt>
      <trkpt lat="41.32465" lon="1.950433">
        <ele>335.9</ele>
        <time>1970-01-01T00:51:47.000Z</time>
      </trkpt>
      <trkpt lat="41.324668" lon="1.950428">
        <ele>335.9</ele>
        <time>1970-01-01T00:51:48.000Z</time>
      </trkpt>
      <trkpt lat="41.324668" lon="1.950428">
        <ele>336.9</ele>
        <time>1970-01-01T00:51:49.000Z</time>
      </trkpt>
      <trkpt lat="41.324705" lon="1.95041">
        <ele>336.9</ele>
        <time>1970-01-01T00:51:50.000Z</time>
      </trkpt>
      <trkpt lat="41.324705" lon="1.95041">
        <ele>336.9</ele>
        <time>1970-01-01T00:51:51.000Z</time>
      </trkpt>
      <trkpt lat="41.32474" lon="1.950393">
        <ele>336.9</ele>
        <time>1970-01-01T00:51:52.000Z</time>
      </trkpt>
      <trkpt lat="41.324758" lon="1.950383">
        <ele>336.9</ele>
        <time>1970-01-01T00:51:53.000Z</time>
      </trkpt>
      <trkpt lat="41.324758" lon="1.950383">
        <ele>336.9</ele>
        <time>1970-01-01T00:51:54.000Z</time>
      </trkpt>
      <trkpt lat="41.324795" lon="1.95036">
        <ele>336.9</ele>
        <time>1970-01-01T00:51:55.000Z</time>
      </trkpt>
      <trkpt lat="41.324795" lon="1.95036">
        <ele>336.9</ele>
        <time>1970-01-01T00:51:56.000Z</time>
      </trkpt>
      <trkpt lat="41.32484" lon="1.950337">
        <ele>336.9</ele>
        <time>1970-01-01T00:51:57.000Z</time>
      </trkpt>
      <trkpt lat="41.32484" lon="1.950337">
        <ele>337.9</ele>
        <time>1970-01-01T00:51:58.000Z</time>
      </trkpt>
      <trkpt lat="41.32488" lon="1.950315">
        <ele>337.9</ele>
        <time>1970-01-01T00:51:59.000Z</time>
      </trkpt>
      <trkpt lat="41.32488" lon="1.950315">
        <ele>337.9</ele>
        <time>1970-01-01T00:52:00.000Z</time>
      </trkpt>
      <trkpt lat="41.324915" lon="1.950288">
        <ele>337.9</ele>
        <time>1970-01-01T00:52:01.000Z</time>
      </trkpt>
      <trkpt lat="41.324932" lon="1.950275">
        <ele>338.9</ele>
        <time>1970-01-01T00:52:02.000Z</time>
      </trkpt>
      <trkpt lat="41.324932" lon="1.950275">
        <ele>338.9</ele>
        <time>1970-01-01T00:52:03.000Z</time>
      </trkpt>
      <trkpt lat="41.324962" lon="1.950247">
        <ele>338.9</ele>
        <time>1970-01-01T00:52:04.000Z</time>
      </trkpt>
      <trkpt lat="41.324962" lon="1.950247">
        <ele>338.9</ele>
        <time>1970-01-01T00:52:05.000Z</time>
      </trkpt>
      <trkpt lat="41.324992" lon="1.95022">
        <ele>338.9</ele>
        <time>1970-01-01T00:52:06.000Z</time>
      </trkpt>
      <trkpt lat="41.324992" lon="1.95022">
        <ele>338.9</ele>
        <time>1970-01-01T00:52:07.000Z</time>
      </trkpt>
      <trkpt lat="41.325022" lon="1.950192">
        <ele>338.9</ele>
        <time>1970-01-01T00:52:08.000Z</time>
      </trkpt>
      <trkpt lat="41.325037" lon="1.950177">
        <ele>339.9</ele>
        <time>1970-01-01T00:52:09.000Z</time>
      </trkpt>
      <trkpt lat="41.325055" lon="1.950162">
        <ele>339.9</ele>
        <time>1970-01-01T00:52:10.000Z</time>
      </trkpt>
      <trkpt lat="41.325055" lon="1.950162">
        <ele>339.9</ele>
        <time>1970-01-01T00:52:11.000Z</time>
      </trkpt>
      <trkpt lat="41.325088" lon="1.95013">
        <ele>339.9</ele>
        <time>1970-01-01T00:52:12.000Z</time>
      </trkpt>
      <trkpt lat="41.325088" lon="1.95013">
        <ele>340.9</ele>
        <time>1970-01-01T00:52:13.000Z</time>
      </trkpt>
      <trkpt lat="41.325122" lon="1.950098">
        <ele>340.9</ele>
        <time>1970-01-01T00:52:14.000Z</time>
      </trkpt>
      <trkpt lat="41.325135" lon="1.950087">
        <ele>340.9</ele>
        <time>1970-01-01T00:52:15.000Z</time>
      </trkpt>
      <trkpt lat="41.325135" lon="1.950087">
        <ele>340.9</ele>
        <time>1970-01-01T00:52:16.000Z</time>
      </trkpt>
      <trkpt lat="41.325167" lon="1.950058">
        <ele>340.9</ele>
        <time>1970-01-01T00:52:17.000Z</time>
      </trkpt>
      <trkpt lat="41.325182" lon="1.950042">
        <ele>340.9</ele>
        <time>1970-01-01T00:52:18.000Z</time>
      </trkpt>
      <trkpt lat="41.325182" lon="1.950042">
        <ele>340.9</ele>
        <time>1970-01-01T00:52:19.000Z</time>
      </trkpt>
      <trkpt lat="41.32521" lon="1.950013">
        <ele>340.9</ele>
        <time>1970-01-01T00:52:20.000Z</time>
      </trkpt>
      <trkpt lat="41.325225" lon="1.949998">
        <ele>341.9</ele>
        <time>1970-01-01T00:52:21.000Z</time>
      </trkpt>
      <trkpt lat="41.325225" lon="1.949998">
        <ele>341.9</ele>
        <time>1970-01-01T00:52:22.000Z</time>
      </trkpt>
      <trkpt lat="41.325255" lon="1.94997">
        <ele>341.9</ele>
        <time>1970-01-01T00:52:23.000Z</time>
      </trkpt>
      <trkpt lat="41.325255" lon="1.94997">
        <ele>341.9</ele>
        <time>1970-01-01T00:52:24.000Z</time>
      </trkpt>
      <trkpt lat="41.325287" lon="1.94994">
        <ele>342.9</ele>
        <time>1970-01-01T00:52:25.000Z</time>
      </trkpt>
      <trkpt lat="41.325287" lon="1.94994">
        <ele>342.9</ele>
        <time>1970-01-01T00:52:26.000Z</time>
      </trkpt>
      <trkpt lat="41.325322" lon="1.949908">
        <ele>342.9</ele>
        <time>1970-01-01T00:52:27.000Z</time>
      </trkpt>
      <trkpt lat="41.325322" lon="1.949908">
        <ele>342.9</ele>
        <time>1970-01-01T00:52:28.000Z</time>
      </trkpt>
      <trkpt lat="41.325358" lon="1.949875">
        <ele>342.9</ele>
        <time>1970-01-01T00:52:29.000Z</time>
      </trkpt>
      <trkpt lat="41.325358" lon="1.949875">
        <ele>342.9</ele>
        <time>1970-01-01T00:52:30.000Z</time>
      </trkpt>
      <trkpt lat="41.32539" lon="1.94985">
        <ele>342.9</ele>
        <time>1970-01-01T00:52:31.000Z</time>
      </trkpt>
      <trkpt lat="41.32539" lon="1.94985">
        <ele>343.9</ele>
        <time>1970-01-01T00:52:32.000Z</time>
      </trkpt>
      <trkpt lat="41.325425" lon="1.949823">
        <ele>343.9</ele>
        <time>1970-01-01T00:52:33.000Z</time>
      </trkpt>
      <trkpt lat="41.325425" lon="1.949823">
        <ele>343.9</ele>
        <time>1970-01-01T00:52:34.000Z</time>
      </trkpt>
      <trkpt lat="41.32546" lon="1.949797">
        <ele>343.9</ele>
        <time>1970-01-01T00:52:35.000Z</time>
      </trkpt>
      <trkpt lat="41.32546" lon="1.949797">
        <ele>343.9</ele>
        <time>1970-01-01T00:52:36.000Z</time>
      </trkpt>
      <trkpt lat="41.325497" lon="1.949777">
        <ele>343.9</ele>
        <time>1970-01-01T00:52:37.000Z</time>
      </trkpt>
      <trkpt lat="41.325497" lon="1.949777">
        <ele>344.9</ele>
        <time>1970-01-01T00:52:38.000Z</time>
      </trkpt>
      <trkpt lat="41.325535" lon="1.94976">
        <ele>344.9</ele>
        <time>1970-01-01T00:52:39.000Z</time>
      </trkpt>
      <trkpt lat="41.325535" lon="1.94976">
        <ele>344.9</ele>
        <time>1970-01-01T00:52:40.000Z</time>
      </trkpt>
      <trkpt lat="41.32558" lon="1.949745">
        <ele>344.9</ele>
        <time>1970-01-01T00:52:41.000Z</time>
      </trkpt>
      <trkpt lat="41.325605" lon="1.949742">
        <ele>344.9</ele>
        <time>1970-01-01T00:52:42.000Z</time>
      </trkpt>
      <trkpt lat="41.325605" lon="1.949742">
        <ele>344.9</ele>
        <time>1970-01-01T00:52:43.000Z</time>
      </trkpt>
      <trkpt lat="41.325645" lon="1.94974">
        <ele>344.9</ele>
        <time>1970-01-01T00:52:44.000Z</time>
      </trkpt>
      <trkpt lat="41.325667" lon="1.949738">
        <ele>344.9</ele>
        <time>1970-01-01T00:52:45.000Z</time>
      </trkpt>
      <trkpt lat="41.325667" lon="1.949738">
        <ele>344.9</ele>
        <time>1970-01-01T00:52:46.000Z</time>
      </trkpt>
      <trkpt lat="41.32571" lon="1.949738">
        <ele>348.9</ele>
        <time>1970-01-01T00:52:47.000Z</time>
      </trkpt>
      <trkpt lat="41.32571" lon="1.949738">
        <ele>348.9</ele>
        <time>1970-01-01T00:52:48.000Z</time>
      </trkpt>
      <trkpt lat="41.325745" lon="1.949735">
        <ele>347.9</ele>
        <time>1970-01-01T00:52:49.000Z</time>
      </trkpt>
      <trkpt lat="41.325745" lon="1.949735">
        <ele>347.9</ele>
        <time>1970-01-01T00:52:50.000Z</time>
      </trkpt>
      <trkpt lat="41.325787" lon="1.949737">
        <ele>347.9</ele>
        <time>1970-01-01T00:52:51.000Z</time>
      </trkpt>
      <trkpt lat="41.325787" lon="1.949737">
        <ele>347.9</ele>
        <time>1970-01-01T00:52:52.000Z</time>
      </trkpt>
      <trkpt lat="41.325828" lon="1.949733">
        <ele>347.9</ele>
        <time>1970-01-01T00:52:53.000Z</time>
      </trkpt>
      <trkpt lat="41.325828" lon="1.949733">
        <ele>347.9</ele>
        <time>1970-01-01T00:52:54.000Z</time>
      </trkpt>
      <trkpt lat="41.325873" lon="1.94973">
        <ele>347.9</ele>
        <time>1970-01-01T00:52:55.000Z</time>
      </trkpt>
      <trkpt lat="41.325897" lon="1.949722">
        <ele>347.9</ele>
        <time>1970-01-01T00:52:56.000Z</time>
      </trkpt>
      <trkpt lat="41.325897" lon="1.949722">
        <ele>347.9</ele>
        <time>1970-01-01T00:52:57.000Z</time>
      </trkpt>
      <trkpt lat="41.325937" lon="1.949705">
        <ele>347.9</ele>
        <time>1970-01-01T00:52:58.000Z</time>
      </trkpt>
      <trkpt lat="41.325955" lon="1.949695">
        <ele>346.9</ele>
        <time>1970-01-01T00:52:59.000Z</time>
      </trkpt>
      <trkpt lat="41.325955" lon="1.949695">
        <ele>346.9</ele>
        <time>1970-01-01T00:53:00.000Z</time>
      </trkpt>
      <trkpt lat="41.32599" lon="1.949662">
        <ele>349.9</ele>
        <time>1970-01-01T00:53:01.000Z</time>
      </trkpt>
      <trkpt lat="41.32599" lon="1.949662">
        <ele>349.9</ele>
        <time>1970-01-01T00:53:02.000Z</time>
      </trkpt>
      <trkpt lat="41.326018" lon="1.949617">
        <ele>349.9</ele>
        <time>1970-01-01T00:53:03.000Z</time>
      </trkpt>
      <trkpt lat="41.326028" lon="1.94959">
        <ele>349.9</ele>
        <time>1970-01-01T00:53:04.000Z</time>
      </trkpt>
      <trkpt lat="41.326028" lon="1.94959">
        <ele>349.9</ele>
        <time>1970-01-01T00:53:05.000Z</time>
      </trkpt>
      <trkpt lat="41.326043" lon="1.94953">
        <ele>349.9</ele>
        <time>1970-01-01T00:53:06.000Z</time>
      </trkpt>
      <trkpt lat="41.326043" lon="1.94953">
        <ele>349.9</ele>
        <time>1970-01-01T00:53:07.000Z</time>
      </trkpt>
      <trkpt lat="41.326043" lon="1.949467">
        <ele>349.9</ele>
        <time>1970-01-01T00:53:08.000Z</time>
      </trkpt>
      <trkpt lat="41.326037" lon="1.949438">
        <ele>349.9</ele>
        <time>1970-01-01T00:53:09.000Z</time>
      </trkpt>
      <trkpt lat="41.326037" lon="1.949438">
        <ele>349.9</ele>
        <time>1970-01-01T00:53:10.000Z</time>
      </trkpt>
      <trkpt lat="41.326017" lon="1.949382">
        <ele>349.9</ele>
        <time>1970-01-01T00:53:11.000Z</time>
      </trkpt>
      <trkpt lat="41.326005" lon="1.949352">
        <ele>349.9</ele>
        <time>1970-01-01T00:53:12.000Z</time>
      </trkpt>
      <trkpt lat="41.326005" lon="1.949352">
        <ele>349.9</ele>
        <time>1970-01-01T00:53:13.000Z</time>
      </trkpt>
      <trkpt lat="41.32597" lon="1.949317">
        <ele>349.9</ele>
        <time>1970-01-01T00:53:14.000Z</time>
      </trkpt>
      <trkpt lat="41.32597" lon="1.949317">
        <ele>349.9</ele>
        <time>1970-01-01T00:53:15.000Z</time>
      </trkpt>
      <trkpt lat="41.32593" lon="1.94929">
        <ele>349.9</ele>
        <time>1970-01-01T00:53:16.000Z</time>
      </trkpt>
      <trkpt lat="41.32593" lon="1.94929">
        <ele>349.9</ele>
        <time>1970-01-01T00:53:17.000Z</time>
      </trkpt>
      <trkpt lat="41.325885" lon="1.949278">
        <ele>349.9</ele>
        <time>1970-01-01T00:53:18.000Z</time>
      </trkpt>
      <trkpt lat="41.325885" lon="1.949278">
        <ele>350.9</ele>
        <time>1970-01-01T00:53:19.000Z</time>
      </trkpt>
      <trkpt lat="41.325835" lon="1.949282">
        <ele>350.9</ele>
        <time>1970-01-01T00:53:20.000Z</time>
      </trkpt>
      <trkpt lat="41.325808" lon="1.949287">
        <ele>350.9</ele>
        <time>1970-01-01T00:53:21.000Z</time>
      </trkpt>
      <trkpt lat="41.325808" lon="1.949287">
        <ele>350.9</ele>
        <time>1970-01-01T00:53:22.000Z</time>
      </trkpt>
      <trkpt lat="41.325762" lon="1.949297">
        <ele>350.9</ele>
        <time>1970-01-01T00:53:23.000Z</time>
      </trkpt>
      <trkpt lat="41.325737" lon="1.949303">
        <ele>351.9</ele>
        <time>1970-01-01T00:53:24.000Z</time>
      </trkpt>
      <trkpt lat="41.325737" lon="1.949303">
        <ele>351.9</ele>
        <time>1970-01-01T00:53:25.000Z</time>
      </trkpt>
      <trkpt lat="41.32569" lon="1.949318">
        <ele>351.9</ele>
        <time>1970-01-01T00:53:26.000Z</time>
      </trkpt>
      <trkpt lat="41.325665" lon="1.94933">
        <ele>351.9</ele>
        <time>1970-01-01T00:53:27.000Z</time>
      </trkpt>
      <trkpt lat="41.325665" lon="1.94933">
        <ele>351.9</ele>
        <time>1970-01-01T00:53:28.000Z</time>
      </trkpt>
      <trkpt lat="41.32562" lon="1.949347">
        <ele>351.9</ele>
        <time>1970-01-01T00:53:29.000Z</time>
      </trkpt>
      <trkpt lat="41.325597" lon="1.949362">
        <ele>351.9</ele>
        <time>1970-01-01T00:53:30.000Z</time>
      </trkpt>
      <trkpt lat="41.325597" lon="1.949362">
        <ele>351.9</ele>
        <time>1970-01-01T00:53:31.000Z</time>
      </trkpt>
      <trkpt lat="41.32555" lon="1.94939">
        <ele>352.9</ele>
        <time>1970-01-01T00:53:32.000Z</time>
      </trkpt>
      <trkpt lat="41.32555" lon="1.94939">
        <ele>352.9</ele>
        <time>1970-01-01T00:53:33.000Z</time>
      </trkpt>
      <trkpt lat="41.325505" lon="1.949413">
        <ele>352.9</ele>
        <time>1970-01-01T00:53:34.000Z</time>
      </trkpt>
      <trkpt lat="41.325505" lon="1.949413">
        <ele>352.9</ele>
        <time>1970-01-01T00:53:35.000Z</time>
      </trkpt>
      <trkpt lat="41.325463" lon="1.949435">
        <ele>352.9</ele>
        <time>1970-01-01T00:53:36.000Z</time>
      </trkpt>
      <trkpt lat="41.325463" lon="1.949435">
        <ele>352.9</ele>
        <time>1970-01-01T00:53:37.000Z</time>
      </trkpt>
      <trkpt lat="41.325422" lon="1.949452">
        <ele>353.9</ele>
        <time>1970-01-01T00:53:38.000Z</time>
      </trkpt>
      <trkpt lat="41.325422" lon="1.949452">
        <ele>353.9</ele>
        <time>1970-01-01T00:53:39.000Z</time>
      </trkpt>
      <trkpt lat="41.325378" lon="1.94947">
        <ele>353.9</ele>
        <time>1970-01-01T00:53:40.000Z</time>
      </trkpt>
      <trkpt lat="41.325378" lon="1.94947">
        <ele>353.9</ele>
        <time>1970-01-01T00:53:41.000Z</time>
      </trkpt>
      <trkpt lat="41.325335" lon="1.94949">
        <ele>354.9</ele>
        <time>1970-01-01T00:53:42.000Z</time>
      </trkpt>
      <trkpt lat="41.325335" lon="1.94949">
        <ele>354.9</ele>
        <time>1970-01-01T00:53:43.000Z</time>
      </trkpt>
      <trkpt lat="41.32529" lon="1.949502">
        <ele>354.9</ele>
        <time>1970-01-01T00:53:44.000Z</time>
      </trkpt>
      <trkpt lat="41.32529" lon="1.949502">
        <ele>354.9</ele>
        <time>1970-01-01T00:53:45.000Z</time>
      </trkpt>
      <trkpt lat="41.32525" lon="1.949527">
        <ele>354.9</ele>
        <time>1970-01-01T00:53:46.000Z</time>
      </trkpt>
      <trkpt lat="41.325228" lon="1.949537">
        <ele>354.9</ele>
        <time>1970-01-01T00:53:47.000Z</time>
      </trkpt>
      <trkpt lat="41.325228" lon="1.949537">
        <ele>354.9</ele>
        <time>1970-01-01T00:53:48.000Z</time>
      </trkpt>
      <trkpt lat="41.325185" lon="1.949553">
        <ele>354.9</ele>
        <time>1970-01-01T00:53:49.000Z</time>
      </trkpt>
      <trkpt lat="41.325165" lon="1.949563">
        <ele>354.9</ele>
        <time>1970-01-01T00:53:50.000Z</time>
      </trkpt>
      <trkpt lat="41.325165" lon="1.949563">
        <ele>354.9</ele>
        <time>1970-01-01T00:53:51.000Z</time>
      </trkpt>
      <trkpt lat="41.32512" lon="1.949582">
        <ele>349.9</ele>
        <time>1970-01-01T00:53:52.000Z</time>
      </trkpt>
      <trkpt lat="41.32512" lon="1.949582">
        <ele>349.9</ele>
        <time>1970-01-01T00:53:53.000Z</time>
      </trkpt>
      <trkpt lat="41.325077" lon="1.949598">
        <ele>352.9</ele>
        <time>1970-01-01T00:53:54.000Z</time>
      </trkpt>
      <trkpt lat="41.325077" lon="1.949598">
        <ele>352.9</ele>
        <time>1970-01-01T00:53:55.000Z</time>
      </trkpt>
      <trkpt lat="41.325035" lon="1.949617">
        <ele>354.9</ele>
        <time>1970-01-01T00:53:56.000Z</time>
      </trkpt>
      <trkpt lat="41.325013" lon="1.949623">
        <ele>354.9</ele>
        <time>1970-01-01T00:53:57.000Z</time>
      </trkpt>
      <trkpt lat="41.325013" lon="1.949623">
        <ele>355.9</ele>
        <time>1970-01-01T00:53:58.000Z</time>
      </trkpt>
      <trkpt lat="41.32497" lon="1.94964">
        <ele>355.9</ele>
        <time>1970-01-01T00:53:59.000Z</time>
      </trkpt>
      <trkpt lat="41.32497" lon="1.94964">
        <ele>356.9</ele>
        <time>1970-01-01T00:54:00.000Z</time>
      </trkpt>
      <trkpt lat="41.324923" lon="1.949662">
        <ele>356.9</ele>
        <time>1970-01-01T00:54:01.000Z</time>
      </trkpt>
      <trkpt lat="41.324923" lon="1.949662">
        <ele>356.9</ele>
        <time>1970-01-01T00:54:02.000Z</time>
      </trkpt>
      <trkpt lat="41.324878" lon="1.949685">
        <ele>356.9</ele>
        <time>1970-01-01T00:54:03.000Z</time>
      </trkpt>
      <trkpt lat="41.324878" lon="1.949685">
        <ele>357.9</ele>
        <time>1970-01-01T00:54:04.000Z</time>
      </trkpt>
      <trkpt lat="41.324835" lon="1.949698">
        <ele>357.9</ele>
        <time>1970-01-01T00:54:05.000Z</time>
      </trkpt>
      <trkpt lat="41.324835" lon="1.949698">
        <ele>357.9</ele>
        <time>1970-01-01T00:54:06.000Z</time>
      </trkpt>
      <trkpt lat="41.324788" lon="1.949715">
        <ele>358.9</ele>
        <time>1970-01-01T00:54:07.000Z</time>
      </trkpt>
      <trkpt lat="41.324788" lon="1.949715">
        <ele>358.9</ele>
        <time>1970-01-01T00:54:08.000Z</time>
      </trkpt>
      <trkpt lat="41.32474" lon="1.949725">
        <ele>358.9</ele>
        <time>1970-01-01T00:54:09.000Z</time>
      </trkpt>
      <trkpt lat="41.324715" lon="1.949732">
        <ele>358.9</ele>
        <time>1970-01-01T00:54:10.000Z</time>
      </trkpt>
      <trkpt lat="41.324715" lon="1.949732">
        <ele>358.9</ele>
        <time>1970-01-01T00:54:11.000Z</time>
      </trkpt>
      <trkpt lat="41.324668" lon="1.949742">
        <ele>358.9</ele>
        <time>1970-01-01T00:54:12.000Z</time>
      </trkpt>
      <trkpt lat="41.324668" lon="1.949742">
        <ele>359.9</ele>
        <time>1970-01-01T00:54:13.000Z</time>
      </trkpt>
      <trkpt lat="41.324622" lon="1.949747">
        <ele>359.9</ele>
        <time>1970-01-01T00:54:14.000Z</time>
      </trkpt>
      <trkpt lat="41.324602" lon="1.949745">
        <ele>359.9</ele>
        <time>1970-01-01T00:54:15.000Z</time>
      </trkpt>
      <trkpt lat="41.324602" lon="1.949745">
        <ele>359.9</ele>
        <time>1970-01-01T00:54:16.000Z</time>
      </trkpt>
      <trkpt lat="41.32456" lon="1.949733">
        <ele>359.9</ele>
        <time>1970-01-01T00:54:17.000Z</time>
      </trkpt>
      <trkpt lat="41.324538" lon="1.949727">
        <ele>359.9</ele>
        <time>1970-01-01T00:54:18.000Z</time>
      </trkpt>
      <trkpt lat="41.324538" lon="1.949727">
        <ele>359.9</ele>
        <time>1970-01-01T00:54:19.000Z</time>
      </trkpt>
      <trkpt lat="41.324495" lon="1.949713">
        <ele>360.9</ele>
        <time>1970-01-01T00:54:20.000Z</time>
      </trkpt>
      <trkpt lat="41.324473" lon="1.949705">
        <ele>360.9</ele>
        <time>1970-01-01T00:54:21.000Z</time>
      </trkpt>
      <trkpt lat="41.324473" lon="1.949705">
        <ele>360.9</ele>
        <time>1970-01-01T00:54:22.000Z</time>
      </trkpt>
      <trkpt lat="41.324433" lon="1.949687">
        <ele>360.9</ele>
        <time>1970-01-01T00:54:23.000Z</time>
      </trkpt>
      <trkpt lat="41.324412" lon="1.949673">
        <ele>361.9</ele>
        <time>1970-01-01T00:54:24.000Z</time>
      </trkpt>
      <trkpt lat="41.324412" lon="1.949673">
        <ele>361.9</ele>
        <time>1970-01-01T00:54:25.000Z</time>
      </trkpt>
      <trkpt lat="41.324373" lon="1.949645">
        <ele>361.9</ele>
        <time>1970-01-01T00:54:26.000Z</time>
      </trkpt>
      <trkpt lat="41.324373" lon="1.949645">
        <ele>361.9</ele>
        <time>1970-01-01T00:54:27.000Z</time>
      </trkpt>
      <trkpt lat="41.324333" lon="1.94962">
        <ele>362.9</ele>
        <time>1970-01-01T00:54:28.000Z</time>
      </trkpt>
      <trkpt lat="41.324333" lon="1.94962">
        <ele>362.9</ele>
        <time>1970-01-01T00:54:29.000Z</time>
      </trkpt>
      <trkpt lat="41.324295" lon="1.949593">
        <ele>362.9</ele>
        <time>1970-01-01T00:54:30.000Z</time>
      </trkpt>
      <trkpt lat="41.324295" lon="1.949593">
        <ele>362.9</ele>
        <time>1970-01-01T00:54:31.000Z</time>
      </trkpt>
      <trkpt lat="41.324253" lon="1.949572">
        <ele>362.9</ele>
        <time>1970-01-01T00:54:32.000Z</time>
      </trkpt>
      <trkpt lat="41.324232" lon="1.949562">
        <ele>362.9</ele>
        <time>1970-01-01T00:54:33.000Z</time>
      </trkpt>
      <trkpt lat="41.324232" lon="1.949562">
        <ele>363.9</ele>
        <time>1970-01-01T00:54:34.000Z</time>
      </trkpt>
      <trkpt lat="41.324192" lon="1.949542">
        <ele>363.9</ele>
        <time>1970-01-01T00:54:35.000Z</time>
      </trkpt>
      <trkpt lat="41.324192" lon="1.949542">
        <ele>363.9</ele>
        <time>1970-01-01T00:54:36.000Z</time>
      </trkpt>
      <trkpt lat="41.32415" lon="1.949522">
        <ele>363.9</ele>
        <time>1970-01-01T00:54:37.000Z</time>
      </trkpt>
      <trkpt lat="41.32413" lon="1.949508">
        <ele>363.9</ele>
        <time>1970-01-01T00:54:38.000Z</time>
      </trkpt>
      <trkpt lat="41.32413" lon="1.949508">
        <ele>363.9</ele>
        <time>1970-01-01T00:54:39.000Z</time>
      </trkpt>
      <trkpt lat="41.324088" lon="1.949488">
        <ele>364.9</ele>
        <time>1970-01-01T00:54:40.000Z</time>
      </trkpt>
      <trkpt lat="41.324088" lon="1.949488">
        <ele>364.9</ele>
        <time>1970-01-01T00:54:41.000Z</time>
      </trkpt>
      <trkpt lat="41.324048" lon="1.949473">
        <ele>364.9</ele>
        <time>1970-01-01T00:54:42.000Z</time>
      </trkpt>
      <trkpt lat="41.324027" lon="1.949468">
        <ele>364.9</ele>
        <time>1970-01-01T00:54:43.000Z</time>
      </trkpt>
      <trkpt lat="41.324027" lon="1.949468">
        <ele>365.9</ele>
        <time>1970-01-01T00:54:44.000Z</time>
      </trkpt>
      <trkpt lat="41.323982" lon="1.949467">
        <ele>365.9</ele>
        <time>1970-01-01T00:54:45.000Z</time>
      </trkpt>
      <trkpt lat="41.323982" lon="1.949467">
        <ele>365.9</ele>
        <time>1970-01-01T00:54:46.000Z</time>
      </trkpt>
      <trkpt lat="41.323937" lon="1.949467">
        <ele>365.9</ele>
        <time>1970-01-01T00:54:47.000Z</time>
      </trkpt>
      <trkpt lat="41.323912" lon="1.949462">
        <ele>365.9</ele>
        <time>1970-01-01T00:54:48.000Z</time>
      </trkpt>
      <trkpt lat="41.323887" lon="1.949463">
        <ele>365.9</ele>
        <time>1970-01-01T00:54:49.000Z</time>
      </trkpt>
      <trkpt lat="41.323887" lon="1.949463">
        <ele>365.9</ele>
        <time>1970-01-01T00:54:50.000Z</time>
      </trkpt>
      <trkpt lat="41.323842" lon="1.94947">
        <ele>366.9</ele>
        <time>1970-01-01T00:54:51.000Z</time>
      </trkpt>
      <trkpt lat="41.323842" lon="1.94947">
        <ele>366.9</ele>
        <time>1970-01-01T00:54:52.000Z</time>
      </trkpt>
      <trkpt lat="41.323805" lon="1.949473">
        <ele>366.9</ele>
        <time>1970-01-01T00:54:53.000Z</time>
      </trkpt>
      <trkpt lat="41.323805" lon="1.949473">
        <ele>366.9</ele>
        <time>1970-01-01T00:54:54.000Z</time>
      </trkpt>
      <trkpt lat="41.323765" lon="1.949482">
        <ele>366.9</ele>
        <time>1970-01-01T00:54:55.000Z</time>
      </trkpt>
      <trkpt lat="41.323765" lon="1.949482">
        <ele>366.9</ele>
        <time>1970-01-01T00:54:56.000Z</time>
      </trkpt>
      <trkpt lat="41.323727" lon="1.949495">
        <ele>366.9</ele>
        <time>1970-01-01T00:54:57.000Z</time>
      </trkpt>
      <trkpt lat="41.323727" lon="1.949495">
        <ele>366.9</ele>
        <time>1970-01-01T00:54:58.000Z</time>
      </trkpt>
      <trkpt lat="41.323688" lon="1.949503">
        <ele>366.9</ele>
        <time>1970-01-01T00:54:59.000Z</time>
      </trkpt>
      <trkpt lat="41.323668" lon="1.94951">
        <ele>366.9</ele>
        <time>1970-01-01T00:55:00.000Z</time>
      </trkpt>
      <trkpt lat="41.323647" lon="1.949513">
        <ele>366.9</ele>
        <time>1970-01-01T00:55:01.000Z</time>
      </trkpt>
      <trkpt lat="41.323625" lon="1.949513">
        <ele>366.9</ele>
        <time>1970-01-01T00:55:02.000Z</time>
      </trkpt>
      <trkpt lat="41.323625" lon="1.949513">
        <ele>368.9</ele>
        <time>1970-01-01T00:55:03.000Z</time>
      </trkpt>
      <trkpt lat="41.323583" lon="1.949523">
        <ele>368.9</ele>
        <time>1970-01-01T00:55:04.000Z</time>
      </trkpt>
      <trkpt lat="41.323563" lon="1.949525">
        <ele>368.9</ele>
        <time>1970-01-01T00:55:05.000Z</time>
      </trkpt>
      <trkpt lat="41.323542" lon="1.94953">
        <ele>368.9</ele>
        <time>1970-01-01T00:55:06.000Z</time>
      </trkpt>
      <trkpt lat="41.323542" lon="1.94953">
        <ele>368.9</ele>
        <time>1970-01-01T00:55:07.000Z</time>
      </trkpt>
      <trkpt lat="41.3235" lon="1.949545">
        <ele>368.9</ele>
        <time>1970-01-01T00:55:08.000Z</time>
      </trkpt>
      <trkpt lat="41.32348" lon="1.949548">
        <ele>368.9</ele>
        <time>1970-01-01T00:55:09.000Z</time>
      </trkpt>
      <trkpt lat="41.323457" lon="1.949555">
        <ele>368.9</ele>
        <time>1970-01-01T00:55:10.000Z</time>
      </trkpt>
      <trkpt lat="41.323457" lon="1.949555">
        <ele>368.9</ele>
        <time>1970-01-01T00:55:11.000Z</time>
      </trkpt>
      <trkpt lat="41.323413" lon="1.94956">
        <ele>368.9</ele>
        <time>1970-01-01T00:55:12.000Z</time>
      </trkpt>
      <trkpt lat="41.323392" lon="1.949563">
        <ele>368.9</ele>
        <time>1970-01-01T00:55:13.000Z</time>
      </trkpt>
      <trkpt lat="41.323392" lon="1.949563">
        <ele>368.9</ele>
        <time>1970-01-01T00:55:14.000Z</time>
      </trkpt>
      <trkpt lat="41.323347" lon="1.949582">
        <ele>369.9</ele>
        <time>1970-01-01T00:55:15.000Z</time>
      </trkpt>
      <trkpt lat="41.323347" lon="1.949582">
        <ele>369.9</ele>
        <time>1970-01-01T00:55:16.000Z</time>
      </trkpt>
      <trkpt lat="41.323303" lon="1.949587">
        <ele>369.9</ele>
        <time>1970-01-01T00:55:17.000Z</time>
      </trkpt>
      <trkpt lat="41.323303" lon="1.949587">
        <ele>369.9</ele>
        <time>1970-01-01T00:55:18.000Z</time>
      </trkpt>
      <trkpt lat="41.323258" lon="1.949592">
        <ele>369.9</ele>
        <time>1970-01-01T00:55:19.000Z</time>
      </trkpt>
      <trkpt lat="41.323258" lon="1.949592">
        <ele>369.9</ele>
        <time>1970-01-01T00:55:20.000Z</time>
      </trkpt>
      <trkpt lat="41.32322" lon="1.949593">
        <ele>370.9</ele>
        <time>1970-01-01T00:55:21.000Z</time>
      </trkpt>
      <trkpt lat="41.32322" lon="1.949593">
        <ele>370.9</ele>
        <time>1970-01-01T00:55:22.000Z</time>
      </trkpt>
      <trkpt lat="41.323178" lon="1.9496">
        <ele>370.9</ele>
        <time>1970-01-01T00:55:23.000Z</time>
      </trkpt>
      <trkpt lat="41.323178" lon="1.9496">
        <ele>370.9</ele>
        <time>1970-01-01T00:55:24.000Z</time>
      </trkpt>
      <trkpt lat="41.323137" lon="1.949605">
        <ele>370.9</ele>
        <time>1970-01-01T00:55:25.000Z</time>
      </trkpt>
      <trkpt lat="41.323115" lon="1.949607">
        <ele>370.9</ele>
        <time>1970-01-01T00:55:26.000Z</time>
      </trkpt>
      <trkpt lat="41.323115" lon="1.949607">
        <ele>371.9</ele>
        <time>1970-01-01T00:55:27.000Z</time>
      </trkpt>
      <trkpt lat="41.323072" lon="1.949608">
        <ele>371.9</ele>
        <time>1970-01-01T00:55:28.000Z</time>
      </trkpt>
      <trkpt lat="41.32305" lon="1.949612">
        <ele>371.9</ele>
        <time>1970-01-01T00:55:29.000Z</time>
      </trkpt>
      <trkpt lat="41.32305" lon="1.949612">
        <ele>371.9</ele>
        <time>1970-01-01T00:55:30.000Z</time>
      </trkpt>
      <trkpt lat="41.32301" lon="1.94962">
        <ele>372.9</ele>
        <time>1970-01-01T00:55:31.000Z</time>
      </trkpt>
      <trkpt lat="41.32299" lon="1.949628">
        <ele>372.9</ele>
        <time>1970-01-01T00:55:32.000Z</time>
      </trkpt>
      <trkpt lat="41.32299" lon="1.949628">
        <ele>372.9</ele>
        <time>1970-01-01T00:55:33.000Z</time>
      </trkpt>
      <trkpt lat="41.322947" lon="1.949655">
        <ele>372.9</ele>
        <time>1970-01-01T00:55:34.000Z</time>
      </trkpt>
      <trkpt lat="41.322925" lon="1.949667">
        <ele>372.9</ele>
        <time>1970-01-01T00:55:35.000Z</time>
      </trkpt>
      <trkpt lat="41.322925" lon="1.949667">
        <ele>373.9</ele>
        <time>1970-01-01T00:55:36.000Z</time>
      </trkpt>
      <trkpt lat="41.322883" lon="1.94969">
        <ele>373.9</ele>
        <time>1970-01-01T00:55:37.000Z</time>
      </trkpt>
      <trkpt lat="41.322883" lon="1.94969">
        <ele>373.9</ele>
        <time>1970-01-01T00:55:38.000Z</time>
      </trkpt>
      <trkpt lat="41.32284" lon="1.949708">
        <ele>373.9</ele>
        <time>1970-01-01T00:55:39.000Z</time>
      </trkpt>
      <trkpt lat="41.32284" lon="1.949708">
        <ele>373.9</ele>
        <time>1970-01-01T00:55:40.000Z</time>
      </trkpt>
      <trkpt lat="41.322793" lon="1.949728">
        <ele>373.9</ele>
        <time>1970-01-01T00:55:41.000Z</time>
      </trkpt>
      <trkpt lat="41.322793" lon="1.949728">
        <ele>373.9</ele>
        <time>1970-01-01T00:55:42.000Z</time>
      </trkpt>
      <trkpt lat="41.322753" lon="1.949747">
        <ele>373.9</ele>
        <time>1970-01-01T00:55:43.000Z</time>
      </trkpt>
      <trkpt lat="41.322733" lon="1.949757">
        <ele>374.9</ele>
        <time>1970-01-01T00:55:44.000Z</time>
      </trkpt>
      <trkpt lat="41.322733" lon="1.949757">
        <ele>374.9</ele>
        <time>1970-01-01T00:55:45.000Z</time>
      </trkpt>
      <trkpt lat="41.322692" lon="1.949777">
        <ele>374.9</ele>
        <time>1970-01-01T00:55:46.000Z</time>
      </trkpt>
      <trkpt lat="41.322672" lon="1.949785">
        <ele>374.9</ele>
        <time>1970-01-01T00:55:47.000Z</time>
      </trkpt>
      <trkpt lat="41.322672" lon="1.949785">
        <ele>374.9</ele>
        <time>1970-01-01T00:55:48.000Z</time>
      </trkpt>
      <trkpt lat="41.322628" lon="1.949795">
        <ele>374.9</ele>
        <time>1970-01-01T00:55:49.000Z</time>
      </trkpt>
      <trkpt lat="41.322628" lon="1.949795">
        <ele>375.9</ele>
        <time>1970-01-01T00:55:50.000Z</time>
      </trkpt>
      <trkpt lat="41.32259" lon="1.949775">
        <ele>375.9</ele>
        <time>1970-01-01T00:55:51.000Z</time>
      </trkpt>
      <trkpt lat="41.322573" lon="1.949758">
        <ele>376.9</ele>
        <time>1970-01-01T00:55:52.000Z</time>
      </trkpt>
      <trkpt lat="41.322573" lon="1.949758">
        <ele>376.9</ele>
        <time>1970-01-01T00:55:53.000Z</time>
      </trkpt>
      <trkpt lat="41.322577" lon="1.949718">
        <ele>376.9</ele>
        <time>1970-01-01T00:55:54.000Z</time>
      </trkpt>
      <trkpt lat="41.322577" lon="1.949718">
        <ele>376.9</ele>
        <time>1970-01-01T00:55:55.000Z</time>
      </trkpt>
      <trkpt lat="41.322602" lon="1.94969">
        <ele>377.9</ele>
        <time>1970-01-01T00:55:56.000Z</time>
      </trkpt>
      <trkpt lat="41.322617" lon="1.949678">
        <ele>377.9</ele>
        <time>1970-01-01T00:55:57.000Z</time>
      </trkpt>
      <trkpt lat="41.322617" lon="1.949678">
        <ele>377.9</ele>
        <time>1970-01-01T00:55:58.000Z</time>
      </trkpt>
      <trkpt lat="41.322657" lon="1.949657">
        <ele>377.9</ele>
        <time>1970-01-01T00:55:59.000Z</time>
      </trkpt>
      <trkpt lat="41.322677" lon="1.949645">
        <ele>378.9</ele>
        <time>1970-01-01T00:56:00.000Z</time>
      </trkpt>
      <trkpt lat="41.322677" lon="1.949645">
        <ele>378.9</ele>
        <time>1970-01-01T00:56:01.000Z</time>
      </trkpt>
      <trkpt lat="41.322718" lon="1.949623">
        <ele>378.9</ele>
        <time>1970-01-01T00:56:02.000Z</time>
      </trkpt>
      <trkpt lat="41.32274" lon="1.949617">
        <ele>378.9</ele>
        <time>1970-01-01T00:56:03.000Z</time>
      </trkpt>
      <trkpt lat="41.32274" lon="1.949617">
        <ele>378.9</ele>
        <time>1970-01-01T00:56:04.000Z</time>
      </trkpt>
      <trkpt lat="41.322782" lon="1.949598">
        <ele>378.9</ele>
        <time>1970-01-01T00:56:05.000Z</time>
      </trkpt>
      <trkpt lat="41.322782" lon="1.949598">
        <ele>377.9</ele>
        <time>1970-01-01T00:56:06.000Z</time>
      </trkpt>
      <trkpt lat="41.322825" lon="1.949582">
        <ele>377.9</ele>
        <time>1970-01-01T00:56:07.000Z</time>
      </trkpt>
      <trkpt lat="41.322825" lon="1.949582">
        <ele>377.9</ele>
        <time>1970-01-01T00:56:08.000Z</time>
      </trkpt>
      <trkpt lat="41.322865" lon="1.949567">
        <ele>377.9</ele>
        <time>1970-01-01T00:56:09.000Z</time>
      </trkpt>
      <trkpt lat="41.322865" lon="1.949567">
        <ele>378.9</ele>
        <time>1970-01-01T00:56:10.000Z</time>
      </trkpt>
      <trkpt lat="41.322907" lon="1.949553">
        <ele>378.9</ele>
        <time>1970-01-01T00:56:11.000Z</time>
      </trkpt>
      <trkpt lat="41.322927" lon="1.949547">
        <ele>379.9</ele>
        <time>1970-01-01T00:56:12.000Z</time>
      </trkpt>
      <trkpt lat="41.322927" lon="1.949547">
        <ele>379.9</ele>
        <time>1970-01-01T00:56:13.000Z</time>
      </trkpt>
      <trkpt lat="41.322963" lon="1.949533">
        <ele>380.9</ele>
        <time>1970-01-01T00:56:14.000Z</time>
      </trkpt>
      <trkpt lat="41.322983" lon="1.949523">
        <ele>380.9</ele>
        <time>1970-01-01T00:56:15.000Z</time>
      </trkpt>
      <trkpt lat="41.322983" lon="1.949523">
        <ele>380.9</ele>
        <time>1970-01-01T00:56:16.000Z</time>
      </trkpt>
      <trkpt lat="41.323022" lon="1.94951">
        <ele>380.9</ele>
        <time>1970-01-01T00:56:17.000Z</time>
      </trkpt>
      <trkpt lat="41.323038" lon="1.949505">
        <ele>380.9</ele>
        <time>1970-01-01T00:56:18.000Z</time>
      </trkpt>
      <trkpt lat="41.323038" lon="1.949505">
        <ele>380.9</ele>
        <time>1970-01-01T00:56:19.000Z</time>
      </trkpt>
      <trkpt lat="41.323073" lon="1.949493">
        <ele>380.9</ele>
        <time>1970-01-01T00:56:20.000Z</time>
      </trkpt>
      <trkpt lat="41.323097" lon="1.949488">
        <ele>380.9</ele>
        <time>1970-01-01T00:56:21.000Z</time>
      </trkpt>
      <trkpt lat="41.323097" lon="1.949488">
        <ele>380.9</ele>
        <time>1970-01-01T00:56:22.000Z</time>
      </trkpt>
      <trkpt lat="41.323137" lon="1.949472">
        <ele>380.9</ele>
        <time>1970-01-01T00:56:23.000Z</time>
      </trkpt>
      <trkpt lat="41.323157" lon="1.949465">
        <ele>380.9</ele>
        <time>1970-01-01T00:56:24.000Z</time>
      </trkpt>
      <trkpt lat="41.323157" lon="1.949465">
        <ele>380.9</ele>
        <time>1970-01-01T00:56:25.000Z</time>
      </trkpt>
      <trkpt lat="41.3232" lon="1.94945">
        <ele>380.9</ele>
        <time>1970-01-01T00:56:26.000Z</time>
      </trkpt>
      <trkpt lat="41.323217" lon="1.949442">
        <ele>380.9</ele>
        <time>1970-01-01T00:56:27.000Z</time>
      </trkpt>
      <trkpt lat="41.323217" lon="1.949442">
        <ele>380.9</ele>
        <time>1970-01-01T00:56:28.000Z</time>
      </trkpt>
      <trkpt lat="41.32325" lon="1.949425">
        <ele>380.9</ele>
        <time>1970-01-01T00:56:29.000Z</time>
      </trkpt>
      <trkpt lat="41.32325" lon="1.949425">
        <ele>380.9</ele>
        <time>1970-01-01T00:56:30.000Z</time>
      </trkpt>
      <trkpt lat="41.323287" lon="1.94941">
        <ele>380.9</ele>
        <time>1970-01-01T00:56:31.000Z</time>
      </trkpt>
      <trkpt lat="41.323305" lon="1.949402">
        <ele>380.9</ele>
        <time>1970-01-01T00:56:32.000Z</time>
      </trkpt>
      <trkpt lat="41.323305" lon="1.949402">
        <ele>381.9</ele>
        <time>1970-01-01T00:56:33.000Z</time>
      </trkpt>
      <trkpt lat="41.323342" lon="1.949387">
        <ele>381.9</ele>
        <time>1970-01-01T00:56:34.000Z</time>
      </trkpt>
      <trkpt lat="41.323342" lon="1.949387">
        <ele>381.9</ele>
        <time>1970-01-01T00:56:35.000Z</time>
      </trkpt>
      <trkpt lat="41.32338" lon="1.94937">
        <ele>381.9</ele>
        <time>1970-01-01T00:56:36.000Z</time>
      </trkpt>
      <trkpt lat="41.32338" lon="1.94937">
        <ele>381.9</ele>
        <time>1970-01-01T00:56:37.000Z</time>
      </trkpt>
      <trkpt lat="41.323418" lon="1.949345">
        <ele>381.9</ele>
        <time>1970-01-01T00:56:38.000Z</time>
      </trkpt>
      <trkpt lat="41.323438" lon="1.949337">
        <ele>381.9</ele>
        <time>1970-01-01T00:56:39.000Z</time>
      </trkpt>
      <trkpt lat="41.323438" lon="1.949337">
        <ele>381.9</ele>
        <time>1970-01-01T00:56:40.000Z</time>
      </trkpt>
      <trkpt lat="41.323482" lon="1.949318">
        <ele>381.9</ele>
        <time>1970-01-01T00:56:41.000Z</time>
      </trkpt>
      <trkpt lat="41.323502" lon="1.949308">
        <ele>381.9</ele>
        <time>1970-01-01T00:56:42.000Z</time>
      </trkpt>
      <trkpt lat="41.323502" lon="1.949308">
        <ele>381.9</ele>
        <time>1970-01-01T00:56:43.000Z</time>
      </trkpt>
      <trkpt lat="41.32354" lon="1.949288">
        <ele>382.9</ele>
        <time>1970-01-01T00:56:44.000Z</time>
      </trkpt>
      <trkpt lat="41.323558" lon="1.949277">
        <ele>382.9</ele>
        <time>1970-01-01T00:56:45.000Z</time>
      </trkpt>
      <trkpt lat="41.323558" lon="1.949277">
        <ele>382.9</ele>
        <time>1970-01-01T00:56:46.000Z</time>
      </trkpt>
      <trkpt lat="41.3236" lon="1.949257">
        <ele>382.9</ele>
        <time>1970-01-01T00:56:47.000Z</time>
      </trkpt>
      <trkpt lat="41.3236" lon="1.949257">
        <ele>382.9</ele>
        <time>1970-01-01T00:56:48.000Z</time>
      </trkpt>
      <trkpt lat="41.32364" lon="1.949238">
        <ele>382.9</ele>
        <time>1970-01-01T00:56:49.000Z</time>
      </trkpt>
      <trkpt lat="41.32364" lon="1.949238">
        <ele>382.9</ele>
        <time>1970-01-01T00:56:50.000Z</time>
      </trkpt>
      <trkpt lat="41.323683" lon="1.949222">
        <ele>382.9</ele>
        <time>1970-01-01T00:56:51.000Z</time>
      </trkpt>
      <trkpt lat="41.323683" lon="1.949222">
        <ele>382.9</ele>
        <time>1970-01-01T00:56:52.000Z</time>
      </trkpt>
      <trkpt lat="41.323728" lon="1.949198">
        <ele>382.9</ele>
        <time>1970-01-01T00:56:53.000Z</time>
      </trkpt>
      <trkpt lat="41.323752" lon="1.949188">
        <ele>383.9</ele>
        <time>1970-01-01T00:56:54.000Z</time>
      </trkpt>
      <trkpt lat="41.323752" lon="1.949188">
        <ele>383.9</ele>
        <time>1970-01-01T00:56:55.000Z</time>
      </trkpt>
      <trkpt lat="41.323793" lon="1.949168">
        <ele>383.9</ele>
        <time>1970-01-01T00:56:56.000Z</time>
      </trkpt>
      <trkpt lat="41.323815" lon="1.949162">
        <ele>383.9</ele>
        <time>1970-01-01T00:56:57.000Z</time>
      </trkpt>
      <trkpt lat="41.323815" lon="1.949162">
        <ele>383.9</ele>
        <time>1970-01-01T00:56:58.000Z</time>
      </trkpt>
      <trkpt lat="41.32386" lon="1.94915">
        <ele>384.9</ele>
        <time>1970-01-01T00:56:59.000Z</time>
      </trkpt>
      <trkpt lat="41.32386" lon="1.94915">
        <ele>384.9</ele>
        <time>1970-01-01T00:57:00.000Z</time>
      </trkpt>
      <trkpt lat="41.323905" lon="1.949138">
        <ele>384.9</ele>
        <time>1970-01-01T00:57:01.000Z</time>
      </trkpt>
      <trkpt lat="41.323927" lon="1.949135">
        <ele>384.9</ele>
        <time>1970-01-01T00:57:02.000Z</time>
      </trkpt>
      <trkpt lat="41.323927" lon="1.949135">
        <ele>384.9</ele>
        <time>1970-01-01T00:57:03.000Z</time>
      </trkpt>
      <trkpt lat="41.323972" lon="1.949127">
        <ele>384.9</ele>
        <time>1970-01-01T00:57:04.000Z</time>
      </trkpt>
      <trkpt lat="41.323995" lon="1.949123">
        <ele>384.9</ele>
        <time>1970-01-01T00:57:05.000Z</time>
      </trkpt>
      <trkpt lat="41.323995" lon="1.949123">
        <ele>384.9</ele>
        <time>1970-01-01T00:57:06.000Z</time>
      </trkpt>
      <trkpt lat="41.324043" lon="1.949115">
        <ele>384.9</ele>
        <time>1970-01-01T00:57:07.000Z</time>
      </trkpt>
      <trkpt lat="41.324067" lon="1.949115">
        <ele>384.9</ele>
        <time>1970-01-01T00:57:08.000Z</time>
      </trkpt>
      <trkpt lat="41.324067" lon="1.949115">
        <ele>385.9</ele>
        <time>1970-01-01T00:57:09.000Z</time>
      </trkpt>
      <trkpt lat="41.324113" lon="1.949115">
        <ele>385.9</ele>
        <time>1970-01-01T00:57:10.000Z</time>
      </trkpt>
      <trkpt lat="41.324113" lon="1.949115">
        <ele>385.9</ele>
        <time>1970-01-01T00:57:11.000Z</time>
      </trkpt>
      <trkpt lat="41.324158" lon="1.949117">
        <ele>385.9</ele>
        <time>1970-01-01T00:57:12.000Z</time>
      </trkpt>
      <trkpt lat="41.324158" lon="1.949117">
        <ele>385.9</ele>
        <time>1970-01-01T00:57:13.000Z</time>
      </trkpt>
      <trkpt lat="41.324203" lon="1.949123">
        <ele>385.9</ele>
        <time>1970-01-01T00:57:14.000Z</time>
      </trkpt>
      <trkpt lat="41.324203" lon="1.949123">
        <ele>385.9</ele>
        <time>1970-01-01T00:57:15.000Z</time>
      </trkpt>
      <trkpt lat="41.324248" lon="1.94913">
        <ele>385.9</ele>
        <time>1970-01-01T00:57:16.000Z</time>
      </trkpt>
      <trkpt lat="41.324248" lon="1.94913">
        <ele>385.9</ele>
        <time>1970-01-01T00:57:17.000Z</time>
      </trkpt>
      <trkpt lat="41.32429" lon="1.949138">
        <ele>385.9</ele>
        <time>1970-01-01T00:57:18.000Z</time>
      </trkpt>
      <trkpt lat="41.32429" lon="1.949138">
        <ele>385.9</ele>
        <time>1970-01-01T00:57:19.000Z</time>
      </trkpt>
      <trkpt lat="41.324332" lon="1.949145">
        <ele>385.9</ele>
        <time>1970-01-01T00:57:20.000Z</time>
      </trkpt>
      <trkpt lat="41.324353" lon="1.949147">
        <ele>385.9</ele>
        <time>1970-01-01T00:57:21.000Z</time>
      </trkpt>
      <trkpt lat="41.324353" lon="1.949147">
        <ele>385.9</ele>
        <time>1970-01-01T00:57:22.000Z</time>
      </trkpt>
      <trkpt lat="41.324403" lon="1.949148">
        <ele>385.9</ele>
        <time>1970-01-01T00:57:23.000Z</time>
      </trkpt>
      <trkpt lat="41.32443" lon="1.949147">
        <ele>385.9</ele>
        <time>1970-01-01T00:57:24.000Z</time>
      </trkpt>
      <trkpt lat="41.32443" lon="1.949147">
        <ele>386.9</ele>
        <time>1970-01-01T00:57:25.000Z</time>
      </trkpt>
      <trkpt lat="41.324492" lon="1.949143">
        <ele>386.9</ele>
        <time>1970-01-01T00:57:26.000Z</time>
      </trkpt>
      <trkpt lat="41.32452" lon="1.949143">
        <ele>386.9</ele>
        <time>1970-01-01T00:57:27.000Z</time>
      </trkpt>
      <trkpt lat="41.32452" lon="1.949143">
        <ele>386.9</ele>
        <time>1970-01-01T00:57:28.000Z</time>
      </trkpt>
      <trkpt lat="41.324575" lon="1.949143">
        <ele>386.9</ele>
        <time>1970-01-01T00:57:29.000Z</time>
      </trkpt>
      <trkpt lat="41.324575" lon="1.949143">
        <ele>386.9</ele>
        <time>1970-01-01T00:57:30.000Z</time>
      </trkpt>
      <trkpt lat="41.324622" lon="1.949137">
        <ele>387.9</ele>
        <time>1970-01-01T00:57:31.000Z</time>
      </trkpt>
      <trkpt lat="41.324622" lon="1.949137">
        <ele>387.9</ele>
        <time>1970-01-01T00:57:32.000Z</time>
      </trkpt>
      <trkpt lat="41.32467" lon="1.949125">
        <ele>387.9</ele>
        <time>1970-01-01T00:57:33.000Z</time>
      </trkpt>
      <trkpt lat="41.32467" lon="1.949125">
        <ele>387.9</ele>
        <time>1970-01-01T00:57:34.000Z</time>
      </trkpt>
      <trkpt lat="41.324713" lon="1.949112">
        <ele>387.9</ele>
        <time>1970-01-01T00:57:35.000Z</time>
      </trkpt>
      <trkpt lat="41.324735" lon="1.949103">
        <ele>387.9</ele>
        <time>1970-01-01T00:57:36.000Z</time>
      </trkpt>
      <trkpt lat="41.324735" lon="1.949103">
        <ele>388.9</ele>
        <time>1970-01-01T00:57:37.000Z</time>
      </trkpt>
      <trkpt lat="41.324778" lon="1.949077">
        <ele>388.9</ele>
        <time>1970-01-01T00:57:38.000Z</time>
      </trkpt>
      <trkpt lat="41.3248" lon="1.949065">
        <ele>388.9</ele>
        <time>1970-01-01T00:57:39.000Z</time>
      </trkpt>
      <trkpt lat="41.3248" lon="1.949065">
        <ele>388.9</ele>
        <time>1970-01-01T00:57:40.000Z</time>
      </trkpt>
      <trkpt lat="41.324843" lon="1.949038">
        <ele>388.9</ele>
        <time>1970-01-01T00:57:41.000Z</time>
      </trkpt>
      <trkpt lat="41.324863" lon="1.949023">
        <ele>388.9</ele>
        <time>1970-01-01T00:57:42.000Z</time>
      </trkpt>
      <trkpt lat="41.324863" lon="1.949023">
        <ele>388.9</ele>
        <time>1970-01-01T00:57:43.000Z</time>
      </trkpt>
      <trkpt lat="41.324907" lon="1.948992">
        <ele>389.9</ele>
        <time>1970-01-01T00:57:44.000Z</time>
      </trkpt>
      <trkpt lat="41.324928" lon="1.948975">
        <ele>389.9</ele>
        <time>1970-01-01T00:57:45.000Z</time>
      </trkpt>
      <trkpt lat="41.324928" lon="1.948975">
        <ele>389.9</ele>
        <time>1970-01-01T00:57:46.000Z</time>
      </trkpt>
      <trkpt lat="41.32497" lon="1.948938">
        <ele>389.9</ele>
        <time>1970-01-01T00:57:47.000Z</time>
      </trkpt>
      <trkpt lat="41.32499" lon="1.948918">
        <ele>389.9</ele>
        <time>1970-01-01T00:57:48.000Z</time>
      </trkpt>
      <trkpt lat="41.32499" lon="1.948918">
        <ele>389.9</ele>
        <time>1970-01-01T00:57:49.000Z</time>
      </trkpt>
      <trkpt lat="41.325028" lon="1.948882">
        <ele>389.9</ele>
        <time>1970-01-01T00:57:50.000Z</time>
      </trkpt>
      <trkpt lat="41.325047" lon="1.948862">
        <ele>389.9</ele>
        <time>1970-01-01T00:57:51.000Z</time>
      </trkpt>
      <trkpt lat="41.325047" lon="1.948862">
        <ele>390.9</ele>
        <time>1970-01-01T00:57:52.000Z</time>
      </trkpt>
      <trkpt lat="41.325087" lon="1.948818">
        <ele>390.9</ele>
        <time>1970-01-01T00:57:53.000Z</time>
      </trkpt>
      <trkpt lat="41.32511" lon="1.9488">
        <ele>390.9</ele>
        <time>1970-01-01T00:57:54.000Z</time>
      </trkpt>
      <trkpt lat="41.32511" lon="1.9488">
        <ele>390.9</ele>
        <time>1970-01-01T00:57:55.000Z</time>
      </trkpt>
      <trkpt lat="41.32515" lon="1.948757">
        <ele>390.9</ele>
        <time>1970-01-01T00:57:56.000Z</time>
      </trkpt>
      <trkpt lat="41.325167" lon="1.948733">
        <ele>390.9</ele>
        <time>1970-01-01T00:57:57.000Z</time>
      </trkpt>
      <trkpt lat="41.325167" lon="1.948733">
        <ele>391.9</ele>
        <time>1970-01-01T00:57:58.000Z</time>
      </trkpt>
      <trkpt lat="41.325203" lon="1.948688">
        <ele>391.9</ele>
        <time>1970-01-01T00:57:59.000Z</time>
      </trkpt>
      <trkpt lat="41.325203" lon="1.948688">
        <ele>391.9</ele>
        <time>1970-01-01T00:58:00.000Z</time>
      </trkpt>
      <trkpt lat="41.325237" lon="1.948642">
        <ele>391.9</ele>
        <time>1970-01-01T00:58:01.000Z</time>
      </trkpt>
      <trkpt lat="41.325237" lon="1.948642">
        <ele>391.9</ele>
        <time>1970-01-01T00:58:02.000Z</time>
      </trkpt>
      <trkpt lat="41.325267" lon="1.948597">
        <ele>391.9</ele>
        <time>1970-01-01T00:58:03.000Z</time>
      </trkpt>
      <trkpt lat="41.325267" lon="1.948597">
        <ele>391.9</ele>
        <time>1970-01-01T00:58:04.000Z</time>
      </trkpt>
      <trkpt lat="41.325293" lon="1.948552">
        <ele>391.9</ele>
        <time>1970-01-01T00:58:05.000Z</time>
      </trkpt>
      <trkpt lat="41.325293" lon="1.948552">
        <ele>391.9</ele>
        <time>1970-01-01T00:58:06.000Z</time>
      </trkpt>
      <trkpt lat="41.32532" lon="1.9485">
        <ele>391.9</ele>
        <time>1970-01-01T00:58:07.000Z</time>
      </trkpt>
      <trkpt lat="41.32532" lon="1.9485">
        <ele>393.9</ele>
        <time>1970-01-01T00:58:08.000Z</time>
      </trkpt>
      <trkpt lat="41.325347" lon="1.948442">
        <ele>393.9</ele>
        <time>1970-01-01T00:58:09.000Z</time>
      </trkpt>
      <trkpt lat="41.325347" lon="1.948442">
        <ele>393.9</ele>
        <time>1970-01-01T00:58:10.000Z</time>
      </trkpt>
      <trkpt lat="41.325372" lon="1.948382">
        <ele>393.9</ele>
        <time>1970-01-01T00:58:11.000Z</time>
      </trkpt>
      <trkpt lat="41.325372" lon="1.948382">
        <ele>393.9</ele>
        <time>1970-01-01T00:58:12.000Z</time>
      </trkpt>
      <trkpt lat="41.3254" lon="1.948323">
        <ele>393.9</ele>
        <time>1970-01-01T00:58:13.000Z</time>
      </trkpt>
      <trkpt lat="41.3254" lon="1.948323">
        <ele>393.9</ele>
        <time>1970-01-01T00:58:14.000Z</time>
      </trkpt>
      <trkpt lat="41.325428" lon="1.948265">
        <ele>393.9</ele>
        <time>1970-01-01T00:58:15.000Z</time>
      </trkpt>
      <trkpt lat="41.325428" lon="1.948265">
        <ele>393.9</ele>
        <time>1970-01-01T00:58:16.000Z</time>
      </trkpt>
      <trkpt lat="41.325455" lon="1.948205">
        <ele>393.9</ele>
        <time>1970-01-01T00:58:17.000Z</time>
      </trkpt>
      <trkpt lat="41.325455" lon="1.948205">
        <ele>393.9</ele>
        <time>1970-01-01T00:58:18.000Z</time>
      </trkpt>
      <trkpt lat="41.32548" lon="1.948147">
        <ele>393.9</ele>
        <time>1970-01-01T00:58:19.000Z</time>
      </trkpt>
      <trkpt lat="41.32548" lon="1.948147">
        <ele>394.9</ele>
        <time>1970-01-01T00:58:20.000Z</time>
      </trkpt>
      <trkpt lat="41.325505" lon="1.948093">
        <ele>394.9</ele>
        <time>1970-01-01T00:58:21.000Z</time>
      </trkpt>
      <trkpt lat="41.325505" lon="1.948093">
        <ele>395.9</ele>
        <time>1970-01-01T00:58:22.000Z</time>
      </trkpt>
      <trkpt lat="41.325532" lon="1.948038">
        <ele>395.9</ele>
        <time>1970-01-01T00:58:23.000Z</time>
      </trkpt>
      <trkpt lat="41.325532" lon="1.948038">
        <ele>395.9</ele>
        <time>1970-01-01T00:58:24.000Z</time>
      </trkpt>
      <trkpt lat="41.325555" lon="1.947987">
        <ele>395.9</ele>
        <time>1970-01-01T00:58:25.000Z</time>
      </trkpt>
      <trkpt lat="41.325555" lon="1.947987">
        <ele>395.9</ele>
        <time>1970-01-01T00:58:26.000Z</time>
      </trkpt>
      <trkpt lat="41.325578" lon="1.947933">
        <ele>395.9</ele>
        <time>1970-01-01T00:58:27.000Z</time>
      </trkpt>
      <trkpt lat="41.325578" lon="1.947933">
        <ele>395.9</ele>
        <time>1970-01-01T00:58:28.000Z</time>
      </trkpt>
      <trkpt lat="41.325607" lon="1.947882">
        <ele>396.9</ele>
        <time>1970-01-01T00:58:29.000Z</time>
      </trkpt>
      <trkpt lat="41.325607" lon="1.947882">
        <ele>396.9</ele>
        <time>1970-01-01T00:58:30.000Z</time>
      </trkpt>
      <trkpt lat="41.325642" lon="1.947827">
        <ele>396.9</ele>
        <time>1970-01-01T00:58:31.000Z</time>
      </trkpt>
      <trkpt lat="41.325642" lon="1.947827">
        <ele>396.9</ele>
        <time>1970-01-01T00:58:32.000Z</time>
      </trkpt>
      <trkpt lat="41.325675" lon="1.947773">
        <ele>396.9</ele>
        <time>1970-01-01T00:58:33.000Z</time>
      </trkpt>
      <trkpt lat="41.325675" lon="1.947773">
        <ele>396.9</ele>
        <time>1970-01-01T00:58:34.000Z</time>
      </trkpt>
      <trkpt lat="41.325705" lon="1.947723">
        <ele>396.9</ele>
        <time>1970-01-01T00:58:35.000Z</time>
      </trkpt>
      <trkpt lat="41.325705" lon="1.947723">
        <ele>396.9</ele>
        <time>1970-01-01T00:58:36.000Z</time>
      </trkpt>
      <trkpt lat="41.325735" lon="1.947675">
        <ele>397.9</ele>
        <time>1970-01-01T00:58:37.000Z</time>
      </trkpt>
      <trkpt lat="41.325735" lon="1.947675">
        <ele>397.9</ele>
        <time>1970-01-01T00:58:38.000Z</time>
      </trkpt>
      <trkpt lat="41.325768" lon="1.947623">
        <ele>397.9</ele>
        <time>1970-01-01T00:58:39.000Z</time>
      </trkpt>
      <trkpt lat="41.325768" lon="1.947623">
        <ele>397.9</ele>
        <time>1970-01-01T00:58:40.000Z</time>
      </trkpt>
      <trkpt lat="41.325805" lon="1.947573">
        <ele>397.9</ele>
        <time>1970-01-01T00:58:41.000Z</time>
      </trkpt>
      <trkpt lat="41.325825" lon="1.94755">
        <ele>397.9</ele>
        <time>1970-01-01T00:58:42.000Z</time>
      </trkpt>
      <trkpt lat="41.325825" lon="1.94755">
        <ele>397.9</ele>
        <time>1970-01-01T00:58:43.000Z</time>
      </trkpt>
      <trkpt lat="41.325857" lon="1.947503">
        <ele>397.9</ele>
        <time>1970-01-01T00:58:44.000Z</time>
      </trkpt>
      <trkpt lat="41.325857" lon="1.947503">
        <ele>398.9</ele>
        <time>1970-01-01T00:58:45.000Z</time>
      </trkpt>
      <trkpt lat="41.325892" lon="1.947463">
        <ele>398.9</ele>
        <time>1970-01-01T00:58:46.000Z</time>
      </trkpt>
      <trkpt lat="41.325892" lon="1.947463">
        <ele>398.9</ele>
        <time>1970-01-01T00:58:47.000Z</time>
      </trkpt>
      <trkpt lat="41.325927" lon="1.947425">
        <ele>398.9</ele>
        <time>1970-01-01T00:58:48.000Z</time>
      </trkpt>
      <trkpt lat="41.325927" lon="1.947425">
        <ele>398.9</ele>
        <time>1970-01-01T00:58:49.000Z</time>
      </trkpt>
      <trkpt lat="41.325967" lon="1.947383">
        <ele>398.9</ele>
        <time>1970-01-01T00:58:50.000Z</time>
      </trkpt>
      <trkpt lat="41.325987" lon="1.947363">
        <ele>398.9</ele>
        <time>1970-01-01T00:58:51.000Z</time>
      </trkpt>
      <trkpt lat="41.325987" lon="1.947363">
        <ele>398.9</ele>
        <time>1970-01-01T00:58:52.000Z</time>
      </trkpt>
      <trkpt lat="41.326027" lon="1.94733">
        <ele>398.9</ele>
        <time>1970-01-01T00:58:53.000Z</time>
      </trkpt>
      <trkpt lat="41.326045" lon="1.947317">
        <ele>398.9</ele>
        <time>1970-01-01T00:58:54.000Z</time>
      </trkpt>
      <trkpt lat="41.326045" lon="1.947317">
        <ele>399.9</ele>
        <time>1970-01-01T00:58:55.000Z</time>
      </trkpt>
      <trkpt lat="41.32609" lon="1.947292">
        <ele>399.9</ele>
        <time>1970-01-01T00:58:56.000Z</time>
      </trkpt>
      <trkpt lat="41.326105" lon="1.947278">
        <ele>399.9</ele>
        <time>1970-01-01T00:58:57.000Z</time>
      </trkpt>
      <trkpt lat="41.326105" lon="1.947278">
        <ele>399.9</ele>
        <time>1970-01-01T00:58:58.000Z</time>
      </trkpt>
      <trkpt lat="41.326148" lon="1.947253">
        <ele>399.9</ele>
        <time>1970-01-01T00:58:59.000Z</time>
      </trkpt>
      <trkpt lat="41.326148" lon="1.947253">
        <ele>399.9</ele>
        <time>1970-01-01T00:59:00.000Z</time>
      </trkpt>
      <trkpt lat="41.326192" lon="1.947232">
        <ele>399.9</ele>
        <time>1970-01-01T00:59:01.000Z</time>
      </trkpt>
      <trkpt lat="41.326192" lon="1.947232">
        <ele>399.9</ele>
        <time>1970-01-01T00:59:02.000Z</time>
      </trkpt>
      <trkpt lat="41.326237" lon="1.947208">
        <ele>400.9</ele>
        <time>1970-01-01T00:59:03.000Z</time>
      </trkpt>
      <trkpt lat="41.326237" lon="1.947208">
        <ele>400.9</ele>
        <time>1970-01-01T00:59:04.000Z</time>
      </trkpt>
      <trkpt lat="41.32628" lon="1.947188">
        <ele>400.9</ele>
        <time>1970-01-01T00:59:05.000Z</time>
      </trkpt>
      <trkpt lat="41.32628" lon="1.947188">
        <ele>400.9</ele>
        <time>1970-01-01T00:59:06.000Z</time>
      </trkpt>
      <trkpt lat="41.326325" lon="1.947168">
        <ele>400.9</ele>
        <time>1970-01-01T00:59:07.000Z</time>
      </trkpt>
      <trkpt lat="41.326325" lon="1.947168">
        <ele>400.9</ele>
        <time>1970-01-01T00:59:08.000Z</time>
      </trkpt>
      <trkpt lat="41.326372" lon="1.94715">
        <ele>400.9</ele>
        <time>1970-01-01T00:59:09.000Z</time>
      </trkpt>
      <trkpt lat="41.326372" lon="1.94715">
        <ele>400.9</ele>
        <time>1970-01-01T00:59:10.000Z</time>
      </trkpt>
      <trkpt lat="41.326417" lon="1.947128">
        <ele>400.9</ele>
        <time>1970-01-01T00:59:11.000Z</time>
      </trkpt>
      <trkpt lat="41.326438" lon="1.947117">
        <ele>401.9</ele>
        <time>1970-01-01T00:59:12.000Z</time>
      </trkpt>
      <trkpt lat="41.326438" lon="1.947117">
        <ele>401.9</ele>
        <time>1970-01-01T00:59:13.000Z</time>
      </trkpt>
      <trkpt lat="41.32648" lon="1.947095">
        <ele>401.9</ele>
        <time>1970-01-01T00:59:14.000Z</time>
      </trkpt>
      <trkpt lat="41.3265" lon="1.947082">
        <ele>401.9</ele>
        <time>1970-01-01T00:59:15.000Z</time>
      </trkpt>
      <trkpt lat="41.3265" lon="1.947082">
        <ele>401.9</ele>
        <time>1970-01-01T00:59:16.000Z</time>
      </trkpt>
      <trkpt lat="41.326538" lon="1.94705">
        <ele>401.9</ele>
        <time>1970-01-01T00:59:17.000Z</time>
      </trkpt>
      <trkpt lat="41.32656" lon="1.947033">
        <ele>401.9</ele>
        <time>1970-01-01T00:59:18.000Z</time>
      </trkpt>
      <trkpt lat="41.32656" lon="1.947033">
        <ele>402.9</ele>
        <time>1970-01-01T00:59:19.000Z</time>
      </trkpt>
      <trkpt lat="41.326603" lon="1.946988">
        <ele>402.9</ele>
        <time>1970-01-01T00:59:20.000Z</time>
      </trkpt>
      <trkpt lat="41.326603" lon="1.946988">
        <ele>402.9</ele>
        <time>1970-01-01T00:59:21.000Z</time>
      </trkpt>
      <trkpt lat="41.326643" lon="1.946935">
        <ele>402.9</ele>
        <time>1970-01-01T00:59:22.000Z</time>
      </trkpt>
      <trkpt lat="41.326643" lon="1.946935">
        <ele>402.9</ele>
        <time>1970-01-01T00:59:23.000Z</time>
      </trkpt>
      <trkpt lat="41.326687" lon="1.946882">
        <ele>402.9</ele>
        <time>1970-01-01T00:59:24.000Z</time>
      </trkpt>
      <trkpt lat="41.326687" lon="1.946882">
        <ele>402.9</ele>
        <time>1970-01-01T00:59:25.000Z</time>
      </trkpt>
      <trkpt lat="41.32673" lon="1.946822">
        <ele>402.9</ele>
        <time>1970-01-01T00:59:26.000Z</time>
      </trkpt>
      <trkpt lat="41.326742" lon="1.946797">
        <ele>402.9</ele>
        <time>1970-01-01T00:59:27.000Z</time>
      </trkpt>
      <trkpt lat="41.326742" lon="1.946797">
        <ele>402.9</ele>
        <time>1970-01-01T00:59:28.000Z</time>
      </trkpt>
      <trkpt lat="41.326785" lon="1.946755">
        <ele>402.9</ele>
        <time>1970-01-01T00:59:29.000Z</time>
      </trkpt>
      <trkpt lat="41.326785" lon="1.946755">
        <ele>402.9</ele>
        <time>1970-01-01T00:59:30.000Z</time>
      </trkpt>
      <trkpt lat="41.326837" lon="1.946722">
        <ele>402.9</ele>
        <time>1970-01-01T00:59:31.000Z</time>
      </trkpt>
      <trkpt lat="41.326837" lon="1.946722">
        <ele>402.9</ele>
        <time>1970-01-01T00:59:32.000Z</time>
      </trkpt>
      <trkpt lat="41.326895" lon="1.9467">
        <ele>402.9</ele>
        <time>1970-01-01T00:59:33.000Z</time>
      </trkpt>
      <trkpt lat="41.326895" lon="1.9467">
        <ele>402.9</ele>
        <time>1970-01-01T00:59:34.000Z</time>
      </trkpt>
      <trkpt lat="41.32695" lon="1.946677">
        <ele>402.9</ele>
        <time>1970-01-01T00:59:35.000Z</time>
      </trkpt>
      <trkpt lat="41.32698" lon="1.946663">
        <ele>402.9</ele>
        <time>1970-01-01T00:59:36.000Z</time>
      </trkpt>
      <trkpt lat="41.32698" lon="1.946663">
        <ele>402.9</ele>
        <time>1970-01-01T00:59:37.000Z</time>
      </trkpt>
      <trkpt lat="41.327032" lon="1.946615">
        <ele>402.9</ele>
        <time>1970-01-01T00:59:38.000Z</time>
      </trkpt>
      <trkpt lat="41.327055" lon="1.946585">
        <ele>402.9</ele>
        <time>1970-01-01T00:59:39.000Z</time>
      </trkpt>
      <trkpt lat="41.327055" lon="1.946585">
        <ele>402.9</ele>
        <time>1970-01-01T00:59:40.000Z</time>
      </trkpt>
      <trkpt lat="41.32709" lon="1.946515">
        <ele>402.9</ele>
        <time>1970-01-01T00:59:41.000Z</time>
      </trkpt>
      <trkpt lat="41.327102" lon="1.946473">
        <ele>402.9</ele>
        <time>1970-01-01T00:59:42.000Z</time>
      </trkpt>
      <trkpt lat="41.327113" lon="1.946425">
        <ele>402.9</ele>
        <time>1970-01-01T00:59:43.000Z</time>
      </trkpt>
      <trkpt lat="41.327113" lon="1.946425">
        <ele>402.9</ele>
        <time>1970-01-01T00:59:44.000Z</time>
      </trkpt>
      <trkpt lat="41.327135" lon="1.946323">
        <ele>402.9</ele>
        <time>1970-01-01T00:59:45.000Z</time>
      </trkpt>
      <trkpt lat="41.327135" lon="1.946323">
        <ele>402.9</ele>
        <time>1970-01-01T00:59:46.000Z</time>
      </trkpt>
      <trkpt lat="41.327165" lon="1.946223">
        <ele>402.9</ele>
        <time>1970-01-01T00:59:47.000Z</time>
      </trkpt>
      <trkpt lat="41.327182" lon="1.946178">
        <ele>402.9</ele>
        <time>1970-01-01T00:59:48.000Z</time>
      </trkpt>
      <trkpt lat="41.327182" lon="1.946178">
        <ele>402.9</ele>
        <time>1970-01-01T00:59:49.000Z</time>
      </trkpt>
      <trkpt lat="41.327208" lon="1.946095">
        <ele>402.9</ele>
        <time>1970-01-01T00:59:50.000Z</time>
      </trkpt>
      <trkpt lat="41.327225" lon="1.946053">
        <ele>402.9</ele>
        <time>1970-01-01T00:59:51.000Z</time>
      </trkpt>
      <trkpt lat="41.327225" lon="1.946053">
        <ele>402.9</ele>
        <time>1970-01-01T00:59:52.000Z</time>
      </trkpt>
      <trkpt lat="41.327263" lon="1.945965">
        <ele>402.9</ele>
        <time>1970-01-01T00:59:53.000Z</time>
      </trkpt>
      <trkpt lat="41.32728" lon="1.94592">
        <ele>402.9</ele>
        <time>1970-01-01T00:59:54.000Z</time>
      </trkpt>
      <trkpt lat="41.327298" lon="1.94587">
        <ele>402.9</ele>
        <time>1970-01-01T00:59:55.000Z</time>
      </trkpt>
      <trkpt lat="41.327298" lon="1.94587">
        <ele>401.9</ele>
        <time>1970-01-01T00:59:56.000Z</time>
      </trkpt>
      <trkpt lat="41.32733" lon="1.945777">
        <ele>401.9</ele>
        <time>1970-01-01T00:59:57.000Z</time>
      </trkpt>
      <trkpt lat="41.32733" lon="1.945777">
        <ele>401.9</ele>
        <time>1970-01-01T00:59:58.000Z</time>
      </trkpt>
      <trkpt lat="41.327355" lon="1.945693">
        <ele>401.9</ele>
        <time>1970-01-01T00:59:59.000Z</time>
      </trkpt>
      <trkpt lat="41.327372" lon="1.945647">
        <ele>400.9</ele>
        <time>1970-01-01T01:00:00.000Z</time>
      </trkpt>
      <trkpt lat="41.327372" lon="1.945647">
        <ele>400.9</ele>
        <time>1970-01-01T01:00:01.000Z</time>
      </trkpt>
      <trkpt lat="41.3274" lon="1.945542">
        <ele>398.9</ele>
        <time>1970-01-01T01:00:02.000Z</time>
      </trkpt>
      <trkpt lat="41.327418" lon="1.945485">
        <ele>398.9</ele>
        <time>1970-01-01T01:00:03.000Z</time>
      </trkpt>
      <trkpt lat="41.327418" lon="1.945485">
        <ele>399.9</ele>
        <time>1970-01-01T01:00:04.000Z</time>
      </trkpt>
      <trkpt lat="41.327455" lon="1.945363">
        <ele>399.9</ele>
        <time>1970-01-01T01:00:05.000Z</time>
      </trkpt>
      <trkpt lat="41.327472" lon="1.9453">
        <ele>399.9</ele>
        <time>1970-01-01T01:00:06.000Z</time>
      </trkpt>
      <trkpt lat="41.327472" lon="1.9453">
        <ele>399.9</ele>
        <time>1970-01-01T01:00:07.000Z</time>
      </trkpt>
      <trkpt lat="41.327515" lon="1.94517">
        <ele>398.9</ele>
        <time>1970-01-01T01:00:08.000Z</time>
      </trkpt>
      <trkpt lat="41.327542" lon="1.9451">
        <ele>398.9</ele>
        <time>1970-01-01T01:00:09.000Z</time>
      </trkpt>
      <trkpt lat="41.327542" lon="1.9451">
        <ele>398.9</ele>
        <time>1970-01-01T01:00:10.000Z</time>
      </trkpt>
      <trkpt lat="41.327597" lon="1.944955">
        <ele>398.9</ele>
        <time>1970-01-01T01:00:11.000Z</time>
      </trkpt>
      <trkpt lat="41.327597" lon="1.944955">
        <ele>398.9</ele>
        <time>1970-01-01T01:00:12.000Z</time>
      </trkpt>
      <trkpt lat="41.327645" lon="1.944805">
        <ele>398.9</ele>
        <time>1970-01-01T01:00:13.000Z</time>
      </trkpt>
      <trkpt lat="41.327673" lon="1.944728">
        <ele>398.9</ele>
        <time>1970-01-01T01:00:14.000Z</time>
      </trkpt>
      <trkpt lat="41.327698" lon="1.94465">
        <ele>398.9</ele>
        <time>1970-01-01T01:00:15.000Z</time>
      </trkpt>
      <trkpt lat="41.327698" lon="1.94465">
        <ele>398.9</ele>
        <time>1970-01-01T01:00:16.000Z</time>
      </trkpt>
      <trkpt lat="41.327758" lon="1.94449">
        <ele>398.9</ele>
        <time>1970-01-01T01:00:17.000Z</time>
      </trkpt>
      <trkpt lat="41.327758" lon="1.94449">
        <ele>398.9</ele>
        <time>1970-01-01T01:00:18.000Z</time>
      </trkpt>
      <trkpt lat="41.327787" lon="1.94432">
        <ele>398.9</ele>
        <time>1970-01-01T01:00:19.000Z</time>
      </trkpt>
      <trkpt lat="41.327787" lon="1.94432">
        <ele>397.9</ele>
        <time>1970-01-01T01:00:20.000Z</time>
      </trkpt>
      <trkpt lat="41.327808" lon="1.944147">
        <ele>397.9</ele>
        <time>1970-01-01T01:00:21.000Z</time>
      </trkpt>
      <trkpt lat="41.327808" lon="1.944147">
        <ele>397.9</ele>
        <time>1970-01-01T01:00:22.000Z</time>
      </trkpt>
      <trkpt lat="41.327833" lon="1.94397">
        <ele>397.9</ele>
        <time>1970-01-01T01:00:23.000Z</time>
      </trkpt>
      <trkpt lat="41.327833" lon="1.94397">
        <ele>396.9</ele>
        <time>1970-01-01T01:00:24.000Z</time>
      </trkpt>
      <trkpt lat="41.327848" lon="1.943778">
        <ele>396.9</ele>
        <time>1970-01-01T01:00:25.000Z</time>
      </trkpt>
      <trkpt lat="41.327848" lon="1.943778">
        <ele>396.9</ele>
        <time>1970-01-01T01:00:26.000Z</time>
      </trkpt>
      <trkpt lat="41.327868" lon="1.943592">
        <ele>396.9</ele>
        <time>1970-01-01T01:00:27.000Z</time>
      </trkpt>
      <trkpt lat="41.327868" lon="1.943592">
        <ele>395.9</ele>
        <time>1970-01-01T01:00:28.000Z</time>
      </trkpt>
      <trkpt lat="41.32789" lon="1.943402">
        <ele>395.9</ele>
        <time>1970-01-01T01:00:29.000Z</time>
      </trkpt>
      <trkpt lat="41.327898" lon="1.9433">
        <ele>395.9</ele>
        <time>1970-01-01T01:00:30.000Z</time>
      </trkpt>
      <trkpt lat="41.327898" lon="1.9433">
        <ele>395.9</ele>
        <time>1970-01-01T01:00:31.000Z</time>
      </trkpt>
      <trkpt lat="41.327928" lon="1.943103">
        <ele>393.9</ele>
        <time>1970-01-01T01:00:32.000Z</time>
      </trkpt>
      <trkpt lat="41.327942" lon="1.94301">
        <ele>393.9</ele>
        <time>1970-01-01T01:00:33.000Z</time>
      </trkpt>
      <trkpt lat="41.327942" lon="1.94301">
        <ele>392.9</ele>
        <time>1970-01-01T01:00:34.000Z</time>
      </trkpt>
      <trkpt lat="41.327965" lon="1.942815">
        <ele>392.9</ele>
        <time>1970-01-01T01:00:35.000Z</time>
      </trkpt>
      <trkpt lat="41.327977" lon="1.942718">
        <ele>392.9</ele>
        <time>1970-01-01T01:00:36.000Z</time>
      </trkpt>
      <trkpt lat="41.327977" lon="1.942718">
        <ele>391.9</ele>
        <time>1970-01-01T01:00:37.000Z</time>
      </trkpt>
      <trkpt lat="41.327995" lon="1.942513">
        <ele>391.9</ele>
        <time>1970-01-01T01:00:38.000Z</time>
      </trkpt>
      <trkpt lat="41.328005" lon="1.942413">
        <ele>390.9</ele>
        <time>1970-01-01T01:00:39.000Z</time>
      </trkpt>
      <trkpt lat="41.328005" lon="1.942413">
        <ele>390.9</ele>
        <time>1970-01-01T01:00:40.000Z</time>
      </trkpt>
      <trkpt lat="41.32803" lon="1.942203">
        <ele>390.9</ele>
        <time>1970-01-01T01:00:41.000Z</time>
      </trkpt>
      <trkpt lat="41.328038" lon="1.942102">
        <ele>390.9</ele>
        <time>1970-01-01T01:00:42.000Z</time>
      </trkpt>
      <trkpt lat="41.328038" lon="1.942102">
        <ele>389.9</ele>
        <time>1970-01-01T01:00:43.000Z</time>
      </trkpt>
      <trkpt lat="41.328063" lon="1.941895">
        <ele>389.9</ele>
        <time>1970-01-01T01:00:44.000Z</time>
      </trkpt>
      <trkpt lat="41.328078" lon="1.941782">
        <ele>389.9</ele>
        <time>1970-01-01T01:00:45.000Z</time>
      </trkpt>
      <trkpt lat="41.328078" lon="1.941782">
        <ele>389.9</ele>
        <time>1970-01-01T01:00:46.000Z</time>
      </trkpt>
      <trkpt lat="41.328098" lon="1.941567">
        <ele>388.9</ele>
        <time>1970-01-01T01:00:47.000Z</time>
      </trkpt>
      <trkpt lat="41.328098" lon="1.941567">
        <ele>388.9</ele>
        <time>1970-01-01T01:00:48.000Z</time>
      </trkpt>
      <trkpt lat="41.328128" lon="1.941357">
        <ele>388.9</ele>
        <time>1970-01-01T01:00:49.000Z</time>
      </trkpt>
      <trkpt lat="41.328128" lon="1.941357">
        <ele>388.9</ele>
        <time>1970-01-01T01:00:50.000Z</time>
      </trkpt>
      <trkpt lat="41.32816" lon="1.941155">
        <ele>387.9</ele>
        <time>1970-01-01T01:00:51.000Z</time>
      </trkpt>
      <trkpt lat="41.328172" lon="1.941062">
        <ele>387.9</ele>
        <time>1970-01-01T01:00:52.000Z</time>
      </trkpt>
      <trkpt lat="41.328172" lon="1.941062">
        <ele>387.9</ele>
        <time>1970-01-01T01:00:53.000Z</time>
      </trkpt>
      <trkpt lat="41.328195" lon="1.94087">
        <ele>387.9</ele>
        <time>1970-01-01T01:00:54.000Z</time>
      </trkpt>
      <trkpt lat="41.328195" lon="1.94087">
        <ele>386.9</ele>
        <time>1970-01-01T01:00:55.000Z</time>
      </trkpt>
      <trkpt lat="41.328223" lon="1.940668">
        <ele>386.9</ele>
        <time>1970-01-01T01:00:56.000Z</time>
      </trkpt>
      <trkpt lat="41.328235" lon="1.940575">
        <ele>386.9</ele>
        <time>1970-01-01T01:00:57.000Z</time>
      </trkpt>
      <trkpt lat="41.328235" lon="1.940575">
        <ele>386.9</ele>
        <time>1970-01-01T01:00:58.000Z</time>
      </trkpt>
      <trkpt lat="41.328265" lon="1.94039">
        <ele>386.9</ele>
        <time>1970-01-01T01:00:59.000Z</time>
      </trkpt>
      <trkpt lat="41.328265" lon="1.94039">
        <ele>386.9</ele>
        <time>1970-01-01T01:01:00.000Z</time>
      </trkpt>
      <trkpt lat="41.328288" lon="1.940202">
        <ele>385.9</ele>
        <time>1970-01-01T01:01:01.000Z</time>
      </trkpt>
      <trkpt lat="41.328288" lon="1.940202">
        <ele>385.9</ele>
        <time>1970-01-01T01:01:02.000Z</time>
      </trkpt>
      <trkpt lat="41.328303" lon="1.940027">
        <ele>385.9</ele>
        <time>1970-01-01T01:01:03.000Z</time>
      </trkpt>
      <trkpt lat="41.328303" lon="1.940027">
        <ele>385.9</ele>
        <time>1970-01-01T01:01:04.000Z</time>
      </trkpt>
      <trkpt lat="41.328322" lon="1.939852">
        <ele>384.9</ele>
        <time>1970-01-01T01:01:05.000Z</time>
      </trkpt>
      <trkpt lat="41.328322" lon="1.939852">
        <ele>384.9</ele>
        <time>1970-01-01T01:01:06.000Z</time>
      </trkpt>
      <trkpt lat="41.328325" lon="1.939673">
        <ele>384.9</ele>
        <time>1970-01-01T01:01:07.000Z</time>
      </trkpt>
      <trkpt lat="41.328325" lon="1.939583">
        <ele>384.9</ele>
        <time>1970-01-01T01:01:08.000Z</time>
      </trkpt>
      <trkpt lat="41.328322" lon="1.939493">
        <ele>384.9</ele>
        <time>1970-01-01T01:01:09.000Z</time>
      </trkpt>
      <trkpt lat="41.328322" lon="1.939493">
        <ele>384.9</ele>
        <time>1970-01-01T01:01:10.000Z</time>
      </trkpt>
      <trkpt lat="41.328305" lon="1.939318">
        <ele>384.9</ele>
        <time>1970-01-01T01:01:11.000Z</time>
      </trkpt>
      <trkpt lat="41.328305" lon="1.939318">
        <ele>384.9</ele>
        <time>1970-01-01T01:01:12.000Z</time>
      </trkpt>
      <trkpt lat="41.328295" lon="1.93915">
        <ele>384.9</ele>
        <time>1970-01-01T01:01:13.000Z</time>
      </trkpt>
      <trkpt lat="41.328295" lon="1.93915">
        <ele>384.9</ele>
        <time>1970-01-01T01:01:14.000Z</time>
      </trkpt>
      <trkpt lat="41.328283" lon="1.938985">
        <ele>384.9</ele>
        <time>1970-01-01T01:01:15.000Z</time>
      </trkpt>
      <trkpt lat="41.328275" lon="1.938898">
        <ele>384.9</ele>
        <time>1970-01-01T01:01:16.000Z</time>
      </trkpt>
      <trkpt lat="41.328275" lon="1.938898">
        <ele>383.9</ele>
        <time>1970-01-01T01:01:17.000Z</time>
      </trkpt>
      <trkpt lat="41.328258" lon="1.938718">
        <ele>383.9</ele>
        <time>1970-01-01T01:01:18.000Z</time>
      </trkpt>
      <trkpt lat="41.328258" lon="1.938718">
        <ele>383.9</ele>
        <time>1970-01-01T01:01:19.000Z</time>
      </trkpt>
      <trkpt lat="41.328243" lon="1.938535">
        <ele>383.9</ele>
        <time>1970-01-01T01:01:20.000Z</time>
      </trkpt>
      <trkpt lat="41.328248" lon="1.938452">
        <ele>383.9</ele>
        <time>1970-01-01T01:01:21.000Z</time>
      </trkpt>
      <trkpt lat="41.328248" lon="1.938452">
        <ele>383.9</ele>
        <time>1970-01-01T01:01:22.000Z</time>
      </trkpt>
      <trkpt lat="41.328278" lon="1.93831">
        <ele>383.9</ele>
        <time>1970-01-01T01:01:23.000Z</time>
      </trkpt>
      <trkpt lat="41.328278" lon="1.93831">
        <ele>383.9</ele>
        <time>1970-01-01T01:01:24.000Z</time>
      </trkpt>
      <trkpt lat="41.328338" lon="1.938215">
        <ele>383.9</ele>
        <time>1970-01-01T01:01:25.000Z</time>
      </trkpt>
      <trkpt lat="41.328338" lon="1.938215">
        <ele>383.9</ele>
        <time>1970-01-01T01:01:26.000Z</time>
      </trkpt>
      <trkpt lat="41.328392" lon="1.938127">
        <ele>383.9</ele>
        <time>1970-01-01T01:01:27.000Z</time>
      </trkpt>
      <trkpt lat="41.328392" lon="1.938127">
        <ele>383.9</ele>
        <time>1970-01-01T01:01:28.000Z</time>
      </trkpt>
      <trkpt lat="41.328432" lon="1.938033">
        <ele>383.9</ele>
        <time>1970-01-01T01:01:29.000Z</time>
      </trkpt>
      <trkpt lat="41.328432" lon="1.938033">
        <ele>383.9</ele>
        <time>1970-01-01T01:01:30.000Z</time>
      </trkpt>
      <trkpt lat="41.328483" lon="1.93796">
        <ele>383.9</ele>
        <time>1970-01-01T01:01:31.000Z</time>
      </trkpt>
      <trkpt lat="41.328483" lon="1.93796">
        <ele>383.9</ele>
        <time>1970-01-01T01:01:32.000Z</time>
      </trkpt>
      <trkpt lat="41.328543" lon="1.937892">
        <ele>383.9</ele>
        <time>1970-01-01T01:01:33.000Z</time>
      </trkpt>
      <trkpt lat="41.328543" lon="1.937892">
        <ele>383.9</ele>
        <time>1970-01-01T01:01:34.000Z</time>
      </trkpt>
      <trkpt lat="41.328602" lon="1.937802">
        <ele>383.9</ele>
        <time>1970-01-01T01:01:35.000Z</time>
      </trkpt>
      <trkpt lat="41.328602" lon="1.937802">
        <ele>383.9</ele>
        <time>1970-01-01T01:01:36.000Z</time>
      </trkpt>
      <trkpt lat="41.328635" lon="1.937677">
        <ele>383.9</ele>
        <time>1970-01-01T01:01:37.000Z</time>
      </trkpt>
      <trkpt lat="41.328635" lon="1.937677">
        <ele>383.9</ele>
        <time>1970-01-01T01:01:38.000Z</time>
      </trkpt>
      <trkpt lat="41.328622" lon="1.937535">
        <ele>382.9</ele>
        <time>1970-01-01T01:01:39.000Z</time>
      </trkpt>
      <trkpt lat="41.328622" lon="1.937535">
        <ele>382.9</ele>
        <time>1970-01-01T01:01:40.000Z</time>
      </trkpt>
      <trkpt lat="41.328558" lon="1.937403">
        <ele>382.9</ele>
        <time>1970-01-01T01:01:41.000Z</time>
      </trkpt>
      <trkpt lat="41.328525" lon="1.937332">
        <ele>382.9</ele>
        <time>1970-01-01T01:01:42.000Z</time>
      </trkpt>
      <trkpt lat="41.328525" lon="1.937332">
        <ele>381.9</ele>
        <time>1970-01-01T01:01:43.000Z</time>
      </trkpt>
      <trkpt lat="41.328478" lon="1.93717">
        <ele>381.9</ele>
        <time>1970-01-01T01:01:44.000Z</time>
      </trkpt>
      <trkpt lat="41.328465" lon="1.937083">
        <ele>381.9</ele>
        <time>1970-01-01T01:01:45.000Z</time>
      </trkpt>
      <trkpt lat="41.328465" lon="1.937083">
        <ele>381.9</ele>
        <time>1970-01-01T01:01:46.000Z</time>
      </trkpt>
      <trkpt lat="41.328453" lon="1.936903">
        <ele>380.9</ele>
        <time>1970-01-01T01:01:47.000Z</time>
      </trkpt>
      <trkpt lat="41.328453" lon="1.936903">
        <ele>380.9</ele>
        <time>1970-01-01T01:01:48.000Z</time>
      </trkpt>
      <trkpt lat="41.328453" lon="1.93673">
        <ele>380.9</ele>
        <time>1970-01-01T01:01:49.000Z</time>
      </trkpt>
      <trkpt lat="41.328453" lon="1.93673">
        <ele>380.9</ele>
        <time>1970-01-01T01:01:50.000Z</time>
      </trkpt>
      <trkpt lat="41.328455" lon="1.936557">
        <ele>379.9</ele>
        <time>1970-01-01T01:01:51.000Z</time>
      </trkpt>
      <trkpt lat="41.328455" lon="1.936557">
        <ele>379.9</ele>
        <time>1970-01-01T01:01:52.000Z</time>
      </trkpt>
      <trkpt lat="41.328455" lon="1.936392">
        <ele>379.9</ele>
        <time>1970-01-01T01:01:53.000Z</time>
      </trkpt>
      <trkpt lat="41.328455" lon="1.936313">
        <ele>379.9</ele>
        <time>1970-01-01T01:01:54.000Z</time>
      </trkpt>
      <trkpt lat="41.328455" lon="1.936313">
        <ele>378.9</ele>
        <time>1970-01-01T01:01:55.000Z</time>
      </trkpt>
      <trkpt lat="41.328465" lon="1.936162">
        <ele>378.9</ele>
        <time>1970-01-01T01:01:56.000Z</time>
      </trkpt>
      <trkpt lat="41.328465" lon="1.936162">
        <ele>378.9</ele>
        <time>1970-01-01T01:01:57.000Z</time>
      </trkpt>
      <trkpt lat="41.328468" lon="1.936012">
        <ele>378.9</ele>
        <time>1970-01-01T01:01:58.000Z</time>
      </trkpt>
      <trkpt lat="41.328468" lon="1.936012">
        <ele>378.9</ele>
        <time>1970-01-01T01:01:59.000Z</time>
      </trkpt>
      <trkpt lat="41.328483" lon="1.935852">
        <ele>378.9</ele>
        <time>1970-01-01T01:02:00.000Z</time>
      </trkpt>
      <trkpt lat="41.328483" lon="1.935852">
        <ele>378.9</ele>
        <time>1970-01-01T01:02:01.000Z</time>
      </trkpt>
      <trkpt lat="41.328493" lon="1.935682">
        <ele>378.9</ele>
        <time>1970-01-01T01:02:02.000Z</time>
      </trkpt>
      <trkpt lat="41.328497" lon="1.935598">
        <ele>377.9</ele>
        <time>1970-01-01T01:02:03.000Z</time>
      </trkpt>
      <trkpt lat="41.328497" lon="1.935598">
        <ele>377.9</ele>
        <time>1970-01-01T01:02:04.000Z</time>
      </trkpt>
      <trkpt lat="41.328492" lon="1.935442">
        <ele>377.9</ele>
        <time>1970-01-01T01:02:05.000Z</time>
      </trkpt>
      <trkpt lat="41.328492" lon="1.935363">
        <ele>377.9</ele>
        <time>1970-01-01T01:02:06.000Z</time>
      </trkpt>
      <trkpt lat="41.328497" lon="1.935283">
        <ele>376.9</ele>
        <time>1970-01-01T01:02:07.000Z</time>
      </trkpt>
      <trkpt lat="41.328497" lon="1.935283">
        <ele>376.9</ele>
        <time>1970-01-01T01:02:08.000Z</time>
      </trkpt>
      <trkpt lat="41.328503" lon="1.935128">
        <ele>376.9</ele>
        <time>1970-01-01T01:02:09.000Z</time>
      </trkpt>
      <trkpt lat="41.328503" lon="1.935128">
        <ele>376.9</ele>
        <time>1970-01-01T01:02:10.000Z</time>
      </trkpt>
      <trkpt lat="41.328507" lon="1.934975">
        <ele>376.9</ele>
        <time>1970-01-01T01:02:11.000Z</time>
      </trkpt>
      <trkpt lat="41.328507" lon="1.934975">
        <ele>376.9</ele>
        <time>1970-01-01T01:02:12.000Z</time>
      </trkpt>
      <trkpt lat="41.328503" lon="1.93483">
        <ele>376.9</ele>
        <time>1970-01-01T01:02:13.000Z</time>
      </trkpt>
      <trkpt lat="41.328503" lon="1.93483">
        <ele>376.9</ele>
        <time>1970-01-01T01:02:14.000Z</time>
      </trkpt>
      <trkpt lat="41.3285" lon="1.934685">
        <ele>376.9</ele>
        <time>1970-01-01T01:02:15.000Z</time>
      </trkpt>
      <trkpt lat="41.3285" lon="1.934685">
        <ele>376.9</ele>
        <time>1970-01-01T01:02:16.000Z</time>
      </trkpt>
      <trkpt lat="41.328503" lon="1.934528">
        <ele>375.9</ele>
        <time>1970-01-01T01:02:17.000Z</time>
      </trkpt>
      <trkpt lat="41.328503" lon="1.934528">
        <ele>375.9</ele>
        <time>1970-01-01T01:02:18.000Z</time>
      </trkpt>
      <trkpt lat="41.328518" lon="1.934373">
        <ele>375.9</ele>
        <time>1970-01-01T01:02:19.000Z</time>
      </trkpt>
      <trkpt lat="41.328518" lon="1.934373">
        <ele>375.9</ele>
        <time>1970-01-01T01:02:20.000Z</time>
      </trkpt>
      <trkpt lat="41.32856" lon="1.93423">
        <ele>375.9</ele>
        <time>1970-01-01T01:02:21.000Z</time>
      </trkpt>
      <trkpt lat="41.32856" lon="1.93423">
        <ele>375.9</ele>
        <time>1970-01-01T01:02:22.000Z</time>
      </trkpt>
      <trkpt lat="41.328592" lon="1.934098">
        <ele>375.9</ele>
        <time>1970-01-01T01:02:23.000Z</time>
      </trkpt>
      <trkpt lat="41.328592" lon="1.934098">
        <ele>375.9</ele>
        <time>1970-01-01T01:02:24.000Z</time>
      </trkpt>
      <trkpt lat="41.328605" lon="1.933958">
        <ele>375.9</ele>
        <time>1970-01-01T01:02:25.000Z</time>
      </trkpt>
      <trkpt lat="41.328605" lon="1.933958">
        <ele>375.9</ele>
        <time>1970-01-01T01:02:26.000Z</time>
      </trkpt>
      <trkpt lat="41.328647" lon="1.933828">
        <ele>375.9</ele>
        <time>1970-01-01T01:02:27.000Z</time>
      </trkpt>
      <trkpt lat="41.328647" lon="1.933828">
        <ele>375.9</ele>
        <time>1970-01-01T01:02:28.000Z</time>
      </trkpt>
      <trkpt lat="41.328685" lon="1.933705">
        <ele>375.9</ele>
        <time>1970-01-01T01:02:29.000Z</time>
      </trkpt>
      <trkpt lat="41.328693" lon="1.933657">
        <ele>374.9</ele>
        <time>1970-01-01T01:02:30.000Z</time>
      </trkpt>
      <trkpt lat="41.328693" lon="1.933657">
        <ele>374.9</ele>
        <time>1970-01-01T01:02:31.000Z</time>
      </trkpt>
      <trkpt lat="41.328725" lon="1.93354">
        <ele>374.9</ele>
        <time>1970-01-01T01:02:32.000Z</time>
      </trkpt>
      <trkpt lat="41.328747" lon="1.933483">
        <ele>374.9</ele>
        <time>1970-01-01T01:02:33.000Z</time>
      </trkpt>
      <trkpt lat="41.328747" lon="1.933483">
        <ele>374.9</ele>
        <time>1970-01-01T01:02:34.000Z</time>
      </trkpt>
      <trkpt lat="41.328788" lon="1.93339">
        <ele>374.9</ele>
        <time>1970-01-01T01:02:35.000Z</time>
      </trkpt>
      <trkpt lat="41.328813" lon="1.93334">
        <ele>374.9</ele>
        <time>1970-01-01T01:02:36.000Z</time>
      </trkpt>
      <trkpt lat="41.328813" lon="1.93334">
        <ele>374.9</ele>
        <time>1970-01-01T01:02:37.000Z</time>
      </trkpt>
      <trkpt lat="41.328863" lon="1.933238">
        <ele>374.9</ele>
        <time>1970-01-01T01:02:38.000Z</time>
      </trkpt>
      <trkpt lat="41.328863" lon="1.933238">
        <ele>375.9</ele>
        <time>1970-01-01T01:02:39.000Z</time>
      </trkpt>
      <trkpt lat="41.328912" lon="1.933147">
        <ele>375.9</ele>
        <time>1970-01-01T01:02:40.000Z</time>
      </trkpt>
      <trkpt lat="41.328912" lon="1.933147">
        <ele>375.9</ele>
        <time>1970-01-01T01:02:41.000Z</time>
      </trkpt>
      <trkpt lat="41.328955" lon="1.933055">
        <ele>375.9</ele>
        <time>1970-01-01T01:02:42.000Z</time>
      </trkpt>
      <trkpt lat="41.328955" lon="1.933055">
        <ele>376.9</ele>
        <time>1970-01-01T01:02:43.000Z</time>
      </trkpt>
      <trkpt lat="41.328997" lon="1.932977">
        <ele>376.9</ele>
        <time>1970-01-01T01:02:44.000Z</time>
      </trkpt>
      <trkpt lat="41.32901" lon="1.93294">
        <ele>376.9</ele>
        <time>1970-01-01T01:02:45.000Z</time>
      </trkpt>
      <trkpt lat="41.32901" lon="1.93294">
        <ele>376.9</ele>
        <time>1970-01-01T01:02:46.000Z</time>
      </trkpt>
      <trkpt lat="41.329058" lon="1.932853">
        <ele>377.9</ele>
        <time>1970-01-01T01:02:47.000Z</time>
      </trkpt>
      <trkpt lat="41.329058" lon="1.932853">
        <ele>377.9</ele>
        <time>1970-01-01T01:02:48.000Z</time>
      </trkpt>
      <trkpt lat="41.329103" lon="1.932767">
        <ele>377.9</ele>
        <time>1970-01-01T01:02:49.000Z</time>
      </trkpt>
      <trkpt lat="41.329103" lon="1.932767">
        <ele>377.9</ele>
        <time>1970-01-01T01:02:50.000Z</time>
      </trkpt>
      <trkpt lat="41.329148" lon="1.932663">
        <ele>377.9</ele>
        <time>1970-01-01T01:02:51.000Z</time>
      </trkpt>
      <trkpt lat="41.329148" lon="1.932663">
        <ele>378.9</ele>
        <time>1970-01-01T01:02:52.000Z</time>
      </trkpt>
      <trkpt lat="41.329193" lon="1.93256">
        <ele>378.9</ele>
        <time>1970-01-01T01:02:53.000Z</time>
      </trkpt>
      <trkpt lat="41.329193" lon="1.93256">
        <ele>378.9</ele>
        <time>1970-01-01T01:02:54.000Z</time>
      </trkpt>
      <trkpt lat="41.329243" lon="1.932453">
        <ele>378.9</ele>
        <time>1970-01-01T01:02:55.000Z</time>
      </trkpt>
      <trkpt lat="41.329243" lon="1.932453">
        <ele>378.9</ele>
        <time>1970-01-01T01:02:56.000Z</time>
      </trkpt>
      <trkpt lat="41.329298" lon="1.932345">
        <ele>378.9</ele>
        <time>1970-01-01T01:02:57.000Z</time>
      </trkpt>
      <trkpt lat="41.329298" lon="1.932345">
        <ele>378.9</ele>
        <time>1970-01-01T01:02:58.000Z</time>
      </trkpt>
      <trkpt lat="41.329355" lon="1.93224">
        <ele>378.9</ele>
        <time>1970-01-01T01:02:59.000Z</time>
      </trkpt>
      <trkpt lat="41.329355" lon="1.93224">
        <ele>378.9</ele>
        <time>1970-01-01T01:03:00.000Z</time>
      </trkpt>
      <trkpt lat="41.329398" lon="1.932128">
        <ele>378.9</ele>
        <time>1970-01-01T01:03:01.000Z</time>
      </trkpt>
      <trkpt lat="41.329398" lon="1.932128">
        <ele>378.9</ele>
        <time>1970-01-01T01:03:02.000Z</time>
      </trkpt>
      <trkpt lat="41.329457" lon="1.932013">
        <ele>378.9</ele>
        <time>1970-01-01T01:03:03.000Z</time>
      </trkpt>
      <trkpt lat="41.329483" lon="1.931957">
        <ele>377.9</ele>
        <time>1970-01-01T01:03:04.000Z</time>
      </trkpt>
      <trkpt lat="41.329483" lon="1.931957">
        <ele>377.9</ele>
        <time>1970-01-01T01:03:05.000Z</time>
      </trkpt>
      <trkpt lat="41.329537" lon="1.931843">
        <ele>377.9</ele>
        <time>1970-01-01T01:03:06.000Z</time>
      </trkpt>
      <trkpt lat="41.329537" lon="1.931843">
        <ele>377.9</ele>
        <time>1970-01-01T01:03:07.000Z</time>
      </trkpt>
      <trkpt lat="41.329583" lon="1.93174">
        <ele>377.9</ele>
        <time>1970-01-01T01:03:08.000Z</time>
      </trkpt>
      <trkpt lat="41.329603" lon="1.931693">
        <ele>377.9</ele>
        <time>1970-01-01T01:03:09.000Z</time>
      </trkpt>
      <trkpt lat="41.329603" lon="1.931693">
        <ele>377.9</ele>
        <time>1970-01-01T01:03:10.000Z</time>
      </trkpt>
      <trkpt lat="41.329645" lon="1.931607">
        <ele>377.9</ele>
        <time>1970-01-01T01:03:11.000Z</time>
      </trkpt>
      <trkpt lat="41.329663" lon="1.931568">
        <ele>377.9</ele>
        <time>1970-01-01T01:03:12.000Z</time>
      </trkpt>
      <trkpt lat="41.329663" lon="1.931568">
        <ele>377.9</ele>
        <time>1970-01-01T01:03:13.000Z</time>
      </trkpt>
      <trkpt lat="41.329698" lon="1.9315">
        <ele>377.9</ele>
        <time>1970-01-01T01:03:14.000Z</time>
      </trkpt>
      <trkpt lat="41.329712" lon="1.931465">
        <ele>377.9</ele>
        <time>1970-01-01T01:03:15.000Z</time>
      </trkpt>
      <trkpt lat="41.329712" lon="1.931465">
        <ele>377.9</ele>
        <time>1970-01-01T01:03:16.000Z</time>
      </trkpt>
      <trkpt lat="41.329747" lon="1.931387">
        <ele>377.9</ele>
        <time>1970-01-01T01:03:17.000Z</time>
      </trkpt>
      <trkpt lat="41.329747" lon="1.931387">
        <ele>377.9</ele>
        <time>1970-01-01T01:03:18.000Z</time>
      </trkpt>
      <trkpt lat="41.329785" lon="1.931305">
        <ele>377.9</ele>
        <time>1970-01-01T01:03:19.000Z</time>
      </trkpt>
      <trkpt lat="41.329785" lon="1.931305">
        <ele>377.9</ele>
        <time>1970-01-01T01:03:20.000Z</time>
      </trkpt>
      <trkpt lat="41.329823" lon="1.931218">
        <ele>377.9</ele>
        <time>1970-01-01T01:03:21.000Z</time>
      </trkpt>
      <trkpt lat="41.329823" lon="1.931218">
        <ele>377.9</ele>
        <time>1970-01-01T01:03:22.000Z</time>
      </trkpt>
      <trkpt lat="41.329855" lon="1.931127">
        <ele>377.9</ele>
        <time>1970-01-01T01:03:23.000Z</time>
      </trkpt>
      <trkpt lat="41.32986" lon="1.931083">
        <ele>377.9</ele>
        <time>1970-01-01T01:03:24.000Z</time>
      </trkpt>
      <trkpt lat="41.32986" lon="1.931083">
        <ele>377.9</ele>
        <time>1970-01-01T01:03:25.000Z</time>
      </trkpt>
      <trkpt lat="41.329847" lon="1.931017">
        <ele>377.9</ele>
        <time>1970-01-01T01:03:26.000Z</time>
      </trkpt>
      <trkpt lat="41.329835" lon="1.930993">
        <ele>377.9</ele>
        <time>1970-01-01T01:03:27.000Z</time>
      </trkpt>
      <trkpt lat="41.329835" lon="1.930993">
        <ele>377.9</ele>
        <time>1970-01-01T01:03:28.000Z</time>
      </trkpt>
      <trkpt lat="41.329805" lon="1.930955">
        <ele>377.9</ele>
        <time>1970-01-01T01:03:29.000Z</time>
      </trkpt>
      <trkpt lat="41.329777" lon="1.930937">
        <ele>377.9</ele>
        <time>1970-01-01T01:03:30.000Z</time>
      </trkpt>
      <trkpt lat="41.329777" lon="1.930937">
        <ele>377.9</ele>
        <time>1970-01-01T01:03:31.000Z</time>
      </trkpt>
      <trkpt lat="41.329703" lon="1.930897">
        <ele>377.9</ele>
        <time>1970-01-01T01:03:32.000Z</time>
      </trkpt>
      <trkpt lat="41.329675" lon="1.93087">
        <ele>377.9</ele>
        <time>1970-01-01T01:03:33.000Z</time>
      </trkpt>
      <trkpt lat="41.329653" lon="1.930838">
        <ele>377.9</ele>
        <time>1970-01-01T01:03:34.000Z</time>
      </trkpt>
      <trkpt lat="41.329653" lon="1.930838">
        <ele>376.9</ele>
        <time>1970-01-01T01:03:35.000Z</time>
      </trkpt>
      <trkpt lat="41.329633" lon="1.930755">
        <ele>376.9</ele>
        <time>1970-01-01T01:03:36.000Z</time>
      </trkpt>
      <trkpt lat="41.329642" lon="1.930713">
        <ele>376.9</ele>
        <time>1970-01-01T01:03:37.000Z</time>
      </trkpt>
      <trkpt lat="41.329642" lon="1.930713">
        <ele>376.9</ele>
        <time>1970-01-01T01:03:38.000Z</time>
      </trkpt>
      <trkpt lat="41.329668" lon="1.93062">
        <ele>375.9</ele>
        <time>1970-01-01T01:03:39.000Z</time>
      </trkpt>
      <trkpt lat="41.329668" lon="1.93062">
        <ele>375.9</ele>
        <time>1970-01-01T01:03:40.000Z</time>
      </trkpt>
      <trkpt lat="41.329688" lon="1.930528">
        <ele>375.9</ele>
        <time>1970-01-01T01:03:41.000Z</time>
      </trkpt>
      <trkpt lat="41.329695" lon="1.930483">
        <ele>375.9</ele>
        <time>1970-01-01T01:03:42.000Z</time>
      </trkpt>
      <trkpt lat="41.329698" lon="1.930438">
        <ele>375.9</ele>
        <time>1970-01-01T01:03:43.000Z</time>
      </trkpt>
      <trkpt lat="41.329698" lon="1.930438">
        <ele>375.9</ele>
        <time>1970-01-01T01:03:44.000Z</time>
      </trkpt>
      <trkpt lat="41.329715" lon="1.930353">
        <ele>377.9</ele>
        <time>1970-01-01T01:03:45.000Z</time>
      </trkpt>
      <trkpt lat="41.329715" lon="1.930353">
        <ele>377.9</ele>
        <time>1970-01-01T01:03:46.000Z</time>
      </trkpt>
      <trkpt lat="41.329738" lon="1.930263">
        <ele>376.9</ele>
        <time>1970-01-01T01:03:47.000Z</time>
      </trkpt>
      <trkpt lat="41.329738" lon="1.930263">
        <ele>376.9</ele>
        <time>1970-01-01T01:03:48.000Z</time>
      </trkpt>
      <trkpt lat="41.329757" lon="1.930168">
        <ele>376.9</ele>
        <time>1970-01-01T01:03:49.000Z</time>
      </trkpt>
      <trkpt lat="41.329757" lon="1.930168">
        <ele>376.9</ele>
        <time>1970-01-01T01:03:50.000Z</time>
      </trkpt>
      <trkpt lat="41.329778" lon="1.930073">
        <ele>375.9</ele>
        <time>1970-01-01T01:03:51.000Z</time>
      </trkpt>
      <trkpt lat="41.329778" lon="1.930073">
        <ele>375.9</ele>
        <time>1970-01-01T01:03:52.000Z</time>
      </trkpt>
      <trkpt lat="41.329805" lon="1.92997">
        <ele>375.9</ele>
        <time>1970-01-01T01:03:53.000Z</time>
      </trkpt>
      <trkpt lat="41.329805" lon="1.92997">
        <ele>375.9</ele>
        <time>1970-01-01T01:03:54.000Z</time>
      </trkpt>
      <trkpt lat="41.329833" lon="1.929867">
        <ele>375.9</ele>
        <time>1970-01-01T01:03:55.000Z</time>
      </trkpt>
      <trkpt lat="41.329833" lon="1.929867">
        <ele>375.9</ele>
        <time>1970-01-01T01:03:56.000Z</time>
      </trkpt>
      <trkpt lat="41.329855" lon="1.929763">
        <ele>375.9</ele>
        <time>1970-01-01T01:03:57.000Z</time>
      </trkpt>
      <trkpt lat="41.329855" lon="1.929763">
        <ele>375.9</ele>
        <time>1970-01-01T01:03:58.000Z</time>
      </trkpt>
      <trkpt lat="41.329878" lon="1.929658">
        <ele>375.9</ele>
        <time>1970-01-01T01:03:59.000Z</time>
      </trkpt>
      <trkpt lat="41.329878" lon="1.929658">
        <ele>375.9</ele>
        <time>1970-01-01T01:04:00.000Z</time>
      </trkpt>
      <trkpt lat="41.329912" lon="1.929548">
        <ele>375.9</ele>
        <time>1970-01-01T01:04:01.000Z</time>
      </trkpt>
      <trkpt lat="41.329912" lon="1.929548">
        <ele>375.9</ele>
        <time>1970-01-01T01:04:02.000Z</time>
      </trkpt>
      <trkpt lat="41.32994" lon="1.929435">
        <ele>375.9</ele>
        <time>1970-01-01T01:04:03.000Z</time>
      </trkpt>
      <trkpt lat="41.32994" lon="1.929435">
        <ele>375.9</ele>
        <time>1970-01-01T01:04:04.000Z</time>
      </trkpt>
      <trkpt lat="41.329967" lon="1.929322">
        <ele>374.9</ele>
        <time>1970-01-01T01:04:05.000Z</time>
      </trkpt>
      <trkpt lat="41.329978" lon="1.929265">
        <ele>374.9</ele>
        <time>1970-01-01T01:04:06.000Z</time>
      </trkpt>
      <trkpt lat="41.329978" lon="1.929265">
        <ele>374.9</ele>
        <time>1970-01-01T01:04:07.000Z</time>
      </trkpt>
      <trkpt lat="41.330012" lon="1.929162">
        <ele>374.9</ele>
        <time>1970-01-01T01:04:08.000Z</time>
      </trkpt>
      <trkpt lat="41.330022" lon="1.929113">
        <ele>374.9</ele>
        <time>1970-01-01T01:04:09.000Z</time>
      </trkpt>
      <trkpt lat="41.330022" lon="1.929113">
        <ele>374.9</ele>
        <time>1970-01-01T01:04:10.000Z</time>
      </trkpt>
      <trkpt lat="41.330043" lon="1.929017">
        <ele>374.9</ele>
        <time>1970-01-01T01:04:11.000Z</time>
      </trkpt>
      <trkpt lat="41.330055" lon="1.928967">
        <ele>374.9</ele>
        <time>1970-01-01T01:04:12.000Z</time>
      </trkpt>
      <trkpt lat="41.330055" lon="1.928967">
        <ele>374.9</ele>
        <time>1970-01-01T01:04:13.000Z</time>
      </trkpt>
      <trkpt lat="41.330085" lon="1.928862">
        <ele>374.9</ele>
        <time>1970-01-01T01:04:14.000Z</time>
      </trkpt>
      <trkpt lat="41.330085" lon="1.928862">
        <ele>374.9</ele>
        <time>1970-01-01T01:04:15.000Z</time>
      </trkpt>
      <trkpt lat="41.330113" lon="1.928753">
        <ele>373.9</ele>
        <time>1970-01-01T01:04:16.000Z</time>
      </trkpt>
      <trkpt lat="41.330113" lon="1.928753">
        <ele>373.9</ele>
        <time>1970-01-01T01:04:17.000Z</time>
      </trkpt>
      <trkpt lat="41.330143" lon="1.928645">
        <ele>373.9</ele>
        <time>1970-01-01T01:04:18.000Z</time>
      </trkpt>
      <trkpt lat="41.330143" lon="1.928645">
        <ele>373.9</ele>
        <time>1970-01-01T01:04:19.000Z</time>
      </trkpt>
      <trkpt lat="41.330178" lon="1.928533">
        <ele>373.9</ele>
        <time>1970-01-01T01:04:20.000Z</time>
      </trkpt>
      <trkpt lat="41.330195" lon="1.928478">
        <ele>373.9</ele>
        <time>1970-01-01T01:04:21.000Z</time>
      </trkpt>
      <trkpt lat="41.330195" lon="1.928478">
        <ele>373.9</ele>
        <time>1970-01-01T01:04:22.000Z</time>
      </trkpt>
      <trkpt lat="41.330225" lon="1.928368">
        <ele>373.9</ele>
        <time>1970-01-01T01:04:23.000Z</time>
      </trkpt>
      <trkpt lat="41.330235" lon="1.928317">
        <ele>373.9</ele>
        <time>1970-01-01T01:04:24.000Z</time>
      </trkpt>
      <trkpt lat="41.330235" lon="1.928317">
        <ele>373.9</ele>
        <time>1970-01-01T01:04:25.000Z</time>
      </trkpt>
      <trkpt lat="41.330258" lon="1.928217">
        <ele>373.9</ele>
        <time>1970-01-01T01:04:26.000Z</time>
      </trkpt>
      <trkpt lat="41.330258" lon="1.928217">
        <ele>373.9</ele>
        <time>1970-01-01T01:04:27.000Z</time>
      </trkpt>
      <trkpt lat="41.33028" lon="1.928123">
        <ele>373.9</ele>
        <time>1970-01-01T01:04:28.000Z</time>
      </trkpt>
      <trkpt lat="41.330287" lon="1.928077">
        <ele>373.9</ele>
        <time>1970-01-01T01:04:29.000Z</time>
      </trkpt>
      <trkpt lat="41.330287" lon="1.928077">
        <ele>373.9</ele>
        <time>1970-01-01T01:04:30.000Z</time>
      </trkpt>
      <trkpt lat="41.330307" lon="1.927985">
        <ele>373.9</ele>
        <time>1970-01-01T01:04:31.000Z</time>
      </trkpt>
      <trkpt lat="41.330307" lon="1.927985">
        <ele>373.9</ele>
        <time>1970-01-01T01:04:32.000Z</time>
      </trkpt>
      <trkpt lat="41.330338" lon="1.927887">
        <ele>373.9</ele>
        <time>1970-01-01T01:04:33.000Z</time>
      </trkpt>
      <trkpt lat="41.330338" lon="1.927887">
        <ele>373.9</ele>
        <time>1970-01-01T01:04:34.000Z</time>
      </trkpt>
      <trkpt lat="41.330367" lon="1.92778">
        <ele>373.9</ele>
        <time>1970-01-01T01:04:35.000Z</time>
      </trkpt>
      <trkpt lat="41.330367" lon="1.92778">
        <ele>373.9</ele>
        <time>1970-01-01T01:04:36.000Z</time>
      </trkpt>
      <trkpt lat="41.330392" lon="1.927677">
        <ele>373.9</ele>
        <time>1970-01-01T01:04:37.000Z</time>
      </trkpt>
      <trkpt lat="41.330392" lon="1.927677">
        <ele>373.9</ele>
        <time>1970-01-01T01:04:38.000Z</time>
      </trkpt>
      <trkpt lat="41.330423" lon="1.927573">
        <ele>373.9</ele>
        <time>1970-01-01T01:04:39.000Z</time>
      </trkpt>
      <trkpt lat="41.330423" lon="1.927573">
        <ele>373.9</ele>
        <time>1970-01-01T01:04:40.000Z</time>
      </trkpt>
      <trkpt lat="41.330457" lon="1.92746">
        <ele>373.9</ele>
        <time>1970-01-01T01:04:41.000Z</time>
      </trkpt>
      <trkpt lat="41.330473" lon="1.927402">
        <ele>373.9</ele>
        <time>1970-01-01T01:04:42.000Z</time>
      </trkpt>
      <trkpt lat="41.330473" lon="1.927402">
        <ele>373.9</ele>
        <time>1970-01-01T01:04:43.000Z</time>
      </trkpt>
      <trkpt lat="41.330505" lon="1.92728">
        <ele>373.9</ele>
        <time>1970-01-01T01:04:44.000Z</time>
      </trkpt>
      <trkpt lat="41.33052" lon="1.92722">
        <ele>373.9</ele>
        <time>1970-01-01T01:04:45.000Z</time>
      </trkpt>
      <trkpt lat="41.33052" lon="1.92722">
        <ele>373.9</ele>
        <time>1970-01-01T01:04:46.000Z</time>
      </trkpt>
      <trkpt lat="41.330558" lon="1.92709">
        <ele>373.9</ele>
        <time>1970-01-01T01:04:47.000Z</time>
      </trkpt>
      <trkpt lat="41.330558" lon="1.92709">
        <ele>373.9</ele>
        <time>1970-01-01T01:04:48.000Z</time>
      </trkpt>
      <trkpt lat="41.330595" lon="1.926957">
        <ele>373.9</ele>
        <time>1970-01-01T01:04:49.000Z</time>
      </trkpt>
      <trkpt lat="41.330595" lon="1.926957">
        <ele>373.9</ele>
        <time>1970-01-01T01:04:50.000Z</time>
      </trkpt>
      <trkpt lat="41.33063" lon="1.92682">
        <ele>373.9</ele>
        <time>1970-01-01T01:04:51.000Z</time>
      </trkpt>
      <trkpt lat="41.33063" lon="1.92682">
        <ele>372.9</ele>
        <time>1970-01-01T01:04:52.000Z</time>
      </trkpt>
      <trkpt lat="41.330665" lon="1.926683">
        <ele>372.9</ele>
        <time>1970-01-01T01:04:53.000Z</time>
      </trkpt>
      <trkpt lat="41.330665" lon="1.926683">
        <ele>372.9</ele>
        <time>1970-01-01T01:04:54.000Z</time>
      </trkpt>
      <trkpt lat="41.330702" lon="1.926552">
        <ele>372.9</ele>
        <time>1970-01-01T01:04:55.000Z</time>
      </trkpt>
      <trkpt lat="41.330702" lon="1.926552">
        <ele>371.9</ele>
        <time>1970-01-01T01:04:56.000Z</time>
      </trkpt>
      <trkpt lat="41.330735" lon="1.926442">
        <ele>371.9</ele>
        <time>1970-01-01T01:04:57.000Z</time>
      </trkpt>
      <trkpt lat="41.330735" lon="1.926442">
        <ele>371.9</ele>
        <time>1970-01-01T01:04:58.000Z</time>
      </trkpt>
      <trkpt lat="41.330767" lon="1.92632">
        <ele>371.9</ele>
        <time>1970-01-01T01:04:59.000Z</time>
      </trkpt>
      <trkpt lat="41.330767" lon="1.92632">
        <ele>370.9</ele>
        <time>1970-01-01T01:05:00.000Z</time>
      </trkpt>
      <trkpt lat="41.330803" lon="1.92619">
        <ele>370.9</ele>
        <time>1970-01-01T01:05:01.000Z</time>
      </trkpt>
      <trkpt lat="41.330818" lon="1.926125">
        <ele>370.9</ele>
        <time>1970-01-01T01:05:02.000Z</time>
      </trkpt>
      <trkpt lat="41.330818" lon="1.926125">
        <ele>370.9</ele>
        <time>1970-01-01T01:05:03.000Z</time>
      </trkpt>
      <trkpt lat="41.330857" lon="1.92599">
        <ele>369.9</ele>
        <time>1970-01-01T01:05:04.000Z</time>
      </trkpt>
      <trkpt lat="41.330857" lon="1.92599">
        <ele>369.9</ele>
        <time>1970-01-01T01:05:05.000Z</time>
      </trkpt>
      <trkpt lat="41.330897" lon="1.925852">
        <ele>369.9</ele>
        <time>1970-01-01T01:05:06.000Z</time>
      </trkpt>
      <trkpt lat="41.330897" lon="1.925852">
        <ele>369.9</ele>
        <time>1970-01-01T01:05:07.000Z</time>
      </trkpt>
      <trkpt lat="41.330937" lon="1.925703">
        <ele>368.9</ele>
        <time>1970-01-01T01:05:08.000Z</time>
      </trkpt>
      <trkpt lat="41.330937" lon="1.925703">
        <ele>368.9</ele>
        <time>1970-01-01T01:05:09.000Z</time>
      </trkpt>
      <trkpt lat="41.330977" lon="1.925557">
        <ele>368.9</ele>
        <time>1970-01-01T01:05:10.000Z</time>
      </trkpt>
      <trkpt lat="41.330977" lon="1.925557">
        <ele>368.9</ele>
        <time>1970-01-01T01:05:11.000Z</time>
      </trkpt>
      <trkpt lat="41.331013" lon="1.925405">
        <ele>367.9</ele>
        <time>1970-01-01T01:05:12.000Z</time>
      </trkpt>
      <trkpt lat="41.331013" lon="1.925405">
        <ele>367.9</ele>
        <time>1970-01-01T01:05:13.000Z</time>
      </trkpt>
      <trkpt lat="41.331053" lon="1.925253">
        <ele>367.9</ele>
        <time>1970-01-01T01:05:14.000Z</time>
      </trkpt>
      <trkpt lat="41.331053" lon="1.925253">
        <ele>367.9</ele>
        <time>1970-01-01T01:05:15.000Z</time>
      </trkpt>
      <trkpt lat="41.331097" lon="1.925097">
        <ele>367.9</ele>
        <time>1970-01-01T01:05:16.000Z</time>
      </trkpt>
      <trkpt lat="41.331097" lon="1.925097">
        <ele>367.9</ele>
        <time>1970-01-01T01:05:17.000Z</time>
      </trkpt>
      <trkpt lat="41.33114" lon="1.924938">
        <ele>366.9</ele>
        <time>1970-01-01T01:05:18.000Z</time>
      </trkpt>
      <trkpt lat="41.331165" lon="1.92486">
        <ele>366.9</ele>
        <time>1970-01-01T01:05:19.000Z</time>
      </trkpt>
      <trkpt lat="41.331165" lon="1.92486">
        <ele>366.9</ele>
        <time>1970-01-01T01:05:20.000Z</time>
      </trkpt>
      <trkpt lat="41.331215" lon="1.924697">
        <ele>366.9</ele>
        <time>1970-01-01T01:05:21.000Z</time>
      </trkpt>
      <trkpt lat="41.331215" lon="1.924697">
        <ele>366.9</ele>
        <time>1970-01-01T01:05:22.000Z</time>
      </trkpt>
      <trkpt lat="41.33126" lon="1.924535">
        <ele>366.9</ele>
        <time>1970-01-01T01:05:23.000Z</time>
      </trkpt>
      <trkpt lat="41.33126" lon="1.924535">
        <ele>365.9</ele>
        <time>1970-01-01T01:05:24.000Z</time>
      </trkpt>
      <trkpt lat="41.331298" lon="1.92438">
        <ele>365.9</ele>
        <time>1970-01-01T01:05:25.000Z</time>
      </trkpt>
      <trkpt lat="41.331298" lon="1.92438">
        <ele>364.9</ele>
        <time>1970-01-01T01:05:26.000Z</time>
      </trkpt>
      <trkpt lat="41.331342" lon="1.924232">
        <ele>364.9</ele>
        <time>1970-01-01T01:05:27.000Z</time>
      </trkpt>
      <trkpt lat="41.33136" lon="1.924158">
        <ele>364.9</ele>
        <time>1970-01-01T01:05:28.000Z</time>
      </trkpt>
      <trkpt lat="41.33136" lon="1.924158">
        <ele>364.9</ele>
        <time>1970-01-01T01:05:29.000Z</time>
      </trkpt>
      <trkpt lat="41.3314" lon="1.924013">
        <ele>363.9</ele>
        <time>1970-01-01T01:05:30.000Z</time>
      </trkpt>
      <trkpt lat="41.3314" lon="1.924013">
        <ele>363.9</ele>
        <time>1970-01-01T01:05:31.000Z</time>
      </trkpt>
      <trkpt lat="41.33144" lon="1.923865">
        <ele>363.9</ele>
        <time>1970-01-01T01:05:32.000Z</time>
      </trkpt>
      <trkpt lat="41.33144" lon="1.923865">
        <ele>363.9</ele>
        <time>1970-01-01T01:05:33.000Z</time>
      </trkpt>
      <trkpt lat="41.331478" lon="1.923722">
        <ele>362.9</ele>
        <time>1970-01-01T01:05:34.000Z</time>
      </trkpt>
      <trkpt lat="41.331478" lon="1.923722">
        <ele>362.9</ele>
        <time>1970-01-01T01:05:35.000Z</time>
      </trkpt>
      <trkpt lat="41.331517" lon="1.923575">
        <ele>362.9</ele>
        <time>1970-01-01T01:05:36.000Z</time>
      </trkpt>
      <trkpt lat="41.331517" lon="1.923575">
        <ele>362.9</ele>
        <time>1970-01-01T01:05:37.000Z</time>
      </trkpt>
      <trkpt lat="41.331552" lon="1.923433">
        <ele>362.9</ele>
        <time>1970-01-01T01:05:38.000Z</time>
      </trkpt>
      <trkpt lat="41.33157" lon="1.923367">
        <ele>362.9</ele>
        <time>1970-01-01T01:05:39.000Z</time>
      </trkpt>
      <trkpt lat="41.33157" lon="1.923367">
        <ele>362.9</ele>
        <time>1970-01-01T01:05:40.000Z</time>
      </trkpt>
      <trkpt lat="41.331595" lon="1.923247">
        <ele>362.9</ele>
        <time>1970-01-01T01:05:41.000Z</time>
      </trkpt>
      <trkpt lat="41.331608" lon="1.92319">
        <ele>361.9</ele>
        <time>1970-01-01T01:05:42.000Z</time>
      </trkpt>
      <trkpt lat="41.331617" lon="1.923142">
        <ele>361.9</ele>
        <time>1970-01-01T01:05:43.000Z</time>
      </trkpt>
      <trkpt lat="41.331617" lon="1.923142">
        <ele>361.9</ele>
        <time>1970-01-01T01:05:44.000Z</time>
      </trkpt>
      <trkpt lat="41.331647" lon="1.92308">
        <ele>361.9</ele>
        <time>1970-01-01T01:05:45.000Z</time>
      </trkpt>
      <trkpt lat="41.331647" lon="1.92308">
        <ele>361.9</ele>
        <time>1970-01-01T01:05:46.000Z</time>
      </trkpt>
      <trkpt lat="41.331712" lon="1.923052">
        <ele>361.9</ele>
        <time>1970-01-01T01:05:47.000Z</time>
      </trkpt>
      <trkpt lat="41.331712" lon="1.923052">
        <ele>361.9</ele>
        <time>1970-01-01T01:05:48.000Z</time>
      </trkpt>
      <trkpt lat="41.331777" lon="1.923067">
        <ele>361.9</ele>
        <time>1970-01-01T01:05:49.000Z</time>
      </trkpt>
      <trkpt lat="41.331777" lon="1.923067">
        <ele>361.9</ele>
        <time>1970-01-01T01:05:50.000Z</time>
      </trkpt>
      <trkpt lat="41.331827" lon="1.923095">
        <ele>361.9</ele>
        <time>1970-01-01T01:05:51.000Z</time>
      </trkpt>
      <trkpt lat="41.331827" lon="1.923095">
        <ele>361.9</ele>
        <time>1970-01-01T01:05:52.000Z</time>
      </trkpt>
      <trkpt lat="41.331875" lon="1.923117">
        <ele>361.9</ele>
        <time>1970-01-01T01:05:53.000Z</time>
      </trkpt>
      <trkpt lat="41.331875" lon="1.923117">
        <ele>361.9</ele>
        <time>1970-01-01T01:05:54.000Z</time>
      </trkpt>
      <trkpt lat="41.331923" lon="1.92314">
        <ele>361.9</ele>
        <time>1970-01-01T01:05:55.000Z</time>
      </trkpt>
      <trkpt lat="41.331952" lon="1.923148">
        <ele>361.9</ele>
        <time>1970-01-01T01:05:56.000Z</time>
      </trkpt>
      <trkpt lat="41.331985" lon="1.92316">
        <ele>361.9</ele>
        <time>1970-01-01T01:05:57.000Z</time>
      </trkpt>
      <trkpt lat="41.331985" lon="1.92316">
        <ele>361.9</ele>
        <time>1970-01-01T01:05:58.000Z</time>
      </trkpt>
      <trkpt lat="41.332045" lon="1.92318">
        <ele>361.9</ele>
        <time>1970-01-01T01:05:59.000Z</time>
      </trkpt>
      <trkpt lat="41.332045" lon="1.92318">
        <ele>361.9</ele>
        <time>1970-01-01T01:06:00.000Z</time>
      </trkpt>
      <trkpt lat="41.332107" lon="1.923202">
        <ele>361.9</ele>
        <time>1970-01-01T01:06:01.000Z</time>
      </trkpt>
      <trkpt lat="41.332107" lon="1.923202">
        <ele>361.9</ele>
        <time>1970-01-01T01:06:02.000Z</time>
      </trkpt>
      <trkpt lat="41.332165" lon="1.923227">
        <ele>362.9</ele>
        <time>1970-01-01T01:06:03.000Z</time>
      </trkpt>
      <trkpt lat="41.332165" lon="1.923227">
        <ele>362.9</ele>
        <time>1970-01-01T01:06:04.000Z</time>
      </trkpt>
      <trkpt lat="41.332225" lon="1.92325">
        <ele>362.9</ele>
        <time>1970-01-01T01:06:05.000Z</time>
      </trkpt>
      <trkpt lat="41.33225" lon="1.923262">
        <ele>362.9</ele>
        <time>1970-01-01T01:06:06.000Z</time>
      </trkpt>
      <trkpt lat="41.33225" lon="1.923262">
        <ele>362.9</ele>
        <time>1970-01-01T01:06:07.000Z</time>
      </trkpt>
      <trkpt lat="41.332305" lon="1.923285">
        <ele>362.9</ele>
        <time>1970-01-01T01:06:08.000Z</time>
      </trkpt>
      <trkpt lat="41.332352" lon="1.923297">
        <ele>362.9</ele>
        <time>1970-01-01T01:06:09.000Z</time>
      </trkpt>
      <trkpt lat="41.332352" lon="1.923297">
        <ele>362.9</ele>
        <time>1970-01-01T01:06:10.000Z</time>
      </trkpt>
      <trkpt lat="41.332415" lon="1.92333">
        <ele>362.9</ele>
        <time>1970-01-01T01:06:11.000Z</time>
      </trkpt>
      <trkpt lat="41.332415" lon="1.92333">
        <ele>362.9</ele>
        <time>1970-01-01T01:06:12.000Z</time>
      </trkpt>
      <trkpt lat="41.332472" lon="1.923362">
        <ele>363.9</ele>
        <time>1970-01-01T01:06:13.000Z</time>
      </trkpt>
      <trkpt lat="41.332472" lon="1.923362">
        <ele>363.9</ele>
        <time>1970-01-01T01:06:14.000Z</time>
      </trkpt>
      <trkpt lat="41.33252" lon="1.923392">
        <ele>363.9</ele>
        <time>1970-01-01T01:06:15.000Z</time>
      </trkpt>
      <trkpt lat="41.33252" lon="1.923392">
        <ele>363.9</ele>
        <time>1970-01-01T01:06:16.000Z</time>
      </trkpt>
      <trkpt lat="41.332563" lon="1.923418">
        <ele>363.9</ele>
        <time>1970-01-01T01:06:17.000Z</time>
      </trkpt>
      <trkpt lat="41.332563" lon="1.923418">
        <ele>363.9</ele>
        <time>1970-01-01T01:06:18.000Z</time>
      </trkpt>
      <trkpt lat="41.33262" lon="1.92344">
        <ele>363.9</ele>
        <time>1970-01-01T01:06:19.000Z</time>
      </trkpt>
      <trkpt lat="41.33262" lon="1.92344">
        <ele>363.9</ele>
        <time>1970-01-01T01:06:20.000Z</time>
      </trkpt>
      <trkpt lat="41.332673" lon="1.923458">
        <ele>364.9</ele>
        <time>1970-01-01T01:06:21.000Z</time>
      </trkpt>
      <trkpt lat="41.332673" lon="1.923458">
        <ele>364.9</ele>
        <time>1970-01-01T01:06:22.000Z</time>
      </trkpt>
      <trkpt lat="41.332715" lon="1.923483">
        <ele>364.9</ele>
        <time>1970-01-01T01:06:23.000Z</time>
      </trkpt>
      <trkpt lat="41.332715" lon="1.923483">
        <ele>364.9</ele>
        <time>1970-01-01T01:06:24.000Z</time>
      </trkpt>
      <trkpt lat="41.332767" lon="1.923502">
        <ele>364.9</ele>
        <time>1970-01-01T01:06:25.000Z</time>
      </trkpt>
      <trkpt lat="41.332767" lon="1.923502">
        <ele>364.9</ele>
        <time>1970-01-01T01:06:26.000Z</time>
      </trkpt>
      <trkpt lat="41.332817" lon="1.923527">
        <ele>364.9</ele>
        <time>1970-01-01T01:06:27.000Z</time>
      </trkpt>
      <trkpt lat="41.332817" lon="1.923527">
        <ele>364.9</ele>
        <time>1970-01-01T01:06:28.000Z</time>
      </trkpt>
      <trkpt lat="41.332872" lon="1.923552">
        <ele>364.9</ele>
        <time>1970-01-01T01:06:29.000Z</time>
      </trkpt>
      <trkpt lat="41.332872" lon="1.923552">
        <ele>365.9</ele>
        <time>1970-01-01T01:06:30.000Z</time>
      </trkpt>
      <trkpt lat="41.332928" lon="1.923575">
        <ele>365.9</ele>
        <time>1970-01-01T01:06:31.000Z</time>
      </trkpt>
      <trkpt lat="41.332962" lon="1.923582">
        <ele>365.9</ele>
        <time>1970-01-01T01:06:32.000Z</time>
      </trkpt>
      <trkpt lat="41.33299" lon="1.923587">
        <ele>365.9</ele>
        <time>1970-01-01T01:06:33.000Z</time>
      </trkpt>
      <trkpt lat="41.33299" lon="1.923587">
        <ele>365.9</ele>
        <time>1970-01-01T01:06:34.000Z</time>
      </trkpt>
      <trkpt lat="41.333048" lon="1.923607">
        <ele>365.9</ele>
        <time>1970-01-01T01:06:35.000Z</time>
      </trkpt>
      <trkpt lat="41.333072" lon="1.923617">
        <ele>365.9</ele>
        <time>1970-01-01T01:06:36.000Z</time>
      </trkpt>
      <trkpt lat="41.333072" lon="1.923617">
        <ele>365.9</ele>
        <time>1970-01-01T01:06:37.000Z</time>
      </trkpt>
      <trkpt lat="41.333128" lon="1.923637">
        <ele>366.9</ele>
        <time>1970-01-01T01:06:38.000Z</time>
      </trkpt>
      <trkpt lat="41.333157" lon="1.923648">
        <ele>366.9</ele>
        <time>1970-01-01T01:06:39.000Z</time>
      </trkpt>
      <trkpt lat="41.333157" lon="1.923648">
        <ele>366.9</ele>
        <time>1970-01-01T01:06:40.000Z</time>
      </trkpt>
      <trkpt lat="41.333218" lon="1.923672">
        <ele>366.9</ele>
        <time>1970-01-01T01:06:41.000Z</time>
      </trkpt>
      <trkpt lat="41.333247" lon="1.923687">
        <ele>366.9</ele>
        <time>1970-01-01T01:06:42.000Z</time>
      </trkpt>
      <trkpt lat="41.333247" lon="1.923687">
        <ele>366.9</ele>
        <time>1970-01-01T01:06:43.000Z</time>
      </trkpt>
      <trkpt lat="41.333303" lon="1.923718">
        <ele>366.9</ele>
        <time>1970-01-01T01:06:44.000Z</time>
      </trkpt>
      <trkpt lat="41.333333" lon="1.923733">
        <ele>366.9</ele>
        <time>1970-01-01T01:06:45.000Z</time>
      </trkpt>
      <trkpt lat="41.333333" lon="1.923733">
        <ele>366.9</ele>
        <time>1970-01-01T01:06:46.000Z</time>
      </trkpt>
      <trkpt lat="41.333382" lon="1.923763">
        <ele>366.9</ele>
        <time>1970-01-01T01:06:47.000Z</time>
      </trkpt>
      <trkpt lat="41.33341" lon="1.923777">
        <ele>367.9</ele>
        <time>1970-01-01T01:06:48.000Z</time>
      </trkpt>
      <trkpt lat="41.33341" lon="1.923777">
        <ele>367.9</ele>
        <time>1970-01-01T01:06:49.000Z</time>
      </trkpt>
      <trkpt lat="41.333473" lon="1.923803">
        <ele>367.9</ele>
        <time>1970-01-01T01:06:50.000Z</time>
      </trkpt>
      <trkpt lat="41.333505" lon="1.923815">
        <ele>367.9</ele>
        <time>1970-01-01T01:06:51.000Z</time>
      </trkpt>
      <trkpt lat="41.333505" lon="1.923815">
        <ele>367.9</ele>
        <time>1970-01-01T01:06:52.000Z</time>
      </trkpt>
      <trkpt lat="41.333572" lon="1.923845">
        <ele>367.9</ele>
        <time>1970-01-01T01:06:53.000Z</time>
      </trkpt>
      <trkpt lat="41.333605" lon="1.92386">
        <ele>367.9</ele>
        <time>1970-01-01T01:06:54.000Z</time>
      </trkpt>
      <trkpt lat="41.333605" lon="1.92386">
        <ele>367.9</ele>
        <time>1970-01-01T01:06:55.000Z</time>
      </trkpt>
      <trkpt lat="41.333667" lon="1.923892">
        <ele>367.9</ele>
        <time>1970-01-01T01:06:56.000Z</time>
      </trkpt>
      <trkpt lat="41.333695" lon="1.923908">
        <ele>367.9</ele>
        <time>1970-01-01T01:06:57.000Z</time>
      </trkpt>
      <trkpt lat="41.333695" lon="1.923908">
        <ele>367.9</ele>
        <time>1970-01-01T01:06:58.000Z</time>
      </trkpt>
      <trkpt lat="41.333757" lon="1.923937">
        <ele>367.9</ele>
        <time>1970-01-01T01:06:59.000Z</time>
      </trkpt>
      <trkpt lat="41.333757" lon="1.923937">
        <ele>367.9</ele>
        <time>1970-01-01T01:07:00.000Z</time>
      </trkpt>
      <trkpt lat="41.33382" lon="1.923967">
        <ele>367.9</ele>
        <time>1970-01-01T01:07:01.000Z</time>
      </trkpt>
      <trkpt lat="41.33382" lon="1.923967">
        <ele>367.9</ele>
        <time>1970-01-01T01:07:02.000Z</time>
      </trkpt>
      <trkpt lat="41.333882" lon="1.923992">
        <ele>367.9</ele>
        <time>1970-01-01T01:07:03.000Z</time>
      </trkpt>
      <trkpt lat="41.333882" lon="1.923992">
        <ele>367.9</ele>
        <time>1970-01-01T01:07:04.000Z</time>
      </trkpt>
      <trkpt lat="41.333942" lon="1.924022">
        <ele>367.9</ele>
        <time>1970-01-01T01:07:05.000Z</time>
      </trkpt>
      <trkpt lat="41.333942" lon="1.924022">
        <ele>367.9</ele>
        <time>1970-01-01T01:07:06.000Z</time>
      </trkpt>
      <trkpt lat="41.334005" lon="1.924045">
        <ele>367.9</ele>
        <time>1970-01-01T01:07:07.000Z</time>
      </trkpt>
      <trkpt lat="41.334038" lon="1.92406">
        <ele>367.9</ele>
        <time>1970-01-01T01:07:08.000Z</time>
      </trkpt>
      <trkpt lat="41.334068" lon="1.924073">
        <ele>367.9</ele>
        <time>1970-01-01T01:07:09.000Z</time>
      </trkpt>
      <trkpt lat="41.334068" lon="1.924073">
        <ele>367.9</ele>
        <time>1970-01-01T01:07:10.000Z</time>
      </trkpt>
      <trkpt lat="41.334133" lon="1.924097">
        <ele>367.9</ele>
        <time>1970-01-01T01:07:11.000Z</time>
      </trkpt>
      <trkpt lat="41.334163" lon="1.924107">
        <ele>367.9</ele>
        <time>1970-01-01T01:07:12.000Z</time>
      </trkpt>
      <trkpt lat="41.334163" lon="1.924107">
        <ele>367.9</ele>
        <time>1970-01-01T01:07:13.000Z</time>
      </trkpt>
      <trkpt lat="41.334218" lon="1.924142">
        <ele>367.9</ele>
        <time>1970-01-01T01:07:14.000Z</time>
      </trkpt>
      <trkpt lat="41.334257" lon="1.924155">
        <ele>367.9</ele>
        <time>1970-01-01T01:07:15.000Z</time>
      </trkpt>
      <trkpt lat="41.334257" lon="1.924155">
        <ele>368.9</ele>
        <time>1970-01-01T01:07:16.000Z</time>
      </trkpt>
      <trkpt lat="41.334323" lon="1.92419">
        <ele>368.9</ele>
        <time>1970-01-01T01:07:17.000Z</time>
      </trkpt>
      <trkpt lat="41.334357" lon="1.924205">
        <ele>368.9</ele>
        <time>1970-01-01T01:07:18.000Z</time>
      </trkpt>
      <trkpt lat="41.334357" lon="1.924205">
        <ele>368.9</ele>
        <time>1970-01-01T01:07:19.000Z</time>
      </trkpt>
      <trkpt lat="41.33443" lon="1.92423">
        <ele>368.9</ele>
        <time>1970-01-01T01:07:20.000Z</time>
      </trkpt>
      <trkpt lat="41.334465" lon="1.924243">
        <ele>368.9</ele>
        <time>1970-01-01T01:07:21.000Z</time>
      </trkpt>
      <trkpt lat="41.334465" lon="1.924243">
        <ele>369.9</ele>
        <time>1970-01-01T01:07:22.000Z</time>
      </trkpt>
      <trkpt lat="41.334535" lon="1.924268">
        <ele>369.9</ele>
        <time>1970-01-01T01:07:23.000Z</time>
      </trkpt>
      <trkpt lat="41.334535" lon="1.924268">
        <ele>369.9</ele>
        <time>1970-01-01T01:07:24.000Z</time>
      </trkpt>
      <trkpt lat="41.334593" lon="1.924288">
        <ele>369.9</ele>
        <time>1970-01-01T01:07:25.000Z</time>
      </trkpt>
      <trkpt lat="41.334593" lon="1.924288">
        <ele>369.9</ele>
        <time>1970-01-01T01:07:26.000Z</time>
      </trkpt>
      <trkpt lat="41.334653" lon="1.924312">
        <ele>369.9</ele>
        <time>1970-01-01T01:07:27.000Z</time>
      </trkpt>
      <trkpt lat="41.334653" lon="1.924312">
        <ele>369.9</ele>
        <time>1970-01-01T01:07:28.000Z</time>
      </trkpt>
      <trkpt lat="41.334707" lon="1.924322">
        <ele>369.9</ele>
        <time>1970-01-01T01:07:29.000Z</time>
      </trkpt>
      <trkpt lat="41.334707" lon="1.924322">
        <ele>369.9</ele>
        <time>1970-01-01T01:07:30.000Z</time>
      </trkpt>
      <trkpt lat="41.334752" lon="1.92431">
        <ele>369.9</ele>
        <time>1970-01-01T01:07:31.000Z</time>
      </trkpt>
      <trkpt lat="41.334768" lon="1.924287">
        <ele>369.9</ele>
        <time>1970-01-01T01:07:32.000Z</time>
      </trkpt>
      <trkpt lat="41.334768" lon="1.924287">
        <ele>369.9</ele>
        <time>1970-01-01T01:07:33.000Z</time>
      </trkpt>
      <trkpt lat="41.334775" lon="1.924217">
        <ele>370.9</ele>
        <time>1970-01-01T01:07:34.000Z</time>
      </trkpt>
      <trkpt lat="41.334775" lon="1.924217">
        <ele>370.9</ele>
        <time>1970-01-01T01:07:35.000Z</time>
      </trkpt>
      <trkpt lat="41.334775" lon="1.924148">
        <ele>370.9</ele>
        <time>1970-01-01T01:07:36.000Z</time>
      </trkpt>
      <trkpt lat="41.334775" lon="1.924148">
        <ele>370.9</ele>
        <time>1970-01-01T01:07:37.000Z</time>
      </trkpt>
      <trkpt lat="41.334773" lon="1.924075">
        <ele>370.9</ele>
        <time>1970-01-01T01:07:38.000Z</time>
      </trkpt>
      <trkpt lat="41.334772" lon="1.924037">
        <ele>370.9</ele>
        <time>1970-01-01T01:07:39.000Z</time>
      </trkpt>
      <trkpt lat="41.334772" lon="1.924037">
        <ele>371.9</ele>
        <time>1970-01-01T01:07:40.000Z</time>
      </trkpt>
      <trkpt lat="41.334777" lon="1.923957">
        <ele>371.9</ele>
        <time>1970-01-01T01:07:41.000Z</time>
      </trkpt>
      <trkpt lat="41.334777" lon="1.923957">
        <ele>371.9</ele>
        <time>1970-01-01T01:07:42.000Z</time>
      </trkpt>
      <trkpt lat="41.334782" lon="1.923878">
        <ele>371.9</ele>
        <time>1970-01-01T01:07:43.000Z</time>
      </trkpt>
      <trkpt lat="41.334785" lon="1.923837">
        <ele>372.9</ele>
        <time>1970-01-01T01:07:44.000Z</time>
      </trkpt>
      <trkpt lat="41.334785" lon="1.923798">
        <ele>372.9</ele>
        <time>1970-01-01T01:07:45.000Z</time>
      </trkpt>
      <trkpt lat="41.334785" lon="1.923798">
        <ele>372.9</ele>
        <time>1970-01-01T01:07:46.000Z</time>
      </trkpt>
      <trkpt lat="41.334788" lon="1.92372">
        <ele>372.9</ele>
        <time>1970-01-01T01:07:47.000Z</time>
      </trkpt>
      <trkpt lat="41.334788" lon="1.92372">
        <ele>372.9</ele>
        <time>1970-01-01T01:07:48.000Z</time>
      </trkpt>
      <trkpt lat="41.334793" lon="1.923642">
        <ele>373.9</ele>
        <time>1970-01-01T01:07:49.000Z</time>
      </trkpt>
      <trkpt lat="41.334793" lon="1.923642">
        <ele>373.9</ele>
        <time>1970-01-01T01:07:50.000Z</time>
      </trkpt>
      <trkpt lat="41.334798" lon="1.923565">
        <ele>373.9</ele>
        <time>1970-01-01T01:07:51.000Z</time>
      </trkpt>
      <trkpt lat="41.334798" lon="1.923565">
        <ele>373.9</ele>
        <time>1970-01-01T01:07:52.000Z</time>
      </trkpt>
      <trkpt lat="41.334797" lon="1.923483">
        <ele>374.9</ele>
        <time>1970-01-01T01:07:53.000Z</time>
      </trkpt>
      <trkpt lat="41.334795" lon="1.923447">
        <ele>374.9</ele>
        <time>1970-01-01T01:07:54.000Z</time>
      </trkpt>
      <trkpt lat="41.334795" lon="1.923447">
        <ele>374.9</ele>
        <time>1970-01-01T01:07:55.000Z</time>
      </trkpt>
      <trkpt lat="41.334795" lon="1.923375">
        <ele>374.9</ele>
        <time>1970-01-01T01:07:56.000Z</time>
      </trkpt>
      <trkpt lat="41.334797" lon="1.923337">
        <ele>375.9</ele>
        <time>1970-01-01T01:07:57.000Z</time>
      </trkpt>
      <trkpt lat="41.334797" lon="1.923337">
        <ele>375.9</ele>
        <time>1970-01-01T01:07:58.000Z</time>
      </trkpt>
      <trkpt lat="41.3348" lon="1.923262">
        <ele>375.9</ele>
        <time>1970-01-01T01:07:59.000Z</time>
      </trkpt>
      <trkpt lat="41.3348" lon="1.923262">
        <ele>376.9</ele>
        <time>1970-01-01T01:08:00.000Z</time>
      </trkpt>
      <trkpt lat="41.334807" lon="1.923193">
        <ele>376.9</ele>
        <time>1970-01-01T01:08:01.000Z</time>
      </trkpt>
      <trkpt lat="41.334807" lon="1.923158">
        <ele>376.9</ele>
        <time>1970-01-01T01:08:02.000Z</time>
      </trkpt>
      <trkpt lat="41.334807" lon="1.923158">
        <ele>376.9</ele>
        <time>1970-01-01T01:08:03.000Z</time>
      </trkpt>
      <trkpt lat="41.33481" lon="1.92309">
        <ele>376.9</ele>
        <time>1970-01-01T01:08:04.000Z</time>
      </trkpt>
      <trkpt lat="41.33481" lon="1.92309">
        <ele>376.9</ele>
        <time>1970-01-01T01:08:05.000Z</time>
      </trkpt>
      <trkpt lat="41.334808" lon="1.923013">
        <ele>377.9</ele>
        <time>1970-01-01T01:08:06.000Z</time>
      </trkpt>
      <trkpt lat="41.334808" lon="1.923013">
        <ele>377.9</ele>
        <time>1970-01-01T01:08:07.000Z</time>
      </trkpt>
      <trkpt lat="41.334808" lon="1.922938">
        <ele>377.9</ele>
        <time>1970-01-01T01:08:08.000Z</time>
      </trkpt>
      <trkpt lat="41.334807" lon="1.922902">
        <ele>377.9</ele>
        <time>1970-01-01T01:08:09.000Z</time>
      </trkpt>
      <trkpt lat="41.334807" lon="1.922902">
        <ele>377.9</ele>
        <time>1970-01-01T01:08:10.000Z</time>
      </trkpt>
      <trkpt lat="41.334803" lon="1.922823">
        <ele>377.9</ele>
        <time>1970-01-01T01:08:11.000Z</time>
      </trkpt>
      <trkpt lat="41.334803" lon="1.922823">
        <ele>377.9</ele>
        <time>1970-01-01T01:08:12.000Z</time>
      </trkpt>
      <trkpt lat="41.334807" lon="1.922742">
        <ele>377.9</ele>
        <time>1970-01-01T01:08:13.000Z</time>
      </trkpt>
      <trkpt lat="41.334805" lon="1.922703">
        <ele>377.9</ele>
        <time>1970-01-01T01:08:14.000Z</time>
      </trkpt>
      <trkpt lat="41.334805" lon="1.922703">
        <ele>377.9</ele>
        <time>1970-01-01T01:08:15.000Z</time>
      </trkpt>
      <trkpt lat="41.334807" lon="1.922618">
        <ele>377.9</ele>
        <time>1970-01-01T01:08:16.000Z</time>
      </trkpt>
      <trkpt lat="41.334807" lon="1.922618">
        <ele>377.9</ele>
        <time>1970-01-01T01:08:17.000Z</time>
      </trkpt>
      <trkpt lat="41.334807" lon="1.922532">
        <ele>377.9</ele>
        <time>1970-01-01T01:08:18.000Z</time>
      </trkpt>
      <trkpt lat="41.334807" lon="1.922532">
        <ele>377.9</ele>
        <time>1970-01-01T01:08:19.000Z</time>
      </trkpt>
      <trkpt lat="41.334802" lon="1.922443">
        <ele>377.9</ele>
        <time>1970-01-01T01:08:20.000Z</time>
      </trkpt>
      <trkpt lat="41.334797" lon="1.922402">
        <ele>377.9</ele>
        <time>1970-01-01T01:08:21.000Z</time>
      </trkpt>
      <trkpt lat="41.334797" lon="1.922357">
        <ele>377.9</ele>
        <time>1970-01-01T01:08:22.000Z</time>
      </trkpt>
      <trkpt lat="41.334797" lon="1.922357">
        <ele>377.9</ele>
        <time>1970-01-01T01:08:23.000Z</time>
      </trkpt>
      <trkpt lat="41.334793" lon="1.922268">
        <ele>377.9</ele>
        <time>1970-01-01T01:08:24.000Z</time>
      </trkpt>
      <trkpt lat="41.334793" lon="1.922268">
        <ele>377.9</ele>
        <time>1970-01-01T01:08:25.000Z</time>
      </trkpt>
      <trkpt lat="41.33479" lon="1.922178">
        <ele>377.9</ele>
        <time>1970-01-01T01:08:26.000Z</time>
      </trkpt>
      <trkpt lat="41.33479" lon="1.922178">
        <ele>377.9</ele>
        <time>1970-01-01T01:08:27.000Z</time>
      </trkpt>
      <trkpt lat="41.33479" lon="1.922087">
        <ele>377.9</ele>
        <time>1970-01-01T01:08:28.000Z</time>
      </trkpt>
      <trkpt lat="41.33479" lon="1.922087">
        <ele>377.9</ele>
        <time>1970-01-01T01:08:29.000Z</time>
      </trkpt>
      <trkpt lat="41.334793" lon="1.921993">
        <ele>377.9</ele>
        <time>1970-01-01T01:08:30.000Z</time>
      </trkpt>
      <trkpt lat="41.334793" lon="1.921993">
        <ele>377.9</ele>
        <time>1970-01-01T01:08:31.000Z</time>
      </trkpt>
      <trkpt lat="41.33479" lon="1.921897">
        <ele>377.9</ele>
        <time>1970-01-01T01:08:32.000Z</time>
      </trkpt>
      <trkpt lat="41.33479" lon="1.921897">
        <ele>377.9</ele>
        <time>1970-01-01T01:08:33.000Z</time>
      </trkpt>
      <trkpt lat="41.334782" lon="1.921802">
        <ele>377.9</ele>
        <time>1970-01-01T01:08:34.000Z</time>
      </trkpt>
      <trkpt lat="41.334782" lon="1.921802">
        <ele>377.9</ele>
        <time>1970-01-01T01:08:35.000Z</time>
      </trkpt>
      <trkpt lat="41.33478" lon="1.921693">
        <ele>377.9</ele>
        <time>1970-01-01T01:08:36.000Z</time>
      </trkpt>
      <trkpt lat="41.33478" lon="1.921693">
        <ele>377.9</ele>
        <time>1970-01-01T01:08:37.000Z</time>
      </trkpt>
      <trkpt lat="41.334778" lon="1.921565">
        <ele>377.9</ele>
        <time>1970-01-01T01:08:38.000Z</time>
      </trkpt>
      <trkpt lat="41.33478" lon="1.921498">
        <ele>377.9</ele>
        <time>1970-01-01T01:08:39.000Z</time>
      </trkpt>
      <trkpt lat="41.33478" lon="1.921498">
        <ele>377.9</ele>
        <time>1970-01-01T01:08:40.000Z</time>
      </trkpt>
      <trkpt lat="41.334777" lon="1.921362">
        <ele>376.9</ele>
        <time>1970-01-01T01:08:41.000Z</time>
      </trkpt>
      <trkpt lat="41.334785" lon="1.921293">
        <ele>375.9</ele>
        <time>1970-01-01T01:08:42.000Z</time>
      </trkpt>
      <trkpt lat="41.334803" lon="1.921227">
        <ele>375.9</ele>
        <time>1970-01-01T01:08:43.000Z</time>
      </trkpt>
      <trkpt lat="41.334803" lon="1.921227">
        <ele>374.9</ele>
        <time>1970-01-01T01:08:44.000Z</time>
      </trkpt>
      <trkpt lat="41.334877" lon="1.921092">
        <ele>374.9</ele>
        <time>1970-01-01T01:08:45.000Z</time>
      </trkpt>
      <trkpt lat="41.334877" lon="1.921092">
        <ele>373.9</ele>
        <time>1970-01-01T01:08:46.000Z</time>
      </trkpt>
      <trkpt lat="41.334967" lon="1.920962">
        <ele>373.9</ele>
        <time>1970-01-01T01:08:47.000Z</time>
      </trkpt>
      <trkpt lat="41.334967" lon="1.920962">
        <ele>372.9</ele>
        <time>1970-01-01T01:08:48.000Z</time>
      </trkpt>
      <trkpt lat="41.335033" lon="1.920882">
        <ele>372.9</ele>
        <time>1970-01-01T01:08:49.000Z</time>
      </trkpt>
      <trkpt lat="41.335052" lon="1.920858">
        <ele>370.9</ele>
        <time>1970-01-01T01:08:50.000Z</time>
      </trkpt>
      <trkpt lat="41.335052" lon="1.920858">
        <ele>370.9</ele>
        <time>1970-01-01T01:08:51.000Z</time>
      </trkpt>
      <trkpt lat="41.335098" lon="1.920797">
        <ele>369.9</ele>
        <time>1970-01-01T01:08:52.000Z</time>
      </trkpt>
      <trkpt lat="41.335098" lon="1.920797">
        <ele>369.9</ele>
        <time>1970-01-01T01:08:53.000Z</time>
      </trkpt>
      <trkpt lat="41.33517" lon="1.920723">
        <ele>369.9</ele>
        <time>1970-01-01T01:08:54.000Z</time>
      </trkpt>
      <trkpt lat="41.33517" lon="1.920723">
        <ele>369.9</ele>
        <time>1970-01-01T01:08:55.000Z</time>
      </trkpt>
      <trkpt lat="41.335252" lon="1.92062">
        <ele>368.9</ele>
        <time>1970-01-01T01:08:56.000Z</time>
      </trkpt>
      <trkpt lat="41.335292" lon="1.92057">
        <ele>368.9</ele>
        <time>1970-01-01T01:08:57.000Z</time>
      </trkpt>
      <trkpt lat="41.335292" lon="1.92057">
        <ele>368.9</ele>
        <time>1970-01-01T01:08:58.000Z</time>
      </trkpt>
      <trkpt lat="41.335385" lon="1.920472">
        <ele>368.9</ele>
        <time>1970-01-01T01:08:59.000Z</time>
      </trkpt>
      <trkpt lat="41.335433" lon="1.92042">
        <ele>368.9</ele>
        <time>1970-01-01T01:09:00.000Z</time>
      </trkpt>
      <trkpt lat="41.335433" lon="1.92042">
        <ele>368.9</ele>
        <time>1970-01-01T01:09:01.000Z</time>
      </trkpt>
      <trkpt lat="41.335532" lon="1.920315">
        <ele>367.9</ele>
        <time>1970-01-01T01:09:02.000Z</time>
      </trkpt>
      <trkpt lat="41.335583" lon="1.92026">
        <ele>367.9</ele>
        <time>1970-01-01T01:09:03.000Z</time>
      </trkpt>
      <trkpt lat="41.335583" lon="1.92026">
        <ele>367.9</ele>
        <time>1970-01-01T01:09:04.000Z</time>
      </trkpt>
      <trkpt lat="41.335688" lon="1.920148">
        <ele>367.9</ele>
        <time>1970-01-01T01:09:05.000Z</time>
      </trkpt>
      <trkpt lat="41.335688" lon="1.920148">
        <ele>366.9</ele>
        <time>1970-01-01T01:09:06.000Z</time>
      </trkpt>
      <trkpt lat="41.335793" lon="1.920033">
        <ele>366.9</ele>
        <time>1970-01-01T01:09:07.000Z</time>
      </trkpt>
      <trkpt lat="41.335793" lon="1.920033">
        <ele>366.9</ele>
        <time>1970-01-01T01:09:08.000Z</time>
      </trkpt>
      <trkpt lat="41.335882" lon="1.919927">
        <ele>366.9</ele>
        <time>1970-01-01T01:09:09.000Z</time>
      </trkpt>
      <trkpt lat="41.335882" lon="1.919927">
        <ele>366.9</ele>
        <time>1970-01-01T01:09:10.000Z</time>
      </trkpt>
      <trkpt lat="41.335953" lon="1.919823">
        <ele>366.9</ele>
        <time>1970-01-01T01:09:11.000Z</time>
      </trkpt>
      <trkpt lat="41.335953" lon="1.919823">
        <ele>366.9</ele>
        <time>1970-01-01T01:09:12.000Z</time>
      </trkpt>
      <trkpt lat="41.336015" lon="1.919735">
        <ele>366.9</ele>
        <time>1970-01-01T01:09:13.000Z</time>
      </trkpt>
      <trkpt lat="41.336042" lon="1.919693">
        <ele>366.9</ele>
        <time>1970-01-01T01:09:14.000Z</time>
      </trkpt>
      <trkpt lat="41.336068" lon="1.919657">
        <ele>366.9</ele>
        <time>1970-01-01T01:09:15.000Z</time>
      </trkpt>
      <trkpt lat="41.336068" lon="1.919657">
        <ele>366.9</ele>
        <time>1970-01-01T01:09:16.000Z</time>
      </trkpt>
      <trkpt lat="41.336118" lon="1.91957">
        <ele>366.9</ele>
        <time>1970-01-01T01:09:17.000Z</time>
      </trkpt>
      <trkpt lat="41.336118" lon="1.91957">
        <ele>366.9</ele>
        <time>1970-01-01T01:09:18.000Z</time>
      </trkpt>
      <trkpt lat="41.336163" lon="1.919485">
        <ele>366.9</ele>
        <time>1970-01-01T01:09:19.000Z</time>
      </trkpt>
      <trkpt lat="41.336187" lon="1.919447">
        <ele>366.9</ele>
        <time>1970-01-01T01:09:20.000Z</time>
      </trkpt>
      <trkpt lat="41.336208" lon="1.919407">
        <ele>366.9</ele>
        <time>1970-01-01T01:09:21.000Z</time>
      </trkpt>
      <trkpt lat="41.336208" lon="1.919407">
        <ele>366.9</ele>
        <time>1970-01-01T01:09:22.000Z</time>
      </trkpt>
      <trkpt lat="41.33626" lon="1.919335">
        <ele>366.9</ele>
        <time>1970-01-01T01:09:23.000Z</time>
      </trkpt>
      <trkpt lat="41.336285" lon="1.9193">
        <ele>366.9</ele>
        <time>1970-01-01T01:09:24.000Z</time>
      </trkpt>
      <trkpt lat="41.336285" lon="1.9193">
        <ele>366.9</ele>
        <time>1970-01-01T01:09:25.000Z</time>
      </trkpt>
      <trkpt lat="41.33633" lon="1.919233">
        <ele>366.9</ele>
        <time>1970-01-01T01:09:26.000Z</time>
      </trkpt>
      <trkpt lat="41.336355" lon="1.919202">
        <ele>366.9</ele>
        <time>1970-01-01T01:09:27.000Z</time>
      </trkpt>
      <trkpt lat="41.336355" lon="1.919202">
        <ele>366.9</ele>
        <time>1970-01-01T01:09:28.000Z</time>
      </trkpt>
      <trkpt lat="41.33641" lon="1.919138">
        <ele>366.9</ele>
        <time>1970-01-01T01:09:29.000Z</time>
      </trkpt>
      <trkpt lat="41.33641" lon="1.919138">
        <ele>366.9</ele>
        <time>1970-01-01T01:09:30.000Z</time>
      </trkpt>
      <trkpt lat="41.336458" lon="1.91908">
        <ele>367.9</ele>
        <time>1970-01-01T01:09:31.000Z</time>
      </trkpt>
      <trkpt lat="41.336485" lon="1.91905">
        <ele>367.9</ele>
        <time>1970-01-01T01:09:32.000Z</time>
      </trkpt>
      <trkpt lat="41.336485" lon="1.91905">
        <ele>367.9</ele>
        <time>1970-01-01T01:09:33.000Z</time>
      </trkpt>
      <trkpt lat="41.336532" lon="1.918992">
        <ele>367.9</ele>
        <time>1970-01-01T01:09:34.000Z</time>
      </trkpt>
      <trkpt lat="41.336532" lon="1.918992">
        <ele>367.9</ele>
        <time>1970-01-01T01:09:35.000Z</time>
      </trkpt>
      <trkpt lat="41.336577" lon="1.918937">
        <ele>367.9</ele>
        <time>1970-01-01T01:09:36.000Z</time>
      </trkpt>
      <trkpt lat="41.336577" lon="1.918937">
        <ele>368.9</ele>
        <time>1970-01-01T01:09:37.000Z</time>
      </trkpt>
      <trkpt lat="41.336623" lon="1.918888">
        <ele>368.9</ele>
        <time>1970-01-01T01:09:38.000Z</time>
      </trkpt>
      <trkpt lat="41.336647" lon="1.918863">
        <ele>368.9</ele>
        <time>1970-01-01T01:09:39.000Z</time>
      </trkpt>
      <trkpt lat="41.336647" lon="1.918863">
        <ele>368.9</ele>
        <time>1970-01-01T01:09:40.000Z</time>
      </trkpt>
      <trkpt lat="41.336688" lon="1.91881">
        <ele>369.9</ele>
        <time>1970-01-01T01:09:41.000Z</time>
      </trkpt>
      <trkpt lat="41.336712" lon="1.918783">
        <ele>369.9</ele>
        <time>1970-01-01T01:09:42.000Z</time>
      </trkpt>
      <trkpt lat="41.336712" lon="1.918783">
        <ele>369.9</ele>
        <time>1970-01-01T01:09:43.000Z</time>
      </trkpt>
      <trkpt lat="41.336755" lon="1.918735">
        <ele>369.9</ele>
        <time>1970-01-01T01:09:44.000Z</time>
      </trkpt>
      <trkpt lat="41.336777" lon="1.91871">
        <ele>369.9</ele>
        <time>1970-01-01T01:09:45.000Z</time>
      </trkpt>
      <trkpt lat="41.336777" lon="1.91871">
        <ele>369.9</ele>
        <time>1970-01-01T01:09:46.000Z</time>
      </trkpt>
      <trkpt lat="41.33682" lon="1.918675">
        <ele>370.9</ele>
        <time>1970-01-01T01:09:47.000Z</time>
      </trkpt>
      <trkpt lat="41.336835" lon="1.91866">
        <ele>370.9</ele>
        <time>1970-01-01T01:09:48.000Z</time>
      </trkpt>
      <trkpt lat="41.336835" lon="1.91866">
        <ele>370.9</ele>
        <time>1970-01-01T01:09:49.000Z</time>
      </trkpt>
      <trkpt lat="41.336868" lon="1.91862">
        <ele>370.9</ele>
        <time>1970-01-01T01:09:50.000Z</time>
      </trkpt>
      <trkpt lat="41.336868" lon="1.91862">
        <ele>370.9</ele>
        <time>1970-01-01T01:09:51.000Z</time>
      </trkpt>
      <trkpt lat="41.3369" lon="1.91857">
        <ele>370.9</ele>
        <time>1970-01-01T01:09:52.000Z</time>
      </trkpt>
      <trkpt lat="41.3369" lon="1.91857">
        <ele>370.9</ele>
        <time>1970-01-01T01:09:53.000Z</time>
      </trkpt>
      <trkpt lat="41.336932" lon="1.918523">
        <ele>370.9</ele>
        <time>1970-01-01T01:09:54.000Z</time>
      </trkpt>
      <trkpt lat="41.336932" lon="1.918523">
        <ele>370.9</ele>
        <time>1970-01-01T01:09:55.000Z</time>
      </trkpt>
      <trkpt lat="41.336965" lon="1.918473">
        <ele>370.9</ele>
        <time>1970-01-01T01:09:56.000Z</time>
      </trkpt>
      <trkpt lat="41.336978" lon="1.91845">
        <ele>370.9</ele>
        <time>1970-01-01T01:09:57.000Z</time>
      </trkpt>
      <trkpt lat="41.336978" lon="1.91845">
        <ele>371.9</ele>
        <time>1970-01-01T01:09:58.000Z</time>
      </trkpt>
      <trkpt lat="41.33701" lon="1.918408">
        <ele>371.9</ele>
        <time>1970-01-01T01:09:59.000Z</time>
      </trkpt>
      <trkpt lat="41.33701" lon="1.918408">
        <ele>371.9</ele>
        <time>1970-01-01T01:10:00.000Z</time>
      </trkpt>
      <trkpt lat="41.337048" lon="1.918368">
        <ele>371.9</ele>
        <time>1970-01-01T01:10:01.000Z</time>
      </trkpt>
      <trkpt lat="41.337048" lon="1.918368">
        <ele>371.9</ele>
        <time>1970-01-01T01:10:02.000Z</time>
      </trkpt>
      <trkpt lat="41.337077" lon="1.918322">
        <ele>371.9</ele>
        <time>1970-01-01T01:10:03.000Z</time>
      </trkpt>
      <trkpt lat="41.337077" lon="1.918322">
        <ele>372.9</ele>
        <time>1970-01-01T01:10:04.000Z</time>
      </trkpt>
      <trkpt lat="41.337115" lon="1.918288">
        <ele>372.9</ele>
        <time>1970-01-01T01:10:05.000Z</time>
      </trkpt>
      <trkpt lat="41.337135" lon="1.918272">
        <ele>372.9</ele>
        <time>1970-01-01T01:10:06.000Z</time>
      </trkpt>
      <trkpt lat="41.337135" lon="1.918272">
        <ele>372.9</ele>
        <time>1970-01-01T01:10:07.000Z</time>
      </trkpt>
      <trkpt lat="41.337175" lon="1.918242">
        <ele>373.9</ele>
        <time>1970-01-01T01:10:08.000Z</time>
      </trkpt>
      <trkpt lat="41.337198" lon="1.918227">
        <ele>373.9</ele>
        <time>1970-01-01T01:10:09.000Z</time>
      </trkpt>
      <trkpt lat="41.337198" lon="1.918227">
        <ele>373.9</ele>
        <time>1970-01-01T01:10:10.000Z</time>
      </trkpt>
      <trkpt lat="41.337247" lon="1.918203">
        <ele>374.9</ele>
        <time>1970-01-01T01:10:11.000Z</time>
      </trkpt>
      <trkpt lat="41.337273" lon="1.91819">
        <ele>374.9</ele>
        <time>1970-01-01T01:10:12.000Z</time>
      </trkpt>
      <trkpt lat="41.337273" lon="1.91819">
        <ele>374.9</ele>
        <time>1970-01-01T01:10:13.000Z</time>
      </trkpt>
      <trkpt lat="41.337325" lon="1.918167">
        <ele>374.9</ele>
        <time>1970-01-01T01:10:14.000Z</time>
      </trkpt>
      <trkpt lat="41.337352" lon="1.918158">
        <ele>374.9</ele>
        <time>1970-01-01T01:10:15.000Z</time>
      </trkpt>
      <trkpt lat="41.337352" lon="1.918158">
        <ele>374.9</ele>
        <time>1970-01-01T01:10:16.000Z</time>
      </trkpt>
      <trkpt lat="41.337415" lon="1.918152">
        <ele>375.9</ele>
        <time>1970-01-01T01:10:17.000Z</time>
      </trkpt>
      <trkpt lat="41.337415" lon="1.918152">
        <ele>375.9</ele>
        <time>1970-01-01T01:10:18.000Z</time>
      </trkpt>
      <trkpt lat="41.337472" lon="1.918138">
        <ele>375.9</ele>
        <time>1970-01-01T01:10:19.000Z</time>
      </trkpt>
      <trkpt lat="41.337472" lon="1.918138">
        <ele>375.9</ele>
        <time>1970-01-01T01:10:20.000Z</time>
      </trkpt>
      <trkpt lat="41.337518" lon="1.918128">
        <ele>375.9</ele>
        <time>1970-01-01T01:10:21.000Z</time>
      </trkpt>
      <trkpt lat="41.337518" lon="1.918128">
        <ele>375.9</ele>
        <time>1970-01-01T01:10:22.000Z</time>
      </trkpt>
      <trkpt lat="41.337572" lon="1.918117">
        <ele>375.9</ele>
        <time>1970-01-01T01:10:23.000Z</time>
      </trkpt>
      <trkpt lat="41.337598" lon="1.918113">
        <ele>375.9</ele>
        <time>1970-01-01T01:10:24.000Z</time>
      </trkpt>
      <trkpt lat="41.337598" lon="1.918113">
        <ele>375.9</ele>
        <time>1970-01-01T01:10:25.000Z</time>
      </trkpt>
      <trkpt lat="41.337652" lon="1.9181">
        <ele>375.9</ele>
        <time>1970-01-01T01:10:26.000Z</time>
      </trkpt>
      <trkpt lat="41.33768" lon="1.918092">
        <ele>375.9</ele>
        <time>1970-01-01T01:10:27.000Z</time>
      </trkpt>
      <trkpt lat="41.33768" lon="1.918092">
        <ele>375.9</ele>
        <time>1970-01-01T01:10:28.000Z</time>
      </trkpt>
      <trkpt lat="41.33774" lon="1.918078">
        <ele>375.9</ele>
        <time>1970-01-01T01:10:29.000Z</time>
      </trkpt>
      <trkpt lat="41.33774" lon="1.918078">
        <ele>375.9</ele>
        <time>1970-01-01T01:10:30.000Z</time>
      </trkpt>
      <trkpt lat="41.337793" lon="1.918065">
        <ele>375.9</ele>
        <time>1970-01-01T01:10:31.000Z</time>
      </trkpt>
      <trkpt lat="41.337793" lon="1.918065">
        <ele>375.9</ele>
        <time>1970-01-01T01:10:32.000Z</time>
      </trkpt>
      <trkpt lat="41.337853" lon="1.918045">
        <ele>375.9</ele>
        <time>1970-01-01T01:10:33.000Z</time>
      </trkpt>
      <trkpt lat="41.337853" lon="1.918045">
        <ele>375.9</ele>
        <time>1970-01-01T01:10:34.000Z</time>
      </trkpt>
      <trkpt lat="41.33791" lon="1.918018">
        <ele>375.9</ele>
        <time>1970-01-01T01:10:35.000Z</time>
      </trkpt>
      <trkpt lat="41.337942" lon="1.918007">
        <ele>375.9</ele>
        <time>1970-01-01T01:10:36.000Z</time>
      </trkpt>
      <trkpt lat="41.337942" lon="1.918007">
        <ele>375.9</ele>
        <time>1970-01-01T01:10:37.000Z</time>
      </trkpt>
      <trkpt lat="41.337997" lon="1.917982">
        <ele>376.9</ele>
        <time>1970-01-01T01:10:38.000Z</time>
      </trkpt>
      <trkpt lat="41.338025" lon="1.917968">
        <ele>376.9</ele>
        <time>1970-01-01T01:10:39.000Z</time>
      </trkpt>
      <trkpt lat="41.338025" lon="1.917968">
        <ele>376.9</ele>
        <time>1970-01-01T01:10:40.000Z</time>
      </trkpt>
      <trkpt lat="41.338082" lon="1.917942">
        <ele>376.9</ele>
        <time>1970-01-01T01:10:41.000Z</time>
      </trkpt>
      <trkpt lat="41.338082" lon="1.917942">
        <ele>376.9</ele>
        <time>1970-01-01T01:10:42.000Z</time>
      </trkpt>
      <trkpt lat="41.338138" lon="1.917922">
        <ele>376.9</ele>
        <time>1970-01-01T01:10:43.000Z</time>
      </trkpt>
      <trkpt lat="41.338167" lon="1.917907">
        <ele>376.9</ele>
        <time>1970-01-01T01:10:44.000Z</time>
      </trkpt>
      <trkpt lat="41.33819" lon="1.917888">
        <ele>377.9</ele>
        <time>1970-01-01T01:10:45.000Z</time>
      </trkpt>
      <trkpt lat="41.33819" lon="1.917888">
        <ele>377.9</ele>
        <time>1970-01-01T01:10:46.000Z</time>
      </trkpt>
      <trkpt lat="41.338238" lon="1.917855">
        <ele>377.9</ele>
        <time>1970-01-01T01:10:47.000Z</time>
      </trkpt>
      <trkpt lat="41.338238" lon="1.917855">
        <ele>377.9</ele>
        <time>1970-01-01T01:10:48.000Z</time>
      </trkpt>
      <trkpt lat="41.338288" lon="1.917822">
        <ele>377.9</ele>
        <time>1970-01-01T01:10:49.000Z</time>
      </trkpt>
      <trkpt lat="41.338288" lon="1.917822">
        <ele>377.9</ele>
        <time>1970-01-01T01:10:50.000Z</time>
      </trkpt>
      <trkpt lat="41.338342" lon="1.917783">
        <ele>377.9</ele>
        <time>1970-01-01T01:10:51.000Z</time>
      </trkpt>
      <trkpt lat="41.338342" lon="1.917783">
        <ele>377.9</ele>
        <time>1970-01-01T01:10:52.000Z</time>
      </trkpt>
      <trkpt lat="41.338397" lon="1.917735">
        <ele>377.9</ele>
        <time>1970-01-01T01:10:53.000Z</time>
      </trkpt>
      <trkpt lat="41.338397" lon="1.917735">
        <ele>377.9</ele>
        <time>1970-01-01T01:10:54.000Z</time>
      </trkpt>
      <trkpt lat="41.338453" lon="1.917688">
        <ele>378.9</ele>
        <time>1970-01-01T01:10:55.000Z</time>
      </trkpt>
      <trkpt lat="41.338453" lon="1.917688">
        <ele>378.9</ele>
        <time>1970-01-01T01:10:56.000Z</time>
      </trkpt>
      <trkpt lat="41.338513" lon="1.917642">
        <ele>378.9</ele>
        <time>1970-01-01T01:10:57.000Z</time>
      </trkpt>
      <trkpt lat="41.338513" lon="1.917642">
        <ele>378.9</ele>
        <time>1970-01-01T01:10:58.000Z</time>
      </trkpt>
      <trkpt lat="41.33857" lon="1.91759">
        <ele>378.9</ele>
        <time>1970-01-01T01:10:59.000Z</time>
      </trkpt>
      <trkpt lat="41.33857" lon="1.91759">
        <ele>378.9</ele>
        <time>1970-01-01T01:11:00.000Z</time>
      </trkpt>
      <trkpt lat="41.338623" lon="1.917538">
        <ele>378.9</ele>
        <time>1970-01-01T01:11:01.000Z</time>
      </trkpt>
      <trkpt lat="41.338623" lon="1.917538">
        <ele>378.9</ele>
        <time>1970-01-01T01:11:02.000Z</time>
      </trkpt>
      <trkpt lat="41.338678" lon="1.917488">
        <ele>378.9</ele>
        <time>1970-01-01T01:11:03.000Z</time>
      </trkpt>
      <trkpt lat="41.338678" lon="1.917488">
        <ele>378.9</ele>
        <time>1970-01-01T01:11:04.000Z</time>
      </trkpt>
      <trkpt lat="41.338733" lon="1.91743">
        <ele>378.9</ele>
        <time>1970-01-01T01:11:05.000Z</time>
      </trkpt>
      <trkpt lat="41.338767" lon="1.917402">
        <ele>378.9</ele>
        <time>1970-01-01T01:11:06.000Z</time>
      </trkpt>
      <trkpt lat="41.338767" lon="1.917402">
        <ele>378.9</ele>
        <time>1970-01-01T01:11:07.000Z</time>
      </trkpt>
      <trkpt lat="41.33883" lon="1.917342">
        <ele>378.9</ele>
        <time>1970-01-01T01:11:08.000Z</time>
      </trkpt>
      <trkpt lat="41.338863" lon="1.917317">
        <ele>378.9</ele>
        <time>1970-01-01T01:11:09.000Z</time>
      </trkpt>
      <trkpt lat="41.338863" lon="1.917317">
        <ele>378.9</ele>
        <time>1970-01-01T01:11:10.000Z</time>
      </trkpt>
      <trkpt lat="41.33893" lon="1.917267">
        <ele>378.9</ele>
        <time>1970-01-01T01:11:11.000Z</time>
      </trkpt>
      <trkpt lat="41.338962" lon="1.91724">
        <ele>378.9</ele>
        <time>1970-01-01T01:11:12.000Z</time>
      </trkpt>
      <trkpt lat="41.338962" lon="1.91724">
        <ele>378.9</ele>
        <time>1970-01-01T01:11:13.000Z</time>
      </trkpt>
      <trkpt lat="41.339032" lon="1.917187">
        <ele>378.9</ele>
        <time>1970-01-01T01:11:14.000Z</time>
      </trkpt>
      <trkpt lat="41.339065" lon="1.91716">
        <ele>378.9</ele>
        <time>1970-01-01T01:11:15.000Z</time>
      </trkpt>
      <trkpt lat="41.339065" lon="1.91716">
        <ele>378.9</ele>
        <time>1970-01-01T01:11:16.000Z</time>
      </trkpt>
      <trkpt lat="41.339132" lon="1.917102">
        <ele>378.9</ele>
        <time>1970-01-01T01:11:17.000Z</time>
      </trkpt>
      <trkpt lat="41.339132" lon="1.917102">
        <ele>377.9</ele>
        <time>1970-01-01T01:11:18.000Z</time>
      </trkpt>
      <trkpt lat="41.3392" lon="1.91704">
        <ele>377.9</ele>
        <time>1970-01-01T01:11:19.000Z</time>
      </trkpt>
      <trkpt lat="41.3392" lon="1.91704">
        <ele>377.9</ele>
        <time>1970-01-01T01:11:20.000Z</time>
      </trkpt>
      <trkpt lat="41.339268" lon="1.916978">
        <ele>377.9</ele>
        <time>1970-01-01T01:11:21.000Z</time>
      </trkpt>
      <trkpt lat="41.339268" lon="1.916978">
        <ele>377.9</ele>
        <time>1970-01-01T01:11:22.000Z</time>
      </trkpt>
      <trkpt lat="41.33934" lon="1.91692">
        <ele>377.9</ele>
        <time>1970-01-01T01:11:23.000Z</time>
      </trkpt>
      <trkpt lat="41.33934" lon="1.91692">
        <ele>377.9</ele>
        <time>1970-01-01T01:11:24.000Z</time>
      </trkpt>
      <trkpt lat="41.339412" lon="1.916858">
        <ele>377.9</ele>
        <time>1970-01-01T01:11:25.000Z</time>
      </trkpt>
      <trkpt lat="41.339412" lon="1.916858">
        <ele>377.9</ele>
        <time>1970-01-01T01:11:26.000Z</time>
      </trkpt>
      <trkpt lat="41.339483" lon="1.916793">
        <ele>377.9</ele>
        <time>1970-01-01T01:11:27.000Z</time>
      </trkpt>
      <trkpt lat="41.339518" lon="1.91676">
        <ele>377.9</ele>
        <time>1970-01-01T01:11:28.000Z</time>
      </trkpt>
      <trkpt lat="41.339518" lon="1.91676">
        <ele>376.9</ele>
        <time>1970-01-01T01:11:29.000Z</time>
      </trkpt>
      <trkpt lat="41.339593" lon="1.916693">
        <ele>376.9</ele>
        <time>1970-01-01T01:11:30.000Z</time>
      </trkpt>
      <trkpt lat="41.339593" lon="1.916693">
        <ele>376.9</ele>
        <time>1970-01-01T01:11:31.000Z</time>
      </trkpt>
      <trkpt lat="41.339668" lon="1.916625">
        <ele>376.9</ele>
        <time>1970-01-01T01:11:32.000Z</time>
      </trkpt>
      <trkpt lat="41.339705" lon="1.916588">
        <ele>376.9</ele>
        <time>1970-01-01T01:11:33.000Z</time>
      </trkpt>
      <trkpt lat="41.339705" lon="1.916588">
        <ele>376.9</ele>
        <time>1970-01-01T01:11:34.000Z</time>
      </trkpt>
      <trkpt lat="41.339778" lon="1.916518">
        <ele>376.9</ele>
        <time>1970-01-01T01:11:35.000Z</time>
      </trkpt>
      <trkpt lat="41.339778" lon="1.916518">
        <ele>376.9</ele>
        <time>1970-01-01T01:11:36.000Z</time>
      </trkpt>
      <trkpt lat="41.339843" lon="1.91644">
        <ele>375.9</ele>
        <time>1970-01-01T01:11:37.000Z</time>
      </trkpt>
      <trkpt lat="41.339843" lon="1.91644">
        <ele>375.9</ele>
        <time>1970-01-01T01:11:38.000Z</time>
      </trkpt>
      <trkpt lat="41.339902" lon="1.91636">
        <ele>375.9</ele>
        <time>1970-01-01T01:11:39.000Z</time>
      </trkpt>
      <trkpt lat="41.339902" lon="1.91636">
        <ele>375.9</ele>
        <time>1970-01-01T01:11:40.000Z</time>
      </trkpt>
      <trkpt lat="41.339967" lon="1.916282">
        <ele>375.9</ele>
        <time>1970-01-01T01:11:41.000Z</time>
      </trkpt>
      <trkpt lat="41.339967" lon="1.916282">
        <ele>375.9</ele>
        <time>1970-01-01T01:11:42.000Z</time>
      </trkpt>
      <trkpt lat="41.340028" lon="1.916197">
        <ele>375.9</ele>
        <time>1970-01-01T01:11:43.000Z</time>
      </trkpt>
      <trkpt lat="41.340028" lon="1.916197">
        <ele>375.9</ele>
        <time>1970-01-01T01:11:44.000Z</time>
      </trkpt>
      <trkpt lat="41.340082" lon="1.916117">
        <ele>375.9</ele>
        <time>1970-01-01T01:11:45.000Z</time>
      </trkpt>
      <trkpt lat="41.340082" lon="1.916117">
        <ele>375.9</ele>
        <time>1970-01-01T01:11:46.000Z</time>
      </trkpt>
      <trkpt lat="41.340132" lon="1.916043">
        <ele>375.9</ele>
        <time>1970-01-01T01:11:47.000Z</time>
      </trkpt>
      <trkpt lat="41.340132" lon="1.916043">
        <ele>375.9</ele>
        <time>1970-01-01T01:11:48.000Z</time>
      </trkpt>
      <trkpt lat="41.340177" lon="1.915975">
        <ele>375.9</ele>
        <time>1970-01-01T01:11:49.000Z</time>
      </trkpt>
      <trkpt lat="41.340177" lon="1.915975">
        <ele>375.9</ele>
        <time>1970-01-01T01:11:50.000Z</time>
      </trkpt>
      <trkpt lat="41.34022" lon="1.915907">
        <ele>375.9</ele>
        <time>1970-01-01T01:11:51.000Z</time>
      </trkpt>
      <trkpt lat="41.34022" lon="1.915907">
        <ele>375.9</ele>
        <time>1970-01-01T01:11:52.000Z</time>
      </trkpt>
      <trkpt lat="41.340263" lon="1.915827">
        <ele>375.9</ele>
        <time>1970-01-01T01:11:53.000Z</time>
      </trkpt>
      <trkpt lat="41.340263" lon="1.915827">
        <ele>375.9</ele>
        <time>1970-01-01T01:11:54.000Z</time>
      </trkpt>
      <trkpt lat="41.340307" lon="1.91574">
        <ele>375.9</ele>
        <time>1970-01-01T01:11:55.000Z</time>
      </trkpt>
      <trkpt lat="41.340327" lon="1.915695">
        <ele>375.9</ele>
        <time>1970-01-01T01:11:56.000Z</time>
      </trkpt>
      <trkpt lat="41.340348" lon="1.915648">
        <ele>375.9</ele>
        <time>1970-01-01T01:11:57.000Z</time>
      </trkpt>
      <trkpt lat="41.340348" lon="1.915648">
        <ele>375.9</ele>
        <time>1970-01-01T01:11:58.000Z</time>
      </trkpt>
      <trkpt lat="41.340387" lon="1.915553">
        <ele>375.9</ele>
        <time>1970-01-01T01:11:59.000Z</time>
      </trkpt>
      <trkpt lat="41.34041" lon="1.915503">
        <ele>375.9</ele>
        <time>1970-01-01T01:12:00.000Z</time>
      </trkpt>
      <trkpt lat="41.34041" lon="1.915503">
        <ele>375.9</ele>
        <time>1970-01-01T01:12:01.000Z</time>
      </trkpt>
      <trkpt lat="41.340453" lon="1.915402">
        <ele>375.9</ele>
        <time>1970-01-01T01:12:02.000Z</time>
      </trkpt>
      <trkpt lat="41.340453" lon="1.915402">
        <ele>375.9</ele>
        <time>1970-01-01T01:12:03.000Z</time>
      </trkpt>
      <trkpt lat="41.34049" lon="1.9153">
        <ele>375.9</ele>
        <time>1970-01-01T01:12:04.000Z</time>
      </trkpt>
      <trkpt lat="41.34049" lon="1.9153">
        <ele>374.9</ele>
        <time>1970-01-01T01:12:05.000Z</time>
      </trkpt>
      <trkpt lat="41.340525" lon="1.9152">
        <ele>374.9</ele>
        <time>1970-01-01T01:12:06.000Z</time>
      </trkpt>
      <trkpt lat="41.340525" lon="1.9152">
        <ele>374.9</ele>
        <time>1970-01-01T01:12:07.000Z</time>
      </trkpt>
      <trkpt lat="41.340562" lon="1.915102">
        <ele>374.9</ele>
        <time>1970-01-01T01:12:08.000Z</time>
      </trkpt>
      <trkpt lat="41.340577" lon="1.915048">
        <ele>374.9</ele>
        <time>1970-01-01T01:12:09.000Z</time>
      </trkpt>
      <trkpt lat="41.340577" lon="1.915048">
        <ele>374.9</ele>
        <time>1970-01-01T01:12:10.000Z</time>
      </trkpt>
      <trkpt lat="41.340615" lon="1.914935">
        <ele>374.9</ele>
        <time>1970-01-01T01:12:11.000Z</time>
      </trkpt>
      <trkpt lat="41.340615" lon="1.914935">
        <ele>374.9</ele>
        <time>1970-01-01T01:12:12.000Z</time>
      </trkpt>
      <trkpt lat="41.34065" lon="1.914815">
        <ele>374.9</ele>
        <time>1970-01-01T01:12:13.000Z</time>
      </trkpt>
      <trkpt lat="41.34065" lon="1.914815">
        <ele>374.9</ele>
        <time>1970-01-01T01:12:14.000Z</time>
      </trkpt>
      <trkpt lat="41.340675" lon="1.914687">
        <ele>374.9</ele>
        <time>1970-01-01T01:12:15.000Z</time>
      </trkpt>
      <trkpt lat="41.340675" lon="1.914687">
        <ele>374.9</ele>
        <time>1970-01-01T01:12:16.000Z</time>
      </trkpt>
      <trkpt lat="41.3407" lon="1.914557">
        <ele>373.9</ele>
        <time>1970-01-01T01:12:17.000Z</time>
      </trkpt>
      <trkpt lat="41.3407" lon="1.914557">
        <ele>373.9</ele>
        <time>1970-01-01T01:12:18.000Z</time>
      </trkpt>
      <trkpt lat="41.340723" lon="1.914415">
        <ele>373.9</ele>
        <time>1970-01-01T01:12:19.000Z</time>
      </trkpt>
      <trkpt lat="41.340723" lon="1.914415">
        <ele>373.9</ele>
        <time>1970-01-01T01:12:20.000Z</time>
      </trkpt>
      <trkpt lat="41.340773" lon="1.914257">
        <ele>372.9</ele>
        <time>1970-01-01T01:12:21.000Z</time>
      </trkpt>
      <trkpt lat="41.340773" lon="1.914257">
        <ele>372.9</ele>
        <time>1970-01-01T01:12:22.000Z</time>
      </trkpt>
      <trkpt lat="41.340807" lon="1.914098">
        <ele>372.9</ele>
        <time>1970-01-01T01:12:23.000Z</time>
      </trkpt>
      <trkpt lat="41.340807" lon="1.914098">
        <ele>371.9</ele>
        <time>1970-01-01T01:12:24.000Z</time>
      </trkpt>
      <trkpt lat="41.340842" lon="1.913942">
        <ele>371.9</ele>
        <time>1970-01-01T01:12:25.000Z</time>
      </trkpt>
      <trkpt lat="41.340842" lon="1.913942">
        <ele>371.9</ele>
        <time>1970-01-01T01:12:26.000Z</time>
      </trkpt>
      <trkpt lat="41.340885" lon="1.913778">
        <ele>371.9</ele>
        <time>1970-01-01T01:12:27.000Z</time>
      </trkpt>
      <trkpt lat="41.340885" lon="1.913778">
        <ele>370.9</ele>
        <time>1970-01-01T01:12:28.000Z</time>
      </trkpt>
      <trkpt lat="41.340922" lon="1.913617">
        <ele>370.9</ele>
        <time>1970-01-01T01:12:29.000Z</time>
      </trkpt>
      <trkpt lat="41.340922" lon="1.913617">
        <ele>370.9</ele>
        <time>1970-01-01T01:12:30.000Z</time>
      </trkpt>
      <trkpt lat="41.340958" lon="1.913453">
        <ele>370.9</ele>
        <time>1970-01-01T01:12:31.000Z</time>
      </trkpt>
      <trkpt lat="41.340972" lon="1.91337">
        <ele>369.9</ele>
        <time>1970-01-01T01:12:32.000Z</time>
      </trkpt>
      <trkpt lat="41.340972" lon="1.91337">
        <ele>369.9</ele>
        <time>1970-01-01T01:12:33.000Z</time>
      </trkpt>
      <trkpt lat="41.340997" lon="1.91322">
        <ele>368.9</ele>
        <time>1970-01-01T01:12:34.000Z</time>
      </trkpt>
      <trkpt lat="41.341012" lon="1.913163">
        <ele>368.9</ele>
        <time>1970-01-01T01:12:35.000Z</time>
      </trkpt>
      <trkpt lat="41.341012" lon="1.913163">
        <ele>368.9</ele>
        <time>1970-01-01T01:12:36.000Z</time>
      </trkpt>
      <trkpt lat="41.341072" lon="1.913093">
        <ele>368.9</ele>
        <time>1970-01-01T01:12:37.000Z</time>
      </trkpt>
      <trkpt lat="41.341072" lon="1.913093">
        <ele>367.9</ele>
        <time>1970-01-01T01:12:38.000Z</time>
      </trkpt>
      <trkpt lat="41.34116" lon="1.913068">
        <ele>367.9</ele>
        <time>1970-01-01T01:12:39.000Z</time>
      </trkpt>
      <trkpt lat="41.34116" lon="1.913068">
        <ele>367.9</ele>
        <time>1970-01-01T01:12:40.000Z</time>
      </trkpt>
      <trkpt lat="41.34125" lon="1.91306">
        <ele>367.9</ele>
        <time>1970-01-01T01:12:41.000Z</time>
      </trkpt>
      <trkpt lat="41.34125" lon="1.91306">
        <ele>367.9</ele>
        <time>1970-01-01T01:12:42.000Z</time>
      </trkpt>
      <trkpt lat="41.341325" lon="1.913065">
        <ele>367.9</ele>
        <time>1970-01-01T01:12:43.000Z</time>
      </trkpt>
      <trkpt lat="41.341352" lon="1.913057">
        <ele>367.9</ele>
        <time>1970-01-01T01:12:44.000Z</time>
      </trkpt>
      <trkpt lat="41.341352" lon="1.913057">
        <ele>367.9</ele>
        <time>1970-01-01T01:12:45.000Z</time>
      </trkpt>
      <trkpt lat="41.341392" lon="1.91301">
        <ele>367.9</ele>
        <time>1970-01-01T01:12:46.000Z</time>
      </trkpt>
      <trkpt lat="41.341392" lon="1.91301">
        <ele>367.9</ele>
        <time>1970-01-01T01:12:47.000Z</time>
      </trkpt>
      <trkpt lat="41.341405" lon="1.912937">
        <ele>366.9</ele>
        <time>1970-01-01T01:12:48.000Z</time>
      </trkpt>
      <trkpt lat="41.341405" lon="1.912937">
        <ele>366.9</ele>
        <time>1970-01-01T01:12:49.000Z</time>
      </trkpt>
      <trkpt lat="41.341398" lon="1.912852">
        <ele>366.9</ele>
        <time>1970-01-01T01:12:50.000Z</time>
      </trkpt>
      <trkpt lat="41.341398" lon="1.912852">
        <ele>366.9</ele>
        <time>1970-01-01T01:12:51.000Z</time>
      </trkpt>
      <trkpt lat="41.341372" lon="1.912752">
        <ele>366.9</ele>
        <time>1970-01-01T01:12:52.000Z</time>
      </trkpt>
      <trkpt lat="41.341372" lon="1.912752">
        <ele>366.9</ele>
        <time>1970-01-01T01:12:53.000Z</time>
      </trkpt>
      <trkpt lat="41.34134" lon="1.912648">
        <ele>365.9</ele>
        <time>1970-01-01T01:12:54.000Z</time>
      </trkpt>
      <trkpt lat="41.34134" lon="1.912648">
        <ele>365.9</ele>
        <time>1970-01-01T01:12:55.000Z</time>
      </trkpt>
      <trkpt lat="41.34132" lon="1.912542">
        <ele>365.9</ele>
        <time>1970-01-01T01:12:56.000Z</time>
      </trkpt>
      <trkpt lat="41.341307" lon="1.912488">
        <ele>365.9</ele>
        <time>1970-01-01T01:12:57.000Z</time>
      </trkpt>
      <trkpt lat="41.341307" lon="1.912488">
        <ele>365.9</ele>
        <time>1970-01-01T01:12:58.000Z</time>
      </trkpt>
      <trkpt lat="41.34128" lon="1.91238">
        <ele>365.9</ele>
        <time>1970-01-01T01:12:59.000Z</time>
      </trkpt>
      <trkpt lat="41.341273" lon="1.912323">
        <ele>365.9</ele>
        <time>1970-01-01T01:13:00.000Z</time>
      </trkpt>
      <trkpt lat="41.341273" lon="1.912323">
        <ele>365.9</ele>
        <time>1970-01-01T01:13:01.000Z</time>
      </trkpt>
      <trkpt lat="41.341262" lon="1.912202">
        <ele>365.9</ele>
        <time>1970-01-01T01:13:02.000Z</time>
      </trkpt>
      <trkpt lat="41.341262" lon="1.91214">
        <ele>365.9</ele>
        <time>1970-01-01T01:13:03.000Z</time>
      </trkpt>
      <trkpt lat="41.341262" lon="1.91214">
        <ele>365.9</ele>
        <time>1970-01-01T01:13:04.000Z</time>
      </trkpt>
      <trkpt lat="41.341262" lon="1.912018">
        <ele>365.9</ele>
        <time>1970-01-01T01:13:05.000Z</time>
      </trkpt>
      <trkpt lat="41.341262" lon="1.912018">
        <ele>365.9</ele>
        <time>1970-01-01T01:13:06.000Z</time>
      </trkpt>
      <trkpt lat="41.341265" lon="1.911902">
        <ele>365.9</ele>
        <time>1970-01-01T01:13:07.000Z</time>
      </trkpt>
      <trkpt lat="41.341265" lon="1.911902">
        <ele>365.9</ele>
        <time>1970-01-01T01:13:08.000Z</time>
      </trkpt>
      <trkpt lat="41.34128" lon="1.911782">
        <ele>364.9</ele>
        <time>1970-01-01T01:13:09.000Z</time>
      </trkpt>
      <trkpt lat="41.34128" lon="1.911782">
        <ele>364.9</ele>
        <time>1970-01-01T01:13:10.000Z</time>
      </trkpt>
      <trkpt lat="41.341293" lon="1.911663">
        <ele>364.9</ele>
        <time>1970-01-01T01:13:11.000Z</time>
      </trkpt>
      <trkpt lat="41.341293" lon="1.911663">
        <ele>364.9</ele>
        <time>1970-01-01T01:13:12.000Z</time>
      </trkpt>
      <trkpt lat="41.341317" lon="1.911557">
        <ele>364.9</ele>
        <time>1970-01-01T01:13:13.000Z</time>
      </trkpt>
      <trkpt lat="41.341333" lon="1.9115">
        <ele>364.9</ele>
        <time>1970-01-01T01:13:14.000Z</time>
      </trkpt>
      <trkpt lat="41.34135" lon="1.911443">
        <ele>364.9</ele>
        <time>1970-01-01T01:13:15.000Z</time>
      </trkpt>
      <trkpt lat="41.34135" lon="1.911443">
        <ele>364.9</ele>
        <time>1970-01-01T01:13:16.000Z</time>
      </trkpt>
      <trkpt lat="41.341367" lon="1.911328">
        <ele>363.9</ele>
        <time>1970-01-01T01:13:17.000Z</time>
      </trkpt>
      <trkpt lat="41.341375" lon="1.91127">
        <ele>363.9</ele>
        <time>1970-01-01T01:13:18.000Z</time>
      </trkpt>
      <trkpt lat="41.341375" lon="1.91127">
        <ele>363.9</ele>
        <time>1970-01-01T01:13:19.000Z</time>
      </trkpt>
      <trkpt lat="41.341382" lon="1.911152">
        <ele>363.9</ele>
        <time>1970-01-01T01:13:20.000Z</time>
      </trkpt>
      <trkpt lat="41.341385" lon="1.911095">
        <ele>363.9</ele>
        <time>1970-01-01T01:13:21.000Z</time>
      </trkpt>
      <trkpt lat="41.341385" lon="1.911095">
        <ele>363.9</ele>
        <time>1970-01-01T01:13:22.000Z</time>
      </trkpt>
      <trkpt lat="41.341387" lon="1.910982">
        <ele>363.9</ele>
        <time>1970-01-01T01:13:23.000Z</time>
      </trkpt>
      <trkpt lat="41.341387" lon="1.910982">
        <ele>363.9</ele>
        <time>1970-01-01T01:13:24.000Z</time>
      </trkpt>
      <trkpt lat="41.341388" lon="1.910868">
        <ele>363.9</ele>
        <time>1970-01-01T01:13:25.000Z</time>
      </trkpt>
      <trkpt lat="41.341393" lon="1.910808">
        <ele>363.9</ele>
        <time>1970-01-01T01:13:26.000Z</time>
      </trkpt>
      <trkpt lat="41.341398" lon="1.910748">
        <ele>363.9</ele>
        <time>1970-01-01T01:13:27.000Z</time>
      </trkpt>
      <trkpt lat="41.341398" lon="1.910748">
        <ele>363.9</ele>
        <time>1970-01-01T01:13:28.000Z</time>
      </trkpt>
      <trkpt lat="41.341405" lon="1.910623">
        <ele>363.9</ele>
        <time>1970-01-01T01:13:29.000Z</time>
      </trkpt>
      <trkpt lat="41.341415" lon="1.910558">
        <ele>363.9</ele>
        <time>1970-01-01T01:13:30.000Z</time>
      </trkpt>
      <trkpt lat="41.341415" lon="1.910558">
        <ele>363.9</ele>
        <time>1970-01-01T01:13:31.000Z</time>
      </trkpt>
      <trkpt lat="41.341443" lon="1.910438">
        <ele>363.9</ele>
        <time>1970-01-01T01:13:32.000Z</time>
      </trkpt>
      <trkpt lat="41.341465" lon="1.910392">
        <ele>363.9</ele>
        <time>1970-01-01T01:13:33.000Z</time>
      </trkpt>
      <trkpt lat="41.341465" lon="1.910392">
        <ele>363.9</ele>
        <time>1970-01-01T01:13:34.000Z</time>
      </trkpt>
      <trkpt lat="41.341533" lon="1.910325">
        <ele>363.9</ele>
        <time>1970-01-01T01:13:35.000Z</time>
      </trkpt>
      <trkpt lat="41.341533" lon="1.910325">
        <ele>363.9</ele>
        <time>1970-01-01T01:13:36.000Z</time>
      </trkpt>
      <trkpt lat="41.341617" lon="1.910322">
        <ele>363.9</ele>
        <time>1970-01-01T01:13:37.000Z</time>
      </trkpt>
      <trkpt lat="41.341652" lon="1.910333">
        <ele>363.9</ele>
        <time>1970-01-01T01:13:38.000Z</time>
      </trkpt>
      <trkpt lat="41.341652" lon="1.910333">
        <ele>363.9</ele>
        <time>1970-01-01T01:13:39.000Z</time>
      </trkpt>
      <trkpt lat="41.341725" lon="1.910342">
        <ele>363.9</ele>
        <time>1970-01-01T01:13:40.000Z</time>
      </trkpt>
      <trkpt lat="41.341725" lon="1.910342">
        <ele>363.9</ele>
        <time>1970-01-01T01:13:41.000Z</time>
      </trkpt>
      <trkpt lat="41.341785" lon="1.910328">
        <ele>363.9</ele>
        <time>1970-01-01T01:13:42.000Z</time>
      </trkpt>
      <trkpt lat="41.341785" lon="1.910328">
        <ele>363.9</ele>
        <time>1970-01-01T01:13:43.000Z</time>
      </trkpt>
      <trkpt lat="41.341833" lon="1.910288">
        <ele>363.9</ele>
        <time>1970-01-01T01:13:44.000Z</time>
      </trkpt>
      <trkpt lat="41.341855" lon="1.91026">
        <ele>363.9</ele>
        <time>1970-01-01T01:13:45.000Z</time>
      </trkpt>
      <trkpt lat="41.341855" lon="1.91026">
        <ele>363.9</ele>
        <time>1970-01-01T01:13:46.000Z</time>
      </trkpt>
      <trkpt lat="41.341892" lon="1.910197">
        <ele>363.9</ele>
        <time>1970-01-01T01:13:47.000Z</time>
      </trkpt>
      <trkpt lat="41.341892" lon="1.910197">
        <ele>363.9</ele>
        <time>1970-01-01T01:13:48.000Z</time>
      </trkpt>
      <trkpt lat="41.341927" lon="1.91013">
        <ele>364.9</ele>
        <time>1970-01-01T01:13:49.000Z</time>
      </trkpt>
      <trkpt lat="41.341927" lon="1.91013">
        <ele>364.9</ele>
        <time>1970-01-01T01:13:50.000Z</time>
      </trkpt>
      <trkpt lat="41.341957" lon="1.910055">
        <ele>364.9</ele>
        <time>1970-01-01T01:13:51.000Z</time>
      </trkpt>
      <trkpt lat="41.341957" lon="1.910055">
        <ele>364.9</ele>
        <time>1970-01-01T01:13:52.000Z</time>
      </trkpt>
      <trkpt lat="41.341985" lon="1.909972">
        <ele>364.9</ele>
        <time>1970-01-01T01:13:53.000Z</time>
      </trkpt>
      <trkpt lat="41.341985" lon="1.909972">
        <ele>364.9</ele>
        <time>1970-01-01T01:13:54.000Z</time>
      </trkpt>
      <trkpt lat="41.34201" lon="1.909882">
        <ele>364.9</ele>
        <time>1970-01-01T01:13:55.000Z</time>
      </trkpt>
      <trkpt lat="41.34201" lon="1.909882">
        <ele>364.9</ele>
        <time>1970-01-01T01:13:56.000Z</time>
      </trkpt>
      <trkpt lat="41.342018" lon="1.909782">
        <ele>364.9</ele>
        <time>1970-01-01T01:13:57.000Z</time>
      </trkpt>
      <trkpt lat="41.342018" lon="1.909782">
        <ele>364.9</ele>
        <time>1970-01-01T01:13:58.000Z</time>
      </trkpt>
      <trkpt lat="41.342022" lon="1.90969">
        <ele>364.9</ele>
        <time>1970-01-01T01:13:59.000Z</time>
      </trkpt>
      <trkpt lat="41.342022" lon="1.90969">
        <ele>365.9</ele>
        <time>1970-01-01T01:14:00.000Z</time>
      </trkpt>
      <trkpt lat="41.342027" lon="1.909597">
        <ele>365.9</ele>
        <time>1970-01-01T01:14:01.000Z</time>
      </trkpt>
      <trkpt lat="41.34203" lon="1.909552">
        <ele>365.9</ele>
        <time>1970-01-01T01:14:02.000Z</time>
      </trkpt>
      <trkpt lat="41.34203" lon="1.909552">
        <ele>365.9</ele>
        <time>1970-01-01T01:14:03.000Z</time>
      </trkpt>
      <trkpt lat="41.342043" lon="1.909468">
        <ele>365.9</ele>
        <time>1970-01-01T01:14:04.000Z</time>
      </trkpt>
      <trkpt lat="41.342043" lon="1.909468">
        <ele>365.9</ele>
        <time>1970-01-01T01:14:05.000Z</time>
      </trkpt>
      <trkpt lat="41.342055" lon="1.909373">
        <ele>365.9</ele>
        <time>1970-01-01T01:14:06.000Z</time>
      </trkpt>
      <trkpt lat="41.342055" lon="1.909373">
        <ele>365.9</ele>
        <time>1970-01-01T01:14:07.000Z</time>
      </trkpt>
      <trkpt lat="41.342078" lon="1.909275">
        <ele>365.9</ele>
        <time>1970-01-01T01:14:08.000Z</time>
      </trkpt>
      <trkpt lat="41.342078" lon="1.909275">
        <ele>365.9</ele>
        <time>1970-01-01T01:14:09.000Z</time>
      </trkpt>
      <trkpt lat="41.342102" lon="1.909182">
        <ele>365.9</ele>
        <time>1970-01-01T01:14:10.000Z</time>
      </trkpt>
      <trkpt lat="41.342102" lon="1.909182">
        <ele>365.9</ele>
        <time>1970-01-01T01:14:11.000Z</time>
      </trkpt>
      <trkpt lat="41.342118" lon="1.90909">
        <ele>365.9</ele>
        <time>1970-01-01T01:14:12.000Z</time>
      </trkpt>
      <trkpt lat="41.342118" lon="1.90909">
        <ele>365.9</ele>
        <time>1970-01-01T01:14:13.000Z</time>
      </trkpt>
      <trkpt lat="41.342137" lon="1.908998">
        <ele>365.9</ele>
        <time>1970-01-01T01:14:14.000Z</time>
      </trkpt>
      <trkpt lat="41.342152" lon="1.908952">
        <ele>365.9</ele>
        <time>1970-01-01T01:14:15.000Z</time>
      </trkpt>
      <trkpt lat="41.342152" lon="1.908952">
        <ele>365.9</ele>
        <time>1970-01-01T01:14:16.000Z</time>
      </trkpt>
      <trkpt lat="41.342172" lon="1.908855">
        <ele>365.9</ele>
        <time>1970-01-01T01:14:17.000Z</time>
      </trkpt>
      <trkpt lat="41.342172" lon="1.908855">
        <ele>365.9</ele>
        <time>1970-01-01T01:14:18.000Z</time>
      </trkpt>
      <trkpt lat="41.34219" lon="1.908757">
        <ele>365.9</ele>
        <time>1970-01-01T01:14:19.000Z</time>
      </trkpt>
      <trkpt lat="41.342202" lon="1.908707">
        <ele>365.9</ele>
        <time>1970-01-01T01:14:20.000Z</time>
      </trkpt>
      <trkpt lat="41.342202" lon="1.908707">
        <ele>365.9</ele>
        <time>1970-01-01T01:14:21.000Z</time>
      </trkpt>
      <trkpt lat="41.342232" lon="1.908605">
        <ele>365.9</ele>
        <time>1970-01-01T01:14:22.000Z</time>
      </trkpt>
      <trkpt lat="41.342232" lon="1.908605">
        <ele>365.9</ele>
        <time>1970-01-01T01:14:23.000Z</time>
      </trkpt>
      <trkpt lat="41.34228" lon="1.908512">
        <ele>365.9</ele>
        <time>1970-01-01T01:14:24.000Z</time>
      </trkpt>
      <trkpt lat="41.34228" lon="1.908512">
        <ele>365.9</ele>
        <time>1970-01-01T01:14:25.000Z</time>
      </trkpt>
      <trkpt lat="41.342333" lon="1.908413">
        <ele>365.9</ele>
        <time>1970-01-01T01:14:26.000Z</time>
      </trkpt>
      <trkpt lat="41.34236" lon="1.908375">
        <ele>365.9</ele>
        <time>1970-01-01T01:14:27.000Z</time>
      </trkpt>
      <trkpt lat="41.34236" lon="1.908375">
        <ele>365.9</ele>
        <time>1970-01-01T01:14:28.000Z</time>
      </trkpt>
      <trkpt lat="41.342425" lon="1.908303">
        <ele>365.9</ele>
        <time>1970-01-01T01:14:29.000Z</time>
      </trkpt>
      <trkpt lat="41.342425" lon="1.908303">
        <ele>365.9</ele>
        <time>1970-01-01T01:14:30.000Z</time>
      </trkpt>
      <trkpt lat="41.34249" lon="1.908235">
        <ele>365.9</ele>
        <time>1970-01-01T01:14:31.000Z</time>
      </trkpt>
      <trkpt lat="41.34249" lon="1.908235">
        <ele>365.9</ele>
        <time>1970-01-01T01:14:32.000Z</time>
      </trkpt>
      <trkpt lat="41.34254" lon="1.908175">
        <ele>365.9</ele>
        <time>1970-01-01T01:14:33.000Z</time>
      </trkpt>
      <trkpt lat="41.34254" lon="1.908175">
        <ele>365.9</ele>
        <time>1970-01-01T01:14:34.000Z</time>
      </trkpt>
      <trkpt lat="41.342582" lon="1.908123">
        <ele>366.9</ele>
        <time>1970-01-01T01:14:35.000Z</time>
      </trkpt>
      <trkpt lat="41.342598" lon="1.908098">
        <ele>366.9</ele>
        <time>1970-01-01T01:14:36.000Z</time>
      </trkpt>
      <trkpt lat="41.342598" lon="1.908098">
        <ele>366.9</ele>
        <time>1970-01-01T01:14:37.000Z</time>
      </trkpt>
      <trkpt lat="41.342627" lon="1.908052">
        <ele>366.9</ele>
        <time>1970-01-01T01:14:38.000Z</time>
      </trkpt>
      <trkpt lat="41.342645" lon="1.90803">
        <ele>366.9</ele>
        <time>1970-01-01T01:14:39.000Z</time>
      </trkpt>
      <trkpt lat="41.342645" lon="1.90803">
        <ele>367.9</ele>
        <time>1970-01-01T01:14:40.000Z</time>
      </trkpt>
      <trkpt lat="41.342678" lon="1.907985">
        <ele>367.9</ele>
        <time>1970-01-01T01:14:41.000Z</time>
      </trkpt>
      <trkpt lat="41.342692" lon="1.907962">
        <ele>367.9</ele>
        <time>1970-01-01T01:14:42.000Z</time>
      </trkpt>
      <trkpt lat="41.342692" lon="1.907962">
        <ele>367.9</ele>
        <time>1970-01-01T01:14:43.000Z</time>
      </trkpt>
      <trkpt lat="41.342715" lon="1.907922">
        <ele>368.9</ele>
        <time>1970-01-01T01:14:44.000Z</time>
      </trkpt>
      <trkpt lat="41.342715" lon="1.907922">
        <ele>368.9</ele>
        <time>1970-01-01T01:14:45.000Z</time>
      </trkpt>
      <trkpt lat="41.342745" lon="1.907867">
        <ele>368.9</ele>
        <time>1970-01-01T01:14:46.000Z</time>
      </trkpt>
      <trkpt lat="41.342745" lon="1.907867">
        <ele>368.9</ele>
        <time>1970-01-01T01:14:47.000Z</time>
      </trkpt>
      <trkpt lat="41.342763" lon="1.907808">
        <ele>368.9</ele>
        <time>1970-01-01T01:14:48.000Z</time>
      </trkpt>
      <trkpt lat="41.342763" lon="1.907808">
        <ele>368.9</ele>
        <time>1970-01-01T01:14:49.000Z</time>
      </trkpt>
      <trkpt lat="41.342793" lon="1.907745">
        <ele>369.9</ele>
        <time>1970-01-01T01:14:50.000Z</time>
      </trkpt>
      <trkpt lat="41.342805" lon="1.907717">
        <ele>369.9</ele>
        <time>1970-01-01T01:14:51.000Z</time>
      </trkpt>
      <trkpt lat="41.342805" lon="1.907717">
        <ele>369.9</ele>
        <time>1970-01-01T01:14:52.000Z</time>
      </trkpt>
      <trkpt lat="41.342828" lon="1.907648">
        <ele>369.9</ele>
        <time>1970-01-01T01:14:53.000Z</time>
      </trkpt>
      <trkpt lat="41.342832" lon="1.907613">
        <ele>369.9</ele>
        <time>1970-01-01T01:14:54.000Z</time>
      </trkpt>
      <trkpt lat="41.342832" lon="1.907613">
        <ele>369.9</ele>
        <time>1970-01-01T01:14:55.000Z</time>
      </trkpt>
      <trkpt lat="41.342835" lon="1.907548">
        <ele>370.9</ele>
        <time>1970-01-01T01:14:56.000Z</time>
      </trkpt>
      <trkpt lat="41.342838" lon="1.907518">
        <ele>370.9</ele>
        <time>1970-01-01T01:14:57.000Z</time>
      </trkpt>
      <trkpt lat="41.342838" lon="1.907518">
        <ele>370.9</ele>
        <time>1970-01-01T01:14:58.000Z</time>
      </trkpt>
      <trkpt lat="41.342853" lon="1.907442">
        <ele>370.9</ele>
        <time>1970-01-01T01:14:59.000Z</time>
      </trkpt>
      <trkpt lat="41.342853" lon="1.907442">
        <ele>370.9</ele>
        <time>1970-01-01T01:15:00.000Z</time>
      </trkpt>
      <trkpt lat="41.342863" lon="1.90738">
        <ele>370.9</ele>
        <time>1970-01-01T01:15:01.000Z</time>
      </trkpt>
      <trkpt lat="41.342863" lon="1.90738">
        <ele>370.9</ele>
        <time>1970-01-01T01:15:02.000Z</time>
      </trkpt>
      <trkpt lat="41.342867" lon="1.907317">
        <ele>370.9</ele>
        <time>1970-01-01T01:15:03.000Z</time>
      </trkpt>
      <trkpt lat="41.342867" lon="1.907317">
        <ele>370.9</ele>
        <time>1970-01-01T01:15:04.000Z</time>
      </trkpt>
      <trkpt lat="41.342872" lon="1.90724">
        <ele>370.9</ele>
        <time>1970-01-01T01:15:05.000Z</time>
      </trkpt>
      <trkpt lat="41.342872" lon="1.90724">
        <ele>371.9</ele>
        <time>1970-01-01T01:15:06.000Z</time>
      </trkpt>
      <trkpt lat="41.342875" lon="1.907163">
        <ele>371.9</ele>
        <time>1970-01-01T01:15:07.000Z</time>
      </trkpt>
      <trkpt lat="41.342875" lon="1.907163">
        <ele>371.9</ele>
        <time>1970-01-01T01:15:08.000Z</time>
      </trkpt>
      <trkpt lat="41.34288" lon="1.90707">
        <ele>371.9</ele>
        <time>1970-01-01T01:15:09.000Z</time>
      </trkpt>
      <trkpt lat="41.34288" lon="1.90707">
        <ele>371.9</ele>
        <time>1970-01-01T01:15:10.000Z</time>
      </trkpt>
      <trkpt lat="41.342873" lon="1.906975">
        <ele>371.9</ele>
        <time>1970-01-01T01:15:11.000Z</time>
      </trkpt>
      <trkpt lat="41.342873" lon="1.906925">
        <ele>371.9</ele>
        <time>1970-01-01T01:15:12.000Z</time>
      </trkpt>
      <trkpt lat="41.342873" lon="1.906925">
        <ele>371.9</ele>
        <time>1970-01-01T01:15:13.000Z</time>
      </trkpt>
      <trkpt lat="41.342872" lon="1.906825">
        <ele>371.9</ele>
        <time>1970-01-01T01:15:14.000Z</time>
      </trkpt>
      <trkpt lat="41.342878" lon="1.906767">
        <ele>371.9</ele>
        <time>1970-01-01T01:15:15.000Z</time>
      </trkpt>
      <trkpt lat="41.342878" lon="1.906767">
        <ele>371.9</ele>
        <time>1970-01-01T01:15:16.000Z</time>
      </trkpt>
      <trkpt lat="41.342877" lon="1.906658">
        <ele>371.9</ele>
        <time>1970-01-01T01:15:17.000Z</time>
      </trkpt>
      <trkpt lat="41.342877" lon="1.906658">
        <ele>371.9</ele>
        <time>1970-01-01T01:15:18.000Z</time>
      </trkpt>
      <trkpt lat="41.342863" lon="1.906557">
        <ele>371.9</ele>
        <time>1970-01-01T01:15:19.000Z</time>
      </trkpt>
      <trkpt lat="41.342863" lon="1.906557">
        <ele>371.9</ele>
        <time>1970-01-01T01:15:20.000Z</time>
      </trkpt>
      <trkpt lat="41.342855" lon="1.906455">
        <ele>371.9</ele>
        <time>1970-01-01T01:15:21.000Z</time>
      </trkpt>
      <trkpt lat="41.342855" lon="1.906455">
        <ele>371.9</ele>
        <time>1970-01-01T01:15:22.000Z</time>
      </trkpt>
      <trkpt lat="41.342845" lon="1.90636">
        <ele>371.9</ele>
        <time>1970-01-01T01:15:23.000Z</time>
      </trkpt>
      <trkpt lat="41.342845" lon="1.90636">
        <ele>371.9</ele>
        <time>1970-01-01T01:15:24.000Z</time>
      </trkpt>
      <trkpt lat="41.342827" lon="1.906262">
        <ele>371.9</ele>
        <time>1970-01-01T01:15:25.000Z</time>
      </trkpt>
      <trkpt lat="41.342827" lon="1.906262">
        <ele>371.9</ele>
        <time>1970-01-01T01:15:26.000Z</time>
      </trkpt>
      <trkpt lat="41.342812" lon="1.906158">
        <ele>371.9</ele>
        <time>1970-01-01T01:15:27.000Z</time>
      </trkpt>
      <trkpt lat="41.342812" lon="1.906158">
        <ele>371.9</ele>
        <time>1970-01-01T01:15:28.000Z</time>
      </trkpt>
      <trkpt lat="41.342787" lon="1.906062">
        <ele>372.9</ele>
        <time>1970-01-01T01:15:29.000Z</time>
      </trkpt>
      <trkpt lat="41.342787" lon="1.906062">
        <ele>372.9</ele>
        <time>1970-01-01T01:15:30.000Z</time>
      </trkpt>
      <trkpt lat="41.34276" lon="1.905957">
        <ele>372.9</ele>
        <time>1970-01-01T01:15:31.000Z</time>
      </trkpt>
      <trkpt lat="41.34276" lon="1.905957">
        <ele>372.9</ele>
        <time>1970-01-01T01:15:32.000Z</time>
      </trkpt>
      <trkpt lat="41.342745" lon="1.905857">
        <ele>372.9</ele>
        <time>1970-01-01T01:15:33.000Z</time>
      </trkpt>
      <trkpt lat="41.342745" lon="1.905857">
        <ele>372.9</ele>
        <time>1970-01-01T01:15:34.000Z</time>
      </trkpt>
      <trkpt lat="41.342732" lon="1.90576">
        <ele>372.9</ele>
        <time>1970-01-01T01:15:35.000Z</time>
      </trkpt>
      <trkpt lat="41.342732" lon="1.90576">
        <ele>372.9</ele>
        <time>1970-01-01T01:15:36.000Z</time>
      </trkpt>
      <trkpt lat="41.342722" lon="1.905663">
        <ele>372.9</ele>
        <time>1970-01-01T01:15:37.000Z</time>
      </trkpt>
      <trkpt lat="41.342722" lon="1.905663">
        <ele>372.9</ele>
        <time>1970-01-01T01:15:38.000Z</time>
      </trkpt>
      <trkpt lat="41.342725" lon="1.90556">
        <ele>372.9</ele>
        <time>1970-01-01T01:15:39.000Z</time>
      </trkpt>
      <trkpt lat="41.342725" lon="1.90556">
        <ele>372.9</ele>
        <time>1970-01-01T01:15:40.000Z</time>
      </trkpt>
      <trkpt lat="41.342743" lon="1.905463">
        <ele>372.9</ele>
        <time>1970-01-01T01:15:41.000Z</time>
      </trkpt>
      <trkpt lat="41.342743" lon="1.905463">
        <ele>372.9</ele>
        <time>1970-01-01T01:15:42.000Z</time>
      </trkpt>
      <trkpt lat="41.342785" lon="1.905385">
        <ele>372.9</ele>
        <time>1970-01-01T01:15:43.000Z</time>
      </trkpt>
      <trkpt lat="41.342812" lon="1.905357">
        <ele>372.9</ele>
        <time>1970-01-01T01:15:44.000Z</time>
      </trkpt>
      <trkpt lat="41.342812" lon="1.905357">
        <ele>372.9</ele>
        <time>1970-01-01T01:15:45.000Z</time>
      </trkpt>
      <trkpt lat="41.342877" lon="1.90532">
        <ele>372.9</ele>
        <time>1970-01-01T01:15:46.000Z</time>
      </trkpt>
      <trkpt lat="41.342877" lon="1.90532">
        <ele>373.9</ele>
        <time>1970-01-01T01:15:47.000Z</time>
      </trkpt>
      <trkpt lat="41.34294" lon="1.9053">
        <ele>373.9</ele>
        <time>1970-01-01T01:15:48.000Z</time>
      </trkpt>
      <trkpt lat="41.34297" lon="1.905293">
        <ele>373.9</ele>
        <time>1970-01-01T01:15:49.000Z</time>
      </trkpt>
      <trkpt lat="41.34297" lon="1.905293">
        <ele>373.9</ele>
        <time>1970-01-01T01:15:50.000Z</time>
      </trkpt>
      <trkpt lat="41.343022" lon="1.905303">
        <ele>373.9</ele>
        <time>1970-01-01T01:15:51.000Z</time>
      </trkpt>
      <trkpt lat="41.343022" lon="1.905303">
        <ele>373.9</ele>
        <time>1970-01-01T01:15:52.000Z</time>
      </trkpt>
      <trkpt lat="41.343065" lon="1.905313">
        <ele>373.9</ele>
        <time>1970-01-01T01:15:53.000Z</time>
      </trkpt>
      <trkpt lat="41.343065" lon="1.905313">
        <ele>373.9</ele>
        <time>1970-01-01T01:15:54.000Z</time>
      </trkpt>
      <trkpt lat="41.343098" lon="1.90534">
        <ele>373.9</ele>
        <time>1970-01-01T01:15:55.000Z</time>
      </trkpt>
      <trkpt lat="41.343118" lon="1.90536">
        <ele>373.9</ele>
        <time>1970-01-01T01:15:56.000Z</time>
      </trkpt>
      <trkpt lat="41.343118" lon="1.90536">
        <ele>375.9</ele>
        <time>1970-01-01T01:15:57.000Z</time>
      </trkpt>
      <trkpt lat="41.34315" lon="1.905403">
        <ele>375.9</ele>
        <time>1970-01-01T01:15:58.000Z</time>
      </trkpt>
      <trkpt lat="41.34315" lon="1.905403">
        <ele>375.9</ele>
        <time>1970-01-01T01:15:59.000Z</time>
      </trkpt>
      <trkpt lat="41.343175" lon="1.905452">
        <ele>375.9</ele>
        <time>1970-01-01T01:16:00.000Z</time>
      </trkpt>
      <trkpt lat="41.343175" lon="1.905452">
        <ele>376.9</ele>
        <time>1970-01-01T01:16:01.000Z</time>
      </trkpt>
      <trkpt lat="41.343193" lon="1.905485">
        <ele>376.9</ele>
        <time>1970-01-01T01:16:02.000Z</time>
      </trkpt>
      <trkpt lat="41.343203" lon="1.9055">
        <ele>376.9</ele>
        <time>1970-01-01T01:16:03.000Z</time>
      </trkpt>
      <trkpt lat="41.343203" lon="1.9055">
        <ele>376.9</ele>
        <time>1970-01-01T01:16:04.000Z</time>
      </trkpt>
      <trkpt lat="41.343223" lon="1.905538">
        <ele>376.9</ele>
        <time>1970-01-01T01:16:05.000Z</time>
      </trkpt>
      <trkpt lat="41.343237" lon="1.90556">
        <ele>376.9</ele>
        <time>1970-01-01T01:16:06.000Z</time>
      </trkpt>
      <trkpt lat="41.343237" lon="1.90556">
        <ele>376.9</ele>
        <time>1970-01-01T01:16:07.000Z</time>
      </trkpt>
      <trkpt lat="41.343262" lon="1.905607">
        <ele>376.9</ele>
        <time>1970-01-01T01:16:08.000Z</time>
      </trkpt>
      <trkpt lat="41.343275" lon="1.905632">
        <ele>376.9</ele>
        <time>1970-01-01T01:16:09.000Z</time>
      </trkpt>
      <trkpt lat="41.343275" lon="1.905632">
        <ele>377.9</ele>
        <time>1970-01-01T01:16:10.000Z</time>
      </trkpt>
      <trkpt lat="41.343297" lon="1.90568">
        <ele>377.9</ele>
        <time>1970-01-01T01:16:11.000Z</time>
      </trkpt>
      <trkpt lat="41.343297" lon="1.90568">
        <ele>377.9</ele>
        <time>1970-01-01T01:16:12.000Z</time>
      </trkpt>
      <trkpt lat="41.34331" lon="1.90573">
        <ele>377.9</ele>
        <time>1970-01-01T01:16:13.000Z</time>
      </trkpt>
      <trkpt lat="41.343317" lon="1.905755">
        <ele>378.9</ele>
        <time>1970-01-01T01:16:14.000Z</time>
      </trkpt>
      <trkpt lat="41.343317" lon="1.905755">
        <ele>378.9</ele>
        <time>1970-01-01T01:16:15.000Z</time>
      </trkpt>
      <trkpt lat="41.343333" lon="1.9058">
        <ele>378.9</ele>
        <time>1970-01-01T01:16:16.000Z</time>
      </trkpt>
      <trkpt lat="41.343333" lon="1.9058">
        <ele>378.9</ele>
        <time>1970-01-01T01:16:17.000Z</time>
      </trkpt>
      <trkpt lat="41.343358" lon="1.905853">
        <ele>379.9</ele>
        <time>1970-01-01T01:16:18.000Z</time>
      </trkpt>
      <trkpt lat="41.343358" lon="1.905853">
        <ele>379.9</ele>
        <time>1970-01-01T01:16:19.000Z</time>
      </trkpt>
      <trkpt lat="41.34337" lon="1.90591">
        <ele>379.9</ele>
        <time>1970-01-01T01:16:20.000Z</time>
      </trkpt>
      <trkpt lat="41.34337" lon="1.905937">
        <ele>379.9</ele>
        <time>1970-01-01T01:16:21.000Z</time>
      </trkpt>
      <trkpt lat="41.34337" lon="1.905937">
        <ele>379.9</ele>
        <time>1970-01-01T01:16:22.000Z</time>
      </trkpt>
      <trkpt lat="41.343387" lon="1.905988">
        <ele>379.9</ele>
        <time>1970-01-01T01:16:23.000Z</time>
      </trkpt>
      <trkpt lat="41.3434" lon="1.906013">
        <ele>380.9</ele>
        <time>1970-01-01T01:16:24.000Z</time>
      </trkpt>
      <trkpt lat="41.3434" lon="1.906013">
        <ele>380.9</ele>
        <time>1970-01-01T01:16:25.000Z</time>
      </trkpt>
      <trkpt lat="41.343418" lon="1.906065">
        <ele>381.9</ele>
        <time>1970-01-01T01:16:26.000Z</time>
      </trkpt>
      <trkpt lat="41.34343" lon="1.906093">
        <ele>381.9</ele>
        <time>1970-01-01T01:16:27.000Z</time>
      </trkpt>
      <trkpt lat="41.34343" lon="1.906093">
        <ele>381.9</ele>
        <time>1970-01-01T01:16:28.000Z</time>
      </trkpt>
      <trkpt lat="41.343445" lon="1.906142">
        <ele>381.9</ele>
        <time>1970-01-01T01:16:29.000Z</time>
      </trkpt>
      <trkpt lat="41.343453" lon="1.906167">
        <ele>382.9</ele>
        <time>1970-01-01T01:16:30.000Z</time>
      </trkpt>
      <trkpt lat="41.343453" lon="1.906167">
        <ele>382.9</ele>
        <time>1970-01-01T01:16:31.000Z</time>
      </trkpt>
      <trkpt lat="41.343465" lon="1.906223">
        <ele>382.9</ele>
        <time>1970-01-01T01:16:32.000Z</time>
      </trkpt>
      <trkpt lat="41.343465" lon="1.906223">
        <ele>382.9</ele>
        <time>1970-01-01T01:16:33.000Z</time>
      </trkpt>
      <trkpt lat="41.343473" lon="1.906273">
        <ele>383.9</ele>
        <time>1970-01-01T01:16:34.000Z</time>
      </trkpt>
      <trkpt lat="41.343473" lon="1.906273">
        <ele>383.9</ele>
        <time>1970-01-01T01:16:35.000Z</time>
      </trkpt>
      <trkpt lat="41.343488" lon="1.906317">
        <ele>383.9</ele>
        <time>1970-01-01T01:16:36.000Z</time>
      </trkpt>
      <trkpt lat="41.343488" lon="1.906317">
        <ele>383.9</ele>
        <time>1970-01-01T01:16:37.000Z</time>
      </trkpt>
      <trkpt lat="41.343502" lon="1.906365">
        <ele>383.9</ele>
        <time>1970-01-01T01:16:38.000Z</time>
      </trkpt>
      <trkpt lat="41.343512" lon="1.90639">
        <ele>383.9</ele>
        <time>1970-01-01T01:16:39.000Z</time>
      </trkpt>
      <trkpt lat="41.343512" lon="1.90639">
        <ele>384.9</ele>
        <time>1970-01-01T01:16:40.000Z</time>
      </trkpt>
      <trkpt lat="41.34352" lon="1.90644">
        <ele>384.9</ele>
        <time>1970-01-01T01:16:41.000Z</time>
      </trkpt>
      <trkpt lat="41.34352" lon="1.90644">
        <ele>384.9</ele>
        <time>1970-01-01T01:16:42.000Z</time>
      </trkpt>
      <trkpt lat="41.343543" lon="1.906477">
        <ele>384.9</ele>
        <time>1970-01-01T01:16:43.000Z</time>
      </trkpt>
      <trkpt lat="41.343547" lon="1.9065">
        <ele>385.9</ele>
        <time>1970-01-01T01:16:44.000Z</time>
      </trkpt>
      <trkpt lat="41.343547" lon="1.9065">
        <ele>385.9</ele>
        <time>1970-01-01T01:16:45.000Z</time>
      </trkpt>
      <trkpt lat="41.343557" lon="1.906542">
        <ele>385.9</ele>
        <time>1970-01-01T01:16:46.000Z</time>
      </trkpt>
      <trkpt lat="41.343557" lon="1.906542">
        <ele>385.9</ele>
        <time>1970-01-01T01:16:47.000Z</time>
      </trkpt>
      <trkpt lat="41.343578" lon="1.906597">
        <ele>385.9</ele>
        <time>1970-01-01T01:16:48.000Z</time>
      </trkpt>
      <trkpt lat="41.343578" lon="1.906597">
        <ele>385.9</ele>
        <time>1970-01-01T01:16:49.000Z</time>
      </trkpt>
      <trkpt lat="41.343573" lon="1.906652">
        <ele>385.9</ele>
        <time>1970-01-01T01:16:50.000Z</time>
      </trkpt>
      <trkpt lat="41.343577" lon="1.90668">
        <ele>386.9</ele>
        <time>1970-01-01T01:16:51.000Z</time>
      </trkpt>
      <trkpt lat="41.343577" lon="1.90668">
        <ele>386.9</ele>
        <time>1970-01-01T01:16:52.000Z</time>
      </trkpt>
      <trkpt lat="41.343585" lon="1.90674">
        <ele>386.9</ele>
        <time>1970-01-01T01:16:53.000Z</time>
      </trkpt>
      <trkpt lat="41.343585" lon="1.90674">
        <ele>386.9</ele>
        <time>1970-01-01T01:16:54.000Z</time>
      </trkpt>
      <trkpt lat="41.343603" lon="1.906787">
        <ele>386.9</ele>
        <time>1970-01-01T01:16:55.000Z</time>
      </trkpt>
      <trkpt lat="41.343615" lon="1.906808">
        <ele>386.9</ele>
        <time>1970-01-01T01:16:56.000Z</time>
      </trkpt>
      <trkpt lat="41.343615" lon="1.906808">
        <ele>387.9</ele>
        <time>1970-01-01T01:16:57.000Z</time>
      </trkpt>
      <trkpt lat="41.34363" lon="1.906855">
        <ele>387.9</ele>
        <time>1970-01-01T01:16:58.000Z</time>
      </trkpt>
      <trkpt lat="41.34363" lon="1.906855">
        <ele>387.9</ele>
        <time>1970-01-01T01:16:59.000Z</time>
      </trkpt>
      <trkpt lat="41.343645" lon="1.906898">
        <ele>387.9</ele>
        <time>1970-01-01T01:17:00.000Z</time>
      </trkpt>
      <trkpt lat="41.343645" lon="1.906898">
        <ele>387.9</ele>
        <time>1970-01-01T01:17:01.000Z</time>
      </trkpt>
      <trkpt lat="41.343665" lon="1.90694">
        <ele>387.9</ele>
        <time>1970-01-01T01:17:02.000Z</time>
      </trkpt>
      <trkpt lat="41.343665" lon="1.90694">
        <ele>388.9</ele>
        <time>1970-01-01T01:17:03.000Z</time>
      </trkpt>
      <trkpt lat="41.343687" lon="1.906982">
        <ele>388.9</ele>
        <time>1970-01-01T01:17:04.000Z</time>
      </trkpt>
      <trkpt lat="41.343687" lon="1.906982">
        <ele>388.9</ele>
        <time>1970-01-01T01:17:05.000Z</time>
      </trkpt>
      <trkpt lat="41.343695" lon="1.907025">
        <ele>388.9</ele>
        <time>1970-01-01T01:17:06.000Z</time>
      </trkpt>
      <trkpt lat="41.343695" lon="1.907025">
        <ele>389.9</ele>
        <time>1970-01-01T01:17:07.000Z</time>
      </trkpt>
      <trkpt lat="41.343705" lon="1.90707">
        <ele>389.9</ele>
        <time>1970-01-01T01:17:08.000Z</time>
      </trkpt>
      <trkpt lat="41.343705" lon="1.90707">
        <ele>389.9</ele>
        <time>1970-01-01T01:17:09.000Z</time>
      </trkpt>
      <trkpt lat="41.343717" lon="1.907117">
        <ele>389.9</ele>
        <time>1970-01-01T01:17:10.000Z</time>
      </trkpt>
      <trkpt lat="41.343717" lon="1.907117">
        <ele>389.9</ele>
        <time>1970-01-01T01:17:11.000Z</time>
      </trkpt>
      <trkpt lat="41.343737" lon="1.90716">
        <ele>389.9</ele>
        <time>1970-01-01T01:17:12.000Z</time>
      </trkpt>
      <trkpt lat="41.343737" lon="1.90716">
        <ele>390.9</ele>
        <time>1970-01-01T01:17:13.000Z</time>
      </trkpt>
      <trkpt lat="41.343757" lon="1.907202">
        <ele>390.9</ele>
        <time>1970-01-01T01:17:14.000Z</time>
      </trkpt>
      <trkpt lat="41.343757" lon="1.907202">
        <ele>390.9</ele>
        <time>1970-01-01T01:17:15.000Z</time>
      </trkpt>
      <trkpt lat="41.343775" lon="1.907237">
        <ele>390.9</ele>
        <time>1970-01-01T01:17:16.000Z</time>
      </trkpt>
      <trkpt lat="41.343775" lon="1.907237">
        <ele>391.9</ele>
        <time>1970-01-01T01:17:17.000Z</time>
      </trkpt>
      <trkpt lat="41.343802" lon="1.90727">
        <ele>391.9</ele>
        <time>1970-01-01T01:17:18.000Z</time>
      </trkpt>
      <trkpt lat="41.343817" lon="1.907295">
        <ele>391.9</ele>
        <time>1970-01-01T01:17:19.000Z</time>
      </trkpt>
      <trkpt lat="41.343817" lon="1.907295">
        <ele>391.9</ele>
        <time>1970-01-01T01:17:20.000Z</time>
      </trkpt>
      <trkpt lat="41.343842" lon="1.907337">
        <ele>391.9</ele>
        <time>1970-01-01T01:17:21.000Z</time>
      </trkpt>
      <trkpt lat="41.343842" lon="1.907337">
        <ele>391.9</ele>
        <time>1970-01-01T01:17:22.000Z</time>
      </trkpt>
      <trkpt lat="41.343868" lon="1.907368">
        <ele>392.9</ele>
        <time>1970-01-01T01:17:23.000Z</time>
      </trkpt>
      <trkpt lat="41.343882" lon="1.907388">
        <ele>392.9</ele>
        <time>1970-01-01T01:17:24.000Z</time>
      </trkpt>
      <trkpt lat="41.343893" lon="1.907408">
        <ele>392.9</ele>
        <time>1970-01-01T01:17:25.000Z</time>
      </trkpt>
      <trkpt lat="41.343893" lon="1.907408">
        <ele>392.9</ele>
        <time>1970-01-01T01:17:26.000Z</time>
      </trkpt>
      <trkpt lat="41.34392" lon="1.907445">
        <ele>392.9</ele>
        <time>1970-01-01T01:17:27.000Z</time>
      </trkpt>
      <trkpt lat="41.34392" lon="1.907445">
        <ele>392.9</ele>
        <time>1970-01-01T01:17:28.000Z</time>
      </trkpt>
      <trkpt lat="41.343945" lon="1.907473">
        <ele>393.9</ele>
        <time>1970-01-01T01:17:29.000Z</time>
      </trkpt>
      <trkpt lat="41.343945" lon="1.907473">
        <ele>393.9</ele>
        <time>1970-01-01T01:17:30.000Z</time>
      </trkpt>
      <trkpt lat="41.343972" lon="1.907508">
        <ele>393.9</ele>
        <time>1970-01-01T01:17:31.000Z</time>
      </trkpt>
      <trkpt lat="41.343985" lon="1.907528">
        <ele>393.9</ele>
        <time>1970-01-01T01:17:32.000Z</time>
      </trkpt>
      <trkpt lat="41.343985" lon="1.907528">
        <ele>387.9</ele>
        <time>1970-01-01T01:17:33.000Z</time>
      </trkpt>
      <trkpt lat="41.344013" lon="1.907567">
        <ele>387.9</ele>
        <time>1970-01-01T01:17:34.000Z</time>
      </trkpt>
      <trkpt lat="41.344013" lon="1.907567">
        <ele>391.9</ele>
        <time>1970-01-01T01:17:35.000Z</time>
      </trkpt>
      <trkpt lat="41.34404" lon="1.90759">
        <ele>390.9</ele>
        <time>1970-01-01T01:17:36.000Z</time>
      </trkpt>
      <trkpt lat="41.34404" lon="1.90759">
        <ele>390.9</ele>
        <time>1970-01-01T01:17:37.000Z</time>
      </trkpt>
      <trkpt lat="41.344068" lon="1.907618">
        <ele>392.9</ele>
        <time>1970-01-01T01:17:38.000Z</time>
      </trkpt>
      <trkpt lat="41.344082" lon="1.907638">
        <ele>392.9</ele>
        <time>1970-01-01T01:17:39.000Z</time>
      </trkpt>
      <trkpt lat="41.344082" lon="1.907638">
        <ele>396.9</ele>
        <time>1970-01-01T01:17:40.000Z</time>
      </trkpt>
      <trkpt lat="41.344113" lon="1.907677">
        <ele>396.9</ele>
        <time>1970-01-01T01:17:41.000Z</time>
      </trkpt>
      <trkpt lat="41.34413" lon="1.907702">
        <ele>396.9</ele>
        <time>1970-01-01T01:17:42.000Z</time>
      </trkpt>
      <trkpt lat="41.34413" lon="1.907702">
        <ele>396.9</ele>
        <time>1970-01-01T01:17:43.000Z</time>
      </trkpt>
      <trkpt lat="41.344163" lon="1.907743">
        <ele>396.9</ele>
        <time>1970-01-01T01:17:44.000Z</time>
      </trkpt>
      <trkpt lat="41.34418" lon="1.907762">
        <ele>396.9</ele>
        <time>1970-01-01T01:17:45.000Z</time>
      </trkpt>
      <trkpt lat="41.34418" lon="1.907762">
        <ele>396.9</ele>
        <time>1970-01-01T01:17:46.000Z</time>
      </trkpt>
      <trkpt lat="41.344213" lon="1.907797">
        <ele>396.9</ele>
        <time>1970-01-01T01:17:47.000Z</time>
      </trkpt>
      <trkpt lat="41.344213" lon="1.907797">
        <ele>396.9</ele>
        <time>1970-01-01T01:17:48.000Z</time>
      </trkpt>
      <trkpt lat="41.344245" lon="1.90783">
        <ele>396.9</ele>
        <time>1970-01-01T01:17:49.000Z</time>
      </trkpt>
      <trkpt lat="41.344245" lon="1.90783">
        <ele>396.9</ele>
        <time>1970-01-01T01:17:50.000Z</time>
      </trkpt>
      <trkpt lat="41.344278" lon="1.907873">
        <ele>396.9</ele>
        <time>1970-01-01T01:17:51.000Z</time>
      </trkpt>
      <trkpt lat="41.344278" lon="1.907873">
        <ele>396.9</ele>
        <time>1970-01-01T01:17:52.000Z</time>
      </trkpt>
      <trkpt lat="41.34431" lon="1.907913">
        <ele>396.9</ele>
        <time>1970-01-01T01:17:53.000Z</time>
      </trkpt>
      <trkpt lat="41.34431" lon="1.907913">
        <ele>397.9</ele>
        <time>1970-01-01T01:17:54.000Z</time>
      </trkpt>
      <trkpt lat="41.344338" lon="1.907952">
        <ele>397.9</ele>
        <time>1970-01-01T01:17:55.000Z</time>
      </trkpt>
      <trkpt lat="41.344338" lon="1.907952">
        <ele>397.9</ele>
        <time>1970-01-01T01:17:56.000Z</time>
      </trkpt>
      <trkpt lat="41.344365" lon="1.907997">
        <ele>397.9</ele>
        <time>1970-01-01T01:17:57.000Z</time>
      </trkpt>
      <trkpt lat="41.344365" lon="1.907997">
        <ele>397.9</ele>
        <time>1970-01-01T01:17:58.000Z</time>
      </trkpt>
      <trkpt lat="41.344397" lon="1.90803">
        <ele>397.9</ele>
        <time>1970-01-01T01:17:59.000Z</time>
      </trkpt>
      <trkpt lat="41.344397" lon="1.90803">
        <ele>398.9</ele>
        <time>1970-01-01T01:18:00.000Z</time>
      </trkpt>
      <trkpt lat="41.344433" lon="1.908057">
        <ele>398.9</ele>
        <time>1970-01-01T01:18:01.000Z</time>
      </trkpt>
      <trkpt lat="41.344452" lon="1.90807">
        <ele>398.9</ele>
        <time>1970-01-01T01:18:02.000Z</time>
      </trkpt>
      <trkpt lat="41.344468" lon="1.90808">
        <ele>398.9</ele>
        <time>1970-01-01T01:18:03.000Z</time>
      </trkpt>
      <trkpt lat="41.344468" lon="1.90808">
        <ele>399.9</ele>
        <time>1970-01-01T01:18:04.000Z</time>
      </trkpt>
      <trkpt lat="41.344508" lon="1.908103">
        <ele>399.9</ele>
        <time>1970-01-01T01:18:05.000Z</time>
      </trkpt>
      <trkpt lat="41.344523" lon="1.90812">
        <ele>399.9</ele>
        <time>1970-01-01T01:18:06.000Z</time>
      </trkpt>
      <trkpt lat="41.344523" lon="1.90812">
        <ele>399.9</ele>
        <time>1970-01-01T01:18:07.000Z</time>
      </trkpt>
      <trkpt lat="41.344563" lon="1.908152">
        <ele>399.9</ele>
        <time>1970-01-01T01:18:08.000Z</time>
      </trkpt>
      <trkpt lat="41.344583" lon="1.908158">
        <ele>399.9</ele>
        <time>1970-01-01T01:18:09.000Z</time>
      </trkpt>
      <trkpt lat="41.344583" lon="1.908158">
        <ele>399.9</ele>
        <time>1970-01-01T01:18:10.000Z</time>
      </trkpt>
      <trkpt lat="41.344627" lon="1.90817">
        <ele>400.9</ele>
        <time>1970-01-01T01:18:11.000Z</time>
      </trkpt>
      <trkpt lat="41.344648" lon="1.908178">
        <ele>400.9</ele>
        <time>1970-01-01T01:18:12.000Z</time>
      </trkpt>
      <trkpt lat="41.344648" lon="1.908178">
        <ele>400.9</ele>
        <time>1970-01-01T01:18:13.000Z</time>
      </trkpt>
      <trkpt lat="41.344692" lon="1.908193">
        <ele>400.9</ele>
        <time>1970-01-01T01:18:14.000Z</time>
      </trkpt>
      <trkpt lat="41.344712" lon="1.9082">
        <ele>401.9</ele>
        <time>1970-01-01T01:18:15.000Z</time>
      </trkpt>
      <trkpt lat="41.344712" lon="1.9082">
        <ele>401.9</ele>
        <time>1970-01-01T01:18:16.000Z</time>
      </trkpt>
      <trkpt lat="41.344753" lon="1.908212">
        <ele>401.9</ele>
        <time>1970-01-01T01:18:17.000Z</time>
      </trkpt>
      <trkpt lat="41.344753" lon="1.908212">
        <ele>401.9</ele>
        <time>1970-01-01T01:18:18.000Z</time>
      </trkpt>
      <trkpt lat="41.344793" lon="1.908225">
        <ele>401.9</ele>
        <time>1970-01-01T01:18:19.000Z</time>
      </trkpt>
      <trkpt lat="41.344793" lon="1.908225">
        <ele>402.9</ele>
        <time>1970-01-01T01:18:20.000Z</time>
      </trkpt>
      <trkpt lat="41.344838" lon="1.908242">
        <ele>402.9</ele>
        <time>1970-01-01T01:18:21.000Z</time>
      </trkpt>
      <trkpt lat="41.344838" lon="1.908242">
        <ele>402.9</ele>
        <time>1970-01-01T01:18:22.000Z</time>
      </trkpt>
      <trkpt lat="41.344873" lon="1.908262">
        <ele>402.9</ele>
        <time>1970-01-01T01:18:23.000Z</time>
      </trkpt>
      <trkpt lat="41.344873" lon="1.908262">
        <ele>402.9</ele>
        <time>1970-01-01T01:18:24.000Z</time>
      </trkpt>
      <trkpt lat="41.344907" lon="1.908277">
        <ele>402.9</ele>
        <time>1970-01-01T01:18:25.000Z</time>
      </trkpt>
      <trkpt lat="41.344907" lon="1.908277">
        <ele>403.9</ele>
        <time>1970-01-01T01:18:26.000Z</time>
      </trkpt>
      <trkpt lat="41.344943" lon="1.908282">
        <ele>403.9</ele>
        <time>1970-01-01T01:18:27.000Z</time>
      </trkpt>
      <trkpt lat="41.344943" lon="1.908282">
        <ele>403.9</ele>
        <time>1970-01-01T01:18:28.000Z</time>
      </trkpt>
      <trkpt lat="41.34498" lon="1.908293">
        <ele>403.9</ele>
        <time>1970-01-01T01:18:29.000Z</time>
      </trkpt>
      <trkpt lat="41.34498" lon="1.908293">
        <ele>403.9</ele>
        <time>1970-01-01T01:18:30.000Z</time>
      </trkpt>
      <trkpt lat="41.345018" lon="1.908307">
        <ele>403.9</ele>
        <time>1970-01-01T01:18:31.000Z</time>
      </trkpt>
      <trkpt lat="41.345035" lon="1.90831">
        <ele>403.9</ele>
        <time>1970-01-01T01:18:32.000Z</time>
      </trkpt>
      <trkpt lat="41.345035" lon="1.90831">
        <ele>403.9</ele>
        <time>1970-01-01T01:18:33.000Z</time>
      </trkpt>
      <trkpt lat="41.345072" lon="1.908315">
        <ele>403.9</ele>
        <time>1970-01-01T01:18:34.000Z</time>
      </trkpt>
      <trkpt lat="41.345072" lon="1.908315">
        <ele>403.9</ele>
        <time>1970-01-01T01:18:35.000Z</time>
      </trkpt>
      <trkpt lat="41.345105" lon="1.908322">
        <ele>404.9</ele>
        <time>1970-01-01T01:18:36.000Z</time>
      </trkpt>
      <trkpt lat="41.345122" lon="1.908325">
        <ele>404.9</ele>
        <time>1970-01-01T01:18:37.000Z</time>
      </trkpt>
      <trkpt lat="41.345122" lon="1.908325">
        <ele>404.9</ele>
        <time>1970-01-01T01:18:38.000Z</time>
      </trkpt>
      <trkpt lat="41.345155" lon="1.90833">
        <ele>404.9</ele>
        <time>1970-01-01T01:18:39.000Z</time>
      </trkpt>
      <trkpt lat="41.345155" lon="1.90833">
        <ele>405.9</ele>
        <time>1970-01-01T01:18:40.000Z</time>
      </trkpt>
      <trkpt lat="41.345195" lon="1.908335">
        <ele>405.9</ele>
        <time>1970-01-01T01:18:41.000Z</time>
      </trkpt>
      <trkpt lat="41.345218" lon="1.908338">
        <ele>405.9</ele>
        <time>1970-01-01T01:18:42.000Z</time>
      </trkpt>
      <trkpt lat="41.345218" lon="1.908338">
        <ele>405.9</ele>
        <time>1970-01-01T01:18:43.000Z</time>
      </trkpt>
      <trkpt lat="41.345255" lon="1.908343">
        <ele>405.9</ele>
        <time>1970-01-01T01:18:44.000Z</time>
      </trkpt>
      <trkpt lat="41.345273" lon="1.908347">
        <ele>405.9</ele>
        <time>1970-01-01T01:18:45.000Z</time>
      </trkpt>
      <trkpt lat="41.345273" lon="1.908347">
        <ele>406.9</ele>
        <time>1970-01-01T01:18:46.000Z</time>
      </trkpt>
      <trkpt lat="41.345315" lon="1.90835">
        <ele>406.9</ele>
        <time>1970-01-01T01:18:47.000Z</time>
      </trkpt>
      <trkpt lat="41.345315" lon="1.90835">
        <ele>406.9</ele>
        <time>1970-01-01T01:18:48.000Z</time>
      </trkpt>
      <trkpt lat="41.345355" lon="1.908352">
        <ele>406.9</ele>
        <time>1970-01-01T01:18:49.000Z</time>
      </trkpt>
      <trkpt lat="41.345355" lon="1.908352">
        <ele>406.9</ele>
        <time>1970-01-01T01:18:50.000Z</time>
      </trkpt>
      <trkpt lat="41.3454" lon="1.908353">
        <ele>406.9</ele>
        <time>1970-01-01T01:18:51.000Z</time>
      </trkpt>
      <trkpt lat="41.345427" lon="1.908352">
        <ele>407.9</ele>
        <time>1970-01-01T01:18:52.000Z</time>
      </trkpt>
      <trkpt lat="41.345427" lon="1.908352">
        <ele>407.9</ele>
        <time>1970-01-01T01:18:53.000Z</time>
      </trkpt>
      <trkpt lat="41.34547" lon="1.908347">
        <ele>407.9</ele>
        <time>1970-01-01T01:18:54.000Z</time>
      </trkpt>
      <trkpt lat="41.34547" lon="1.908347">
        <ele>407.9</ele>
        <time>1970-01-01T01:18:55.000Z</time>
      </trkpt>
      <trkpt lat="41.345513" lon="1.908347">
        <ele>407.9</ele>
        <time>1970-01-01T01:18:56.000Z</time>
      </trkpt>
      <trkpt lat="41.345535" lon="1.908347">
        <ele>408.9</ele>
        <time>1970-01-01T01:18:57.000Z</time>
      </trkpt>
      <trkpt lat="41.345535" lon="1.908347">
        <ele>408.9</ele>
        <time>1970-01-01T01:18:58.000Z</time>
      </trkpt>
      <trkpt lat="41.345572" lon="1.908347">
        <ele>408.9</ele>
        <time>1970-01-01T01:18:59.000Z</time>
      </trkpt>
      <trkpt lat="41.345592" lon="1.908345">
        <ele>408.9</ele>
        <time>1970-01-01T01:19:00.000Z</time>
      </trkpt>
      <trkpt lat="41.345592" lon="1.908345">
        <ele>409.9</ele>
        <time>1970-01-01T01:19:01.000Z</time>
      </trkpt>
      <trkpt lat="41.34563" lon="1.908345">
        <ele>409.9</ele>
        <time>1970-01-01T01:19:02.000Z</time>
      </trkpt>
      <trkpt lat="41.345652" lon="1.908347">
        <ele>409.9</ele>
        <time>1970-01-01T01:19:03.000Z</time>
      </trkpt>
      <trkpt lat="41.345652" lon="1.908347">
        <ele>409.9</ele>
        <time>1970-01-01T01:19:04.000Z</time>
      </trkpt>
      <trkpt lat="41.345688" lon="1.908345">
        <ele>409.9</ele>
        <time>1970-01-01T01:19:05.000Z</time>
      </trkpt>
      <trkpt lat="41.345688" lon="1.908345">
        <ele>409.9</ele>
        <time>1970-01-01T01:19:06.000Z</time>
      </trkpt>
      <trkpt lat="41.345725" lon="1.908343">
        <ele>409.9</ele>
        <time>1970-01-01T01:19:07.000Z</time>
      </trkpt>
      <trkpt lat="41.345725" lon="1.908343">
        <ele>409.9</ele>
        <time>1970-01-01T01:19:08.000Z</time>
      </trkpt>
      <trkpt lat="41.345767" lon="1.908342">
        <ele>409.9</ele>
        <time>1970-01-01T01:19:09.000Z</time>
      </trkpt>
      <trkpt lat="41.345788" lon="1.908342">
        <ele>411.9</ele>
        <time>1970-01-01T01:19:10.000Z</time>
      </trkpt>
      <trkpt lat="41.345788" lon="1.908342">
        <ele>411.9</ele>
        <time>1970-01-01T01:19:11.000Z</time>
      </trkpt>
      <trkpt lat="41.34583" lon="1.908337">
        <ele>411.9</ele>
        <time>1970-01-01T01:19:12.000Z</time>
      </trkpt>
      <trkpt lat="41.34583" lon="1.908337">
        <ele>411.9</ele>
        <time>1970-01-01T01:19:13.000Z</time>
      </trkpt>
      <trkpt lat="41.345873" lon="1.908332">
        <ele>411.9</ele>
        <time>1970-01-01T01:19:14.000Z</time>
      </trkpt>
      <trkpt lat="41.345892" lon="1.908332">
        <ele>411.9</ele>
        <time>1970-01-01T01:19:15.000Z</time>
      </trkpt>
      <trkpt lat="41.345892" lon="1.908332">
        <ele>411.9</ele>
        <time>1970-01-01T01:19:16.000Z</time>
      </trkpt>
      <trkpt lat="41.345938" lon="1.908332">
        <ele>411.9</ele>
        <time>1970-01-01T01:19:17.000Z</time>
      </trkpt>
      <trkpt lat="41.345963" lon="1.908333">
        <ele>411.9</ele>
        <time>1970-01-01T01:19:18.000Z</time>
      </trkpt>
      <trkpt lat="41.345963" lon="1.908333">
        <ele>411.9</ele>
        <time>1970-01-01T01:19:19.000Z</time>
      </trkpt>
      <trkpt lat="41.346005" lon="1.908332">
        <ele>413.9</ele>
        <time>1970-01-01T01:19:20.000Z</time>
      </trkpt>
      <trkpt lat="41.346025" lon="1.90833">
        <ele>413.9</ele>
        <time>1970-01-01T01:19:21.000Z</time>
      </trkpt>
      <trkpt lat="41.346025" lon="1.90833">
        <ele>413.9</ele>
        <time>1970-01-01T01:19:22.000Z</time>
      </trkpt>
      <trkpt lat="41.346065" lon="1.908332">
        <ele>413.9</ele>
        <time>1970-01-01T01:19:23.000Z</time>
      </trkpt>
      <trkpt lat="41.346083" lon="1.908338">
        <ele>413.9</ele>
        <time>1970-01-01T01:19:24.000Z</time>
      </trkpt>
      <trkpt lat="41.346083" lon="1.908338">
        <ele>413.9</ele>
        <time>1970-01-01T01:19:25.000Z</time>
      </trkpt>
      <trkpt lat="41.346117" lon="1.908353">
        <ele>413.9</ele>
        <time>1970-01-01T01:19:26.000Z</time>
      </trkpt>
      <trkpt lat="41.346135" lon="1.908362">
        <ele>413.9</ele>
        <time>1970-01-01T01:19:27.000Z</time>
      </trkpt>
      <trkpt lat="41.346135" lon="1.908362">
        <ele>413.9</ele>
        <time>1970-01-01T01:19:28.000Z</time>
      </trkpt>
      <trkpt lat="41.346175" lon="1.90838">
        <ele>413.9</ele>
        <time>1970-01-01T01:19:29.000Z</time>
      </trkpt>
      <trkpt lat="41.346175" lon="1.90838">
        <ele>413.9</ele>
        <time>1970-01-01T01:19:30.000Z</time>
      </trkpt>
      <trkpt lat="41.346217" lon="1.908392">
        <ele>413.9</ele>
        <time>1970-01-01T01:19:31.000Z</time>
      </trkpt>
      <trkpt lat="41.34623" lon="1.9084">
        <ele>415.9</ele>
        <time>1970-01-01T01:19:32.000Z</time>
      </trkpt>
      <trkpt lat="41.34623" lon="1.9084">
        <ele>415.9</ele>
        <time>1970-01-01T01:19:33.000Z</time>
      </trkpt>
      <trkpt lat="41.346268" lon="1.908423">
        <ele>415.9</ele>
        <time>1970-01-01T01:19:34.000Z</time>
      </trkpt>
      <trkpt lat="41.346292" lon="1.908437">
        <ele>415.9</ele>
        <time>1970-01-01T01:19:35.000Z</time>
      </trkpt>
      <trkpt lat="41.346292" lon="1.908437">
        <ele>416.9</ele>
        <time>1970-01-01T01:19:36.000Z</time>
      </trkpt>
      <trkpt lat="41.346332" lon="1.908455">
        <ele>416.9</ele>
        <time>1970-01-01T01:19:37.000Z</time>
      </trkpt>
      <trkpt lat="41.346332" lon="1.908455">
        <ele>416.9</ele>
        <time>1970-01-01T01:19:38.000Z</time>
      </trkpt>
      <trkpt lat="41.346368" lon="1.908478">
        <ele>416.9</ele>
        <time>1970-01-01T01:19:39.000Z</time>
      </trkpt>
      <trkpt lat="41.346368" lon="1.908478">
        <ele>416.9</ele>
        <time>1970-01-01T01:19:40.000Z</time>
      </trkpt>
      <trkpt lat="41.346413" lon="1.908483">
        <ele>416.9</ele>
        <time>1970-01-01T01:19:41.000Z</time>
      </trkpt>
      <trkpt lat="41.346433" lon="1.908492">
        <ele>416.9</ele>
        <time>1970-01-01T01:19:42.000Z</time>
      </trkpt>
      <trkpt lat="41.346433" lon="1.908492">
        <ele>416.9</ele>
        <time>1970-01-01T01:19:43.000Z</time>
      </trkpt>
      <trkpt lat="41.346473" lon="1.908512">
        <ele>417.9</ele>
        <time>1970-01-01T01:19:44.000Z</time>
      </trkpt>
      <trkpt lat="41.346473" lon="1.908512">
        <ele>417.9</ele>
        <time>1970-01-01T01:19:45.000Z</time>
      </trkpt>
      <trkpt lat="41.346515" lon="1.908522">
        <ele>417.9</ele>
        <time>1970-01-01T01:19:46.000Z</time>
      </trkpt>
      <trkpt lat="41.346515" lon="1.908522">
        <ele>417.9</ele>
        <time>1970-01-01T01:19:47.000Z</time>
      </trkpt>
      <trkpt lat="41.346562" lon="1.90853">
        <ele>417.9</ele>
        <time>1970-01-01T01:19:48.000Z</time>
      </trkpt>
      <trkpt lat="41.346562" lon="1.90853">
        <ele>418.9</ele>
        <time>1970-01-01T01:19:49.000Z</time>
      </trkpt>
      <trkpt lat="41.346597" lon="1.908535">
        <ele>418.9</ele>
        <time>1970-01-01T01:19:50.000Z</time>
      </trkpt>
      <trkpt lat="41.34662" lon="1.90854">
        <ele>418.9</ele>
        <time>1970-01-01T01:19:51.000Z</time>
      </trkpt>
      <trkpt lat="41.34662" lon="1.90854">
        <ele>418.9</ele>
        <time>1970-01-01T01:19:52.000Z</time>
      </trkpt>
      <trkpt lat="41.346662" lon="1.908552">
        <ele>418.9</ele>
        <time>1970-01-01T01:19:53.000Z</time>
      </trkpt>
      <trkpt lat="41.346662" lon="1.908552">
        <ele>418.9</ele>
        <time>1970-01-01T01:19:54.000Z</time>
      </trkpt>
      <trkpt lat="41.346702" lon="1.908558">
        <ele>418.9</ele>
        <time>1970-01-01T01:19:55.000Z</time>
      </trkpt>
      <trkpt lat="41.34672" lon="1.908563">
        <ele>418.9</ele>
        <time>1970-01-01T01:19:56.000Z</time>
      </trkpt>
      <trkpt lat="41.34672" lon="1.908563">
        <ele>418.9</ele>
        <time>1970-01-01T01:19:57.000Z</time>
      </trkpt>
      <trkpt lat="41.346763" lon="1.908567">
        <ele>419.9</ele>
        <time>1970-01-01T01:19:58.000Z</time>
      </trkpt>
      <trkpt lat="41.346763" lon="1.908567">
        <ele>419.9</ele>
        <time>1970-01-01T01:19:59.000Z</time>
      </trkpt>
      <trkpt lat="41.346797" lon="1.90857">
        <ele>419.9</ele>
        <time>1970-01-01T01:20:00.000Z</time>
      </trkpt>
      <trkpt lat="41.346797" lon="1.90857">
        <ele>419.9</ele>
        <time>1970-01-01T01:20:01.000Z</time>
      </trkpt>
      <trkpt lat="41.346835" lon="1.90858">
        <ele>419.9</ele>
        <time>1970-01-01T01:20:02.000Z</time>
      </trkpt>
      <trkpt lat="41.346835" lon="1.90858">
        <ele>419.9</ele>
        <time>1970-01-01T01:20:03.000Z</time>
      </trkpt>
      <trkpt lat="41.346878" lon="1.908593">
        <ele>419.9</ele>
        <time>1970-01-01T01:20:04.000Z</time>
      </trkpt>
      <trkpt lat="41.346878" lon="1.908593">
        <ele>419.9</ele>
        <time>1970-01-01T01:20:05.000Z</time>
      </trkpt>
      <trkpt lat="41.346918" lon="1.908607">
        <ele>420.9</ele>
        <time>1970-01-01T01:20:06.000Z</time>
      </trkpt>
      <trkpt lat="41.346918" lon="1.908607">
        <ele>420.9</ele>
        <time>1970-01-01T01:20:07.000Z</time>
      </trkpt>
      <trkpt lat="41.346955" lon="1.908623">
        <ele>420.9</ele>
        <time>1970-01-01T01:20:08.000Z</time>
      </trkpt>
      <trkpt lat="41.346973" lon="1.908632">
        <ele>420.9</ele>
        <time>1970-01-01T01:20:09.000Z</time>
      </trkpt>
      <trkpt lat="41.346973" lon="1.908632">
        <ele>420.9</ele>
        <time>1970-01-01T01:20:10.000Z</time>
      </trkpt>
      <trkpt lat="41.347012" lon="1.908655">
        <ele>420.9</ele>
        <time>1970-01-01T01:20:11.000Z</time>
      </trkpt>
      <trkpt lat="41.347012" lon="1.908655">
        <ele>421.9</ele>
        <time>1970-01-01T01:20:12.000Z</time>
      </trkpt>
      <trkpt lat="41.347043" lon="1.908682">
        <ele>421.9</ele>
        <time>1970-01-01T01:20:13.000Z</time>
      </trkpt>
      <trkpt lat="41.347043" lon="1.908682">
        <ele>421.9</ele>
        <time>1970-01-01T01:20:14.000Z</time>
      </trkpt>
      <trkpt lat="41.34708" lon="1.908712">
        <ele>421.9</ele>
        <time>1970-01-01T01:20:15.000Z</time>
      </trkpt>
      <trkpt lat="41.347097" lon="1.90873">
        <ele>421.9</ele>
        <time>1970-01-01T01:20:16.000Z</time>
      </trkpt>
      <trkpt lat="41.347097" lon="1.90873">
        <ele>421.9</ele>
        <time>1970-01-01T01:20:17.000Z</time>
      </trkpt>
      <trkpt lat="41.347128" lon="1.90876">
        <ele>421.9</ele>
        <time>1970-01-01T01:20:18.000Z</time>
      </trkpt>
      <trkpt lat="41.347128" lon="1.90876">
        <ele>421.9</ele>
        <time>1970-01-01T01:20:19.000Z</time>
      </trkpt>
      <trkpt lat="41.347162" lon="1.90879">
        <ele>422.9</ele>
        <time>1970-01-01T01:20:20.000Z</time>
      </trkpt>
      <trkpt lat="41.34718" lon="1.908803">
        <ele>422.9</ele>
        <time>1970-01-01T01:20:21.000Z</time>
      </trkpt>
      <trkpt lat="41.34718" lon="1.908803">
        <ele>422.9</ele>
        <time>1970-01-01T01:20:22.000Z</time>
      </trkpt>
      <trkpt lat="41.347215" lon="1.908832">
        <ele>422.9</ele>
        <time>1970-01-01T01:20:23.000Z</time>
      </trkpt>
      <trkpt lat="41.347215" lon="1.908832">
        <ele>422.9</ele>
        <time>1970-01-01T01:20:24.000Z</time>
      </trkpt>
      <trkpt lat="41.34725" lon="1.908853">
        <ele>422.9</ele>
        <time>1970-01-01T01:20:25.000Z</time>
      </trkpt>
      <trkpt lat="41.34725" lon="1.908853">
        <ele>423.9</ele>
        <time>1970-01-01T01:20:26.000Z</time>
      </trkpt>
      <trkpt lat="41.347283" lon="1.908883">
        <ele>423.9</ele>
        <time>1970-01-01T01:20:27.000Z</time>
      </trkpt>
      <trkpt lat="41.3473" lon="1.908897">
        <ele>423.9</ele>
        <time>1970-01-01T01:20:28.000Z</time>
      </trkpt>
      <trkpt lat="41.3473" lon="1.908897">
        <ele>423.9</ele>
        <time>1970-01-01T01:20:29.000Z</time>
      </trkpt>
      <trkpt lat="41.347337" lon="1.908927">
        <ele>424.9</ele>
        <time>1970-01-01T01:20:30.000Z</time>
      </trkpt>
      <trkpt lat="41.347352" lon="1.908942">
        <ele>424.9</ele>
        <time>1970-01-01T01:20:31.000Z</time>
      </trkpt>
      <trkpt lat="41.347352" lon="1.908942">
        <ele>424.9</ele>
        <time>1970-01-01T01:20:32.000Z</time>
      </trkpt>
      <trkpt lat="41.34739" lon="1.908972">
        <ele>424.9</ele>
        <time>1970-01-01T01:20:33.000Z</time>
      </trkpt>
      <trkpt lat="41.34739" lon="1.908972">
        <ele>424.9</ele>
        <time>1970-01-01T01:20:34.000Z</time>
      </trkpt>
      <trkpt lat="41.347425" lon="1.908998">
        <ele>424.9</ele>
        <time>1970-01-01T01:20:35.000Z</time>
      </trkpt>
      <trkpt lat="41.347425" lon="1.908998">
        <ele>424.9</ele>
        <time>1970-01-01T01:20:36.000Z</time>
      </trkpt>
      <trkpt lat="41.347458" lon="1.909027">
        <ele>425.9</ele>
        <time>1970-01-01T01:20:37.000Z</time>
      </trkpt>
      <trkpt lat="41.347458" lon="1.909027">
        <ele>425.9</ele>
        <time>1970-01-01T01:20:38.000Z</time>
      </trkpt>
      <trkpt lat="41.347493" lon="1.909052">
        <ele>425.9</ele>
        <time>1970-01-01T01:20:39.000Z</time>
      </trkpt>
      <trkpt lat="41.347493" lon="1.909052">
        <ele>425.9</ele>
        <time>1970-01-01T01:20:40.000Z</time>
      </trkpt>
      <trkpt lat="41.34753" lon="1.909073">
        <ele>425.9</ele>
        <time>1970-01-01T01:20:41.000Z</time>
      </trkpt>
      <trkpt lat="41.34753" lon="1.909073">
        <ele>425.9</ele>
        <time>1970-01-01T01:20:42.000Z</time>
      </trkpt>
      <trkpt lat="41.347567" lon="1.909103">
        <ele>426.9</ele>
        <time>1970-01-01T01:20:43.000Z</time>
      </trkpt>
      <trkpt lat="41.347567" lon="1.909103">
        <ele>426.9</ele>
        <time>1970-01-01T01:20:44.000Z</time>
      </trkpt>
      <trkpt lat="41.3476" lon="1.909138">
        <ele>426.9</ele>
        <time>1970-01-01T01:20:45.000Z</time>
      </trkpt>
      <trkpt lat="41.3476" lon="1.909138">
        <ele>426.9</ele>
        <time>1970-01-01T01:20:46.000Z</time>
      </trkpt>
      <trkpt lat="41.347628" lon="1.90918">
        <ele>426.9</ele>
        <time>1970-01-01T01:20:47.000Z</time>
      </trkpt>
      <trkpt lat="41.347628" lon="1.90918">
        <ele>426.9</ele>
        <time>1970-01-01T01:20:48.000Z</time>
      </trkpt>
      <trkpt lat="41.34765" lon="1.909228">
        <ele>426.9</ele>
        <time>1970-01-01T01:20:49.000Z</time>
      </trkpt>
      <trkpt lat="41.347657" lon="1.909255">
        <ele>426.9</ele>
        <time>1970-01-01T01:20:50.000Z</time>
      </trkpt>
      <trkpt lat="41.347657" lon="1.909255">
        <ele>427.9</ele>
        <time>1970-01-01T01:20:51.000Z</time>
      </trkpt>
      <trkpt lat="41.347667" lon="1.909305">
        <ele>427.9</ele>
        <time>1970-01-01T01:20:52.000Z</time>
      </trkpt>
      <trkpt lat="41.347667" lon="1.909305">
        <ele>427.9</ele>
        <time>1970-01-01T01:20:53.000Z</time>
      </trkpt>
      <trkpt lat="41.34767" lon="1.90936">
        <ele>427.9</ele>
        <time>1970-01-01T01:20:54.000Z</time>
      </trkpt>
      <trkpt lat="41.34767" lon="1.90936">
        <ele>427.9</ele>
        <time>1970-01-01T01:20:55.000Z</time>
      </trkpt>
      <trkpt lat="41.347667" lon="1.909413">
        <ele>427.9</ele>
        <time>1970-01-01T01:20:56.000Z</time>
      </trkpt>
      <trkpt lat="41.347667" lon="1.909413">
        <ele>428.9</ele>
        <time>1970-01-01T01:20:57.000Z</time>
      </trkpt>
      <trkpt lat="41.347663" lon="1.909465">
        <ele>428.9</ele>
        <time>1970-01-01T01:20:58.000Z</time>
      </trkpt>
      <trkpt lat="41.347663" lon="1.90949">
        <ele>428.9</ele>
        <time>1970-01-01T01:20:59.000Z</time>
      </trkpt>
      <trkpt lat="41.347657" lon="1.909512">
        <ele>428.9</ele>
        <time>1970-01-01T01:21:00.000Z</time>
      </trkpt>
      <trkpt lat="41.347657" lon="1.909512">
        <ele>428.9</ele>
        <time>1970-01-01T01:21:01.000Z</time>
      </trkpt>
      <trkpt lat="41.34764" lon="1.90956">
        <ele>428.9</ele>
        <time>1970-01-01T01:21:02.000Z</time>
      </trkpt>
      <trkpt lat="41.347632" lon="1.909585">
        <ele>428.9</ele>
        <time>1970-01-01T01:21:03.000Z</time>
      </trkpt>
      <trkpt lat="41.347632" lon="1.909585">
        <ele>428.9</ele>
        <time>1970-01-01T01:21:04.000Z</time>
      </trkpt>
      <trkpt lat="41.34761" lon="1.909633">
        <ele>429.9</ele>
        <time>1970-01-01T01:21:05.000Z</time>
      </trkpt>
      <trkpt lat="41.34761" lon="1.909633">
        <ele>429.9</ele>
        <time>1970-01-01T01:21:06.000Z</time>
      </trkpt>
      <trkpt lat="41.347587" lon="1.909672">
        <ele>429.9</ele>
        <time>1970-01-01T01:21:07.000Z</time>
      </trkpt>
      <trkpt lat="41.347587" lon="1.909672">
        <ele>429.9</ele>
        <time>1970-01-01T01:21:08.000Z</time>
      </trkpt>
      <trkpt lat="41.347555" lon="1.9097">
        <ele>430.9</ele>
        <time>1970-01-01T01:21:09.000Z</time>
      </trkpt>
      <trkpt lat="41.347555" lon="1.9097">
        <ele>430.9</ele>
        <time>1970-01-01T01:21:10.000Z</time>
      </trkpt>
      <trkpt lat="41.347518" lon="1.909725">
        <ele>430.9</ele>
        <time>1970-01-01T01:21:11.000Z</time>
      </trkpt>
      <trkpt lat="41.347518" lon="1.909725">
        <ele>430.9</ele>
        <time>1970-01-01T01:21:12.000Z</time>
      </trkpt>
      <trkpt lat="41.347478" lon="1.90975">
        <ele>432.9</ele>
        <time>1970-01-01T01:21:13.000Z</time>
      </trkpt>
      <trkpt lat="41.347478" lon="1.90975">
        <ele>432.9</ele>
        <time>1970-01-01T01:21:14.000Z</time>
      </trkpt>
      <trkpt lat="41.347438" lon="1.909772">
        <ele>432.9</ele>
        <time>1970-01-01T01:21:15.000Z</time>
      </trkpt>
      <trkpt lat="41.347438" lon="1.909772">
        <ele>432.9</ele>
        <time>1970-01-01T01:21:16.000Z</time>
      </trkpt>
      <trkpt lat="41.347398" lon="1.90979">
        <ele>432.9</ele>
        <time>1970-01-01T01:21:17.000Z</time>
      </trkpt>
      <trkpt lat="41.347398" lon="1.90979">
        <ele>432.9</ele>
        <time>1970-01-01T01:21:18.000Z</time>
      </trkpt>
      <trkpt lat="41.347355" lon="1.909808">
        <ele>432.9</ele>
        <time>1970-01-01T01:21:19.000Z</time>
      </trkpt>
      <trkpt lat="41.347335" lon="1.909817">
        <ele>433.9</ele>
        <time>1970-01-01T01:21:20.000Z</time>
      </trkpt>
      <trkpt lat="41.347335" lon="1.909817">
        <ele>433.9</ele>
        <time>1970-01-01T01:21:21.000Z</time>
      </trkpt>
      <trkpt lat="41.347295" lon="1.909835">
        <ele>433.9</ele>
        <time>1970-01-01T01:21:22.000Z</time>
      </trkpt>
      <trkpt lat="41.347295" lon="1.909835">
        <ele>433.9</ele>
        <time>1970-01-01T01:21:23.000Z</time>
      </trkpt>
      <trkpt lat="41.34726" lon="1.909853">
        <ele>434.9</ele>
        <time>1970-01-01T01:21:24.000Z</time>
      </trkpt>
      <trkpt lat="41.34726" lon="1.909853">
        <ele>434.9</ele>
        <time>1970-01-01T01:21:25.000Z</time>
      </trkpt>
      <trkpt lat="41.347223" lon="1.909872">
        <ele>434.9</ele>
        <time>1970-01-01T01:21:26.000Z</time>
      </trkpt>
      <trkpt lat="41.347223" lon="1.909872">
        <ele>434.9</ele>
        <time>1970-01-01T01:21:27.000Z</time>
      </trkpt>
      <trkpt lat="41.347187" lon="1.909892">
        <ele>435.9</ele>
        <time>1970-01-01T01:21:28.000Z</time>
      </trkpt>
      <trkpt lat="41.347168" lon="1.909903">
        <ele>435.9</ele>
        <time>1970-01-01T01:21:29.000Z</time>
      </trkpt>
      <trkpt lat="41.347148" lon="1.909917">
        <ele>435.9</ele>
        <time>1970-01-01T01:21:30.000Z</time>
      </trkpt>
      <trkpt lat="41.347148" lon="1.909917">
        <ele>435.9</ele>
        <time>1970-01-01T01:21:31.000Z</time>
      </trkpt>
      <trkpt lat="41.347107" lon="1.909943">
        <ele>435.9</ele>
        <time>1970-01-01T01:21:32.000Z</time>
      </trkpt>
      <trkpt lat="41.347107" lon="1.909943">
        <ele>435.9</ele>
        <time>1970-01-01T01:21:33.000Z</time>
      </trkpt>
      <trkpt lat="41.347065" lon="1.909973">
        <ele>436.9</ele>
        <time>1970-01-01T01:21:34.000Z</time>
      </trkpt>
      <trkpt lat="41.347045" lon="1.909987">
        <ele>436.9</ele>
        <time>1970-01-01T01:21:35.000Z</time>
      </trkpt>
      <trkpt lat="41.347045" lon="1.909987">
        <ele>436.9</ele>
        <time>1970-01-01T01:21:36.000Z</time>
      </trkpt>
      <trkpt lat="41.347005" lon="1.910022">
        <ele>436.9</ele>
        <time>1970-01-01T01:21:37.000Z</time>
      </trkpt>
      <trkpt lat="41.346985" lon="1.910042">
        <ele>436.9</ele>
        <time>1970-01-01T01:21:38.000Z</time>
      </trkpt>
      <trkpt lat="41.346985" lon="1.910042">
        <ele>436.9</ele>
        <time>1970-01-01T01:21:39.000Z</time>
      </trkpt>
      <trkpt lat="41.346948" lon="1.910085">
        <ele>436.9</ele>
        <time>1970-01-01T01:21:40.000Z</time>
      </trkpt>
      <trkpt lat="41.346948" lon="1.910085">
        <ele>436.9</ele>
        <time>1970-01-01T01:21:41.000Z</time>
      </trkpt>
      <trkpt lat="41.346917" lon="1.91013">
        <ele>436.9</ele>
        <time>1970-01-01T01:21:42.000Z</time>
      </trkpt>
      <trkpt lat="41.346917" lon="1.91013">
        <ele>436.9</ele>
        <time>1970-01-01T01:21:43.000Z</time>
      </trkpt>
      <trkpt lat="41.346885" lon="1.910177">
        <ele>436.9</ele>
        <time>1970-01-01T01:21:44.000Z</time>
      </trkpt>
      <trkpt lat="41.346885" lon="1.910177">
        <ele>436.9</ele>
        <time>1970-01-01T01:21:45.000Z</time>
      </trkpt>
      <trkpt lat="41.34686" lon="1.910228">
        <ele>436.9</ele>
        <time>1970-01-01T01:21:46.000Z</time>
      </trkpt>
      <trkpt lat="41.34686" lon="1.910228">
        <ele>436.9</ele>
        <time>1970-01-01T01:21:47.000Z</time>
      </trkpt>
      <trkpt lat="41.346832" lon="1.910275">
        <ele>437.9</ele>
        <time>1970-01-01T01:21:48.000Z</time>
      </trkpt>
      <trkpt lat="41.346832" lon="1.910275">
        <ele>437.9</ele>
        <time>1970-01-01T01:21:49.000Z</time>
      </trkpt>
      <trkpt lat="41.3468" lon="1.910317">
        <ele>437.9</ele>
        <time>1970-01-01T01:21:50.000Z</time>
      </trkpt>
      <trkpt lat="41.346787" lon="1.910337">
        <ele>437.9</ele>
        <time>1970-01-01T01:21:51.000Z</time>
      </trkpt>
      <trkpt lat="41.346787" lon="1.910337">
        <ele>437.9</ele>
        <time>1970-01-01T01:21:52.000Z</time>
      </trkpt>
      <trkpt lat="41.346757" lon="1.910375">
        <ele>437.9</ele>
        <time>1970-01-01T01:21:53.000Z</time>
      </trkpt>
      <trkpt lat="41.34674" lon="1.910392">
        <ele>437.9</ele>
        <time>1970-01-01T01:21:54.000Z</time>
      </trkpt>
      <trkpt lat="41.34674" lon="1.910392">
        <ele>437.9</ele>
        <time>1970-01-01T01:21:55.000Z</time>
      </trkpt>
      <trkpt lat="41.346707" lon="1.910423">
        <ele>437.9</ele>
        <time>1970-01-01T01:21:56.000Z</time>
      </trkpt>
      <trkpt lat="41.346688" lon="1.910435">
        <ele>437.9</ele>
        <time>1970-01-01T01:21:57.000Z</time>
      </trkpt>
      <trkpt lat="41.346688" lon="1.910435">
        <ele>437.9</ele>
        <time>1970-01-01T01:21:58.000Z</time>
      </trkpt>
      <trkpt lat="41.346657" lon="1.910462">
        <ele>437.9</ele>
        <time>1970-01-01T01:21:59.000Z</time>
      </trkpt>
      <trkpt lat="41.346657" lon="1.910462">
        <ele>438.9</ele>
        <time>1970-01-01T01:22:00.000Z</time>
      </trkpt>
      <trkpt lat="41.346618" lon="1.910493">
        <ele>438.9</ele>
        <time>1970-01-01T01:22:01.000Z</time>
      </trkpt>
      <trkpt lat="41.3466" lon="1.910508">
        <ele>438.9</ele>
        <time>1970-01-01T01:22:02.000Z</time>
      </trkpt>
      <trkpt lat="41.3466" lon="1.910508">
        <ele>438.9</ele>
        <time>1970-01-01T01:22:03.000Z</time>
      </trkpt>
      <trkpt lat="41.346565" lon="1.910532">
        <ele>438.9</ele>
        <time>1970-01-01T01:22:04.000Z</time>
      </trkpt>
      <trkpt lat="41.346565" lon="1.910532">
        <ele>439.9</ele>
        <time>1970-01-01T01:22:05.000Z</time>
      </trkpt>
      <trkpt lat="41.346522" lon="1.910552">
        <ele>439.9</ele>
        <time>1970-01-01T01:22:06.000Z</time>
      </trkpt>
      <trkpt lat="41.346522" lon="1.910552">
        <ele>439.9</ele>
        <time>1970-01-01T01:22:07.000Z</time>
      </trkpt>
      <trkpt lat="41.346478" lon="1.910577">
        <ele>439.9</ele>
        <time>1970-01-01T01:22:08.000Z</time>
      </trkpt>
      <trkpt lat="41.346455" lon="1.910587">
        <ele>439.9</ele>
        <time>1970-01-01T01:22:09.000Z</time>
      </trkpt>
      <trkpt lat="41.346455" lon="1.910587">
        <ele>439.9</ele>
        <time>1970-01-01T01:22:10.000Z</time>
      </trkpt>
      <trkpt lat="41.346407" lon="1.9106">
        <ele>439.9</ele>
        <time>1970-01-01T01:22:11.000Z</time>
      </trkpt>
      <trkpt lat="41.346407" lon="1.9106">
        <ele>439.9</ele>
        <time>1970-01-01T01:22:12.000Z</time>
      </trkpt>
      <trkpt lat="41.346358" lon="1.910617">
        <ele>440.9</ele>
        <time>1970-01-01T01:22:13.000Z</time>
      </trkpt>
      <trkpt lat="41.346335" lon="1.910623">
        <ele>440.9</ele>
        <time>1970-01-01T01:22:14.000Z</time>
      </trkpt>
      <trkpt lat="41.346335" lon="1.910623">
        <ele>440.9</ele>
        <time>1970-01-01T01:22:15.000Z</time>
      </trkpt>
      <trkpt lat="41.346287" lon="1.910637">
        <ele>440.9</ele>
        <time>1970-01-01T01:22:16.000Z</time>
      </trkpt>
      <trkpt lat="41.346265" lon="1.910642">
        <ele>440.9</ele>
        <time>1970-01-01T01:22:17.000Z</time>
      </trkpt>
      <trkpt lat="41.346265" lon="1.910642">
        <ele>440.9</ele>
        <time>1970-01-01T01:22:18.000Z</time>
      </trkpt>
      <trkpt lat="41.34622" lon="1.910657">
        <ele>440.9</ele>
        <time>1970-01-01T01:22:19.000Z</time>
      </trkpt>
      <trkpt lat="41.34622" lon="1.910657">
        <ele>440.9</ele>
        <time>1970-01-01T01:22:20.000Z</time>
      </trkpt>
      <trkpt lat="41.346178" lon="1.910667">
        <ele>440.9</ele>
        <time>1970-01-01T01:22:21.000Z</time>
      </trkpt>
      <trkpt lat="41.346178" lon="1.910667">
        <ele>440.9</ele>
        <time>1970-01-01T01:22:22.000Z</time>
      </trkpt>
      <trkpt lat="41.34613" lon="1.910678">
        <ele>441.9</ele>
        <time>1970-01-01T01:22:23.000Z</time>
      </trkpt>
      <trkpt lat="41.346105" lon="1.910685">
        <ele>441.9</ele>
        <time>1970-01-01T01:22:24.000Z</time>
      </trkpt>
      <trkpt lat="41.346105" lon="1.910685">
        <ele>441.9</ele>
        <time>1970-01-01T01:22:25.000Z</time>
      </trkpt>
      <trkpt lat="41.346055" lon="1.91071">
        <ele>441.9</ele>
        <time>1970-01-01T01:22:26.000Z</time>
      </trkpt>
      <trkpt lat="41.346055" lon="1.91071">
        <ele>441.9</ele>
        <time>1970-01-01T01:22:27.000Z</time>
      </trkpt>
      <trkpt lat="41.346008" lon="1.910735">
        <ele>441.9</ele>
        <time>1970-01-01T01:22:28.000Z</time>
      </trkpt>
      <trkpt lat="41.346008" lon="1.910735">
        <ele>441.9</ele>
        <time>1970-01-01T01:22:29.000Z</time>
      </trkpt>
      <trkpt lat="41.345965" lon="1.910765">
        <ele>441.9</ele>
        <time>1970-01-01T01:22:30.000Z</time>
      </trkpt>
      <trkpt lat="41.345965" lon="1.910765">
        <ele>441.9</ele>
        <time>1970-01-01T01:22:31.000Z</time>
      </trkpt>
      <trkpt lat="41.34592" lon="1.910802">
        <ele>441.9</ele>
        <time>1970-01-01T01:22:32.000Z</time>
      </trkpt>
      <trkpt lat="41.345895" lon="1.910823">
        <ele>441.9</ele>
        <time>1970-01-01T01:22:33.000Z</time>
      </trkpt>
      <trkpt lat="41.345895" lon="1.910823">
        <ele>441.9</ele>
        <time>1970-01-01T01:22:34.000Z</time>
      </trkpt>
      <trkpt lat="41.345853" lon="1.910865">
        <ele>441.9</ele>
        <time>1970-01-01T01:22:35.000Z</time>
      </trkpt>
      <trkpt lat="41.345853" lon="1.910865">
        <ele>442.9</ele>
        <time>1970-01-01T01:22:36.000Z</time>
      </trkpt>
      <trkpt lat="41.34582" lon="1.910918">
        <ele>442.9</ele>
        <time>1970-01-01T01:22:37.000Z</time>
      </trkpt>
      <trkpt lat="41.34582" lon="1.910918">
        <ele>442.9</ele>
        <time>1970-01-01T01:22:38.000Z</time>
      </trkpt>
      <trkpt lat="41.345795" lon="1.910975">
        <ele>442.9</ele>
        <time>1970-01-01T01:22:39.000Z</time>
      </trkpt>
      <trkpt lat="41.345795" lon="1.910975">
        <ele>442.9</ele>
        <time>1970-01-01T01:22:40.000Z</time>
      </trkpt>
      <trkpt lat="41.345778" lon="1.911027">
        <ele>442.9</ele>
        <time>1970-01-01T01:22:41.000Z</time>
      </trkpt>
      <trkpt lat="41.345778" lon="1.911027">
        <ele>442.9</ele>
        <time>1970-01-01T01:22:42.000Z</time>
      </trkpt>
      <trkpt lat="41.345765" lon="1.911085">
        <ele>442.9</ele>
        <time>1970-01-01T01:22:43.000Z</time>
      </trkpt>
      <trkpt lat="41.345765" lon="1.911085">
        <ele>442.9</ele>
        <time>1970-01-01T01:22:44.000Z</time>
      </trkpt>
      <trkpt lat="41.345757" lon="1.911148">
        <ele>442.9</ele>
        <time>1970-01-01T01:22:45.000Z</time>
      </trkpt>
      <trkpt lat="41.345757" lon="1.911148">
        <ele>443.9</ele>
        <time>1970-01-01T01:22:46.000Z</time>
      </trkpt>
      <trkpt lat="41.345763" lon="1.91121">
        <ele>443.9</ele>
        <time>1970-01-01T01:22:47.000Z</time>
      </trkpt>
      <trkpt lat="41.345763" lon="1.91121">
        <ele>443.9</ele>
        <time>1970-01-01T01:22:48.000Z</time>
      </trkpt>
      <trkpt lat="41.345773" lon="1.911267">
        <ele>443.9</ele>
        <time>1970-01-01T01:22:49.000Z</time>
      </trkpt>
      <trkpt lat="41.345773" lon="1.911267">
        <ele>444.9</ele>
        <time>1970-01-01T01:22:50.000Z</time>
      </trkpt>
      <trkpt lat="41.345797" lon="1.911313">
        <ele>444.9</ele>
        <time>1970-01-01T01:22:51.000Z</time>
      </trkpt>
      <trkpt lat="41.34581" lon="1.911333">
        <ele>444.9</ele>
        <time>1970-01-01T01:22:52.000Z</time>
      </trkpt>
      <trkpt lat="41.34581" lon="1.911333">
        <ele>444.9</ele>
        <time>1970-01-01T01:22:53.000Z</time>
      </trkpt>
      <trkpt lat="41.34584" lon="1.91137">
        <ele>444.9</ele>
        <time>1970-01-01T01:22:54.000Z</time>
      </trkpt>
      <trkpt lat="41.34584" lon="1.91137">
        <ele>444.9</ele>
        <time>1970-01-01T01:22:55.000Z</time>
      </trkpt>
      <trkpt lat="41.34587" lon="1.91141">
        <ele>445.9</ele>
        <time>1970-01-01T01:22:56.000Z</time>
      </trkpt>
      <trkpt lat="41.34587" lon="1.91141">
        <ele>445.9</ele>
        <time>1970-01-01T01:22:57.000Z</time>
      </trkpt>
      <trkpt lat="41.345907" lon="1.911437">
        <ele>445.9</ele>
        <time>1970-01-01T01:22:58.000Z</time>
      </trkpt>
      <trkpt lat="41.345927" lon="1.911443">
        <ele>445.9</ele>
        <time>1970-01-01T01:22:59.000Z</time>
      </trkpt>
      <trkpt lat="41.345948" lon="1.911448">
        <ele>445.9</ele>
        <time>1970-01-01T01:23:00.000Z</time>
      </trkpt>
      <trkpt lat="41.345948" lon="1.911448">
        <ele>445.9</ele>
        <time>1970-01-01T01:23:01.000Z</time>
      </trkpt>
      <trkpt lat="41.345987" lon="1.911453">
        <ele>445.9</ele>
        <time>1970-01-01T01:23:02.000Z</time>
      </trkpt>
      <trkpt lat="41.346007" lon="1.911453">
        <ele>445.9</ele>
        <time>1970-01-01T01:23:03.000Z</time>
      </trkpt>
      <trkpt lat="41.346007" lon="1.911453">
        <ele>446.9</ele>
        <time>1970-01-01T01:23:04.000Z</time>
      </trkpt>
      <trkpt lat="41.346048" lon="1.911443">
        <ele>446.9</ele>
        <time>1970-01-01T01:23:05.000Z</time>
      </trkpt>
      <trkpt lat="41.346048" lon="1.911443">
        <ele>446.9</ele>
        <time>1970-01-01T01:23:06.000Z</time>
      </trkpt>
      <trkpt lat="41.346088" lon="1.91143">
        <ele>446.9</ele>
        <time>1970-01-01T01:23:07.000Z</time>
      </trkpt>
      <trkpt lat="41.346088" lon="1.91143">
        <ele>447.9</ele>
        <time>1970-01-01T01:23:08.000Z</time>
      </trkpt>
      <trkpt lat="41.346132" lon="1.911408">
        <ele>447.9</ele>
        <time>1970-01-01T01:23:09.000Z</time>
      </trkpt>
      <trkpt lat="41.346132" lon="1.911408">
        <ele>447.9</ele>
        <time>1970-01-01T01:23:10.000Z</time>
      </trkpt>
      <trkpt lat="41.346168" lon="1.911387">
        <ele>447.9</ele>
        <time>1970-01-01T01:23:11.000Z</time>
      </trkpt>
      <trkpt lat="41.346168" lon="1.911387">
        <ele>448.9</ele>
        <time>1970-01-01T01:23:12.000Z</time>
      </trkpt>
      <trkpt lat="41.346203" lon="1.911365">
        <ele>448.9</ele>
        <time>1970-01-01T01:23:13.000Z</time>
      </trkpt>
      <trkpt lat="41.346203" lon="1.911365">
        <ele>448.9</ele>
        <time>1970-01-01T01:23:14.000Z</time>
      </trkpt>
      <trkpt lat="41.346235" lon="1.91134">
        <ele>448.9</ele>
        <time>1970-01-01T01:23:15.000Z</time>
      </trkpt>
      <trkpt lat="41.346235" lon="1.91134">
        <ele>449.9</ele>
        <time>1970-01-01T01:23:16.000Z</time>
      </trkpt>
      <trkpt lat="41.346268" lon="1.911308">
        <ele>449.9</ele>
        <time>1970-01-01T01:23:17.000Z</time>
      </trkpt>
      <trkpt lat="41.346268" lon="1.911308">
        <ele>449.9</ele>
        <time>1970-01-01T01:23:18.000Z</time>
      </trkpt>
      <trkpt lat="41.3463" lon="1.911278">
        <ele>449.9</ele>
        <time>1970-01-01T01:23:19.000Z</time>
      </trkpt>
      <trkpt lat="41.346315" lon="1.911265">
        <ele>450.9</ele>
        <time>1970-01-01T01:23:20.000Z</time>
      </trkpt>
      <trkpt lat="41.346315" lon="1.911265">
        <ele>450.9</ele>
        <time>1970-01-01T01:23:21.000Z</time>
      </trkpt>
      <trkpt lat="41.346345" lon="1.911235">
        <ele>450.9</ele>
        <time>1970-01-01T01:23:22.000Z</time>
      </trkpt>
      <trkpt lat="41.346345" lon="1.911235">
        <ele>450.9</ele>
        <time>1970-01-01T01:23:23.000Z</time>
      </trkpt>
      <trkpt lat="41.346377" lon="1.911205">
        <ele>450.9</ele>
        <time>1970-01-01T01:23:24.000Z</time>
      </trkpt>
      <trkpt lat="41.346377" lon="1.911205">
        <ele>450.9</ele>
        <time>1970-01-01T01:23:25.000Z</time>
      </trkpt>
      <trkpt lat="41.346408" lon="1.911172">
        <ele>450.9</ele>
        <time>1970-01-01T01:23:26.000Z</time>
      </trkpt>
      <trkpt lat="41.346425" lon="1.911155">
        <ele>450.9</ele>
        <time>1970-01-01T01:23:27.000Z</time>
      </trkpt>
      <trkpt lat="41.346425" lon="1.911155">
        <ele>451.9</ele>
        <time>1970-01-01T01:23:28.000Z</time>
      </trkpt>
      <trkpt lat="41.346458" lon="1.911125">
        <ele>451.9</ele>
        <time>1970-01-01T01:23:29.000Z</time>
      </trkpt>
      <trkpt lat="41.346458" lon="1.911125">
        <ele>451.9</ele>
        <time>1970-01-01T01:23:30.000Z</time>
      </trkpt>
      <trkpt lat="41.346495" lon="1.911095">
        <ele>451.9</ele>
        <time>1970-01-01T01:23:31.000Z</time>
      </trkpt>
      <trkpt lat="41.346512" lon="1.91108">
        <ele>451.9</ele>
        <time>1970-01-01T01:23:32.000Z</time>
      </trkpt>
      <trkpt lat="41.346512" lon="1.91108">
        <ele>452.9</ele>
        <time>1970-01-01T01:23:33.000Z</time>
      </trkpt>
      <trkpt lat="41.346548" lon="1.911047">
        <ele>452.9</ele>
        <time>1970-01-01T01:23:34.000Z</time>
      </trkpt>
      <trkpt lat="41.346565" lon="1.911032">
        <ele>452.9</ele>
        <time>1970-01-01T01:23:35.000Z</time>
      </trkpt>
      <trkpt lat="41.346565" lon="1.911032">
        <ele>452.9</ele>
        <time>1970-01-01T01:23:36.000Z</time>
      </trkpt>
      <trkpt lat="41.346602" lon="1.911003">
        <ele>452.9</ele>
        <time>1970-01-01T01:23:37.000Z</time>
      </trkpt>
      <trkpt lat="41.346602" lon="1.911003">
        <ele>452.9</ele>
        <time>1970-01-01T01:23:38.000Z</time>
      </trkpt>
      <trkpt lat="41.346638" lon="1.910973">
        <ele>453.9</ele>
        <time>1970-01-01T01:23:39.000Z</time>
      </trkpt>
      <trkpt lat="41.346638" lon="1.910973">
        <ele>453.9</ele>
        <time>1970-01-01T01:23:40.000Z</time>
      </trkpt>
      <trkpt lat="41.346673" lon="1.910945">
        <ele>453.9</ele>
        <time>1970-01-01T01:23:41.000Z</time>
      </trkpt>
      <trkpt lat="41.346673" lon="1.910945">
        <ele>453.9</ele>
        <time>1970-01-01T01:23:42.000Z</time>
      </trkpt>
      <trkpt lat="41.346707" lon="1.910915">
        <ele>453.9</ele>
        <time>1970-01-01T01:23:43.000Z</time>
      </trkpt>
      <trkpt lat="41.346723" lon="1.910902">
        <ele>453.9</ele>
        <time>1970-01-01T01:23:44.000Z</time>
      </trkpt>
      <trkpt lat="41.346743" lon="1.910887">
        <ele>453.9</ele>
        <time>1970-01-01T01:23:45.000Z</time>
      </trkpt>
      <trkpt lat="41.346743" lon="1.910887">
        <ele>453.9</ele>
        <time>1970-01-01T01:23:46.000Z</time>
      </trkpt>
      <trkpt lat="41.34678" lon="1.910858">
        <ele>454.9</ele>
        <time>1970-01-01T01:23:47.000Z</time>
      </trkpt>
      <trkpt lat="41.34678" lon="1.910858">
        <ele>454.9</ele>
        <time>1970-01-01T01:23:48.000Z</time>
      </trkpt>
      <trkpt lat="41.346817" lon="1.910827">
        <ele>454.9</ele>
        <time>1970-01-01T01:23:49.000Z</time>
      </trkpt>
      <trkpt lat="41.346833" lon="1.910813">
        <ele>454.9</ele>
        <time>1970-01-01T01:23:50.000Z</time>
      </trkpt>
      <trkpt lat="41.346852" lon="1.9108">
        <ele>454.9</ele>
        <time>1970-01-01T01:23:51.000Z</time>
      </trkpt>
      <trkpt lat="41.346852" lon="1.9108">
        <ele>454.9</ele>
        <time>1970-01-01T01:23:52.000Z</time>
      </trkpt>
      <trkpt lat="41.346888" lon="1.910777">
        <ele>454.9</ele>
        <time>1970-01-01T01:23:53.000Z</time>
      </trkpt>
      <trkpt lat="41.346907" lon="1.910763">
        <ele>454.9</ele>
        <time>1970-01-01T01:23:54.000Z</time>
      </trkpt>
      <trkpt lat="41.346907" lon="1.910763">
        <ele>454.9</ele>
        <time>1970-01-01T01:23:55.000Z</time>
      </trkpt>
      <trkpt lat="41.346945" lon="1.910742">
        <ele>454.9</ele>
        <time>1970-01-01T01:23:56.000Z</time>
      </trkpt>
      <trkpt lat="41.346963" lon="1.91073">
        <ele>455.9</ele>
        <time>1970-01-01T01:23:57.000Z</time>
      </trkpt>
      <trkpt lat="41.346963" lon="1.91073">
        <ele>455.9</ele>
        <time>1970-01-01T01:23:58.000Z</time>
      </trkpt>
      <trkpt lat="41.346998" lon="1.910705">
        <ele>455.9</ele>
        <time>1970-01-01T01:23:59.000Z</time>
      </trkpt>
      <trkpt lat="41.347012" lon="1.910695">
        <ele>455.9</ele>
        <time>1970-01-01T01:24:00.000Z</time>
      </trkpt>
      <trkpt lat="41.347012" lon="1.910695">
        <ele>455.9</ele>
        <time>1970-01-01T01:24:01.000Z</time>
      </trkpt>
      <trkpt lat="41.347045" lon="1.91067">
        <ele>455.9</ele>
        <time>1970-01-01T01:24:02.000Z</time>
      </trkpt>
      <trkpt lat="41.347045" lon="1.91067">
        <ele>455.9</ele>
        <time>1970-01-01T01:24:03.000Z</time>
      </trkpt>
      <trkpt lat="41.34708" lon="1.91065">
        <ele>455.9</ele>
        <time>1970-01-01T01:24:04.000Z</time>
      </trkpt>
      <trkpt lat="41.34708" lon="1.91065">
        <ele>456.9</ele>
        <time>1970-01-01T01:24:05.000Z</time>
      </trkpt>
      <trkpt lat="41.347118" lon="1.91063">
        <ele>456.9</ele>
        <time>1970-01-01T01:24:06.000Z</time>
      </trkpt>
      <trkpt lat="41.347118" lon="1.91063">
        <ele>456.9</ele>
        <time>1970-01-01T01:24:07.000Z</time>
      </trkpt>
      <trkpt lat="41.347155" lon="1.910613">
        <ele>456.9</ele>
        <time>1970-01-01T01:24:08.000Z</time>
      </trkpt>
      <trkpt lat="41.347155" lon="1.910613">
        <ele>457.9</ele>
        <time>1970-01-01T01:24:09.000Z</time>
      </trkpt>
      <trkpt lat="41.347193" lon="1.910592">
        <ele>457.9</ele>
        <time>1970-01-01T01:24:10.000Z</time>
      </trkpt>
      <trkpt lat="41.347193" lon="1.910592">
        <ele>457.9</ele>
        <time>1970-01-01T01:24:11.000Z</time>
      </trkpt>
      <trkpt lat="41.34723" lon="1.910578">
        <ele>457.9</ele>
        <time>1970-01-01T01:24:12.000Z</time>
      </trkpt>
      <trkpt lat="41.34723" lon="1.910578">
        <ele>457.9</ele>
        <time>1970-01-01T01:24:13.000Z</time>
      </trkpt>
      <trkpt lat="41.347268" lon="1.910562">
        <ele>457.9</ele>
        <time>1970-01-01T01:24:14.000Z</time>
      </trkpt>
      <trkpt lat="41.347268" lon="1.910562">
        <ele>457.9</ele>
        <time>1970-01-01T01:24:15.000Z</time>
      </trkpt>
      <trkpt lat="41.347312" lon="1.910552">
        <ele>458.9</ele>
        <time>1970-01-01T01:24:16.000Z</time>
      </trkpt>
      <trkpt lat="41.347312" lon="1.910552">
        <ele>458.9</ele>
        <time>1970-01-01T01:24:17.000Z</time>
      </trkpt>
      <trkpt lat="41.347353" lon="1.910538">
        <ele>458.9</ele>
        <time>1970-01-01T01:24:18.000Z</time>
      </trkpt>
      <trkpt lat="41.347353" lon="1.910538">
        <ele>458.9</ele>
        <time>1970-01-01T01:24:19.000Z</time>
      </trkpt>
      <trkpt lat="41.347397" lon="1.910525">
        <ele>458.9</ele>
        <time>1970-01-01T01:24:20.000Z</time>
      </trkpt>
      <trkpt lat="41.347397" lon="1.910525">
        <ele>458.9</ele>
        <time>1970-01-01T01:24:21.000Z</time>
      </trkpt>
      <trkpt lat="41.347438" lon="1.910515">
        <ele>458.9</ele>
        <time>1970-01-01T01:24:22.000Z</time>
      </trkpt>
      <trkpt lat="41.347438" lon="1.910515">
        <ele>458.9</ele>
        <time>1970-01-01T01:24:23.000Z</time>
      </trkpt>
      <trkpt lat="41.347482" lon="1.910505">
        <ele>458.9</ele>
        <time>1970-01-01T01:24:24.000Z</time>
      </trkpt>
      <trkpt lat="41.347482" lon="1.910505">
        <ele>458.9</ele>
        <time>1970-01-01T01:24:25.000Z</time>
      </trkpt>
      <trkpt lat="41.347525" lon="1.910498">
        <ele>458.9</ele>
        <time>1970-01-01T01:24:26.000Z</time>
      </trkpt>
      <trkpt lat="41.347547" lon="1.910495">
        <ele>458.9</ele>
        <time>1970-01-01T01:24:27.000Z</time>
      </trkpt>
      <trkpt lat="41.347547" lon="1.910495">
        <ele>458.9</ele>
        <time>1970-01-01T01:24:28.000Z</time>
      </trkpt>
      <trkpt lat="41.347592" lon="1.910485">
        <ele>458.9</ele>
        <time>1970-01-01T01:24:29.000Z</time>
      </trkpt>
      <trkpt lat="41.347592" lon="1.910485">
        <ele>459.9</ele>
        <time>1970-01-01T01:24:30.000Z</time>
      </trkpt>
      <trkpt lat="41.347633" lon="1.910477">
        <ele>459.9</ele>
        <time>1970-01-01T01:24:31.000Z</time>
      </trkpt>
      <trkpt lat="41.347633" lon="1.910477">
        <ele>459.9</ele>
        <time>1970-01-01T01:24:32.000Z</time>
      </trkpt>
      <trkpt lat="41.347677" lon="1.910465">
        <ele>459.9</ele>
        <time>1970-01-01T01:24:33.000Z</time>
      </trkpt>
      <trkpt lat="41.347698" lon="1.91046">
        <ele>459.9</ele>
        <time>1970-01-01T01:24:34.000Z</time>
      </trkpt>
      <trkpt lat="41.347698" lon="1.91046">
        <ele>459.9</ele>
        <time>1970-01-01T01:24:35.000Z</time>
      </trkpt>
      <trkpt lat="41.34774" lon="1.91045">
        <ele>459.9</ele>
        <time>1970-01-01T01:24:36.000Z</time>
      </trkpt>
      <trkpt lat="41.34774" lon="1.91045">
        <ele>459.9</ele>
        <time>1970-01-01T01:24:37.000Z</time>
      </trkpt>
      <trkpt lat="41.347782" lon="1.91044">
        <ele>459.9</ele>
        <time>1970-01-01T01:24:38.000Z</time>
      </trkpt>
      <trkpt lat="41.347803" lon="1.910437">
        <ele>459.9</ele>
        <time>1970-01-01T01:24:39.000Z</time>
      </trkpt>
      <trkpt lat="41.347803" lon="1.910437">
        <ele>460.9</ele>
        <time>1970-01-01T01:24:40.000Z</time>
      </trkpt>
      <trkpt lat="41.347847" lon="1.910432">
        <ele>460.9</ele>
        <time>1970-01-01T01:24:41.000Z</time>
      </trkpt>
      <trkpt lat="41.347868" lon="1.910428">
        <ele>460.9</ele>
        <time>1970-01-01T01:24:42.000Z</time>
      </trkpt>
      <trkpt lat="41.347868" lon="1.910428">
        <ele>460.9</ele>
        <time>1970-01-01T01:24:43.000Z</time>
      </trkpt>
      <trkpt lat="41.347912" lon="1.910425">
        <ele>460.9</ele>
        <time>1970-01-01T01:24:44.000Z</time>
      </trkpt>
      <trkpt lat="41.347912" lon="1.910425">
        <ele>460.9</ele>
        <time>1970-01-01T01:24:45.000Z</time>
      </trkpt>
      <trkpt lat="41.347955" lon="1.91042">
        <ele>460.9</ele>
        <time>1970-01-01T01:24:46.000Z</time>
      </trkpt>
      <trkpt lat="41.347955" lon="1.91042">
        <ele>460.9</ele>
        <time>1970-01-01T01:24:47.000Z</time>
      </trkpt>
      <trkpt lat="41.348" lon="1.910412">
        <ele>460.9</ele>
        <time>1970-01-01T01:24:48.000Z</time>
      </trkpt>
      <trkpt lat="41.348" lon="1.910412">
        <ele>460.9</ele>
        <time>1970-01-01T01:24:49.000Z</time>
      </trkpt>
      <trkpt lat="41.348042" lon="1.910415">
        <ele>461.9</ele>
        <time>1970-01-01T01:24:50.000Z</time>
      </trkpt>
      <trkpt lat="41.348042" lon="1.910415">
        <ele>461.9</ele>
        <time>1970-01-01T01:24:51.000Z</time>
      </trkpt>
      <trkpt lat="41.348088" lon="1.910427">
        <ele>461.9</ele>
        <time>1970-01-01T01:24:52.000Z</time>
      </trkpt>
      <trkpt lat="41.348088" lon="1.910427">
        <ele>461.9</ele>
        <time>1970-01-01T01:24:53.000Z</time>
      </trkpt>
      <trkpt lat="41.348133" lon="1.910438">
        <ele>461.9</ele>
        <time>1970-01-01T01:24:54.000Z</time>
      </trkpt>
      <trkpt lat="41.348133" lon="1.910438">
        <ele>461.9</ele>
        <time>1970-01-01T01:24:55.000Z</time>
      </trkpt>
      <trkpt lat="41.348182" lon="1.910455">
        <ele>461.9</ele>
        <time>1970-01-01T01:24:56.000Z</time>
      </trkpt>
      <trkpt lat="41.348205" lon="1.910465">
        <ele>461.9</ele>
        <time>1970-01-01T01:24:57.000Z</time>
      </trkpt>
      <trkpt lat="41.348205" lon="1.910465">
        <ele>461.9</ele>
        <time>1970-01-01T01:24:58.000Z</time>
      </trkpt>
      <trkpt lat="41.348252" lon="1.910488">
        <ele>461.9</ele>
        <time>1970-01-01T01:24:59.000Z</time>
      </trkpt>
      <trkpt lat="41.348252" lon="1.910488">
        <ele>461.9</ele>
        <time>1970-01-01T01:25:00.000Z</time>
      </trkpt>
      <trkpt lat="41.348297" lon="1.910508">
        <ele>462.9</ele>
        <time>1970-01-01T01:25:01.000Z</time>
      </trkpt>
      <trkpt lat="41.348297" lon="1.910508">
        <ele>462.9</ele>
        <time>1970-01-01T01:25:02.000Z</time>
      </trkpt>
      <trkpt lat="41.34834" lon="1.91053">
        <ele>462.9</ele>
        <time>1970-01-01T01:25:03.000Z</time>
      </trkpt>
      <trkpt lat="41.348363" lon="1.910542">
        <ele>461.9</ele>
        <time>1970-01-01T01:25:04.000Z</time>
      </trkpt>
      <trkpt lat="41.348363" lon="1.910542">
        <ele>461.9</ele>
        <time>1970-01-01T01:25:05.000Z</time>
      </trkpt>
      <trkpt lat="41.34841" lon="1.910557">
        <ele>459.9</ele>
        <time>1970-01-01T01:25:06.000Z</time>
      </trkpt>
      <trkpt lat="41.34841" lon="1.910557">
        <ele>459.9</ele>
        <time>1970-01-01T01:25:07.000Z</time>
      </trkpt>
      <trkpt lat="41.348457" lon="1.910568">
        <ele>464.9</ele>
        <time>1970-01-01T01:25:08.000Z</time>
      </trkpt>
      <trkpt lat="41.348483" lon="1.910572">
        <ele>464.9</ele>
        <time>1970-01-01T01:25:09.000Z</time>
      </trkpt>
      <trkpt lat="41.348483" lon="1.910572">
        <ele>464.9</ele>
        <time>1970-01-01T01:25:10.000Z</time>
      </trkpt>
      <trkpt lat="41.348535" lon="1.910577">
        <ele>464.9</ele>
        <time>1970-01-01T01:25:11.000Z</time>
      </trkpt>
      <trkpt lat="41.34856" lon="1.910577">
        <ele>464.9</ele>
        <time>1970-01-01T01:25:12.000Z</time>
      </trkpt>
      <trkpt lat="41.34856" lon="1.910577">
        <ele>464.9</ele>
        <time>1970-01-01T01:25:13.000Z</time>
      </trkpt>
      <trkpt lat="41.348605" lon="1.910575">
        <ele>464.9</ele>
        <time>1970-01-01T01:25:14.000Z</time>
      </trkpt>
      <trkpt lat="41.348633" lon="1.910575">
        <ele>464.9</ele>
        <time>1970-01-01T01:25:15.000Z</time>
      </trkpt>
      <trkpt lat="41.348667" lon="1.910572">
        <ele>464.9</ele>
        <time>1970-01-01T01:25:16.000Z</time>
      </trkpt>
      <trkpt lat="41.348667" lon="1.910572">
        <ele>464.9</ele>
        <time>1970-01-01T01:25:17.000Z</time>
      </trkpt>
      <trkpt lat="41.348722" lon="1.910563">
        <ele>464.9</ele>
        <time>1970-01-01T01:25:18.000Z</time>
      </trkpt>
      <trkpt lat="41.348722" lon="1.910563">
        <ele>464.9</ele>
        <time>1970-01-01T01:25:19.000Z</time>
      </trkpt>
      <trkpt lat="41.348757" lon="1.910558">
        <ele>465.9</ele>
        <time>1970-01-01T01:25:20.000Z</time>
      </trkpt>
      <trkpt lat="41.348775" lon="1.910555">
        <ele>465.9</ele>
        <time>1970-01-01T01:25:21.000Z</time>
      </trkpt>
      <trkpt lat="41.348775" lon="1.910555">
        <ele>465.9</ele>
        <time>1970-01-01T01:25:22.000Z</time>
      </trkpt>
      <trkpt lat="41.348813" lon="1.910552">
        <ele>465.9</ele>
        <time>1970-01-01T01:25:23.000Z</time>
      </trkpt>
      <trkpt lat="41.348832" lon="1.910552">
        <ele>465.9</ele>
        <time>1970-01-01T01:25:24.000Z</time>
      </trkpt>
      <trkpt lat="41.348832" lon="1.910552">
        <ele>465.9</ele>
        <time>1970-01-01T01:25:25.000Z</time>
      </trkpt>
      <trkpt lat="41.348872" lon="1.910547">
        <ele>465.9</ele>
        <time>1970-01-01T01:25:26.000Z</time>
      </trkpt>
      <trkpt lat="41.348872" lon="1.910547">
        <ele>465.9</ele>
        <time>1970-01-01T01:25:27.000Z</time>
      </trkpt>
      <trkpt lat="41.348915" lon="1.910535">
        <ele>465.9</ele>
        <time>1970-01-01T01:25:28.000Z</time>
      </trkpt>
      <trkpt lat="41.348915" lon="1.910535">
        <ele>465.9</ele>
        <time>1970-01-01T01:25:29.000Z</time>
      </trkpt>
      <trkpt lat="41.348962" lon="1.910518">
        <ele>465.9</ele>
        <time>1970-01-01T01:25:30.000Z</time>
      </trkpt>
      <trkpt lat="41.348962" lon="1.910518">
        <ele>465.9</ele>
        <time>1970-01-01T01:25:31.000Z</time>
      </trkpt>
      <trkpt lat="41.349005" lon="1.910495">
        <ele>466.9</ele>
        <time>1970-01-01T01:25:32.000Z</time>
      </trkpt>
      <trkpt lat="41.349005" lon="1.910495">
        <ele>466.9</ele>
        <time>1970-01-01T01:25:33.000Z</time>
      </trkpt>
      <trkpt lat="41.349047" lon="1.910455">
        <ele>466.9</ele>
        <time>1970-01-01T01:25:34.000Z</time>
      </trkpt>
      <trkpt lat="41.349047" lon="1.910455">
        <ele>466.9</ele>
        <time>1970-01-01T01:25:35.000Z</time>
      </trkpt>
      <trkpt lat="41.34909" lon="1.910415">
        <ele>466.9</ele>
        <time>1970-01-01T01:25:36.000Z</time>
      </trkpt>
      <trkpt lat="41.34909" lon="1.910415">
        <ele>466.9</ele>
        <time>1970-01-01T01:25:37.000Z</time>
      </trkpt>
      <trkpt lat="41.349128" lon="1.910375">
        <ele>467.9</ele>
        <time>1970-01-01T01:25:38.000Z</time>
      </trkpt>
      <trkpt lat="41.349148" lon="1.910355">
        <ele>467.9</ele>
        <time>1970-01-01T01:25:39.000Z</time>
      </trkpt>
      <trkpt lat="41.349148" lon="1.910355">
        <ele>467.9</ele>
        <time>1970-01-01T01:25:40.000Z</time>
      </trkpt>
      <trkpt lat="41.349185" lon="1.910315">
        <ele>467.9</ele>
        <time>1970-01-01T01:25:41.000Z</time>
      </trkpt>
      <trkpt lat="41.349203" lon="1.910292">
        <ele>467.9</ele>
        <time>1970-01-01T01:25:42.000Z</time>
      </trkpt>
      <trkpt lat="41.349203" lon="1.910292">
        <ele>467.9</ele>
        <time>1970-01-01T01:25:43.000Z</time>
      </trkpt>
      <trkpt lat="41.349242" lon="1.910242">
        <ele>467.9</ele>
        <time>1970-01-01T01:25:44.000Z</time>
      </trkpt>
      <trkpt lat="41.349242" lon="1.910242">
        <ele>468.9</ele>
        <time>1970-01-01T01:25:45.000Z</time>
      </trkpt>
      <trkpt lat="41.349273" lon="1.910202">
        <ele>468.9</ele>
        <time>1970-01-01T01:25:46.000Z</time>
      </trkpt>
      <trkpt lat="41.349273" lon="1.910202">
        <ele>468.9</ele>
        <time>1970-01-01T01:25:47.000Z</time>
      </trkpt>
      <trkpt lat="41.349307" lon="1.910157">
        <ele>468.9</ele>
        <time>1970-01-01T01:25:48.000Z</time>
      </trkpt>
      <trkpt lat="41.349323" lon="1.910132">
        <ele>469.9</ele>
        <time>1970-01-01T01:25:49.000Z</time>
      </trkpt>
      <trkpt lat="41.349323" lon="1.910132">
        <ele>469.9</ele>
        <time>1970-01-01T01:25:50.000Z</time>
      </trkpt>
      <trkpt lat="41.349347" lon="1.91008">
        <ele>469.9</ele>
        <time>1970-01-01T01:25:51.000Z</time>
      </trkpt>
      <trkpt lat="41.349347" lon="1.91008">
        <ele>469.9</ele>
        <time>1970-01-01T01:25:52.000Z</time>
      </trkpt>
      <trkpt lat="41.349362" lon="1.91003">
        <ele>469.9</ele>
        <time>1970-01-01T01:25:53.000Z</time>
      </trkpt>
      <trkpt lat="41.349367" lon="1.910002">
        <ele>469.9</ele>
        <time>1970-01-01T01:25:54.000Z</time>
      </trkpt>
      <trkpt lat="41.349367" lon="1.910002">
        <ele>469.9</ele>
        <time>1970-01-01T01:25:55.000Z</time>
      </trkpt>
      <trkpt lat="41.349375" lon="1.909947">
        <ele>469.9</ele>
        <time>1970-01-01T01:25:56.000Z</time>
      </trkpt>
      <trkpt lat="41.349375" lon="1.909918">
        <ele>470.9</ele>
        <time>1970-01-01T01:25:57.000Z</time>
      </trkpt>
      <trkpt lat="41.349375" lon="1.909918">
        <ele>470.9</ele>
        <time>1970-01-01T01:25:58.000Z</time>
      </trkpt>
      <trkpt lat="41.349375" lon="1.90986">
        <ele>470.9</ele>
        <time>1970-01-01T01:25:59.000Z</time>
      </trkpt>
      <trkpt lat="41.349375" lon="1.90986">
        <ele>470.9</ele>
        <time>1970-01-01T01:26:00.000Z</time>
      </trkpt>
      <trkpt lat="41.349373" lon="1.909802">
        <ele>470.9</ele>
        <time>1970-01-01T01:26:01.000Z</time>
      </trkpt>
      <trkpt lat="41.349373" lon="1.909802">
        <ele>470.9</ele>
        <time>1970-01-01T01:26:02.000Z</time>
      </trkpt>
      <trkpt lat="41.349363" lon="1.909747">
        <ele>471.9</ele>
        <time>1970-01-01T01:26:03.000Z</time>
      </trkpt>
      <trkpt lat="41.349363" lon="1.909747">
        <ele>471.9</ele>
        <time>1970-01-01T01:26:04.000Z</time>
      </trkpt>
      <trkpt lat="41.349342" lon="1.909698">
        <ele>471.9</ele>
        <time>1970-01-01T01:26:05.000Z</time>
      </trkpt>
      <trkpt lat="41.349328" lon="1.909675">
        <ele>471.9</ele>
        <time>1970-01-01T01:26:06.000Z</time>
      </trkpt>
      <trkpt lat="41.349328" lon="1.909675">
        <ele>471.9</ele>
        <time>1970-01-01T01:26:07.000Z</time>
      </trkpt>
      <trkpt lat="41.3493" lon="1.909633">
        <ele>471.9</ele>
        <time>1970-01-01T01:26:08.000Z</time>
      </trkpt>
      <trkpt lat="41.349285" lon="1.909617">
        <ele>472.9</ele>
        <time>1970-01-01T01:26:09.000Z</time>
      </trkpt>
      <trkpt lat="41.349285" lon="1.909617">
        <ele>472.9</ele>
        <time>1970-01-01T01:26:10.000Z</time>
      </trkpt>
      <trkpt lat="41.349253" lon="1.909587">
        <ele>472.9</ele>
        <time>1970-01-01T01:26:11.000Z</time>
      </trkpt>
      <trkpt lat="41.34924" lon="1.909573">
        <ele>472.9</ele>
        <time>1970-01-01T01:26:12.000Z</time>
      </trkpt>
      <trkpt lat="41.34924" lon="1.909573">
        <ele>473.9</ele>
        <time>1970-01-01T01:26:13.000Z</time>
      </trkpt>
      <trkpt lat="41.349205" lon="1.909548">
        <ele>473.9</ele>
        <time>1970-01-01T01:26:14.000Z</time>
      </trkpt>
      <trkpt lat="41.349205" lon="1.909548">
        <ele>473.9</ele>
        <time>1970-01-01T01:26:15.000Z</time>
      </trkpt>
      <trkpt lat="41.349173" lon="1.909522">
        <ele>473.9</ele>
        <time>1970-01-01T01:26:16.000Z</time>
      </trkpt>
      <trkpt lat="41.349173" lon="1.909522">
        <ele>473.9</ele>
        <time>1970-01-01T01:26:17.000Z</time>
      </trkpt>
      <trkpt lat="41.349137" lon="1.909493">
        <ele>473.9</ele>
        <time>1970-01-01T01:26:18.000Z</time>
      </trkpt>
      <trkpt lat="41.34912" lon="1.909477">
        <ele>474.9</ele>
        <time>1970-01-01T01:26:19.000Z</time>
      </trkpt>
      <trkpt lat="41.34912" lon="1.909477">
        <ele>474.9</ele>
        <time>1970-01-01T01:26:20.000Z</time>
      </trkpt>
      <trkpt lat="41.34909" lon="1.909438">
        <ele>474.9</ele>
        <time>1970-01-01T01:26:21.000Z</time>
      </trkpt>
      <trkpt lat="41.34909" lon="1.909438">
        <ele>474.9</ele>
        <time>1970-01-01T01:26:22.000Z</time>
      </trkpt>
      <trkpt lat="41.34906" lon="1.9094">
        <ele>475.9</ele>
        <time>1970-01-01T01:26:23.000Z</time>
      </trkpt>
      <trkpt lat="41.349048" lon="1.909378">
        <ele>475.9</ele>
        <time>1970-01-01T01:26:24.000Z</time>
      </trkpt>
      <trkpt lat="41.349048" lon="1.909378">
        <ele>475.9</ele>
        <time>1970-01-01T01:26:25.000Z</time>
      </trkpt>
      <trkpt lat="41.349033" lon="1.909328">
        <ele>476.9</ele>
        <time>1970-01-01T01:26:26.000Z</time>
      </trkpt>
      <trkpt lat="41.349025" lon="1.909303">
        <ele>476.9</ele>
        <time>1970-01-01T01:26:27.000Z</time>
      </trkpt>
      <trkpt lat="41.349025" lon="1.909303">
        <ele>477.9</ele>
        <time>1970-01-01T01:26:28.000Z</time>
      </trkpt>
      <trkpt lat="41.349012" lon="1.909247">
        <ele>477.9</ele>
        <time>1970-01-01T01:26:29.000Z</time>
      </trkpt>
      <trkpt lat="41.349005" lon="1.909222">
        <ele>477.9</ele>
        <time>1970-01-01T01:26:30.000Z</time>
      </trkpt>
      <trkpt lat="41.349005" lon="1.909222">
        <ele>477.9</ele>
        <time>1970-01-01T01:26:31.000Z</time>
      </trkpt>
      <trkpt lat="41.348998" lon="1.909168">
        <ele>477.9</ele>
        <time>1970-01-01T01:26:32.000Z</time>
      </trkpt>
      <trkpt lat="41.348997" lon="1.90914">
        <ele>477.9</ele>
        <time>1970-01-01T01:26:33.000Z</time>
      </trkpt>
      <trkpt lat="41.348997" lon="1.90914">
        <ele>478.9</ele>
        <time>1970-01-01T01:26:34.000Z</time>
      </trkpt>
      <trkpt lat="41.349" lon="1.909088">
        <ele>478.9</ele>
        <time>1970-01-01T01:26:35.000Z</time>
      </trkpt>
      <trkpt lat="41.349" lon="1.909088">
        <ele>478.9</ele>
        <time>1970-01-01T01:26:36.000Z</time>
      </trkpt>
      <trkpt lat="41.349003" lon="1.909035">
        <ele>478.9</ele>
        <time>1970-01-01T01:26:37.000Z</time>
      </trkpt>
      <trkpt lat="41.349003" lon="1.909035">
        <ele>478.9</ele>
        <time>1970-01-01T01:26:38.000Z</time>
      </trkpt>
      <trkpt lat="41.349007" lon="1.908985">
        <ele>478.9</ele>
        <time>1970-01-01T01:26:39.000Z</time>
      </trkpt>
      <trkpt lat="41.349007" lon="1.908985">
        <ele>478.9</ele>
        <time>1970-01-01T01:26:40.000Z</time>
      </trkpt>
      <trkpt lat="41.349012" lon="1.908935">
        <ele>478.9</ele>
        <time>1970-01-01T01:26:41.000Z</time>
      </trkpt>
      <trkpt lat="41.349013" lon="1.908908">
        <ele>478.9</ele>
        <time>1970-01-01T01:26:42.000Z</time>
      </trkpt>
      <trkpt lat="41.349013" lon="1.908908">
        <ele>478.9</ele>
        <time>1970-01-01T01:26:43.000Z</time>
      </trkpt>
      <trkpt lat="41.349018" lon="1.908855">
        <ele>479.9</ele>
        <time>1970-01-01T01:26:44.000Z</time>
      </trkpt>
      <trkpt lat="41.349017" lon="1.90883">
        <ele>479.9</ele>
        <time>1970-01-01T01:26:45.000Z</time>
      </trkpt>
      <trkpt lat="41.349017" lon="1.90883">
        <ele>479.9</ele>
        <time>1970-01-01T01:26:46.000Z</time>
      </trkpt>
      <trkpt lat="41.34901" lon="1.908778">
        <ele>479.9</ele>
        <time>1970-01-01T01:26:47.000Z</time>
      </trkpt>
      <trkpt lat="41.349008" lon="1.90875">
        <ele>479.9</ele>
        <time>1970-01-01T01:26:48.000Z</time>
      </trkpt>
      <trkpt lat="41.349008" lon="1.908723">
        <ele>479.9</ele>
        <time>1970-01-01T01:26:49.000Z</time>
      </trkpt>
      <trkpt lat="41.349008" lon="1.908723">
        <ele>480.9</ele>
        <time>1970-01-01T01:26:50.000Z</time>
      </trkpt>
      <trkpt lat="41.349003" lon="1.90867">
        <ele>480.9</ele>
        <time>1970-01-01T01:26:51.000Z</time>
      </trkpt>
      <trkpt lat="41.349003" lon="1.90867">
        <ele>480.9</ele>
        <time>1970-01-01T01:26:52.000Z</time>
      </trkpt>
      <trkpt lat="41.348992" lon="1.908617">
        <ele>480.9</ele>
        <time>1970-01-01T01:26:53.000Z</time>
      </trkpt>
      <trkpt lat="41.34898" lon="1.908597">
        <ele>481.9</ele>
        <time>1970-01-01T01:26:54.000Z</time>
      </trkpt>
      <trkpt lat="41.34898" lon="1.908597">
        <ele>481.9</ele>
        <time>1970-01-01T01:26:55.000Z</time>
      </trkpt>
      <trkpt lat="41.348948" lon="1.908553">
        <ele>481.9</ele>
        <time>1970-01-01T01:26:56.000Z</time>
      </trkpt>
      <trkpt lat="41.348935" lon="1.908533">
        <ele>481.9</ele>
        <time>1970-01-01T01:26:57.000Z</time>
      </trkpt>
      <trkpt lat="41.348935" lon="1.908533">
        <ele>481.9</ele>
        <time>1970-01-01T01:26:58.000Z</time>
      </trkpt>
      <trkpt lat="41.348908" lon="1.908498">
        <ele>482.9</ele>
        <time>1970-01-01T01:26:59.000Z</time>
      </trkpt>
      <trkpt lat="41.348908" lon="1.908498">
        <ele>482.9</ele>
        <time>1970-01-01T01:27:00.000Z</time>
      </trkpt>
      <trkpt lat="41.348887" lon="1.908468">
        <ele>482.9</ele>
        <time>1970-01-01T01:27:01.000Z</time>
      </trkpt>
      <trkpt lat="41.348887" lon="1.908468">
        <ele>482.9</ele>
        <time>1970-01-01T01:27:02.000Z</time>
      </trkpt>
      <trkpt lat="41.34885" lon="1.908443">
        <ele>482.9</ele>
        <time>1970-01-01T01:27:03.000Z</time>
      </trkpt>
      <trkpt lat="41.34885" lon="1.908443">
        <ele>482.9</ele>
        <time>1970-01-01T01:27:04.000Z</time>
      </trkpt>
      <trkpt lat="41.348805" lon="1.908425">
        <ele>483.9</ele>
        <time>1970-01-01T01:27:05.000Z</time>
      </trkpt>
      <trkpt lat="41.348785" lon="1.908413">
        <ele>483.9</ele>
        <time>1970-01-01T01:27:06.000Z</time>
      </trkpt>
      <trkpt lat="41.348785" lon="1.908413">
        <ele>483.9</ele>
        <time>1970-01-01T01:27:07.000Z</time>
      </trkpt>
      <trkpt lat="41.348752" lon="1.908387">
        <ele>483.9</ele>
        <time>1970-01-01T01:27:08.000Z</time>
      </trkpt>
      <trkpt lat="41.348735" lon="1.908373">
        <ele>483.9</ele>
        <time>1970-01-01T01:27:09.000Z</time>
      </trkpt>
      <trkpt lat="41.348735" lon="1.908373">
        <ele>484.9</ele>
        <time>1970-01-01T01:27:10.000Z</time>
      </trkpt>
      <trkpt lat="41.348702" lon="1.908348">
        <ele>484.9</ele>
        <time>1970-01-01T01:27:11.000Z</time>
      </trkpt>
      <trkpt lat="41.348702" lon="1.908348">
        <ele>484.9</ele>
        <time>1970-01-01T01:27:12.000Z</time>
      </trkpt>
      <trkpt lat="41.348675" lon="1.90832">
        <ele>484.9</ele>
        <time>1970-01-01T01:27:13.000Z</time>
      </trkpt>
      <trkpt lat="41.348675" lon="1.90832">
        <ele>485.9</ele>
        <time>1970-01-01T01:27:14.000Z</time>
      </trkpt>
      <trkpt lat="41.348642" lon="1.90829">
        <ele>485.9</ele>
        <time>1970-01-01T01:27:15.000Z</time>
      </trkpt>
      <trkpt lat="41.348642" lon="1.90829">
        <ele>485.9</ele>
        <time>1970-01-01T01:27:16.000Z</time>
      </trkpt>
      <trkpt lat="41.348618" lon="1.90825">
        <ele>485.9</ele>
        <time>1970-01-01T01:27:17.000Z</time>
      </trkpt>
      <trkpt lat="41.34861" lon="1.908228">
        <ele>486.9</ele>
        <time>1970-01-01T01:27:18.000Z</time>
      </trkpt>
      <trkpt lat="41.34861" lon="1.908228">
        <ele>486.9</ele>
        <time>1970-01-01T01:27:19.000Z</time>
      </trkpt>
      <trkpt lat="41.348593" lon="1.908183">
        <ele>486.9</ele>
        <time>1970-01-01T01:27:20.000Z</time>
      </trkpt>
      <trkpt lat="41.348593" lon="1.908183">
        <ele>486.9</ele>
        <time>1970-01-01T01:27:21.000Z</time>
      </trkpt>
      <trkpt lat="41.348578" lon="1.908138">
        <ele>486.9</ele>
        <time>1970-01-01T01:27:22.000Z</time>
      </trkpt>
      <trkpt lat="41.348578" lon="1.908138">
        <ele>486.9</ele>
        <time>1970-01-01T01:27:23.000Z</time>
      </trkpt>
      <trkpt lat="41.34856" lon="1.908093">
        <ele>487.9</ele>
        <time>1970-01-01T01:27:24.000Z</time>
      </trkpt>
      <trkpt lat="41.34856" lon="1.908093">
        <ele>487.9</ele>
        <time>1970-01-01T01:27:25.000Z</time>
      </trkpt>
      <trkpt lat="41.348542" lon="1.908052">
        <ele>487.9</ele>
        <time>1970-01-01T01:27:26.000Z</time>
      </trkpt>
      <trkpt lat="41.348528" lon="1.908027">
        <ele>487.9</ele>
        <time>1970-01-01T01:27:27.000Z</time>
      </trkpt>
      <trkpt lat="41.348528" lon="1.908027">
        <ele>487.9</ele>
        <time>1970-01-01T01:27:28.000Z</time>
      </trkpt>
      <trkpt lat="41.348522" lon="1.907973">
        <ele>487.9</ele>
        <time>1970-01-01T01:27:29.000Z</time>
      </trkpt>
      <trkpt lat="41.348515" lon="1.907952">
        <ele>488.9</ele>
        <time>1970-01-01T01:27:30.000Z</time>
      </trkpt>
      <trkpt lat="41.348515" lon="1.907952">
        <ele>488.9</ele>
        <time>1970-01-01T01:27:31.000Z</time>
      </trkpt>
      <trkpt lat="41.348493" lon="1.907913">
        <ele>488.9</ele>
        <time>1970-01-01T01:27:32.000Z</time>
      </trkpt>
      <trkpt lat="41.348487" lon="1.90789">
        <ele>488.9</ele>
        <time>1970-01-01T01:27:33.000Z</time>
      </trkpt>
      <trkpt lat="41.348487" lon="1.90789">
        <ele>488.9</ele>
        <time>1970-01-01T01:27:34.000Z</time>
      </trkpt>
      <trkpt lat="41.348472" lon="1.907848">
        <ele>488.9</ele>
        <time>1970-01-01T01:27:35.000Z</time>
      </trkpt>
      <trkpt lat="41.348472" lon="1.907848">
        <ele>489.9</ele>
        <time>1970-01-01T01:27:36.000Z</time>
      </trkpt>
      <trkpt lat="41.348453" lon="1.907812">
        <ele>489.9</ele>
        <time>1970-01-01T01:27:37.000Z</time>
      </trkpt>
      <trkpt lat="41.34845" lon="1.907788">
        <ele>489.9</ele>
        <time>1970-01-01T01:27:38.000Z</time>
      </trkpt>
      <trkpt lat="41.348445" lon="1.907767">
        <ele>489.9</ele>
        <time>1970-01-01T01:27:39.000Z</time>
      </trkpt>
      <trkpt lat="41.348445" lon="1.907767">
        <ele>490.9</ele>
        <time>1970-01-01T01:27:40.000Z</time>
      </trkpt>
      <trkpt lat="41.348432" lon="1.907727">
        <ele>490.9</ele>
        <time>1970-01-01T01:27:41.000Z</time>
      </trkpt>
      <trkpt lat="41.34842" lon="1.907708">
        <ele>490.9</ele>
        <time>1970-01-01T01:27:42.000Z</time>
      </trkpt>
      <trkpt lat="41.34842" lon="1.907708">
        <ele>490.9</ele>
        <time>1970-01-01T01:27:43.000Z</time>
      </trkpt>
      <trkpt lat="41.348402" lon="1.907675">
        <ele>491.9</ele>
        <time>1970-01-01T01:27:44.000Z</time>
      </trkpt>
      <trkpt lat="41.348392" lon="1.907657">
        <ele>491.9</ele>
        <time>1970-01-01T01:27:45.000Z</time>
      </trkpt>
      <trkpt lat="41.348392" lon="1.907657">
        <ele>491.9</ele>
        <time>1970-01-01T01:27:46.000Z</time>
      </trkpt>
      <trkpt lat="41.348372" lon="1.907618">
        <ele>491.9</ele>
        <time>1970-01-01T01:27:47.000Z</time>
      </trkpt>
      <trkpt lat="41.348372" lon="1.907618">
        <ele>492.9</ele>
        <time>1970-01-01T01:27:48.000Z</time>
      </trkpt>
      <trkpt lat="41.348347" lon="1.907583">
        <ele>492.9</ele>
        <time>1970-01-01T01:27:49.000Z</time>
      </trkpt>
      <trkpt lat="41.348337" lon="1.907567">
        <ele>492.9</ele>
        <time>1970-01-01T01:27:50.000Z</time>
      </trkpt>
      <trkpt lat="41.348337" lon="1.907567">
        <ele>492.9</ele>
        <time>1970-01-01T01:27:51.000Z</time>
      </trkpt>
      <trkpt lat="41.348318" lon="1.90753">
        <ele>492.9</ele>
        <time>1970-01-01T01:27:52.000Z</time>
      </trkpt>
      <trkpt lat="41.348318" lon="1.90753">
        <ele>492.9</ele>
        <time>1970-01-01T01:27:53.000Z</time>
      </trkpt>
      <trkpt lat="41.34829" lon="1.907495">
        <ele>493.9</ele>
        <time>1970-01-01T01:27:54.000Z</time>
      </trkpt>
      <trkpt lat="41.34829" lon="1.907495">
        <ele>493.9</ele>
        <time>1970-01-01T01:27:55.000Z</time>
      </trkpt>
      <trkpt lat="41.348265" lon="1.907462">
        <ele>493.9</ele>
        <time>1970-01-01T01:27:56.000Z</time>
      </trkpt>
      <trkpt lat="41.348255" lon="1.907443">
        <ele>493.9</ele>
        <time>1970-01-01T01:27:57.000Z</time>
      </trkpt>
      <trkpt lat="41.348255" lon="1.907443">
        <ele>493.9</ele>
        <time>1970-01-01T01:27:58.000Z</time>
      </trkpt>
      <trkpt lat="41.34824" lon="1.907405">
        <ele>493.9</ele>
        <time>1970-01-01T01:27:59.000Z</time>
      </trkpt>
      <trkpt lat="41.34824" lon="1.907405">
        <ele>493.9</ele>
        <time>1970-01-01T01:28:00.000Z</time>
      </trkpt>
      <trkpt lat="41.348213" lon="1.907373">
        <ele>494.9</ele>
        <time>1970-01-01T01:28:01.000Z</time>
      </trkpt>
      <trkpt lat="41.3482" lon="1.907357">
        <ele>494.9</ele>
        <time>1970-01-01T01:28:02.000Z</time>
      </trkpt>
      <trkpt lat="41.348188" lon="1.907342">
        <ele>494.9</ele>
        <time>1970-01-01T01:28:03.000Z</time>
      </trkpt>
      <trkpt lat="41.348188" lon="1.907342">
        <ele>494.9</ele>
        <time>1970-01-01T01:28:04.000Z</time>
      </trkpt>
      <trkpt lat="41.348168" lon="1.907303">
        <ele>494.9</ele>
        <time>1970-01-01T01:28:05.000Z</time>
      </trkpt>
      <trkpt lat="41.348168" lon="1.907303">
        <ele>494.9</ele>
        <time>1970-01-01T01:28:06.000Z</time>
      </trkpt>
      <trkpt lat="41.348145" lon="1.907263">
        <ele>495.9</ele>
        <time>1970-01-01T01:28:07.000Z</time>
      </trkpt>
      <trkpt lat="41.348145" lon="1.907263">
        <ele>495.9</ele>
        <time>1970-01-01T01:28:08.000Z</time>
      </trkpt>
      <trkpt lat="41.348127" lon="1.907225">
        <ele>495.9</ele>
        <time>1970-01-01T01:28:09.000Z</time>
      </trkpt>
      <trkpt lat="41.348127" lon="1.907225">
        <ele>495.9</ele>
        <time>1970-01-01T01:28:10.000Z</time>
      </trkpt>
      <trkpt lat="41.348103" lon="1.90719">
        <ele>495.9</ele>
        <time>1970-01-01T01:28:11.000Z</time>
      </trkpt>
      <trkpt lat="41.348093" lon="1.907172">
        <ele>495.9</ele>
        <time>1970-01-01T01:28:12.000Z</time>
      </trkpt>
      <trkpt lat="41.348093" lon="1.907172">
        <ele>496.9</ele>
        <time>1970-01-01T01:28:13.000Z</time>
      </trkpt>
      <trkpt lat="41.348075" lon="1.907132">
        <ele>496.9</ele>
        <time>1970-01-01T01:28:14.000Z</time>
      </trkpt>
      <trkpt lat="41.348067" lon="1.90711">
        <ele>496.9</ele>
        <time>1970-01-01T01:28:15.000Z</time>
      </trkpt>
      <trkpt lat="41.348067" lon="1.90711">
        <ele>496.9</ele>
        <time>1970-01-01T01:28:16.000Z</time>
      </trkpt>
      <trkpt lat="41.348052" lon="1.90707">
        <ele>496.9</ele>
        <time>1970-01-01T01:28:17.000Z</time>
      </trkpt>
      <trkpt lat="41.348052" lon="1.90707">
        <ele>496.9</ele>
        <time>1970-01-01T01:28:18.000Z</time>
      </trkpt>
      <trkpt lat="41.348038" lon="1.907028">
        <ele>497.9</ele>
        <time>1970-01-01T01:28:19.000Z</time>
      </trkpt>
      <trkpt lat="41.348038" lon="1.907028">
        <ele>497.9</ele>
        <time>1970-01-01T01:28:20.000Z</time>
      </trkpt>
      <trkpt lat="41.348028" lon="1.906987">
        <ele>497.9</ele>
        <time>1970-01-01T01:28:21.000Z</time>
      </trkpt>
      <trkpt lat="41.348028" lon="1.906987">
        <ele>497.9</ele>
        <time>1970-01-01T01:28:22.000Z</time>
      </trkpt>
      <trkpt lat="41.34802" lon="1.906947">
        <ele>497.9</ele>
        <time>1970-01-01T01:28:23.000Z</time>
      </trkpt>
      <trkpt lat="41.34802" lon="1.906947">
        <ele>497.9</ele>
        <time>1970-01-01T01:28:24.000Z</time>
      </trkpt>
      <trkpt lat="41.348015" lon="1.906908">
        <ele>498.9</ele>
        <time>1970-01-01T01:28:25.000Z</time>
      </trkpt>
      <trkpt lat="41.348015" lon="1.906908">
        <ele>498.9</ele>
        <time>1970-01-01T01:28:26.000Z</time>
      </trkpt>
      <trkpt lat="41.34802" lon="1.906868">
        <ele>498.9</ele>
        <time>1970-01-01T01:28:27.000Z</time>
      </trkpt>
      <trkpt lat="41.34802" lon="1.906868">
        <ele>498.9</ele>
        <time>1970-01-01T01:28:28.000Z</time>
      </trkpt>
      <trkpt lat="41.348025" lon="1.90683">
        <ele>499.9</ele>
        <time>1970-01-01T01:28:29.000Z</time>
      </trkpt>
      <trkpt lat="41.348025" lon="1.90683">
        <ele>499.9</ele>
        <time>1970-01-01T01:28:30.000Z</time>
      </trkpt>
      <trkpt lat="41.348033" lon="1.906793">
        <ele>499.9</ele>
        <time>1970-01-01T01:28:31.000Z</time>
      </trkpt>
      <trkpt lat="41.348042" lon="1.906772">
        <ele>499.9</ele>
        <time>1970-01-01T01:28:32.000Z</time>
      </trkpt>
      <trkpt lat="41.348042" lon="1.906772">
        <ele>499.9</ele>
        <time>1970-01-01T01:28:33.000Z</time>
      </trkpt>
      <trkpt lat="41.348065" lon="1.906732">
        <ele>499.9</ele>
        <time>1970-01-01T01:28:34.000Z</time>
      </trkpt>
      <trkpt lat="41.348065" lon="1.906732">
        <ele>499.9</ele>
        <time>1970-01-01T01:28:35.000Z</time>
      </trkpt>
      <trkpt lat="41.348085" lon="1.906693">
        <ele>499.9</ele>
        <time>1970-01-01T01:28:36.000Z</time>
      </trkpt>
      <trkpt lat="41.3481" lon="1.906673">
        <ele>499.9</ele>
        <time>1970-01-01T01:28:37.000Z</time>
      </trkpt>
      <trkpt lat="41.3481" lon="1.906673">
        <ele>499.9</ele>
        <time>1970-01-01T01:28:38.000Z</time>
      </trkpt>
      <trkpt lat="41.348135" lon="1.906642">
        <ele>499.9</ele>
        <time>1970-01-01T01:28:39.000Z</time>
      </trkpt>
      <trkpt lat="41.348135" lon="1.906642">
        <ele>500.9</ele>
        <time>1970-01-01T01:28:40.000Z</time>
      </trkpt>
      <trkpt lat="41.348177" lon="1.906608">
        <ele>500.9</ele>
        <time>1970-01-01T01:28:41.000Z</time>
      </trkpt>
      <trkpt lat="41.348177" lon="1.906608">
        <ele>500.9</ele>
        <time>1970-01-01T01:28:42.000Z</time>
      </trkpt>
      <trkpt lat="41.348222" lon="1.906585">
        <ele>500.9</ele>
        <time>1970-01-01T01:28:43.000Z</time>
      </trkpt>
      <trkpt lat="41.348238" lon="1.90658">
        <ele>500.9</ele>
        <time>1970-01-01T01:28:44.000Z</time>
      </trkpt>
      <trkpt lat="41.348253" lon="1.906575">
        <ele>500.9</ele>
        <time>1970-01-01T01:28:45.000Z</time>
      </trkpt>
      <trkpt lat="41.348253" lon="1.906575">
        <ele>500.9</ele>
        <time>1970-01-01T01:28:46.000Z</time>
      </trkpt>
      <trkpt lat="41.348285" lon="1.906572">
        <ele>500.9</ele>
        <time>1970-01-01T01:28:47.000Z</time>
      </trkpt>
      <trkpt lat="41.348285" lon="1.906572">
        <ele>501.9</ele>
        <time>1970-01-01T01:28:48.000Z</time>
      </trkpt>
      <trkpt lat="41.348322" lon="1.906567">
        <ele>501.9</ele>
        <time>1970-01-01T01:28:49.000Z</time>
      </trkpt>
      <trkpt lat="41.348322" lon="1.906567">
        <ele>501.9</ele>
        <time>1970-01-01T01:28:50.000Z</time>
      </trkpt>
      <trkpt lat="41.348357" lon="1.906563">
        <ele>501.9</ele>
        <time>1970-01-01T01:28:51.000Z</time>
      </trkpt>
      <trkpt lat="41.348357" lon="1.906563">
        <ele>501.9</ele>
        <time>1970-01-01T01:28:52.000Z</time>
      </trkpt>
      <trkpt lat="41.348392" lon="1.906562">
        <ele>501.9</ele>
        <time>1970-01-01T01:28:53.000Z</time>
      </trkpt>
      <trkpt lat="41.348392" lon="1.906562">
        <ele>501.9</ele>
        <time>1970-01-01T01:28:54.000Z</time>
      </trkpt>
      <trkpt lat="41.348422" lon="1.906558">
        <ele>501.9</ele>
        <time>1970-01-01T01:28:55.000Z</time>
      </trkpt>
      <trkpt lat="41.348422" lon="1.906558">
        <ele>498.9</ele>
        <time>1970-01-01T01:28:56.000Z</time>
      </trkpt>
      <trkpt lat="41.348467" lon="1.906558">
        <ele>498.9</ele>
        <time>1970-01-01T01:28:57.000Z</time>
      </trkpt>
      <trkpt lat="41.348467" lon="1.906558">
        <ele>500.9</ele>
        <time>1970-01-01T01:28:58.000Z</time>
      </trkpt>
      <trkpt lat="41.3485" lon="1.906572">
        <ele>500.9</ele>
        <time>1970-01-01T01:28:59.000Z</time>
      </trkpt>
      <trkpt lat="41.3485" lon="1.906572">
        <ele>505.9</ele>
        <time>1970-01-01T01:29:00.000Z</time>
      </trkpt>
      <trkpt lat="41.348533" lon="1.906587">
        <ele>505.9</ele>
        <time>1970-01-01T01:29:01.000Z</time>
      </trkpt>
      <trkpt lat="41.348533" lon="1.906587">
        <ele>504.9</ele>
        <time>1970-01-01T01:29:02.000Z</time>
      </trkpt>
      <trkpt lat="41.348567" lon="1.906595">
        <ele>504.9</ele>
        <time>1970-01-01T01:29:03.000Z</time>
      </trkpt>
      <trkpt lat="41.348567" lon="1.906595">
        <ele>505.9</ele>
        <time>1970-01-01T01:29:04.000Z</time>
      </trkpt>
      <trkpt lat="41.348597" lon="1.906612">
        <ele>505.9</ele>
        <time>1970-01-01T01:29:05.000Z</time>
      </trkpt>
      <trkpt lat="41.348613" lon="1.906618">
        <ele>505.9</ele>
        <time>1970-01-01T01:29:06.000Z</time>
      </trkpt>
      <trkpt lat="41.348613" lon="1.906618">
        <ele>505.9</ele>
        <time>1970-01-01T01:29:07.000Z</time>
      </trkpt>
      <trkpt lat="41.348643" lon="1.906627">
        <ele>505.9</ele>
        <time>1970-01-01T01:29:08.000Z</time>
      </trkpt>
      <trkpt lat="41.348662" lon="1.906633">
        <ele>505.9</ele>
        <time>1970-01-01T01:29:09.000Z</time>
      </trkpt>
      <trkpt lat="41.348662" lon="1.906633">
        <ele>505.9</ele>
        <time>1970-01-01T01:29:10.000Z</time>
      </trkpt>
      <trkpt lat="41.348692" lon="1.90665">
        <ele>505.9</ele>
        <time>1970-01-01T01:29:11.000Z</time>
      </trkpt>
      <trkpt lat="41.348692" lon="1.90665">
        <ele>505.9</ele>
        <time>1970-01-01T01:29:12.000Z</time>
      </trkpt>
      <trkpt lat="41.348717" lon="1.906682">
        <ele>505.9</ele>
        <time>1970-01-01T01:29:13.000Z</time>
      </trkpt>
      <trkpt lat="41.348717" lon="1.906682">
        <ele>505.9</ele>
        <time>1970-01-01T01:29:14.000Z</time>
      </trkpt>
      <trkpt lat="41.348753" lon="1.9067">
        <ele>505.9</ele>
        <time>1970-01-01T01:29:15.000Z</time>
      </trkpt>
      <trkpt lat="41.348753" lon="1.9067">
        <ele>505.9</ele>
        <time>1970-01-01T01:29:16.000Z</time>
      </trkpt>
      <trkpt lat="41.348788" lon="1.906713">
        <ele>505.9</ele>
        <time>1970-01-01T01:29:17.000Z</time>
      </trkpt>
      <trkpt lat="41.348788" lon="1.906713">
        <ele>506.9</ele>
        <time>1970-01-01T01:29:18.000Z</time>
      </trkpt>
      <trkpt lat="41.348818" lon="1.90673">
        <ele>506.9</ele>
        <time>1970-01-01T01:29:19.000Z</time>
      </trkpt>
      <trkpt lat="41.348818" lon="1.90673">
        <ele>506.9</ele>
        <time>1970-01-01T01:29:20.000Z</time>
      </trkpt>
      <trkpt lat="41.34885" lon="1.906748">
        <ele>506.9</ele>
        <time>1970-01-01T01:29:21.000Z</time>
      </trkpt>
      <trkpt lat="41.34885" lon="1.906748">
        <ele>506.9</ele>
        <time>1970-01-01T01:29:22.000Z</time>
      </trkpt>
      <trkpt lat="41.348882" lon="1.906765">
        <ele>507.9</ele>
        <time>1970-01-01T01:29:23.000Z</time>
      </trkpt>
      <trkpt lat="41.348882" lon="1.906765">
        <ele>507.9</ele>
        <time>1970-01-01T01:29:24.000Z</time>
      </trkpt>
      <trkpt lat="41.348913" lon="1.906778">
        <ele>507.9</ele>
        <time>1970-01-01T01:29:25.000Z</time>
      </trkpt>
      <trkpt lat="41.348913" lon="1.906778">
        <ele>507.9</ele>
        <time>1970-01-01T01:29:26.000Z</time>
      </trkpt>
      <trkpt lat="41.348945" lon="1.906788">
        <ele>507.9</ele>
        <time>1970-01-01T01:29:27.000Z</time>
      </trkpt>
      <trkpt lat="41.348945" lon="1.906788">
        <ele>507.9</ele>
        <time>1970-01-01T01:29:28.000Z</time>
      </trkpt>
      <trkpt lat="41.348978" lon="1.906803">
        <ele>507.9</ele>
        <time>1970-01-01T01:29:29.000Z</time>
      </trkpt>
      <trkpt lat="41.348993" lon="1.906812">
        <ele>507.9</ele>
        <time>1970-01-01T01:29:30.000Z</time>
      </trkpt>
      <trkpt lat="41.348993" lon="1.906812">
        <ele>508.9</ele>
        <time>1970-01-01T01:29:31.000Z</time>
      </trkpt>
      <trkpt lat="41.34902" lon="1.906832">
        <ele>508.9</ele>
        <time>1970-01-01T01:29:32.000Z</time>
      </trkpt>
      <trkpt lat="41.349035" lon="1.90684">
        <ele>509.9</ele>
        <time>1970-01-01T01:29:33.000Z</time>
      </trkpt>
      <trkpt lat="41.349035" lon="1.90684">
        <ele>509.9</ele>
        <time>1970-01-01T01:29:34.000Z</time>
      </trkpt>
      <trkpt lat="41.349065" lon="1.90685">
        <ele>511.9</ele>
        <time>1970-01-01T01:29:35.000Z</time>
      </trkpt>
      <trkpt lat="41.349065" lon="1.90685">
        <ele>511.9</ele>
        <time>1970-01-01T01:29:36.000Z</time>
      </trkpt>
      <trkpt lat="41.349097" lon="1.906863">
        <ele>509.9</ele>
        <time>1970-01-01T01:29:37.000Z</time>
      </trkpt>
      <trkpt lat="41.349097" lon="1.906863">
        <ele>509.9</ele>
        <time>1970-01-01T01:29:38.000Z</time>
      </trkpt>
      <trkpt lat="41.349125" lon="1.906878">
        <ele>506.9</ele>
        <time>1970-01-01T01:29:39.000Z</time>
      </trkpt>
      <trkpt lat="41.349125" lon="1.906878">
        <ele>506.9</ele>
        <time>1970-01-01T01:29:40.000Z</time>
      </trkpt>
      <trkpt lat="41.349148" lon="1.906893">
        <ele>510.9</ele>
        <time>1970-01-01T01:29:41.000Z</time>
      </trkpt>
      <trkpt lat="41.349148" lon="1.906893">
        <ele>510.9</ele>
        <time>1970-01-01T01:29:42.000Z</time>
      </trkpt>
      <trkpt lat="41.349175" lon="1.906913">
        <ele>510.9</ele>
        <time>1970-01-01T01:29:43.000Z</time>
      </trkpt>
      <trkpt lat="41.349175" lon="1.906913">
        <ele>510.9</ele>
        <time>1970-01-01T01:29:44.000Z</time>
      </trkpt>
      <trkpt lat="41.349202" lon="1.906937">
        <ele>511.9</ele>
        <time>1970-01-01T01:29:45.000Z</time>
      </trkpt>
      <trkpt lat="41.349202" lon="1.906937">
        <ele>511.9</ele>
        <time>1970-01-01T01:29:46.000Z</time>
      </trkpt>
      <trkpt lat="41.349233" lon="1.906953">
        <ele>511.9</ele>
        <time>1970-01-01T01:29:47.000Z</time>
      </trkpt>
      <trkpt lat="41.349233" lon="1.906953">
        <ele>511.9</ele>
        <time>1970-01-01T01:29:48.000Z</time>
      </trkpt>
      <trkpt lat="41.349265" lon="1.906968">
        <ele>511.9</ele>
        <time>1970-01-01T01:29:49.000Z</time>
      </trkpt>
      <trkpt lat="41.349278" lon="1.906977">
        <ele>511.9</ele>
        <time>1970-01-01T01:29:50.000Z</time>
      </trkpt>
      <trkpt lat="41.349278" lon="1.906977">
        <ele>512.9</ele>
        <time>1970-01-01T01:29:51.000Z</time>
      </trkpt>
      <trkpt lat="41.349308" lon="1.906992">
        <ele>512.9</ele>
        <time>1970-01-01T01:29:52.000Z</time>
      </trkpt>
      <trkpt lat="41.349323" lon="1.907">
        <ele>512.9</ele>
        <time>1970-01-01T01:29:53.000Z</time>
      </trkpt>
      <trkpt lat="41.349323" lon="1.907">
        <ele>512.9</ele>
        <time>1970-01-01T01:29:54.000Z</time>
      </trkpt>
      <trkpt lat="41.349353" lon="1.907022">
        <ele>513.9</ele>
        <time>1970-01-01T01:29:55.000Z</time>
      </trkpt>
      <trkpt lat="41.349368" lon="1.907033">
        <ele>513.9</ele>
        <time>1970-01-01T01:29:56.000Z</time>
      </trkpt>
      <trkpt lat="41.349383" lon="1.907045">
        <ele>513.9</ele>
        <time>1970-01-01T01:29:57.000Z</time>
      </trkpt>
      <trkpt lat="41.349383" lon="1.907045">
        <ele>513.9</ele>
        <time>1970-01-01T01:29:58.000Z</time>
      </trkpt>
      <trkpt lat="41.349413" lon="1.907065">
        <ele>513.9</ele>
        <time>1970-01-01T01:29:59.000Z</time>
      </trkpt>
      <trkpt lat="41.349428" lon="1.907077">
        <ele>513.9</ele>
        <time>1970-01-01T01:30:00.000Z</time>
      </trkpt>
      <trkpt lat="41.349428" lon="1.907077">
        <ele>514.9</ele>
        <time>1970-01-01T01:30:01.000Z</time>
      </trkpt>
      <trkpt lat="41.34946" lon="1.907097">
        <ele>514.9</ele>
        <time>1970-01-01T01:30:02.000Z</time>
      </trkpt>
      <trkpt lat="41.349475" lon="1.907105">
        <ele>514.9</ele>
        <time>1970-01-01T01:30:03.000Z</time>
      </trkpt>
      <trkpt lat="41.349475" lon="1.907105">
        <ele>514.9</ele>
        <time>1970-01-01T01:30:04.000Z</time>
      </trkpt>
      <trkpt lat="41.349503" lon="1.907125">
        <ele>514.9</ele>
        <time>1970-01-01T01:30:05.000Z</time>
      </trkpt>
      <trkpt lat="41.349503" lon="1.907125">
        <ele>515.9</ele>
        <time>1970-01-01T01:30:06.000Z</time>
      </trkpt>
      <trkpt lat="41.349535" lon="1.907142">
        <ele>515.9</ele>
        <time>1970-01-01T01:30:07.000Z</time>
      </trkpt>
      <trkpt lat="41.349535" lon="1.907142">
        <ele>515.9</ele>
        <time>1970-01-01T01:30:08.000Z</time>
      </trkpt>
      <trkpt lat="41.349567" lon="1.907163">
        <ele>515.9</ele>
        <time>1970-01-01T01:30:09.000Z</time>
      </trkpt>
      <trkpt lat="41.349567" lon="1.907163">
        <ele>515.9</ele>
        <time>1970-01-01T01:30:10.000Z</time>
      </trkpt>
      <trkpt lat="41.349597" lon="1.907187">
        <ele>515.9</ele>
        <time>1970-01-01T01:30:11.000Z</time>
      </trkpt>
      <trkpt lat="41.349612" lon="1.907198">
        <ele>515.9</ele>
        <time>1970-01-01T01:30:12.000Z</time>
      </trkpt>
      <trkpt lat="41.349625" lon="1.907212">
        <ele>515.9</ele>
        <time>1970-01-01T01:30:13.000Z</time>
      </trkpt>
      <trkpt lat="41.349625" lon="1.907212">
        <ele>515.9</ele>
        <time>1970-01-01T01:30:14.000Z</time>
      </trkpt>
      <trkpt lat="41.349653" lon="1.907238">
        <ele>515.9</ele>
        <time>1970-01-01T01:30:15.000Z</time>
      </trkpt>
      <trkpt lat="41.349653" lon="1.907238">
        <ele>516.9</ele>
        <time>1970-01-01T01:30:16.000Z</time>
      </trkpt>
      <trkpt lat="41.34968" lon="1.907263">
        <ele>516.9</ele>
        <time>1970-01-01T01:30:17.000Z</time>
      </trkpt>
      <trkpt lat="41.349693" lon="1.907277">
        <ele>516.9</ele>
        <time>1970-01-01T01:30:18.000Z</time>
      </trkpt>
      <trkpt lat="41.349693" lon="1.907277">
        <ele>516.9</ele>
        <time>1970-01-01T01:30:19.000Z</time>
      </trkpt>
      <trkpt lat="41.34972" lon="1.907303">
        <ele>516.9</ele>
        <time>1970-01-01T01:30:20.000Z</time>
      </trkpt>
      <trkpt lat="41.349733" lon="1.907317">
        <ele>517.9</ele>
        <time>1970-01-01T01:30:21.000Z</time>
      </trkpt>
      <trkpt lat="41.349733" lon="1.907317">
        <ele>517.9</ele>
        <time>1970-01-01T01:30:22.000Z</time>
      </trkpt>
      <trkpt lat="41.349763" lon="1.907342">
        <ele>517.9</ele>
        <time>1970-01-01T01:30:23.000Z</time>
      </trkpt>
      <trkpt lat="41.349763" lon="1.907342">
        <ele>517.9</ele>
        <time>1970-01-01T01:30:24.000Z</time>
      </trkpt>
      <trkpt lat="41.349792" lon="1.907372">
        <ele>517.9</ele>
        <time>1970-01-01T01:30:25.000Z</time>
      </trkpt>
      <trkpt lat="41.349792" lon="1.907372">
        <ele>517.9</ele>
        <time>1970-01-01T01:30:26.000Z</time>
      </trkpt>
      <trkpt lat="41.349825" lon="1.907392">
        <ele>518.9</ele>
        <time>1970-01-01T01:30:27.000Z</time>
      </trkpt>
      <trkpt lat="41.349825" lon="1.907392">
        <ele>518.9</ele>
        <time>1970-01-01T01:30:28.000Z</time>
      </trkpt>
      <trkpt lat="41.349853" lon="1.907422">
        <ele>518.9</ele>
        <time>1970-01-01T01:30:29.000Z</time>
      </trkpt>
      <trkpt lat="41.349853" lon="1.907422">
        <ele>518.9</ele>
        <time>1970-01-01T01:30:30.000Z</time>
      </trkpt>
      <trkpt lat="41.349878" lon="1.907453">
        <ele>518.9</ele>
        <time>1970-01-01T01:30:31.000Z</time>
      </trkpt>
      <trkpt lat="41.349893" lon="1.90747">
        <ele>518.9</ele>
        <time>1970-01-01T01:30:32.000Z</time>
      </trkpt>
      <trkpt lat="41.349908" lon="1.907485">
        <ele>519.9</ele>
        <time>1970-01-01T01:30:33.000Z</time>
      </trkpt>
      <trkpt lat="41.349908" lon="1.907485">
        <ele>519.9</ele>
        <time>1970-01-01T01:30:34.000Z</time>
      </trkpt>
      <trkpt lat="41.349935" lon="1.907513">
        <ele>519.9</ele>
        <time>1970-01-01T01:30:35.000Z</time>
      </trkpt>
      <trkpt lat="41.349948" lon="1.907527">
        <ele>519.9</ele>
        <time>1970-01-01T01:30:36.000Z</time>
      </trkpt>
      <trkpt lat="41.349948" lon="1.907527">
        <ele>519.9</ele>
        <time>1970-01-01T01:30:37.000Z</time>
      </trkpt>
      <trkpt lat="41.349975" lon="1.907553">
        <ele>519.9</ele>
        <time>1970-01-01T01:30:38.000Z</time>
      </trkpt>
      <trkpt lat="41.349988" lon="1.907567">
        <ele>519.9</ele>
        <time>1970-01-01T01:30:39.000Z</time>
      </trkpt>
      <trkpt lat="41.349988" lon="1.907567">
        <ele>519.9</ele>
        <time>1970-01-01T01:30:40.000Z</time>
      </trkpt>
      <trkpt lat="41.350015" lon="1.9076">
        <ele>519.9</ele>
        <time>1970-01-01T01:30:41.000Z</time>
      </trkpt>
      <trkpt lat="41.350028" lon="1.907612">
        <ele>519.9</ele>
        <time>1970-01-01T01:30:42.000Z</time>
      </trkpt>
      <trkpt lat="41.350028" lon="1.907612">
        <ele>520.9</ele>
        <time>1970-01-01T01:30:43.000Z</time>
      </trkpt>
      <trkpt lat="41.35006" lon="1.907635">
        <ele>520.9</ele>
        <time>1970-01-01T01:30:44.000Z</time>
      </trkpt>
      <trkpt lat="41.35006" lon="1.907635">
        <ele>520.9</ele>
        <time>1970-01-01T01:30:45.000Z</time>
      </trkpt>
      <trkpt lat="41.350088" lon="1.907663">
        <ele>520.9</ele>
        <time>1970-01-01T01:30:46.000Z</time>
      </trkpt>
      <trkpt lat="41.350088" lon="1.907663">
        <ele>520.9</ele>
        <time>1970-01-01T01:30:47.000Z</time>
      </trkpt>
      <trkpt lat="41.35012" lon="1.907685">
        <ele>520.9</ele>
        <time>1970-01-01T01:30:48.000Z</time>
      </trkpt>
      <trkpt lat="41.35012" lon="1.907685">
        <ele>520.9</ele>
        <time>1970-01-01T01:30:49.000Z</time>
      </trkpt>
      <trkpt lat="41.350148" lon="1.907708">
        <ele>520.9</ele>
        <time>1970-01-01T01:30:50.000Z</time>
      </trkpt>
      <trkpt lat="41.350163" lon="1.907718">
        <ele>520.9</ele>
        <time>1970-01-01T01:30:51.000Z</time>
      </trkpt>
      <trkpt lat="41.350163" lon="1.907718">
        <ele>521.9</ele>
        <time>1970-01-01T01:30:52.000Z</time>
      </trkpt>
      <trkpt lat="41.350197" lon="1.907732">
        <ele>521.9</ele>
        <time>1970-01-01T01:30:53.000Z</time>
      </trkpt>
      <trkpt lat="41.350197" lon="1.907732">
        <ele>521.9</ele>
        <time>1970-01-01T01:30:54.000Z</time>
      </trkpt>
      <trkpt lat="41.350227" lon="1.907747">
        <ele>521.9</ele>
        <time>1970-01-01T01:30:55.000Z</time>
      </trkpt>
      <trkpt lat="41.350242" lon="1.907755">
        <ele>522.9</ele>
        <time>1970-01-01T01:30:56.000Z</time>
      </trkpt>
      <trkpt lat="41.350258" lon="1.907762">
        <ele>522.9</ele>
        <time>1970-01-01T01:30:57.000Z</time>
      </trkpt>
      <trkpt lat="41.350258" lon="1.907762">
        <ele>522.9</ele>
        <time>1970-01-01T01:30:58.000Z</time>
      </trkpt>
      <trkpt lat="41.350293" lon="1.90777">
        <ele>522.9</ele>
        <time>1970-01-01T01:30:59.000Z</time>
      </trkpt>
      <trkpt lat="41.350293" lon="1.90777">
        <ele>522.9</ele>
        <time>1970-01-01T01:31:00.000Z</time>
      </trkpt>
      <trkpt lat="41.35033" lon="1.90778">
        <ele>522.9</ele>
        <time>1970-01-01T01:31:01.000Z</time>
      </trkpt>
      <trkpt lat="41.350347" lon="1.907783">
        <ele>523.9</ele>
        <time>1970-01-01T01:31:02.000Z</time>
      </trkpt>
      <trkpt lat="41.350347" lon="1.907783">
        <ele>523.9</ele>
        <time>1970-01-01T01:31:03.000Z</time>
      </trkpt>
      <trkpt lat="41.35038" lon="1.907797">
        <ele>523.9</ele>
        <time>1970-01-01T01:31:04.000Z</time>
      </trkpt>
      <trkpt lat="41.35038" lon="1.907797">
        <ele>523.9</ele>
        <time>1970-01-01T01:31:05.000Z</time>
      </trkpt>
      <trkpt lat="41.350413" lon="1.907808">
        <ele>524.9</ele>
        <time>1970-01-01T01:31:06.000Z</time>
      </trkpt>
      <trkpt lat="41.350413" lon="1.907808">
        <ele>524.9</ele>
        <time>1970-01-01T01:31:07.000Z</time>
      </trkpt>
      <trkpt lat="41.350448" lon="1.907813">
        <ele>524.9</ele>
        <time>1970-01-01T01:31:08.000Z</time>
      </trkpt>
      <trkpt lat="41.350465" lon="1.907815">
        <ele>524.9</ele>
        <time>1970-01-01T01:31:09.000Z</time>
      </trkpt>
      <trkpt lat="41.350465" lon="1.907815">
        <ele>525.9</ele>
        <time>1970-01-01T01:31:10.000Z</time>
      </trkpt>
      <trkpt lat="41.350498" lon="1.907825">
        <ele>525.9</ele>
        <time>1970-01-01T01:31:11.000Z</time>
      </trkpt>
      <trkpt lat="41.350498" lon="1.907825">
        <ele>525.9</ele>
        <time>1970-01-01T01:31:12.000Z</time>
      </trkpt>
      <trkpt lat="41.35053" lon="1.907838">
        <ele>525.9</ele>
        <time>1970-01-01T01:31:13.000Z</time>
      </trkpt>
      <trkpt lat="41.35053" lon="1.907838">
        <ele>525.9</ele>
        <time>1970-01-01T01:31:14.000Z</time>
      </trkpt>
      <trkpt lat="41.350562" lon="1.907848">
        <ele>525.9</ele>
        <time>1970-01-01T01:31:15.000Z</time>
      </trkpt>
      <trkpt lat="41.350562" lon="1.907848">
        <ele>525.9</ele>
        <time>1970-01-01T01:31:16.000Z</time>
      </trkpt>
      <trkpt lat="41.35059" lon="1.907865">
        <ele>526.9</ele>
        <time>1970-01-01T01:31:17.000Z</time>
      </trkpt>
      <trkpt lat="41.35059" lon="1.907865">
        <ele>526.9</ele>
        <time>1970-01-01T01:31:18.000Z</time>
      </trkpt>
      <trkpt lat="41.350623" lon="1.907883">
        <ele>526.9</ele>
        <time>1970-01-01T01:31:19.000Z</time>
      </trkpt>
      <trkpt lat="41.350623" lon="1.907883">
        <ele>526.9</ele>
        <time>1970-01-01T01:31:20.000Z</time>
      </trkpt>
      <trkpt lat="41.350662" lon="1.907892">
        <ele>526.9</ele>
        <time>1970-01-01T01:31:21.000Z</time>
      </trkpt>
      <trkpt lat="41.350662" lon="1.907892">
        <ele>526.9</ele>
        <time>1970-01-01T01:31:22.000Z</time>
      </trkpt>
      <trkpt lat="41.350698" lon="1.9079">
        <ele>526.9</ele>
        <time>1970-01-01T01:31:23.000Z</time>
      </trkpt>
      <trkpt lat="41.350698" lon="1.9079">
        <ele>526.9</ele>
        <time>1970-01-01T01:31:24.000Z</time>
      </trkpt>
      <trkpt lat="41.350733" lon="1.907917">
        <ele>526.9</ele>
        <time>1970-01-01T01:31:25.000Z</time>
      </trkpt>
      <trkpt lat="41.35075" lon="1.907928">
        <ele>527.9</ele>
        <time>1970-01-01T01:31:26.000Z</time>
      </trkpt>
      <trkpt lat="41.35075" lon="1.907928">
        <ele>527.9</ele>
        <time>1970-01-01T01:31:27.000Z</time>
      </trkpt>
      <trkpt lat="41.350785" lon="1.907948">
        <ele>527.9</ele>
        <time>1970-01-01T01:31:28.000Z</time>
      </trkpt>
      <trkpt lat="41.350785" lon="1.907948">
        <ele>527.9</ele>
        <time>1970-01-01T01:31:29.000Z</time>
      </trkpt>
      <trkpt lat="41.350823" lon="1.907967">
        <ele>527.9</ele>
        <time>1970-01-01T01:31:30.000Z</time>
      </trkpt>
      <trkpt lat="41.350823" lon="1.907967">
        <ele>527.9</ele>
        <time>1970-01-01T01:31:31.000Z</time>
      </trkpt>
      <trkpt lat="41.350865" lon="1.907995">
        <ele>528.9</ele>
        <time>1970-01-01T01:31:32.000Z</time>
      </trkpt>
      <trkpt lat="41.350887" lon="1.908007">
        <ele>528.9</ele>
        <time>1970-01-01T01:31:33.000Z</time>
      </trkpt>
      <trkpt lat="41.350887" lon="1.908007">
        <ele>528.9</ele>
        <time>1970-01-01T01:31:34.000Z</time>
      </trkpt>
      <trkpt lat="41.350925" lon="1.908027">
        <ele>528.9</ele>
        <time>1970-01-01T01:31:35.000Z</time>
      </trkpt>
      <trkpt lat="41.350943" lon="1.908037">
        <ele>528.9</ele>
        <time>1970-01-01T01:31:36.000Z</time>
      </trkpt>
      <trkpt lat="41.350943" lon="1.908037">
        <ele>528.9</ele>
        <time>1970-01-01T01:31:37.000Z</time>
      </trkpt>
      <trkpt lat="41.350982" lon="1.90806">
        <ele>528.9</ele>
        <time>1970-01-01T01:31:38.000Z</time>
      </trkpt>
      <trkpt lat="41.351002" lon="1.90807">
        <ele>528.9</ele>
        <time>1970-01-01T01:31:39.000Z</time>
      </trkpt>
      <trkpt lat="41.351023" lon="1.908078">
        <ele>528.9</ele>
        <time>1970-01-01T01:31:40.000Z</time>
      </trkpt>
      <trkpt lat="41.351023" lon="1.908078">
        <ele>528.9</ele>
        <time>1970-01-01T01:31:41.000Z</time>
      </trkpt>
      <trkpt lat="41.351065" lon="1.908088">
        <ele>528.9</ele>
        <time>1970-01-01T01:31:42.000Z</time>
      </trkpt>
      <trkpt lat="41.351065" lon="1.908088">
        <ele>528.9</ele>
        <time>1970-01-01T01:31:43.000Z</time>
      </trkpt>
      <trkpt lat="41.351107" lon="1.908103">
        <ele>528.9</ele>
        <time>1970-01-01T01:31:44.000Z</time>
      </trkpt>
      <trkpt lat="41.351128" lon="1.90811">
        <ele>528.9</ele>
        <time>1970-01-01T01:31:45.000Z</time>
      </trkpt>
      <trkpt lat="41.35115" lon="1.908115">
        <ele>528.9</ele>
        <time>1970-01-01T01:31:46.000Z</time>
      </trkpt>
      <trkpt lat="41.35115" lon="1.908115">
        <ele>528.9</ele>
        <time>1970-01-01T01:31:47.000Z</time>
      </trkpt>
      <trkpt lat="41.351195" lon="1.908113">
        <ele>528.9</ele>
        <time>1970-01-01T01:31:48.000Z</time>
      </trkpt>
      <trkpt lat="41.351218" lon="1.90811">
        <ele>528.9</ele>
        <time>1970-01-01T01:31:49.000Z</time>
      </trkpt>
      <trkpt lat="41.351218" lon="1.90811">
        <ele>528.9</ele>
        <time>1970-01-01T01:31:50.000Z</time>
      </trkpt>
      <trkpt lat="41.351262" lon="1.908097">
        <ele>528.9</ele>
        <time>1970-01-01T01:31:51.000Z</time>
      </trkpt>
      <trkpt lat="41.351262" lon="1.908097">
        <ele>528.9</ele>
        <time>1970-01-01T01:31:52.000Z</time>
      </trkpt>
      <trkpt lat="41.3513" lon="1.908083">
        <ele>528.9</ele>
        <time>1970-01-01T01:31:53.000Z</time>
      </trkpt>
      <trkpt lat="41.351318" lon="1.908075">
        <ele>528.9</ele>
        <time>1970-01-01T01:31:54.000Z</time>
      </trkpt>
      <trkpt lat="41.351318" lon="1.908075">
        <ele>528.9</ele>
        <time>1970-01-01T01:31:55.000Z</time>
      </trkpt>
      <trkpt lat="41.351352" lon="1.908055">
        <ele>528.9</ele>
        <time>1970-01-01T01:31:56.000Z</time>
      </trkpt>
      <trkpt lat="41.351368" lon="1.908047">
        <ele>528.9</ele>
        <time>1970-01-01T01:31:57.000Z</time>
      </trkpt>
      <trkpt lat="41.351368" lon="1.908047">
        <ele>528.9</ele>
        <time>1970-01-01T01:31:58.000Z</time>
      </trkpt>
      <trkpt lat="41.351398" lon="1.908022">
        <ele>528.9</ele>
        <time>1970-01-01T01:31:59.000Z</time>
      </trkpt>
      <trkpt lat="41.351413" lon="1.908008">
        <ele>528.9</ele>
        <time>1970-01-01T01:32:00.000Z</time>
      </trkpt>
      <trkpt lat="41.351413" lon="1.908008">
        <ele>529.9</ele>
        <time>1970-01-01T01:32:01.000Z</time>
      </trkpt>
      <trkpt lat="41.35144" lon="1.907977">
        <ele>529.9</ele>
        <time>1970-01-01T01:32:02.000Z</time>
      </trkpt>
      <trkpt lat="41.351457" lon="1.907965">
        <ele>529.9</ele>
        <time>1970-01-01T01:32:03.000Z</time>
      </trkpt>
      <trkpt lat="41.351457" lon="1.907965">
        <ele>529.9</ele>
        <time>1970-01-01T01:32:04.000Z</time>
      </trkpt>
      <trkpt lat="41.351492" lon="1.907943">
        <ele>530.9</ele>
        <time>1970-01-01T01:32:05.000Z</time>
      </trkpt>
      <trkpt lat="41.351507" lon="1.90793">
        <ele>530.9</ele>
        <time>1970-01-01T01:32:06.000Z</time>
      </trkpt>
      <trkpt lat="41.351507" lon="1.90793">
        <ele>530.9</ele>
        <time>1970-01-01T01:32:07.000Z</time>
      </trkpt>
      <trkpt lat="41.351535" lon="1.907895">
        <ele>530.9</ele>
        <time>1970-01-01T01:32:08.000Z</time>
      </trkpt>
      <trkpt lat="41.351535" lon="1.907895">
        <ele>530.9</ele>
        <time>1970-01-01T01:32:09.000Z</time>
      </trkpt>
      <trkpt lat="41.351565" lon="1.907863">
        <ele>530.9</ele>
        <time>1970-01-01T01:32:10.000Z</time>
      </trkpt>
      <trkpt lat="41.351565" lon="1.907863">
        <ele>530.9</ele>
        <time>1970-01-01T01:32:11.000Z</time>
      </trkpt>
      <trkpt lat="41.351598" lon="1.907833">
        <ele>530.9</ele>
        <time>1970-01-01T01:32:12.000Z</time>
      </trkpt>
      <trkpt lat="41.351598" lon="1.907833">
        <ele>530.9</ele>
        <time>1970-01-01T01:32:13.000Z</time>
      </trkpt>
      <trkpt lat="41.35163" lon="1.907802">
        <ele>530.9</ele>
        <time>1970-01-01T01:32:14.000Z</time>
      </trkpt>
      <trkpt lat="41.351647" lon="1.907783">
        <ele>530.9</ele>
        <time>1970-01-01T01:32:15.000Z</time>
      </trkpt>
      <trkpt lat="41.351647" lon="1.907783">
        <ele>530.9</ele>
        <time>1970-01-01T01:32:16.000Z</time>
      </trkpt>
      <trkpt lat="41.35168" lon="1.907747">
        <ele>530.9</ele>
        <time>1970-01-01T01:32:17.000Z</time>
      </trkpt>
      <trkpt lat="41.351693" lon="1.90773">
        <ele>530.9</ele>
        <time>1970-01-01T01:32:18.000Z</time>
      </trkpt>
      <trkpt lat="41.351708" lon="1.907713">
        <ele>530.9</ele>
        <time>1970-01-01T01:32:19.000Z</time>
      </trkpt>
      <trkpt lat="41.351708" lon="1.907713">
        <ele>531.9</ele>
        <time>1970-01-01T01:32:20.000Z</time>
      </trkpt>
      <trkpt lat="41.351743" lon="1.907678">
        <ele>531.9</ele>
        <time>1970-01-01T01:32:21.000Z</time>
      </trkpt>
      <trkpt lat="41.351743" lon="1.907678">
        <ele>531.9</ele>
        <time>1970-01-01T01:32:22.000Z</time>
      </trkpt>
      <trkpt lat="41.351778" lon="1.907647">
        <ele>531.9</ele>
        <time>1970-01-01T01:32:23.000Z</time>
      </trkpt>
      <trkpt lat="41.351798" lon="1.90763">
        <ele>531.9</ele>
        <time>1970-01-01T01:32:24.000Z</time>
      </trkpt>
      <trkpt lat="41.351798" lon="1.90763">
        <ele>531.9</ele>
        <time>1970-01-01T01:32:25.000Z</time>
      </trkpt>
      <trkpt lat="41.351838" lon="1.907598">
        <ele>531.9</ele>
        <time>1970-01-01T01:32:26.000Z</time>
      </trkpt>
      <trkpt lat="41.35186" lon="1.907582">
        <ele>531.9</ele>
        <time>1970-01-01T01:32:27.000Z</time>
      </trkpt>
      <trkpt lat="41.35186" lon="1.907582">
        <ele>531.9</ele>
        <time>1970-01-01T01:32:28.000Z</time>
      </trkpt>
      <trkpt lat="41.351902" lon="1.907547">
        <ele>531.9</ele>
        <time>1970-01-01T01:32:29.000Z</time>
      </trkpt>
      <trkpt lat="41.351902" lon="1.907547">
        <ele>531.9</ele>
        <time>1970-01-01T01:32:30.000Z</time>
      </trkpt>
      <trkpt lat="41.351942" lon="1.907508">
        <ele>531.9</ele>
        <time>1970-01-01T01:32:31.000Z</time>
      </trkpt>
      <trkpt lat="41.351942" lon="1.907508">
        <ele>531.9</ele>
        <time>1970-01-01T01:32:32.000Z</time>
      </trkpt>
      <trkpt lat="41.351977" lon="1.907477">
        <ele>532.9</ele>
        <time>1970-01-01T01:32:33.000Z</time>
      </trkpt>
      <trkpt lat="41.351977" lon="1.907477">
        <ele>532.9</ele>
        <time>1970-01-01T01:32:34.000Z</time>
      </trkpt>
      <trkpt lat="41.352017" lon="1.907447">
        <ele>532.9</ele>
        <time>1970-01-01T01:32:35.000Z</time>
      </trkpt>
      <trkpt lat="41.352017" lon="1.907447">
        <ele>532.9</ele>
        <time>1970-01-01T01:32:36.000Z</time>
      </trkpt>
      <trkpt lat="41.352058" lon="1.907405">
        <ele>532.9</ele>
        <time>1970-01-01T01:32:37.000Z</time>
      </trkpt>
      <trkpt lat="41.352082" lon="1.907385">
        <ele>532.9</ele>
        <time>1970-01-01T01:32:38.000Z</time>
      </trkpt>
      <trkpt lat="41.352082" lon="1.907385">
        <ele>532.9</ele>
        <time>1970-01-01T01:32:39.000Z</time>
      </trkpt>
      <trkpt lat="41.35213" lon="1.907348">
        <ele>532.9</ele>
        <time>1970-01-01T01:32:40.000Z</time>
      </trkpt>
      <trkpt lat="41.35213" lon="1.907348">
        <ele>532.9</ele>
        <time>1970-01-01T01:32:41.000Z</time>
      </trkpt>
      <trkpt lat="41.352177" lon="1.907308">
        <ele>532.9</ele>
        <time>1970-01-01T01:32:42.000Z</time>
      </trkpt>
      <trkpt lat="41.352198" lon="1.907288">
        <ele>532.9</ele>
        <time>1970-01-01T01:32:43.000Z</time>
      </trkpt>
      <trkpt lat="41.352198" lon="1.907288">
        <ele>532.9</ele>
        <time>1970-01-01T01:32:44.000Z</time>
      </trkpt>
      <trkpt lat="41.352245" lon="1.90725">
        <ele>532.9</ele>
        <time>1970-01-01T01:32:45.000Z</time>
      </trkpt>
      <trkpt lat="41.352245" lon="1.90725">
        <ele>532.9</ele>
        <time>1970-01-01T01:32:46.000Z</time>
      </trkpt>
      <trkpt lat="41.352292" lon="1.907212">
        <ele>532.9</ele>
        <time>1970-01-01T01:32:47.000Z</time>
      </trkpt>
      <trkpt lat="41.352315" lon="1.907192">
        <ele>532.9</ele>
        <time>1970-01-01T01:32:48.000Z</time>
      </trkpt>
      <trkpt lat="41.352315" lon="1.907192">
        <ele>532.9</ele>
        <time>1970-01-01T01:32:49.000Z</time>
      </trkpt>
      <trkpt lat="41.35236" lon="1.907148">
        <ele>532.9</ele>
        <time>1970-01-01T01:32:50.000Z</time>
      </trkpt>
      <trkpt lat="41.352383" lon="1.907127">
        <ele>532.9</ele>
        <time>1970-01-01T01:32:51.000Z</time>
      </trkpt>
      <trkpt lat="41.352383" lon="1.907127">
        <ele>532.9</ele>
        <time>1970-01-01T01:32:52.000Z</time>
      </trkpt>
      <trkpt lat="41.352435" lon="1.907083">
        <ele>532.9</ele>
        <time>1970-01-01T01:32:53.000Z</time>
      </trkpt>
      <trkpt lat="41.352463" lon="1.90706">
        <ele>532.9</ele>
        <time>1970-01-01T01:32:54.000Z</time>
      </trkpt>
      <trkpt lat="41.352463" lon="1.90706">
        <ele>532.9</ele>
        <time>1970-01-01T01:32:55.000Z</time>
      </trkpt>
      <trkpt lat="41.352523" lon="1.907008">
        <ele>532.9</ele>
        <time>1970-01-01T01:32:56.000Z</time>
      </trkpt>
      <trkpt lat="41.352555" lon="1.90698">
        <ele>531.9</ele>
        <time>1970-01-01T01:32:57.000Z</time>
      </trkpt>
      <trkpt lat="41.352555" lon="1.90698">
        <ele>531.9</ele>
        <time>1970-01-01T01:32:58.000Z</time>
      </trkpt>
      <trkpt lat="41.352613" lon="1.906922">
        <ele>531.9</ele>
        <time>1970-01-01T01:32:59.000Z</time>
      </trkpt>
      <trkpt lat="41.352613" lon="1.906922">
        <ele>531.9</ele>
        <time>1970-01-01T01:33:00.000Z</time>
      </trkpt>
      <trkpt lat="41.352668" lon="1.906857">
        <ele>531.9</ele>
        <time>1970-01-01T01:33:01.000Z</time>
      </trkpt>
      <trkpt lat="41.352668" lon="1.906857">
        <ele>531.9</ele>
        <time>1970-01-01T01:33:02.000Z</time>
      </trkpt>
      <trkpt lat="41.35272" lon="1.906785">
        <ele>531.9</ele>
        <time>1970-01-01T01:33:03.000Z</time>
      </trkpt>
      <trkpt lat="41.35272" lon="1.906785">
        <ele>531.9</ele>
        <time>1970-01-01T01:33:04.000Z</time>
      </trkpt>
      <trkpt lat="41.352772" lon="1.906713">
        <ele>531.9</ele>
        <time>1970-01-01T01:33:05.000Z</time>
      </trkpt>
      <trkpt lat="41.352772" lon="1.906713">
        <ele>530.9</ele>
        <time>1970-01-01T01:33:06.000Z</time>
      </trkpt>
      <trkpt lat="41.352823" lon="1.906637">
        <ele>530.9</ele>
        <time>1970-01-01T01:33:07.000Z</time>
      </trkpt>
      <trkpt lat="41.352823" lon="1.906637">
        <ele>530.9</ele>
        <time>1970-01-01T01:33:08.000Z</time>
      </trkpt>
      <trkpt lat="41.352872" lon="1.906558">
        <ele>530.9</ele>
        <time>1970-01-01T01:33:09.000Z</time>
      </trkpt>
      <trkpt lat="41.352872" lon="1.906558">
        <ele>530.9</ele>
        <time>1970-01-01T01:33:10.000Z</time>
      </trkpt>
      <trkpt lat="41.352925" lon="1.906487">
        <ele>530.9</ele>
        <time>1970-01-01T01:33:11.000Z</time>
      </trkpt>
      <trkpt lat="41.352952" lon="1.90645">
        <ele>530.9</ele>
        <time>1970-01-01T01:33:12.000Z</time>
      </trkpt>
      <trkpt lat="41.352952" lon="1.90645">
        <ele>530.9</ele>
        <time>1970-01-01T01:33:13.000Z</time>
      </trkpt>
      <trkpt lat="41.353003" lon="1.90637">
        <ele>530.9</ele>
        <time>1970-01-01T01:33:14.000Z</time>
      </trkpt>
      <trkpt lat="41.353025" lon="1.90633">
        <ele>530.9</ele>
        <time>1970-01-01T01:33:15.000Z</time>
      </trkpt>
      <trkpt lat="41.353025" lon="1.90633">
        <ele>530.9</ele>
        <time>1970-01-01T01:33:16.000Z</time>
      </trkpt>
      <trkpt lat="41.353068" lon="1.906248">
        <ele>529.9</ele>
        <time>1970-01-01T01:33:17.000Z</time>
      </trkpt>
      <trkpt lat="41.353068" lon="1.906248">
        <ele>529.9</ele>
        <time>1970-01-01T01:33:18.000Z</time>
      </trkpt>
      <trkpt lat="41.353102" lon="1.90616">
        <ele>529.9</ele>
        <time>1970-01-01T01:33:19.000Z</time>
      </trkpt>
      <trkpt lat="41.353102" lon="1.90616">
        <ele>529.9</ele>
        <time>1970-01-01T01:33:20.000Z</time>
      </trkpt>
      <trkpt lat="41.353128" lon="1.906072">
        <ele>529.9</ele>
        <time>1970-01-01T01:33:21.000Z</time>
      </trkpt>
      <trkpt lat="41.353128" lon="1.906072">
        <ele>529.9</ele>
        <time>1970-01-01T01:33:22.000Z</time>
      </trkpt>
      <trkpt lat="41.353152" lon="1.905983">
        <ele>529.9</ele>
        <time>1970-01-01T01:33:23.000Z</time>
      </trkpt>
      <trkpt lat="41.353152" lon="1.905983">
        <ele>529.9</ele>
        <time>1970-01-01T01:33:24.000Z</time>
      </trkpt>
      <trkpt lat="41.35317" lon="1.905892">
        <ele>529.9</ele>
        <time>1970-01-01T01:33:25.000Z</time>
      </trkpt>
      <trkpt lat="41.35317" lon="1.905892">
        <ele>529.9</ele>
        <time>1970-01-01T01:33:26.000Z</time>
      </trkpt>
      <trkpt lat="41.353182" lon="1.905797">
        <ele>529.9</ele>
        <time>1970-01-01T01:33:27.000Z</time>
      </trkpt>
      <trkpt lat="41.353182" lon="1.905797">
        <ele>529.9</ele>
        <time>1970-01-01T01:33:28.000Z</time>
      </trkpt>
      <trkpt lat="41.353182" lon="1.905702">
        <ele>530.9</ele>
        <time>1970-01-01T01:33:29.000Z</time>
      </trkpt>
      <trkpt lat="41.353182" lon="1.905702">
        <ele>530.9</ele>
        <time>1970-01-01T01:33:30.000Z</time>
      </trkpt>
      <trkpt lat="41.353182" lon="1.905608">
        <ele>530.9</ele>
        <time>1970-01-01T01:33:31.000Z</time>
      </trkpt>
      <trkpt lat="41.353182" lon="1.905565">
        <ele>530.9</ele>
        <time>1970-01-01T01:33:32.000Z</time>
      </trkpt>
      <trkpt lat="41.35318" lon="1.905518">
        <ele>530.9</ele>
        <time>1970-01-01T01:33:33.000Z</time>
      </trkpt>
      <trkpt lat="41.35318" lon="1.905518">
        <ele>530.9</ele>
        <time>1970-01-01T01:33:34.000Z</time>
      </trkpt>
      <trkpt lat="41.353182" lon="1.905425">
        <ele>530.9</ele>
        <time>1970-01-01T01:33:35.000Z</time>
      </trkpt>
      <trkpt lat="41.353182" lon="1.905425">
        <ele>530.9</ele>
        <time>1970-01-01T01:33:36.000Z</time>
      </trkpt>
      <trkpt lat="41.353182" lon="1.90532">
        <ele>531.9</ele>
        <time>1970-01-01T01:33:37.000Z</time>
      </trkpt>
      <trkpt lat="41.353182" lon="1.90532">
        <ele>531.9</ele>
        <time>1970-01-01T01:33:38.000Z</time>
      </trkpt>
      <trkpt lat="41.353183" lon="1.905212">
        <ele>531.9</ele>
        <time>1970-01-01T01:33:39.000Z</time>
      </trkpt>
      <trkpt lat="41.353183" lon="1.905212">
        <ele>531.9</ele>
        <time>1970-01-01T01:33:40.000Z</time>
      </trkpt>
      <trkpt lat="41.353195" lon="1.905102">
        <ele>531.9</ele>
        <time>1970-01-01T01:33:41.000Z</time>
      </trkpt>
      <trkpt lat="41.353202" lon="1.905047">
        <ele>531.9</ele>
        <time>1970-01-01T01:33:42.000Z</time>
      </trkpt>
      <trkpt lat="41.353202" lon="1.905047">
        <ele>531.9</ele>
        <time>1970-01-01T01:33:43.000Z</time>
      </trkpt>
      <trkpt lat="41.353213" lon="1.904938">
        <ele>531.9</ele>
        <time>1970-01-01T01:33:44.000Z</time>
      </trkpt>
      <trkpt lat="41.353222" lon="1.904887">
        <ele>531.9</ele>
        <time>1970-01-01T01:33:45.000Z</time>
      </trkpt>
      <trkpt lat="41.353222" lon="1.904887">
        <ele>531.9</ele>
        <time>1970-01-01T01:33:46.000Z</time>
      </trkpt>
      <trkpt lat="41.353242" lon="1.904783">
        <ele>531.9</ele>
        <time>1970-01-01T01:33:47.000Z</time>
      </trkpt>
      <trkpt lat="41.353242" lon="1.904783">
        <ele>531.9</ele>
        <time>1970-01-01T01:33:48.000Z</time>
      </trkpt>
      <trkpt lat="41.353263" lon="1.904685">
        <ele>531.9</ele>
        <time>1970-01-01T01:33:49.000Z</time>
      </trkpt>
      <trkpt lat="41.353263" lon="1.904685">
        <ele>530.9</ele>
        <time>1970-01-01T01:33:50.000Z</time>
      </trkpt>
      <trkpt lat="41.353292" lon="1.904595">
        <ele>530.9</ele>
        <time>1970-01-01T01:33:51.000Z</time>
      </trkpt>
      <trkpt lat="41.353292" lon="1.904595">
        <ele>530.9</ele>
        <time>1970-01-01T01:33:52.000Z</time>
      </trkpt>
      <trkpt lat="41.353328" lon="1.904515">
        <ele>530.9</ele>
        <time>1970-01-01T01:33:53.000Z</time>
      </trkpt>
      <trkpt lat="41.353328" lon="1.904515">
        <ele>530.9</ele>
        <time>1970-01-01T01:33:54.000Z</time>
      </trkpt>
      <trkpt lat="41.35337" lon="1.904442">
        <ele>530.9</ele>
        <time>1970-01-01T01:33:55.000Z</time>
      </trkpt>
      <trkpt lat="41.353392" lon="1.904408">
        <ele>530.9</ele>
        <time>1970-01-01T01:33:56.000Z</time>
      </trkpt>
      <trkpt lat="41.353392" lon="1.904408">
        <ele>530.9</ele>
        <time>1970-01-01T01:33:57.000Z</time>
      </trkpt>
      <trkpt lat="41.353435" lon="1.904345">
        <ele>530.9</ele>
        <time>1970-01-01T01:33:58.000Z</time>
      </trkpt>
      <trkpt lat="41.353435" lon="1.904345">
        <ele>530.9</ele>
        <time>1970-01-01T01:33:59.000Z</time>
      </trkpt>
      <trkpt lat="41.353475" lon="1.904273">
        <ele>530.9</ele>
        <time>1970-01-01T01:34:00.000Z</time>
      </trkpt>
      <trkpt lat="41.353475" lon="1.904273">
        <ele>530.9</ele>
        <time>1970-01-01T01:34:01.000Z</time>
      </trkpt>
      <trkpt lat="41.353512" lon="1.904197">
        <ele>531.9</ele>
        <time>1970-01-01T01:34:02.000Z</time>
      </trkpt>
      <trkpt lat="41.35353" lon="1.904157">
        <ele>531.9</ele>
        <time>1970-01-01T01:34:03.000Z</time>
      </trkpt>
      <trkpt lat="41.35353" lon="1.904157">
        <ele>531.9</ele>
        <time>1970-01-01T01:34:04.000Z</time>
      </trkpt>
      <trkpt lat="41.353567" lon="1.904072">
        <ele>531.9</ele>
        <time>1970-01-01T01:34:05.000Z</time>
      </trkpt>
      <trkpt lat="41.353585" lon="1.904027">
        <ele>531.9</ele>
        <time>1970-01-01T01:34:06.000Z</time>
      </trkpt>
      <trkpt lat="41.353585" lon="1.904027">
        <ele>531.9</ele>
        <time>1970-01-01T01:34:07.000Z</time>
      </trkpt>
      <trkpt lat="41.353622" lon="1.90393">
        <ele>531.9</ele>
        <time>1970-01-01T01:34:08.000Z</time>
      </trkpt>
      <trkpt lat="41.353637" lon="1.903882">
        <ele>531.9</ele>
        <time>1970-01-01T01:34:09.000Z</time>
      </trkpt>
      <trkpt lat="41.353637" lon="1.903882">
        <ele>531.9</ele>
        <time>1970-01-01T01:34:10.000Z</time>
      </trkpt>
      <trkpt lat="41.353667" lon="1.903792">
        <ele>531.9</ele>
        <time>1970-01-01T01:34:11.000Z</time>
      </trkpt>
      <trkpt lat="41.353667" lon="1.903792">
        <ele>531.9</ele>
        <time>1970-01-01T01:34:12.000Z</time>
      </trkpt>
      <trkpt lat="41.353687" lon="1.903705">
        <ele>531.9</ele>
        <time>1970-01-01T01:34:13.000Z</time>
      </trkpt>
      <trkpt lat="41.353695" lon="1.903662">
        <ele>531.9</ele>
        <time>1970-01-01T01:34:14.000Z</time>
      </trkpt>
      <trkpt lat="41.353695" lon="1.903662">
        <ele>531.9</ele>
        <time>1970-01-01T01:34:15.000Z</time>
      </trkpt>
      <trkpt lat="41.3537" lon="1.903567">
        <ele>531.9</ele>
        <time>1970-01-01T01:34:16.000Z</time>
      </trkpt>
      <trkpt lat="41.3537" lon="1.903567">
        <ele>531.9</ele>
        <time>1970-01-01T01:34:17.000Z</time>
      </trkpt>
      <trkpt lat="41.353675" lon="1.903463">
        <ele>531.9</ele>
        <time>1970-01-01T01:34:18.000Z</time>
      </trkpt>
      <trkpt lat="41.353675" lon="1.903463">
        <ele>531.9</ele>
        <time>1970-01-01T01:34:19.000Z</time>
      </trkpt>
      <trkpt lat="41.353637" lon="1.903367">
        <ele>531.9</ele>
        <time>1970-01-01T01:34:20.000Z</time>
      </trkpt>
      <trkpt lat="41.35362" lon="1.90332">
        <ele>531.9</ele>
        <time>1970-01-01T01:34:21.000Z</time>
      </trkpt>
      <trkpt lat="41.35362" lon="1.90332">
        <ele>531.9</ele>
        <time>1970-01-01T01:34:22.000Z</time>
      </trkpt>
      <trkpt lat="41.353583" lon="1.903233">
        <ele>531.9</ele>
        <time>1970-01-01T01:34:23.000Z</time>
      </trkpt>
      <trkpt lat="41.353583" lon="1.903233">
        <ele>531.9</ele>
        <time>1970-01-01T01:34:24.000Z</time>
      </trkpt>
      <trkpt lat="41.353545" lon="1.903147">
        <ele>531.9</ele>
        <time>1970-01-01T01:34:25.000Z</time>
      </trkpt>
      <trkpt lat="41.353545" lon="1.903147">
        <ele>531.9</ele>
        <time>1970-01-01T01:34:26.000Z</time>
      </trkpt>
      <trkpt lat="41.353505" lon="1.903057">
        <ele>531.9</ele>
        <time>1970-01-01T01:34:27.000Z</time>
      </trkpt>
      <trkpt lat="41.353505" lon="1.903057">
        <ele>531.9</ele>
        <time>1970-01-01T01:34:28.000Z</time>
      </trkpt>
      <trkpt lat="41.35346" lon="1.902952">
        <ele>531.9</ele>
        <time>1970-01-01T01:34:29.000Z</time>
      </trkpt>
      <trkpt lat="41.35346" lon="1.902952">
        <ele>531.9</ele>
        <time>1970-01-01T01:34:30.000Z</time>
      </trkpt>
      <trkpt lat="41.35342" lon="1.902835">
        <ele>531.9</ele>
        <time>1970-01-01T01:34:31.000Z</time>
      </trkpt>
      <trkpt lat="41.35342" lon="1.902835">
        <ele>530.9</ele>
        <time>1970-01-01T01:34:32.000Z</time>
      </trkpt>
      <trkpt lat="41.353393" lon="1.9027">
        <ele>530.9</ele>
        <time>1970-01-01T01:34:33.000Z</time>
      </trkpt>
      <trkpt lat="41.353393" lon="1.9027">
        <ele>530.9</ele>
        <time>1970-01-01T01:34:34.000Z</time>
      </trkpt>
      <trkpt lat="41.353388" lon="1.902558">
        <ele>530.9</ele>
        <time>1970-01-01T01:34:35.000Z</time>
      </trkpt>
      <trkpt lat="41.353388" lon="1.902558">
        <ele>530.9</ele>
        <time>1970-01-01T01:34:36.000Z</time>
      </trkpt>
      <trkpt lat="41.353405" lon="1.90242">
        <ele>530.9</ele>
        <time>1970-01-01T01:34:37.000Z</time>
      </trkpt>
      <trkpt lat="41.35342" lon="1.902357">
        <ele>530.9</ele>
        <time>1970-01-01T01:34:38.000Z</time>
      </trkpt>
      <trkpt lat="41.35342" lon="1.902357">
        <ele>530.9</ele>
        <time>1970-01-01T01:34:39.000Z</time>
      </trkpt>
      <trkpt lat="41.353458" lon="1.902233">
        <ele>530.9</ele>
        <time>1970-01-01T01:34:40.000Z</time>
      </trkpt>
      <trkpt lat="41.353458" lon="1.902233">
        <ele>530.9</ele>
        <time>1970-01-01T01:34:41.000Z</time>
      </trkpt>
      <trkpt lat="41.35352" lon="1.902103">
        <ele>529.9</ele>
        <time>1970-01-01T01:34:42.000Z</time>
      </trkpt>
      <trkpt lat="41.35352" lon="1.902103">
        <ele>529.9</ele>
        <time>1970-01-01T01:34:43.000Z</time>
      </trkpt>
      <trkpt lat="41.353603" lon="1.901983">
        <ele>529.9</ele>
        <time>1970-01-01T01:34:44.000Z</time>
      </trkpt>
      <trkpt lat="41.353653" lon="1.901932">
        <ele>529.9</ele>
        <time>1970-01-01T01:34:45.000Z</time>
      </trkpt>
      <trkpt lat="41.353653" lon="1.901932">
        <ele>528.9</ele>
        <time>1970-01-01T01:34:46.000Z</time>
      </trkpt>
      <trkpt lat="41.35376" lon="1.90184">
        <ele>528.9</ele>
        <time>1970-01-01T01:34:47.000Z</time>
      </trkpt>
      <trkpt lat="41.353813" lon="1.901797">
        <ele>528.9</ele>
        <time>1970-01-01T01:34:48.000Z</time>
      </trkpt>
      <trkpt lat="41.353813" lon="1.901797">
        <ele>528.9</ele>
        <time>1970-01-01T01:34:49.000Z</time>
      </trkpt>
      <trkpt lat="41.353922" lon="1.90172">
        <ele>527.9</ele>
        <time>1970-01-01T01:34:50.000Z</time>
      </trkpt>
      <trkpt lat="41.353978" lon="1.901687">
        <ele>527.9</ele>
        <time>1970-01-01T01:34:51.000Z</time>
      </trkpt>
      <trkpt lat="41.353978" lon="1.901687">
        <ele>526.9</ele>
        <time>1970-01-01T01:34:52.000Z</time>
      </trkpt>
      <trkpt lat="41.35409" lon="1.901627">
        <ele>526.9</ele>
        <time>1970-01-01T01:34:53.000Z</time>
      </trkpt>
      <trkpt lat="41.35409" lon="1.901627">
        <ele>526.9</ele>
        <time>1970-01-01T01:34:54.000Z</time>
      </trkpt>
      <trkpt lat="41.354198" lon="1.90158">
        <ele>526.9</ele>
        <time>1970-01-01T01:34:55.000Z</time>
      </trkpt>
      <trkpt lat="41.354198" lon="1.90158">
        <ele>526.9</ele>
        <time>1970-01-01T01:34:56.000Z</time>
      </trkpt>
      <trkpt lat="41.354282" lon="1.901507">
        <ele>526.9</ele>
        <time>1970-01-01T01:34:57.000Z</time>
      </trkpt>
      <trkpt lat="41.354282" lon="1.901507">
        <ele>526.9</ele>
        <time>1970-01-01T01:34:58.000Z</time>
      </trkpt>
      <trkpt lat="41.354318" lon="1.901402">
        <ele>526.9</ele>
        <time>1970-01-01T01:34:59.000Z</time>
      </trkpt>
      <trkpt lat="41.354335" lon="1.901358">
        <ele>526.9</ele>
        <time>1970-01-01T01:35:00.000Z</time>
      </trkpt>
      <trkpt lat="41.354335" lon="1.901358">
        <ele>526.9</ele>
        <time>1970-01-01T01:35:01.000Z</time>
      </trkpt>
      <trkpt lat="41.354372" lon="1.901285">
        <ele>527.9</ele>
        <time>1970-01-01T01:35:02.000Z</time>
      </trkpt>
      <trkpt lat="41.354393" lon="1.901257">
        <ele>527.9</ele>
        <time>1970-01-01T01:35:03.000Z</time>
      </trkpt>
      <trkpt lat="41.354393" lon="1.901257">
        <ele>528.9</ele>
        <time>1970-01-01T01:35:04.000Z</time>
      </trkpt>
      <trkpt lat="41.354442" lon="1.901217">
        <ele>528.9</ele>
        <time>1970-01-01T01:35:05.000Z</time>
      </trkpt>
      <trkpt lat="41.354467" lon="1.901197">
        <ele>529.9</ele>
        <time>1970-01-01T01:35:06.000Z</time>
      </trkpt>
      <trkpt lat="41.354467" lon="1.901197">
        <ele>529.9</ele>
        <time>1970-01-01T01:35:07.000Z</time>
      </trkpt>
      <trkpt lat="41.35453" lon="1.901155">
        <ele>530.9</ele>
        <time>1970-01-01T01:35:08.000Z</time>
      </trkpt>
      <trkpt lat="41.354562" lon="1.901132">
        <ele>530.9</ele>
        <time>1970-01-01T01:35:09.000Z</time>
      </trkpt>
      <trkpt lat="41.354562" lon="1.901132">
        <ele>530.9</ele>
        <time>1970-01-01T01:35:10.000Z</time>
      </trkpt>
      <trkpt lat="41.354618" lon="1.90109">
        <ele>531.9</ele>
        <time>1970-01-01T01:35:11.000Z</time>
      </trkpt>
      <trkpt lat="41.354618" lon="1.90109">
        <ele>531.9</ele>
        <time>1970-01-01T01:35:12.000Z</time>
      </trkpt>
      <trkpt lat="41.354667" lon="1.901048">
        <ele>532.9</ele>
        <time>1970-01-01T01:35:13.000Z</time>
      </trkpt>
      <trkpt lat="41.354667" lon="1.901048">
        <ele>532.9</ele>
        <time>1970-01-01T01:35:14.000Z</time>
      </trkpt>
      <trkpt lat="41.354728" lon="1.901015">
        <ele>532.9</ele>
        <time>1970-01-01T01:35:15.000Z</time>
      </trkpt>
      <trkpt lat="41.35476" lon="1.900997">
        <ele>532.9</ele>
        <time>1970-01-01T01:35:16.000Z</time>
      </trkpt>
      <trkpt lat="41.35476" lon="1.900997">
        <ele>532.9</ele>
        <time>1970-01-01T01:35:17.000Z</time>
      </trkpt>
      <trkpt lat="41.354813" lon="1.900965">
        <ele>532.9</ele>
        <time>1970-01-01T01:35:18.000Z</time>
      </trkpt>
      <trkpt lat="41.354837" lon="1.900948">
        <ele>532.9</ele>
        <time>1970-01-01T01:35:19.000Z</time>
      </trkpt>
      <trkpt lat="41.354837" lon="1.900948">
        <ele>532.9</ele>
        <time>1970-01-01T01:35:20.000Z</time>
      </trkpt>
      <trkpt lat="41.354892" lon="1.900913">
        <ele>532.9</ele>
        <time>1970-01-01T01:35:21.000Z</time>
      </trkpt>
      <trkpt lat="41.354892" lon="1.900913">
        <ele>532.9</ele>
        <time>1970-01-01T01:35:22.000Z</time>
      </trkpt>
      <trkpt lat="41.354955" lon="1.90088">
        <ele>533.9</ele>
        <time>1970-01-01T01:35:23.000Z</time>
      </trkpt>
      <trkpt lat="41.354987" lon="1.900868">
        <ele>533.9</ele>
        <time>1970-01-01T01:35:24.000Z</time>
      </trkpt>
      <trkpt lat="41.354987" lon="1.900868">
        <ele>533.9</ele>
        <time>1970-01-01T01:35:25.000Z</time>
      </trkpt>
      <trkpt lat="41.355047" lon="1.900843">
        <ele>533.9</ele>
        <time>1970-01-01T01:35:26.000Z</time>
      </trkpt>
      <trkpt lat="41.355075" lon="1.900833">
        <ele>533.9</ele>
        <time>1970-01-01T01:35:27.000Z</time>
      </trkpt>
      <trkpt lat="41.355075" lon="1.900833">
        <ele>533.9</ele>
        <time>1970-01-01T01:35:28.000Z</time>
      </trkpt>
      <trkpt lat="41.355128" lon="1.900812">
        <ele>533.9</ele>
        <time>1970-01-01T01:35:29.000Z</time>
      </trkpt>
      <trkpt lat="41.355158" lon="1.900785">
        <ele>534.9</ele>
        <time>1970-01-01T01:35:30.000Z</time>
      </trkpt>
      <trkpt lat="41.355158" lon="1.900785">
        <ele>534.9</ele>
        <time>1970-01-01T01:35:31.000Z</time>
      </trkpt>
      <trkpt lat="41.3552" lon="1.900717">
        <ele>534.9</ele>
        <time>1970-01-01T01:35:32.000Z</time>
      </trkpt>
      <trkpt lat="41.3552" lon="1.900717">
        <ele>534.9</ele>
        <time>1970-01-01T01:35:33.000Z</time>
      </trkpt>
      <trkpt lat="41.355198" lon="1.90065">
        <ele>534.9</ele>
        <time>1970-01-01T01:35:34.000Z</time>
      </trkpt>
      <trkpt lat="41.355198" lon="1.900615">
        <ele>534.9</ele>
        <time>1970-01-01T01:35:35.000Z</time>
      </trkpt>
      <trkpt lat="41.355198" lon="1.900615">
        <ele>535.9</ele>
        <time>1970-01-01T01:35:36.000Z</time>
      </trkpt>
      <trkpt lat="41.355195" lon="1.900543">
        <ele>535.9</ele>
        <time>1970-01-01T01:35:37.000Z</time>
      </trkpt>
      <trkpt lat="41.355195" lon="1.900543">
        <ele>535.9</ele>
        <time>1970-01-01T01:35:38.000Z</time>
      </trkpt>
      <trkpt lat="41.355195" lon="1.900463">
        <ele>535.9</ele>
        <time>1970-01-01T01:35:39.000Z</time>
      </trkpt>
      <trkpt lat="41.355195" lon="1.900463">
        <ele>535.9</ele>
        <time>1970-01-01T01:35:40.000Z</time>
      </trkpt>
      <trkpt lat="41.355202" lon="1.90038">
        <ele>535.9</ele>
        <time>1970-01-01T01:35:41.000Z</time>
      </trkpt>
      <trkpt lat="41.355202" lon="1.90038">
        <ele>535.9</ele>
        <time>1970-01-01T01:35:42.000Z</time>
      </trkpt>
      <trkpt lat="41.355208" lon="1.90029">
        <ele>535.9</ele>
        <time>1970-01-01T01:35:43.000Z</time>
      </trkpt>
      <trkpt lat="41.355208" lon="1.90029">
        <ele>535.9</ele>
        <time>1970-01-01T01:35:44.000Z</time>
      </trkpt>
      <trkpt lat="41.355212" lon="1.900202">
        <ele>535.9</ele>
        <time>1970-01-01T01:35:45.000Z</time>
      </trkpt>
      <trkpt lat="41.355212" lon="1.900202">
        <ele>535.9</ele>
        <time>1970-01-01T01:35:46.000Z</time>
      </trkpt>
      <trkpt lat="41.355218" lon="1.900115">
        <ele>535.9</ele>
        <time>1970-01-01T01:35:47.000Z</time>
      </trkpt>
      <trkpt lat="41.355218" lon="1.90007">
        <ele>535.9</ele>
        <time>1970-01-01T01:35:48.000Z</time>
      </trkpt>
      <trkpt lat="41.355218" lon="1.90007">
        <ele>535.9</ele>
        <time>1970-01-01T01:35:49.000Z</time>
      </trkpt>
      <trkpt lat="41.35521" lon="1.899967">
        <ele>535.9</ele>
        <time>1970-01-01T01:35:50.000Z</time>
      </trkpt>
      <trkpt lat="41.35521" lon="1.899967">
        <ele>535.9</ele>
        <time>1970-01-01T01:35:51.000Z</time>
      </trkpt>
      <trkpt lat="41.355195" lon="1.899858">
        <ele>535.9</ele>
        <time>1970-01-01T01:35:52.000Z</time>
      </trkpt>
      <trkpt lat="41.355195" lon="1.899858">
        <ele>535.9</ele>
        <time>1970-01-01T01:35:53.000Z</time>
      </trkpt>
      <trkpt lat="41.355183" lon="1.899752">
        <ele>535.9</ele>
        <time>1970-01-01T01:35:54.000Z</time>
      </trkpt>
      <trkpt lat="41.355183" lon="1.899752">
        <ele>534.9</ele>
        <time>1970-01-01T01:35:55.000Z</time>
      </trkpt>
      <trkpt lat="41.355173" lon="1.899648">
        <ele>534.9</ele>
        <time>1970-01-01T01:35:56.000Z</time>
      </trkpt>
      <trkpt lat="41.355173" lon="1.899648">
        <ele>534.9</ele>
        <time>1970-01-01T01:35:57.000Z</time>
      </trkpt>
      <trkpt lat="41.355163" lon="1.899548">
        <ele>534.9</ele>
        <time>1970-01-01T01:35:58.000Z</time>
      </trkpt>
      <trkpt lat="41.355163" lon="1.899548">
        <ele>534.9</ele>
        <time>1970-01-01T01:35:59.000Z</time>
      </trkpt>
      <trkpt lat="41.355153" lon="1.899455">
        <ele>534.9</ele>
        <time>1970-01-01T01:36:00.000Z</time>
      </trkpt>
      <trkpt lat="41.355147" lon="1.899413">
        <ele>534.9</ele>
        <time>1970-01-01T01:36:01.000Z</time>
      </trkpt>
      <trkpt lat="41.355147" lon="1.899413">
        <ele>534.9</ele>
        <time>1970-01-01T01:36:02.000Z</time>
      </trkpt>
      <trkpt lat="41.355133" lon="1.899348">
        <ele>534.9</ele>
        <time>1970-01-01T01:36:03.000Z</time>
      </trkpt>
      <trkpt lat="41.355127" lon="1.899323">
        <ele>534.9</ele>
        <time>1970-01-01T01:36:04.000Z</time>
      </trkpt>
      <trkpt lat="41.355127" lon="1.899323">
        <ele>534.9</ele>
        <time>1970-01-01T01:36:05.000Z</time>
      </trkpt>
      <trkpt lat="41.35511" lon="1.89928">
        <ele>534.9</ele>
        <time>1970-01-01T01:36:06.000Z</time>
      </trkpt>
      <trkpt lat="41.35511" lon="1.89928">
        <ele>534.9</ele>
        <time>1970-01-01T01:36:07.000Z</time>
      </trkpt>
      <trkpt lat="41.355085" lon="1.899237">
        <ele>534.9</ele>
        <time>1970-01-01T01:36:08.000Z</time>
      </trkpt>
      <trkpt lat="41.355073" lon="1.899215">
        <ele>535.9</ele>
        <time>1970-01-01T01:36:09.000Z</time>
      </trkpt>
      <trkpt lat="41.355073" lon="1.899215">
        <ele>535.9</ele>
        <time>1970-01-01T01:36:10.000Z</time>
      </trkpt>
      <trkpt lat="41.355045" lon="1.899168">
        <ele>535.9</ele>
        <time>1970-01-01T01:36:11.000Z</time>
      </trkpt>
      <trkpt lat="41.35503" lon="1.899148">
        <ele>535.9</ele>
        <time>1970-01-01T01:36:12.000Z</time>
      </trkpt>
      <trkpt lat="41.35503" lon="1.899148">
        <ele>535.9</ele>
        <time>1970-01-01T01:36:13.000Z</time>
      </trkpt>
      <trkpt lat="41.354995" lon="1.89911">
        <ele>535.9</ele>
        <time>1970-01-01T01:36:14.000Z</time>
      </trkpt>
      <trkpt lat="41.354977" lon="1.899092">
        <ele>535.9</ele>
        <time>1970-01-01T01:36:15.000Z</time>
      </trkpt>
      <trkpt lat="41.354977" lon="1.899092">
        <ele>535.9</ele>
        <time>1970-01-01T01:36:16.000Z</time>
      </trkpt>
      <trkpt lat="41.354943" lon="1.899057">
        <ele>535.9</ele>
        <time>1970-01-01T01:36:17.000Z</time>
      </trkpt>
      <trkpt lat="41.354927" lon="1.899038">
        <ele>535.9</ele>
        <time>1970-01-01T01:36:18.000Z</time>
      </trkpt>
      <trkpt lat="41.354927" lon="1.899038">
        <ele>535.9</ele>
        <time>1970-01-01T01:36:19.000Z</time>
      </trkpt>
      <trkpt lat="41.354893" lon="1.899002">
        <ele>535.9</ele>
        <time>1970-01-01T01:36:20.000Z</time>
      </trkpt>
      <trkpt lat="41.354878" lon="1.898983">
        <ele>535.9</ele>
        <time>1970-01-01T01:36:21.000Z</time>
      </trkpt>
      <trkpt lat="41.354878" lon="1.898983">
        <ele>535.9</ele>
        <time>1970-01-01T01:36:22.000Z</time>
      </trkpt>
      <trkpt lat="41.35485" lon="1.89895">
        <ele>535.9</ele>
        <time>1970-01-01T01:36:23.000Z</time>
      </trkpt>
      <trkpt lat="41.354837" lon="1.898933">
        <ele>535.9</ele>
        <time>1970-01-01T01:36:24.000Z</time>
      </trkpt>
      <trkpt lat="41.354837" lon="1.898933">
        <ele>536.9</ele>
        <time>1970-01-01T01:36:25.000Z</time>
      </trkpt>
      <trkpt lat="41.354807" lon="1.898902">
        <ele>536.9</ele>
        <time>1970-01-01T01:36:26.000Z</time>
      </trkpt>
      <trkpt lat="41.354795" lon="1.898887">
        <ele>536.9</ele>
        <time>1970-01-01T01:36:27.000Z</time>
      </trkpt>
      <trkpt lat="41.354795" lon="1.898887">
        <ele>536.9</ele>
        <time>1970-01-01T01:36:28.000Z</time>
      </trkpt>
      <trkpt lat="41.35477" lon="1.89886">
        <ele>536.9</ele>
        <time>1970-01-01T01:36:29.000Z</time>
      </trkpt>
      <trkpt lat="41.35477" lon="1.89886">
        <ele>536.9</ele>
        <time>1970-01-01T01:36:30.000Z</time>
      </trkpt>
      <trkpt lat="41.354748" lon="1.898833">
        <ele>537.9</ele>
        <time>1970-01-01T01:36:31.000Z</time>
      </trkpt>
      <trkpt lat="41.354748" lon="1.898833">
        <ele>537.9</ele>
        <time>1970-01-01T01:36:32.000Z</time>
      </trkpt>
      <trkpt lat="41.354723" lon="1.898802">
        <ele>537.9</ele>
        <time>1970-01-01T01:36:33.000Z</time>
      </trkpt>
      <trkpt lat="41.354723" lon="1.898802">
        <ele>537.9</ele>
        <time>1970-01-01T01:36:34.000Z</time>
      </trkpt>
      <trkpt lat="41.354698" lon="1.898773">
        <ele>537.9</ele>
        <time>1970-01-01T01:36:35.000Z</time>
      </trkpt>
      <trkpt lat="41.354698" lon="1.898773">
        <ele>537.9</ele>
        <time>1970-01-01T01:36:36.000Z</time>
      </trkpt>
      <trkpt lat="41.354668" lon="1.89874">
        <ele>537.9</ele>
        <time>1970-01-01T01:36:37.000Z</time>
      </trkpt>
      <trkpt lat="41.354653" lon="1.898725">
        <ele>538.9</ele>
        <time>1970-01-01T01:36:38.000Z</time>
      </trkpt>
      <trkpt lat="41.35464" lon="1.898707">
        <ele>538.9</ele>
        <time>1970-01-01T01:36:39.000Z</time>
      </trkpt>
      <trkpt lat="41.35464" lon="1.898707">
        <ele>538.9</ele>
        <time>1970-01-01T01:36:40.000Z</time>
      </trkpt>
      <trkpt lat="41.354617" lon="1.898675">
        <ele>538.9</ele>
        <time>1970-01-01T01:36:41.000Z</time>
      </trkpt>
      <trkpt lat="41.354617" lon="1.898675">
        <ele>538.9</ele>
        <time>1970-01-01T01:36:42.000Z</time>
      </trkpt>
      <trkpt lat="41.354592" lon="1.89864">
        <ele>538.9</ele>
        <time>1970-01-01T01:36:43.000Z</time>
      </trkpt>
      <trkpt lat="41.354592" lon="1.89864">
        <ele>538.9</ele>
        <time>1970-01-01T01:36:44.000Z</time>
      </trkpt>
      <trkpt lat="41.354568" lon="1.89861">
        <ele>539.9</ele>
        <time>1970-01-01T01:36:45.000Z</time>
      </trkpt>
      <trkpt lat="41.354568" lon="1.89861">
        <ele>539.9</ele>
        <time>1970-01-01T01:36:46.000Z</time>
      </trkpt>
      <trkpt lat="41.354543" lon="1.898582">
        <ele>539.9</ele>
        <time>1970-01-01T01:36:47.000Z</time>
      </trkpt>
      <trkpt lat="41.354543" lon="1.898582">
        <ele>539.9</ele>
        <time>1970-01-01T01:36:48.000Z</time>
      </trkpt>
      <trkpt lat="41.354522" lon="1.898547">
        <ele>540.9</ele>
        <time>1970-01-01T01:36:49.000Z</time>
      </trkpt>
      <trkpt lat="41.35451" lon="1.89853">
        <ele>540.9</ele>
        <time>1970-01-01T01:36:50.000Z</time>
      </trkpt>
      <trkpt lat="41.35451" lon="1.89853">
        <ele>540.9</ele>
        <time>1970-01-01T01:36:51.000Z</time>
      </trkpt>
      <trkpt lat="41.354488" lon="1.898495">
        <ele>540.9</ele>
        <time>1970-01-01T01:36:52.000Z</time>
      </trkpt>
      <trkpt lat="41.354488" lon="1.898495">
        <ele>540.9</ele>
        <time>1970-01-01T01:36:53.000Z</time>
      </trkpt>
      <trkpt lat="41.354472" lon="1.89846">
        <ele>540.9</ele>
        <time>1970-01-01T01:36:54.000Z</time>
      </trkpt>
      <trkpt lat="41.354472" lon="1.89846">
        <ele>541.9</ele>
        <time>1970-01-01T01:36:55.000Z</time>
      </trkpt>
      <trkpt lat="41.354457" lon="1.898422">
        <ele>541.9</ele>
        <time>1970-01-01T01:36:56.000Z</time>
      </trkpt>
      <trkpt lat="41.35445" lon="1.898403">
        <ele>541.9</ele>
        <time>1970-01-01T01:36:57.000Z</time>
      </trkpt>
      <trkpt lat="41.35445" lon="1.898403">
        <ele>541.9</ele>
        <time>1970-01-01T01:36:58.000Z</time>
      </trkpt>
      <trkpt lat="41.354437" lon="1.898368">
        <ele>542.9</ele>
        <time>1970-01-01T01:36:59.000Z</time>
      </trkpt>
      <trkpt lat="41.35443" lon="1.898348">
        <ele>542.9</ele>
        <time>1970-01-01T01:37:00.000Z</time>
      </trkpt>
      <trkpt lat="41.35443" lon="1.898348">
        <ele>543.9</ele>
        <time>1970-01-01T01:37:01.000Z</time>
      </trkpt>
      <trkpt lat="41.354422" lon="1.898308">
        <ele>543.9</ele>
        <time>1970-01-01T01:37:02.000Z</time>
      </trkpt>
      <trkpt lat="41.354422" lon="1.898308">
        <ele>543.9</ele>
        <time>1970-01-01T01:37:03.000Z</time>
      </trkpt>
      <trkpt lat="41.35441" lon="1.898273">
        <ele>543.9</ele>
        <time>1970-01-01T01:37:04.000Z</time>
      </trkpt>
      <trkpt lat="41.35441" lon="1.898273">
        <ele>543.9</ele>
        <time>1970-01-01T01:37:05.000Z</time>
      </trkpt>
      <trkpt lat="41.3544" lon="1.898238">
        <ele>544.9</ele>
        <time>1970-01-01T01:37:06.000Z</time>
      </trkpt>
      <trkpt lat="41.3544" lon="1.898238">
        <ele>544.9</ele>
        <time>1970-01-01T01:37:07.000Z</time>
      </trkpt>
      <trkpt lat="41.354387" lon="1.898212">
        <ele>544.9</ele>
        <time>1970-01-01T01:37:08.000Z</time>
      </trkpt>
      <trkpt lat="41.354377" lon="1.898202">
        <ele>544.9</ele>
        <time>1970-01-01T01:37:09.000Z</time>
      </trkpt>
      <trkpt lat="41.354377" lon="1.898202">
        <ele>545.9</ele>
        <time>1970-01-01T01:37:10.000Z</time>
      </trkpt>
      <trkpt lat="41.354357" lon="1.898173">
        <ele>545.9</ele>
        <time>1970-01-01T01:37:11.000Z</time>
      </trkpt>
      <trkpt lat="41.354357" lon="1.898173">
        <ele>545.9</ele>
        <time>1970-01-01T01:37:12.000Z</time>
      </trkpt>
      <trkpt lat="41.354342" lon="1.898145">
        <ele>545.9</ele>
        <time>1970-01-01T01:37:13.000Z</time>
      </trkpt>
      <trkpt lat="41.354342" lon="1.898145">
        <ele>546.9</ele>
        <time>1970-01-01T01:37:14.000Z</time>
      </trkpt>
      <trkpt lat="41.35432" lon="1.89811">
        <ele>546.9</ele>
        <time>1970-01-01T01:37:15.000Z</time>
      </trkpt>
      <trkpt lat="41.35432" lon="1.89811">
        <ele>546.9</ele>
        <time>1970-01-01T01:37:16.000Z</time>
      </trkpt>
      <trkpt lat="41.3543" lon="1.898087">
        <ele>546.9</ele>
        <time>1970-01-01T01:37:17.000Z</time>
      </trkpt>
      <trkpt lat="41.3543" lon="1.898087">
        <ele>547.9</ele>
        <time>1970-01-01T01:37:18.000Z</time>
      </trkpt>
      <trkpt lat="41.354283" lon="1.898062">
        <ele>547.9</ele>
        <time>1970-01-01T01:37:19.000Z</time>
      </trkpt>
      <trkpt lat="41.354273" lon="1.898048">
        <ele>547.9</ele>
        <time>1970-01-01T01:37:20.000Z</time>
      </trkpt>
      <trkpt lat="41.354273" lon="1.898048">
        <ele>548.9</ele>
        <time>1970-01-01T01:37:21.000Z</time>
      </trkpt>
      <trkpt lat="41.354253" lon="1.898028">
        <ele>548.9</ele>
        <time>1970-01-01T01:37:22.000Z</time>
      </trkpt>
      <trkpt lat="41.354253" lon="1.898028">
        <ele>548.9</ele>
        <time>1970-01-01T01:37:23.000Z</time>
      </trkpt>
      <trkpt lat="41.354235" lon="1.898005">
        <ele>548.9</ele>
        <time>1970-01-01T01:37:24.000Z</time>
      </trkpt>
      <trkpt lat="41.354235" lon="1.898005">
        <ele>549.9</ele>
        <time>1970-01-01T01:37:25.000Z</time>
      </trkpt>
      <trkpt lat="41.354218" lon="1.897982">
        <ele>549.9</ele>
        <time>1970-01-01T01:37:26.000Z</time>
      </trkpt>
      <trkpt lat="41.354212" lon="1.89797">
        <ele>549.9</ele>
        <time>1970-01-01T01:37:27.000Z</time>
      </trkpt>
      <trkpt lat="41.354212" lon="1.89797">
        <ele>549.9</ele>
        <time>1970-01-01T01:37:28.000Z</time>
      </trkpt>
      <trkpt lat="41.354193" lon="1.897948">
        <ele>550.9</ele>
        <time>1970-01-01T01:37:29.000Z</time>
      </trkpt>
      <trkpt lat="41.354187" lon="1.897935">
        <ele>550.9</ele>
        <time>1970-01-01T01:37:30.000Z</time>
      </trkpt>
      <trkpt lat="41.354187" lon="1.897935">
        <ele>550.9</ele>
        <time>1970-01-01T01:37:31.000Z</time>
      </trkpt>
      <trkpt lat="41.354168" lon="1.897908">
        <ele>550.9</ele>
        <time>1970-01-01T01:37:32.000Z</time>
      </trkpt>
      <trkpt lat="41.35416" lon="1.897895">
        <ele>551.9</ele>
        <time>1970-01-01T01:37:33.000Z</time>
      </trkpt>
      <trkpt lat="41.35416" lon="1.897895">
        <ele>551.9</ele>
        <time>1970-01-01T01:37:34.000Z</time>
      </trkpt>
      <trkpt lat="41.354148" lon="1.897872">
        <ele>551.9</ele>
        <time>1970-01-01T01:37:35.000Z</time>
      </trkpt>
      <trkpt lat="41.354148" lon="1.897872">
        <ele>551.9</ele>
        <time>1970-01-01T01:37:36.000Z</time>
      </trkpt>
      <trkpt lat="41.354142" lon="1.897853">
        <ele>552.9</ele>
        <time>1970-01-01T01:37:37.000Z</time>
      </trkpt>
      <trkpt lat="41.354142" lon="1.897853">
        <ele>552.9</ele>
        <time>1970-01-01T01:37:38.000Z</time>
      </trkpt>
      <trkpt lat="41.354132" lon="1.89784">
        <ele>553.9</ele>
        <time>1970-01-01T01:37:39.000Z</time>
      </trkpt>
      <trkpt lat="41.354132" lon="1.89784">
        <ele>553.9</ele>
        <time>1970-01-01T01:37:40.000Z</time>
      </trkpt>
      <trkpt lat="41.354117" lon="1.897817">
        <ele>553.9</ele>
        <time>1970-01-01T01:37:41.000Z</time>
      </trkpt>
      <trkpt lat="41.354108" lon="1.897808">
        <ele>553.9</ele>
        <time>1970-01-01T01:37:42.000Z</time>
      </trkpt>
      <trkpt lat="41.354108" lon="1.897808">
        <ele>553.9</ele>
        <time>1970-01-01T01:37:43.000Z</time>
      </trkpt>
      <trkpt lat="41.354102" lon="1.897782">
        <ele>553.9</ele>
        <time>1970-01-01T01:37:44.000Z</time>
      </trkpt>
      <trkpt lat="41.354102" lon="1.897782">
        <ele>553.9</ele>
        <time>1970-01-01T01:37:45.000Z</time>
      </trkpt>
      <trkpt lat="41.354093" lon="1.897755">
        <ele>553.9</ele>
        <time>1970-01-01T01:37:46.000Z</time>
      </trkpt>
      <trkpt lat="41.354093" lon="1.897755">
        <ele>553.9</ele>
        <time>1970-01-01T01:37:47.000Z</time>
      </trkpt>
      <trkpt lat="41.354082" lon="1.89773">
        <ele>553.9</ele>
        <time>1970-01-01T01:37:48.000Z</time>
      </trkpt>
      <trkpt lat="41.354082" lon="1.89773">
        <ele>555.9</ele>
        <time>1970-01-01T01:37:49.000Z</time>
      </trkpt>
      <trkpt lat="41.354072" lon="1.897698">
        <ele>555.9</ele>
        <time>1970-01-01T01:37:50.000Z</time>
      </trkpt>
      <trkpt lat="41.354072" lon="1.897698">
        <ele>555.9</ele>
        <time>1970-01-01T01:37:51.000Z</time>
      </trkpt>
      <trkpt lat="41.354057" lon="1.897673">
        <ele>555.9</ele>
        <time>1970-01-01T01:37:52.000Z</time>
      </trkpt>
      <trkpt lat="41.354057" lon="1.897673">
        <ele>556.9</ele>
        <time>1970-01-01T01:37:53.000Z</time>
      </trkpt>
      <trkpt lat="41.354052" lon="1.897642">
        <ele>556.9</ele>
        <time>1970-01-01T01:37:54.000Z</time>
      </trkpt>
      <trkpt lat="41.354052" lon="1.897642">
        <ele>556.9</ele>
        <time>1970-01-01T01:37:55.000Z</time>
      </trkpt>
      <trkpt lat="41.354043" lon="1.897608">
        <ele>556.9</ele>
        <time>1970-01-01T01:37:56.000Z</time>
      </trkpt>
      <trkpt lat="41.35404" lon="1.89759">
        <ele>557.9</ele>
        <time>1970-01-01T01:37:57.000Z</time>
      </trkpt>
      <trkpt lat="41.354038" lon="1.897577">
        <ele>557.9</ele>
        <time>1970-01-01T01:37:58.000Z</time>
      </trkpt>
      <trkpt lat="41.354038" lon="1.897577">
        <ele>557.9</ele>
        <time>1970-01-01T01:37:59.000Z</time>
      </trkpt>
      <trkpt lat="41.354035" lon="1.897548">
        <ele>557.9</ele>
        <time>1970-01-01T01:38:00.000Z</time>
      </trkpt>
      <trkpt lat="41.354035" lon="1.897548">
        <ele>557.9</ele>
        <time>1970-01-01T01:38:01.000Z</time>
      </trkpt>
      <trkpt lat="41.354042" lon="1.897522">
        <ele>557.9</ele>
        <time>1970-01-01T01:38:02.000Z</time>
      </trkpt>
      <trkpt lat="41.354042" lon="1.897522">
        <ele>557.9</ele>
        <time>1970-01-01T01:38:03.000Z</time>
      </trkpt>
      <trkpt lat="41.354043" lon="1.897497">
        <ele>557.9</ele>
        <time>1970-01-01T01:38:04.000Z</time>
      </trkpt>
      <trkpt lat="41.354043" lon="1.897497">
        <ele>557.9</ele>
        <time>1970-01-01T01:38:05.000Z</time>
      </trkpt>
      <trkpt lat="41.354042" lon="1.89747">
        <ele>558.9</ele>
        <time>1970-01-01T01:38:06.000Z</time>
      </trkpt>
      <trkpt lat="41.354042" lon="1.89747">
        <ele>558.9</ele>
        <time>1970-01-01T01:38:07.000Z</time>
      </trkpt>
      <trkpt lat="41.354045" lon="1.897447">
        <ele>558.9</ele>
        <time>1970-01-01T01:38:08.000Z</time>
      </trkpt>
      <trkpt lat="41.35405" lon="1.897433">
        <ele>558.9</ele>
        <time>1970-01-01T01:38:09.000Z</time>
      </trkpt>
      <trkpt lat="41.354057" lon="1.89742">
        <ele>559.9</ele>
        <time>1970-01-01T01:38:10.000Z</time>
      </trkpt>
      <trkpt lat="41.354057" lon="1.89742">
        <ele>559.9</ele>
        <time>1970-01-01T01:38:11.000Z</time>
      </trkpt>
      <trkpt lat="41.35406" lon="1.897393">
        <ele>559.9</ele>
        <time>1970-01-01T01:38:12.000Z</time>
      </trkpt>
      <trkpt lat="41.35406" lon="1.897393">
        <ele>559.9</ele>
        <time>1970-01-01T01:38:13.000Z</time>
      </trkpt>
      <trkpt lat="41.35406" lon="1.897368">
        <ele>560.9</ele>
        <time>1970-01-01T01:38:14.000Z</time>
      </trkpt>
      <trkpt lat="41.35406" lon="1.897355">
        <ele>560.9</ele>
        <time>1970-01-01T01:38:15.000Z</time>
      </trkpt>
      <trkpt lat="41.35406" lon="1.897355">
        <ele>560.9</ele>
        <time>1970-01-01T01:38:16.000Z</time>
      </trkpt>
      <trkpt lat="41.354062" lon="1.89733">
        <ele>560.9</ele>
        <time>1970-01-01T01:38:17.000Z</time>
      </trkpt>
      <trkpt lat="41.354058" lon="1.897317">
        <ele>561.9</ele>
        <time>1970-01-01T01:38:18.000Z</time>
      </trkpt>
      <trkpt lat="41.354058" lon="1.897317">
        <ele>561.9</ele>
        <time>1970-01-01T01:38:19.000Z</time>
      </trkpt>
      <trkpt lat="41.354055" lon="1.897293">
        <ele>561.9</ele>
        <time>1970-01-01T01:38:20.000Z</time>
      </trkpt>
      <trkpt lat="41.354055" lon="1.897282">
        <ele>561.9</ele>
        <time>1970-01-01T01:38:21.000Z</time>
      </trkpt>
      <trkpt lat="41.354055" lon="1.897282">
        <ele>562.9</ele>
        <time>1970-01-01T01:38:22.000Z</time>
      </trkpt>
      <trkpt lat="41.354062" lon="1.897255">
        <ele>562.9</ele>
        <time>1970-01-01T01:38:23.000Z</time>
      </trkpt>
      <trkpt lat="41.354063" lon="1.89724">
        <ele>562.9</ele>
        <time>1970-01-01T01:38:24.000Z</time>
      </trkpt>
      <trkpt lat="41.354063" lon="1.89724">
        <ele>562.9</ele>
        <time>1970-01-01T01:38:25.000Z</time>
      </trkpt>
      <trkpt lat="41.354065" lon="1.897217">
        <ele>562.9</ele>
        <time>1970-01-01T01:38:26.000Z</time>
      </trkpt>
      <trkpt lat="41.354068" lon="1.897208">
        <ele>562.9</ele>
        <time>1970-01-01T01:38:27.000Z</time>
      </trkpt>
      <trkpt lat="41.354068" lon="1.897208">
        <ele>563.9</ele>
        <time>1970-01-01T01:38:28.000Z</time>
      </trkpt>
      <trkpt lat="41.354075" lon="1.897185">
        <ele>563.9</ele>
        <time>1970-01-01T01:38:29.000Z</time>
      </trkpt>
      <trkpt lat="41.354075" lon="1.897185">
        <ele>563.9</ele>
        <time>1970-01-01T01:38:30.000Z</time>
      </trkpt>
      <trkpt lat="41.35408" lon="1.897163">
        <ele>563.9</ele>
        <time>1970-01-01T01:38:31.000Z</time>
      </trkpt>
      <trkpt lat="41.35408" lon="1.897163">
        <ele>564.9</ele>
        <time>1970-01-01T01:38:32.000Z</time>
      </trkpt>
      <trkpt lat="41.354087" lon="1.89714">
        <ele>564.9</ele>
        <time>1970-01-01T01:38:33.000Z</time>
      </trkpt>
      <trkpt lat="41.354087" lon="1.89714">
        <ele>564.9</ele>
        <time>1970-01-01T01:38:34.000Z</time>
      </trkpt>
      <trkpt lat="41.35409" lon="1.89711">
        <ele>564.9</ele>
        <time>1970-01-01T01:38:35.000Z</time>
      </trkpt>
      <trkpt lat="41.35409" lon="1.89711">
        <ele>564.9</ele>
        <time>1970-01-01T01:38:36.000Z</time>
      </trkpt>
      <trkpt lat="41.354097" lon="1.897088">
        <ele>564.9</ele>
        <time>1970-01-01T01:38:37.000Z</time>
      </trkpt>
      <trkpt lat="41.354097" lon="1.897088">
        <ele>564.9</ele>
        <time>1970-01-01T01:38:38.000Z</time>
      </trkpt>
      <trkpt lat="41.354107" lon="1.897065">
        <ele>564.9</ele>
        <time>1970-01-01T01:38:39.000Z</time>
      </trkpt>
      <trkpt lat="41.354107" lon="1.897065">
        <ele>566.9</ele>
        <time>1970-01-01T01:38:40.000Z</time>
      </trkpt>
      <trkpt lat="41.354123" lon="1.897003">
        <ele>566.9</ele>
        <time>1970-01-01T01:38:41.000Z</time>
      </trkpt>
      <trkpt lat="41.354123" lon="1.897003">
        <ele>566.9</ele>
        <time>1970-01-01T01:38:42.000Z</time>
      </trkpt>
      <trkpt lat="41.354127" lon="1.896967">
        <ele>566.9</ele>
        <time>1970-01-01T01:38:43.000Z</time>
      </trkpt>
      <trkpt lat="41.354127" lon="1.896967">
        <ele>566.9</ele>
        <time>1970-01-01T01:38:44.000Z</time>
      </trkpt>
      <trkpt lat="41.354133" lon="1.896932">
        <ele>566.9</ele>
        <time>1970-01-01T01:38:45.000Z</time>
      </trkpt>
      <trkpt lat="41.354133" lon="1.896932">
        <ele>565.9</ele>
        <time>1970-01-01T01:38:46.000Z</time>
      </trkpt>
      <trkpt lat="41.354137" lon="1.896898">
        <ele>565.9</ele>
        <time>1970-01-01T01:38:47.000Z</time>
      </trkpt>
      <trkpt lat="41.354137" lon="1.896898">
        <ele>565.9</ele>
        <time>1970-01-01T01:38:48.000Z</time>
      </trkpt>
      <trkpt lat="41.354143" lon="1.896863">
        <ele>565.9</ele>
        <time>1970-01-01T01:38:49.000Z</time>
      </trkpt>
      <trkpt lat="41.354147" lon="1.896847">
        <ele>565.9</ele>
        <time>1970-01-01T01:38:50.000Z</time>
      </trkpt>
      <trkpt lat="41.354153" lon="1.89683">
        <ele>565.9</ele>
        <time>1970-01-01T01:38:51.000Z</time>
      </trkpt>
      <trkpt lat="41.354153" lon="1.89683">
        <ele>565.9</ele>
        <time>1970-01-01T01:38:52.000Z</time>
      </trkpt>
      <trkpt lat="41.354172" lon="1.896798">
        <ele>565.9</ele>
        <time>1970-01-01T01:38:53.000Z</time>
      </trkpt>
      <trkpt lat="41.354172" lon="1.896798">
        <ele>565.9</ele>
        <time>1970-01-01T01:38:54.000Z</time>
      </trkpt>
      <trkpt lat="41.354188" lon="1.896763">
        <ele>565.9</ele>
        <time>1970-01-01T01:38:55.000Z</time>
      </trkpt>
      <trkpt lat="41.354188" lon="1.896763">
        <ele>565.9</ele>
        <time>1970-01-01T01:38:56.000Z</time>
      </trkpt>
      <trkpt lat="41.354202" lon="1.896732">
        <ele>565.9</ele>
        <time>1970-01-01T01:38:57.000Z</time>
      </trkpt>
      <trkpt lat="41.354207" lon="1.896712">
        <ele>565.9</ele>
        <time>1970-01-01T01:38:58.000Z</time>
      </trkpt>
      <trkpt lat="41.354207" lon="1.896712">
        <ele>565.9</ele>
        <time>1970-01-01T01:38:59.000Z</time>
      </trkpt>
      <trkpt lat="41.35421" lon="1.896682">
        <ele>565.9</ele>
        <time>1970-01-01T01:39:00.000Z</time>
      </trkpt>
      <trkpt lat="41.35421" lon="1.896682">
        <ele>565.9</ele>
        <time>1970-01-01T01:39:01.000Z</time>
      </trkpt>
      <trkpt lat="41.354218" lon="1.89665">
        <ele>566.9</ele>
        <time>1970-01-01T01:39:02.000Z</time>
      </trkpt>
      <trkpt lat="41.354218" lon="1.896628">
        <ele>566.9</ele>
        <time>1970-01-01T01:39:03.000Z</time>
      </trkpt>
      <trkpt lat="41.354218" lon="1.896628">
        <ele>566.9</ele>
        <time>1970-01-01T01:39:04.000Z</time>
      </trkpt>
      <trkpt lat="41.35421" lon="1.896583">
        <ele>566.9</ele>
        <time>1970-01-01T01:39:05.000Z</time>
      </trkpt>
      <trkpt lat="41.354208" lon="1.896565">
        <ele>566.9</ele>
        <time>1970-01-01T01:39:06.000Z</time>
      </trkpt>
      <trkpt lat="41.354208" lon="1.896565">
        <ele>566.9</ele>
        <time>1970-01-01T01:39:07.000Z</time>
      </trkpt>
      <trkpt lat="41.354202" lon="1.89653">
        <ele>566.9</ele>
        <time>1970-01-01T01:39:08.000Z</time>
      </trkpt>
      <trkpt lat="41.354195" lon="1.896513">
        <ele>566.9</ele>
        <time>1970-01-01T01:39:09.000Z</time>
      </trkpt>
      <trkpt lat="41.354195" lon="1.896513">
        <ele>566.9</ele>
        <time>1970-01-01T01:39:10.000Z</time>
      </trkpt>
      <trkpt lat="41.354175" lon="1.896468">
        <ele>566.9</ele>
        <time>1970-01-01T01:39:11.000Z</time>
      </trkpt>
      <trkpt lat="41.354175" lon="1.896468">
        <ele>565.9</ele>
        <time>1970-01-01T01:39:12.000Z</time>
      </trkpt>
      <trkpt lat="41.354157" lon="1.89643">
        <ele>565.9</ele>
        <time>1970-01-01T01:39:13.000Z</time>
      </trkpt>
      <trkpt lat="41.354152" lon="1.896407">
        <ele>569.9</ele>
        <time>1970-01-01T01:39:14.000Z</time>
      </trkpt>
      <trkpt lat="41.354147" lon="1.896392">
        <ele>569.9</ele>
        <time>1970-01-01T01:39:15.000Z</time>
      </trkpt>
      <trkpt lat="41.354147" lon="1.896392">
        <ele>572.9</ele>
        <time>1970-01-01T01:39:16.000Z</time>
      </trkpt>
      <trkpt lat="41.354137" lon="1.896375">
        <ele>572.9</ele>
        <time>1970-01-01T01:39:17.000Z</time>
      </trkpt>
      <trkpt lat="41.354123" lon="1.896363">
        <ele>571.9</ele>
        <time>1970-01-01T01:39:18.000Z</time>
      </trkpt>
      <trkpt lat="41.354123" lon="1.896363">
        <ele>571.9</ele>
        <time>1970-01-01T01:39:19.000Z</time>
      </trkpt>
      <trkpt lat="41.354102" lon="1.89633">
        <ele>573.9</ele>
        <time>1970-01-01T01:39:20.000Z</time>
      </trkpt>
      <trkpt lat="41.354092" lon="1.896322">
        <ele>573.9</ele>
        <time>1970-01-01T01:39:21.000Z</time>
      </trkpt>
      <trkpt lat="41.354092" lon="1.896322">
        <ele>571.9</ele>
        <time>1970-01-01T01:39:22.000Z</time>
      </trkpt>
      <trkpt lat="41.35407" lon="1.896305">
        <ele>571.9</ele>
        <time>1970-01-01T01:39:23.000Z</time>
      </trkpt>
      <trkpt lat="41.35407" lon="1.896305">
        <ele>570.9</ele>
        <time>1970-01-01T01:39:24.000Z</time>
      </trkpt>
      <trkpt lat="41.354055" lon="1.896295">
        <ele>570.9</ele>
        <time>1970-01-01T01:39:25.000Z</time>
      </trkpt>
      <trkpt lat="41.354055" lon="1.896295">
        <ele>570.9</ele>
        <time>1970-01-01T01:39:26.000Z</time>
      </trkpt>
      <trkpt lat="41.354035" lon="1.896292">
        <ele>570.9</ele>
        <time>1970-01-01T01:39:27.000Z</time>
      </trkpt>
      <trkpt lat="41.354035" lon="1.896292">
        <ele>569.9</ele>
        <time>1970-01-01T01:39:28.000Z</time>
      </trkpt>
      <trkpt lat="41.354018" lon="1.896307">
        <ele>569.9</ele>
        <time>1970-01-01T01:39:29.000Z</time>
      </trkpt>
      <trkpt lat="41.35401" lon="1.896313">
        <ele>569.9</ele>
        <time>1970-01-01T01:39:30.000Z</time>
      </trkpt>
      <trkpt lat="41.35401" lon="1.896313">
        <ele>569.9</ele>
        <time>1970-01-01T01:39:31.000Z</time>
      </trkpt>
      <trkpt lat="41.353998" lon="1.896332">
        <ele>569.9</ele>
        <time>1970-01-01T01:39:32.000Z</time>
      </trkpt>
      <trkpt lat="41.35399" lon="1.896342">
        <ele>569.9</ele>
        <time>1970-01-01T01:39:33.000Z</time>
      </trkpt>
      <trkpt lat="41.35399" lon="1.896342">
        <ele>570.9</ele>
        <time>1970-01-01T01:39:34.000Z</time>
      </trkpt>
      <trkpt lat="41.353983" lon="1.896375">
        <ele>570.9</ele>
        <time>1970-01-01T01:39:35.000Z</time>
      </trkpt>
      <trkpt lat="41.353983" lon="1.896375">
        <ele>570.9</ele>
        <time>1970-01-01T01:39:36.000Z</time>
      </trkpt>
      <trkpt lat="41.353978" lon="1.89641">
        <ele>571.9</ele>
        <time>1970-01-01T01:39:37.000Z</time>
      </trkpt>
      <trkpt lat="41.353978" lon="1.89641">
        <ele>571.9</ele>
        <time>1970-01-01T01:39:38.000Z</time>
      </trkpt>
      <trkpt lat="41.353968" lon="1.896433">
        <ele>572.9</ele>
        <time>1970-01-01T01:39:39.000Z</time>
      </trkpt>
      <trkpt lat="41.353968" lon="1.896433">
        <ele>572.9</ele>
        <time>1970-01-01T01:39:40.000Z</time>
      </trkpt>
      <trkpt lat="41.35395" lon="1.896453">
        <ele>572.9</ele>
        <time>1970-01-01T01:39:41.000Z</time>
      </trkpt>
      <trkpt lat="41.35395" lon="1.896453">
        <ele>572.9</ele>
        <time>1970-01-01T01:39:42.000Z</time>
      </trkpt>
      <trkpt lat="41.353938" lon="1.896492">
        <ele>573.9</ele>
        <time>1970-01-01T01:39:43.000Z</time>
      </trkpt>
      <trkpt lat="41.353938" lon="1.896492">
        <ele>573.9</ele>
        <time>1970-01-01T01:39:44.000Z</time>
      </trkpt>
      <trkpt lat="41.353927" lon="1.896513">
        <ele>574.9</ele>
        <time>1970-01-01T01:39:45.000Z</time>
      </trkpt>
      <trkpt lat="41.353927" lon="1.896513">
        <ele>574.9</ele>
        <time>1970-01-01T01:39:46.000Z</time>
      </trkpt>
      <trkpt lat="41.353915" lon="1.896538">
        <ele>574.9</ele>
        <time>1970-01-01T01:39:47.000Z</time>
      </trkpt>
      <trkpt lat="41.353907" lon="1.896553">
        <ele>574.9</ele>
        <time>1970-01-01T01:39:48.000Z</time>
      </trkpt>
      <trkpt lat="41.353907" lon="1.896553">
        <ele>574.9</ele>
        <time>1970-01-01T01:39:49.000Z</time>
      </trkpt>
      <trkpt lat="41.35389" lon="1.896578">
        <ele>574.9</ele>
        <time>1970-01-01T01:39:50.000Z</time>
      </trkpt>
      <trkpt lat="41.353878" lon="1.896593">
        <ele>574.9</ele>
        <time>1970-01-01T01:39:51.000Z</time>
      </trkpt>
      <trkpt lat="41.353878" lon="1.896593">
        <ele>574.9</ele>
        <time>1970-01-01T01:39:52.000Z</time>
      </trkpt>
      <trkpt lat="41.35385" lon="1.896615">
        <ele>574.9</ele>
        <time>1970-01-01T01:39:53.000Z</time>
      </trkpt>
      <trkpt lat="41.35385" lon="1.896615">
        <ele>574.9</ele>
        <time>1970-01-01T01:39:54.000Z</time>
      </trkpt>
      <trkpt lat="41.353817" lon="1.896618">
        <ele>575.9</ele>
        <time>1970-01-01T01:39:55.000Z</time>
      </trkpt>
      <trkpt lat="41.353817" lon="1.896618">
        <ele>575.9</ele>
        <time>1970-01-01T01:39:56.000Z</time>
      </trkpt>
      <trkpt lat="41.353793" lon="1.896628">
        <ele>575.9</ele>
        <time>1970-01-01T01:39:57.000Z</time>
      </trkpt>
      <trkpt lat="41.353793" lon="1.896628">
        <ele>575.9</ele>
        <time>1970-01-01T01:39:58.000Z</time>
      </trkpt>
      <trkpt lat="41.353773" lon="1.896632">
        <ele>575.9</ele>
        <time>1970-01-01T01:39:59.000Z</time>
      </trkpt>
      <trkpt lat="41.353773" lon="1.896632">
        <ele>575.9</ele>
        <time>1970-01-01T01:40:00.000Z</time>
      </trkpt>
      <trkpt lat="41.353742" lon="1.896635">
        <ele>576.9</ele>
        <time>1970-01-01T01:40:01.000Z</time>
      </trkpt>
      <trkpt lat="41.353742" lon="1.896635">
        <ele>576.9</ele>
        <time>1970-01-01T01:40:02.000Z</time>
      </trkpt>
      <trkpt lat="41.353713" lon="1.896638">
        <ele>576.9</ele>
        <time>1970-01-01T01:40:03.000Z</time>
      </trkpt>
      <trkpt lat="41.353702" lon="1.896642">
        <ele>576.9</ele>
        <time>1970-01-01T01:40:04.000Z</time>
      </trkpt>
      <trkpt lat="41.353702" lon="1.896642">
        <ele>576.9</ele>
        <time>1970-01-01T01:40:05.000Z</time>
      </trkpt>
      <trkpt lat="41.353675" lon="1.89665">
        <ele>576.9</ele>
        <time>1970-01-01T01:40:06.000Z</time>
      </trkpt>
      <trkpt lat="41.353675" lon="1.89665">
        <ele>576.9</ele>
        <time>1970-01-01T01:40:07.000Z</time>
      </trkpt>
      <trkpt lat="41.353647" lon="1.896658">
        <ele>576.9</ele>
        <time>1970-01-01T01:40:08.000Z</time>
      </trkpt>
      <trkpt lat="41.353633" lon="1.896662">
        <ele>577.9</ele>
        <time>1970-01-01T01:40:09.000Z</time>
      </trkpt>
      <trkpt lat="41.353633" lon="1.896662">
        <ele>577.9</ele>
        <time>1970-01-01T01:40:10.000Z</time>
      </trkpt>
      <trkpt lat="41.353608" lon="1.896663">
        <ele>577.9</ele>
        <time>1970-01-01T01:40:11.000Z</time>
      </trkpt>
      <trkpt lat="41.353597" lon="1.896663">
        <ele>577.9</ele>
        <time>1970-01-01T01:40:12.000Z</time>
      </trkpt>
      <trkpt lat="41.353597" lon="1.896663">
        <ele>577.9</ele>
        <time>1970-01-01T01:40:13.000Z</time>
      </trkpt>
      <trkpt lat="41.35357" lon="1.896673">
        <ele>577.9</ele>
        <time>1970-01-01T01:40:14.000Z</time>
      </trkpt>
      <trkpt lat="41.353555" lon="1.89668">
        <ele>577.9</ele>
        <time>1970-01-01T01:40:15.000Z</time>
      </trkpt>
      <trkpt lat="41.353537" lon="1.896683">
        <ele>578.9</ele>
        <time>1970-01-01T01:40:16.000Z</time>
      </trkpt>
      <trkpt lat="41.353537" lon="1.896683">
        <ele>578.9</ele>
        <time>1970-01-01T01:40:17.000Z</time>
      </trkpt>
      <trkpt lat="41.353507" lon="1.896693">
        <ele>578.9</ele>
        <time>1970-01-01T01:40:18.000Z</time>
      </trkpt>
      <trkpt lat="41.353507" lon="1.896693">
        <ele>578.9</ele>
        <time>1970-01-01T01:40:19.000Z</time>
      </trkpt>
      <trkpt lat="41.353482" lon="1.896693">
        <ele>578.9</ele>
        <time>1970-01-01T01:40:20.000Z</time>
      </trkpt>
      <trkpt lat="41.353482" lon="1.896693">
        <ele>578.9</ele>
        <time>1970-01-01T01:40:21.000Z</time>
      </trkpt>
      <trkpt lat="41.353455" lon="1.896688">
        <ele>578.9</ele>
        <time>1970-01-01T01:40:22.000Z</time>
      </trkpt>
      <trkpt lat="41.353455" lon="1.896688">
        <ele>578.9</ele>
        <time>1970-01-01T01:40:23.000Z</time>
      </trkpt>
      <trkpt lat="41.353432" lon="1.896695">
        <ele>578.9</ele>
        <time>1970-01-01T01:40:24.000Z</time>
      </trkpt>
      <trkpt lat="41.35342" lon="1.896697">
        <ele>578.9</ele>
        <time>1970-01-01T01:40:25.000Z</time>
      </trkpt>
      <trkpt lat="41.35342" lon="1.896697">
        <ele>578.9</ele>
        <time>1970-01-01T01:40:26.000Z</time>
      </trkpt>
      <trkpt lat="41.353397" lon="1.896707">
        <ele>578.9</ele>
        <time>1970-01-01T01:40:27.000Z</time>
      </trkpt>
      <trkpt lat="41.353397" lon="1.896707">
        <ele>579.9</ele>
        <time>1970-01-01T01:40:28.000Z</time>
      </trkpt>
      <trkpt lat="41.353373" lon="1.89671">
        <ele>579.9</ele>
        <time>1970-01-01T01:40:29.000Z</time>
      </trkpt>
      <trkpt lat="41.353362" lon="1.896708">
        <ele>579.9</ele>
        <time>1970-01-01T01:40:30.000Z</time>
      </trkpt>
      <trkpt lat="41.353362" lon="1.896708">
        <ele>579.9</ele>
        <time>1970-01-01T01:40:31.000Z</time>
      </trkpt>
      <trkpt lat="41.353338" lon="1.896717">
        <ele>580.9</ele>
        <time>1970-01-01T01:40:32.000Z</time>
      </trkpt>
      <trkpt lat="41.353327" lon="1.89672">
        <ele>580.9</ele>
        <time>1970-01-01T01:40:33.000Z</time>
      </trkpt>
      <trkpt lat="41.353327" lon="1.89672">
        <ele>580.9</ele>
        <time>1970-01-01T01:40:34.000Z</time>
      </trkpt>
      <trkpt lat="41.353302" lon="1.896732">
        <ele>580.9</ele>
        <time>1970-01-01T01:40:35.000Z</time>
      </trkpt>
      <trkpt lat="41.353302" lon="1.896732">
        <ele>580.9</ele>
        <time>1970-01-01T01:40:36.000Z</time>
      </trkpt>
      <trkpt lat="41.353278" lon="1.896738">
        <ele>580.9</ele>
        <time>1970-01-01T01:40:37.000Z</time>
      </trkpt>
      <trkpt lat="41.353278" lon="1.896738">
        <ele>581.9</ele>
        <time>1970-01-01T01:40:38.000Z</time>
      </trkpt>
      <trkpt lat="41.35325" lon="1.89674">
        <ele>581.9</ele>
        <time>1970-01-01T01:40:39.000Z</time>
      </trkpt>
      <trkpt lat="41.35325" lon="1.89674">
        <ele>582.9</ele>
        <time>1970-01-01T01:40:40.000Z</time>
      </trkpt>
      <trkpt lat="41.353222" lon="1.896742">
        <ele>582.9</ele>
        <time>1970-01-01T01:40:41.000Z</time>
      </trkpt>
      <trkpt lat="41.353222" lon="1.896742">
        <ele>582.9</ele>
        <time>1970-01-01T01:40:42.000Z</time>
      </trkpt>
      <trkpt lat="41.353195" lon="1.896738">
        <ele>582.9</ele>
        <time>1970-01-01T01:40:43.000Z</time>
      </trkpt>
      <trkpt lat="41.35318" lon="1.896738">
        <ele>582.9</ele>
        <time>1970-01-01T01:40:44.000Z</time>
      </trkpt>
      <trkpt lat="41.353167" lon="1.89674">
        <ele>582.9</ele>
        <time>1970-01-01T01:40:45.000Z</time>
      </trkpt>
      <trkpt lat="41.353167" lon="1.89674">
        <ele>582.9</ele>
        <time>1970-01-01T01:40:46.000Z</time>
      </trkpt>
      <trkpt lat="41.353137" lon="1.896735">
        <ele>582.9</ele>
        <time>1970-01-01T01:40:47.000Z</time>
      </trkpt>
      <trkpt lat="41.353137" lon="1.896735">
        <ele>582.9</ele>
        <time>1970-01-01T01:40:48.000Z</time>
      </trkpt>
      <trkpt lat="41.35311" lon="1.896727">
        <ele>582.9</ele>
        <time>1970-01-01T01:40:49.000Z</time>
      </trkpt>
      <trkpt lat="41.353097" lon="1.896725">
        <ele>582.9</ele>
        <time>1970-01-01T01:40:50.000Z</time>
      </trkpt>
      <trkpt lat="41.353097" lon="1.896725">
        <ele>583.9</ele>
        <time>1970-01-01T01:40:51.000Z</time>
      </trkpt>
      <trkpt lat="41.353073" lon="1.896722">
        <ele>583.9</ele>
        <time>1970-01-01T01:40:52.000Z</time>
      </trkpt>
      <trkpt lat="41.353073" lon="1.896722">
        <ele>583.9</ele>
        <time>1970-01-01T01:40:53.000Z</time>
      </trkpt>
      <trkpt lat="41.353052" lon="1.896717">
        <ele>583.9</ele>
        <time>1970-01-01T01:40:54.000Z</time>
      </trkpt>
      <trkpt lat="41.353042" lon="1.896717">
        <ele>583.9</ele>
        <time>1970-01-01T01:40:55.000Z</time>
      </trkpt>
      <trkpt lat="41.35303" lon="1.896713">
        <ele>584.9</ele>
        <time>1970-01-01T01:40:56.000Z</time>
      </trkpt>
      <trkpt lat="41.353017" lon="1.896708">
        <ele>584.9</ele>
        <time>1970-01-01T01:40:57.000Z</time>
      </trkpt>
      <trkpt lat="41.353017" lon="1.896708">
        <ele>584.9</ele>
        <time>1970-01-01T01:40:58.000Z</time>
      </trkpt>
      <trkpt lat="41.352993" lon="1.896702">
        <ele>584.9</ele>
        <time>1970-01-01T01:40:59.000Z</time>
      </trkpt>
      <trkpt lat="41.35298" lon="1.896697">
        <ele>584.9</ele>
        <time>1970-01-01T01:41:00.000Z</time>
      </trkpt>
      <trkpt lat="41.35298" lon="1.896697">
        <ele>584.9</ele>
        <time>1970-01-01T01:41:01.000Z</time>
      </trkpt>
      <trkpt lat="41.35296" lon="1.896687">
        <ele>585.9</ele>
        <time>1970-01-01T01:41:02.000Z</time>
      </trkpt>
      <trkpt lat="41.352948" lon="1.89668">
        <ele>585.9</ele>
        <time>1970-01-01T01:41:03.000Z</time>
      </trkpt>
      <trkpt lat="41.352937" lon="1.89667">
        <ele>585.9</ele>
        <time>1970-01-01T01:41:04.000Z</time>
      </trkpt>
      <trkpt lat="41.352937" lon="1.89667">
        <ele>585.9</ele>
        <time>1970-01-01T01:41:05.000Z</time>
      </trkpt>
      <trkpt lat="41.352913" lon="1.896662">
        <ele>585.9</ele>
        <time>1970-01-01T01:41:06.000Z</time>
      </trkpt>
      <trkpt lat="41.352913" lon="1.896662">
        <ele>585.9</ele>
        <time>1970-01-01T01:41:07.000Z</time>
      </trkpt>
      <trkpt lat="41.35289" lon="1.896657">
        <ele>586.9</ele>
        <time>1970-01-01T01:41:08.000Z</time>
      </trkpt>
      <trkpt lat="41.35289" lon="1.896657">
        <ele>586.9</ele>
        <time>1970-01-01T01:41:09.000Z</time>
      </trkpt>
      <trkpt lat="41.352867" lon="1.896647">
        <ele>586.9</ele>
        <time>1970-01-01T01:41:10.000Z</time>
      </trkpt>
      <trkpt lat="41.352867" lon="1.896647">
        <ele>586.9</ele>
        <time>1970-01-01T01:41:11.000Z</time>
      </trkpt>
      <trkpt lat="41.35284" lon="1.89663">
        <ele>586.9</ele>
        <time>1970-01-01T01:41:12.000Z</time>
      </trkpt>
      <trkpt lat="41.35284" lon="1.89663">
        <ele>586.9</ele>
        <time>1970-01-01T01:41:13.000Z</time>
      </trkpt>
      <trkpt lat="41.352813" lon="1.89662">
        <ele>586.9</ele>
        <time>1970-01-01T01:41:14.000Z</time>
      </trkpt>
      <trkpt lat="41.352813" lon="1.89662">
        <ele>586.9</ele>
        <time>1970-01-01T01:41:15.000Z</time>
      </trkpt>
      <trkpt lat="41.35279" lon="1.896613">
        <ele>587.9</ele>
        <time>1970-01-01T01:41:16.000Z</time>
      </trkpt>
      <trkpt lat="41.35279" lon="1.896613">
        <ele>587.9</ele>
        <time>1970-01-01T01:41:17.000Z</time>
      </trkpt>
      <trkpt lat="41.35276" lon="1.896612">
        <ele>587.9</ele>
        <time>1970-01-01T01:41:18.000Z</time>
      </trkpt>
      <trkpt lat="41.35276" lon="1.896612">
        <ele>587.9</ele>
        <time>1970-01-01T01:41:19.000Z</time>
      </trkpt>
      <trkpt lat="41.352737" lon="1.89661">
        <ele>587.9</ele>
        <time>1970-01-01T01:41:20.000Z</time>
      </trkpt>
      <trkpt lat="41.352725" lon="1.896608">
        <ele>587.9</ele>
        <time>1970-01-01T01:41:21.000Z</time>
      </trkpt>
      <trkpt lat="41.352725" lon="1.896608">
        <ele>588.9</ele>
        <time>1970-01-01T01:41:22.000Z</time>
      </trkpt>
      <trkpt lat="41.3527" lon="1.896593">
        <ele>588.9</ele>
        <time>1970-01-01T01:41:23.000Z</time>
      </trkpt>
      <trkpt lat="41.352687" lon="1.896587">
        <ele>589.9</ele>
        <time>1970-01-01T01:41:24.000Z</time>
      </trkpt>
      <trkpt lat="41.352687" lon="1.896587">
        <ele>589.9</ele>
        <time>1970-01-01T01:41:25.000Z</time>
      </trkpt>
      <trkpt lat="41.352658" lon="1.89658">
        <ele>589.9</ele>
        <time>1970-01-01T01:41:26.000Z</time>
      </trkpt>
      <trkpt lat="41.352645" lon="1.896578">
        <ele>589.9</ele>
        <time>1970-01-01T01:41:27.000Z</time>
      </trkpt>
      <trkpt lat="41.352645" lon="1.896578">
        <ele>589.9</ele>
        <time>1970-01-01T01:41:28.000Z</time>
      </trkpt>
      <trkpt lat="41.35262" lon="1.896575">
        <ele>589.9</ele>
        <time>1970-01-01T01:41:29.000Z</time>
      </trkpt>
      <trkpt lat="41.35262" lon="1.896575">
        <ele>589.9</ele>
        <time>1970-01-01T01:41:30.000Z</time>
      </trkpt>
      <trkpt lat="41.352593" lon="1.896572">
        <ele>589.9</ele>
        <time>1970-01-01T01:41:31.000Z</time>
      </trkpt>
      <trkpt lat="41.352593" lon="1.896572">
        <ele>590.9</ele>
        <time>1970-01-01T01:41:32.000Z</time>
      </trkpt>
      <trkpt lat="41.352568" lon="1.896563">
        <ele>590.9</ele>
        <time>1970-01-01T01:41:33.000Z</time>
      </trkpt>
      <trkpt lat="41.352568" lon="1.896563">
        <ele>590.9</ele>
        <time>1970-01-01T01:41:34.000Z</time>
      </trkpt>
      <trkpt lat="41.352543" lon="1.896562">
        <ele>590.9</ele>
        <time>1970-01-01T01:41:35.000Z</time>
      </trkpt>
      <trkpt lat="41.35253" lon="1.896557">
        <ele>591.9</ele>
        <time>1970-01-01T01:41:36.000Z</time>
      </trkpt>
      <trkpt lat="41.35253" lon="1.896557">
        <ele>591.9</ele>
        <time>1970-01-01T01:41:37.000Z</time>
      </trkpt>
      <trkpt lat="41.352502" lon="1.896545">
        <ele>591.9</ele>
        <time>1970-01-01T01:41:38.000Z</time>
      </trkpt>
      <trkpt lat="41.35249" lon="1.896538">
        <ele>591.9</ele>
        <time>1970-01-01T01:41:39.000Z</time>
      </trkpt>
      <trkpt lat="41.35249" lon="1.896538">
        <ele>591.9</ele>
        <time>1970-01-01T01:41:40.000Z</time>
      </trkpt>
      <trkpt lat="41.352467" lon="1.896523">
        <ele>591.9</ele>
        <time>1970-01-01T01:41:41.000Z</time>
      </trkpt>
      <trkpt lat="41.352467" lon="1.896523">
        <ele>591.9</ele>
        <time>1970-01-01T01:41:42.000Z</time>
      </trkpt>
      <trkpt lat="41.352443" lon="1.896507">
        <ele>591.9</ele>
        <time>1970-01-01T01:41:43.000Z</time>
      </trkpt>
      <trkpt lat="41.352443" lon="1.896507">
        <ele>591.9</ele>
        <time>1970-01-01T01:41:44.000Z</time>
      </trkpt>
      <trkpt lat="41.352422" lon="1.896493">
        <ele>592.9</ele>
        <time>1970-01-01T01:41:45.000Z</time>
      </trkpt>
      <trkpt lat="41.352422" lon="1.896493">
        <ele>592.9</ele>
        <time>1970-01-01T01:41:46.000Z</time>
      </trkpt>
      <trkpt lat="41.352395" lon="1.896487">
        <ele>592.9</ele>
        <time>1970-01-01T01:41:47.000Z</time>
      </trkpt>
      <trkpt lat="41.352395" lon="1.896487">
        <ele>592.9</ele>
        <time>1970-01-01T01:41:48.000Z</time>
      </trkpt>
      <trkpt lat="41.352372" lon="1.896478">
        <ele>592.9</ele>
        <time>1970-01-01T01:41:49.000Z</time>
      </trkpt>
      <trkpt lat="41.35236" lon="1.896472">
        <ele>592.9</ele>
        <time>1970-01-01T01:41:50.000Z</time>
      </trkpt>
      <trkpt lat="41.35236" lon="1.896472">
        <ele>592.9</ele>
        <time>1970-01-01T01:41:51.000Z</time>
      </trkpt>
      <trkpt lat="41.352338" lon="1.896458">
        <ele>593.9</ele>
        <time>1970-01-01T01:41:52.000Z</time>
      </trkpt>
      <trkpt lat="41.352338" lon="1.896458">
        <ele>593.9</ele>
        <time>1970-01-01T01:41:53.000Z</time>
      </trkpt>
      <trkpt lat="41.352318" lon="1.896447">
        <ele>594.9</ele>
        <time>1970-01-01T01:41:54.000Z</time>
      </trkpt>
      <trkpt lat="41.352308" lon="1.896443">
        <ele>594.9</ele>
        <time>1970-01-01T01:41:55.000Z</time>
      </trkpt>
      <trkpt lat="41.352308" lon="1.896443">
        <ele>594.9</ele>
        <time>1970-01-01T01:41:56.000Z</time>
      </trkpt>
      <trkpt lat="41.352283" lon="1.896435">
        <ele>594.9</ele>
        <time>1970-01-01T01:41:57.000Z</time>
      </trkpt>
      <trkpt lat="41.352283" lon="1.896435">
        <ele>594.9</ele>
        <time>1970-01-01T01:41:58.000Z</time>
      </trkpt>
      <trkpt lat="41.352265" lon="1.89642">
        <ele>594.9</ele>
        <time>1970-01-01T01:41:59.000Z</time>
      </trkpt>
      <trkpt lat="41.352265" lon="1.89642">
        <ele>595.9</ele>
        <time>1970-01-01T01:42:00.000Z</time>
      </trkpt>
      <trkpt lat="41.352248" lon="1.896408">
        <ele>595.9</ele>
        <time>1970-01-01T01:42:01.000Z</time>
      </trkpt>
      <trkpt lat="41.352248" lon="1.896408">
        <ele>595.9</ele>
        <time>1970-01-01T01:42:02.000Z</time>
      </trkpt>
      <trkpt lat="41.352218" lon="1.896397">
        <ele>595.9</ele>
        <time>1970-01-01T01:42:03.000Z</time>
      </trkpt>
      <trkpt lat="41.352218" lon="1.896397">
        <ele>595.9</ele>
        <time>1970-01-01T01:42:04.000Z</time>
      </trkpt>
      <trkpt lat="41.352192" lon="1.896398">
        <ele>595.9</ele>
        <time>1970-01-01T01:42:05.000Z</time>
      </trkpt>
      <trkpt lat="41.352182" lon="1.8964">
        <ele>596.9</ele>
        <time>1970-01-01T01:42:06.000Z</time>
      </trkpt>
      <trkpt lat="41.352182" lon="1.8964">
        <ele>596.9</ele>
        <time>1970-01-01T01:42:07.000Z</time>
      </trkpt>
      <trkpt lat="41.352162" lon="1.896398">
        <ele>596.9</ele>
        <time>1970-01-01T01:42:08.000Z</time>
      </trkpt>
      <trkpt lat="41.35215" lon="1.896397">
        <ele>596.9</ele>
        <time>1970-01-01T01:42:09.000Z</time>
      </trkpt>
      <trkpt lat="41.35215" lon="1.896397">
        <ele>596.9</ele>
        <time>1970-01-01T01:42:10.000Z</time>
      </trkpt>
      <trkpt lat="41.352127" lon="1.896397">
        <ele>596.9</ele>
        <time>1970-01-01T01:42:11.000Z</time>
      </trkpt>
      <trkpt lat="41.352113" lon="1.896393">
        <ele>596.9</ele>
        <time>1970-01-01T01:42:12.000Z</time>
      </trkpt>
      <trkpt lat="41.352113" lon="1.896393">
        <ele>596.9</ele>
        <time>1970-01-01T01:42:13.000Z</time>
      </trkpt>
      <trkpt lat="41.352088" lon="1.896387">
        <ele>598.9</ele>
        <time>1970-01-01T01:42:14.000Z</time>
      </trkpt>
      <trkpt lat="41.352077" lon="1.896383">
        <ele>598.9</ele>
        <time>1970-01-01T01:42:15.000Z</time>
      </trkpt>
      <trkpt lat="41.352077" lon="1.896383">
        <ele>598.9</ele>
        <time>1970-01-01T01:42:16.000Z</time>
      </trkpt>
      <trkpt lat="41.352053" lon="1.896377">
        <ele>598.9</ele>
        <time>1970-01-01T01:42:17.000Z</time>
      </trkpt>
      <trkpt lat="41.352053" lon="1.896377">
        <ele>599.9</ele>
        <time>1970-01-01T01:42:18.000Z</time>
      </trkpt>
      <trkpt lat="41.352027" lon="1.896373">
        <ele>599.9</ele>
        <time>1970-01-01T01:42:19.000Z</time>
      </trkpt>
      <trkpt lat="41.352027" lon="1.896373">
        <ele>599.9</ele>
        <time>1970-01-01T01:42:20.000Z</time>
      </trkpt>
      <trkpt lat="41.352003" lon="1.896375">
        <ele>599.9</ele>
        <time>1970-01-01T01:42:21.000Z</time>
      </trkpt>
      <trkpt lat="41.352003" lon="1.896375">
        <ele>599.9</ele>
        <time>1970-01-01T01:42:22.000Z</time>
      </trkpt>
      <trkpt lat="41.351973" lon="1.896368">
        <ele>600.9</ele>
        <time>1970-01-01T01:42:23.000Z</time>
      </trkpt>
      <trkpt lat="41.35196" lon="1.896368">
        <ele>600.9</ele>
        <time>1970-01-01T01:42:24.000Z</time>
      </trkpt>
      <trkpt lat="41.351948" lon="1.896365">
        <ele>601.9</ele>
        <time>1970-01-01T01:42:25.000Z</time>
      </trkpt>
      <trkpt lat="41.351937" lon="1.896367">
        <ele>601.9</ele>
        <time>1970-01-01T01:42:26.000Z</time>
      </trkpt>
      <trkpt lat="41.351937" lon="1.896367">
        <ele>601.9</ele>
        <time>1970-01-01T01:42:27.000Z</time>
      </trkpt>
      <trkpt lat="41.351915" lon="1.896367">
        <ele>601.9</ele>
        <time>1970-01-01T01:42:28.000Z</time>
      </trkpt>
      <trkpt lat="41.351915" lon="1.896367">
        <ele>601.9</ele>
        <time>1970-01-01T01:42:29.000Z</time>
      </trkpt>
      <trkpt lat="41.35189" lon="1.896363">
        <ele>601.9</ele>
        <time>1970-01-01T01:42:30.000Z</time>
      </trkpt>
      <trkpt lat="41.35189" lon="1.896363">
        <ele>602.9</ele>
        <time>1970-01-01T01:42:31.000Z</time>
      </trkpt>
      <trkpt lat="41.35186" lon="1.896357">
        <ele>602.9</ele>
        <time>1970-01-01T01:42:32.000Z</time>
      </trkpt>
      <trkpt lat="41.351847" lon="1.896355">
        <ele>602.9</ele>
        <time>1970-01-01T01:42:33.000Z</time>
      </trkpt>
      <trkpt lat="41.351847" lon="1.896355">
        <ele>602.9</ele>
        <time>1970-01-01T01:42:34.000Z</time>
      </trkpt>
      <trkpt lat="41.35182" lon="1.896353">
        <ele>603.9</ele>
        <time>1970-01-01T01:42:35.000Z</time>
      </trkpt>
      <trkpt lat="41.351805" lon="1.89635">
        <ele>603.9</ele>
        <time>1970-01-01T01:42:36.000Z</time>
      </trkpt>
      <trkpt lat="41.351805" lon="1.89635">
        <ele>603.9</ele>
        <time>1970-01-01T01:42:37.000Z</time>
      </trkpt>
      <trkpt lat="41.351783" lon="1.896342">
        <ele>603.9</ele>
        <time>1970-01-01T01:42:38.000Z</time>
      </trkpt>
      <trkpt lat="41.351783" lon="1.896342">
        <ele>603.9</ele>
        <time>1970-01-01T01:42:39.000Z</time>
      </trkpt>
      <trkpt lat="41.35176" lon="1.896348">
        <ele>603.9</ele>
        <time>1970-01-01T01:42:40.000Z</time>
      </trkpt>
      <trkpt lat="41.35176" lon="1.896348">
        <ele>603.9</ele>
        <time>1970-01-01T01:42:41.000Z</time>
      </trkpt>
      <trkpt lat="41.351735" lon="1.896348">
        <ele>603.9</ele>
        <time>1970-01-01T01:42:42.000Z</time>
      </trkpt>
      <trkpt lat="41.351735" lon="1.896348">
        <ele>603.9</ele>
        <time>1970-01-01T01:42:43.000Z</time>
      </trkpt>
      <trkpt lat="41.351712" lon="1.896342">
        <ele>603.9</ele>
        <time>1970-01-01T01:42:44.000Z</time>
      </trkpt>
      <trkpt lat="41.351702" lon="1.89634">
        <ele>604.9</ele>
        <time>1970-01-01T01:42:45.000Z</time>
      </trkpt>
      <trkpt lat="41.351702" lon="1.89634">
        <ele>604.9</ele>
        <time>1970-01-01T01:42:46.000Z</time>
      </trkpt>
      <trkpt lat="41.351678" lon="1.896335">
        <ele>604.9</ele>
        <time>1970-01-01T01:42:47.000Z</time>
      </trkpt>
      <trkpt lat="41.351665" lon="1.896337">
        <ele>604.9</ele>
        <time>1970-01-01T01:42:48.000Z</time>
      </trkpt>
      <trkpt lat="41.351665" lon="1.896337">
        <ele>604.9</ele>
        <time>1970-01-01T01:42:49.000Z</time>
      </trkpt>
      <trkpt lat="41.351642" lon="1.896335">
        <ele>606.9</ele>
        <time>1970-01-01T01:42:50.000Z</time>
      </trkpt>
      <trkpt lat="41.35163" lon="1.896332">
        <ele>606.9</ele>
        <time>1970-01-01T01:42:51.000Z</time>
      </trkpt>
      <trkpt lat="41.35163" lon="1.896332">
        <ele>606.9</ele>
        <time>1970-01-01T01:42:52.000Z</time>
      </trkpt>
      <trkpt lat="41.351607" lon="1.896325">
        <ele>606.9</ele>
        <time>1970-01-01T01:42:53.000Z</time>
      </trkpt>
      <trkpt lat="41.351595" lon="1.896322">
        <ele>606.9</ele>
        <time>1970-01-01T01:42:54.000Z</time>
      </trkpt>
      <trkpt lat="41.351595" lon="1.896322">
        <ele>606.9</ele>
        <time>1970-01-01T01:42:55.000Z</time>
      </trkpt>
      <trkpt lat="41.351568" lon="1.896325">
        <ele>607.9</ele>
        <time>1970-01-01T01:42:56.000Z</time>
      </trkpt>
      <trkpt lat="41.351557" lon="1.896327">
        <ele>607.9</ele>
        <time>1970-01-01T01:42:57.000Z</time>
      </trkpt>
      <trkpt lat="41.351557" lon="1.896327">
        <ele>607.9</ele>
        <time>1970-01-01T01:42:58.000Z</time>
      </trkpt>
      <trkpt lat="41.35153" lon="1.896322">
        <ele>607.9</ele>
        <time>1970-01-01T01:42:59.000Z</time>
      </trkpt>
      <trkpt lat="41.351513" lon="1.896322">
        <ele>607.9</ele>
        <time>1970-01-01T01:43:00.000Z</time>
      </trkpt>
      <trkpt lat="41.351513" lon="1.896322">
        <ele>607.9</ele>
        <time>1970-01-01T01:43:01.000Z</time>
      </trkpt>
      <trkpt lat="41.35149" lon="1.896318">
        <ele>607.9</ele>
        <time>1970-01-01T01:43:02.000Z</time>
      </trkpt>
      <trkpt lat="41.351478" lon="1.89632">
        <ele>607.9</ele>
        <time>1970-01-01T01:43:03.000Z</time>
      </trkpt>
      <trkpt lat="41.351478" lon="1.89632">
        <ele>608.9</ele>
        <time>1970-01-01T01:43:04.000Z</time>
      </trkpt>
      <trkpt lat="41.351457" lon="1.896318">
        <ele>608.9</ele>
        <time>1970-01-01T01:43:05.000Z</time>
      </trkpt>
      <trkpt lat="41.351445" lon="1.89631">
        <ele>608.9</ele>
        <time>1970-01-01T01:43:06.000Z</time>
      </trkpt>
      <trkpt lat="41.351445" lon="1.89631">
        <ele>608.9</ele>
        <time>1970-01-01T01:43:07.000Z</time>
      </trkpt>
      <trkpt lat="41.351423" lon="1.896288">
        <ele>608.9</ele>
        <time>1970-01-01T01:43:08.000Z</time>
      </trkpt>
      <trkpt lat="41.351412" lon="1.896282">
        <ele>608.9</ele>
        <time>1970-01-01T01:43:09.000Z</time>
      </trkpt>
      <trkpt lat="41.351412" lon="1.896282">
        <ele>608.9</ele>
        <time>1970-01-01T01:43:10.000Z</time>
      </trkpt>
      <trkpt lat="41.351393" lon="1.896267">
        <ele>608.9</ele>
        <time>1970-01-01T01:43:11.000Z</time>
      </trkpt>
      <trkpt lat="41.351385" lon="1.896255">
        <ele>609.9</ele>
        <time>1970-01-01T01:43:12.000Z</time>
      </trkpt>
      <trkpt lat="41.351385" lon="1.896255">
        <ele>609.9</ele>
        <time>1970-01-01T01:43:13.000Z</time>
      </trkpt>
      <trkpt lat="41.35137" lon="1.89622">
        <ele>609.9</ele>
        <time>1970-01-01T01:43:14.000Z</time>
      </trkpt>
      <trkpt lat="41.35136" lon="1.896195">
        <ele>609.9</ele>
        <time>1970-01-01T01:43:15.000Z</time>
      </trkpt>
      <trkpt lat="41.35136" lon="1.896195">
        <ele>609.9</ele>
        <time>1970-01-01T01:43:16.000Z</time>
      </trkpt>
      <trkpt lat="41.351343" lon="1.896113">
        <ele>609.9</ele>
        <time>1970-01-01T01:43:17.000Z</time>
      </trkpt>
      <trkpt lat="41.351343" lon="1.896113">
        <ele>609.9</ele>
        <time>1970-01-01T01:43:18.000Z</time>
      </trkpt>
      <trkpt lat="41.351338" lon="1.896">
        <ele>609.9</ele>
        <time>1970-01-01T01:43:19.000Z</time>
      </trkpt>
      <trkpt lat="41.351338" lon="1.896">
        <ele>609.9</ele>
        <time>1970-01-01T01:43:20.000Z</time>
      </trkpt>
      <trkpt lat="41.351337" lon="1.895865">
        <ele>609.9</ele>
        <time>1970-01-01T01:43:21.000Z</time>
      </trkpt>
      <trkpt lat="41.351337" lon="1.895865">
        <ele>609.9</ele>
        <time>1970-01-01T01:43:22.000Z</time>
      </trkpt>
      <trkpt lat="41.351347" lon="1.895755">
        <ele>607.9</ele>
        <time>1970-01-01T01:43:23.000Z</time>
      </trkpt>
      <trkpt lat="41.351347" lon="1.895755">
        <ele>607.9</ele>
        <time>1970-01-01T01:43:24.000Z</time>
      </trkpt>
      <trkpt lat="41.351365" lon="1.895642">
        <ele>606.9</ele>
        <time>1970-01-01T01:43:25.000Z</time>
      </trkpt>
      <trkpt lat="41.351367" lon="1.89557">
        <ele>606.9</ele>
        <time>1970-01-01T01:43:26.000Z</time>
      </trkpt>
      <trkpt lat="41.35135" lon="1.895482">
        <ele>605.9</ele>
        <time>1970-01-01T01:43:27.000Z</time>
      </trkpt>
      <trkpt lat="41.35135" lon="1.895482">
        <ele>605.9</ele>
        <time>1970-01-01T01:43:28.000Z</time>
      </trkpt>
      <trkpt lat="41.351277" lon="1.895288">
        <ele>604.9</ele>
        <time>1970-01-01T01:43:29.000Z</time>
      </trkpt>
      <trkpt lat="41.351277" lon="1.895288">
        <ele>604.9</ele>
        <time>1970-01-01T01:43:30.000Z</time>
      </trkpt>
      <trkpt lat="41.351192" lon="1.895088">
        <ele>602.9</ele>
        <time>1970-01-01T01:43:31.000Z</time>
      </trkpt>
      <trkpt lat="41.351192" lon="1.895088">
        <ele>602.9</ele>
        <time>1970-01-01T01:43:32.000Z</time>
      </trkpt>
      <trkpt lat="41.351117" lon="1.894905">
        <ele>601.9</ele>
        <time>1970-01-01T01:43:33.000Z</time>
      </trkpt>
      <trkpt lat="41.351117" lon="1.894905">
        <ele>601.9</ele>
        <time>1970-01-01T01:43:34.000Z</time>
      </trkpt>
      <trkpt lat="41.351067" lon="1.894747">
        <ele>601.9</ele>
        <time>1970-01-01T01:43:35.000Z</time>
      </trkpt>
      <trkpt lat="41.351067" lon="1.894747">
        <ele>601.9</ele>
        <time>1970-01-01T01:43:36.000Z</time>
      </trkpt>
      <trkpt lat="41.35103" lon="1.894598">
        <ele>601.9</ele>
        <time>1970-01-01T01:43:37.000Z</time>
      </trkpt>
      <trkpt lat="41.351013" lon="1.894538">
        <ele>601.9</ele>
        <time>1970-01-01T01:43:38.000Z</time>
      </trkpt>
      <trkpt lat="41.351013" lon="1.894538">
        <ele>601.9</ele>
        <time>1970-01-01T01:43:39.000Z</time>
      </trkpt>
      <trkpt lat="41.350993" lon="1.894453">
        <ele>601.9</ele>
        <time>1970-01-01T01:43:40.000Z</time>
      </trkpt>
      <trkpt lat="41.350993" lon="1.894453">
        <ele>601.9</ele>
        <time>1970-01-01T01:43:41.000Z</time>
      </trkpt>
      <trkpt lat="41.350975" lon="1.894415">
        <ele>601.9</ele>
        <time>1970-01-01T01:43:42.000Z</time>
      </trkpt>
      <trkpt lat="41.350975" lon="1.894415">
        <ele>601.9</ele>
        <time>1970-01-01T01:43:43.000Z</time>
      </trkpt>
      <trkpt lat="41.350953" lon="1.89437">
        <ele>601.9</ele>
        <time>1970-01-01T01:43:44.000Z</time>
      </trkpt>
      <trkpt lat="41.35094" lon="1.894342">
        <ele>601.9</ele>
        <time>1970-01-01T01:43:45.000Z</time>
      </trkpt>
      <trkpt lat="41.35094" lon="1.894342">
        <ele>601.9</ele>
        <time>1970-01-01T01:43:46.000Z</time>
      </trkpt>
      <trkpt lat="41.350912" lon="1.894282">
        <ele>601.9</ele>
        <time>1970-01-01T01:43:47.000Z</time>
      </trkpt>
      <trkpt lat="41.350912" lon="1.894282">
        <ele>601.9</ele>
        <time>1970-01-01T01:43:48.000Z</time>
      </trkpt>
      <trkpt lat="41.350878" lon="1.894222">
        <ele>601.9</ele>
        <time>1970-01-01T01:43:49.000Z</time>
      </trkpt>
      <trkpt lat="41.350863" lon="1.894192">
        <ele>602.9</ele>
        <time>1970-01-01T01:43:50.000Z</time>
      </trkpt>
      <trkpt lat="41.350852" lon="1.894158">
        <ele>602.9</ele>
        <time>1970-01-01T01:43:51.000Z</time>
      </trkpt>
      <trkpt lat="41.350852" lon="1.894158">
        <ele>602.9</ele>
        <time>1970-01-01T01:43:52.000Z</time>
      </trkpt>
      <trkpt lat="41.350825" lon="1.894095">
        <ele>602.9</ele>
        <time>1970-01-01T01:43:53.000Z</time>
      </trkpt>
      <trkpt lat="41.350825" lon="1.894095">
        <ele>602.9</ele>
        <time>1970-01-01T01:43:54.000Z</time>
      </trkpt>
      <trkpt lat="41.350798" lon="1.89403">
        <ele>602.9</ele>
        <time>1970-01-01T01:43:55.000Z</time>
      </trkpt>
      <trkpt lat="41.350798" lon="1.89403">
        <ele>602.9</ele>
        <time>1970-01-01T01:43:56.000Z</time>
      </trkpt>
      <trkpt lat="41.350772" lon="1.893952">
        <ele>602.9</ele>
        <time>1970-01-01T01:43:57.000Z</time>
      </trkpt>
      <trkpt lat="41.350772" lon="1.893952">
        <ele>601.9</ele>
        <time>1970-01-01T01:43:58.000Z</time>
      </trkpt>
      <trkpt lat="41.350748" lon="1.89383">
        <ele>601.9</ele>
        <time>1970-01-01T01:43:59.000Z</time>
      </trkpt>
      <trkpt lat="41.350748" lon="1.89383">
        <ele>601.9</ele>
        <time>1970-01-01T01:44:00.000Z</time>
      </trkpt>
      <trkpt lat="41.350735" lon="1.893668">
        <ele>601.9</ele>
        <time>1970-01-01T01:44:01.000Z</time>
      </trkpt>
      <trkpt lat="41.350735" lon="1.893668">
        <ele>600.9</ele>
        <time>1970-01-01T01:44:02.000Z</time>
      </trkpt>
      <trkpt lat="41.350737" lon="1.893483">
        <ele>600.9</ele>
        <time>1970-01-01T01:44:03.000Z</time>
      </trkpt>
      <trkpt lat="41.350737" lon="1.893483">
        <ele>599.9</ele>
        <time>1970-01-01T01:44:04.000Z</time>
      </trkpt>
      <trkpt lat="41.350727" lon="1.893305">
        <ele>599.9</ele>
        <time>1970-01-01T01:44:05.000Z</time>
      </trkpt>
      <trkpt lat="41.350725" lon="1.89322">
        <ele>599.9</ele>
        <time>1970-01-01T01:44:06.000Z</time>
      </trkpt>
      <trkpt lat="41.350725" lon="1.89322">
        <ele>599.9</ele>
        <time>1970-01-01T01:44:07.000Z</time>
      </trkpt>
      <trkpt lat="41.350715" lon="1.893058">
        <ele>598.9</ele>
        <time>1970-01-01T01:44:08.000Z</time>
      </trkpt>
      <trkpt lat="41.350712" lon="1.892982">
        <ele>598.9</ele>
        <time>1970-01-01T01:44:09.000Z</time>
      </trkpt>
      <trkpt lat="41.350712" lon="1.892982">
        <ele>598.9</ele>
        <time>1970-01-01T01:44:10.000Z</time>
      </trkpt>
      <trkpt lat="41.350702" lon="1.892863">
        <ele>598.9</ele>
        <time>1970-01-01T01:44:11.000Z</time>
      </trkpt>
      <trkpt lat="41.350695" lon="1.892817">
        <ele>598.9</ele>
        <time>1970-01-01T01:44:12.000Z</time>
      </trkpt>
      <trkpt lat="41.350695" lon="1.892817">
        <ele>598.9</ele>
        <time>1970-01-01T01:44:13.000Z</time>
      </trkpt>
      <trkpt lat="41.350685" lon="1.892743">
        <ele>598.9</ele>
        <time>1970-01-01T01:44:14.000Z</time>
      </trkpt>
      <trkpt lat="41.350682" lon="1.89271">
        <ele>598.9</ele>
        <time>1970-01-01T01:44:15.000Z</time>
      </trkpt>
      <trkpt lat="41.350682" lon="1.89271">
        <ele>599.9</ele>
        <time>1970-01-01T01:44:16.000Z</time>
      </trkpt>
      <trkpt lat="41.35068" lon="1.892645">
        <ele>599.9</ele>
        <time>1970-01-01T01:44:17.000Z</time>
      </trkpt>
      <trkpt lat="41.350677" lon="1.892615">
        <ele>599.9</ele>
        <time>1970-01-01T01:44:18.000Z</time>
      </trkpt>
      <trkpt lat="41.350677" lon="1.892615">
        <ele>599.9</ele>
        <time>1970-01-01T01:44:19.000Z</time>
      </trkpt>
      <trkpt lat="41.350673" lon="1.892557">
        <ele>600.9</ele>
        <time>1970-01-01T01:44:20.000Z</time>
      </trkpt>
      <trkpt lat="41.350673" lon="1.892528">
        <ele>600.9</ele>
        <time>1970-01-01T01:44:21.000Z</time>
      </trkpt>
      <trkpt lat="41.350673" lon="1.892528">
        <ele>601.9</ele>
        <time>1970-01-01T01:44:22.000Z</time>
      </trkpt>
      <trkpt lat="41.350672" lon="1.892477">
        <ele>601.9</ele>
        <time>1970-01-01T01:44:23.000Z</time>
      </trkpt>
      <trkpt lat="41.35067" lon="1.89245">
        <ele>601.9</ele>
        <time>1970-01-01T01:44:24.000Z</time>
      </trkpt>
      <trkpt lat="41.35067" lon="1.89245">
        <ele>601.9</ele>
        <time>1970-01-01T01:44:25.000Z</time>
      </trkpt>
      <trkpt lat="41.350672" lon="1.892397">
        <ele>602.9</ele>
        <time>1970-01-01T01:44:26.000Z</time>
      </trkpt>
      <trkpt lat="41.350672" lon="1.892372">
        <ele>602.9</ele>
        <time>1970-01-01T01:44:27.000Z</time>
      </trkpt>
      <trkpt lat="41.350672" lon="1.892372">
        <ele>602.9</ele>
        <time>1970-01-01T01:44:28.000Z</time>
      </trkpt>
      <trkpt lat="41.35067" lon="1.892323">
        <ele>602.9</ele>
        <time>1970-01-01T01:44:29.000Z</time>
      </trkpt>
      <trkpt lat="41.35067" lon="1.892323">
        <ele>604.9</ele>
        <time>1970-01-01T01:44:30.000Z</time>
      </trkpt>
      <trkpt lat="41.350672" lon="1.892277">
        <ele>604.9</ele>
        <time>1970-01-01T01:44:31.000Z</time>
      </trkpt>
      <trkpt lat="41.350672" lon="1.892277">
        <ele>604.9</ele>
        <time>1970-01-01T01:44:32.000Z</time>
      </trkpt>
      <trkpt lat="41.350672" lon="1.89223">
        <ele>605.9</ele>
        <time>1970-01-01T01:44:33.000Z</time>
      </trkpt>
      <trkpt lat="41.350672" lon="1.89223">
        <ele>605.9</ele>
        <time>1970-01-01T01:44:34.000Z</time>
      </trkpt>
      <trkpt lat="41.35067" lon="1.892187">
        <ele>605.9</ele>
        <time>1970-01-01T01:44:35.000Z</time>
      </trkpt>
      <trkpt lat="41.350668" lon="1.892168">
        <ele>605.9</ele>
        <time>1970-01-01T01:44:36.000Z</time>
      </trkpt>
      <trkpt lat="41.350668" lon="1.892168">
        <ele>606.9</ele>
        <time>1970-01-01T01:44:37.000Z</time>
      </trkpt>
      <trkpt lat="41.350652" lon="1.892128">
        <ele>606.9</ele>
        <time>1970-01-01T01:44:38.000Z</time>
      </trkpt>
      <trkpt lat="41.350643" lon="1.892107">
        <ele>607.9</ele>
        <time>1970-01-01T01:44:39.000Z</time>
      </trkpt>
      <trkpt lat="41.350643" lon="1.892107">
        <ele>607.9</ele>
        <time>1970-01-01T01:44:40.000Z</time>
      </trkpt>
      <trkpt lat="41.350623" lon="1.892065">
        <ele>607.9</ele>
        <time>1970-01-01T01:44:41.000Z</time>
      </trkpt>
      <trkpt lat="41.350612" lon="1.892047">
        <ele>607.9</ele>
        <time>1970-01-01T01:44:42.000Z</time>
      </trkpt>
      <trkpt lat="41.350612" lon="1.892047">
        <ele>608.9</ele>
        <time>1970-01-01T01:44:43.000Z</time>
      </trkpt>
      <trkpt lat="41.350583" lon="1.892012">
        <ele>608.9</ele>
        <time>1970-01-01T01:44:44.000Z</time>
      </trkpt>
      <trkpt lat="41.35057" lon="1.891997">
        <ele>608.9</ele>
        <time>1970-01-01T01:44:45.000Z</time>
      </trkpt>
      <trkpt lat="41.35057" lon="1.891997">
        <ele>608.9</ele>
        <time>1970-01-01T01:44:46.000Z</time>
      </trkpt>
      <trkpt lat="41.350543" lon="1.891977">
        <ele>608.9</ele>
        <time>1970-01-01T01:44:47.000Z</time>
      </trkpt>
      <trkpt lat="41.350533" lon="1.891968">
        <ele>609.9</ele>
        <time>1970-01-01T01:44:48.000Z</time>
      </trkpt>
      <trkpt lat="41.350533" lon="1.891968">
        <ele>609.9</ele>
        <time>1970-01-01T01:44:49.000Z</time>
      </trkpt>
      <trkpt lat="41.350517" lon="1.891953">
        <ele>609.9</ele>
        <time>1970-01-01T01:44:50.000Z</time>
      </trkpt>
      <trkpt lat="41.350505" lon="1.891947">
        <ele>609.9</ele>
        <time>1970-01-01T01:44:51.000Z</time>
      </trkpt>
      <trkpt lat="41.350505" lon="1.891947">
        <ele>609.9</ele>
        <time>1970-01-01T01:44:52.000Z</time>
      </trkpt>
      <trkpt lat="41.350483" lon="1.891933">
        <ele>609.9</ele>
        <time>1970-01-01T01:44:53.000Z</time>
      </trkpt>
      <trkpt lat="41.350473" lon="1.891928">
        <ele>610.9</ele>
        <time>1970-01-01T01:44:54.000Z</time>
      </trkpt>
      <trkpt lat="41.350473" lon="1.891928">
        <ele>610.9</ele>
        <time>1970-01-01T01:44:55.000Z</time>
      </trkpt>
      <trkpt lat="41.350453" lon="1.891917">
        <ele>610.9</ele>
        <time>1970-01-01T01:44:56.000Z</time>
      </trkpt>
      <trkpt lat="41.350442" lon="1.891907">
        <ele>610.9</ele>
        <time>1970-01-01T01:44:57.000Z</time>
      </trkpt>
      <trkpt lat="41.350442" lon="1.891907">
        <ele>610.9</ele>
        <time>1970-01-01T01:44:58.000Z</time>
      </trkpt>
      <trkpt lat="41.350422" lon="1.891892">
        <ele>610.9</ele>
        <time>1970-01-01T01:44:59.000Z</time>
      </trkpt>
      <trkpt lat="41.350422" lon="1.891892">
        <ele>611.9</ele>
        <time>1970-01-01T01:45:00.000Z</time>
      </trkpt>
      <trkpt lat="41.350407" lon="1.891883">
        <ele>611.9</ele>
        <time>1970-01-01T01:45:01.000Z</time>
      </trkpt>
      <trkpt lat="41.350407" lon="1.891883">
        <ele>611.9</ele>
        <time>1970-01-01T01:45:02.000Z</time>
      </trkpt>
      <trkpt lat="41.350387" lon="1.89187">
        <ele>611.9</ele>
        <time>1970-01-01T01:45:03.000Z</time>
      </trkpt>
      <trkpt lat="41.350387" lon="1.89187">
        <ele>612.9</ele>
        <time>1970-01-01T01:45:04.000Z</time>
      </trkpt>
      <trkpt lat="41.350363" lon="1.891857">
        <ele>612.9</ele>
        <time>1970-01-01T01:45:05.000Z</time>
      </trkpt>
      <trkpt lat="41.350352" lon="1.891848">
        <ele>612.9</ele>
        <time>1970-01-01T01:45:06.000Z</time>
      </trkpt>
      <trkpt lat="41.350352" lon="1.891848">
        <ele>612.9</ele>
        <time>1970-01-01T01:45:07.000Z</time>
      </trkpt>
      <trkpt lat="41.350332" lon="1.89183">
        <ele>612.9</ele>
        <time>1970-01-01T01:45:08.000Z</time>
      </trkpt>
      <trkpt lat="41.350323" lon="1.891818">
        <ele>612.9</ele>
        <time>1970-01-01T01:45:09.000Z</time>
      </trkpt>
      <trkpt lat="41.350323" lon="1.891818">
        <ele>612.9</ele>
        <time>1970-01-01T01:45:10.000Z</time>
      </trkpt>
      <trkpt lat="41.350308" lon="1.891795">
        <ele>612.9</ele>
        <time>1970-01-01T01:45:11.000Z</time>
      </trkpt>
      <trkpt lat="41.350308" lon="1.891795">
        <ele>612.9</ele>
        <time>1970-01-01T01:45:12.000Z</time>
      </trkpt>
      <trkpt lat="41.35029" lon="1.89177">
        <ele>612.9</ele>
        <time>1970-01-01T01:45:13.000Z</time>
      </trkpt>
      <trkpt lat="41.35029" lon="1.89177">
        <ele>613.9</ele>
        <time>1970-01-01T01:45:14.000Z</time>
      </trkpt>
      <trkpt lat="41.35027" lon="1.891747">
        <ele>613.9</ele>
        <time>1970-01-01T01:45:15.000Z</time>
      </trkpt>
      <trkpt lat="41.35027" lon="1.891747">
        <ele>613.9</ele>
        <time>1970-01-01T01:45:16.000Z</time>
      </trkpt>
      <trkpt lat="41.350245" lon="1.891732">
        <ele>613.9</ele>
        <time>1970-01-01T01:45:17.000Z</time>
      </trkpt>
      <trkpt lat="41.350245" lon="1.891732">
        <ele>613.9</ele>
        <time>1970-01-01T01:45:18.000Z</time>
      </trkpt>
      <trkpt lat="41.350223" lon="1.891712">
        <ele>613.9</ele>
        <time>1970-01-01T01:45:19.000Z</time>
      </trkpt>
      <trkpt lat="41.350223" lon="1.891712">
        <ele>613.9</ele>
        <time>1970-01-01T01:45:20.000Z</time>
      </trkpt>
      <trkpt lat="41.350202" lon="1.891693">
        <ele>613.9</ele>
        <time>1970-01-01T01:45:21.000Z</time>
      </trkpt>
      <trkpt lat="41.350202" lon="1.891693">
        <ele>615.9</ele>
        <time>1970-01-01T01:45:22.000Z</time>
      </trkpt>
      <trkpt lat="41.350182" lon="1.891677">
        <ele>615.9</ele>
        <time>1970-01-01T01:45:23.000Z</time>
      </trkpt>
      <trkpt lat="41.350172" lon="1.89167">
        <ele>615.9</ele>
        <time>1970-01-01T01:45:24.000Z</time>
      </trkpt>
      <trkpt lat="41.350172" lon="1.89167">
        <ele>615.9</ele>
        <time>1970-01-01T01:45:25.000Z</time>
      </trkpt>
      <trkpt lat="41.350153" lon="1.891657">
        <ele>615.9</ele>
        <time>1970-01-01T01:45:26.000Z</time>
      </trkpt>
      <trkpt lat="41.350143" lon="1.89165">
        <ele>615.9</ele>
        <time>1970-01-01T01:45:27.000Z</time>
      </trkpt>
      <trkpt lat="41.350143" lon="1.89165">
        <ele>616.9</ele>
        <time>1970-01-01T01:45:28.000Z</time>
      </trkpt>
      <trkpt lat="41.35012" lon="1.891637">
        <ele>616.9</ele>
        <time>1970-01-01T01:45:29.000Z</time>
      </trkpt>
      <trkpt lat="41.35012" lon="1.891637">
        <ele>616.9</ele>
        <time>1970-01-01T01:45:30.000Z</time>
      </trkpt>
      <trkpt lat="41.350102" lon="1.891617">
        <ele>616.9</ele>
        <time>1970-01-01T01:45:31.000Z</time>
      </trkpt>
      <trkpt lat="41.350102" lon="1.891617">
        <ele>616.9</ele>
        <time>1970-01-01T01:45:32.000Z</time>
      </trkpt>
      <trkpt lat="41.350087" lon="1.891593">
        <ele>616.9</ele>
        <time>1970-01-01T01:45:33.000Z</time>
      </trkpt>
      <trkpt lat="41.350087" lon="1.891593">
        <ele>616.9</ele>
        <time>1970-01-01T01:45:34.000Z</time>
      </trkpt>
      <trkpt lat="41.350065" lon="1.891583">
        <ele>616.9</ele>
        <time>1970-01-01T01:45:35.000Z</time>
      </trkpt>
      <trkpt lat="41.350055" lon="1.891572">
        <ele>618.9</ele>
        <time>1970-01-01T01:45:36.000Z</time>
      </trkpt>
      <trkpt lat="41.350055" lon="1.891572">
        <ele>618.9</ele>
        <time>1970-01-01T01:45:37.000Z</time>
      </trkpt>
      <trkpt lat="41.350038" lon="1.891547">
        <ele>618.9</ele>
        <time>1970-01-01T01:45:38.000Z</time>
      </trkpt>
      <trkpt lat="41.350028" lon="1.891537">
        <ele>618.9</ele>
        <time>1970-01-01T01:45:39.000Z</time>
      </trkpt>
      <trkpt lat="41.350028" lon="1.891537">
        <ele>619.9</ele>
        <time>1970-01-01T01:45:40.000Z</time>
      </trkpt>
      <trkpt lat="41.350003" lon="1.891525">
        <ele>619.9</ele>
        <time>1970-01-01T01:45:41.000Z</time>
      </trkpt>
      <trkpt lat="41.350003" lon="1.891525">
        <ele>619.9</ele>
        <time>1970-01-01T01:45:42.000Z</time>
      </trkpt>
      <trkpt lat="41.349982" lon="1.891512">
        <ele>619.9</ele>
        <time>1970-01-01T01:45:43.000Z</time>
      </trkpt>
      <trkpt lat="41.349982" lon="1.891512">
        <ele>619.9</ele>
        <time>1970-01-01T01:45:44.000Z</time>
      </trkpt>
      <trkpt lat="41.34996" lon="1.891498">
        <ele>620.9</ele>
        <time>1970-01-01T01:45:45.000Z</time>
      </trkpt>
      <trkpt lat="41.34996" lon="1.891498">
        <ele>620.9</ele>
        <time>1970-01-01T01:45:46.000Z</time>
      </trkpt>
      <trkpt lat="41.349937" lon="1.891487">
        <ele>620.9</ele>
        <time>1970-01-01T01:45:47.000Z</time>
      </trkpt>
      <trkpt lat="41.349937" lon="1.891487">
        <ele>620.9</ele>
        <time>1970-01-01T01:45:48.000Z</time>
      </trkpt>
      <trkpt lat="41.349915" lon="1.891483">
        <ele>621.9</ele>
        <time>1970-01-01T01:45:49.000Z</time>
      </trkpt>
      <trkpt lat="41.349915" lon="1.891483">
        <ele>621.9</ele>
        <time>1970-01-01T01:45:50.000Z</time>
      </trkpt>
      <trkpt lat="41.349893" lon="1.891468">
        <ele>621.9</ele>
        <time>1970-01-01T01:45:51.000Z</time>
      </trkpt>
      <trkpt lat="41.349893" lon="1.891468">
        <ele>621.9</ele>
        <time>1970-01-01T01:45:52.000Z</time>
      </trkpt>
      <trkpt lat="41.349875" lon="1.89145">
        <ele>621.9</ele>
        <time>1970-01-01T01:45:53.000Z</time>
      </trkpt>
      <trkpt lat="41.349867" lon="1.891442">
        <ele>621.9</ele>
        <time>1970-01-01T01:45:54.000Z</time>
      </trkpt>
      <trkpt lat="41.349867" lon="1.891442">
        <ele>621.9</ele>
        <time>1970-01-01T01:45:55.000Z</time>
      </trkpt>
      <trkpt lat="41.34985" lon="1.891423">
        <ele>621.9</ele>
        <time>1970-01-01T01:45:56.000Z</time>
      </trkpt>
      <trkpt lat="41.349842" lon="1.891413">
        <ele>621.9</ele>
        <time>1970-01-01T01:45:57.000Z</time>
      </trkpt>
      <trkpt lat="41.349842" lon="1.891413">
        <ele>623.9</ele>
        <time>1970-01-01T01:45:58.000Z</time>
      </trkpt>
      <trkpt lat="41.349825" lon="1.89139">
        <ele>623.9</ele>
        <time>1970-01-01T01:45:59.000Z</time>
      </trkpt>
      <trkpt lat="41.349813" lon="1.891383">
        <ele>623.9</ele>
        <time>1970-01-01T01:46:00.000Z</time>
      </trkpt>
      <trkpt lat="41.349813" lon="1.891383">
        <ele>623.9</ele>
        <time>1970-01-01T01:46:01.000Z</time>
      </trkpt>
      <trkpt lat="41.349795" lon="1.891367">
        <ele>623.9</ele>
        <time>1970-01-01T01:46:02.000Z</time>
      </trkpt>
      <trkpt lat="41.349795" lon="1.891367">
        <ele>623.9</ele>
        <time>1970-01-01T01:46:03.000Z</time>
      </trkpt>
      <trkpt lat="41.349778" lon="1.89134">
        <ele>623.9</ele>
        <time>1970-01-01T01:46:04.000Z</time>
      </trkpt>
      <trkpt lat="41.349778" lon="1.89134">
        <ele>623.9</ele>
        <time>1970-01-01T01:46:05.000Z</time>
      </trkpt>
      <trkpt lat="41.349763" lon="1.891318">
        <ele>624.9</ele>
        <time>1970-01-01T01:46:06.000Z</time>
      </trkpt>
      <trkpt lat="41.349763" lon="1.891318">
        <ele>624.9</ele>
        <time>1970-01-01T01:46:07.000Z</time>
      </trkpt>
      <trkpt lat="41.349745" lon="1.891297">
        <ele>624.9</ele>
        <time>1970-01-01T01:46:08.000Z</time>
      </trkpt>
      <trkpt lat="41.349737" lon="1.891285">
        <ele>624.9</ele>
        <time>1970-01-01T01:46:09.000Z</time>
      </trkpt>
      <trkpt lat="41.349737" lon="1.891285">
        <ele>624.9</ele>
        <time>1970-01-01T01:46:10.000Z</time>
      </trkpt>
      <trkpt lat="41.349718" lon="1.891262">
        <ele>624.9</ele>
        <time>1970-01-01T01:46:11.000Z</time>
      </trkpt>
      <trkpt lat="41.34971" lon="1.89125">
        <ele>624.9</ele>
        <time>1970-01-01T01:46:12.000Z</time>
      </trkpt>
      <trkpt lat="41.34971" lon="1.89125">
        <ele>624.9</ele>
        <time>1970-01-01T01:46:13.000Z</time>
      </trkpt>
      <trkpt lat="41.34969" lon="1.891228">
        <ele>625.9</ele>
        <time>1970-01-01T01:46:14.000Z</time>
      </trkpt>
      <trkpt lat="41.34968" lon="1.89122">
        <ele>625.9</ele>
        <time>1970-01-01T01:46:15.000Z</time>
      </trkpt>
      <trkpt lat="41.34968" lon="1.89122">
        <ele>625.9</ele>
        <time>1970-01-01T01:46:16.000Z</time>
      </trkpt>
      <trkpt lat="41.349663" lon="1.891195">
        <ele>625.9</ele>
        <time>1970-01-01T01:46:17.000Z</time>
      </trkpt>
      <trkpt lat="41.349663" lon="1.891195">
        <ele>625.9</ele>
        <time>1970-01-01T01:46:18.000Z</time>
      </trkpt>
      <trkpt lat="41.349642" lon="1.891168">
        <ele>625.9</ele>
        <time>1970-01-01T01:46:19.000Z</time>
      </trkpt>
      <trkpt lat="41.349632" lon="1.891157">
        <ele>625.9</ele>
        <time>1970-01-01T01:46:20.000Z</time>
      </trkpt>
      <trkpt lat="41.349632" lon="1.891157">
        <ele>625.9</ele>
        <time>1970-01-01T01:46:21.000Z</time>
      </trkpt>
      <trkpt lat="41.349605" lon="1.89114">
        <ele>625.9</ele>
        <time>1970-01-01T01:46:22.000Z</time>
      </trkpt>
      <trkpt lat="41.349605" lon="1.89114">
        <ele>625.9</ele>
        <time>1970-01-01T01:46:23.000Z</time>
      </trkpt>
      <trkpt lat="41.34958" lon="1.891117">
        <ele>626.9</ele>
        <time>1970-01-01T01:46:24.000Z</time>
      </trkpt>
      <trkpt lat="41.34958" lon="1.891117">
        <ele>626.9</ele>
        <time>1970-01-01T01:46:25.000Z</time>
      </trkpt>
      <trkpt lat="41.349553" lon="1.891093">
        <ele>626.9</ele>
        <time>1970-01-01T01:46:26.000Z</time>
      </trkpt>
      <trkpt lat="41.34954" lon="1.891083">
        <ele>626.9</ele>
        <time>1970-01-01T01:46:27.000Z</time>
      </trkpt>
      <trkpt lat="41.34954" lon="1.891083">
        <ele>626.9</ele>
        <time>1970-01-01T01:46:28.000Z</time>
      </trkpt>
      <trkpt lat="41.349505" lon="1.891062">
        <ele>626.9</ele>
        <time>1970-01-01T01:46:29.000Z</time>
      </trkpt>
      <trkpt lat="41.349485" lon="1.89105">
        <ele>626.9</ele>
        <time>1970-01-01T01:46:30.000Z</time>
      </trkpt>
      <trkpt lat="41.349485" lon="1.89105">
        <ele>626.9</ele>
        <time>1970-01-01T01:46:31.000Z</time>
      </trkpt>
      <trkpt lat="41.349438" lon="1.891032">
        <ele>626.9</ele>
        <time>1970-01-01T01:46:32.000Z</time>
      </trkpt>
      <trkpt lat="41.349413" lon="1.891027">
        <ele>626.9</ele>
        <time>1970-01-01T01:46:33.000Z</time>
      </trkpt>
      <trkpt lat="41.349413" lon="1.891027">
        <ele>626.9</ele>
        <time>1970-01-01T01:46:34.000Z</time>
      </trkpt>
      <trkpt lat="41.349372" lon="1.891022">
        <ele>626.9</ele>
        <time>1970-01-01T01:46:35.000Z</time>
      </trkpt>
      <trkpt lat="41.349355" lon="1.891018">
        <ele>626.9</ele>
        <time>1970-01-01T01:46:36.000Z</time>
      </trkpt>
      <trkpt lat="41.349355" lon="1.891018">
        <ele>626.9</ele>
        <time>1970-01-01T01:46:37.000Z</time>
      </trkpt>
      <trkpt lat="41.349317" lon="1.891017">
        <ele>626.9</ele>
        <time>1970-01-01T01:46:38.000Z</time>
      </trkpt>
      <trkpt lat="41.349297" lon="1.891015">
        <ele>626.9</ele>
        <time>1970-01-01T01:46:39.000Z</time>
      </trkpt>
      <trkpt lat="41.349297" lon="1.891015">
        <ele>626.9</ele>
        <time>1970-01-01T01:46:40.000Z</time>
      </trkpt>
      <trkpt lat="41.349255" lon="1.891007">
        <ele>626.9</ele>
        <time>1970-01-01T01:46:41.000Z</time>
      </trkpt>
      <trkpt lat="41.349233" lon="1.891">
        <ele>626.9</ele>
        <time>1970-01-01T01:46:42.000Z</time>
      </trkpt>
      <trkpt lat="41.349233" lon="1.891">
        <ele>626.9</ele>
        <time>1970-01-01T01:46:43.000Z</time>
      </trkpt>
      <trkpt lat="41.34919" lon="1.890975">
        <ele>626.9</ele>
        <time>1970-01-01T01:46:44.000Z</time>
      </trkpt>
      <trkpt lat="41.34919" lon="1.890975">
        <ele>626.9</ele>
        <time>1970-01-01T01:46:45.000Z</time>
      </trkpt>
      <trkpt lat="41.34914" lon="1.89093">
        <ele>626.9</ele>
        <time>1970-01-01T01:46:46.000Z</time>
      </trkpt>
      <trkpt lat="41.34914" lon="1.89093">
        <ele>626.9</ele>
        <time>1970-01-01T01:46:47.000Z</time>
      </trkpt>
      <trkpt lat="41.34909" lon="1.890858">
        <ele>626.9</ele>
        <time>1970-01-01T01:46:48.000Z</time>
      </trkpt>
      <trkpt lat="41.34909" lon="1.890858">
        <ele>625.9</ele>
        <time>1970-01-01T01:46:49.000Z</time>
      </trkpt>
      <trkpt lat="41.34904" lon="1.890773">
        <ele>625.9</ele>
        <time>1970-01-01T01:46:50.000Z</time>
      </trkpt>
      <trkpt lat="41.349015" lon="1.890732">
        <ele>625.9</ele>
        <time>1970-01-01T01:46:51.000Z</time>
      </trkpt>
      <trkpt lat="41.349015" lon="1.890732">
        <ele>625.9</ele>
        <time>1970-01-01T01:46:52.000Z</time>
      </trkpt>
      <trkpt lat="41.348968" lon="1.890643">
        <ele>625.9</ele>
        <time>1970-01-01T01:46:53.000Z</time>
      </trkpt>
      <trkpt lat="41.348968" lon="1.890643">
        <ele>625.9</ele>
        <time>1970-01-01T01:46:54.000Z</time>
      </trkpt>
      <trkpt lat="41.348927" lon="1.890555">
        <ele>624.9</ele>
        <time>1970-01-01T01:46:55.000Z</time>
      </trkpt>
      <trkpt lat="41.348907" lon="1.890508">
        <ele>624.9</ele>
        <time>1970-01-01T01:46:56.000Z</time>
      </trkpt>
      <trkpt lat="41.348882" lon="1.890467">
        <ele>624.9</ele>
        <time>1970-01-01T01:46:57.000Z</time>
      </trkpt>
      <trkpt lat="41.348882" lon="1.890467">
        <ele>624.9</ele>
        <time>1970-01-01T01:46:58.000Z</time>
      </trkpt>
      <trkpt lat="41.348813" lon="1.890408">
        <ele>624.9</ele>
        <time>1970-01-01T01:46:59.000Z</time>
      </trkpt>
      <trkpt lat="41.348778" lon="1.890395">
        <ele>624.9</ele>
        <time>1970-01-01T01:47:00.000Z</time>
      </trkpt>
      <trkpt lat="41.348778" lon="1.890395">
        <ele>624.9</ele>
        <time>1970-01-01T01:47:01.000Z</time>
      </trkpt>
      <trkpt lat="41.348715" lon="1.890383">
        <ele>624.9</ele>
        <time>1970-01-01T01:47:02.000Z</time>
      </trkpt>
      <trkpt lat="41.34869" lon="1.89038">
        <ele>624.9</ele>
        <time>1970-01-01T01:47:03.000Z</time>
      </trkpt>
      <trkpt lat="41.34869" lon="1.89038">
        <ele>624.9</ele>
        <time>1970-01-01T01:47:04.000Z</time>
      </trkpt>
      <trkpt lat="41.34865" lon="1.890367">
        <ele>623.9</ele>
        <time>1970-01-01T01:47:05.000Z</time>
      </trkpt>
      <trkpt lat="41.34865" lon="1.890367">
        <ele>623.9</ele>
        <time>1970-01-01T01:47:06.000Z</time>
      </trkpt>
      <trkpt lat="41.348612" lon="1.890353">
        <ele>623.9</ele>
        <time>1970-01-01T01:47:07.000Z</time>
      </trkpt>
      <trkpt lat="41.348595" lon="1.890347">
        <ele>623.9</ele>
        <time>1970-01-01T01:47:08.000Z</time>
      </trkpt>
      <trkpt lat="41.348578" lon="1.890343">
        <ele>624.9</ele>
        <time>1970-01-01T01:47:09.000Z</time>
      </trkpt>
      <trkpt lat="41.348578" lon="1.890343">
        <ele>624.9</ele>
        <time>1970-01-01T01:47:10.000Z</time>
      </trkpt>
      <trkpt lat="41.348543" lon="1.89034">
        <ele>624.9</ele>
        <time>1970-01-01T01:47:11.000Z</time>
      </trkpt>
      <trkpt lat="41.348528" lon="1.89034">
        <ele>624.9</ele>
        <time>1970-01-01T01:47:12.000Z</time>
      </trkpt>
      <trkpt lat="41.348528" lon="1.89034">
        <ele>622.9</ele>
        <time>1970-01-01T01:47:13.000Z</time>
      </trkpt>
      <trkpt lat="41.348493" lon="1.890343">
        <ele>622.9</ele>
        <time>1970-01-01T01:47:14.000Z</time>
      </trkpt>
      <trkpt lat="41.348473" lon="1.890343">
        <ele>627.9</ele>
        <time>1970-01-01T01:47:15.000Z</time>
      </trkpt>
      <trkpt lat="41.348473" lon="1.890343">
        <ele>627.9</ele>
        <time>1970-01-01T01:47:16.000Z</time>
      </trkpt>
      <trkpt lat="41.348432" lon="1.890345">
        <ele>627.9</ele>
        <time>1970-01-01T01:47:17.000Z</time>
      </trkpt>
      <trkpt lat="41.34841" lon="1.89034">
        <ele>627.9</ele>
        <time>1970-01-01T01:47:18.000Z</time>
      </trkpt>
      <trkpt lat="41.34841" lon="1.89034">
        <ele>625.9</ele>
        <time>1970-01-01T01:47:19.000Z</time>
      </trkpt>
      <trkpt lat="41.348373" lon="1.890328">
        <ele>625.9</ele>
        <time>1970-01-01T01:47:20.000Z</time>
      </trkpt>
      <trkpt lat="41.348357" lon="1.890323">
        <ele>625.9</ele>
        <time>1970-01-01T01:47:21.000Z</time>
      </trkpt>
      <trkpt lat="41.348357" lon="1.890323">
        <ele>625.9</ele>
        <time>1970-01-01T01:47:22.000Z</time>
      </trkpt>
      <trkpt lat="41.348328" lon="1.890293">
        <ele>625.9</ele>
        <time>1970-01-01T01:47:23.000Z</time>
      </trkpt>
      <trkpt lat="41.348328" lon="1.890293">
        <ele>626.9</ele>
        <time>1970-01-01T01:47:24.000Z</time>
      </trkpt>
      <trkpt lat="41.348308" lon="1.890255">
        <ele>626.9</ele>
        <time>1970-01-01T01:47:25.000Z</time>
      </trkpt>
      <trkpt lat="41.348302" lon="1.89023">
        <ele>626.9</ele>
        <time>1970-01-01T01:47:26.000Z</time>
      </trkpt>
      <trkpt lat="41.348302" lon="1.89023">
        <ele>626.9</ele>
        <time>1970-01-01T01:47:27.000Z</time>
      </trkpt>
      <trkpt lat="41.348288" lon="1.890185">
        <ele>626.9</ele>
        <time>1970-01-01T01:47:28.000Z</time>
      </trkpt>
      <trkpt lat="41.348288" lon="1.890185">
        <ele>626.9</ele>
        <time>1970-01-01T01:47:29.000Z</time>
      </trkpt>
      <trkpt lat="41.348277" lon="1.890133">
        <ele>626.9</ele>
        <time>1970-01-01T01:47:30.000Z</time>
      </trkpt>
      <trkpt lat="41.348277" lon="1.890133">
        <ele>626.9</ele>
        <time>1970-01-01T01:47:31.000Z</time>
      </trkpt>
      <trkpt lat="41.348267" lon="1.89008">
        <ele>626.9</ele>
        <time>1970-01-01T01:47:32.000Z</time>
      </trkpt>
      <trkpt lat="41.34826" lon="1.890055">
        <ele>626.9</ele>
        <time>1970-01-01T01:47:33.000Z</time>
      </trkpt>
      <trkpt lat="41.34826" lon="1.890055">
        <ele>626.9</ele>
        <time>1970-01-01T01:47:34.000Z</time>
      </trkpt>
      <trkpt lat="41.348247" lon="1.890013">
        <ele>626.9</ele>
        <time>1970-01-01T01:47:35.000Z</time>
      </trkpt>
      <trkpt lat="41.348235" lon="1.889995">
        <ele>626.9</ele>
        <time>1970-01-01T01:47:36.000Z</time>
      </trkpt>
      <trkpt lat="41.348235" lon="1.889995">
        <ele>626.9</ele>
        <time>1970-01-01T01:47:37.000Z</time>
      </trkpt>
      <trkpt lat="41.348213" lon="1.889957">
        <ele>627.9</ele>
        <time>1970-01-01T01:47:38.000Z</time>
      </trkpt>
      <trkpt lat="41.348203" lon="1.88994">
        <ele>627.9</ele>
        <time>1970-01-01T01:47:39.000Z</time>
      </trkpt>
      <trkpt lat="41.348203" lon="1.88994">
        <ele>627.9</ele>
        <time>1970-01-01T01:47:40.000Z</time>
      </trkpt>
      <trkpt lat="41.34818" lon="1.889905">
        <ele>627.9</ele>
        <time>1970-01-01T01:47:41.000Z</time>
      </trkpt>
      <trkpt lat="41.348168" lon="1.88989">
        <ele>627.9</ele>
        <time>1970-01-01T01:47:42.000Z</time>
      </trkpt>
      <trkpt lat="41.348168" lon="1.88989">
        <ele>627.9</ele>
        <time>1970-01-01T01:47:43.000Z</time>
      </trkpt>
      <trkpt lat="41.348143" lon="1.88986">
        <ele>627.9</ele>
        <time>1970-01-01T01:47:44.000Z</time>
      </trkpt>
      <trkpt lat="41.348132" lon="1.889845">
        <ele>628.9</ele>
        <time>1970-01-01T01:47:45.000Z</time>
      </trkpt>
      <trkpt lat="41.348132" lon="1.889845">
        <ele>628.9</ele>
        <time>1970-01-01T01:47:46.000Z</time>
      </trkpt>
      <trkpt lat="41.34811" lon="1.889807">
        <ele>628.9</ele>
        <time>1970-01-01T01:47:47.000Z</time>
      </trkpt>
      <trkpt lat="41.34811" lon="1.889807">
        <ele>628.9</ele>
        <time>1970-01-01T01:47:48.000Z</time>
      </trkpt>
      <trkpt lat="41.34809" lon="1.889765">
        <ele>628.9</ele>
        <time>1970-01-01T01:47:49.000Z</time>
      </trkpt>
      <trkpt lat="41.34809" lon="1.889765">
        <ele>628.9</ele>
        <time>1970-01-01T01:47:50.000Z</time>
      </trkpt>
      <trkpt lat="41.348067" lon="1.889725">
        <ele>629.9</ele>
        <time>1970-01-01T01:47:51.000Z</time>
      </trkpt>
      <trkpt lat="41.348067" lon="1.889725">
        <ele>629.9</ele>
        <time>1970-01-01T01:47:52.000Z</time>
      </trkpt>
      <trkpt lat="41.348048" lon="1.889683">
        <ele>629.9</ele>
        <time>1970-01-01T01:47:53.000Z</time>
      </trkpt>
      <trkpt lat="41.34804" lon="1.889662">
        <ele>629.9</ele>
        <time>1970-01-01T01:47:54.000Z</time>
      </trkpt>
      <trkpt lat="41.34804" lon="1.889662">
        <ele>629.9</ele>
        <time>1970-01-01T01:47:55.000Z</time>
      </trkpt>
      <trkpt lat="41.348022" lon="1.88962">
        <ele>629.9</ele>
        <time>1970-01-01T01:47:56.000Z</time>
      </trkpt>
      <trkpt lat="41.34801" lon="1.889598">
        <ele>630.9</ele>
        <time>1970-01-01T01:47:57.000Z</time>
      </trkpt>
      <trkpt lat="41.34801" lon="1.889598">
        <ele>630.9</ele>
        <time>1970-01-01T01:47:58.000Z</time>
      </trkpt>
      <trkpt lat="41.347983" lon="1.889563">
        <ele>630.9</ele>
        <time>1970-01-01T01:47:59.000Z</time>
      </trkpt>
      <trkpt lat="41.347983" lon="1.889563">
        <ele>630.9</ele>
        <time>1970-01-01T01:48:00.000Z</time>
      </trkpt>
      <trkpt lat="41.347952" lon="1.889535">
        <ele>630.9</ele>
        <time>1970-01-01T01:48:01.000Z</time>
      </trkpt>
      <trkpt lat="41.347952" lon="1.889535">
        <ele>630.9</ele>
        <time>1970-01-01T01:48:02.000Z</time>
      </trkpt>
      <trkpt lat="41.347918" lon="1.88951">
        <ele>630.9</ele>
        <time>1970-01-01T01:48:03.000Z</time>
      </trkpt>
      <trkpt lat="41.347918" lon="1.88951">
        <ele>630.9</ele>
        <time>1970-01-01T01:48:04.000Z</time>
      </trkpt>
      <trkpt lat="41.347892" lon="1.889473">
        <ele>630.9</ele>
        <time>1970-01-01T01:48:05.000Z</time>
      </trkpt>
      <trkpt lat="41.347875" lon="1.88945">
        <ele>630.9</ele>
        <time>1970-01-01T01:48:06.000Z</time>
      </trkpt>
      <trkpt lat="41.347875" lon="1.88945">
        <ele>630.9</ele>
        <time>1970-01-01T01:48:07.000Z</time>
      </trkpt>
      <trkpt lat="41.347855" lon="1.889393">
        <ele>630.9</ele>
        <time>1970-01-01T01:48:08.000Z</time>
      </trkpt>
      <trkpt lat="41.347855" lon="1.889393">
        <ele>630.9</ele>
        <time>1970-01-01T01:48:09.000Z</time>
      </trkpt>
      <trkpt lat="41.347847" lon="1.889327">
        <ele>630.9</ele>
        <time>1970-01-01T01:48:10.000Z</time>
      </trkpt>
      <trkpt lat="41.347845" lon="1.88929">
        <ele>630.9</ele>
        <time>1970-01-01T01:48:11.000Z</time>
      </trkpt>
      <trkpt lat="41.347845" lon="1.88929">
        <ele>630.9</ele>
        <time>1970-01-01T01:48:12.000Z</time>
      </trkpt>
      <trkpt lat="41.34786" lon="1.889218">
        <ele>630.9</ele>
        <time>1970-01-01T01:48:13.000Z</time>
      </trkpt>
      <trkpt lat="41.347867" lon="1.889185">
        <ele>630.9</ele>
        <time>1970-01-01T01:48:14.000Z</time>
      </trkpt>
      <trkpt lat="41.347873" lon="1.889148">
        <ele>630.9</ele>
        <time>1970-01-01T01:48:15.000Z</time>
      </trkpt>
      <trkpt lat="41.347883" lon="1.889108">
        <ele>630.9</ele>
        <time>1970-01-01T01:48:16.000Z</time>
      </trkpt>
      <trkpt lat="41.347883" lon="1.889108">
        <ele>630.9</ele>
        <time>1970-01-01T01:48:17.000Z</time>
      </trkpt>
      <trkpt lat="41.347887" lon="1.889015">
        <ele>630.9</ele>
        <time>1970-01-01T01:48:18.000Z</time>
      </trkpt>
      <trkpt lat="41.347887" lon="1.889015">
        <ele>630.9</ele>
        <time>1970-01-01T01:48:19.000Z</time>
      </trkpt>
      <trkpt lat="41.347845" lon="1.888918">
        <ele>630.9</ele>
        <time>1970-01-01T01:48:20.000Z</time>
      </trkpt>
      <trkpt lat="41.347845" lon="1.888918">
        <ele>630.9</ele>
        <time>1970-01-01T01:48:21.000Z</time>
      </trkpt>
      <trkpt lat="41.347782" lon="1.888817">
        <ele>630.9</ele>
        <time>1970-01-01T01:48:22.000Z</time>
      </trkpt>
      <trkpt lat="41.347782" lon="1.888817">
        <ele>629.9</ele>
        <time>1970-01-01T01:48:23.000Z</time>
      </trkpt>
      <trkpt lat="41.347723" lon="1.888682">
        <ele>629.9</ele>
        <time>1970-01-01T01:48:24.000Z</time>
      </trkpt>
      <trkpt lat="41.347723" lon="1.888682">
        <ele>628.9</ele>
        <time>1970-01-01T01:48:25.000Z</time>
      </trkpt>
      <trkpt lat="41.347665" lon="1.888523">
        <ele>628.9</ele>
        <time>1970-01-01T01:48:26.000Z</time>
      </trkpt>
      <trkpt lat="41.347625" lon="1.888445">
        <ele>627.9</ele>
        <time>1970-01-01T01:48:27.000Z</time>
      </trkpt>
      <trkpt lat="41.347625" lon="1.888445">
        <ele>627.9</ele>
        <time>1970-01-01T01:48:28.000Z</time>
      </trkpt>
      <trkpt lat="41.347517" lon="1.888293">
        <ele>626.9</ele>
        <time>1970-01-01T01:48:29.000Z</time>
      </trkpt>
      <trkpt lat="41.347458" lon="1.888208">
        <ele>626.9</ele>
        <time>1970-01-01T01:48:30.000Z</time>
      </trkpt>
      <trkpt lat="41.3474" lon="1.888118">
        <ele>625.9</ele>
        <time>1970-01-01T01:48:31.000Z</time>
      </trkpt>
      <trkpt lat="41.3474" lon="1.888118">
        <ele>624.9</ele>
        <time>1970-01-01T01:48:32.000Z</time>
      </trkpt>
      <trkpt lat="41.34731" lon="1.887913">
        <ele>624.9</ele>
        <time>1970-01-01T01:48:33.000Z</time>
      </trkpt>
      <trkpt lat="41.34731" lon="1.887913">
        <ele>623.9</ele>
        <time>1970-01-01T01:48:34.000Z</time>
      </trkpt>
      <trkpt lat="41.34724" lon="1.887707">
        <ele>623.9</ele>
        <time>1970-01-01T01:48:35.000Z</time>
      </trkpt>
      <trkpt lat="41.34724" lon="1.887707">
        <ele>622.9</ele>
        <time>1970-01-01T01:48:36.000Z</time>
      </trkpt>
      <trkpt lat="41.347182" lon="1.887517">
        <ele>622.9</ele>
        <time>1970-01-01T01:48:37.000Z</time>
      </trkpt>
      <trkpt lat="41.347152" lon="1.887433">
        <ele>622.9</ele>
        <time>1970-01-01T01:48:38.000Z</time>
      </trkpt>
      <trkpt lat="41.347152" lon="1.887433">
        <ele>622.9</ele>
        <time>1970-01-01T01:48:39.000Z</time>
      </trkpt>
      <trkpt lat="41.34709" lon="1.887308">
        <ele>622.9</ele>
        <time>1970-01-01T01:48:40.000Z</time>
      </trkpt>
      <trkpt lat="41.34709" lon="1.887308">
        <ele>622.9</ele>
        <time>1970-01-01T01:48:41.000Z</time>
      </trkpt>
      <trkpt lat="41.347043" lon="1.887218">
        <ele>622.9</ele>
        <time>1970-01-01T01:48:42.000Z</time>
      </trkpt>
      <trkpt lat="41.347027" lon="1.887187">
        <ele>622.9</ele>
        <time>1970-01-01T01:48:43.000Z</time>
      </trkpt>
      <trkpt lat="41.347027" lon="1.887187">
        <ele>622.9</ele>
        <time>1970-01-01T01:48:44.000Z</time>
      </trkpt>
      <trkpt lat="41.346993" lon="1.887127">
        <ele>622.9</ele>
        <time>1970-01-01T01:48:45.000Z</time>
      </trkpt>
      <trkpt lat="41.346993" lon="1.887127">
        <ele>622.9</ele>
        <time>1970-01-01T01:48:46.000Z</time>
      </trkpt>
      <trkpt lat="41.346952" lon="1.887068">
        <ele>622.9</ele>
        <time>1970-01-01T01:48:47.000Z</time>
      </trkpt>
      <trkpt lat="41.346933" lon="1.887037">
        <ele>622.9</ele>
        <time>1970-01-01T01:48:48.000Z</time>
      </trkpt>
      <trkpt lat="41.346933" lon="1.887037">
        <ele>623.9</ele>
        <time>1970-01-01T01:48:49.000Z</time>
      </trkpt>
      <trkpt lat="41.346895" lon="1.886978">
        <ele>623.9</ele>
        <time>1970-01-01T01:48:50.000Z</time>
      </trkpt>
      <trkpt lat="41.346878" lon="1.88695">
        <ele>623.9</ele>
        <time>1970-01-01T01:48:51.000Z</time>
      </trkpt>
      <trkpt lat="41.346878" lon="1.88695">
        <ele>623.9</ele>
        <time>1970-01-01T01:48:52.000Z</time>
      </trkpt>
      <trkpt lat="41.34684" lon="1.886903">
        <ele>624.9</ele>
        <time>1970-01-01T01:48:53.000Z</time>
      </trkpt>
      <trkpt lat="41.34684" lon="1.886903">
        <ele>624.9</ele>
        <time>1970-01-01T01:48:54.000Z</time>
      </trkpt>
      <trkpt lat="41.346798" lon="1.88685">
        <ele>624.9</ele>
        <time>1970-01-01T01:48:55.000Z</time>
      </trkpt>
      <trkpt lat="41.34678" lon="1.886823">
        <ele>624.9</ele>
        <time>1970-01-01T01:48:56.000Z</time>
      </trkpt>
      <trkpt lat="41.346762" lon="1.886795">
        <ele>625.9</ele>
        <time>1970-01-01T01:48:57.000Z</time>
      </trkpt>
      <trkpt lat="41.346762" lon="1.886795">
        <ele>625.9</ele>
        <time>1970-01-01T01:48:58.000Z</time>
      </trkpt>
      <trkpt lat="41.346728" lon="1.886733">
        <ele>625.9</ele>
        <time>1970-01-01T01:48:59.000Z</time>
      </trkpt>
      <trkpt lat="41.346712" lon="1.886702">
        <ele>625.9</ele>
        <time>1970-01-01T01:49:00.000Z</time>
      </trkpt>
      <trkpt lat="41.346712" lon="1.886702">
        <ele>625.9</ele>
        <time>1970-01-01T01:49:01.000Z</time>
      </trkpt>
      <trkpt lat="41.346673" lon="1.88664">
        <ele>625.9</ele>
        <time>1970-01-01T01:49:02.000Z</time>
      </trkpt>
      <trkpt lat="41.346652" lon="1.886612">
        <ele>625.9</ele>
        <time>1970-01-01T01:49:03.000Z</time>
      </trkpt>
      <trkpt lat="41.346652" lon="1.886612">
        <ele>625.9</ele>
        <time>1970-01-01T01:49:04.000Z</time>
      </trkpt>
      <trkpt lat="41.346615" lon="1.886555">
        <ele>625.9</ele>
        <time>1970-01-01T01:49:05.000Z</time>
      </trkpt>
      <trkpt lat="41.346598" lon="1.886527">
        <ele>625.9</ele>
        <time>1970-01-01T01:49:06.000Z</time>
      </trkpt>
      <trkpt lat="41.346598" lon="1.886527">
        <ele>626.9</ele>
        <time>1970-01-01T01:49:07.000Z</time>
      </trkpt>
      <trkpt lat="41.34657" lon="1.886463">
        <ele>626.9</ele>
        <time>1970-01-01T01:49:08.000Z</time>
      </trkpt>
      <trkpt lat="41.34657" lon="1.886463">
        <ele>626.9</ele>
        <time>1970-01-01T01:49:09.000Z</time>
      </trkpt>
      <trkpt lat="41.346545" lon="1.886402">
        <ele>626.9</ele>
        <time>1970-01-01T01:49:10.000Z</time>
      </trkpt>
      <trkpt lat="41.346533" lon="1.886377">
        <ele>627.9</ele>
        <time>1970-01-01T01:49:11.000Z</time>
      </trkpt>
      <trkpt lat="41.346533" lon="1.886377">
        <ele>627.9</ele>
        <time>1970-01-01T01:49:12.000Z</time>
      </trkpt>
      <trkpt lat="41.346513" lon="1.886325">
        <ele>627.9</ele>
        <time>1970-01-01T01:49:13.000Z</time>
      </trkpt>
      <trkpt lat="41.346513" lon="1.886325">
        <ele>627.9</ele>
        <time>1970-01-01T01:49:14.000Z</time>
      </trkpt>
      <trkpt lat="41.346493" lon="1.886273">
        <ele>628.9</ele>
        <time>1970-01-01T01:49:15.000Z</time>
      </trkpt>
      <trkpt lat="41.346493" lon="1.886273">
        <ele>628.9</ele>
        <time>1970-01-01T01:49:16.000Z</time>
      </trkpt>
      <trkpt lat="41.346477" lon="1.886217">
        <ele>628.9</ele>
        <time>1970-01-01T01:49:17.000Z</time>
      </trkpt>
      <trkpt lat="41.34647" lon="1.886192">
        <ele>628.9</ele>
        <time>1970-01-01T01:49:18.000Z</time>
      </trkpt>
      <trkpt lat="41.34647" lon="1.886192">
        <ele>628.9</ele>
        <time>1970-01-01T01:49:19.000Z</time>
      </trkpt>
      <trkpt lat="41.346448" lon="1.886142">
        <ele>628.9</ele>
        <time>1970-01-01T01:49:20.000Z</time>
      </trkpt>
      <trkpt lat="41.34644" lon="1.88612">
        <ele>629.9</ele>
        <time>1970-01-01T01:49:21.000Z</time>
      </trkpt>
      <trkpt lat="41.346435" lon="1.8861">
        <ele>629.9</ele>
        <time>1970-01-01T01:49:22.000Z</time>
      </trkpt>
      <trkpt lat="41.346435" lon="1.8861">
        <ele>629.9</ele>
        <time>1970-01-01T01:49:23.000Z</time>
      </trkpt>
      <trkpt lat="41.346433" lon="1.886058">
        <ele>629.9</ele>
        <time>1970-01-01T01:49:24.000Z</time>
      </trkpt>
      <trkpt lat="41.346427" lon="1.886038">
        <ele>630.9</ele>
        <time>1970-01-01T01:49:25.000Z</time>
      </trkpt>
      <trkpt lat="41.346427" lon="1.886038">
        <ele>630.9</ele>
        <time>1970-01-01T01:49:26.000Z</time>
      </trkpt>
      <trkpt lat="41.346413" lon="1.885993">
        <ele>631.9</ele>
        <time>1970-01-01T01:49:27.000Z</time>
      </trkpt>
      <trkpt lat="41.346413" lon="1.885993">
        <ele>631.9</ele>
        <time>1970-01-01T01:49:28.000Z</time>
      </trkpt>
      <trkpt lat="41.346405" lon="1.885948">
        <ele>631.9</ele>
        <time>1970-01-01T01:49:29.000Z</time>
      </trkpt>
      <trkpt lat="41.346405" lon="1.885948">
        <ele>631.9</ele>
        <time>1970-01-01T01:49:30.000Z</time>
      </trkpt>
      <trkpt lat="41.346398" lon="1.885907">
        <ele>632.9</ele>
        <time>1970-01-01T01:49:31.000Z</time>
      </trkpt>
      <trkpt lat="41.346397" lon="1.885885">
        <ele>632.9</ele>
        <time>1970-01-01T01:49:32.000Z</time>
      </trkpt>
      <trkpt lat="41.346397" lon="1.885885">
        <ele>632.9</ele>
        <time>1970-01-01T01:49:33.000Z</time>
      </trkpt>
      <trkpt lat="41.346397" lon="1.885842">
        <ele>633.9</ele>
        <time>1970-01-01T01:49:34.000Z</time>
      </trkpt>
      <trkpt lat="41.346397" lon="1.885842">
        <ele>633.9</ele>
        <time>1970-01-01T01:49:35.000Z</time>
      </trkpt>
      <trkpt lat="41.346385" lon="1.885803">
        <ele>633.9</ele>
        <time>1970-01-01T01:49:36.000Z</time>
      </trkpt>
      <trkpt lat="41.346385" lon="1.885803">
        <ele>633.9</ele>
        <time>1970-01-01T01:49:37.000Z</time>
      </trkpt>
      <trkpt lat="41.346373" lon="1.885768">
        <ele>633.9</ele>
        <time>1970-01-01T01:49:38.000Z</time>
      </trkpt>
      <trkpt lat="41.34637" lon="1.885755">
        <ele>633.9</ele>
        <time>1970-01-01T01:49:39.000Z</time>
      </trkpt>
      <trkpt lat="41.34637" lon="1.885755">
        <ele>633.9</ele>
        <time>1970-01-01T01:49:40.000Z</time>
      </trkpt>
      <trkpt lat="41.346365" lon="1.88572">
        <ele>633.9</ele>
        <time>1970-01-01T01:49:41.000Z</time>
      </trkpt>
      <trkpt lat="41.346362" lon="1.88571">
        <ele>633.9</ele>
        <time>1970-01-01T01:49:42.000Z</time>
      </trkpt>
      <trkpt lat="41.346362" lon="1.88571">
        <ele>633.9</ele>
        <time>1970-01-01T01:49:43.000Z</time>
      </trkpt>
      <trkpt lat="41.346347" lon="1.885687">
        <ele>633.9</ele>
        <time>1970-01-01T01:49:44.000Z</time>
      </trkpt>
      <trkpt lat="41.34634" lon="1.885675">
        <ele>635.9</ele>
        <time>1970-01-01T01:49:45.000Z</time>
      </trkpt>
      <trkpt lat="41.346332" lon="1.885662">
        <ele>635.9</ele>
        <time>1970-01-01T01:49:46.000Z</time>
      </trkpt>
      <trkpt lat="41.346332" lon="1.885662">
        <ele>635.9</ele>
        <time>1970-01-01T01:49:47.000Z</time>
      </trkpt>
      <trkpt lat="41.346327" lon="1.88563">
        <ele>635.9</ele>
        <time>1970-01-01T01:49:48.000Z</time>
      </trkpt>
      <trkpt lat="41.346327" lon="1.88563">
        <ele>636.9</ele>
        <time>1970-01-01T01:49:49.000Z</time>
      </trkpt>
      <trkpt lat="41.34632" lon="1.8856">
        <ele>636.9</ele>
        <time>1970-01-01T01:49:50.000Z</time>
      </trkpt>
      <trkpt lat="41.34632" lon="1.8856">
        <ele>636.9</ele>
        <time>1970-01-01T01:49:51.000Z</time>
      </trkpt>
      <trkpt lat="41.34631" lon="1.885573">
        <ele>636.9</ele>
        <time>1970-01-01T01:49:52.000Z</time>
      </trkpt>
      <trkpt lat="41.34631" lon="1.885573">
        <ele>636.9</ele>
        <time>1970-01-01T01:49:53.000Z</time>
      </trkpt>
      <trkpt lat="41.346303" lon="1.885542">
        <ele>636.9</ele>
        <time>1970-01-01T01:49:54.000Z</time>
      </trkpt>
      <trkpt lat="41.3463" lon="1.885525">
        <ele>636.9</ele>
        <time>1970-01-01T01:49:55.000Z</time>
      </trkpt>
      <trkpt lat="41.346295" lon="1.885508">
        <ele>636.9</ele>
        <time>1970-01-01T01:49:56.000Z</time>
      </trkpt>
      <trkpt lat="41.346295" lon="1.885508">
        <ele>638.9</ele>
        <time>1970-01-01T01:49:57.000Z</time>
      </trkpt>
      <trkpt lat="41.346287" lon="1.885472">
        <ele>638.9</ele>
        <time>1970-01-01T01:49:58.000Z</time>
      </trkpt>
      <trkpt lat="41.346287" lon="1.885472">
        <ele>638.9</ele>
        <time>1970-01-01T01:49:59.000Z</time>
      </trkpt>
      <trkpt lat="41.34628" lon="1.885438">
        <ele>638.9</ele>
        <time>1970-01-01T01:50:00.000Z</time>
      </trkpt>
      <trkpt lat="41.34628" lon="1.885438">
        <ele>638.9</ele>
        <time>1970-01-01T01:50:01.000Z</time>
      </trkpt>
      <trkpt lat="41.346275" lon="1.885408">
        <ele>638.9</ele>
        <time>1970-01-01T01:50:02.000Z</time>
      </trkpt>
      <trkpt lat="41.34627" lon="1.885393">
        <ele>639.9</ele>
        <time>1970-01-01T01:50:03.000Z</time>
      </trkpt>
      <trkpt lat="41.34627" lon="1.885393">
        <ele>639.9</ele>
        <time>1970-01-01T01:50:04.000Z</time>
      </trkpt>
      <trkpt lat="41.34626" lon="1.885362">
        <ele>639.9</ele>
        <time>1970-01-01T01:50:05.000Z</time>
      </trkpt>
      <trkpt lat="41.346258" lon="1.885347">
        <ele>639.9</ele>
        <time>1970-01-01T01:50:06.000Z</time>
      </trkpt>
      <trkpt lat="41.346258" lon="1.885347">
        <ele>639.9</ele>
        <time>1970-01-01T01:50:07.000Z</time>
      </trkpt>
      <trkpt lat="41.346253" lon="1.885313">
        <ele>639.9</ele>
        <time>1970-01-01T01:50:08.000Z</time>
      </trkpt>
      <trkpt lat="41.346245" lon="1.885298">
        <ele>640.9</ele>
        <time>1970-01-01T01:50:09.000Z</time>
      </trkpt>
      <trkpt lat="41.346245" lon="1.885298">
        <ele>640.9</ele>
        <time>1970-01-01T01:50:10.000Z</time>
      </trkpt>
      <trkpt lat="41.346237" lon="1.885268">
        <ele>640.9</ele>
        <time>1970-01-01T01:50:11.000Z</time>
      </trkpt>
      <trkpt lat="41.346237" lon="1.885252">
        <ele>640.9</ele>
        <time>1970-01-01T01:50:12.000Z</time>
      </trkpt>
      <trkpt lat="41.346237" lon="1.885252">
        <ele>640.9</ele>
        <time>1970-01-01T01:50:13.000Z</time>
      </trkpt>
      <trkpt lat="41.346237" lon="1.885228">
        <ele>640.9</ele>
        <time>1970-01-01T01:50:14.000Z</time>
      </trkpt>
      <trkpt lat="41.346233" lon="1.885213">
        <ele>640.9</ele>
        <time>1970-01-01T01:50:15.000Z</time>
      </trkpt>
      <trkpt lat="41.346233" lon="1.885213">
        <ele>641.9</ele>
        <time>1970-01-01T01:50:16.000Z</time>
      </trkpt>
      <trkpt lat="41.346225" lon="1.88518">
        <ele>641.9</ele>
        <time>1970-01-01T01:50:17.000Z</time>
      </trkpt>
      <trkpt lat="41.346225" lon="1.88518">
        <ele>641.9</ele>
        <time>1970-01-01T01:50:18.000Z</time>
      </trkpt>
      <trkpt lat="41.346217" lon="1.885143">
        <ele>641.9</ele>
        <time>1970-01-01T01:50:19.000Z</time>
      </trkpt>
      <trkpt lat="41.346217" lon="1.885143">
        <ele>641.9</ele>
        <time>1970-01-01T01:50:20.000Z</time>
      </trkpt>
      <trkpt lat="41.346212" lon="1.885112">
        <ele>641.9</ele>
        <time>1970-01-01T01:50:21.000Z</time>
      </trkpt>
      <trkpt lat="41.346212" lon="1.885112">
        <ele>642.9</ele>
        <time>1970-01-01T01:50:22.000Z</time>
      </trkpt>
      <trkpt lat="41.3462" lon="1.885083">
        <ele>642.9</ele>
        <time>1970-01-01T01:50:23.000Z</time>
      </trkpt>
      <trkpt lat="41.346195" lon="1.885068">
        <ele>642.9</ele>
        <time>1970-01-01T01:50:24.000Z</time>
      </trkpt>
      <trkpt lat="41.346195" lon="1.885068">
        <ele>642.9</ele>
        <time>1970-01-01T01:50:25.000Z</time>
      </trkpt>
      <trkpt lat="41.346185" lon="1.885037">
        <ele>642.9</ele>
        <time>1970-01-01T01:50:26.000Z</time>
      </trkpt>
      <trkpt lat="41.346182" lon="1.885022">
        <ele>642.9</ele>
        <time>1970-01-01T01:50:27.000Z</time>
      </trkpt>
      <trkpt lat="41.346182" lon="1.885022">
        <ele>642.9</ele>
        <time>1970-01-01T01:50:28.000Z</time>
      </trkpt>
      <trkpt lat="41.346165" lon="1.884998">
        <ele>642.9</ele>
        <time>1970-01-01T01:50:29.000Z</time>
      </trkpt>
      <trkpt lat="41.346165" lon="1.884998">
        <ele>642.9</ele>
        <time>1970-01-01T01:50:30.000Z</time>
      </trkpt>
      <trkpt lat="41.346148" lon="1.88497">
        <ele>642.9</ele>
        <time>1970-01-01T01:50:31.000Z</time>
      </trkpt>
      <trkpt lat="41.346148" lon="1.88497">
        <ele>642.9</ele>
        <time>1970-01-01T01:50:32.000Z</time>
      </trkpt>
      <trkpt lat="41.346128" lon="1.884952">
        <ele>642.9</ele>
        <time>1970-01-01T01:50:33.000Z</time>
      </trkpt>
      <trkpt lat="41.346128" lon="1.884952">
        <ele>642.9</ele>
        <time>1970-01-01T01:50:34.000Z</time>
      </trkpt>
      <trkpt lat="41.346108" lon="1.884937">
        <ele>644.9</ele>
        <time>1970-01-01T01:50:35.000Z</time>
      </trkpt>
      <trkpt lat="41.346102" lon="1.884933">
        <ele>644.9</ele>
        <time>1970-01-01T01:50:36.000Z</time>
      </trkpt>
      <trkpt lat="41.346102" lon="1.884933">
        <ele>644.9</ele>
        <time>1970-01-01T01:50:37.000Z</time>
      </trkpt>
      <trkpt lat="41.34608" lon="1.884938">
        <ele>644.9</ele>
        <time>1970-01-01T01:50:38.000Z</time>
      </trkpt>
      <trkpt lat="41.34607" lon="1.884945">
        <ele>644.9</ele>
        <time>1970-01-01T01:50:39.000Z</time>
      </trkpt>
      <trkpt lat="41.34607" lon="1.884945">
        <ele>644.9</ele>
        <time>1970-01-01T01:50:40.000Z</time>
      </trkpt>
      <trkpt lat="41.346055" lon="1.884977">
        <ele>644.9</ele>
        <time>1970-01-01T01:50:41.000Z</time>
      </trkpt>
      <trkpt lat="41.346055" lon="1.884977">
        <ele>644.9</ele>
        <time>1970-01-01T01:50:42.000Z</time>
      </trkpt>
      <trkpt lat="41.34605" lon="1.885008">
        <ele>645.9</ele>
        <time>1970-01-01T01:50:43.000Z</time>
      </trkpt>
      <trkpt lat="41.34605" lon="1.885008">
        <ele>645.9</ele>
        <time>1970-01-01T01:50:44.000Z</time>
      </trkpt>
      <trkpt lat="41.346038" lon="1.885045">
        <ele>645.9</ele>
        <time>1970-01-01T01:50:45.000Z</time>
      </trkpt>
      <trkpt lat="41.346038" lon="1.885045">
        <ele>645.9</ele>
        <time>1970-01-01T01:50:46.000Z</time>
      </trkpt>
      <trkpt lat="41.346023" lon="1.885088">
        <ele>645.9</ele>
        <time>1970-01-01T01:50:47.000Z</time>
      </trkpt>
      <trkpt lat="41.34602" lon="1.885108">
        <ele>645.9</ele>
        <time>1970-01-01T01:50:48.000Z</time>
      </trkpt>
      <trkpt lat="41.34602" lon="1.885108">
        <ele>645.9</ele>
        <time>1970-01-01T01:50:49.000Z</time>
      </trkpt>
      <trkpt lat="41.346018" lon="1.88515">
        <ele>645.9</ele>
        <time>1970-01-01T01:50:50.000Z</time>
      </trkpt>
      <trkpt lat="41.34601" lon="1.88517">
        <ele>645.9</ele>
        <time>1970-01-01T01:50:51.000Z</time>
      </trkpt>
      <trkpt lat="41.34601" lon="1.88517">
        <ele>645.9</ele>
        <time>1970-01-01T01:50:52.000Z</time>
      </trkpt>
      <trkpt lat="41.345988" lon="1.8852">
        <ele>645.9</ele>
        <time>1970-01-01T01:50:53.000Z</time>
      </trkpt>
      <trkpt lat="41.345975" lon="1.885217">
        <ele>645.9</ele>
        <time>1970-01-01T01:50:54.000Z</time>
      </trkpt>
      <trkpt lat="41.345975" lon="1.885217">
        <ele>645.9</ele>
        <time>1970-01-01T01:50:55.000Z</time>
      </trkpt>
      <trkpt lat="41.345947" lon="1.885242">
        <ele>645.9</ele>
        <time>1970-01-01T01:50:56.000Z</time>
      </trkpt>
      <trkpt lat="41.345947" lon="1.885242">
        <ele>645.9</ele>
        <time>1970-01-01T01:50:57.000Z</time>
      </trkpt>
      <trkpt lat="41.345913" lon="1.885247">
        <ele>645.9</ele>
        <time>1970-01-01T01:50:58.000Z</time>
      </trkpt>
      <trkpt lat="41.345913" lon="1.885247">
        <ele>645.9</ele>
        <time>1970-01-01T01:50:59.000Z</time>
      </trkpt>
      <trkpt lat="41.345873" lon="1.885233">
        <ele>645.9</ele>
        <time>1970-01-01T01:51:00.000Z</time>
      </trkpt>
      <trkpt lat="41.345873" lon="1.885233">
        <ele>645.9</ele>
        <time>1970-01-01T01:51:01.000Z</time>
      </trkpt>
      <trkpt lat="41.345847" lon="1.885207">
        <ele>645.9</ele>
        <time>1970-01-01T01:51:02.000Z</time>
      </trkpt>
      <trkpt lat="41.345847" lon="1.885207">
        <ele>645.9</ele>
        <time>1970-01-01T01:51:03.000Z</time>
      </trkpt>
      <trkpt lat="41.345833" lon="1.885182">
        <ele>645.9</ele>
        <time>1970-01-01T01:51:04.000Z</time>
      </trkpt>
      <trkpt lat="41.345833" lon="1.885182">
        <ele>645.9</ele>
        <time>1970-01-01T01:51:05.000Z</time>
      </trkpt>
      <trkpt lat="41.345832" lon="1.885182">
        <ele>645.9</ele>
        <time>1970-01-01T01:51:06.000Z</time>
      </trkpt>
      <trkpt lat="41.345962" lon="1.885247">
        <ele>644.9</ele>
        <time>1970-01-01T00:00:00.000Z</time>
      </trkpt>
      <trkpt lat="41.345972" lon="1.885235">
        <ele>645.9</ele>
        <time>1970-01-01T00:00:01.000Z</time>
      </trkpt>
      <trkpt lat="41.345972" lon="1.885235">
        <ele>645.9</ele>
        <time>1970-01-01T00:00:02.000Z</time>
      </trkpt>
      <trkpt lat="41.345998" lon="1.885202">
        <ele>645.9</ele>
        <time>1970-01-01T00:00:03.000Z</time>
      </trkpt>
      <trkpt lat="41.34601" lon="1.885183">
        <ele>645.9</ele>
        <time>1970-01-01T00:00:04.000Z</time>
      </trkpt>
      <trkpt lat="41.34601" lon="1.885183">
        <ele>645.9</ele>
        <time>1970-01-01T00:00:05.000Z</time>
      </trkpt>
      <trkpt lat="41.346032" lon="1.885142">
        <ele>645.9</ele>
        <time>1970-01-01T00:00:06.000Z</time>
      </trkpt>
      <trkpt lat="41.346032" lon="1.885142">
        <ele>645.9</ele>
        <time>1970-01-01T00:00:07.000Z</time>
      </trkpt>
      <trkpt lat="41.346048" lon="1.885087">
        <ele>645.9</ele>
        <time>1970-01-01T00:00:08.000Z</time>
      </trkpt>
      <trkpt lat="41.346048" lon="1.885087">
        <ele>645.9</ele>
        <time>1970-01-01T00:00:09.000Z</time>
      </trkpt>
      <trkpt lat="41.346063" lon="1.885027">
        <ele>645.9</ele>
        <time>1970-01-01T00:00:10.000Z</time>
      </trkpt>
      <trkpt lat="41.346075" lon="1.885">
        <ele>646.9</ele>
        <time>1970-01-01T00:00:11.000Z</time>
      </trkpt>
      <trkpt lat="41.346075" lon="1.885">
        <ele>646.9</ele>
        <time>1970-01-01T00:00:12.000Z</time>
      </trkpt>
      <trkpt lat="41.346102" lon="1.88494">
        <ele>645.9</ele>
        <time>1970-01-01T00:00:13.000Z</time>
      </trkpt>
      <trkpt lat="41.346118" lon="1.884913">
        <ele>645.9</ele>
        <time>1970-01-01T00:00:14.000Z</time>
      </trkpt>
      <trkpt lat="41.346118" lon="1.884913">
        <ele>645.9</ele>
        <time>1970-01-01T00:00:15.000Z</time>
      </trkpt>
      <trkpt lat="41.346145" lon="1.884885">
        <ele>645.9</ele>
        <time>1970-01-01T00:00:16.000Z</time>
      </trkpt>
      <trkpt lat="41.346145" lon="1.884877">
        <ele>645.9</ele>
        <time>1970-01-01T00:00:17.000Z</time>
      </trkpt>
      <trkpt lat="41.346145" lon="1.884877">
        <ele>645.9</ele>
        <time>1970-01-01T00:00:18.000Z</time>
      </trkpt>
      <trkpt lat="41.346147" lon="1.884877">
        <ele>645.9</ele>
        <time>1970-01-01T00:00:19.000Z</time>
      </trkpt>
      <trkpt lat="41.346147" lon="1.884877">
        <ele>645.9</ele>
        <time>1970-01-01T00:00:20.000Z</time>
      </trkpt>
      <trkpt lat="41.346113" lon="1.884887">
        <ele>645.9</ele>
        <time>1970-01-01T00:06:36.000Z</time>
      </trkpt>
      <trkpt lat="41.346113" lon="1.884887">
        <ele>645.9</ele>
        <time>1970-01-01T00:06:37.000Z</time>
      </trkpt>
      <trkpt lat="41.346117" lon="1.884892">
        <ele>645.9</ele>
        <time>1970-01-01T00:06:38.000Z</time>
      </trkpt>
      <trkpt lat="41.346117" lon="1.884892">
        <ele>645.9</ele>
        <time>1970-01-01T00:06:39.000Z</time>
      </trkpt>
      <trkpt lat="41.346115" lon="1.884893">
        <ele>645.9</ele>
        <time>1970-01-01T00:06:40.000Z</time>
      </trkpt>
      <trkpt lat="41.346115" lon="1.884893">
        <ele>645.9</ele>
        <time>1970-01-01T00:06:41.000Z</time>
      </trkpt>
      <trkpt lat="41.346115" lon="1.884893">
        <ele>645.9</ele>
        <time>1970-01-01T00:06:47.000Z</time>
      </trkpt>
      <trkpt lat="41.346145" lon="1.884957">
        <ele>645.9</ele>
        <time>1970-01-01T00:06:48.000Z</time>
      </trkpt>
      <trkpt lat="41.346145" lon="1.884957">
        <ele>645.9</ele>
        <time>1970-01-01T00:06:49.000Z</time>
      </trkpt>
      <trkpt lat="41.346177" lon="1.885007">
        <ele>645.9</ele>
        <time>1970-01-01T00:06:50.000Z</time>
      </trkpt>
      <trkpt lat="41.346193" lon="1.88505">
        <ele>644.9</ele>
        <time>1970-01-01T00:06:51.000Z</time>
      </trkpt>
      <trkpt lat="41.346193" lon="1.88505">
        <ele>644.9</ele>
        <time>1970-01-01T00:06:52.000Z</time>
      </trkpt>
      <trkpt lat="41.346227" lon="1.885178">
        <ele>643.9</ele>
        <time>1970-01-01T00:06:53.000Z</time>
      </trkpt>
      <trkpt lat="41.346227" lon="1.885178">
        <ele>643.9</ele>
        <time>1970-01-01T00:06:54.000Z</time>
      </trkpt>
      <trkpt lat="41.346265" lon="1.885327">
        <ele>642.9</ele>
        <time>1970-01-01T00:06:55.000Z</time>
      </trkpt>
      <trkpt lat="41.346265" lon="1.885327">
        <ele>642.9</ele>
        <time>1970-01-01T00:06:56.000Z</time>
      </trkpt>
      <trkpt lat="41.346298" lon="1.885487">
        <ele>641.9</ele>
        <time>1970-01-01T00:06:57.000Z</time>
      </trkpt>
      <trkpt lat="41.346298" lon="1.885487">
        <ele>641.9</ele>
        <time>1970-01-01T00:06:58.000Z</time>
      </trkpt>
      <trkpt lat="41.346337" lon="1.88565">
        <ele>639.9</ele>
        <time>1970-01-01T00:06:59.000Z</time>
      </trkpt>
      <trkpt lat="41.34636" lon="1.885732">
        <ele>639.9</ele>
        <time>1970-01-01T00:07:00.000Z</time>
      </trkpt>
      <trkpt lat="41.34636" lon="1.885732">
        <ele>638.9</ele>
        <time>1970-01-01T00:07:01.000Z</time>
      </trkpt>
      <trkpt lat="41.346402" lon="1.885935">
        <ele>638.9</ele>
        <time>1970-01-01T00:07:02.000Z</time>
      </trkpt>
      <trkpt lat="41.346427" lon="1.886038">
        <ele>636.9</ele>
        <time>1970-01-01T00:07:03.000Z</time>
      </trkpt>
      <trkpt lat="41.346427" lon="1.886038">
        <ele>636.9</ele>
        <time>1970-01-01T00:07:04.000Z</time>
      </trkpt>
      <trkpt lat="41.346485" lon="1.886203">
        <ele>635.9</ele>
        <time>1970-01-01T00:07:05.000Z</time>
      </trkpt>
      <trkpt lat="41.346485" lon="1.886203">
        <ele>635.9</ele>
        <time>1970-01-01T00:07:06.000Z</time>
      </trkpt>
      <trkpt lat="41.346532" lon="1.886345">
        <ele>632.9</ele>
        <time>1970-01-01T00:07:07.000Z</time>
      </trkpt>
      <trkpt lat="41.346532" lon="1.886345">
        <ele>632.9</ele>
        <time>1970-01-01T00:07:08.000Z</time>
      </trkpt>
      <trkpt lat="41.346588" lon="1.8865">
        <ele>631.9</ele>
        <time>1970-01-01T00:07:09.000Z</time>
      </trkpt>
      <trkpt lat="41.346588" lon="1.8865">
        <ele>631.9</ele>
        <time>1970-01-01T00:07:10.000Z</time>
      </trkpt>
      <trkpt lat="41.346672" lon="1.886653">
        <ele>630.9</ele>
        <time>1970-01-01T00:07:11.000Z</time>
      </trkpt>
      <trkpt lat="41.346722" lon="1.886727">
        <ele>630.9</ele>
        <time>1970-01-01T00:07:12.000Z</time>
      </trkpt>
      <trkpt lat="41.346722" lon="1.886727">
        <ele>628.9</ele>
        <time>1970-01-01T00:07:13.000Z</time>
      </trkpt>
      <trkpt lat="41.346823" lon="1.886878">
        <ele>628.9</ele>
        <time>1970-01-01T00:07:14.000Z</time>
      </trkpt>
      <trkpt lat="41.346875" lon="1.886955">
        <ele>628.9</ele>
        <time>1970-01-01T00:07:15.000Z</time>
      </trkpt>
      <trkpt lat="41.346875" lon="1.886955">
        <ele>627.9</ele>
        <time>1970-01-01T00:07:16.000Z</time>
      </trkpt>
      <trkpt lat="41.346982" lon="1.88712">
        <ele>627.9</ele>
        <time>1970-01-01T00:07:17.000Z</time>
      </trkpt>
      <trkpt lat="41.346982" lon="1.88712">
        <ele>625.9</ele>
        <time>1970-01-01T00:07:18.000Z</time>
      </trkpt>
      <trkpt lat="41.34709" lon="1.887308">
        <ele>625.9</ele>
        <time>1970-01-01T00:07:19.000Z</time>
      </trkpt>
      <trkpt lat="41.347138" lon="1.88741">
        <ele>624.9</ele>
        <time>1970-01-01T00:07:20.000Z</time>
      </trkpt>
      <trkpt lat="41.347183" lon="1.887518">
        <ele>624.9</ele>
        <time>1970-01-01T00:07:21.000Z</time>
      </trkpt>
      <trkpt lat="41.347225" lon="1.887632">
        <ele>622.9</ele>
        <time>1970-01-01T00:07:22.000Z</time>
      </trkpt>
      <trkpt lat="41.347225" lon="1.887632">
        <ele>622.9</ele>
        <time>1970-01-01T00:07:23.000Z</time>
      </trkpt>
      <trkpt lat="41.347298" lon="1.887858">
        <ele>621.9</ele>
        <time>1970-01-01T00:07:24.000Z</time>
      </trkpt>
      <trkpt lat="41.347335" lon="1.88796">
        <ele>621.9</ele>
        <time>1970-01-01T00:07:25.000Z</time>
      </trkpt>
      <trkpt lat="41.347335" lon="1.88796">
        <ele>621.9</ele>
        <time>1970-01-01T00:07:26.000Z</time>
      </trkpt>
      <trkpt lat="41.347415" lon="1.888122">
        <ele>621.9</ele>
        <time>1970-01-01T00:07:27.000Z</time>
      </trkpt>
      <trkpt lat="41.347415" lon="1.888122">
        <ele>620.9</ele>
        <time>1970-01-01T00:07:28.000Z</time>
      </trkpt>
      <trkpt lat="41.34748" lon="1.888233">
        <ele>620.9</ele>
        <time>1970-01-01T00:07:29.000Z</time>
      </trkpt>
      <trkpt lat="41.34748" lon="1.888233">
        <ele>620.9</ele>
        <time>1970-01-01T00:07:30.000Z</time>
      </trkpt>
      <trkpt lat="41.347527" lon="1.888302">
        <ele>620.9</ele>
        <time>1970-01-01T00:07:31.000Z</time>
      </trkpt>
      <trkpt lat="41.347527" lon="1.888302">
        <ele>621.9</ele>
        <time>1970-01-01T00:07:32.000Z</time>
      </trkpt>
      <trkpt lat="41.347567" lon="1.888345">
        <ele>621.9</ele>
        <time>1970-01-01T00:07:33.000Z</time>
      </trkpt>
      <trkpt lat="41.347567" lon="1.888345">
        <ele>621.9</ele>
        <time>1970-01-01T00:07:34.000Z</time>
      </trkpt>
      <trkpt lat="41.3476" lon="1.888378">
        <ele>621.9</ele>
        <time>1970-01-01T00:07:35.000Z</time>
      </trkpt>
      <trkpt lat="41.3476" lon="1.888378">
        <ele>622.9</ele>
        <time>1970-01-01T00:07:36.000Z</time>
      </trkpt>
      <trkpt lat="41.347625" lon="1.888412">
        <ele>622.9</ele>
        <time>1970-01-01T00:07:37.000Z</time>
      </trkpt>
      <trkpt lat="41.347625" lon="1.888412">
        <ele>623.9</ele>
        <time>1970-01-01T00:07:38.000Z</time>
      </trkpt>
      <trkpt lat="41.347652" lon="1.888455">
        <ele>623.9</ele>
        <time>1970-01-01T00:07:39.000Z</time>
      </trkpt>
      <trkpt lat="41.347652" lon="1.888455">
        <ele>623.9</ele>
        <time>1970-01-01T00:07:40.000Z</time>
      </trkpt>
      <trkpt lat="41.347683" lon="1.888502">
        <ele>623.9</ele>
        <time>1970-01-01T00:07:41.000Z</time>
      </trkpt>
      <trkpt lat="41.347697" lon="1.888527">
        <ele>624.9</ele>
        <time>1970-01-01T00:07:42.000Z</time>
      </trkpt>
      <trkpt lat="41.347697" lon="1.888527">
        <ele>624.9</ele>
        <time>1970-01-01T00:07:43.000Z</time>
      </trkpt>
      <trkpt lat="41.347725" lon="1.888578">
        <ele>624.9</ele>
        <time>1970-01-01T00:07:44.000Z</time>
      </trkpt>
      <trkpt lat="41.347738" lon="1.888605">
        <ele>624.9</ele>
        <time>1970-01-01T00:07:45.000Z</time>
      </trkpt>
      <trkpt lat="41.347738" lon="1.888605">
        <ele>624.9</ele>
        <time>1970-01-01T00:07:46.000Z</time>
      </trkpt>
      <trkpt lat="41.347758" lon="1.88866">
        <ele>625.9</ele>
        <time>1970-01-01T00:07:47.000Z</time>
      </trkpt>
      <trkpt lat="41.347765" lon="1.888688">
        <ele>625.9</ele>
        <time>1970-01-01T00:07:48.000Z</time>
      </trkpt>
      <trkpt lat="41.347765" lon="1.888688">
        <ele>625.9</ele>
        <time>1970-01-01T00:07:49.000Z</time>
      </trkpt>
      <trkpt lat="41.347775" lon="1.888745">
        <ele>625.9</ele>
        <time>1970-01-01T00:07:50.000Z</time>
      </trkpt>
      <trkpt lat="41.347783" lon="1.888772">
        <ele>627.9</ele>
        <time>1970-01-01T00:07:51.000Z</time>
      </trkpt>
      <trkpt lat="41.347783" lon="1.888772">
        <ele>627.9</ele>
        <time>1970-01-01T00:07:52.000Z</time>
      </trkpt>
      <trkpt lat="41.347803" lon="1.888818">
        <ele>627.9</ele>
        <time>1970-01-01T00:07:53.000Z</time>
      </trkpt>
      <trkpt lat="41.347818" lon="1.888842">
        <ele>627.9</ele>
        <time>1970-01-01T00:07:54.000Z</time>
      </trkpt>
      <trkpt lat="41.347818" lon="1.888842">
        <ele>627.9</ele>
        <time>1970-01-01T00:07:55.000Z</time>
      </trkpt>
      <trkpt lat="41.347845" lon="1.888885">
        <ele>628.9</ele>
        <time>1970-01-01T00:07:56.000Z</time>
      </trkpt>
      <trkpt lat="41.347858" lon="1.88891">
        <ele>628.9</ele>
        <time>1970-01-01T00:07:57.000Z</time>
      </trkpt>
      <trkpt lat="41.347858" lon="1.88891">
        <ele>628.9</ele>
        <time>1970-01-01T00:07:58.000Z</time>
      </trkpt>
      <trkpt lat="41.34789" lon="1.888955">
        <ele>628.9</ele>
        <time>1970-01-01T00:07:59.000Z</time>
      </trkpt>
      <trkpt lat="41.34789" lon="1.888955">
        <ele>628.9</ele>
        <time>1970-01-01T00:08:00.000Z</time>
      </trkpt>
      <trkpt lat="41.347915" lon="1.889008">
        <ele>628.9</ele>
        <time>1970-01-01T00:08:01.000Z</time>
      </trkpt>
      <trkpt lat="41.347922" lon="1.889037">
        <ele>629.9</ele>
        <time>1970-01-01T00:08:02.000Z</time>
      </trkpt>
      <trkpt lat="41.347922" lon="1.889037">
        <ele>629.9</ele>
        <time>1970-01-01T00:08:03.000Z</time>
      </trkpt>
      <trkpt lat="41.34792" lon="1.889095">
        <ele>629.9</ele>
        <time>1970-01-01T00:08:04.000Z</time>
      </trkpt>
      <trkpt lat="41.347912" lon="1.889122">
        <ele>629.9</ele>
        <time>1970-01-01T00:08:05.000Z</time>
      </trkpt>
      <trkpt lat="41.347912" lon="1.889122">
        <ele>629.9</ele>
        <time>1970-01-01T00:08:06.000Z</time>
      </trkpt>
      <trkpt lat="41.347895" lon="1.889177">
        <ele>629.9</ele>
        <time>1970-01-01T00:08:07.000Z</time>
      </trkpt>
      <trkpt lat="41.347888" lon="1.889207">
        <ele>629.9</ele>
        <time>1970-01-01T00:08:08.000Z</time>
      </trkpt>
      <trkpt lat="41.347883" lon="1.889237">
        <ele>629.9</ele>
        <time>1970-01-01T00:08:09.000Z</time>
      </trkpt>
      <trkpt lat="41.347883" lon="1.889237">
        <ele>629.9</ele>
        <time>1970-01-01T00:08:10.000Z</time>
      </trkpt>
      <trkpt lat="41.347877" lon="1.8893">
        <ele>629.9</ele>
        <time>1970-01-01T00:08:11.000Z</time>
      </trkpt>
      <trkpt lat="41.347877" lon="1.8893">
        <ele>629.9</ele>
        <time>1970-01-01T00:08:12.000Z</time>
      </trkpt>
      <trkpt lat="41.347882" lon="1.889368">
        <ele>629.9</ele>
        <time>1970-01-01T00:08:13.000Z</time>
      </trkpt>
      <trkpt lat="41.347882" lon="1.889368">
        <ele>629.9</ele>
        <time>1970-01-01T00:08:14.000Z</time>
      </trkpt>
      <trkpt lat="41.347897" lon="1.889435">
        <ele>629.9</ele>
        <time>1970-01-01T00:08:15.000Z</time>
      </trkpt>
      <trkpt lat="41.347897" lon="1.889435">
        <ele>629.9</ele>
        <time>1970-01-01T00:08:16.000Z</time>
      </trkpt>
      <trkpt lat="41.34793" lon="1.889498">
        <ele>629.9</ele>
        <time>1970-01-01T00:08:17.000Z</time>
      </trkpt>
      <trkpt lat="41.34793" lon="1.889498">
        <ele>630.9</ele>
        <time>1970-01-01T00:08:18.000Z</time>
      </trkpt>
      <trkpt lat="41.347977" lon="1.889562">
        <ele>630.9</ele>
        <time>1970-01-01T00:08:19.000Z</time>
      </trkpt>
      <trkpt lat="41.348003" lon="1.889588">
        <ele>630.9</ele>
        <time>1970-01-01T00:08:20.000Z</time>
      </trkpt>
      <trkpt lat="41.348032" lon="1.889612">
        <ele>630.9</ele>
        <time>1970-01-01T00:08:21.000Z</time>
      </trkpt>
      <trkpt lat="41.348032" lon="1.889612">
        <ele>630.9</ele>
        <time>1970-01-01T00:08:22.000Z</time>
      </trkpt>
      <trkpt lat="41.348082" lon="1.889682">
        <ele>630.9</ele>
        <time>1970-01-01T00:08:23.000Z</time>
      </trkpt>
      <trkpt lat="41.348082" lon="1.889682">
        <ele>629.9</ele>
        <time>1970-01-01T00:08:24.000Z</time>
      </trkpt>
      <trkpt lat="41.348125" lon="1.889792">
        <ele>629.9</ele>
        <time>1970-01-01T00:08:25.000Z</time>
      </trkpt>
      <trkpt lat="41.348125" lon="1.889792">
        <ele>629.9</ele>
        <time>1970-01-01T00:08:26.000Z</time>
      </trkpt>
      <trkpt lat="41.348187" lon="1.889902">
        <ele>629.9</ele>
        <time>1970-01-01T00:08:27.000Z</time>
      </trkpt>
      <trkpt lat="41.348187" lon="1.889902">
        <ele>628.9</ele>
        <time>1970-01-01T00:08:28.000Z</time>
      </trkpt>
      <trkpt lat="41.34825" lon="1.89001">
        <ele>628.9</ele>
        <time>1970-01-01T00:08:29.000Z</time>
      </trkpt>
      <trkpt lat="41.34825" lon="1.89001">
        <ele>627.9</ele>
        <time>1970-01-01T00:08:30.000Z</time>
      </trkpt>
      <trkpt lat="41.348297" lon="1.89013">
        <ele>627.9</ele>
        <time>1970-01-01T00:08:31.000Z</time>
      </trkpt>
      <trkpt lat="41.34831" lon="1.8902">
        <ele>626.9</ele>
        <time>1970-01-01T00:08:32.000Z</time>
      </trkpt>
      <trkpt lat="41.348328" lon="1.890263">
        <ele>626.9</ele>
        <time>1970-01-01T00:08:33.000Z</time>
      </trkpt>
      <trkpt lat="41.348328" lon="1.890263">
        <ele>626.9</ele>
        <time>1970-01-01T00:08:34.000Z</time>
      </trkpt>
      <trkpt lat="41.348393" lon="1.890353">
        <ele>625.9</ele>
        <time>1970-01-01T00:08:35.000Z</time>
      </trkpt>
      <trkpt lat="41.348393" lon="1.890353">
        <ele>625.9</ele>
        <time>1970-01-01T00:08:36.000Z</time>
      </trkpt>
      <trkpt lat="41.34849" lon="1.890382">
        <ele>624.9</ele>
        <time>1970-01-01T00:08:37.000Z</time>
      </trkpt>
      <trkpt lat="41.348543" lon="1.890378">
        <ele>624.9</ele>
        <time>1970-01-01T00:08:38.000Z</time>
      </trkpt>
      <trkpt lat="41.348597" lon="1.890372">
        <ele>623.9</ele>
        <time>1970-01-01T00:08:39.000Z</time>
      </trkpt>
      <trkpt lat="41.348597" lon="1.890372">
        <ele>623.9</ele>
        <time>1970-01-01T00:08:40.000Z</time>
      </trkpt>
      <trkpt lat="41.348707" lon="1.890388">
        <ele>623.9</ele>
        <time>1970-01-01T00:08:41.000Z</time>
      </trkpt>
      <trkpt lat="41.348707" lon="1.890388">
        <ele>623.9</ele>
        <time>1970-01-01T00:08:42.000Z</time>
      </trkpt>
      <trkpt lat="41.348822" lon="1.890425">
        <ele>622.9</ele>
        <time>1970-01-01T00:08:43.000Z</time>
      </trkpt>
      <trkpt lat="41.348877" lon="1.890447">
        <ele>622.9</ele>
        <time>1970-01-01T00:08:44.000Z</time>
      </trkpt>
      <trkpt lat="41.348928" lon="1.890478">
        <ele>622.9</ele>
        <time>1970-01-01T00:08:45.000Z</time>
      </trkpt>
      <trkpt lat="41.348965" lon="1.890527">
        <ele>622.9</ele>
        <time>1970-01-01T00:08:46.000Z</time>
      </trkpt>
      <trkpt lat="41.348965" lon="1.890527">
        <ele>622.9</ele>
        <time>1970-01-01T00:08:47.000Z</time>
      </trkpt>
      <trkpt lat="41.34901" lon="1.890633">
        <ele>622.9</ele>
        <time>1970-01-01T00:08:48.000Z</time>
      </trkpt>
      <trkpt lat="41.34901" lon="1.890633">
        <ele>622.9</ele>
        <time>1970-01-01T00:08:49.000Z</time>
      </trkpt>
      <trkpt lat="41.349053" lon="1.890717">
        <ele>622.9</ele>
        <time>1970-01-01T00:08:50.000Z</time>
      </trkpt>
      <trkpt lat="41.349075" lon="1.890755">
        <ele>621.9</ele>
        <time>1970-01-01T00:08:51.000Z</time>
      </trkpt>
      <trkpt lat="41.349075" lon="1.890755">
        <ele>621.9</ele>
        <time>1970-01-01T00:08:52.000Z</time>
      </trkpt>
      <trkpt lat="41.349117" lon="1.890825">
        <ele>621.9</ele>
        <time>1970-01-01T00:08:53.000Z</time>
      </trkpt>
      <trkpt lat="41.349117" lon="1.890825">
        <ele>621.9</ele>
        <time>1970-01-01T00:08:54.000Z</time>
      </trkpt>
      <trkpt lat="41.34916" lon="1.890892">
        <ele>622.9</ele>
        <time>1970-01-01T00:08:55.000Z</time>
      </trkpt>
      <trkpt lat="41.34916" lon="1.890892">
        <ele>622.9</ele>
        <time>1970-01-01T00:08:56.000Z</time>
      </trkpt>
      <trkpt lat="41.349208" lon="1.890945">
        <ele>622.9</ele>
        <time>1970-01-01T00:08:57.000Z</time>
      </trkpt>
      <trkpt lat="41.349208" lon="1.890945">
        <ele>622.9</ele>
        <time>1970-01-01T00:08:58.000Z</time>
      </trkpt>
      <trkpt lat="41.349253" lon="1.890987">
        <ele>622.9</ele>
        <time>1970-01-01T00:08:59.000Z</time>
      </trkpt>
      <trkpt lat="41.349253" lon="1.890987">
        <ele>622.9</ele>
        <time>1970-01-01T00:09:00.000Z</time>
      </trkpt>
      <trkpt lat="41.349298" lon="1.891017">
        <ele>622.9</ele>
        <time>1970-01-01T00:09:01.000Z</time>
      </trkpt>
      <trkpt lat="41.349322" lon="1.891027">
        <ele>622.9</ele>
        <time>1970-01-01T00:09:02.000Z</time>
      </trkpt>
      <trkpt lat="41.349347" lon="1.891032">
        <ele>622.9</ele>
        <time>1970-01-01T00:09:03.000Z</time>
      </trkpt>
      <trkpt lat="41.349347" lon="1.891032">
        <ele>622.9</ele>
        <time>1970-01-01T00:09:04.000Z</time>
      </trkpt>
      <trkpt lat="41.3494" lon="1.891033">
        <ele>623.9</ele>
        <time>1970-01-01T00:09:05.000Z</time>
      </trkpt>
      <trkpt lat="41.3494" lon="1.891033">
        <ele>623.9</ele>
        <time>1970-01-01T00:09:06.000Z</time>
      </trkpt>
      <trkpt lat="41.349465" lon="1.891048">
        <ele>623.9</ele>
        <time>1970-01-01T00:09:07.000Z</time>
      </trkpt>
      <trkpt lat="41.349497" lon="1.891058">
        <ele>623.9</ele>
        <time>1970-01-01T00:09:08.000Z</time>
      </trkpt>
      <trkpt lat="41.34953" lon="1.891073">
        <ele>623.9</ele>
        <time>1970-01-01T00:09:09.000Z</time>
      </trkpt>
      <trkpt lat="41.349563" lon="1.891088">
        <ele>623.9</ele>
        <time>1970-01-01T00:09:10.000Z</time>
      </trkpt>
      <trkpt lat="41.349563" lon="1.891088">
        <ele>623.9</ele>
        <time>1970-01-01T00:09:11.000Z</time>
      </trkpt>
      <trkpt lat="41.34962" lon="1.891122">
        <ele>623.9</ele>
        <time>1970-01-01T00:09:12.000Z</time>
      </trkpt>
      <trkpt lat="41.34965" lon="1.891138">
        <ele>623.9</ele>
        <time>1970-01-01T00:09:13.000Z</time>
      </trkpt>
      <trkpt lat="41.349678" lon="1.891162">
        <ele>623.9</ele>
        <time>1970-01-01T00:09:14.000Z</time>
      </trkpt>
      <trkpt lat="41.349708" lon="1.891193">
        <ele>623.9</ele>
        <time>1970-01-01T00:09:15.000Z</time>
      </trkpt>
      <trkpt lat="41.349708" lon="1.891193">
        <ele>623.9</ele>
        <time>1970-01-01T00:09:16.000Z</time>
      </trkpt>
      <trkpt lat="41.34977" lon="1.891267">
        <ele>623.9</ele>
        <time>1970-01-01T00:09:17.000Z</time>
      </trkpt>
      <trkpt lat="41.349803" lon="1.891318">
        <ele>622.9</ele>
        <time>1970-01-01T00:09:18.000Z</time>
      </trkpt>
      <trkpt lat="41.349803" lon="1.891318">
        <ele>622.9</ele>
        <time>1970-01-01T00:09:19.000Z</time>
      </trkpt>
      <trkpt lat="41.349872" lon="1.891415">
        <ele>621.9</ele>
        <time>1970-01-01T00:09:20.000Z</time>
      </trkpt>
      <trkpt lat="41.349872" lon="1.891415">
        <ele>621.9</ele>
        <time>1970-01-01T00:09:21.000Z</time>
      </trkpt>
      <trkpt lat="41.349957" lon="1.891505">
        <ele>620.9</ele>
        <time>1970-01-01T00:09:22.000Z</time>
      </trkpt>
      <trkpt lat="41.350005" lon="1.891542">
        <ele>620.9</ele>
        <time>1970-01-01T00:09:23.000Z</time>
      </trkpt>
      <trkpt lat="41.350005" lon="1.891542">
        <ele>618.9</ele>
        <time>1970-01-01T00:09:24.000Z</time>
      </trkpt>
      <trkpt lat="41.350113" lon="1.891612">
        <ele>618.9</ele>
        <time>1970-01-01T00:09:25.000Z</time>
      </trkpt>
      <trkpt lat="41.350113" lon="1.891612">
        <ele>617.9</ele>
        <time>1970-01-01T00:09:26.000Z</time>
      </trkpt>
      <trkpt lat="41.35024" lon="1.891703">
        <ele>617.9</ele>
        <time>1970-01-01T00:09:27.000Z</time>
      </trkpt>
      <trkpt lat="41.350305" lon="1.891752">
        <ele>615.9</ele>
        <time>1970-01-01T00:09:28.000Z</time>
      </trkpt>
      <trkpt lat="41.350305" lon="1.891752">
        <ele>615.9</ele>
        <time>1970-01-01T00:09:29.000Z</time>
      </trkpt>
      <trkpt lat="41.350408" lon="1.891855">
        <ele>613.9</ele>
        <time>1970-01-01T00:09:30.000Z</time>
      </trkpt>
      <trkpt lat="41.350408" lon="1.891855">
        <ele>613.9</ele>
        <time>1970-01-01T00:09:31.000Z</time>
      </trkpt>
      <trkpt lat="41.350502" lon="1.891928">
        <ele>611.9</ele>
        <time>1970-01-01T00:09:32.000Z</time>
      </trkpt>
      <trkpt lat="41.350552" lon="1.891952">
        <ele>611.9</ele>
        <time>1970-01-01T00:09:33.000Z</time>
      </trkpt>
      <trkpt lat="41.350552" lon="1.891952">
        <ele>610.9</ele>
        <time>1970-01-01T00:09:34.000Z</time>
      </trkpt>
      <trkpt lat="41.350633" lon="1.89202">
        <ele>610.9</ele>
        <time>1970-01-01T00:09:35.000Z</time>
      </trkpt>
      <trkpt lat="41.35066" lon="1.892075">
        <ele>608.9</ele>
        <time>1970-01-01T00:09:36.000Z</time>
      </trkpt>
      <trkpt lat="41.35066" lon="1.892075">
        <ele>608.9</ele>
        <time>1970-01-01T00:09:37.000Z</time>
      </trkpt>
      <trkpt lat="41.350685" lon="1.892228">
        <ele>606.9</ele>
        <time>1970-01-01T00:09:38.000Z</time>
      </trkpt>
      <trkpt lat="41.350688" lon="1.892328">
        <ele>606.9</ele>
        <time>1970-01-01T00:09:39.000Z</time>
      </trkpt>
      <trkpt lat="41.350688" lon="1.892328">
        <ele>604.9</ele>
        <time>1970-01-01T00:09:40.000Z</time>
      </trkpt>
      <trkpt lat="41.350688" lon="1.892577">
        <ele>604.9</ele>
        <time>1970-01-01T00:09:41.000Z</time>
      </trkpt>
      <trkpt lat="41.350688" lon="1.892577">
        <ele>602.9</ele>
        <time>1970-01-01T00:09:42.000Z</time>
      </trkpt>
      <trkpt lat="41.350697" lon="1.892865">
        <ele>602.9</ele>
        <time>1970-01-01T00:09:43.000Z</time>
      </trkpt>
      <trkpt lat="41.350697" lon="1.892865">
        <ele>600.9</ele>
        <time>1970-01-01T00:09:44.000Z</time>
      </trkpt>
      <trkpt lat="41.350713" lon="1.893165">
        <ele>600.9</ele>
        <time>1970-01-01T00:09:45.000Z</time>
      </trkpt>
      <trkpt lat="41.350713" lon="1.893165">
        <ele>597.9</ele>
        <time>1970-01-01T00:09:46.000Z</time>
      </trkpt>
      <trkpt lat="41.350733" lon="1.893452">
        <ele>597.9</ele>
        <time>1970-01-01T00:09:47.000Z</time>
      </trkpt>
      <trkpt lat="41.350733" lon="1.893452">
        <ele>596.9</ele>
        <time>1970-01-01T00:09:48.000Z</time>
      </trkpt>
      <trkpt lat="41.350753" lon="1.893705">
        <ele>596.9</ele>
        <time>1970-01-01T00:09:49.000Z</time>
      </trkpt>
      <trkpt lat="41.350753" lon="1.893705">
        <ele>596.9</ele>
        <time>1970-01-01T00:09:50.000Z</time>
      </trkpt>
      <trkpt lat="41.350782" lon="1.893908">
        <ele>596.9</ele>
        <time>1970-01-01T00:09:51.000Z</time>
      </trkpt>
      <trkpt lat="41.350782" lon="1.893908">
        <ele>596.9</ele>
        <time>1970-01-01T00:09:52.000Z</time>
      </trkpt>
      <trkpt lat="41.350798" lon="1.894035">
        <ele>596.9</ele>
        <time>1970-01-01T00:09:53.000Z</time>
      </trkpt>
      <trkpt lat="41.350798" lon="1.894035">
        <ele>596.9</ele>
        <time>1970-01-01T00:09:54.000Z</time>
      </trkpt>
      <trkpt lat="41.350827" lon="1.894115">
        <ele>596.9</ele>
        <time>1970-01-01T00:09:55.000Z</time>
      </trkpt>
      <trkpt lat="41.350827" lon="1.894115">
        <ele>597.9</ele>
        <time>1970-01-01T00:09:56.000Z</time>
      </trkpt>
      <trkpt lat="41.350852" lon="1.894182">
        <ele>597.9</ele>
        <time>1970-01-01T00:09:57.000Z</time>
      </trkpt>
      <trkpt lat="41.350852" lon="1.894182">
        <ele>599.9</ele>
        <time>1970-01-01T00:09:58.000Z</time>
      </trkpt>
      <trkpt lat="41.350882" lon="1.894245">
        <ele>599.9</ele>
        <time>1970-01-01T00:09:59.000Z</time>
      </trkpt>
      <trkpt lat="41.350882" lon="1.894245">
        <ele>599.9</ele>
        <time>1970-01-01T00:10:00.000Z</time>
      </trkpt>
      <trkpt lat="41.350918" lon="1.89431">
        <ele>599.9</ele>
        <time>1970-01-01T00:10:01.000Z</time>
      </trkpt>
      <trkpt lat="41.350918" lon="1.89431">
        <ele>599.9</ele>
        <time>1970-01-01T00:10:02.000Z</time>
      </trkpt>
      <trkpt lat="41.350963" lon="1.89438">
        <ele>599.9</ele>
        <time>1970-01-01T00:10:03.000Z</time>
      </trkpt>
      <trkpt lat="41.350963" lon="1.89438">
        <ele>599.9</ele>
        <time>1970-01-01T00:10:04.000Z</time>
      </trkpt>
      <trkpt lat="41.351002" lon="1.894455">
        <ele>599.9</ele>
        <time>1970-01-01T00:10:05.000Z</time>
      </trkpt>
      <trkpt lat="41.351002" lon="1.894455">
        <ele>599.9</ele>
        <time>1970-01-01T00:10:06.000Z</time>
      </trkpt>
      <trkpt lat="41.35104" lon="1.89454">
        <ele>599.9</ele>
        <time>1970-01-01T00:10:07.000Z</time>
      </trkpt>
      <trkpt lat="41.35104" lon="1.89454">
        <ele>599.9</ele>
        <time>1970-01-01T00:10:08.000Z</time>
      </trkpt>
      <trkpt lat="41.351077" lon="1.894652">
        <ele>599.9</ele>
        <time>1970-01-01T00:10:09.000Z</time>
      </trkpt>
      <trkpt lat="41.351077" lon="1.894652">
        <ele>599.9</ele>
        <time>1970-01-01T00:10:10.000Z</time>
      </trkpt>
      <trkpt lat="41.351113" lon="1.894773">
        <ele>598.9</ele>
        <time>1970-01-01T00:10:11.000Z</time>
      </trkpt>
      <trkpt lat="41.351113" lon="1.894773">
        <ele>598.9</ele>
        <time>1970-01-01T00:10:12.000Z</time>
      </trkpt>
      <trkpt lat="41.351148" lon="1.894892">
        <ele>598.9</ele>
        <time>1970-01-01T00:10:13.000Z</time>
      </trkpt>
      <trkpt lat="41.351168" lon="1.89495">
        <ele>598.9</ele>
        <time>1970-01-01T00:10:14.000Z</time>
      </trkpt>
      <trkpt lat="41.351168" lon="1.89495">
        <ele>597.9</ele>
        <time>1970-01-01T00:10:15.000Z</time>
      </trkpt>
      <trkpt lat="41.351222" lon="1.895065">
        <ele>597.9</ele>
        <time>1970-01-01T00:10:16.000Z</time>
      </trkpt>
      <trkpt lat="41.351245" lon="1.895125">
        <ele>597.9</ele>
        <time>1970-01-01T00:10:17.000Z</time>
      </trkpt>
      <trkpt lat="41.351267" lon="1.895183">
        <ele>597.9</ele>
        <time>1970-01-01T00:10:18.000Z</time>
      </trkpt>
      <trkpt lat="41.35129" lon="1.895233">
        <ele>596.9</ele>
        <time>1970-01-01T00:10:19.000Z</time>
      </trkpt>
      <trkpt lat="41.35129" lon="1.895233">
        <ele>596.9</ele>
        <time>1970-01-01T00:10:20.000Z</time>
      </trkpt>
      <trkpt lat="41.351327" lon="1.895322">
        <ele>596.9</ele>
        <time>1970-01-01T00:10:21.000Z</time>
      </trkpt>
      <trkpt lat="41.351327" lon="1.895322">
        <ele>596.9</ele>
        <time>1970-01-01T00:10:22.000Z</time>
      </trkpt>
      <trkpt lat="41.351357" lon="1.895407">
        <ele>596.9</ele>
        <time>1970-01-01T00:10:23.000Z</time>
      </trkpt>
      <trkpt lat="41.351357" lon="1.895407">
        <ele>596.9</ele>
        <time>1970-01-01T00:10:24.000Z</time>
      </trkpt>
      <trkpt lat="41.351377" lon="1.895485">
        <ele>597.9</ele>
        <time>1970-01-01T00:10:25.000Z</time>
      </trkpt>
      <trkpt lat="41.351377" lon="1.895485">
        <ele>597.9</ele>
        <time>1970-01-01T00:10:26.000Z</time>
      </trkpt>
      <trkpt lat="41.351387" lon="1.895558">
        <ele>597.9</ele>
        <time>1970-01-01T00:10:27.000Z</time>
      </trkpt>
      <trkpt lat="41.351387" lon="1.895558">
        <ele>597.9</ele>
        <time>1970-01-01T00:10:28.000Z</time>
      </trkpt>
      <trkpt lat="41.35139" lon="1.895612">
        <ele>598.9</ele>
        <time>1970-01-01T00:10:29.000Z</time>
      </trkpt>
      <trkpt lat="41.35139" lon="1.895612">
        <ele>598.9</ele>
        <time>1970-01-01T00:10:30.000Z</time>
      </trkpt>
      <trkpt lat="41.351388" lon="1.89565">
        <ele>600.9</ele>
        <time>1970-01-01T00:10:31.000Z</time>
      </trkpt>
      <trkpt lat="41.351388" lon="1.89565">
        <ele>600.9</ele>
        <time>1970-01-01T00:10:32.000Z</time>
      </trkpt>
      <trkpt lat="41.35138" lon="1.895683">
        <ele>600.9</ele>
        <time>1970-01-01T00:10:33.000Z</time>
      </trkpt>
      <trkpt lat="41.35138" lon="1.895683">
        <ele>600.9</ele>
        <time>1970-01-01T00:10:34.000Z</time>
      </trkpt>
      <trkpt lat="41.351372" lon="1.895717">
        <ele>600.9</ele>
        <time>1970-01-01T00:10:35.000Z</time>
      </trkpt>
      <trkpt lat="41.351372" lon="1.895717">
        <ele>600.9</ele>
        <time>1970-01-01T00:10:36.000Z</time>
      </trkpt>
      <trkpt lat="41.351358" lon="1.895765">
        <ele>601.9</ele>
        <time>1970-01-01T00:10:37.000Z</time>
      </trkpt>
      <trkpt lat="41.351358" lon="1.895792">
        <ele>601.9</ele>
        <time>1970-01-01T00:10:38.000Z</time>
      </trkpt>
      <trkpt lat="41.351357" lon="1.895818">
        <ele>601.9</ele>
        <time>1970-01-01T00:10:39.000Z</time>
      </trkpt>
      <trkpt lat="41.351357" lon="1.895818">
        <ele>601.9</ele>
        <time>1970-01-01T00:10:40.000Z</time>
      </trkpt>
      <trkpt lat="41.35135" lon="1.895877">
        <ele>601.9</ele>
        <time>1970-01-01T00:10:41.000Z</time>
      </trkpt>
      <trkpt lat="41.35135" lon="1.895877">
        <ele>602.9</ele>
        <time>1970-01-01T00:10:42.000Z</time>
      </trkpt>
      <trkpt lat="41.351348" lon="1.895938">
        <ele>602.9</ele>
        <time>1970-01-01T00:10:43.000Z</time>
      </trkpt>
      <trkpt lat="41.351348" lon="1.89597">
        <ele>602.9</ele>
        <time>1970-01-01T00:10:44.000Z</time>
      </trkpt>
      <trkpt lat="41.351352" lon="1.895998">
        <ele>602.9</ele>
        <time>1970-01-01T00:10:45.000Z</time>
      </trkpt>
      <trkpt lat="41.351352" lon="1.895998">
        <ele>602.9</ele>
        <time>1970-01-01T00:10:46.000Z</time>
      </trkpt>
      <trkpt lat="41.351352" lon="1.896057">
        <ele>602.9</ele>
        <time>1970-01-01T00:10:47.000Z</time>
      </trkpt>
      <trkpt lat="41.35135" lon="1.896087">
        <ele>604.9</ele>
        <time>1970-01-01T00:10:48.000Z</time>
      </trkpt>
      <trkpt lat="41.35135" lon="1.896087">
        <ele>604.9</ele>
        <time>1970-01-01T00:10:49.000Z</time>
      </trkpt>
      <trkpt lat="41.35136" lon="1.896138">
        <ele>604.9</ele>
        <time>1970-01-01T00:10:50.000Z</time>
      </trkpt>
      <trkpt lat="41.351363" lon="1.896165">
        <ele>604.9</ele>
        <time>1970-01-01T00:10:51.000Z</time>
      </trkpt>
      <trkpt lat="41.351363" lon="1.896165">
        <ele>605.9</ele>
        <time>1970-01-01T00:10:52.000Z</time>
      </trkpt>
      <trkpt lat="41.351377" lon="1.896208">
        <ele>605.9</ele>
        <time>1970-01-01T00:10:53.000Z</time>
      </trkpt>
      <trkpt lat="41.351387" lon="1.896223">
        <ele>605.9</ele>
        <time>1970-01-01T00:10:54.000Z</time>
      </trkpt>
      <trkpt lat="41.351397" lon="1.896232">
        <ele>605.9</ele>
        <time>1970-01-01T00:10:55.000Z</time>
      </trkpt>
      <trkpt lat="41.351397" lon="1.896232">
        <ele>605.9</ele>
        <time>1970-01-01T00:10:56.000Z</time>
      </trkpt>
      <trkpt lat="41.351423" lon="1.896262">
        <ele>605.9</ele>
        <time>1970-01-01T00:10:57.000Z</time>
      </trkpt>
      <trkpt lat="41.351423" lon="1.896262">
        <ele>605.9</ele>
        <time>1970-01-01T00:10:58.000Z</time>
      </trkpt>
      <trkpt lat="41.351463" lon="1.896285">
        <ele>605.9</ele>
        <time>1970-01-01T00:10:59.000Z</time>
      </trkpt>
      <trkpt lat="41.351482" lon="1.89629">
        <ele>605.9</ele>
        <time>1970-01-01T00:11:00.000Z</time>
      </trkpt>
      <trkpt lat="41.351482" lon="1.89629">
        <ele>605.9</ele>
        <time>1970-01-01T00:11:01.000Z</time>
      </trkpt>
      <trkpt lat="41.351515" lon="1.896295">
        <ele>605.9</ele>
        <time>1970-01-01T00:11:02.000Z</time>
      </trkpt>
      <trkpt lat="41.351525" lon="1.896295">
        <ele>605.9</ele>
        <time>1970-01-01T00:11:03.000Z</time>
      </trkpt>
      <trkpt lat="41.351525" lon="1.896295">
        <ele>605.9</ele>
        <time>1970-01-01T00:11:04.000Z</time>
      </trkpt>
      <trkpt lat="41.351522" lon="1.896293">
        <ele>605.9</ele>
        <time>1970-01-01T00:11:05.000Z</time>
      </trkpt>
      <trkpt lat="41.35159" lon="1.896305">
        <ele>605.9</ele>
        <time>1970-01-01T00:13:40.000Z</time>
      </trkpt>
      <trkpt lat="41.351618" lon="1.896305">
        <ele>605.9</ele>
        <time>1970-01-01T00:13:41.000Z</time>
      </trkpt>
      <trkpt lat="41.351618" lon="1.896305">
        <ele>605.9</ele>
        <time>1970-01-01T00:13:42.000Z</time>
      </trkpt>
      <trkpt lat="41.351618" lon="1.896305">
        <ele>605.9</ele>
        <time>1970-01-01T00:13:43.000Z</time>
      </trkpt>
      <trkpt lat="41.351748" lon="1.896308">
        <ele>605.9</ele>
        <time>1970-01-01T00:13:44.000Z</time>
      </trkpt>
      <trkpt lat="41.351748" lon="1.896308">
        <ele>605.9</ele>
        <time>1970-01-01T00:13:45.000Z</time>
      </trkpt>
      <trkpt lat="41.351855" lon="1.896327">
        <ele>603.9</ele>
        <time>1970-01-01T00:13:46.000Z</time>
      </trkpt>
      <trkpt lat="41.351915" lon="1.89634">
        <ele>603.9</ele>
        <time>1970-01-01T00:13:47.000Z</time>
      </trkpt>
      <trkpt lat="41.351915" lon="1.89634">
        <ele>602.9</ele>
        <time>1970-01-01T00:13:48.000Z</time>
      </trkpt>
      <trkpt lat="41.352033" lon="1.896358">
        <ele>602.9</ele>
        <time>1970-01-01T00:13:49.000Z</time>
      </trkpt>
      <trkpt lat="41.352095" lon="1.896367">
        <ele>600.9</ele>
        <time>1970-01-01T00:13:50.000Z</time>
      </trkpt>
      <trkpt lat="41.352095" lon="1.896367">
        <ele>598.9</ele>
        <time>1970-01-01T00:13:51.000Z</time>
      </trkpt>
      <trkpt lat="41.352218" lon="1.896382">
        <ele>598.9</ele>
        <time>1970-01-01T00:13:52.000Z</time>
      </trkpt>
      <trkpt lat="41.352218" lon="1.896382">
        <ele>596.9</ele>
        <time>1970-01-01T00:13:53.000Z</time>
      </trkpt>
      <trkpt lat="41.352358" lon="1.896435">
        <ele>596.9</ele>
        <time>1970-01-01T00:13:54.000Z</time>
      </trkpt>
      <trkpt lat="41.352435" lon="1.896482">
        <ele>594.9</ele>
        <time>1970-01-01T00:13:55.000Z</time>
      </trkpt>
      <trkpt lat="41.35251" lon="1.896523">
        <ele>594.9</ele>
        <time>1970-01-01T00:13:56.000Z</time>
      </trkpt>
      <trkpt lat="41.35251" lon="1.896523">
        <ele>592.9</ele>
        <time>1970-01-01T00:13:57.000Z</time>
      </trkpt>
      <trkpt lat="41.35266" lon="1.896567">
        <ele>592.9</ele>
        <time>1970-01-01T00:13:58.000Z</time>
      </trkpt>
      <trkpt lat="41.352737" lon="1.896583">
        <ele>590.9</ele>
        <time>1970-01-01T00:13:59.000Z</time>
      </trkpt>
      <trkpt lat="41.352737" lon="1.896583">
        <ele>590.9</ele>
        <time>1970-01-01T00:14:00.000Z</time>
      </trkpt>
      <trkpt lat="41.35289" lon="1.896635">
        <ele>589.9</ele>
        <time>1970-01-01T00:14:01.000Z</time>
      </trkpt>
      <trkpt lat="41.35296" lon="1.896663">
        <ele>589.9</ele>
        <time>1970-01-01T00:14:02.000Z</time>
      </trkpt>
      <trkpt lat="41.35296" lon="1.896663">
        <ele>587.9</ele>
        <time>1970-01-01T00:14:03.000Z</time>
      </trkpt>
      <trkpt lat="41.35308" lon="1.896713">
        <ele>587.9</ele>
        <time>1970-01-01T00:14:04.000Z</time>
      </trkpt>
      <trkpt lat="41.353135" lon="1.896728">
        <ele>585.9</ele>
        <time>1970-01-01T00:14:05.000Z</time>
      </trkpt>
      <trkpt lat="41.353135" lon="1.896728">
        <ele>585.9</ele>
        <time>1970-01-01T00:14:06.000Z</time>
      </trkpt>
      <trkpt lat="41.353223" lon="1.896747">
        <ele>583.9</ele>
        <time>1970-01-01T00:14:07.000Z</time>
      </trkpt>
      <trkpt lat="41.35327" lon="1.896747">
        <ele>583.9</ele>
        <time>1970-01-01T00:14:08.000Z</time>
      </trkpt>
      <trkpt lat="41.35327" lon="1.896747">
        <ele>582.9</ele>
        <time>1970-01-01T00:14:09.000Z</time>
      </trkpt>
      <trkpt lat="41.35339" lon="1.896728">
        <ele>582.9</ele>
        <time>1970-01-01T00:14:10.000Z</time>
      </trkpt>
      <trkpt lat="41.353452" lon="1.896722">
        <ele>580.9</ele>
        <time>1970-01-01T00:14:11.000Z</time>
      </trkpt>
      <trkpt lat="41.353452" lon="1.896722">
        <ele>580.9</ele>
        <time>1970-01-01T00:14:12.000Z</time>
      </trkpt>
      <trkpt lat="41.35359" lon="1.896707">
        <ele>579.9</ele>
        <time>1970-01-01T00:14:13.000Z</time>
      </trkpt>
      <trkpt lat="41.35366" lon="1.896702">
        <ele>579.9</ele>
        <time>1970-01-01T00:14:14.000Z</time>
      </trkpt>
      <trkpt lat="41.35366" lon="1.896702">
        <ele>577.9</ele>
        <time>1970-01-01T00:14:15.000Z</time>
      </trkpt>
      <trkpt lat="41.353778" lon="1.896678">
        <ele>577.9</ele>
        <time>1970-01-01T00:14:16.000Z</time>
      </trkpt>
      <trkpt lat="41.353778" lon="1.896678">
        <ele>576.9</ele>
        <time>1970-01-01T00:14:17.000Z</time>
      </trkpt>
      <trkpt lat="41.353877" lon="1.896598">
        <ele>576.9</ele>
        <time>1970-01-01T00:14:18.000Z</time>
      </trkpt>
      <trkpt lat="41.353877" lon="1.896598">
        <ele>575.9</ele>
        <time>1970-01-01T00:14:19.000Z</time>
      </trkpt>
      <trkpt lat="41.353947" lon="1.896483">
        <ele>575.9</ele>
        <time>1970-01-01T00:14:20.000Z</time>
      </trkpt>
      <trkpt lat="41.353947" lon="1.896483">
        <ele>574.9</ele>
        <time>1970-01-01T00:14:21.000Z</time>
      </trkpt>
      <trkpt lat="41.354003" lon="1.896352">
        <ele>574.9</ele>
        <time>1970-01-01T00:14:22.000Z</time>
      </trkpt>
      <trkpt lat="41.354003" lon="1.896352">
        <ele>572.9</ele>
        <time>1970-01-01T00:14:23.000Z</time>
      </trkpt>
      <trkpt lat="41.354003" lon="1.896352">
        <ele>572.9</ele>
        <time>1970-01-01T00:14:24.000Z</time>
      </trkpt>
      <trkpt lat="41.354065" lon="1.896285">
        <ele>569.9</ele>
        <time>1970-01-01T00:14:25.000Z</time>
      </trkpt>
      <trkpt lat="41.354135" lon="1.896293">
        <ele>569.9</ele>
        <time>1970-01-01T00:14:26.000Z</time>
      </trkpt>
      <trkpt lat="41.354135" lon="1.896293">
        <ele>568.9</ele>
        <time>1970-01-01T00:14:27.000Z</time>
      </trkpt>
      <trkpt lat="41.354192" lon="1.89636">
        <ele>568.9</ele>
        <time>1970-01-01T00:14:28.000Z</time>
      </trkpt>
      <trkpt lat="41.354192" lon="1.89636">
        <ele>567.9</ele>
        <time>1970-01-01T00:14:29.000Z</time>
      </trkpt>
      <trkpt lat="41.354238" lon="1.896467">
        <ele>567.9</ele>
        <time>1970-01-01T00:14:30.000Z</time>
      </trkpt>
      <trkpt lat="41.354238" lon="1.896467">
        <ele>566.9</ele>
        <time>1970-01-01T00:14:31.000Z</time>
      </trkpt>
      <trkpt lat="41.354267" lon="1.896577">
        <ele>566.9</ele>
        <time>1970-01-01T00:14:32.000Z</time>
      </trkpt>
      <trkpt lat="41.354267" lon="1.896577">
        <ele>566.9</ele>
        <time>1970-01-01T00:14:33.000Z</time>
      </trkpt>
      <trkpt lat="41.354252" lon="1.896692">
        <ele>564.9</ele>
        <time>1970-01-01T00:14:34.000Z</time>
      </trkpt>
      <trkpt lat="41.354252" lon="1.896692">
        <ele>564.9</ele>
        <time>1970-01-01T00:14:35.000Z</time>
      </trkpt>
      <trkpt lat="41.354252" lon="1.896692">
        <ele>564.9</ele>
        <time>1970-01-01T00:14:36.000Z</time>
      </trkpt>
      <trkpt lat="41.35419" lon="1.896855">
        <ele>564.9</ele>
        <time>1970-01-01T00:14:37.000Z</time>
      </trkpt>
      <trkpt lat="41.35419" lon="1.896855">
        <ele>564.9</ele>
        <time>1970-01-01T00:14:38.000Z</time>
      </trkpt>
      <trkpt lat="41.35414" lon="1.896962">
        <ele>564.9</ele>
        <time>1970-01-01T00:14:39.000Z</time>
      </trkpt>
      <trkpt lat="41.35414" lon="1.896962">
        <ele>564.9</ele>
        <time>1970-01-01T00:14:40.000Z</time>
      </trkpt>
      <trkpt lat="41.354112" lon="1.897127">
        <ele>564.9</ele>
        <time>1970-01-01T00:14:41.000Z</time>
      </trkpt>
      <trkpt lat="41.354112" lon="1.897127">
        <ele>563.9</ele>
        <time>1970-01-01T00:14:42.000Z</time>
      </trkpt>
      <trkpt lat="41.35409" lon="1.89728">
        <ele>563.9</ele>
        <time>1970-01-01T00:14:43.000Z</time>
      </trkpt>
      <trkpt lat="41.354083" lon="1.897353">
        <ele>562.9</ele>
        <time>1970-01-01T00:14:44.000Z</time>
      </trkpt>
      <trkpt lat="41.354083" lon="1.897353">
        <ele>562.9</ele>
        <time>1970-01-01T00:14:45.000Z</time>
      </trkpt>
      <trkpt lat="41.35408" lon="1.897508">
        <ele>560.9</ele>
        <time>1970-01-01T00:14:46.000Z</time>
      </trkpt>
      <trkpt lat="41.35408" lon="1.897508">
        <ele>560.9</ele>
        <time>1970-01-01T00:14:47.000Z</time>
      </trkpt>
      <trkpt lat="41.35408" lon="1.897508">
        <ele>558.9</ele>
        <time>1970-01-01T00:14:48.000Z</time>
      </trkpt>
      <trkpt lat="41.354097" lon="1.897655">
        <ele>558.9</ele>
        <time>1970-01-01T00:14:49.000Z</time>
      </trkpt>
      <trkpt lat="41.354145" lon="1.897778">
        <ele>556.9</ele>
        <time>1970-01-01T00:14:50.000Z</time>
      </trkpt>
      <trkpt lat="41.354145" lon="1.897778">
        <ele>556.9</ele>
        <time>1970-01-01T00:14:51.000Z</time>
      </trkpt>
      <trkpt lat="41.354225" lon="1.897912">
        <ele>553.9</ele>
        <time>1970-01-01T00:14:52.000Z</time>
      </trkpt>
      <trkpt lat="41.354225" lon="1.897912">
        <ele>553.9</ele>
        <time>1970-01-01T00:14:53.000Z</time>
      </trkpt>
      <trkpt lat="41.35432" lon="1.89805">
        <ele>550.9</ele>
        <time>1970-01-01T00:14:54.000Z</time>
      </trkpt>
      <trkpt lat="41.35432" lon="1.89805">
        <ele>550.9</ele>
        <time>1970-01-01T00:14:55.000Z</time>
      </trkpt>
      <trkpt lat="41.354408" lon="1.898188">
        <ele>548.9</ele>
        <time>1970-01-01T00:14:56.000Z</time>
      </trkpt>
      <trkpt lat="41.35444" lon="1.89826">
        <ele>548.9</ele>
        <time>1970-01-01T00:14:57.000Z</time>
      </trkpt>
      <trkpt lat="41.35444" lon="1.89826">
        <ele>546.9</ele>
        <time>1970-01-01T00:14:58.000Z</time>
      </trkpt>
      <trkpt lat="41.354467" lon="1.898333">
        <ele>546.9</ele>
        <time>1970-01-01T00:14:59.000Z</time>
      </trkpt>
      <trkpt lat="41.35453" lon="1.898495">
        <ele>543.9</ele>
        <time>1970-01-01T00:15:00.000Z</time>
      </trkpt>
      <trkpt lat="41.35453" lon="1.898495">
        <ele>543.9</ele>
        <time>1970-01-01T00:15:01.000Z</time>
      </trkpt>
      <trkpt lat="41.354642" lon="1.898667">
        <ele>541.9</ele>
        <time>1970-01-01T00:15:02.000Z</time>
      </trkpt>
      <trkpt lat="41.354642" lon="1.898667">
        <ele>541.9</ele>
        <time>1970-01-01T00:15:03.000Z</time>
      </trkpt>
      <trkpt lat="41.354778" lon="1.89883">
        <ele>540.9</ele>
        <time>1970-01-01T00:15:04.000Z</time>
      </trkpt>
      <trkpt lat="41.354778" lon="1.89883">
        <ele>540.9</ele>
        <time>1970-01-01T00:15:05.000Z</time>
      </trkpt>
      <trkpt lat="41.35492" lon="1.898997">
        <ele>538.9</ele>
        <time>1970-01-01T00:15:06.000Z</time>
      </trkpt>
      <trkpt lat="41.354985" lon="1.899075">
        <ele>538.9</ele>
        <time>1970-01-01T00:15:07.000Z</time>
      </trkpt>
      <trkpt lat="41.355042" lon="1.899145">
        <ele>537.9</ele>
        <time>1970-01-01T00:15:08.000Z</time>
      </trkpt>
      <trkpt lat="41.35509" lon="1.89921">
        <ele>537.9</ele>
        <time>1970-01-01T00:15:09.000Z</time>
      </trkpt>
      <trkpt lat="41.35509" lon="1.89921">
        <ele>536.9</ele>
        <time>1970-01-01T00:15:10.000Z</time>
      </trkpt>
      <trkpt lat="41.355155" lon="1.899352">
        <ele>536.9</ele>
        <time>1970-01-01T00:15:11.000Z</time>
      </trkpt>
      <trkpt lat="41.355155" lon="1.899352">
        <ele>536.9</ele>
        <time>1970-01-01T00:15:12.000Z</time>
      </trkpt>
      <trkpt lat="41.355187" lon="1.899518">
        <ele>536.9</ele>
        <time>1970-01-01T00:15:13.000Z</time>
      </trkpt>
      <trkpt lat="41.355187" lon="1.899518">
        <ele>535.9</ele>
        <time>1970-01-01T00:15:14.000Z</time>
      </trkpt>
      <trkpt lat="41.355202" lon="1.899688">
        <ele>534.9</ele>
        <time>1970-01-01T00:15:15.000Z</time>
      </trkpt>
      <trkpt lat="41.35521" lon="1.89977">
        <ele>534.9</ele>
        <time>1970-01-01T00:15:16.000Z</time>
      </trkpt>
      <trkpt lat="41.35521" lon="1.89977">
        <ele>533.9</ele>
        <time>1970-01-01T00:15:17.000Z</time>
      </trkpt>
      <trkpt lat="41.355222" lon="1.899917">
        <ele>533.9</ele>
        <time>1970-01-01T00:15:18.000Z</time>
      </trkpt>
      <trkpt lat="41.355222" lon="1.899917">
        <ele>533.9</ele>
        <time>1970-01-01T00:15:19.000Z</time>
      </trkpt>
      <trkpt lat="41.355228" lon="1.900045">
        <ele>533.9</ele>
        <time>1970-01-01T00:15:20.000Z</time>
      </trkpt>
      <trkpt lat="41.355228" lon="1.900045">
        <ele>533.9</ele>
        <time>1970-01-01T00:15:21.000Z</time>
      </trkpt>
      <trkpt lat="41.355228" lon="1.900162">
        <ele>533.9</ele>
        <time>1970-01-01T00:15:22.000Z</time>
      </trkpt>
      <trkpt lat="41.355228" lon="1.900162">
        <ele>533.9</ele>
        <time>1970-01-01T00:15:23.000Z</time>
      </trkpt>
      <trkpt lat="41.355223" lon="1.900265">
        <ele>533.9</ele>
        <time>1970-01-01T00:15:24.000Z</time>
      </trkpt>
      <trkpt lat="41.355215" lon="1.900315">
        <ele>533.9</ele>
        <time>1970-01-01T00:15:25.000Z</time>
      </trkpt>
      <trkpt lat="41.355215" lon="1.900315">
        <ele>533.9</ele>
        <time>1970-01-01T00:15:26.000Z</time>
      </trkpt>
      <trkpt lat="41.355193" lon="1.900415">
        <ele>533.9</ele>
        <time>1970-01-01T00:15:27.000Z</time>
      </trkpt>
      <trkpt lat="41.355193" lon="1.900415">
        <ele>534.9</ele>
        <time>1970-01-01T00:15:28.000Z</time>
      </trkpt>
      <trkpt lat="41.355193" lon="1.900508">
        <ele>534.9</ele>
        <time>1970-01-01T00:15:29.000Z</time>
      </trkpt>
      <trkpt lat="41.355193" lon="1.900508">
        <ele>534.9</ele>
        <time>1970-01-01T00:15:30.000Z</time>
      </trkpt>
      <trkpt lat="41.355195" lon="1.900595">
        <ele>534.9</ele>
        <time>1970-01-01T00:15:31.000Z</time>
      </trkpt>
      <trkpt lat="41.355197" lon="1.900637">
        <ele>534.9</ele>
        <time>1970-01-01T00:15:32.000Z</time>
      </trkpt>
      <trkpt lat="41.355197" lon="1.900637">
        <ele>534.9</ele>
        <time>1970-01-01T00:15:33.000Z</time>
      </trkpt>
      <trkpt lat="41.355192" lon="1.900713">
        <ele>534.9</ele>
        <time>1970-01-01T00:15:34.000Z</time>
      </trkpt>
      <trkpt lat="41.355192" lon="1.900713">
        <ele>534.9</ele>
        <time>1970-01-01T00:15:35.000Z</time>
      </trkpt>
      <trkpt lat="41.355172" lon="1.900797">
        <ele>534.9</ele>
        <time>1970-01-01T00:15:36.000Z</time>
      </trkpt>
      <trkpt lat="41.355152" lon="1.900837">
        <ele>534.9</ele>
        <time>1970-01-01T00:15:37.000Z</time>
      </trkpt>
      <trkpt lat="41.355152" lon="1.900837">
        <ele>534.9</ele>
        <time>1970-01-01T00:15:38.000Z</time>
      </trkpt>
      <trkpt lat="41.35509" lon="1.900877">
        <ele>534.9</ele>
        <time>1970-01-01T00:15:39.000Z</time>
      </trkpt>
      <trkpt lat="41.35509" lon="1.900877">
        <ele>534.9</ele>
        <time>1970-01-01T00:15:40.000Z</time>
      </trkpt>
      <trkpt lat="41.355022" lon="1.900877">
        <ele>534.9</ele>
        <time>1970-01-01T00:15:41.000Z</time>
      </trkpt>
      <trkpt lat="41.355022" lon="1.900877">
        <ele>534.9</ele>
        <time>1970-01-01T00:15:42.000Z</time>
      </trkpt>
      <trkpt lat="41.35495" lon="1.900895">
        <ele>534.9</ele>
        <time>1970-01-01T00:15:43.000Z</time>
      </trkpt>
      <trkpt lat="41.354913" lon="1.90091">
        <ele>533.9</ele>
        <time>1970-01-01T00:15:44.000Z</time>
      </trkpt>
      <trkpt lat="41.354913" lon="1.90091">
        <ele>533.9</ele>
        <time>1970-01-01T00:15:45.000Z</time>
      </trkpt>
      <trkpt lat="41.354838" lon="1.900945">
        <ele>533.9</ele>
        <time>1970-01-01T00:15:46.000Z</time>
      </trkpt>
      <trkpt lat="41.354803" lon="1.900965">
        <ele>533.9</ele>
        <time>1970-01-01T00:15:47.000Z</time>
      </trkpt>
      <trkpt lat="41.354803" lon="1.900965">
        <ele>533.9</ele>
        <time>1970-01-01T00:15:48.000Z</time>
      </trkpt>
      <trkpt lat="41.35473" lon="1.901013">
        <ele>533.9</ele>
        <time>1970-01-01T00:15:49.000Z</time>
      </trkpt>
      <trkpt lat="41.354692" lon="1.90104">
        <ele>533.9</ele>
        <time>1970-01-01T00:15:50.000Z</time>
      </trkpt>
      <trkpt lat="41.354692" lon="1.90104">
        <ele>533.9</ele>
        <time>1970-01-01T00:15:51.000Z</time>
      </trkpt>
      <trkpt lat="41.354615" lon="1.9011">
        <ele>533.9</ele>
        <time>1970-01-01T00:15:52.000Z</time>
      </trkpt>
      <trkpt lat="41.354572" lon="1.901138">
        <ele>533.9</ele>
        <time>1970-01-01T00:15:53.000Z</time>
      </trkpt>
      <trkpt lat="41.354572" lon="1.901138">
        <ele>532.9</ele>
        <time>1970-01-01T00:15:54.000Z</time>
      </trkpt>
      <trkpt lat="41.354483" lon="1.901212">
        <ele>532.9</ele>
        <time>1970-01-01T00:15:55.000Z</time>
      </trkpt>
      <trkpt lat="41.35444" lon="1.901245">
        <ele>530.9</ele>
        <time>1970-01-01T00:15:56.000Z</time>
      </trkpt>
      <trkpt lat="41.35444" lon="1.901245">
        <ele>530.9</ele>
        <time>1970-01-01T00:15:57.000Z</time>
      </trkpt>
      <trkpt lat="41.354355" lon="1.901337">
        <ele>530.9</ele>
        <time>1970-01-01T00:15:58.000Z</time>
      </trkpt>
      <trkpt lat="41.35432" lon="1.901412">
        <ele>530.9</ele>
        <time>1970-01-01T00:15:59.000Z</time>
      </trkpt>
      <trkpt lat="41.35432" lon="1.901412">
        <ele>528.9</ele>
        <time>1970-01-01T00:16:00.000Z</time>
      </trkpt>
      <trkpt lat="41.354242" lon="1.901563">
        <ele>528.9</ele>
        <time>1970-01-01T00:16:01.000Z</time>
      </trkpt>
      <trkpt lat="41.354193" lon="1.901613">
        <ele>527.9</ele>
        <time>1970-01-01T00:16:02.000Z</time>
      </trkpt>
      <trkpt lat="41.354193" lon="1.901613">
        <ele>527.9</ele>
        <time>1970-01-01T00:16:03.000Z</time>
      </trkpt>
      <trkpt lat="41.354078" lon="1.901678">
        <ele>525.9</ele>
        <time>1970-01-01T00:16:04.000Z</time>
      </trkpt>
      <trkpt lat="41.354078" lon="1.901678">
        <ele>525.9</ele>
        <time>1970-01-01T00:16:05.000Z</time>
      </trkpt>
      <trkpt lat="41.35397" lon="1.90174">
        <ele>524.9</ele>
        <time>1970-01-01T00:16:06.000Z</time>
      </trkpt>
      <trkpt lat="41.35397" lon="1.90174">
        <ele>524.9</ele>
        <time>1970-01-01T00:16:07.000Z</time>
      </trkpt>
      <trkpt lat="41.353872" lon="1.901803">
        <ele>524.9</ele>
        <time>1970-01-01T00:16:08.000Z</time>
      </trkpt>
      <trkpt lat="41.353872" lon="1.901803">
        <ele>524.9</ele>
        <time>1970-01-01T00:16:09.000Z</time>
      </trkpt>
      <trkpt lat="41.353783" lon="1.901867">
        <ele>524.9</ele>
        <time>1970-01-01T00:16:10.000Z</time>
      </trkpt>
      <trkpt lat="41.353743" lon="1.901902">
        <ele>524.9</ele>
        <time>1970-01-01T00:16:11.000Z</time>
      </trkpt>
      <trkpt lat="41.353743" lon="1.901902">
        <ele>524.9</ele>
        <time>1970-01-01T00:16:12.000Z</time>
      </trkpt>
      <trkpt lat="41.353673" lon="1.901968">
        <ele>524.9</ele>
        <time>1970-01-01T00:16:13.000Z</time>
      </trkpt>
      <trkpt lat="41.353643" lon="1.901998">
        <ele>524.9</ele>
        <time>1970-01-01T00:16:14.000Z</time>
      </trkpt>
      <trkpt lat="41.353643" lon="1.901998">
        <ele>524.9</ele>
        <time>1970-01-01T00:16:15.000Z</time>
      </trkpt>
      <trkpt lat="41.353592" lon="1.902053">
        <ele>524.9</ele>
        <time>1970-01-01T00:16:16.000Z</time>
      </trkpt>
      <trkpt lat="41.35357" lon="1.902085">
        <ele>524.9</ele>
        <time>1970-01-01T00:16:17.000Z</time>
      </trkpt>
      <trkpt lat="41.35357" lon="1.902085">
        <ele>524.9</ele>
        <time>1970-01-01T00:16:18.000Z</time>
      </trkpt>
      <trkpt lat="41.353527" lon="1.90214">
        <ele>524.9</ele>
        <time>1970-01-01T00:16:19.000Z</time>
      </trkpt>
      <trkpt lat="41.353527" lon="1.90214">
        <ele>525.9</ele>
        <time>1970-01-01T00:16:20.000Z</time>
      </trkpt>
      <trkpt lat="41.353495" lon="1.902203">
        <ele>525.9</ele>
        <time>1970-01-01T00:16:21.000Z</time>
      </trkpt>
      <trkpt lat="41.353495" lon="1.902203">
        <ele>526.9</ele>
        <time>1970-01-01T00:16:22.000Z</time>
      </trkpt>
      <trkpt lat="41.35347" lon="1.90226">
        <ele>526.9</ele>
        <time>1970-01-01T00:16:23.000Z</time>
      </trkpt>
      <trkpt lat="41.35347" lon="1.90226">
        <ele>526.9</ele>
        <time>1970-01-01T00:16:24.000Z</time>
      </trkpt>
      <trkpt lat="41.353458" lon="1.902322">
        <ele>526.9</ele>
        <time>1970-01-01T00:16:25.000Z</time>
      </trkpt>
      <trkpt lat="41.35345" lon="1.902353">
        <ele>527.9</ele>
        <time>1970-01-01T00:16:26.000Z</time>
      </trkpt>
      <trkpt lat="41.35345" lon="1.902353">
        <ele>527.9</ele>
        <time>1970-01-01T00:16:27.000Z</time>
      </trkpt>
      <trkpt lat="41.353427" lon="1.902415">
        <ele>527.9</ele>
        <time>1970-01-01T00:16:28.000Z</time>
      </trkpt>
      <trkpt lat="41.353427" lon="1.902415">
        <ele>527.9</ele>
        <time>1970-01-01T00:16:29.000Z</time>
      </trkpt>
      <trkpt lat="41.353408" lon="1.902478">
        <ele>527.9</ele>
        <time>1970-01-01T00:16:30.000Z</time>
      </trkpt>
      <trkpt lat="41.353407" lon="1.902508">
        <ele>527.9</ele>
        <time>1970-01-01T00:16:31.000Z</time>
      </trkpt>
      <trkpt lat="41.353402" lon="1.902542">
        <ele>527.9</ele>
        <time>1970-01-01T00:16:32.000Z</time>
      </trkpt>
      <trkpt lat="41.353402" lon="1.902542">
        <ele>527.9</ele>
        <time>1970-01-01T00:16:33.000Z</time>
      </trkpt>
      <trkpt lat="41.353397" lon="1.90262">
        <ele>528.9</ele>
        <time>1970-01-01T00:16:34.000Z</time>
      </trkpt>
      <trkpt lat="41.353397" lon="1.90262">
        <ele>528.9</ele>
        <time>1970-01-01T00:16:35.000Z</time>
      </trkpt>
      <trkpt lat="41.353403" lon="1.902708">
        <ele>528.9</ele>
        <time>1970-01-01T00:16:36.000Z</time>
      </trkpt>
      <trkpt lat="41.353403" lon="1.902708">
        <ele>528.9</ele>
        <time>1970-01-01T00:16:37.000Z</time>
      </trkpt>
      <trkpt lat="41.353417" lon="1.902795">
        <ele>528.9</ele>
        <time>1970-01-01T00:16:38.000Z</time>
      </trkpt>
      <trkpt lat="41.353417" lon="1.902795">
        <ele>528.9</ele>
        <time>1970-01-01T00:16:39.000Z</time>
      </trkpt>
      <trkpt lat="41.353437" lon="1.902875">
        <ele>528.9</ele>
        <time>1970-01-01T00:16:40.000Z</time>
      </trkpt>
      <trkpt lat="41.35345" lon="1.902912">
        <ele>528.9</ele>
        <time>1970-01-01T00:16:41.000Z</time>
      </trkpt>
      <trkpt lat="41.35345" lon="1.902912">
        <ele>528.9</ele>
        <time>1970-01-01T00:16:42.000Z</time>
      </trkpt>
      <trkpt lat="41.353478" lon="1.902982">
        <ele>528.9</ele>
        <time>1970-01-01T00:16:43.000Z</time>
      </trkpt>
      <trkpt lat="41.353495" lon="1.903015">
        <ele>528.9</ele>
        <time>1970-01-01T00:16:44.000Z</time>
      </trkpt>
      <trkpt lat="41.353495" lon="1.903015">
        <ele>529.9</ele>
        <time>1970-01-01T00:16:45.000Z</time>
      </trkpt>
      <trkpt lat="41.353525" lon="1.903075">
        <ele>529.9</ele>
        <time>1970-01-01T00:16:46.000Z</time>
      </trkpt>
      <trkpt lat="41.353525" lon="1.903075">
        <ele>529.9</ele>
        <time>1970-01-01T00:16:47.000Z</time>
      </trkpt>
      <trkpt lat="41.35355" lon="1.90314">
        <ele>529.9</ele>
        <time>1970-01-01T00:16:48.000Z</time>
      </trkpt>
      <trkpt lat="41.35355" lon="1.90314">
        <ele>530.9</ele>
        <time>1970-01-01T00:16:49.000Z</time>
      </trkpt>
      <trkpt lat="41.353577" lon="1.903212">
        <ele>530.9</ele>
        <time>1970-01-01T00:16:50.000Z</time>
      </trkpt>
      <trkpt lat="41.353577" lon="1.903212">
        <ele>530.9</ele>
        <time>1970-01-01T00:16:51.000Z</time>
      </trkpt>
      <trkpt lat="41.353612" lon="1.903282">
        <ele>530.9</ele>
        <time>1970-01-01T00:16:52.000Z</time>
      </trkpt>
      <trkpt lat="41.353612" lon="1.903282">
        <ele>530.9</ele>
        <time>1970-01-01T00:16:53.000Z</time>
      </trkpt>
      <trkpt lat="41.353647" lon="1.903358">
        <ele>530.9</ele>
        <time>1970-01-01T00:16:54.000Z</time>
      </trkpt>
      <trkpt lat="41.353647" lon="1.903358">
        <ele>530.9</ele>
        <time>1970-01-01T00:16:55.000Z</time>
      </trkpt>
      <trkpt lat="41.353678" lon="1.903435">
        <ele>530.9</ele>
        <time>1970-01-01T00:16:56.000Z</time>
      </trkpt>
      <trkpt lat="41.353678" lon="1.903435">
        <ele>530.9</ele>
        <time>1970-01-01T00:16:57.000Z</time>
      </trkpt>
      <trkpt lat="41.353702" lon="1.903518">
        <ele>530.9</ele>
        <time>1970-01-01T00:16:58.000Z</time>
      </trkpt>
      <trkpt lat="41.353708" lon="1.903562">
        <ele>530.9</ele>
        <time>1970-01-01T00:16:59.000Z</time>
      </trkpt>
      <trkpt lat="41.353708" lon="1.903562">
        <ele>530.9</ele>
        <time>1970-01-01T00:17:00.000Z</time>
      </trkpt>
      <trkpt lat="41.353708" lon="1.903647">
        <ele>530.9</ele>
        <time>1970-01-01T00:17:01.000Z</time>
      </trkpt>
      <trkpt lat="41.353703" lon="1.903688">
        <ele>530.9</ele>
        <time>1970-01-01T00:17:02.000Z</time>
      </trkpt>
      <trkpt lat="41.353703" lon="1.903688">
        <ele>530.9</ele>
        <time>1970-01-01T00:17:03.000Z</time>
      </trkpt>
      <trkpt lat="41.353682" lon="1.903772">
        <ele>530.9</ele>
        <time>1970-01-01T00:17:04.000Z</time>
      </trkpt>
      <trkpt lat="41.353682" lon="1.903772">
        <ele>530.9</ele>
        <time>1970-01-01T00:17:05.000Z</time>
      </trkpt>
      <trkpt lat="41.353657" lon="1.903853">
        <ele>530.9</ele>
        <time>1970-01-01T00:17:06.000Z</time>
      </trkpt>
      <trkpt lat="41.353643" lon="1.903895">
        <ele>530.9</ele>
        <time>1970-01-01T00:17:07.000Z</time>
      </trkpt>
      <trkpt lat="41.353643" lon="1.903895">
        <ele>530.9</ele>
        <time>1970-01-01T00:17:08.000Z</time>
      </trkpt>
      <trkpt lat="41.353617" lon="1.903975">
        <ele>530.9</ele>
        <time>1970-01-01T00:17:09.000Z</time>
      </trkpt>
      <trkpt lat="41.353617" lon="1.903975">
        <ele>530.9</ele>
        <time>1970-01-01T00:17:10.000Z</time>
      </trkpt>
      <trkpt lat="41.353592" lon="1.904047">
        <ele>530.9</ele>
        <time>1970-01-01T00:17:11.000Z</time>
      </trkpt>
      <trkpt lat="41.353577" lon="1.904083">
        <ele>530.9</ele>
        <time>1970-01-01T00:17:12.000Z</time>
      </trkpt>
      <trkpt lat="41.353577" lon="1.904083">
        <ele>530.9</ele>
        <time>1970-01-01T00:17:13.000Z</time>
      </trkpt>
      <trkpt lat="41.353545" lon="1.904158">
        <ele>530.9</ele>
        <time>1970-01-01T00:17:14.000Z</time>
      </trkpt>
      <trkpt lat="41.353545" lon="1.904158">
        <ele>530.9</ele>
        <time>1970-01-01T00:17:15.000Z</time>
      </trkpt>
      <trkpt lat="41.353508" lon="1.90423">
        <ele>530.9</ele>
        <time>1970-01-01T00:17:16.000Z</time>
      </trkpt>
      <trkpt lat="41.353508" lon="1.90423">
        <ele>530.9</ele>
        <time>1970-01-01T00:17:17.000Z</time>
      </trkpt>
      <trkpt lat="41.353465" lon="1.904305">
        <ele>530.9</ele>
        <time>1970-01-01T00:17:18.000Z</time>
      </trkpt>
      <trkpt lat="41.35344" lon="1.904343">
        <ele>530.9</ele>
        <time>1970-01-01T00:17:19.000Z</time>
      </trkpt>
      <trkpt lat="41.353413" lon="1.90438">
        <ele>530.9</ele>
        <time>1970-01-01T00:17:20.000Z</time>
      </trkpt>
      <trkpt lat="41.353413" lon="1.90438">
        <ele>530.9</ele>
        <time>1970-01-01T00:17:21.000Z</time>
      </trkpt>
      <trkpt lat="41.35336" lon="1.904458">
        <ele>530.9</ele>
        <time>1970-01-01T00:17:22.000Z</time>
      </trkpt>
      <trkpt lat="41.35336" lon="1.904458">
        <ele>530.9</ele>
        <time>1970-01-01T00:17:23.000Z</time>
      </trkpt>
      <trkpt lat="41.353307" lon="1.904543">
        <ele>530.9</ele>
        <time>1970-01-01T00:17:24.000Z</time>
      </trkpt>
      <trkpt lat="41.353307" lon="1.904543">
        <ele>530.9</ele>
        <time>1970-01-01T00:17:25.000Z</time>
      </trkpt>
      <trkpt lat="41.353265" lon="1.904637">
        <ele>530.9</ele>
        <time>1970-01-01T00:17:26.000Z</time>
      </trkpt>
      <trkpt lat="41.35325" lon="1.904687">
        <ele>530.9</ele>
        <time>1970-01-01T00:17:27.000Z</time>
      </trkpt>
      <trkpt lat="41.35325" lon="1.904687">
        <ele>530.9</ele>
        <time>1970-01-01T00:17:28.000Z</time>
      </trkpt>
      <trkpt lat="41.353223" lon="1.904782">
        <ele>530.9</ele>
        <time>1970-01-01T00:17:29.000Z</time>
      </trkpt>
      <trkpt lat="41.353213" lon="1.904832">
        <ele>530.9</ele>
        <time>1970-01-01T00:17:30.000Z</time>
      </trkpt>
      <trkpt lat="41.353205" lon="1.904882">
        <ele>530.9</ele>
        <time>1970-01-01T00:17:31.000Z</time>
      </trkpt>
      <trkpt lat="41.353205" lon="1.904882">
        <ele>530.9</ele>
        <time>1970-01-01T00:17:32.000Z</time>
      </trkpt>
      <trkpt lat="41.353195" lon="1.904982">
        <ele>530.9</ele>
        <time>1970-01-01T00:17:33.000Z</time>
      </trkpt>
      <trkpt lat="41.353195" lon="1.904982">
        <ele>530.9</ele>
        <time>1970-01-01T00:17:34.000Z</time>
      </trkpt>
      <trkpt lat="41.353187" lon="1.905082">
        <ele>530.9</ele>
        <time>1970-01-01T00:17:35.000Z</time>
      </trkpt>
      <trkpt lat="41.353187" lon="1.905082">
        <ele>530.9</ele>
        <time>1970-01-01T00:17:36.000Z</time>
      </trkpt>
      <trkpt lat="41.353178" lon="1.905178">
        <ele>530.9</ele>
        <time>1970-01-01T00:17:37.000Z</time>
      </trkpt>
      <trkpt lat="41.353175" lon="1.90523">
        <ele>530.9</ele>
        <time>1970-01-01T00:17:38.000Z</time>
      </trkpt>
      <trkpt lat="41.353175" lon="1.90523">
        <ele>530.9</ele>
        <time>1970-01-01T00:17:39.000Z</time>
      </trkpt>
      <trkpt lat="41.35317" lon="1.905325">
        <ele>530.9</ele>
        <time>1970-01-01T00:17:40.000Z</time>
      </trkpt>
      <trkpt lat="41.353173" lon="1.90537">
        <ele>530.9</ele>
        <time>1970-01-01T00:17:41.000Z</time>
      </trkpt>
      <trkpt lat="41.353173" lon="1.90537">
        <ele>530.9</ele>
        <time>1970-01-01T00:17:42.000Z</time>
      </trkpt>
      <trkpt lat="41.353183" lon="1.90546">
        <ele>530.9</ele>
        <time>1970-01-01T00:17:43.000Z</time>
      </trkpt>
      <trkpt lat="41.353185" lon="1.905507">
        <ele>530.9</ele>
        <time>1970-01-01T00:17:44.000Z</time>
      </trkpt>
      <trkpt lat="41.353185" lon="1.905507">
        <ele>530.9</ele>
        <time>1970-01-01T00:17:45.000Z</time>
      </trkpt>
      <trkpt lat="41.353188" lon="1.905607">
        <ele>530.9</ele>
        <time>1970-01-01T00:17:46.000Z</time>
      </trkpt>
      <trkpt lat="41.35319" lon="1.90566">
        <ele>530.9</ele>
        <time>1970-01-01T00:17:47.000Z</time>
      </trkpt>
      <trkpt lat="41.35319" lon="1.90566">
        <ele>530.9</ele>
        <time>1970-01-01T00:17:48.000Z</time>
      </trkpt>
      <trkpt lat="41.353192" lon="1.905777">
        <ele>530.9</ele>
        <time>1970-01-01T00:17:49.000Z</time>
      </trkpt>
      <trkpt lat="41.353192" lon="1.905777">
        <ele>530.9</ele>
        <time>1970-01-01T00:17:50.000Z</time>
      </trkpt>
      <trkpt lat="41.353185" lon="1.905898">
        <ele>530.9</ele>
        <time>1970-01-01T00:17:51.000Z</time>
      </trkpt>
      <trkpt lat="41.353173" lon="1.90596">
        <ele>530.9</ele>
        <time>1970-01-01T00:17:52.000Z</time>
      </trkpt>
      <trkpt lat="41.353173" lon="1.90596">
        <ele>530.9</ele>
        <time>1970-01-01T00:17:53.000Z</time>
      </trkpt>
      <trkpt lat="41.353143" lon="1.906082">
        <ele>530.9</ele>
        <time>1970-01-01T00:17:54.000Z</time>
      </trkpt>
      <trkpt lat="41.353125" lon="1.906138">
        <ele>530.9</ele>
        <time>1970-01-01T00:17:55.000Z</time>
      </trkpt>
      <trkpt lat="41.353125" lon="1.906138">
        <ele>530.9</ele>
        <time>1970-01-01T00:17:56.000Z</time>
      </trkpt>
      <trkpt lat="41.353078" lon="1.906245">
        <ele>530.9</ele>
        <time>1970-01-01T00:17:57.000Z</time>
      </trkpt>
      <trkpt lat="41.353078" lon="1.906245">
        <ele>530.9</ele>
        <time>1970-01-01T00:17:58.000Z</time>
      </trkpt>
      <trkpt lat="41.353027" lon="1.906348">
        <ele>529.9</ele>
        <time>1970-01-01T00:17:59.000Z</time>
      </trkpt>
      <trkpt lat="41.352995" lon="1.9064">
        <ele>529.9</ele>
        <time>1970-01-01T00:18:00.000Z</time>
      </trkpt>
      <trkpt lat="41.352995" lon="1.9064">
        <ele>529.9</ele>
        <time>1970-01-01T00:18:01.000Z</time>
      </trkpt>
      <trkpt lat="41.352932" lon="1.906502">
        <ele>529.9</ele>
        <time>1970-01-01T00:18:02.000Z</time>
      </trkpt>
      <trkpt lat="41.352932" lon="1.906502">
        <ele>529.9</ele>
        <time>1970-01-01T00:18:03.000Z</time>
      </trkpt>
      <trkpt lat="41.352865" lon="1.9066">
        <ele>529.9</ele>
        <time>1970-01-01T00:18:04.000Z</time>
      </trkpt>
      <trkpt lat="41.352865" lon="1.9066">
        <ele>529.9</ele>
        <time>1970-01-01T00:18:05.000Z</time>
      </trkpt>
      <trkpt lat="41.352798" lon="1.906692">
        <ele>529.9</ele>
        <time>1970-01-01T00:18:06.000Z</time>
      </trkpt>
      <trkpt lat="41.352765" lon="1.906735">
        <ele>529.9</ele>
        <time>1970-01-01T00:18:07.000Z</time>
      </trkpt>
      <trkpt lat="41.352765" lon="1.906735">
        <ele>529.9</ele>
        <time>1970-01-01T00:18:08.000Z</time>
      </trkpt>
      <trkpt lat="41.3527" lon="1.906815">
        <ele>529.9</ele>
        <time>1970-01-01T00:18:09.000Z</time>
      </trkpt>
      <trkpt lat="41.3527" lon="1.906815">
        <ele>529.9</ele>
        <time>1970-01-01T00:18:10.000Z</time>
      </trkpt>
      <trkpt lat="41.352637" lon="1.906892">
        <ele>529.9</ele>
        <time>1970-01-01T00:18:11.000Z</time>
      </trkpt>
      <trkpt lat="41.352637" lon="1.906892">
        <ele>529.9</ele>
        <time>1970-01-01T00:18:12.000Z</time>
      </trkpt>
      <trkpt lat="41.352572" lon="1.906965">
        <ele>529.9</ele>
        <time>1970-01-01T00:18:13.000Z</time>
      </trkpt>
      <trkpt lat="41.352538" lon="1.907002">
        <ele>529.9</ele>
        <time>1970-01-01T00:18:14.000Z</time>
      </trkpt>
      <trkpt lat="41.352538" lon="1.907002">
        <ele>529.9</ele>
        <time>1970-01-01T00:18:15.000Z</time>
      </trkpt>
      <trkpt lat="41.35247" lon="1.907065">
        <ele>529.9</ele>
        <time>1970-01-01T00:18:16.000Z</time>
      </trkpt>
      <trkpt lat="41.352435" lon="1.907097">
        <ele>529.9</ele>
        <time>1970-01-01T00:18:17.000Z</time>
      </trkpt>
      <trkpt lat="41.352435" lon="1.907097">
        <ele>529.9</ele>
        <time>1970-01-01T00:18:18.000Z</time>
      </trkpt>
      <trkpt lat="41.35237" lon="1.907158">
        <ele>530.9</ele>
        <time>1970-01-01T00:18:19.000Z</time>
      </trkpt>
      <trkpt lat="41.35237" lon="1.907158">
        <ele>530.9</ele>
        <time>1970-01-01T00:18:20.000Z</time>
      </trkpt>
      <trkpt lat="41.352303" lon="1.907213">
        <ele>530.9</ele>
        <time>1970-01-01T00:18:21.000Z</time>
      </trkpt>
      <trkpt lat="41.352303" lon="1.907213">
        <ele>530.9</ele>
        <time>1970-01-01T00:18:22.000Z</time>
      </trkpt>
      <trkpt lat="41.35224" lon="1.907267">
        <ele>531.9</ele>
        <time>1970-01-01T00:18:23.000Z</time>
      </trkpt>
      <trkpt lat="41.352207" lon="1.907295">
        <ele>531.9</ele>
        <time>1970-01-01T00:18:24.000Z</time>
      </trkpt>
      <trkpt lat="41.352207" lon="1.907295">
        <ele>531.9</ele>
        <time>1970-01-01T00:18:25.000Z</time>
      </trkpt>
      <trkpt lat="41.35214" lon="1.90735">
        <ele>531.9</ele>
        <time>1970-01-01T00:18:26.000Z</time>
      </trkpt>
      <trkpt lat="41.35214" lon="1.90735">
        <ele>531.9</ele>
        <time>1970-01-01T00:18:27.000Z</time>
      </trkpt>
      <trkpt lat="41.352073" lon="1.907405">
        <ele>531.9</ele>
        <time>1970-01-01T00:18:28.000Z</time>
      </trkpt>
      <trkpt lat="41.35204" lon="1.907435">
        <ele>531.9</ele>
        <time>1970-01-01T00:18:29.000Z</time>
      </trkpt>
      <trkpt lat="41.35204" lon="1.907435">
        <ele>531.9</ele>
        <time>1970-01-01T00:18:30.000Z</time>
      </trkpt>
      <trkpt lat="41.351973" lon="1.9075">
        <ele>531.9</ele>
        <time>1970-01-01T00:18:31.000Z</time>
      </trkpt>
      <trkpt lat="41.351938" lon="1.907533">
        <ele>531.9</ele>
        <time>1970-01-01T00:18:32.000Z</time>
      </trkpt>
      <trkpt lat="41.351903" lon="1.907568">
        <ele>531.9</ele>
        <time>1970-01-01T00:18:33.000Z</time>
      </trkpt>
      <trkpt lat="41.351903" lon="1.907568">
        <ele>531.9</ele>
        <time>1970-01-01T00:18:34.000Z</time>
      </trkpt>
      <trkpt lat="41.351832" lon="1.907642">
        <ele>531.9</ele>
        <time>1970-01-01T00:18:35.000Z</time>
      </trkpt>
      <trkpt lat="41.351793" lon="1.907673">
        <ele>531.9</ele>
        <time>1970-01-01T00:18:36.000Z</time>
      </trkpt>
      <trkpt lat="41.351793" lon="1.907673">
        <ele>531.9</ele>
        <time>1970-01-01T00:18:37.000Z</time>
      </trkpt>
      <trkpt lat="41.351715" lon="1.907747">
        <ele>531.9</ele>
        <time>1970-01-01T00:18:38.000Z</time>
      </trkpt>
      <trkpt lat="41.351672" lon="1.907785">
        <ele>531.9</ele>
        <time>1970-01-01T00:18:39.000Z</time>
      </trkpt>
      <trkpt lat="41.351672" lon="1.907785">
        <ele>531.9</ele>
        <time>1970-01-01T00:18:40.000Z</time>
      </trkpt>
      <trkpt lat="41.351583" lon="1.907868">
        <ele>531.9</ele>
        <time>1970-01-01T00:18:41.000Z</time>
      </trkpt>
      <trkpt lat="41.351583" lon="1.907868">
        <ele>531.9</ele>
        <time>1970-01-01T00:18:42.000Z</time>
      </trkpt>
      <trkpt lat="41.3515" lon="1.907955">
        <ele>530.9</ele>
        <time>1970-01-01T00:18:43.000Z</time>
      </trkpt>
      <trkpt lat="41.35147" lon="1.907992">
        <ele>530.9</ele>
        <time>1970-01-01T00:18:44.000Z</time>
      </trkpt>
      <trkpt lat="41.35147" lon="1.907992">
        <ele>530.9</ele>
        <time>1970-01-01T00:18:45.000Z</time>
      </trkpt>
      <trkpt lat="41.351447" lon="1.908068">
        <ele>529.9</ele>
        <time>1970-01-01T00:18:46.000Z</time>
      </trkpt>
      <trkpt lat="41.351447" lon="1.908113">
        <ele>529.9</ele>
        <time>1970-01-01T00:18:47.000Z</time>
      </trkpt>
      <trkpt lat="41.351447" lon="1.908113">
        <ele>528.9</ele>
        <time>1970-01-01T00:18:48.000Z</time>
      </trkpt>
      <trkpt lat="41.351485" lon="1.908192">
        <ele>528.9</ele>
        <time>1970-01-01T00:18:49.000Z</time>
      </trkpt>
      <trkpt lat="41.351485" lon="1.908192">
        <ele>527.9</ele>
        <time>1970-01-01T00:18:50.000Z</time>
      </trkpt>
      <trkpt lat="41.351563" lon="1.908237">
        <ele>527.9</ele>
        <time>1970-01-01T00:18:51.000Z</time>
      </trkpt>
      <trkpt lat="41.351563" lon="1.908237">
        <ele>527.9</ele>
        <time>1970-01-01T00:18:52.000Z</time>
      </trkpt>
      <trkpt lat="41.351648" lon="1.908262">
        <ele>527.9</ele>
        <time>1970-01-01T00:18:53.000Z</time>
      </trkpt>
      <trkpt lat="41.351648" lon="1.908262">
        <ele>526.9</ele>
        <time>1970-01-01T00:18:54.000Z</time>
      </trkpt>
      <trkpt lat="41.351732" lon="1.908293">
        <ele>526.9</ele>
        <time>1970-01-01T00:18:55.000Z</time>
      </trkpt>
      <trkpt lat="41.351773" lon="1.908312">
        <ele>526.9</ele>
        <time>1970-01-01T00:18:56.000Z</time>
      </trkpt>
      <trkpt lat="41.351773" lon="1.908312">
        <ele>526.9</ele>
        <time>1970-01-01T00:18:57.000Z</time>
      </trkpt>
      <trkpt lat="41.351857" lon="1.908342">
        <ele>526.9</ele>
        <time>1970-01-01T00:18:58.000Z</time>
      </trkpt>
      <trkpt lat="41.351898" lon="1.908352">
        <ele>526.9</ele>
        <time>1970-01-01T00:18:59.000Z</time>
      </trkpt>
      <trkpt lat="41.351898" lon="1.908352">
        <ele>526.9</ele>
        <time>1970-01-01T00:19:00.000Z</time>
      </trkpt>
      <trkpt lat="41.351977" lon="1.908373">
        <ele>526.9</ele>
        <time>1970-01-01T00:19:01.000Z</time>
      </trkpt>
      <trkpt lat="41.352013" lon="1.908385">
        <ele>526.9</ele>
        <time>1970-01-01T00:19:02.000Z</time>
      </trkpt>
      <trkpt lat="41.352013" lon="1.908385">
        <ele>526.9</ele>
        <time>1970-01-01T00:19:03.000Z</time>
      </trkpt>
      <trkpt lat="41.352082" lon="1.90841">
        <ele>526.9</ele>
        <time>1970-01-01T00:19:04.000Z</time>
      </trkpt>
      <trkpt lat="41.352082" lon="1.90841">
        <ele>526.9</ele>
        <time>1970-01-01T00:19:05.000Z</time>
      </trkpt>
      <trkpt lat="41.352143" lon="1.908445">
        <ele>526.9</ele>
        <time>1970-01-01T00:19:06.000Z</time>
      </trkpt>
      <trkpt lat="41.352177" lon="1.908467">
        <ele>526.9</ele>
        <time>1970-01-01T00:19:07.000Z</time>
      </trkpt>
      <trkpt lat="41.352177" lon="1.908467">
        <ele>527.9</ele>
        <time>1970-01-01T00:19:08.000Z</time>
      </trkpt>
      <trkpt lat="41.352245" lon="1.908507">
        <ele>527.9</ele>
        <time>1970-01-01T00:19:09.000Z</time>
      </trkpt>
      <trkpt lat="41.352245" lon="1.908507">
        <ele>527.9</ele>
        <time>1970-01-01T00:19:10.000Z</time>
      </trkpt>
      <trkpt lat="41.352312" lon="1.908545">
        <ele>527.9</ele>
        <time>1970-01-01T00:19:11.000Z</time>
      </trkpt>
      <trkpt lat="41.352342" lon="1.908567">
        <ele>527.9</ele>
        <time>1970-01-01T00:19:12.000Z</time>
      </trkpt>
      <trkpt lat="41.352342" lon="1.908567">
        <ele>527.9</ele>
        <time>1970-01-01T00:19:13.000Z</time>
      </trkpt>
      <trkpt lat="41.352405" lon="1.908613">
        <ele>526.9</ele>
        <time>1970-01-01T00:19:14.000Z</time>
      </trkpt>
      <trkpt lat="41.352405" lon="1.908613">
        <ele>526.9</ele>
        <time>1970-01-01T00:19:15.000Z</time>
      </trkpt>
      <trkpt lat="41.352458" lon="1.908697">
        <ele>526.9</ele>
        <time>1970-01-01T00:19:16.000Z</time>
      </trkpt>
      <trkpt lat="41.352482" lon="1.90875">
        <ele>526.9</ele>
        <time>1970-01-01T00:19:17.000Z</time>
      </trkpt>
      <trkpt lat="41.352482" lon="1.90875">
        <ele>526.9</ele>
        <time>1970-01-01T00:19:18.000Z</time>
      </trkpt>
      <trkpt lat="41.35253" lon="1.908868">
        <ele>526.9</ele>
        <time>1970-01-01T00:19:19.000Z</time>
      </trkpt>
      <trkpt lat="41.35253" lon="1.908868">
        <ele>525.9</ele>
        <time>1970-01-01T00:19:20.000Z</time>
      </trkpt>
      <trkpt lat="41.352547" lon="1.908988">
        <ele>525.9</ele>
        <time>1970-01-01T00:19:21.000Z</time>
      </trkpt>
      <trkpt lat="41.352547" lon="1.908988">
        <ele>524.9</ele>
        <time>1970-01-01T00:19:22.000Z</time>
      </trkpt>
      <trkpt lat="41.352507" lon="1.909098">
        <ele>523.9</ele>
        <time>1970-01-01T00:19:23.000Z</time>
      </trkpt>
      <trkpt lat="41.352507" lon="1.909098">
        <ele>523.9</ele>
        <time>1970-01-01T00:19:24.000Z</time>
      </trkpt>
      <trkpt lat="41.352432" lon="1.909185">
        <ele>523.9</ele>
        <time>1970-01-01T00:19:25.000Z</time>
      </trkpt>
      <trkpt lat="41.352388" lon="1.909217">
        <ele>523.9</ele>
        <time>1970-01-01T00:19:26.000Z</time>
      </trkpt>
      <trkpt lat="41.35234" lon="1.909238">
        <ele>523.9</ele>
        <time>1970-01-01T00:19:27.000Z</time>
      </trkpt>
      <trkpt lat="41.35234" lon="1.909238">
        <ele>523.9</ele>
        <time>1970-01-01T00:19:28.000Z</time>
      </trkpt>
      <trkpt lat="41.352252" lon="1.909237">
        <ele>522.9</ele>
        <time>1970-01-01T00:19:29.000Z</time>
      </trkpt>
      <trkpt lat="41.352205" lon="1.909232">
        <ele>522.9</ele>
        <time>1970-01-01T00:19:30.000Z</time>
      </trkpt>
      <trkpt lat="41.352205" lon="1.909232">
        <ele>522.9</ele>
        <time>1970-01-01T00:19:31.000Z</time>
      </trkpt>
      <trkpt lat="41.352135" lon="1.909278">
        <ele>522.9</ele>
        <time>1970-01-01T00:19:32.000Z</time>
      </trkpt>
      <trkpt lat="41.352135" lon="1.909278">
        <ele>522.9</ele>
        <time>1970-01-01T00:19:33.000Z</time>
      </trkpt>
      <trkpt lat="41.352135" lon="1.909385">
        <ele>522.9</ele>
        <time>1970-01-01T00:19:34.000Z</time>
      </trkpt>
      <trkpt lat="41.352135" lon="1.909385">
        <ele>520.9</ele>
        <time>1970-01-01T00:19:35.000Z</time>
      </trkpt>
      <trkpt lat="41.352183" lon="1.90947">
        <ele>520.9</ele>
        <time>1970-01-01T00:19:36.000Z</time>
      </trkpt>
      <trkpt lat="41.352205" lon="1.909508">
        <ele>520.9</ele>
        <time>1970-01-01T00:19:37.000Z</time>
      </trkpt>
      <trkpt lat="41.352222" lon="1.90955">
        <ele>520.9</ele>
        <time>1970-01-01T00:19:38.000Z</time>
      </trkpt>
      <trkpt lat="41.352222" lon="1.90955">
        <ele>520.9</ele>
        <time>1970-01-01T00:19:39.000Z</time>
      </trkpt>
      <trkpt lat="41.352252" lon="1.909645">
        <ele>520.9</ele>
        <time>1970-01-01T00:19:40.000Z</time>
      </trkpt>
      <trkpt lat="41.352252" lon="1.909645">
        <ele>520.9</ele>
        <time>1970-01-01T00:19:41.000Z</time>
      </trkpt>
      <trkpt lat="41.35228" lon="1.90974">
        <ele>520.9</ele>
        <time>1970-01-01T00:19:42.000Z</time>
      </trkpt>
      <trkpt lat="41.35228" lon="1.90974">
        <ele>520.9</ele>
        <time>1970-01-01T00:19:43.000Z</time>
      </trkpt>
      <trkpt lat="41.352322" lon="1.90983">
        <ele>520.9</ele>
        <time>1970-01-01T00:19:44.000Z</time>
      </trkpt>
      <trkpt lat="41.352322" lon="1.90983">
        <ele>520.9</ele>
        <time>1970-01-01T00:19:45.000Z</time>
      </trkpt>
      <trkpt lat="41.352382" lon="1.9099">
        <ele>520.9</ele>
        <time>1970-01-01T00:19:46.000Z</time>
      </trkpt>
      <trkpt lat="41.352417" lon="1.90992">
        <ele>520.9</ele>
        <time>1970-01-01T00:19:47.000Z</time>
      </trkpt>
      <trkpt lat="41.352417" lon="1.90992">
        <ele>520.9</ele>
        <time>1970-01-01T00:19:48.000Z</time>
      </trkpt>
      <trkpt lat="41.352488" lon="1.909937">
        <ele>520.9</ele>
        <time>1970-01-01T00:19:49.000Z</time>
      </trkpt>
      <trkpt lat="41.352523" lon="1.909935">
        <ele>520.9</ele>
        <time>1970-01-01T00:19:50.000Z</time>
      </trkpt>
      <trkpt lat="41.352558" lon="1.909933">
        <ele>520.9</ele>
        <time>1970-01-01T00:19:51.000Z</time>
      </trkpt>
      <trkpt lat="41.352558" lon="1.909933">
        <ele>520.9</ele>
        <time>1970-01-01T00:19:52.000Z</time>
      </trkpt>
      <trkpt lat="41.352637" lon="1.909945">
        <ele>521.9</ele>
        <time>1970-01-01T00:19:53.000Z</time>
      </trkpt>
      <trkpt lat="41.352637" lon="1.909945">
        <ele>521.9</ele>
        <time>1970-01-01T00:19:54.000Z</time>
      </trkpt>
      <trkpt lat="41.352712" lon="1.90999">
        <ele>521.9</ele>
        <time>1970-01-01T00:19:55.000Z</time>
      </trkpt>
      <trkpt lat="41.352747" lon="1.910017">
        <ele>521.9</ele>
        <time>1970-01-01T00:19:56.000Z</time>
      </trkpt>
      <trkpt lat="41.352747" lon="1.910017">
        <ele>490.9</ele>
        <time>1970-01-01T00:19:57.000Z</time>
      </trkpt>
      <trkpt lat="41.352807" lon="1.910083">
        <ele>490.9</ele>
        <time>1970-01-01T00:19:58.000Z</time>
      </trkpt>
      <trkpt lat="41.352807" lon="1.910083">
        <ele>514.9</ele>
        <time>1970-01-01T00:19:59.000Z</time>
      </trkpt>
      <trkpt lat="41.352862" lon="1.910152">
        <ele>514.9</ele>
        <time>1970-01-01T00:20:00.000Z</time>
      </trkpt>
      <trkpt lat="41.352862" lon="1.910152">
        <ele>518.9</ele>
        <time>1970-01-01T00:20:01.000Z</time>
      </trkpt>
      <trkpt lat="41.352897" lon="1.910237">
        <ele>518.9</ele>
        <time>1970-01-01T00:20:02.000Z</time>
      </trkpt>
      <trkpt lat="41.352897" lon="1.910237">
        <ele>519.9</ele>
        <time>1970-01-01T00:20:03.000Z</time>
      </trkpt>
      <trkpt lat="41.352913" lon="1.91032">
        <ele>519.9</ele>
        <time>1970-01-01T00:20:04.000Z</time>
      </trkpt>
      <trkpt lat="41.352913" lon="1.91032">
        <ele>520.9</ele>
        <time>1970-01-01T00:20:05.000Z</time>
      </trkpt>
      <trkpt lat="41.352918" lon="1.910405">
        <ele>520.9</ele>
        <time>1970-01-01T00:20:06.000Z</time>
      </trkpt>
      <trkpt lat="41.352932" lon="1.91045">
        <ele>520.9</ele>
        <time>1970-01-01T00:20:07.000Z</time>
      </trkpt>
      <trkpt lat="41.352932" lon="1.91045">
        <ele>520.9</ele>
        <time>1970-01-01T00:20:08.000Z</time>
      </trkpt>
      <trkpt lat="41.352983" lon="1.910522">
        <ele>520.9</ele>
        <time>1970-01-01T00:20:09.000Z</time>
      </trkpt>
      <trkpt lat="41.352983" lon="1.910522">
        <ele>521.9</ele>
        <time>1970-01-01T00:20:10.000Z</time>
      </trkpt>
      <trkpt lat="41.353038" lon="1.910563">
        <ele>521.9</ele>
        <time>1970-01-01T00:20:11.000Z</time>
      </trkpt>
      <trkpt lat="41.353038" lon="1.910563">
        <ele>521.9</ele>
        <time>1970-01-01T00:20:12.000Z</time>
      </trkpt>
      <trkpt lat="41.353088" lon="1.910605">
        <ele>521.9</ele>
        <time>1970-01-01T00:20:13.000Z</time>
      </trkpt>
      <trkpt lat="41.353088" lon="1.910605">
        <ele>521.9</ele>
        <time>1970-01-01T00:20:14.000Z</time>
      </trkpt>
      <trkpt lat="41.353142" lon="1.91063">
        <ele>521.9</ele>
        <time>1970-01-01T00:20:15.000Z</time>
      </trkpt>
      <trkpt lat="41.353142" lon="1.91063">
        <ele>522.9</ele>
        <time>1970-01-01T00:20:16.000Z</time>
      </trkpt>
      <trkpt lat="41.353202" lon="1.910635">
        <ele>522.9</ele>
        <time>1970-01-01T00:20:17.000Z</time>
      </trkpt>
      <trkpt lat="41.353202" lon="1.910635">
        <ele>523.9</ele>
        <time>1970-01-01T00:20:18.000Z</time>
      </trkpt>
      <trkpt lat="41.353262" lon="1.910633">
        <ele>523.9</ele>
        <time>1970-01-01T00:20:19.000Z</time>
      </trkpt>
      <trkpt lat="41.353293" lon="1.910633">
        <ele>523.9</ele>
        <time>1970-01-01T00:20:20.000Z</time>
      </trkpt>
      <trkpt lat="41.353293" lon="1.910633">
        <ele>523.9</ele>
        <time>1970-01-01T00:20:21.000Z</time>
      </trkpt>
      <trkpt lat="41.35335" lon="1.91062">
        <ele>523.9</ele>
        <time>1970-01-01T00:20:22.000Z</time>
      </trkpt>
      <trkpt lat="41.35335" lon="1.91062">
        <ele>523.9</ele>
        <time>1970-01-01T00:20:23.000Z</time>
      </trkpt>
      <trkpt lat="41.3534" lon="1.91059">
        <ele>524.9</ele>
        <time>1970-01-01T00:20:24.000Z</time>
      </trkpt>
      <trkpt lat="41.3534" lon="1.91059">
        <ele>524.9</ele>
        <time>1970-01-01T00:20:25.000Z</time>
      </trkpt>
      <trkpt lat="41.353452" lon="1.910578">
        <ele>524.9</ele>
        <time>1970-01-01T00:20:26.000Z</time>
      </trkpt>
      <trkpt lat="41.353452" lon="1.910578">
        <ele>524.9</ele>
        <time>1970-01-01T00:20:27.000Z</time>
      </trkpt>
      <trkpt lat="41.353503" lon="1.910593">
        <ele>525.9</ele>
        <time>1970-01-01T00:20:28.000Z</time>
      </trkpt>
      <trkpt lat="41.353503" lon="1.910593">
        <ele>525.9</ele>
        <time>1970-01-01T00:20:29.000Z</time>
      </trkpt>
      <trkpt lat="41.353552" lon="1.910625">
        <ele>525.9</ele>
        <time>1970-01-01T00:20:30.000Z</time>
      </trkpt>
      <trkpt lat="41.353575" lon="1.910645">
        <ele>525.9</ele>
        <time>1970-01-01T00:20:31.000Z</time>
      </trkpt>
      <trkpt lat="41.353595" lon="1.910665">
        <ele>525.9</ele>
        <time>1970-01-01T00:20:32.000Z</time>
      </trkpt>
      <trkpt lat="41.353595" lon="1.910665">
        <ele>525.9</ele>
        <time>1970-01-01T00:20:33.000Z</time>
      </trkpt>
      <trkpt lat="41.353643" lon="1.910697">
        <ele>526.9</ele>
        <time>1970-01-01T00:20:34.000Z</time>
      </trkpt>
      <trkpt lat="41.353665" lon="1.910715">
        <ele>526.9</ele>
        <time>1970-01-01T00:20:35.000Z</time>
      </trkpt>
      <trkpt lat="41.353665" lon="1.910715">
        <ele>526.9</ele>
        <time>1970-01-01T00:20:36.000Z</time>
      </trkpt>
      <trkpt lat="41.353712" lon="1.910757">
        <ele>526.9</ele>
        <time>1970-01-01T00:20:37.000Z</time>
      </trkpt>
      <trkpt lat="41.353712" lon="1.910757">
        <ele>526.9</ele>
        <time>1970-01-01T00:20:38.000Z</time>
      </trkpt>
      <trkpt lat="41.353758" lon="1.9108">
        <ele>526.9</ele>
        <time>1970-01-01T00:20:39.000Z</time>
      </trkpt>
      <trkpt lat="41.353758" lon="1.9108">
        <ele>526.9</ele>
        <time>1970-01-01T00:20:40.000Z</time>
      </trkpt>
      <trkpt lat="41.353805" lon="1.910857">
        <ele>526.9</ele>
        <time>1970-01-01T00:20:41.000Z</time>
      </trkpt>
      <trkpt lat="41.353832" lon="1.910882">
        <ele>526.9</ele>
        <time>1970-01-01T00:20:42.000Z</time>
      </trkpt>
      <trkpt lat="41.353832" lon="1.910882">
        <ele>526.9</ele>
        <time>1970-01-01T00:20:43.000Z</time>
      </trkpt>
      <trkpt lat="41.353882" lon="1.910933">
        <ele>526.9</ele>
        <time>1970-01-01T00:20:44.000Z</time>
      </trkpt>
      <trkpt lat="41.353882" lon="1.910933">
        <ele>526.9</ele>
        <time>1970-01-01T00:20:45.000Z</time>
      </trkpt>
      <trkpt lat="41.353932" lon="1.910992">
        <ele>526.9</ele>
        <time>1970-01-01T00:20:46.000Z</time>
      </trkpt>
      <trkpt lat="41.353958" lon="1.911023">
        <ele>526.9</ele>
        <time>1970-01-01T00:20:47.000Z</time>
      </trkpt>
      <trkpt lat="41.353958" lon="1.911023">
        <ele>526.9</ele>
        <time>1970-01-01T00:20:48.000Z</time>
      </trkpt>
      <trkpt lat="41.354015" lon="1.911087">
        <ele>526.9</ele>
        <time>1970-01-01T00:20:49.000Z</time>
      </trkpt>
      <trkpt lat="41.354042" lon="1.911125">
        <ele>526.9</ele>
        <time>1970-01-01T00:20:50.000Z</time>
      </trkpt>
      <trkpt lat="41.354042" lon="1.911125">
        <ele>526.9</ele>
        <time>1970-01-01T00:20:51.000Z</time>
      </trkpt>
      <trkpt lat="41.354082" lon="1.91123">
        <ele>526.9</ele>
        <time>1970-01-01T00:20:52.000Z</time>
      </trkpt>
      <trkpt lat="41.354082" lon="1.91123">
        <ele>524.9</ele>
        <time>1970-01-01T00:20:53.000Z</time>
      </trkpt>
      <trkpt lat="41.354105" lon="1.911362">
        <ele>524.9</ele>
        <time>1970-01-01T00:20:54.000Z</time>
      </trkpt>
      <trkpt lat="41.35411" lon="1.911432">
        <ele>524.9</ele>
        <time>1970-01-01T00:20:55.000Z</time>
      </trkpt>
      <trkpt lat="41.35411" lon="1.911432">
        <ele>524.9</ele>
        <time>1970-01-01T00:20:56.000Z</time>
      </trkpt>
      <trkpt lat="41.354117" lon="1.911575">
        <ele>523.9</ele>
        <time>1970-01-01T00:20:57.000Z</time>
      </trkpt>
      <trkpt lat="41.354117" lon="1.911575">
        <ele>523.9</ele>
        <time>1970-01-01T00:20:58.000Z</time>
      </trkpt>
      <trkpt lat="41.354102" lon="1.911712">
        <ele>523.9</ele>
        <time>1970-01-01T00:20:59.000Z</time>
      </trkpt>
      <trkpt lat="41.354102" lon="1.911712">
        <ele>523.9</ele>
        <time>1970-01-01T00:21:00.000Z</time>
      </trkpt>
      <trkpt lat="41.35407" lon="1.91183">
        <ele>523.9</ele>
        <time>1970-01-01T00:21:01.000Z</time>
      </trkpt>
      <trkpt lat="41.35405" lon="1.911883">
        <ele>523.9</ele>
        <time>1970-01-01T00:21:02.000Z</time>
      </trkpt>
      <trkpt lat="41.35405" lon="1.911883">
        <ele>523.9</ele>
        <time>1970-01-01T00:21:03.000Z</time>
      </trkpt>
      <trkpt lat="41.35401" lon="1.911982">
        <ele>523.9</ele>
        <time>1970-01-01T00:21:04.000Z</time>
      </trkpt>
      <trkpt lat="41.35401" lon="1.911982">
        <ele>523.9</ele>
        <time>1970-01-01T00:21:05.000Z</time>
      </trkpt>
      <trkpt lat="41.353972" lon="1.912068">
        <ele>523.9</ele>
        <time>1970-01-01T00:21:06.000Z</time>
      </trkpt>
      <trkpt lat="41.353972" lon="1.912068">
        <ele>522.9</ele>
        <time>1970-01-01T00:21:07.000Z</time>
      </trkpt>
      <trkpt lat="41.353933" lon="1.912165">
        <ele>522.9</ele>
        <time>1970-01-01T00:21:08.000Z</time>
      </trkpt>
      <trkpt lat="41.353933" lon="1.912165">
        <ele>522.9</ele>
        <time>1970-01-01T00:21:09.000Z</time>
      </trkpt>
      <trkpt lat="41.353897" lon="1.912283">
        <ele>522.9</ele>
        <time>1970-01-01T00:21:10.000Z</time>
      </trkpt>
      <trkpt lat="41.353897" lon="1.912283">
        <ele>522.9</ele>
        <time>1970-01-01T00:21:11.000Z</time>
      </trkpt>
      <trkpt lat="41.353853" lon="1.912428">
        <ele>522.9</ele>
        <time>1970-01-01T00:21:12.000Z</time>
      </trkpt>
      <trkpt lat="41.353835" lon="1.912515">
        <ele>521.9</ele>
        <time>1970-01-01T00:21:13.000Z</time>
      </trkpt>
      <trkpt lat="41.35382" lon="1.912605">
        <ele>521.9</ele>
        <time>1970-01-01T00:21:14.000Z</time>
      </trkpt>
      <trkpt lat="41.35382" lon="1.912605">
        <ele>520.9</ele>
        <time>1970-01-01T00:21:15.000Z</time>
      </trkpt>
      <trkpt lat="41.353785" lon="1.912767">
        <ele>520.9</ele>
        <time>1970-01-01T00:21:16.000Z</time>
      </trkpt>
      <trkpt lat="41.353785" lon="1.912767">
        <ele>518.9</ele>
        <time>1970-01-01T00:21:17.000Z</time>
      </trkpt>
      <trkpt lat="41.353745" lon="1.912928">
        <ele>518.9</ele>
        <time>1970-01-01T00:21:18.000Z</time>
      </trkpt>
      <trkpt lat="41.353745" lon="1.912928">
        <ele>516.9</ele>
        <time>1970-01-01T00:21:19.000Z</time>
      </trkpt>
      <trkpt lat="41.353742" lon="1.913117">
        <ele>516.9</ele>
        <time>1970-01-01T00:21:20.000Z</time>
      </trkpt>
      <trkpt lat="41.353742" lon="1.913117">
        <ele>515.9</ele>
        <time>1970-01-01T00:21:21.000Z</time>
      </trkpt>
      <trkpt lat="41.353747" lon="1.913315">
        <ele>515.9</ele>
        <time>1970-01-01T00:21:22.000Z</time>
      </trkpt>
      <trkpt lat="41.353743" lon="1.913415">
        <ele>513.9</ele>
        <time>1970-01-01T00:21:23.000Z</time>
      </trkpt>
      <trkpt lat="41.353743" lon="1.913415">
        <ele>513.9</ele>
        <time>1970-01-01T00:21:24.000Z</time>
      </trkpt>
      <trkpt lat="41.353722" lon="1.91358">
        <ele>512.9</ele>
        <time>1970-01-01T00:21:25.000Z</time>
      </trkpt>
      <trkpt lat="41.353705" lon="1.913642">
        <ele>512.9</ele>
        <time>1970-01-01T00:21:26.000Z</time>
      </trkpt>
      <trkpt lat="41.353705" lon="1.913642">
        <ele>512.9</ele>
        <time>1970-01-01T00:21:27.000Z</time>
      </trkpt>
      <trkpt lat="41.353668" lon="1.913738">
        <ele>512.9</ele>
        <time>1970-01-01T00:21:28.000Z</time>
      </trkpt>
      <trkpt lat="41.353668" lon="1.913738">
        <ele>510.9</ele>
        <time>1970-01-01T00:21:29.000Z</time>
      </trkpt>
      <trkpt lat="41.353623" lon="1.913823">
        <ele>510.9</ele>
        <time>1970-01-01T00:21:30.000Z</time>
      </trkpt>
      <trkpt lat="41.353623" lon="1.913823">
        <ele>509.9</ele>
        <time>1970-01-01T00:21:31.000Z</time>
      </trkpt>
      <trkpt lat="41.353588" lon="1.913918">
        <ele>508.9</ele>
        <time>1970-01-01T00:21:32.000Z</time>
      </trkpt>
      <trkpt lat="41.353588" lon="1.913918">
        <ele>508.9</ele>
        <time>1970-01-01T00:21:33.000Z</time>
      </trkpt>
      <trkpt lat="41.353562" lon="1.914015">
        <ele>507.9</ele>
        <time>1970-01-01T00:21:34.000Z</time>
      </trkpt>
      <trkpt lat="41.353562" lon="1.914015">
        <ele>507.9</ele>
        <time>1970-01-01T00:21:35.000Z</time>
      </trkpt>
      <trkpt lat="41.353527" lon="1.914117">
        <ele>505.9</ele>
        <time>1970-01-01T00:21:36.000Z</time>
      </trkpt>
      <trkpt lat="41.353508" lon="1.914165">
        <ele>505.9</ele>
        <time>1970-01-01T00:21:37.000Z</time>
      </trkpt>
      <trkpt lat="41.353508" lon="1.914165">
        <ele>504.9</ele>
        <time>1970-01-01T00:21:38.000Z</time>
      </trkpt>
      <trkpt lat="41.353497" lon="1.914275">
        <ele>504.9</ele>
        <time>1970-01-01T00:21:39.000Z</time>
      </trkpt>
      <trkpt lat="41.353497" lon="1.914275">
        <ele>503.9</ele>
        <time>1970-01-01T00:21:40.000Z</time>
      </trkpt>
      <trkpt lat="41.353502" lon="1.914405">
        <ele>503.9</ele>
        <time>1970-01-01T00:21:41.000Z</time>
      </trkpt>
      <trkpt lat="41.353502" lon="1.914405">
        <ele>502.9</ele>
        <time>1970-01-01T00:21:42.000Z</time>
      </trkpt>
      <trkpt lat="41.35347" lon="1.914498">
        <ele>502.9</ele>
        <time>1970-01-01T00:21:43.000Z</time>
      </trkpt>
      <trkpt lat="41.35344" lon="1.914533">
        <ele>500.9</ele>
        <time>1970-01-01T00:21:44.000Z</time>
      </trkpt>
      <trkpt lat="41.35344" lon="1.914533">
        <ele>500.9</ele>
        <time>1970-01-01T00:21:45.000Z</time>
      </trkpt>
      <trkpt lat="41.353352" lon="1.914583">
        <ele>500.9</ele>
        <time>1970-01-01T00:21:46.000Z</time>
      </trkpt>
      <trkpt lat="41.353352" lon="1.914583">
        <ele>500.9</ele>
        <time>1970-01-01T00:21:47.000Z</time>
      </trkpt>
      <trkpt lat="41.35325" lon="1.914647">
        <ele>500.9</ele>
        <time>1970-01-01T00:21:48.000Z</time>
      </trkpt>
      <trkpt lat="41.35325" lon="1.914647">
        <ele>500.9</ele>
        <time>1970-01-01T00:21:49.000Z</time>
      </trkpt>
      <trkpt lat="41.353173" lon="1.91469">
        <ele>497.9</ele>
        <time>1970-01-01T00:21:50.000Z</time>
      </trkpt>
      <trkpt lat="41.353173" lon="1.91469">
        <ele>497.9</ele>
        <time>1970-01-01T00:21:51.000Z</time>
      </trkpt>
      <trkpt lat="41.353128" lon="1.914733">
        <ele>496.9</ele>
        <time>1970-01-01T00:21:52.000Z</time>
      </trkpt>
      <trkpt lat="41.353117" lon="1.914765">
        <ele>496.9</ele>
        <time>1970-01-01T00:21:53.000Z</time>
      </trkpt>
      <trkpt lat="41.353117" lon="1.914765">
        <ele>496.9</ele>
        <time>1970-01-01T00:21:54.000Z</time>
      </trkpt>
      <trkpt lat="41.353105" lon="1.914843">
        <ele>496.9</ele>
        <time>1970-01-01T00:21:55.000Z</time>
      </trkpt>
      <trkpt lat="41.3531" lon="1.91488">
        <ele>494.9</ele>
        <time>1970-01-01T00:21:56.000Z</time>
      </trkpt>
      <trkpt lat="41.353088" lon="1.914915">
        <ele>494.9</ele>
        <time>1970-01-01T00:21:57.000Z</time>
      </trkpt>
      <trkpt lat="41.353088" lon="1.914915">
        <ele>493.9</ele>
        <time>1970-01-01T00:21:58.000Z</time>
      </trkpt>
      <trkpt lat="41.353073" lon="1.914998">
        <ele>493.9</ele>
        <time>1970-01-01T00:21:59.000Z</time>
      </trkpt>
      <trkpt lat="41.353073" lon="1.914998">
        <ele>492.9</ele>
        <time>1970-01-01T00:22:00.000Z</time>
      </trkpt>
      <trkpt lat="41.353068" lon="1.915105">
        <ele>492.9</ele>
        <time>1970-01-01T00:22:01.000Z</time>
      </trkpt>
      <trkpt lat="41.353068" lon="1.915105">
        <ele>491.9</ele>
        <time>1970-01-01T00:22:02.000Z</time>
      </trkpt>
      <trkpt lat="41.35306" lon="1.915203">
        <ele>491.9</ele>
        <time>1970-01-01T00:22:03.000Z</time>
      </trkpt>
      <trkpt lat="41.35306" lon="1.915203">
        <ele>490.9</ele>
        <time>1970-01-01T00:22:04.000Z</time>
      </trkpt>
      <trkpt lat="41.35304" lon="1.915297">
        <ele>490.9</ele>
        <time>1970-01-01T00:22:05.000Z</time>
      </trkpt>
      <trkpt lat="41.35304" lon="1.915297">
        <ele>489.9</ele>
        <time>1970-01-01T00:22:06.000Z</time>
      </trkpt>
      <trkpt lat="41.353015" lon="1.91538">
        <ele>489.9</ele>
        <time>1970-01-01T00:22:07.000Z</time>
      </trkpt>
      <trkpt lat="41.353015" lon="1.91538">
        <ele>487.9</ele>
        <time>1970-01-01T00:22:08.000Z</time>
      </trkpt>
      <trkpt lat="41.352993" lon="1.915475">
        <ele>487.9</ele>
        <time>1970-01-01T00:22:09.000Z</time>
      </trkpt>
      <trkpt lat="41.352993" lon="1.915475">
        <ele>486.9</ele>
        <time>1970-01-01T00:22:10.000Z</time>
      </trkpt>
      <trkpt lat="41.352977" lon="1.915568">
        <ele>486.9</ele>
        <time>1970-01-01T00:22:11.000Z</time>
      </trkpt>
      <trkpt lat="41.352977" lon="1.915568">
        <ele>484.9</ele>
        <time>1970-01-01T00:22:12.000Z</time>
      </trkpt>
      <trkpt lat="41.352972" lon="1.915683">
        <ele>484.9</ele>
        <time>1970-01-01T00:22:13.000Z</time>
      </trkpt>
      <trkpt lat="41.352972" lon="1.915683">
        <ele>483.9</ele>
        <time>1970-01-01T00:22:14.000Z</time>
      </trkpt>
      <trkpt lat="41.35298" lon="1.91582">
        <ele>482.9</ele>
        <time>1970-01-01T00:22:15.000Z</time>
      </trkpt>
      <trkpt lat="41.35298" lon="1.91582">
        <ele>482.9</ele>
        <time>1970-01-01T00:22:16.000Z</time>
      </trkpt>
      <trkpt lat="41.35301" lon="1.915963">
        <ele>480.9</ele>
        <time>1970-01-01T00:22:17.000Z</time>
      </trkpt>
      <trkpt lat="41.353033" lon="1.916032">
        <ele>480.9</ele>
        <time>1970-01-01T00:22:18.000Z</time>
      </trkpt>
      <trkpt lat="41.353033" lon="1.916032">
        <ele>479.9</ele>
        <time>1970-01-01T00:22:19.000Z</time>
      </trkpt>
      <trkpt lat="41.35311" lon="1.916133">
        <ele>479.9</ele>
        <time>1970-01-01T00:22:20.000Z</time>
      </trkpt>
      <trkpt lat="41.353157" lon="1.916165">
        <ele>478.9</ele>
        <time>1970-01-01T00:22:21.000Z</time>
      </trkpt>
      <trkpt lat="41.353157" lon="1.916165">
        <ele>478.9</ele>
        <time>1970-01-01T00:22:22.000Z</time>
      </trkpt>
      <trkpt lat="41.353243" lon="1.916202">
        <ele>477.9</ele>
        <time>1970-01-01T00:22:23.000Z</time>
      </trkpt>
      <trkpt lat="41.353278" lon="1.916222">
        <ele>477.9</ele>
        <time>1970-01-01T00:22:24.000Z</time>
      </trkpt>
      <trkpt lat="41.353278" lon="1.916222">
        <ele>476.9</ele>
        <time>1970-01-01T00:22:25.000Z</time>
      </trkpt>
      <trkpt lat="41.353333" lon="1.916293">
        <ele>476.9</ele>
        <time>1970-01-01T00:22:26.000Z</time>
      </trkpt>
      <trkpt lat="41.353333" lon="1.916293">
        <ele>476.9</ele>
        <time>1970-01-01T00:22:27.000Z</time>
      </trkpt>
      <trkpt lat="41.353355" lon="1.916395">
        <ele>475.9</ele>
        <time>1970-01-01T00:22:28.000Z</time>
      </trkpt>
      <trkpt lat="41.353355" lon="1.916395">
        <ele>475.9</ele>
        <time>1970-01-01T00:22:29.000Z</time>
      </trkpt>
      <trkpt lat="41.353332" lon="1.916505">
        <ele>474.9</ele>
        <time>1970-01-01T00:22:30.000Z</time>
      </trkpt>
      <trkpt lat="41.353302" lon="1.916555">
        <ele>474.9</ele>
        <time>1970-01-01T00:22:31.000Z</time>
      </trkpt>
      <trkpt lat="41.35327" lon="1.9166">
        <ele>472.9</ele>
        <time>1970-01-01T00:22:32.000Z</time>
      </trkpt>
      <trkpt lat="41.35327" lon="1.9166">
        <ele>472.9</ele>
        <time>1970-01-01T00:22:33.000Z</time>
      </trkpt>
      <trkpt lat="41.353215" lon="1.916678">
        <ele>471.9</ele>
        <time>1970-01-01T00:22:34.000Z</time>
      </trkpt>
      <trkpt lat="41.353215" lon="1.916678">
        <ele>471.9</ele>
        <time>1970-01-01T00:22:35.000Z</time>
      </trkpt>
      <trkpt lat="41.35316" lon="1.91677">
        <ele>471.9</ele>
        <time>1970-01-01T00:22:36.000Z</time>
      </trkpt>
      <trkpt lat="41.353128" lon="1.916818">
        <ele>471.9</ele>
        <time>1970-01-01T00:22:37.000Z</time>
      </trkpt>
      <trkpt lat="41.353128" lon="1.916818">
        <ele>470.9</ele>
        <time>1970-01-01T00:22:38.000Z</time>
      </trkpt>
      <trkpt lat="41.35304" lon="1.916888">
        <ele>470.9</ele>
        <time>1970-01-01T00:22:39.000Z</time>
      </trkpt>
      <trkpt lat="41.35304" lon="1.916888">
        <ele>468.9</ele>
        <time>1970-01-01T00:22:40.000Z</time>
      </trkpt>
      <trkpt lat="41.352977" lon="1.916935">
        <ele>468.9</ele>
        <time>1970-01-01T00:22:41.000Z</time>
      </trkpt>
      <trkpt lat="41.35296" lon="1.91695">
        <ele>468.9</ele>
        <time>1970-01-01T00:22:42.000Z</time>
      </trkpt>
      <trkpt lat="41.35296" lon="1.91695">
        <ele>468.9</ele>
        <time>1970-01-01T00:22:43.000Z</time>
      </trkpt>
      <trkpt lat="41.352932" lon="1.916972">
        <ele>467.9</ele>
        <time>1970-01-01T00:22:44.000Z</time>
      </trkpt>
      <trkpt lat="41.352932" lon="1.916972">
        <ele>467.9</ele>
        <time>1970-01-01T00:22:45.000Z</time>
      </trkpt>
      <trkpt lat="41.352893" lon="1.916993">
        <ele>467.9</ele>
        <time>1970-01-01T00:22:46.000Z</time>
      </trkpt>
      <trkpt lat="41.352893" lon="1.916993">
        <ele>467.9</ele>
        <time>1970-01-01T00:22:47.000Z</time>
      </trkpt>
      <trkpt lat="41.35288" lon="1.917012">
        <ele>467.9</ele>
        <time>1970-01-01T00:22:48.000Z</time>
      </trkpt>
      <trkpt lat="41.35288" lon="1.917012">
        <ele>467.9</ele>
        <time>1970-01-01T00:22:49.000Z</time>
      </trkpt>
      <trkpt lat="41.352878" lon="1.917015">
        <ele>467.9</ele>
        <time>1970-01-01T00:22:50.000Z</time>
      </trkpt>
      <trkpt lat="41.353013" lon="1.916962">
        <ele>466.9</ele>
        <time>1970-01-01T00:23:06.000Z</time>
      </trkpt>
      <trkpt lat="41.353013" lon="1.916962">
        <ele>466.9</ele>
        <time>1970-01-01T00:23:07.000Z</time>
      </trkpt>
      <trkpt lat="41.353018" lon="1.917008">
        <ele>466.9</ele>
        <time>1970-01-01T00:23:08.000Z</time>
      </trkpt>
      <trkpt lat="41.353018" lon="1.917008">
        <ele>466.9</ele>
        <time>1970-01-01T00:23:09.000Z</time>
      </trkpt>
      <trkpt lat="41.353012" lon="1.917082">
        <ele>466.9</ele>
        <time>1970-01-01T00:23:10.000Z</time>
      </trkpt>
      <trkpt lat="41.353012" lon="1.917082">
        <ele>466.9</ele>
        <time>1970-01-01T00:23:11.000Z</time>
      </trkpt>
      <trkpt lat="41.352988" lon="1.917163">
        <ele>466.9</ele>
        <time>1970-01-01T00:23:12.000Z</time>
      </trkpt>
      <trkpt lat="41.352988" lon="1.917163">
        <ele>466.9</ele>
        <time>1970-01-01T00:23:13.000Z</time>
      </trkpt>
      <trkpt lat="41.352968" lon="1.917255">
        <ele>466.9</ele>
        <time>1970-01-01T00:23:14.000Z</time>
      </trkpt>
      <trkpt lat="41.352968" lon="1.917255">
        <ele>466.9</ele>
        <time>1970-01-01T00:23:15.000Z</time>
      </trkpt>
      <trkpt lat="41.352962" lon="1.917363">
        <ele>465.9</ele>
        <time>1970-01-01T00:23:16.000Z</time>
      </trkpt>
      <trkpt lat="41.352962" lon="1.917363">
        <ele>465.9</ele>
        <time>1970-01-01T00:23:17.000Z</time>
      </trkpt>
      <trkpt lat="41.35297" lon="1.917475">
        <ele>465.9</ele>
        <time>1970-01-01T00:23:18.000Z</time>
      </trkpt>
      <trkpt lat="41.35297" lon="1.917475">
        <ele>465.9</ele>
        <time>1970-01-01T00:23:19.000Z</time>
      </trkpt>
      <trkpt lat="41.352958" lon="1.917593">
        <ele>464.9</ele>
        <time>1970-01-01T00:23:20.000Z</time>
      </trkpt>
      <trkpt lat="41.352958" lon="1.917593">
        <ele>464.9</ele>
        <time>1970-01-01T00:23:21.000Z</time>
      </trkpt>
      <trkpt lat="41.35295" lon="1.917705">
        <ele>464.9</ele>
        <time>1970-01-01T00:23:22.000Z</time>
      </trkpt>
      <trkpt lat="41.352955" lon="1.917765">
        <ele>464.9</ele>
        <time>1970-01-01T00:23:23.000Z</time>
      </trkpt>
      <trkpt lat="41.352955" lon="1.917765">
        <ele>463.9</ele>
        <time>1970-01-01T00:23:24.000Z</time>
      </trkpt>
      <trkpt lat="41.352978" lon="1.91787">
        <ele>463.9</ele>
        <time>1970-01-01T00:23:25.000Z</time>
      </trkpt>
      <trkpt lat="41.352978" lon="1.91787">
        <ele>463.9</ele>
        <time>1970-01-01T00:23:26.000Z</time>
      </trkpt>
      <trkpt lat="41.353025" lon="1.917968">
        <ele>463.9</ele>
        <time>1970-01-01T00:23:27.000Z</time>
      </trkpt>
      <trkpt lat="41.353025" lon="1.917968">
        <ele>462.9</ele>
        <time>1970-01-01T00:23:28.000Z</time>
      </trkpt>
      <trkpt lat="41.35307" lon="1.918082">
        <ele>462.9</ele>
        <time>1970-01-01T00:23:29.000Z</time>
      </trkpt>
      <trkpt lat="41.35307" lon="1.918082">
        <ele>462.9</ele>
        <time>1970-01-01T00:23:30.000Z</time>
      </trkpt>
      <trkpt lat="41.353088" lon="1.918232">
        <ele>462.9</ele>
        <time>1970-01-01T00:23:31.000Z</time>
      </trkpt>
      <trkpt lat="41.3531" lon="1.918305">
        <ele>461.9</ele>
        <time>1970-01-01T00:23:32.000Z</time>
      </trkpt>
      <trkpt lat="41.3531" lon="1.918305">
        <ele>461.9</ele>
        <time>1970-01-01T00:23:33.000Z</time>
      </trkpt>
      <trkpt lat="41.353135" lon="1.918428">
        <ele>459.9</ele>
        <time>1970-01-01T00:23:34.000Z</time>
      </trkpt>
      <trkpt lat="41.353135" lon="1.918428">
        <ele>459.9</ele>
        <time>1970-01-01T00:23:35.000Z</time>
      </trkpt>
      <trkpt lat="41.353193" lon="1.918552">
        <ele>459.9</ele>
        <time>1970-01-01T00:23:36.000Z</time>
      </trkpt>
      <trkpt lat="41.353193" lon="1.918552">
        <ele>459.9</ele>
        <time>1970-01-01T00:23:37.000Z</time>
      </trkpt>
      <trkpt lat="41.353278" lon="1.91865">
        <ele>459.9</ele>
        <time>1970-01-01T00:23:38.000Z</time>
      </trkpt>
      <trkpt lat="41.353278" lon="1.91865">
        <ele>457.9</ele>
        <time>1970-01-01T00:23:39.000Z</time>
      </trkpt>
      <trkpt lat="41.353375" lon="1.918752">
        <ele>457.9</ele>
        <time>1970-01-01T00:23:40.000Z</time>
      </trkpt>
      <trkpt lat="41.353375" lon="1.918752">
        <ele>457.9</ele>
        <time>1970-01-01T00:23:41.000Z</time>
      </trkpt>
      <trkpt lat="41.353472" lon="1.918857">
        <ele>457.9</ele>
        <time>1970-01-01T00:23:42.000Z</time>
      </trkpt>
      <trkpt lat="41.353472" lon="1.918857">
        <ele>457.9</ele>
        <time>1970-01-01T00:23:43.000Z</time>
      </trkpt>
      <trkpt lat="41.35358" lon="1.918943">
        <ele>457.9</ele>
        <time>1970-01-01T00:23:44.000Z</time>
      </trkpt>
      <trkpt lat="41.35358" lon="1.918943">
        <ele>456.9</ele>
        <time>1970-01-01T00:23:45.000Z</time>
      </trkpt>
      <trkpt lat="41.353693" lon="1.91903">
        <ele>456.9</ele>
        <time>1970-01-01T00:23:46.000Z</time>
      </trkpt>
      <trkpt lat="41.353693" lon="1.91903">
        <ele>456.9</ele>
        <time>1970-01-01T00:23:47.000Z</time>
      </trkpt>
      <trkpt lat="41.353787" lon="1.919143">
        <ele>456.9</ele>
        <time>1970-01-01T00:23:48.000Z</time>
      </trkpt>
      <trkpt lat="41.353787" lon="1.919143">
        <ele>455.9</ele>
        <time>1970-01-01T00:23:49.000Z</time>
      </trkpt>
      <trkpt lat="41.353857" lon="1.91927">
        <ele>455.9</ele>
        <time>1970-01-01T00:23:50.000Z</time>
      </trkpt>
      <trkpt lat="41.353857" lon="1.91927">
        <ele>455.9</ele>
        <time>1970-01-01T00:23:51.000Z</time>
      </trkpt>
      <trkpt lat="41.35392" lon="1.919395">
        <ele>455.9</ele>
        <time>1970-01-01T00:23:52.000Z</time>
      </trkpt>
      <trkpt lat="41.35392" lon="1.919395">
        <ele>454.9</ele>
        <time>1970-01-01T00:23:53.000Z</time>
      </trkpt>
      <trkpt lat="41.353983" lon="1.919512">
        <ele>454.9</ele>
        <time>1970-01-01T00:23:54.000Z</time>
      </trkpt>
      <trkpt lat="41.353983" lon="1.919512">
        <ele>454.9</ele>
        <time>1970-01-01T00:23:55.000Z</time>
      </trkpt>
      <trkpt lat="41.35404" lon="1.91955">
        <ele>454.9</ele>
        <time>1970-01-01T00:23:56.000Z</time>
      </trkpt>
      <trkpt lat="41.35404" lon="1.91955">
        <ele>454.9</ele>
        <time>1970-01-01T00:23:57.000Z</time>
      </trkpt>
      <trkpt lat="41.354093" lon="1.919533">
        <ele>454.9</ele>
        <time>1970-01-01T00:23:58.000Z</time>
      </trkpt>
      <trkpt lat="41.354093" lon="1.919533">
        <ele>454.9</ele>
        <time>1970-01-01T00:23:59.000Z</time>
      </trkpt>
      <trkpt lat="41.354153" lon="1.919483">
        <ele>454.9</ele>
        <time>1970-01-01T00:24:00.000Z</time>
      </trkpt>
      <trkpt lat="41.354153" lon="1.919483">
        <ele>454.9</ele>
        <time>1970-01-01T00:24:01.000Z</time>
      </trkpt>
      <trkpt lat="41.354218" lon="1.919453">
        <ele>454.9</ele>
        <time>1970-01-01T00:24:02.000Z</time>
      </trkpt>
      <trkpt lat="41.354252" lon="1.919453">
        <ele>454.9</ele>
        <time>1970-01-01T00:24:03.000Z</time>
      </trkpt>
      <trkpt lat="41.354252" lon="1.919453">
        <ele>454.9</ele>
        <time>1970-01-01T00:24:04.000Z</time>
      </trkpt>
      <trkpt lat="41.354312" lon="1.919455">
        <ele>453.9</ele>
        <time>1970-01-01T00:24:05.000Z</time>
      </trkpt>
      <trkpt lat="41.354312" lon="1.919455">
        <ele>453.9</ele>
        <time>1970-01-01T00:24:06.000Z</time>
      </trkpt>
      <trkpt lat="41.354375" lon="1.919427">
        <ele>453.9</ele>
        <time>1970-01-01T00:24:07.000Z</time>
      </trkpt>
      <trkpt lat="41.354375" lon="1.919427">
        <ele>453.9</ele>
        <time>1970-01-01T00:24:08.000Z</time>
      </trkpt>
      <trkpt lat="41.354418" lon="1.919378">
        <ele>452.9</ele>
        <time>1970-01-01T00:24:09.000Z</time>
      </trkpt>
      <trkpt lat="41.35443" lon="1.919352">
        <ele>452.9</ele>
        <time>1970-01-01T00:24:10.000Z</time>
      </trkpt>
      <trkpt lat="41.35443" lon="1.919352">
        <ele>452.9</ele>
        <time>1970-01-01T00:24:11.000Z</time>
      </trkpt>
      <trkpt lat="41.354445" lon="1.919292">
        <ele>452.9</ele>
        <time>1970-01-01T00:24:12.000Z</time>
      </trkpt>
      <trkpt lat="41.354445" lon="1.919292">
        <ele>451.9</ele>
        <time>1970-01-01T00:24:13.000Z</time>
      </trkpt>
      <trkpt lat="41.354475" lon="1.91924">
        <ele>451.9</ele>
        <time>1970-01-01T00:24:14.000Z</time>
      </trkpt>
      <trkpt lat="41.354475" lon="1.91924">
        <ele>451.9</ele>
        <time>1970-01-01T00:24:15.000Z</time>
      </trkpt>
      <trkpt lat="41.354518" lon="1.919207">
        <ele>451.9</ele>
        <time>1970-01-01T00:24:16.000Z</time>
      </trkpt>
      <trkpt lat="41.354543" lon="1.919193">
        <ele>451.9</ele>
        <time>1970-01-01T00:24:17.000Z</time>
      </trkpt>
      <trkpt lat="41.35457" lon="1.91919">
        <ele>451.9</ele>
        <time>1970-01-01T00:24:18.000Z</time>
      </trkpt>
      <trkpt lat="41.35457" lon="1.91919">
        <ele>451.9</ele>
        <time>1970-01-01T00:24:19.000Z</time>
      </trkpt>
      <trkpt lat="41.354628" lon="1.919192">
        <ele>451.9</ele>
        <time>1970-01-01T00:24:20.000Z</time>
      </trkpt>
      <trkpt lat="41.354628" lon="1.919192">
        <ele>451.9</ele>
        <time>1970-01-01T00:24:21.000Z</time>
      </trkpt>
      <trkpt lat="41.354677" lon="1.919167">
        <ele>451.9</ele>
        <time>1970-01-01T00:24:22.000Z</time>
      </trkpt>
      <trkpt lat="41.354677" lon="1.919167">
        <ele>451.9</ele>
        <time>1970-01-01T00:24:23.000Z</time>
      </trkpt>
      <trkpt lat="41.35471" lon="1.919153">
        <ele>450.9</ele>
        <time>1970-01-01T00:24:24.000Z</time>
      </trkpt>
      <trkpt lat="41.35473" lon="1.91915">
        <ele>450.9</ele>
        <time>1970-01-01T00:24:25.000Z</time>
      </trkpt>
      <trkpt lat="41.35473" lon="1.91915">
        <ele>450.9</ele>
        <time>1970-01-01T00:24:26.000Z</time>
      </trkpt>
      <trkpt lat="41.354775" lon="1.919135">
        <ele>450.9</ele>
        <time>1970-01-01T00:24:27.000Z</time>
      </trkpt>
      <trkpt lat="41.354792" lon="1.919128">
        <ele>450.9</ele>
        <time>1970-01-01T00:24:28.000Z</time>
      </trkpt>
      <trkpt lat="41.354818" lon="1.919125">
        <ele>450.9</ele>
        <time>1970-01-01T00:24:29.000Z</time>
      </trkpt>
      <trkpt lat="41.354818" lon="1.919125">
        <ele>449.9</ele>
        <time>1970-01-01T00:24:30.000Z</time>
      </trkpt>
      <trkpt lat="41.354868" lon="1.9191">
        <ele>449.9</ele>
        <time>1970-01-01T00:24:31.000Z</time>
      </trkpt>
      <trkpt lat="41.354892" lon="1.919083">
        <ele>449.9</ele>
        <time>1970-01-01T00:24:32.000Z</time>
      </trkpt>
      <trkpt lat="41.354892" lon="1.919083">
        <ele>449.9</ele>
        <time>1970-01-01T00:24:33.000Z</time>
      </trkpt>
      <trkpt lat="41.354928" lon="1.919058">
        <ele>448.9</ele>
        <time>1970-01-01T00:24:34.000Z</time>
      </trkpt>
      <trkpt lat="41.354948" lon="1.919053">
        <ele>448.9</ele>
        <time>1970-01-01T00:24:35.000Z</time>
      </trkpt>
      <trkpt lat="41.35497" lon="1.919058">
        <ele>448.9</ele>
        <time>1970-01-01T00:24:36.000Z</time>
      </trkpt>
      <trkpt lat="41.35497" lon="1.919058">
        <ele>448.9</ele>
        <time>1970-01-01T00:24:37.000Z</time>
      </trkpt>
      <trkpt lat="41.355015" lon="1.919065">
        <ele>448.9</ele>
        <time>1970-01-01T00:24:38.000Z</time>
      </trkpt>
      <trkpt lat="41.355015" lon="1.919065">
        <ele>448.9</ele>
        <time>1970-01-01T00:24:39.000Z</time>
      </trkpt>
      <trkpt lat="41.355057" lon="1.919053">
        <ele>448.9</ele>
        <time>1970-01-01T00:24:40.000Z</time>
      </trkpt>
      <trkpt lat="41.355083" lon="1.919048">
        <ele>448.9</ele>
        <time>1970-01-01T00:24:41.000Z</time>
      </trkpt>
      <trkpt lat="41.355083" lon="1.919048">
        <ele>449.9</ele>
        <time>1970-01-01T00:24:42.000Z</time>
      </trkpt>
      <trkpt lat="41.355135" lon="1.919033">
        <ele>449.9</ele>
        <time>1970-01-01T00:24:43.000Z</time>
      </trkpt>
      <trkpt lat="41.355157" lon="1.919018">
        <ele>449.9</ele>
        <time>1970-01-01T00:24:44.000Z</time>
      </trkpt>
      <trkpt lat="41.355157" lon="1.919018">
        <ele>449.9</ele>
        <time>1970-01-01T00:24:45.000Z</time>
      </trkpt>
      <trkpt lat="41.355198" lon="1.919003">
        <ele>449.9</ele>
        <time>1970-01-01T00:24:46.000Z</time>
      </trkpt>
      <trkpt lat="41.355198" lon="1.919003">
        <ele>449.9</ele>
        <time>1970-01-01T00:24:47.000Z</time>
      </trkpt>
      <trkpt lat="41.355255" lon="1.919">
        <ele>448.9</ele>
        <time>1970-01-01T00:24:48.000Z</time>
      </trkpt>
      <trkpt lat="41.355255" lon="1.919">
        <ele>448.9</ele>
        <time>1970-01-01T00:24:49.000Z</time>
      </trkpt>
      <trkpt lat="41.355313" lon="1.919022">
        <ele>448.9</ele>
        <time>1970-01-01T00:24:50.000Z</time>
      </trkpt>
      <trkpt lat="41.355342" lon="1.919028">
        <ele>448.9</ele>
        <time>1970-01-01T00:24:51.000Z</time>
      </trkpt>
      <trkpt lat="41.355342" lon="1.919028">
        <ele>448.9</ele>
        <time>1970-01-01T00:24:52.000Z</time>
      </trkpt>
      <trkpt lat="41.355398" lon="1.918998">
        <ele>448.9</ele>
        <time>1970-01-01T00:24:53.000Z</time>
      </trkpt>
      <trkpt lat="41.355398" lon="1.918998">
        <ele>448.9</ele>
        <time>1970-01-01T00:24:54.000Z</time>
      </trkpt>
      <trkpt lat="41.355458" lon="1.918958">
        <ele>448.9</ele>
        <time>1970-01-01T00:24:55.000Z</time>
      </trkpt>
      <trkpt lat="41.35548" lon="1.918947">
        <ele>447.9</ele>
        <time>1970-01-01T00:24:56.000Z</time>
      </trkpt>
      <trkpt lat="41.35548" lon="1.918947">
        <ele>447.9</ele>
        <time>1970-01-01T00:24:57.000Z</time>
      </trkpt>
      <trkpt lat="41.355555" lon="1.918925">
        <ele>447.9</ele>
        <time>1970-01-01T00:24:58.000Z</time>
      </trkpt>
      <trkpt lat="41.35559" lon="1.918908">
        <ele>447.9</ele>
        <time>1970-01-01T00:24:59.000Z</time>
      </trkpt>
      <trkpt lat="41.35559" lon="1.918908">
        <ele>447.9</ele>
        <time>1970-01-01T00:25:00.000Z</time>
      </trkpt>
      <trkpt lat="41.355652" lon="1.918888">
        <ele>447.9</ele>
        <time>1970-01-01T00:25:01.000Z</time>
      </trkpt>
      <trkpt lat="41.355683" lon="1.918875">
        <ele>447.9</ele>
        <time>1970-01-01T00:25:02.000Z</time>
      </trkpt>
      <trkpt lat="41.355683" lon="1.918875">
        <ele>447.9</ele>
        <time>1970-01-01T00:25:03.000Z</time>
      </trkpt>
      <trkpt lat="41.355752" lon="1.918858">
        <ele>447.9</ele>
        <time>1970-01-01T00:25:04.000Z</time>
      </trkpt>
      <trkpt lat="41.355787" lon="1.918845">
        <ele>447.9</ele>
        <time>1970-01-01T00:25:05.000Z</time>
      </trkpt>
      <trkpt lat="41.355787" lon="1.918845">
        <ele>447.9</ele>
        <time>1970-01-01T00:25:06.000Z</time>
      </trkpt>
      <trkpt lat="41.355863" lon="1.918817">
        <ele>447.9</ele>
        <time>1970-01-01T00:25:07.000Z</time>
      </trkpt>
      <trkpt lat="41.355902" lon="1.918805">
        <ele>447.9</ele>
        <time>1970-01-01T00:25:08.000Z</time>
      </trkpt>
      <trkpt lat="41.355902" lon="1.918805">
        <ele>447.9</ele>
        <time>1970-01-01T00:25:09.000Z</time>
      </trkpt>
      <trkpt lat="41.35596" lon="1.918773">
        <ele>447.9</ele>
        <time>1970-01-01T00:25:10.000Z</time>
      </trkpt>
      <trkpt lat="41.35596" lon="1.918773">
        <ele>446.9</ele>
        <time>1970-01-01T00:25:11.000Z</time>
      </trkpt>
      <trkpt lat="41.355992" lon="1.918737">
        <ele>446.9</ele>
        <time>1970-01-01T00:25:12.000Z</time>
      </trkpt>
      <trkpt lat="41.356015" lon="1.918718">
        <ele>446.9</ele>
        <time>1970-01-01T00:25:13.000Z</time>
      </trkpt>
      <trkpt lat="41.356047" lon="1.918703">
        <ele>446.9</ele>
        <time>1970-01-01T00:25:14.000Z</time>
      </trkpt>
      <trkpt lat="41.356047" lon="1.918703">
        <ele>446.9</ele>
        <time>1970-01-01T00:25:15.000Z</time>
      </trkpt>
      <trkpt lat="41.356122" lon="1.91869">
        <ele>446.9</ele>
        <time>1970-01-01T00:25:16.000Z</time>
      </trkpt>
      <trkpt lat="41.356163" lon="1.918675">
        <ele>446.9</ele>
        <time>1970-01-01T00:25:17.000Z</time>
      </trkpt>
      <trkpt lat="41.356163" lon="1.918675">
        <ele>446.9</ele>
        <time>1970-01-01T00:25:18.000Z</time>
      </trkpt>
      <trkpt lat="41.356233" lon="1.918665">
        <ele>445.9</ele>
        <time>1970-01-01T00:25:19.000Z</time>
      </trkpt>
      <trkpt lat="41.356233" lon="1.918665">
        <ele>445.9</ele>
        <time>1970-01-01T00:25:20.000Z</time>
      </trkpt>
      <trkpt lat="41.3563" lon="1.918655">
        <ele>445.9</ele>
        <time>1970-01-01T00:25:21.000Z</time>
      </trkpt>
      <trkpt lat="41.3563" lon="1.918655">
        <ele>445.9</ele>
        <time>1970-01-01T00:25:22.000Z</time>
      </trkpt>
      <trkpt lat="41.356368" lon="1.918637">
        <ele>446.9</ele>
        <time>1970-01-01T00:25:23.000Z</time>
      </trkpt>
      <trkpt lat="41.356368" lon="1.918637">
        <ele>446.9</ele>
        <time>1970-01-01T00:25:24.000Z</time>
      </trkpt>
      <trkpt lat="41.356445" lon="1.918617">
        <ele>446.9</ele>
        <time>1970-01-01T00:25:25.000Z</time>
      </trkpt>
      <trkpt lat="41.356445" lon="1.918617">
        <ele>446.9</ele>
        <time>1970-01-01T00:25:26.000Z</time>
      </trkpt>
      <trkpt lat="41.356538" lon="1.918618">
        <ele>446.9</ele>
        <time>1970-01-01T00:25:27.000Z</time>
      </trkpt>
      <trkpt lat="41.356538" lon="1.918618">
        <ele>446.9</ele>
        <time>1970-01-01T00:25:28.000Z</time>
      </trkpt>
      <trkpt lat="41.356607" lon="1.918622">
        <ele>446.9</ele>
        <time>1970-01-01T00:25:29.000Z</time>
      </trkpt>
      <trkpt lat="41.356607" lon="1.918622">
        <ele>446.9</ele>
        <time>1970-01-01T00:25:30.000Z</time>
      </trkpt>
      <trkpt lat="41.35668" lon="1.918608">
        <ele>446.9</ele>
        <time>1970-01-01T00:25:31.000Z</time>
      </trkpt>
      <trkpt lat="41.356717" lon="1.918598">
        <ele>446.9</ele>
        <time>1970-01-01T00:25:32.000Z</time>
      </trkpt>
      <trkpt lat="41.356717" lon="1.918598">
        <ele>446.9</ele>
        <time>1970-01-01T00:25:33.000Z</time>
      </trkpt>
      <trkpt lat="41.356788" lon="1.918602">
        <ele>446.9</ele>
        <time>1970-01-01T00:25:34.000Z</time>
      </trkpt>
      <trkpt lat="41.356833" lon="1.918598">
        <ele>446.9</ele>
        <time>1970-01-01T00:25:35.000Z</time>
      </trkpt>
      <trkpt lat="41.356833" lon="1.918598">
        <ele>446.9</ele>
        <time>1970-01-01T00:25:36.000Z</time>
      </trkpt>
      <trkpt lat="41.356917" lon="1.918595">
        <ele>446.9</ele>
        <time>1970-01-01T00:25:37.000Z</time>
      </trkpt>
      <trkpt lat="41.356917" lon="1.918595">
        <ele>446.9</ele>
        <time>1970-01-01T00:25:38.000Z</time>
      </trkpt>
      <trkpt lat="41.357002" lon="1.918562">
        <ele>446.9</ele>
        <time>1970-01-01T00:25:39.000Z</time>
      </trkpt>
      <trkpt lat="41.357002" lon="1.918562">
        <ele>445.9</ele>
        <time>1970-01-01T00:25:40.000Z</time>
      </trkpt>
      <trkpt lat="41.357052" lon="1.91852">
        <ele>445.9</ele>
        <time>1970-01-01T00:25:41.000Z</time>
      </trkpt>
      <trkpt lat="41.357052" lon="1.91852">
        <ele>445.9</ele>
        <time>1970-01-01T00:25:42.000Z</time>
      </trkpt>
      <trkpt lat="41.357093" lon="1.918497">
        <ele>445.9</ele>
        <time>1970-01-01T00:25:43.000Z</time>
      </trkpt>
      <trkpt lat="41.357115" lon="1.918487">
        <ele>445.9</ele>
        <time>1970-01-01T00:25:44.000Z</time>
      </trkpt>
      <trkpt lat="41.357115" lon="1.918487">
        <ele>444.9</ele>
        <time>1970-01-01T00:25:45.000Z</time>
      </trkpt>
      <trkpt lat="41.357162" lon="1.918465">
        <ele>444.9</ele>
        <time>1970-01-01T00:25:46.000Z</time>
      </trkpt>
      <trkpt lat="41.357162" lon="1.918465">
        <ele>444.9</ele>
        <time>1970-01-01T00:25:47.000Z</time>
      </trkpt>
      <trkpt lat="41.357212" lon="1.918462">
        <ele>444.9</ele>
        <time>1970-01-01T00:25:48.000Z</time>
      </trkpt>
      <trkpt lat="41.357212" lon="1.918462">
        <ele>444.9</ele>
        <time>1970-01-01T00:25:49.000Z</time>
      </trkpt>
      <trkpt lat="41.357255" lon="1.91846">
        <ele>444.9</ele>
        <time>1970-01-01T00:25:50.000Z</time>
      </trkpt>
      <trkpt lat="41.357278" lon="1.918448">
        <ele>443.9</ele>
        <time>1970-01-01T00:25:51.000Z</time>
      </trkpt>
      <trkpt lat="41.357278" lon="1.918448">
        <ele>443.9</ele>
        <time>1970-01-01T00:25:52.000Z</time>
      </trkpt>
      <trkpt lat="41.357325" lon="1.918427">
        <ele>443.9</ele>
        <time>1970-01-01T00:25:53.000Z</time>
      </trkpt>
      <trkpt lat="41.357325" lon="1.918427">
        <ele>443.9</ele>
        <time>1970-01-01T00:25:54.000Z</time>
      </trkpt>
      <trkpt lat="41.357375" lon="1.918397">
        <ele>443.9</ele>
        <time>1970-01-01T00:25:55.000Z</time>
      </trkpt>
      <trkpt lat="41.357395" lon="1.91837">
        <ele>443.9</ele>
        <time>1970-01-01T00:25:56.000Z</time>
      </trkpt>
      <trkpt lat="41.357395" lon="1.91837">
        <ele>443.9</ele>
        <time>1970-01-01T00:25:57.000Z</time>
      </trkpt>
      <trkpt lat="41.35744" lon="1.918325">
        <ele>443.9</ele>
        <time>1970-01-01T00:25:58.000Z</time>
      </trkpt>
      <trkpt lat="41.35744" lon="1.918325">
        <ele>443.9</ele>
        <time>1970-01-01T00:25:59.000Z</time>
      </trkpt>
      <trkpt lat="41.357485" lon="1.918297">
        <ele>443.9</ele>
        <time>1970-01-01T00:26:00.000Z</time>
      </trkpt>
      <trkpt lat="41.357507" lon="1.918292">
        <ele>443.9</ele>
        <time>1970-01-01T00:26:01.000Z</time>
      </trkpt>
      <trkpt lat="41.357507" lon="1.918292">
        <ele>443.9</ele>
        <time>1970-01-01T00:26:02.000Z</time>
      </trkpt>
      <trkpt lat="41.357547" lon="1.918277">
        <ele>443.9</ele>
        <time>1970-01-01T00:26:03.000Z</time>
      </trkpt>
      <trkpt lat="41.357547" lon="1.918277">
        <ele>443.9</ele>
        <time>1970-01-01T00:26:04.000Z</time>
      </trkpt>
      <trkpt lat="41.357592" lon="1.918255">
        <ele>443.9</ele>
        <time>1970-01-01T00:26:05.000Z</time>
      </trkpt>
      <trkpt lat="41.357592" lon="1.918255">
        <ele>443.9</ele>
        <time>1970-01-01T00:26:06.000Z</time>
      </trkpt>
      <trkpt lat="41.357648" lon="1.918235">
        <ele>443.9</ele>
        <time>1970-01-01T00:26:07.000Z</time>
      </trkpt>
      <trkpt lat="41.357682" lon="1.918222">
        <ele>443.9</ele>
        <time>1970-01-01T00:26:08.000Z</time>
      </trkpt>
      <trkpt lat="41.357682" lon="1.918222">
        <ele>443.9</ele>
        <time>1970-01-01T00:26:09.000Z</time>
      </trkpt>
      <trkpt lat="41.35773" lon="1.918177">
        <ele>443.9</ele>
        <time>1970-01-01T00:26:10.000Z</time>
      </trkpt>
      <trkpt lat="41.357753" lon="1.91815">
        <ele>443.9</ele>
        <time>1970-01-01T00:26:11.000Z</time>
      </trkpt>
      <trkpt lat="41.357753" lon="1.91815">
        <ele>443.9</ele>
        <time>1970-01-01T00:26:12.000Z</time>
      </trkpt>
      <trkpt lat="41.357793" lon="1.918142">
        <ele>443.9</ele>
        <time>1970-01-01T00:26:13.000Z</time>
      </trkpt>
      <trkpt lat="41.357793" lon="1.918142">
        <ele>443.9</ele>
        <time>1970-01-01T00:26:14.000Z</time>
      </trkpt>
      <trkpt lat="41.357842" lon="1.918143">
        <ele>443.9</ele>
        <time>1970-01-01T00:26:15.000Z</time>
      </trkpt>
      <trkpt lat="41.357842" lon="1.918143">
        <ele>443.9</ele>
        <time>1970-01-01T00:26:16.000Z</time>
      </trkpt>
      <trkpt lat="41.357873" lon="1.918142">
        <ele>443.9</ele>
        <time>1970-01-01T00:26:17.000Z</time>
      </trkpt>
      <trkpt lat="41.357873" lon="1.918142">
        <ele>443.9</ele>
        <time>1970-01-01T00:26:18.000Z</time>
      </trkpt>
      <trkpt lat="41.357917" lon="1.91815">
        <ele>443.9</ele>
        <time>1970-01-01T00:26:19.000Z</time>
      </trkpt>
      <trkpt lat="41.357917" lon="1.91815">
        <ele>443.9</ele>
        <time>1970-01-01T00:26:20.000Z</time>
      </trkpt>
      <trkpt lat="41.35795" lon="1.918137">
        <ele>443.9</ele>
        <time>1970-01-01T00:26:21.000Z</time>
      </trkpt>
      <trkpt lat="41.35795" lon="1.918137">
        <ele>443.9</ele>
        <time>1970-01-01T00:26:22.000Z</time>
      </trkpt>
      <trkpt lat="41.357982" lon="1.918115">
        <ele>442.9</ele>
        <time>1970-01-01T00:26:23.000Z</time>
      </trkpt>
      <trkpt lat="41.357997" lon="1.918112">
        <ele>442.9</ele>
        <time>1970-01-01T00:26:24.000Z</time>
      </trkpt>
      <trkpt lat="41.357997" lon="1.918112">
        <ele>442.9</ele>
        <time>1970-01-01T00:26:25.000Z</time>
      </trkpt>
      <trkpt lat="41.358033" lon="1.91811">
        <ele>442.9</ele>
        <time>1970-01-01T00:26:26.000Z</time>
      </trkpt>
      <trkpt lat="41.358033" lon="1.91811">
        <ele>442.9</ele>
        <time>1970-01-01T00:26:27.000Z</time>
      </trkpt>
      <trkpt lat="41.35808" lon="1.918125">
        <ele>442.9</ele>
        <time>1970-01-01T00:26:28.000Z</time>
      </trkpt>
      <trkpt lat="41.35808" lon="1.918125">
        <ele>442.9</ele>
        <time>1970-01-01T00:26:29.000Z</time>
      </trkpt>
      <trkpt lat="41.358138" lon="1.91815">
        <ele>442.9</ele>
        <time>1970-01-01T00:26:30.000Z</time>
      </trkpt>
      <trkpt lat="41.358138" lon="1.91815">
        <ele>442.9</ele>
        <time>1970-01-01T00:26:31.000Z</time>
      </trkpt>
      <trkpt lat="41.358187" lon="1.91821">
        <ele>442.9</ele>
        <time>1970-01-01T00:26:32.000Z</time>
      </trkpt>
      <trkpt lat="41.358187" lon="1.91821">
        <ele>442.9</ele>
        <time>1970-01-01T00:26:33.000Z</time>
      </trkpt>
      <trkpt lat="41.358247" lon="1.91823">
        <ele>442.9</ele>
        <time>1970-01-01T00:26:34.000Z</time>
      </trkpt>
      <trkpt lat="41.35828" lon="1.918245">
        <ele>442.9</ele>
        <time>1970-01-01T00:26:35.000Z</time>
      </trkpt>
      <trkpt lat="41.35828" lon="1.918245">
        <ele>442.9</ele>
        <time>1970-01-01T00:26:36.000Z</time>
      </trkpt>
      <trkpt lat="41.358338" lon="1.91826">
        <ele>442.9</ele>
        <time>1970-01-01T00:26:37.000Z</time>
      </trkpt>
      <trkpt lat="41.358338" lon="1.91826">
        <ele>442.9</ele>
        <time>1970-01-01T00:26:38.000Z</time>
      </trkpt>
      <trkpt lat="41.358385" lon="1.918288">
        <ele>442.9</ele>
        <time>1970-01-01T00:26:39.000Z</time>
      </trkpt>
      <trkpt lat="41.358385" lon="1.918288">
        <ele>441.9</ele>
        <time>1970-01-01T00:26:40.000Z</time>
      </trkpt>
      <trkpt lat="41.358423" lon="1.918322">
        <ele>441.9</ele>
        <time>1970-01-01T00:26:41.000Z</time>
      </trkpt>
      <trkpt lat="41.358423" lon="1.918322">
        <ele>441.9</ele>
        <time>1970-01-01T00:26:42.000Z</time>
      </trkpt>
      <trkpt lat="41.35846" lon="1.918347">
        <ele>441.9</ele>
        <time>1970-01-01T00:26:43.000Z</time>
      </trkpt>
      <trkpt lat="41.35846" lon="1.918347">
        <ele>441.9</ele>
        <time>1970-01-01T00:26:44.000Z</time>
      </trkpt>
      <trkpt lat="41.358498" lon="1.918357">
        <ele>441.9</ele>
        <time>1970-01-01T00:26:45.000Z</time>
      </trkpt>
      <trkpt lat="41.358498" lon="1.918357">
        <ele>441.9</ele>
        <time>1970-01-01T00:26:46.000Z</time>
      </trkpt>
      <trkpt lat="41.358538" lon="1.918362">
        <ele>441.9</ele>
        <time>1970-01-01T00:26:47.000Z</time>
      </trkpt>
      <trkpt lat="41.358538" lon="1.918362">
        <ele>441.9</ele>
        <time>1970-01-01T00:26:48.000Z</time>
      </trkpt>
      <trkpt lat="41.358597" lon="1.91837">
        <ele>441.9</ele>
        <time>1970-01-01T00:26:49.000Z</time>
      </trkpt>
      <trkpt lat="41.358597" lon="1.91837">
        <ele>441.9</ele>
        <time>1970-01-01T00:26:50.000Z</time>
      </trkpt>
      <trkpt lat="41.35866" lon="1.918373">
        <ele>441.9</ele>
        <time>1970-01-01T00:26:51.000Z</time>
      </trkpt>
      <trkpt lat="41.35866" lon="1.918373">
        <ele>441.9</ele>
        <time>1970-01-01T00:26:52.000Z</time>
      </trkpt>
      <trkpt lat="41.358723" lon="1.918387">
        <ele>441.9</ele>
        <time>1970-01-01T00:26:53.000Z</time>
      </trkpt>
      <trkpt lat="41.358753" lon="1.918402">
        <ele>441.9</ele>
        <time>1970-01-01T00:26:54.000Z</time>
      </trkpt>
      <trkpt lat="41.358753" lon="1.918402">
        <ele>441.9</ele>
        <time>1970-01-01T00:26:55.000Z</time>
      </trkpt>
      <trkpt lat="41.358813" lon="1.918432">
        <ele>441.9</ele>
        <time>1970-01-01T00:26:56.000Z</time>
      </trkpt>
      <trkpt lat="41.358813" lon="1.918432">
        <ele>441.9</ele>
        <time>1970-01-01T00:26:57.000Z</time>
      </trkpt>
      <trkpt lat="41.358878" lon="1.91846">
        <ele>441.9</ele>
        <time>1970-01-01T00:26:58.000Z</time>
      </trkpt>
      <trkpt lat="41.35891" lon="1.918475">
        <ele>441.9</ele>
        <time>1970-01-01T00:26:59.000Z</time>
      </trkpt>
      <trkpt lat="41.35891" lon="1.918475">
        <ele>441.9</ele>
        <time>1970-01-01T00:27:00.000Z</time>
      </trkpt>
      <trkpt lat="41.358977" lon="1.918493">
        <ele>441.9</ele>
        <time>1970-01-01T00:27:01.000Z</time>
      </trkpt>
      <trkpt lat="41.359012" lon="1.918503">
        <ele>441.9</ele>
        <time>1970-01-01T00:27:02.000Z</time>
      </trkpt>
      <trkpt lat="41.359012" lon="1.918503">
        <ele>441.9</ele>
        <time>1970-01-01T00:27:03.000Z</time>
      </trkpt>
      <trkpt lat="41.359077" lon="1.918545">
        <ele>441.9</ele>
        <time>1970-01-01T00:27:04.000Z</time>
      </trkpt>
      <trkpt lat="41.359077" lon="1.918545">
        <ele>441.9</ele>
        <time>1970-01-01T00:27:05.000Z</time>
      </trkpt>
      <trkpt lat="41.359132" lon="1.918593">
        <ele>441.9</ele>
        <time>1970-01-01T00:27:06.000Z</time>
      </trkpt>
      <trkpt lat="41.359132" lon="1.918593">
        <ele>441.9</ele>
        <time>1970-01-01T00:27:07.000Z</time>
      </trkpt>
      <trkpt lat="41.359177" lon="1.918645">
        <ele>441.9</ele>
        <time>1970-01-01T00:27:08.000Z</time>
      </trkpt>
      <trkpt lat="41.359177" lon="1.918645">
        <ele>441.9</ele>
        <time>1970-01-01T00:27:09.000Z</time>
      </trkpt>
      <trkpt lat="41.35923" lon="1.918687">
        <ele>441.9</ele>
        <time>1970-01-01T00:27:10.000Z</time>
      </trkpt>
      <trkpt lat="41.35923" lon="1.918687">
        <ele>441.9</ele>
        <time>1970-01-01T00:27:11.000Z</time>
      </trkpt>
      <trkpt lat="41.359273" lon="1.918707">
        <ele>441.9</ele>
        <time>1970-01-01T00:27:12.000Z</time>
      </trkpt>
      <trkpt lat="41.359293" lon="1.91872">
        <ele>441.9</ele>
        <time>1970-01-01T00:27:13.000Z</time>
      </trkpt>
      <trkpt lat="41.359293" lon="1.91872">
        <ele>442.9</ele>
        <time>1970-01-01T00:27:14.000Z</time>
      </trkpt>
      <trkpt lat="41.359333" lon="1.918758">
        <ele>442.9</ele>
        <time>1970-01-01T00:27:15.000Z</time>
      </trkpt>
      <trkpt lat="41.359333" lon="1.918758">
        <ele>442.9</ele>
        <time>1970-01-01T00:27:16.000Z</time>
      </trkpt>
      <trkpt lat="41.359368" lon="1.918793">
        <ele>442.9</ele>
        <time>1970-01-01T00:27:17.000Z</time>
      </trkpt>
      <trkpt lat="41.35938" lon="1.918805">
        <ele>442.9</ele>
        <time>1970-01-01T00:27:18.000Z</time>
      </trkpt>
      <trkpt lat="41.35938" lon="1.918805">
        <ele>442.9</ele>
        <time>1970-01-01T00:27:19.000Z</time>
      </trkpt>
      <trkpt lat="41.359392" lon="1.918813">
        <ele>442.9</ele>
        <time>1970-01-01T00:27:20.000Z</time>
      </trkpt>
      <trkpt lat="41.359392" lon="1.918813">
        <ele>442.9</ele>
        <time>1970-01-01T00:27:21.000Z</time>
      </trkpt>
      <trkpt lat="41.359392" lon="1.918813">
        <ele>442.9</ele>
        <time>1970-01-01T00:27:30.000Z</time>
      </trkpt>
      <trkpt lat="41.359352" lon="1.918785">
        <ele>442.9</ele>
        <time>1970-01-01T00:27:31.000Z</time>
      </trkpt>
      <trkpt lat="41.359352" lon="1.918785">
        <ele>442.9</ele>
        <time>1970-01-01T00:27:32.000Z</time>
      </trkpt>
      <trkpt lat="41.359312" lon="1.918752">
        <ele>442.9</ele>
        <time>1970-01-01T00:27:33.000Z</time>
      </trkpt>
      <trkpt lat="41.359285" lon="1.91873">
        <ele>442.9</ele>
        <time>1970-01-01T00:27:34.000Z</time>
      </trkpt>
      <trkpt lat="41.359285" lon="1.91873">
        <ele>442.9</ele>
        <time>1970-01-01T00:27:35.000Z</time>
      </trkpt>
      <trkpt lat="41.359255" lon="1.918702">
        <ele>442.9</ele>
        <time>1970-01-01T00:27:36.000Z</time>
      </trkpt>
      <trkpt lat="41.359255" lon="1.918702">
        <ele>442.9</ele>
        <time>1970-01-01T00:27:37.000Z</time>
      </trkpt>
      <trkpt lat="41.35922" lon="1.918672">
        <ele>442.9</ele>
        <time>1970-01-01T00:27:38.000Z</time>
      </trkpt>
      <trkpt lat="41.359218" lon="1.918665">
        <ele>442.9</ele>
        <time>1970-01-01T00:27:39.000Z</time>
      </trkpt>
      <trkpt lat="41.359218" lon="1.918665">
        <ele>442.9</ele>
        <time>1970-01-01T00:27:40.000Z</time>
      </trkpt>
      <trkpt lat="41.359223" lon="1.918665">
        <ele>442.9</ele>
        <time>1970-01-01T00:27:41.000Z</time>
      </trkpt>
      <trkpt lat="41.359227" lon="1.918663">
        <ele>442.9</ele>
        <time>1970-01-01T00:27:44.000Z</time>
      </trkpt>
      <trkpt lat="41.359227" lon="1.918663">
        <ele>442.9</ele>
        <time>1970-01-01T00:27:45.000Z</time>
      </trkpt>
      <trkpt lat="41.359227" lon="1.918663">
        <ele>442.9</ele>
        <time>1970-01-01T00:27:46.000Z</time>
      </trkpt>
      <trkpt lat="41.359227" lon="1.918663">
        <ele>444.9</ele>
        <time>1970-01-01T00:27:47.000Z</time>
      </trkpt>
      <trkpt lat="41.359227" lon="1.918663">
        <ele>444.9</ele>
        <time>1970-01-01T00:27:48.000Z</time>
      </trkpt>
      <trkpt lat="41.359227" lon="1.918663">
        <ele>442.9</ele>
        <time>1970-01-01T00:27:49.000Z</time>
      </trkpt>
      <trkpt lat="41.359227" lon="1.918663">
        <ele>442.9</ele>
        <time>1970-01-01T00:27:50.000Z</time>
      </trkpt>
      <trkpt lat="41.359227" lon="1.918663">
        <ele>442.9</ele>
        <time>1970-01-01T00:27:51.000Z</time>
      </trkpt>
      <trkpt lat="41.359227" lon="1.918663">
        <ele>442.9</ele>
        <time>1970-01-01T00:27:52.000Z</time>
      </trkpt>
      <trkpt lat="41.359227" lon="1.918663">
        <ele>441.9</ele>
        <time>1970-01-01T00:27:53.000Z</time>
      </trkpt>
      <trkpt lat="41.359227" lon="1.918663">
        <ele>441.9</ele>
        <time>1970-01-01T00:27:54.000Z</time>
      </trkpt>
      <trkpt lat="41.359227" lon="1.918663">
        <ele>441.9</ele>
        <time>1970-01-01T00:27:55.000Z</time>
      </trkpt>
      <trkpt lat="41.359227" lon="1.918663">
        <ele>441.9</ele>
        <time>1970-01-01T00:27:56.000Z</time>
      </trkpt>
      <trkpt lat="41.359227" lon="1.918663">
        <ele>441.9</ele>
        <time>1970-01-01T00:27:57.000Z</time>
      </trkpt>
      <trkpt lat="41.359227" lon="1.918663">
        <ele>441.9</ele>
        <time>1970-01-01T00:27:58.000Z</time>
      </trkpt>
      <trkpt lat="41.359227" lon="1.918663">
        <ele>441.9</ele>
        <time>1970-01-01T00:27:59.000Z</time>
      </trkpt>
      <trkpt lat="41.359227" lon="1.918663">
        <ele>441.9</ele>
        <time>1970-01-01T00:28:00.000Z</time>
      </trkpt>
      <trkpt lat="41.359227" lon="1.918663">
        <ele>441.9</ele>
        <time>1970-01-01T00:28:01.000Z</time>
      </trkpt>
      <trkpt lat="41.359227" lon="1.918663">
        <ele>441.9</ele>
        <time>1970-01-01T00:28:02.000Z</time>
      </trkpt>
      <trkpt lat="41.359227" lon="1.918663">
        <ele>440.9</ele>
        <time>1970-01-01T00:28:03.000Z</time>
      </trkpt>
      <trkpt lat="41.359227" lon="1.918663">
        <ele>440.9</ele>
        <time>1970-01-01T00:28:04.000Z</time>
      </trkpt>
      <trkpt lat="41.359227" lon="1.918663">
        <ele>443.9</ele>
        <time>1970-01-01T00:28:05.000Z</time>
      </trkpt>
      <trkpt lat="41.359227" lon="1.918663">
        <ele>443.9</ele>
        <time>1970-01-01T00:28:06.000Z</time>
      </trkpt>
      <trkpt lat="41.359227" lon="1.918663">
        <ele>442.9</ele>
        <time>1970-01-01T00:28:07.000Z</time>
      </trkpt>
      <trkpt lat="41.359227" lon="1.918663">
        <ele>442.9</ele>
        <time>1970-01-01T00:28:08.000Z</time>
      </trkpt>
      <trkpt lat="41.359227" lon="1.918663">
        <ele>442.9</ele>
        <time>1970-01-01T00:28:09.000Z</time>
      </trkpt>
      <trkpt lat="41.359227" lon="1.918663">
        <ele>442.9</ele>
        <time>1970-01-01T00:28:10.000Z</time>
      </trkpt>
      <trkpt lat="41.359227" lon="1.918663">
        <ele>441.9</ele>
        <time>1970-01-01T00:28:11.000Z</time>
      </trkpt>
      <trkpt lat="41.359197" lon="1.918605">
        <ele>441.9</ele>
        <time>1970-01-01T00:28:12.000Z</time>
      </trkpt>
      <trkpt lat="41.35918" lon="1.918597">
        <ele>441.9</ele>
        <time>1970-01-01T00:28:13.000Z</time>
      </trkpt>
      <trkpt lat="41.35918" lon="1.918597">
        <ele>441.9</ele>
        <time>1970-01-01T00:28:14.000Z</time>
      </trkpt>
      <trkpt lat="41.359135" lon="1.918588">
        <ele>441.9</ele>
        <time>1970-01-01T00:28:15.000Z</time>
      </trkpt>
      <trkpt lat="41.35911" lon="1.918573">
        <ele>441.9</ele>
        <time>1970-01-01T00:28:16.000Z</time>
      </trkpt>
      <trkpt lat="41.35911" lon="1.918573">
        <ele>441.9</ele>
        <time>1970-01-01T00:28:17.000Z</time>
      </trkpt>
      <trkpt lat="41.359057" lon="1.918543">
        <ele>441.9</ele>
        <time>1970-01-01T00:28:18.000Z</time>
      </trkpt>
      <trkpt lat="41.359028" lon="1.91853">
        <ele>441.9</ele>
        <time>1970-01-01T00:28:19.000Z</time>
      </trkpt>
      <trkpt lat="41.359028" lon="1.91853">
        <ele>441.9</ele>
        <time>1970-01-01T00:28:20.000Z</time>
      </trkpt>
      <trkpt lat="41.358973" lon="1.918522">
        <ele>441.9</ele>
        <time>1970-01-01T00:28:21.000Z</time>
      </trkpt>
      <trkpt lat="41.358943" lon="1.918512">
        <ele>441.9</ele>
        <time>1970-01-01T00:28:22.000Z</time>
      </trkpt>
      <trkpt lat="41.358913" lon="1.918495">
        <ele>441.9</ele>
        <time>1970-01-01T00:28:23.000Z</time>
      </trkpt>
      <trkpt lat="41.358913" lon="1.918495">
        <ele>441.9</ele>
        <time>1970-01-01T00:28:24.000Z</time>
      </trkpt>
      <trkpt lat="41.35886" lon="1.918458">
        <ele>441.9</ele>
        <time>1970-01-01T00:28:25.000Z</time>
      </trkpt>
      <trkpt lat="41.35886" lon="1.918458">
        <ele>441.9</ele>
        <time>1970-01-01T00:28:26.000Z</time>
      </trkpt>
      <trkpt lat="41.358815" lon="1.918433">
        <ele>441.9</ele>
        <time>1970-01-01T00:28:27.000Z</time>
      </trkpt>
      <trkpt lat="41.358815" lon="1.918433">
        <ele>441.9</ele>
        <time>1970-01-01T00:28:28.000Z</time>
      </trkpt>
      <trkpt lat="41.358773" lon="1.91841">
        <ele>441.9</ele>
        <time>1970-01-01T00:28:29.000Z</time>
      </trkpt>
      <trkpt lat="41.358773" lon="1.91841">
        <ele>441.9</ele>
        <time>1970-01-01T00:28:30.000Z</time>
      </trkpt>
      <trkpt lat="41.358732" lon="1.918393">
        <ele>441.9</ele>
        <time>1970-01-01T00:28:31.000Z</time>
      </trkpt>
      <trkpt lat="41.358712" lon="1.918387">
        <ele>441.9</ele>
        <time>1970-01-01T00:28:32.000Z</time>
      </trkpt>
      <trkpt lat="41.358712" lon="1.918387">
        <ele>441.9</ele>
        <time>1970-01-01T00:28:33.000Z</time>
      </trkpt>
      <trkpt lat="41.358673" lon="1.918387">
        <ele>441.9</ele>
        <time>1970-01-01T00:28:34.000Z</time>
      </trkpt>
      <trkpt lat="41.35866" lon="1.918403">
        <ele>441.9</ele>
        <time>1970-01-01T00:28:35.000Z</time>
      </trkpt>
      <trkpt lat="41.35866" lon="1.918403">
        <ele>441.9</ele>
        <time>1970-01-01T00:28:36.000Z</time>
      </trkpt>
      <trkpt lat="41.358653" lon="1.918452">
        <ele>441.9</ele>
        <time>1970-01-01T00:28:37.000Z</time>
      </trkpt>
      <trkpt lat="41.35865" lon="1.918478">
        <ele>441.9</ele>
        <time>1970-01-01T00:28:38.000Z</time>
      </trkpt>
      <trkpt lat="41.35865" lon="1.918478">
        <ele>441.9</ele>
        <time>1970-01-01T00:28:39.000Z</time>
      </trkpt>
      <trkpt lat="41.358655" lon="1.918538">
        <ele>441.9</ele>
        <time>1970-01-01T00:28:40.000Z</time>
      </trkpt>
      <trkpt lat="41.358655" lon="1.918538">
        <ele>441.9</ele>
        <time>1970-01-01T00:28:41.000Z</time>
      </trkpt>
      <trkpt lat="41.358678" lon="1.918575">
        <ele>441.9</ele>
        <time>1970-01-01T00:28:42.000Z</time>
      </trkpt>
      <trkpt lat="41.358678" lon="1.918575">
        <ele>441.9</ele>
        <time>1970-01-01T00:28:43.000Z</time>
      </trkpt>
      <trkpt lat="41.358692" lon="1.918613">
        <ele>441.9</ele>
        <time>1970-01-01T00:28:44.000Z</time>
      </trkpt>
      <trkpt lat="41.358692" lon="1.918613">
        <ele>441.9</ele>
        <time>1970-01-01T00:28:45.000Z</time>
      </trkpt>
      <trkpt lat="41.358722" lon="1.918665">
        <ele>441.9</ele>
        <time>1970-01-01T00:28:46.000Z</time>
      </trkpt>
      <trkpt lat="41.358722" lon="1.918665">
        <ele>441.9</ele>
        <time>1970-01-01T00:28:47.000Z</time>
      </trkpt>
      <trkpt lat="41.358767" lon="1.918723">
        <ele>441.9</ele>
        <time>1970-01-01T00:28:48.000Z</time>
      </trkpt>
      <trkpt lat="41.35879" lon="1.918752">
        <ele>441.9</ele>
        <time>1970-01-01T00:28:49.000Z</time>
      </trkpt>
      <trkpt lat="41.358812" lon="1.918782">
        <ele>441.9</ele>
        <time>1970-01-01T00:28:50.000Z</time>
      </trkpt>
      <trkpt lat="41.358812" lon="1.918782">
        <ele>441.9</ele>
        <time>1970-01-01T00:28:51.000Z</time>
      </trkpt>
      <trkpt lat="41.358857" lon="1.918842">
        <ele>441.9</ele>
        <time>1970-01-01T00:28:52.000Z</time>
      </trkpt>
      <trkpt lat="41.358857" lon="1.918842">
        <ele>441.9</ele>
        <time>1970-01-01T00:28:53.000Z</time>
      </trkpt>
      <trkpt lat="41.358893" lon="1.918907">
        <ele>441.9</ele>
        <time>1970-01-01T00:28:54.000Z</time>
      </trkpt>
      <trkpt lat="41.358915" lon="1.918942">
        <ele>441.9</ele>
        <time>1970-01-01T00:28:55.000Z</time>
      </trkpt>
      <trkpt lat="41.358915" lon="1.918942">
        <ele>441.9</ele>
        <time>1970-01-01T00:28:56.000Z</time>
      </trkpt>
      <trkpt lat="41.358965" lon="1.918992">
        <ele>441.9</ele>
        <time>1970-01-01T00:28:57.000Z</time>
      </trkpt>
      <trkpt lat="41.358965" lon="1.918992">
        <ele>441.9</ele>
        <time>1970-01-01T00:28:58.000Z</time>
      </trkpt>
      <trkpt lat="41.359025" lon="1.919013">
        <ele>441.9</ele>
        <time>1970-01-01T00:28:59.000Z</time>
      </trkpt>
      <trkpt lat="41.359025" lon="1.919013">
        <ele>440.9</ele>
        <time>1970-01-01T00:29:00.000Z</time>
      </trkpt>
      <trkpt lat="41.359087" lon="1.919022">
        <ele>440.9</ele>
        <time>1970-01-01T00:29:01.000Z</time>
      </trkpt>
      <trkpt lat="41.359112" lon="1.919025">
        <ele>440.9</ele>
        <time>1970-01-01T00:29:02.000Z</time>
      </trkpt>
      <trkpt lat="41.359112" lon="1.919025">
        <ele>440.9</ele>
        <time>1970-01-01T00:29:03.000Z</time>
      </trkpt>
      <trkpt lat="41.35916" lon="1.919042">
        <ele>440.9</ele>
        <time>1970-01-01T00:29:04.000Z</time>
      </trkpt>
      <trkpt lat="41.35918" lon="1.919053">
        <ele>440.9</ele>
        <time>1970-01-01T00:29:05.000Z</time>
      </trkpt>
      <trkpt lat="41.359202" lon="1.919063">
        <ele>440.9</ele>
        <time>1970-01-01T00:29:06.000Z</time>
      </trkpt>
      <trkpt lat="41.359202" lon="1.919063">
        <ele>440.9</ele>
        <time>1970-01-01T00:29:07.000Z</time>
      </trkpt>
      <trkpt lat="41.359247" lon="1.919087">
        <ele>440.9</ele>
        <time>1970-01-01T00:29:08.000Z</time>
      </trkpt>
      <trkpt lat="41.359247" lon="1.919087">
        <ele>440.9</ele>
        <time>1970-01-01T00:29:09.000Z</time>
      </trkpt>
      <trkpt lat="41.359292" lon="1.919118">
        <ele>440.9</ele>
        <time>1970-01-01T00:29:10.000Z</time>
      </trkpt>
      <trkpt lat="41.359292" lon="1.919118">
        <ele>440.9</ele>
        <time>1970-01-01T00:29:11.000Z</time>
      </trkpt>
      <trkpt lat="41.359327" lon="1.919175">
        <ele>440.9</ele>
        <time>1970-01-01T00:29:12.000Z</time>
      </trkpt>
      <trkpt lat="41.359327" lon="1.919175">
        <ele>440.9</ele>
        <time>1970-01-01T00:29:13.000Z</time>
      </trkpt>
      <trkpt lat="41.359382" lon="1.919218">
        <ele>440.9</ele>
        <time>1970-01-01T00:29:14.000Z</time>
      </trkpt>
      <trkpt lat="41.359382" lon="1.919218">
        <ele>440.9</ele>
        <time>1970-01-01T00:29:15.000Z</time>
      </trkpt>
      <trkpt lat="41.359418" lon="1.919262">
        <ele>440.9</ele>
        <time>1970-01-01T00:29:16.000Z</time>
      </trkpt>
      <trkpt lat="41.359418" lon="1.919262">
        <ele>440.9</ele>
        <time>1970-01-01T00:29:17.000Z</time>
      </trkpt>
      <trkpt lat="41.359445" lon="1.919295">
        <ele>440.9</ele>
        <time>1970-01-01T00:29:18.000Z</time>
      </trkpt>
      <trkpt lat="41.359445" lon="1.919295">
        <ele>439.9</ele>
        <time>1970-01-01T00:29:19.000Z</time>
      </trkpt>
      <trkpt lat="41.35947" lon="1.919337">
        <ele>439.9</ele>
        <time>1970-01-01T00:29:20.000Z</time>
      </trkpt>
      <trkpt lat="41.35947" lon="1.919337">
        <ele>439.9</ele>
        <time>1970-01-01T00:29:21.000Z</time>
      </trkpt>
      <trkpt lat="41.359495" lon="1.919372">
        <ele>439.9</ele>
        <time>1970-01-01T00:29:22.000Z</time>
      </trkpt>
      <trkpt lat="41.35951" lon="1.919403">
        <ele>439.9</ele>
        <time>1970-01-01T00:29:23.000Z</time>
      </trkpt>
      <trkpt lat="41.35951" lon="1.919403">
        <ele>439.9</ele>
        <time>1970-01-01T00:29:24.000Z</time>
      </trkpt>
      <trkpt lat="41.359535" lon="1.919475">
        <ele>439.9</ele>
        <time>1970-01-01T00:29:25.000Z</time>
      </trkpt>
      <trkpt lat="41.359547" lon="1.91951">
        <ele>439.9</ele>
        <time>1970-01-01T00:29:26.000Z</time>
      </trkpt>
      <trkpt lat="41.359547" lon="1.91951">
        <ele>439.9</ele>
        <time>1970-01-01T00:29:27.000Z</time>
      </trkpt>
      <trkpt lat="41.359568" lon="1.919563">
        <ele>439.9</ele>
        <time>1970-01-01T00:29:28.000Z</time>
      </trkpt>
      <trkpt lat="41.359568" lon="1.919563">
        <ele>439.9</ele>
        <time>1970-01-01T00:29:29.000Z</time>
      </trkpt>
      <trkpt lat="41.359592" lon="1.919622">
        <ele>439.9</ele>
        <time>1970-01-01T00:29:30.000Z</time>
      </trkpt>
      <trkpt lat="41.359612" lon="1.919653">
        <ele>439.9</ele>
        <time>1970-01-01T00:29:31.000Z</time>
      </trkpt>
      <trkpt lat="41.359612" lon="1.919653">
        <ele>439.9</ele>
        <time>1970-01-01T00:29:32.000Z</time>
      </trkpt>
      <trkpt lat="41.359658" lon="1.919713">
        <ele>439.9</ele>
        <time>1970-01-01T00:29:33.000Z</time>
      </trkpt>
      <trkpt lat="41.359658" lon="1.919713">
        <ele>439.9</ele>
        <time>1970-01-01T00:29:34.000Z</time>
      </trkpt>
      <trkpt lat="41.359702" lon="1.919763">
        <ele>439.9</ele>
        <time>1970-01-01T00:29:35.000Z</time>
      </trkpt>
      <trkpt lat="41.359702" lon="1.919763">
        <ele>439.9</ele>
        <time>1970-01-01T00:29:36.000Z</time>
      </trkpt>
      <trkpt lat="41.359743" lon="1.919818">
        <ele>439.9</ele>
        <time>1970-01-01T00:29:37.000Z</time>
      </trkpt>
      <trkpt lat="41.359743" lon="1.919818">
        <ele>439.9</ele>
        <time>1970-01-01T00:29:38.000Z</time>
      </trkpt>
      <trkpt lat="41.359788" lon="1.91988">
        <ele>439.9</ele>
        <time>1970-01-01T00:29:39.000Z</time>
      </trkpt>
      <trkpt lat="41.359788" lon="1.91988">
        <ele>439.9</ele>
        <time>1970-01-01T00:29:40.000Z</time>
      </trkpt>
      <trkpt lat="41.359808" lon="1.919943">
        <ele>439.9</ele>
        <time>1970-01-01T00:29:41.000Z</time>
      </trkpt>
      <trkpt lat="41.359808" lon="1.919943">
        <ele>439.9</ele>
        <time>1970-01-01T00:29:42.000Z</time>
      </trkpt>
      <trkpt lat="41.359808" lon="1.920017">
        <ele>439.9</ele>
        <time>1970-01-01T00:29:43.000Z</time>
      </trkpt>
      <trkpt lat="41.359808" lon="1.920017">
        <ele>439.9</ele>
        <time>1970-01-01T00:29:44.000Z</time>
      </trkpt>
      <trkpt lat="41.359792" lon="1.920107">
        <ele>439.9</ele>
        <time>1970-01-01T00:29:45.000Z</time>
      </trkpt>
      <trkpt lat="41.359792" lon="1.920107">
        <ele>439.9</ele>
        <time>1970-01-01T00:29:46.000Z</time>
      </trkpt>
      <trkpt lat="41.359788" lon="1.920205">
        <ele>439.9</ele>
        <time>1970-01-01T00:29:47.000Z</time>
      </trkpt>
      <trkpt lat="41.359788" lon="1.920205">
        <ele>439.9</ele>
        <time>1970-01-01T00:29:48.000Z</time>
      </trkpt>
      <trkpt lat="41.3598" lon="1.920283">
        <ele>439.9</ele>
        <time>1970-01-01T00:29:49.000Z</time>
      </trkpt>
      <trkpt lat="41.3598" lon="1.920283">
        <ele>439.9</ele>
        <time>1970-01-01T00:29:50.000Z</time>
      </trkpt>
      <trkpt lat="41.359813" lon="1.920353">
        <ele>439.9</ele>
        <time>1970-01-01T00:29:51.000Z</time>
      </trkpt>
      <trkpt lat="41.35982" lon="1.920393">
        <ele>439.9</ele>
        <time>1970-01-01T00:29:52.000Z</time>
      </trkpt>
      <trkpt lat="41.35982" lon="1.920393">
        <ele>439.9</ele>
        <time>1970-01-01T00:29:53.000Z</time>
      </trkpt>
      <trkpt lat="41.359828" lon="1.92046">
        <ele>439.9</ele>
        <time>1970-01-01T00:29:54.000Z</time>
      </trkpt>
      <trkpt lat="41.359828" lon="1.92049">
        <ele>439.9</ele>
        <time>1970-01-01T00:29:55.000Z</time>
      </trkpt>
      <trkpt lat="41.35983" lon="1.920525">
        <ele>439.9</ele>
        <time>1970-01-01T00:29:56.000Z</time>
      </trkpt>
      <trkpt lat="41.35983" lon="1.920525">
        <ele>439.9</ele>
        <time>1970-01-01T00:29:57.000Z</time>
      </trkpt>
      <trkpt lat="41.359843" lon="1.920602">
        <ele>439.9</ele>
        <time>1970-01-01T00:29:58.000Z</time>
      </trkpt>
      <trkpt lat="41.359843" lon="1.920602">
        <ele>439.9</ele>
        <time>1970-01-01T00:29:59.000Z</time>
      </trkpt>
      <trkpt lat="41.35986" lon="1.920683">
        <ele>439.9</ele>
        <time>1970-01-01T00:30:00.000Z</time>
      </trkpt>
      <trkpt lat="41.35986" lon="1.920683">
        <ele>439.9</ele>
        <time>1970-01-01T00:30:01.000Z</time>
      </trkpt>
      <trkpt lat="41.359872" lon="1.920762">
        <ele>439.9</ele>
        <time>1970-01-01T00:30:02.000Z</time>
      </trkpt>
      <trkpt lat="41.359872" lon="1.920762">
        <ele>439.9</ele>
        <time>1970-01-01T00:30:03.000Z</time>
      </trkpt>
      <trkpt lat="41.359883" lon="1.920832">
        <ele>439.9</ele>
        <time>1970-01-01T00:30:04.000Z</time>
      </trkpt>
      <trkpt lat="41.359883" lon="1.920832">
        <ele>439.9</ele>
        <time>1970-01-01T00:30:05.000Z</time>
      </trkpt>
      <trkpt lat="41.359907" lon="1.9209">
        <ele>439.9</ele>
        <time>1970-01-01T00:30:06.000Z</time>
      </trkpt>
      <trkpt lat="41.359907" lon="1.9209">
        <ele>439.9</ele>
        <time>1970-01-01T00:30:07.000Z</time>
      </trkpt>
      <trkpt lat="41.359928" lon="1.920965">
        <ele>439.9</ele>
        <time>1970-01-01T00:30:08.000Z</time>
      </trkpt>
      <trkpt lat="41.359928" lon="1.920965">
        <ele>439.9</ele>
        <time>1970-01-01T00:30:09.000Z</time>
      </trkpt>
      <trkpt lat="41.35994" lon="1.921035">
        <ele>439.9</ele>
        <time>1970-01-01T00:30:10.000Z</time>
      </trkpt>
      <trkpt lat="41.359947" lon="1.921067">
        <ele>439.9</ele>
        <time>1970-01-01T00:30:11.000Z</time>
      </trkpt>
      <trkpt lat="41.359947" lon="1.921067">
        <ele>439.9</ele>
        <time>1970-01-01T00:30:12.000Z</time>
      </trkpt>
      <trkpt lat="41.359958" lon="1.921128">
        <ele>439.9</ele>
        <time>1970-01-01T00:30:13.000Z</time>
      </trkpt>
      <trkpt lat="41.359958" lon="1.921128">
        <ele>439.9</ele>
        <time>1970-01-01T00:30:14.000Z</time>
      </trkpt>
      <trkpt lat="41.35998" lon="1.921183">
        <ele>439.9</ele>
        <time>1970-01-01T00:30:15.000Z</time>
      </trkpt>
      <trkpt lat="41.35998" lon="1.921183">
        <ele>440.9</ele>
        <time>1970-01-01T00:30:16.000Z</time>
      </trkpt>
      <trkpt lat="41.36001" lon="1.92125">
        <ele>440.9</ele>
        <time>1970-01-01T00:30:17.000Z</time>
      </trkpt>
      <trkpt lat="41.36001" lon="1.92125">
        <ele>440.9</ele>
        <time>1970-01-01T00:30:18.000Z</time>
      </trkpt>
      <trkpt lat="41.360043" lon="1.921332">
        <ele>440.9</ele>
        <time>1970-01-01T00:30:19.000Z</time>
      </trkpt>
      <trkpt lat="41.360055" lon="1.921372">
        <ele>440.9</ele>
        <time>1970-01-01T00:30:20.000Z</time>
      </trkpt>
      <trkpt lat="41.360055" lon="1.921372">
        <ele>440.9</ele>
        <time>1970-01-01T00:30:21.000Z</time>
      </trkpt>
      <trkpt lat="41.36008" lon="1.921448">
        <ele>440.9</ele>
        <time>1970-01-01T00:30:22.000Z</time>
      </trkpt>
      <trkpt lat="41.360092" lon="1.92148">
        <ele>440.9</ele>
        <time>1970-01-01T00:30:23.000Z</time>
      </trkpt>
      <trkpt lat="41.360092" lon="1.92148">
        <ele>440.9</ele>
        <time>1970-01-01T00:30:24.000Z</time>
      </trkpt>
      <trkpt lat="41.36012" lon="1.921552">
        <ele>440.9</ele>
        <time>1970-01-01T00:30:25.000Z</time>
      </trkpt>
      <trkpt lat="41.360142" lon="1.921587">
        <ele>440.9</ele>
        <time>1970-01-01T00:30:26.000Z</time>
      </trkpt>
      <trkpt lat="41.360142" lon="1.921587">
        <ele>440.9</ele>
        <time>1970-01-01T00:30:27.000Z</time>
      </trkpt>
      <trkpt lat="41.360177" lon="1.921658">
        <ele>440.9</ele>
        <time>1970-01-01T00:30:28.000Z</time>
      </trkpt>
      <trkpt lat="41.360187" lon="1.921698">
        <ele>440.9</ele>
        <time>1970-01-01T00:30:29.000Z</time>
      </trkpt>
      <trkpt lat="41.360193" lon="1.921738">
        <ele>440.9</ele>
        <time>1970-01-01T00:30:30.000Z</time>
      </trkpt>
      <trkpt lat="41.360193" lon="1.921738">
        <ele>440.9</ele>
        <time>1970-01-01T00:30:31.000Z</time>
      </trkpt>
      <trkpt lat="41.3602" lon="1.921825">
        <ele>440.9</ele>
        <time>1970-01-01T00:30:32.000Z</time>
      </trkpt>
      <trkpt lat="41.3602" lon="1.921825">
        <ele>440.9</ele>
        <time>1970-01-01T00:30:33.000Z</time>
      </trkpt>
      <trkpt lat="41.360222" lon="1.921897">
        <ele>440.9</ele>
        <time>1970-01-01T00:30:34.000Z</time>
      </trkpt>
      <trkpt lat="41.360233" lon="1.921923">
        <ele>440.9</ele>
        <time>1970-01-01T00:30:35.000Z</time>
      </trkpt>
      <trkpt lat="41.360233" lon="1.921923">
        <ele>440.9</ele>
        <time>1970-01-01T00:30:36.000Z</time>
      </trkpt>
      <trkpt lat="41.360252" lon="1.921977">
        <ele>440.9</ele>
        <time>1970-01-01T00:30:37.000Z</time>
      </trkpt>
      <trkpt lat="41.360262" lon="1.922005">
        <ele>439.9</ele>
        <time>1970-01-01T00:30:38.000Z</time>
      </trkpt>
      <trkpt lat="41.360262" lon="1.922005">
        <ele>439.9</ele>
        <time>1970-01-01T00:30:39.000Z</time>
      </trkpt>
      <trkpt lat="41.360272" lon="1.92208">
        <ele>439.9</ele>
        <time>1970-01-01T00:30:40.000Z</time>
      </trkpt>
      <trkpt lat="41.360272" lon="1.92208">
        <ele>439.9</ele>
        <time>1970-01-01T00:30:41.000Z</time>
      </trkpt>
      <trkpt lat="41.360298" lon="1.922157">
        <ele>439.9</ele>
        <time>1970-01-01T00:30:42.000Z</time>
      </trkpt>
      <trkpt lat="41.360298" lon="1.922157">
        <ele>439.9</ele>
        <time>1970-01-01T00:30:43.000Z</time>
      </trkpt>
      <trkpt lat="41.360322" lon="1.922227">
        <ele>439.9</ele>
        <time>1970-01-01T00:30:44.000Z</time>
      </trkpt>
      <trkpt lat="41.360322" lon="1.922227">
        <ele>439.9</ele>
        <time>1970-01-01T00:30:45.000Z</time>
      </trkpt>
      <trkpt lat="41.360327" lon="1.922298">
        <ele>439.9</ele>
        <time>1970-01-01T00:30:46.000Z</time>
      </trkpt>
      <trkpt lat="41.360325" lon="1.922338">
        <ele>439.9</ele>
        <time>1970-01-01T00:30:47.000Z</time>
      </trkpt>
      <trkpt lat="41.360325" lon="1.922338">
        <ele>439.9</ele>
        <time>1970-01-01T00:30:48.000Z</time>
      </trkpt>
      <trkpt lat="41.360317" lon="1.922413">
        <ele>439.9</ele>
        <time>1970-01-01T00:30:49.000Z</time>
      </trkpt>
      <trkpt lat="41.360317" lon="1.922458">
        <ele>439.9</ele>
        <time>1970-01-01T00:30:50.000Z</time>
      </trkpt>
      <trkpt lat="41.360317" lon="1.922458">
        <ele>439.9</ele>
        <time>1970-01-01T00:30:51.000Z</time>
      </trkpt>
      <trkpt lat="41.360338" lon="1.922547">
        <ele>439.9</ele>
        <time>1970-01-01T00:30:52.000Z</time>
      </trkpt>
      <trkpt lat="41.360352" lon="1.92258">
        <ele>439.9</ele>
        <time>1970-01-01T00:30:53.000Z</time>
      </trkpt>
      <trkpt lat="41.360352" lon="1.92258">
        <ele>439.9</ele>
        <time>1970-01-01T00:30:54.000Z</time>
      </trkpt>
      <trkpt lat="41.360378" lon="1.92263">
        <ele>439.9</ele>
        <time>1970-01-01T00:30:55.000Z</time>
      </trkpt>
      <trkpt lat="41.360405" lon="1.922668">
        <ele>439.9</ele>
        <time>1970-01-01T00:30:56.000Z</time>
      </trkpt>
      <trkpt lat="41.360405" lon="1.922668">
        <ele>439.9</ele>
        <time>1970-01-01T00:30:57.000Z</time>
      </trkpt>
      <trkpt lat="41.36046" lon="1.92274">
        <ele>439.9</ele>
        <time>1970-01-01T00:30:58.000Z</time>
      </trkpt>
      <trkpt lat="41.36046" lon="1.92274">
        <ele>439.9</ele>
        <time>1970-01-01T00:30:59.000Z</time>
      </trkpt>
      <trkpt lat="41.360507" lon="1.922823">
        <ele>439.9</ele>
        <time>1970-01-01T00:31:00.000Z</time>
      </trkpt>
      <trkpt lat="41.360532" lon="1.922863">
        <ele>439.9</ele>
        <time>1970-01-01T00:31:01.000Z</time>
      </trkpt>
      <trkpt lat="41.360532" lon="1.922863">
        <ele>439.9</ele>
        <time>1970-01-01T00:31:02.000Z</time>
      </trkpt>
      <trkpt lat="41.360562" lon="1.922945">
        <ele>439.9</ele>
        <time>1970-01-01T00:31:03.000Z</time>
      </trkpt>
      <trkpt lat="41.360562" lon="1.922945">
        <ele>439.9</ele>
        <time>1970-01-01T00:31:04.000Z</time>
      </trkpt>
      <trkpt lat="41.360575" lon="1.923023">
        <ele>439.9</ele>
        <time>1970-01-01T00:31:05.000Z</time>
      </trkpt>
      <trkpt lat="41.360583" lon="1.923068">
        <ele>439.9</ele>
        <time>1970-01-01T00:31:06.000Z</time>
      </trkpt>
      <trkpt lat="41.360583" lon="1.923068">
        <ele>439.9</ele>
        <time>1970-01-01T00:31:07.000Z</time>
      </trkpt>
      <trkpt lat="41.360613" lon="1.923145">
        <ele>439.9</ele>
        <time>1970-01-01T00:31:08.000Z</time>
      </trkpt>
      <trkpt lat="41.360613" lon="1.923145">
        <ele>439.9</ele>
        <time>1970-01-01T00:31:09.000Z</time>
      </trkpt>
      <trkpt lat="41.360647" lon="1.92322">
        <ele>439.9</ele>
        <time>1970-01-01T00:31:10.000Z</time>
      </trkpt>
      <trkpt lat="41.360647" lon="1.92322">
        <ele>439.9</ele>
        <time>1970-01-01T00:31:11.000Z</time>
      </trkpt>
      <trkpt lat="41.360675" lon="1.92329">
        <ele>439.9</ele>
        <time>1970-01-01T00:31:12.000Z</time>
      </trkpt>
      <trkpt lat="41.360675" lon="1.92329">
        <ele>439.9</ele>
        <time>1970-01-01T00:31:13.000Z</time>
      </trkpt>
      <trkpt lat="41.360705" lon="1.92336">
        <ele>439.9</ele>
        <time>1970-01-01T00:31:14.000Z</time>
      </trkpt>
      <trkpt lat="41.360705" lon="1.92336">
        <ele>439.9</ele>
        <time>1970-01-01T00:31:15.000Z</time>
      </trkpt>
      <trkpt lat="41.360747" lon="1.923412">
        <ele>439.9</ele>
        <time>1970-01-01T00:31:16.000Z</time>
      </trkpt>
      <trkpt lat="41.360765" lon="1.923437">
        <ele>439.9</ele>
        <time>1970-01-01T00:31:17.000Z</time>
      </trkpt>
      <trkpt lat="41.360765" lon="1.923437">
        <ele>439.9</ele>
        <time>1970-01-01T00:31:18.000Z</time>
      </trkpt>
      <trkpt lat="41.360795" lon="1.923492">
        <ele>439.9</ele>
        <time>1970-01-01T00:31:19.000Z</time>
      </trkpt>
      <trkpt lat="41.360808" lon="1.923508">
        <ele>439.9</ele>
        <time>1970-01-01T00:31:20.000Z</time>
      </trkpt>
      <trkpt lat="41.360808" lon="1.923508">
        <ele>439.9</ele>
        <time>1970-01-01T00:31:21.000Z</time>
      </trkpt>
      <trkpt lat="41.360813" lon="1.923563">
        <ele>439.9</ele>
        <time>1970-01-01T00:31:22.000Z</time>
      </trkpt>
      <trkpt lat="41.360813" lon="1.923563">
        <ele>439.9</ele>
        <time>1970-01-01T00:31:23.000Z</time>
      </trkpt>
      <trkpt lat="41.360823" lon="1.923633">
        <ele>439.9</ele>
        <time>1970-01-01T00:31:24.000Z</time>
      </trkpt>
      <trkpt lat="41.360823" lon="1.923633">
        <ele>439.9</ele>
        <time>1970-01-01T00:31:25.000Z</time>
      </trkpt>
      <trkpt lat="41.360833" lon="1.923708">
        <ele>439.9</ele>
        <time>1970-01-01T00:31:26.000Z</time>
      </trkpt>
      <trkpt lat="41.360833" lon="1.923708">
        <ele>439.9</ele>
        <time>1970-01-01T00:31:27.000Z</time>
      </trkpt>
      <trkpt lat="41.360847" lon="1.923787">
        <ele>439.9</ele>
        <time>1970-01-01T00:31:28.000Z</time>
      </trkpt>
      <trkpt lat="41.360847" lon="1.923787">
        <ele>439.9</ele>
        <time>1970-01-01T00:31:29.000Z</time>
      </trkpt>
      <trkpt lat="41.360855" lon="1.923862">
        <ele>439.9</ele>
        <time>1970-01-01T00:31:30.000Z</time>
      </trkpt>
      <trkpt lat="41.360858" lon="1.923895">
        <ele>439.9</ele>
        <time>1970-01-01T00:31:31.000Z</time>
      </trkpt>
      <trkpt lat="41.360862" lon="1.923932">
        <ele>439.9</ele>
        <time>1970-01-01T00:31:32.000Z</time>
      </trkpt>
      <trkpt lat="41.360862" lon="1.923932">
        <ele>439.9</ele>
        <time>1970-01-01T00:31:33.000Z</time>
      </trkpt>
      <trkpt lat="41.360872" lon="1.924003">
        <ele>439.9</ele>
        <time>1970-01-01T00:31:34.000Z</time>
      </trkpt>
      <trkpt lat="41.360872" lon="1.924003">
        <ele>439.9</ele>
        <time>1970-01-01T00:31:35.000Z</time>
      </trkpt>
      <trkpt lat="41.36088" lon="1.924067">
        <ele>439.9</ele>
        <time>1970-01-01T00:31:36.000Z</time>
      </trkpt>
      <trkpt lat="41.36088" lon="1.924067">
        <ele>441.9</ele>
        <time>1970-01-01T00:31:37.000Z</time>
      </trkpt>
      <trkpt lat="41.360895" lon="1.924123">
        <ele>441.9</ele>
        <time>1970-01-01T00:31:38.000Z</time>
      </trkpt>
      <trkpt lat="41.360908" lon="1.924148">
        <ele>441.9</ele>
        <time>1970-01-01T00:31:39.000Z</time>
      </trkpt>
      <trkpt lat="41.360908" lon="1.924148">
        <ele>441.9</ele>
        <time>1970-01-01T00:31:40.000Z</time>
      </trkpt>
      <trkpt lat="41.360937" lon="1.924202">
        <ele>441.9</ele>
        <time>1970-01-01T00:31:41.000Z</time>
      </trkpt>
      <trkpt lat="41.360937" lon="1.924202">
        <ele>441.9</ele>
        <time>1970-01-01T00:31:42.000Z</time>
      </trkpt>
      <trkpt lat="41.360962" lon="1.924262">
        <ele>441.9</ele>
        <time>1970-01-01T00:31:43.000Z</time>
      </trkpt>
      <trkpt lat="41.36098" lon="1.924287">
        <ele>441.9</ele>
        <time>1970-01-01T00:31:44.000Z</time>
      </trkpt>
      <trkpt lat="41.36098" lon="1.924287">
        <ele>442.9</ele>
        <time>1970-01-01T00:31:45.000Z</time>
      </trkpt>
      <trkpt lat="41.36102" lon="1.92432">
        <ele>442.9</ele>
        <time>1970-01-01T00:31:46.000Z</time>
      </trkpt>
      <trkpt lat="41.36102" lon="1.92432">
        <ele>442.9</ele>
        <time>1970-01-01T00:31:47.000Z</time>
      </trkpt>
      <trkpt lat="41.36107" lon="1.924355">
        <ele>442.9</ele>
        <time>1970-01-01T00:31:48.000Z</time>
      </trkpt>
      <trkpt lat="41.36107" lon="1.924355">
        <ele>442.9</ele>
        <time>1970-01-01T00:31:49.000Z</time>
      </trkpt>
      <trkpt lat="41.361115" lon="1.924405">
        <ele>442.9</ele>
        <time>1970-01-01T00:31:50.000Z</time>
      </trkpt>
      <trkpt lat="41.361115" lon="1.924405">
        <ele>442.9</ele>
        <time>1970-01-01T00:31:51.000Z</time>
      </trkpt>
      <trkpt lat="41.361145" lon="1.92447">
        <ele>442.9</ele>
        <time>1970-01-01T00:31:52.000Z</time>
      </trkpt>
      <trkpt lat="41.361147" lon="1.924502">
        <ele>442.9</ele>
        <time>1970-01-01T00:31:53.000Z</time>
      </trkpt>
      <trkpt lat="41.361147" lon="1.924502">
        <ele>442.9</ele>
        <time>1970-01-01T00:31:54.000Z</time>
      </trkpt>
      <trkpt lat="41.361147" lon="1.92456">
        <ele>442.9</ele>
        <time>1970-01-01T00:31:55.000Z</time>
      </trkpt>
      <trkpt lat="41.361143" lon="1.924587">
        <ele>442.9</ele>
        <time>1970-01-01T00:31:56.000Z</time>
      </trkpt>
      <trkpt lat="41.361143" lon="1.924587">
        <ele>443.9</ele>
        <time>1970-01-01T00:31:57.000Z</time>
      </trkpt>
      <trkpt lat="41.361122" lon="1.924627">
        <ele>443.9</ele>
        <time>1970-01-01T00:31:58.000Z</time>
      </trkpt>
      <trkpt lat="41.361107" lon="1.924645">
        <ele>443.9</ele>
        <time>1970-01-01T00:31:59.000Z</time>
      </trkpt>
      <trkpt lat="41.361107" lon="1.924645">
        <ele>443.9</ele>
        <time>1970-01-01T00:32:00.000Z</time>
      </trkpt>
      <trkpt lat="41.361083" lon="1.924667">
        <ele>443.9</ele>
        <time>1970-01-01T00:32:01.000Z</time>
      </trkpt>
      <trkpt lat="41.361072" lon="1.92467">
        <ele>443.9</ele>
        <time>1970-01-01T00:32:02.000Z</time>
      </trkpt>
      <trkpt lat="41.361072" lon="1.92467">
        <ele>444.9</ele>
        <time>1970-01-01T00:32:03.000Z</time>
      </trkpt>
      <trkpt lat="41.36103" lon="1.924677">
        <ele>444.9</ele>
        <time>1970-01-01T00:32:04.000Z</time>
      </trkpt>
      <trkpt lat="41.361007" lon="1.924682">
        <ele>444.9</ele>
        <time>1970-01-01T00:32:05.000Z</time>
      </trkpt>
      <trkpt lat="41.361007" lon="1.924682">
        <ele>444.9</ele>
        <time>1970-01-01T00:32:06.000Z</time>
      </trkpt>
      <trkpt lat="41.360963" lon="1.924697">
        <ele>444.9</ele>
        <time>1970-01-01T00:32:07.000Z</time>
      </trkpt>
      <trkpt lat="41.360942" lon="1.924703">
        <ele>444.9</ele>
        <time>1970-01-01T00:32:08.000Z</time>
      </trkpt>
      <trkpt lat="41.360942" lon="1.924703">
        <ele>444.9</ele>
        <time>1970-01-01T00:32:09.000Z</time>
      </trkpt>
      <trkpt lat="41.36091" lon="1.924715">
        <ele>444.9</ele>
        <time>1970-01-01T00:32:10.000Z</time>
      </trkpt>
      <trkpt lat="41.360893" lon="1.924722">
        <ele>444.9</ele>
        <time>1970-01-01T00:32:11.000Z</time>
      </trkpt>
      <trkpt lat="41.360893" lon="1.924722">
        <ele>444.9</ele>
        <time>1970-01-01T00:32:12.000Z</time>
      </trkpt>
      <trkpt lat="41.360875" lon="1.924737">
        <ele>444.9</ele>
        <time>1970-01-01T00:32:13.000Z</time>
      </trkpt>
      <trkpt lat="41.360872" lon="1.924738">
        <ele>444.9</ele>
        <time>1970-01-01T00:32:14.000Z</time>
      </trkpt>
      <trkpt lat="41.360872" lon="1.924738">
        <ele>444.9</ele>
        <time>1970-01-01T00:32:15.000Z</time>
      </trkpt>
      <trkpt lat="41.36087" lon="1.92474">
        <ele>444.9</ele>
        <time>1970-01-01T00:32:16.000Z</time>
      </trkpt>
      <trkpt lat="41.36087" lon="1.92474">
        <ele>445.9</ele>
        <time>1970-01-01T00:37:22.000Z</time>
      </trkpt>
      <trkpt lat="41.36087" lon="1.92474">
        <ele>445.9</ele>
        <time>1970-01-01T00:37:23.000Z</time>
      </trkpt>
      <trkpt lat="41.36087" lon="1.92474">
        <ele>443.9</ele>
        <time>1970-01-01T00:37:24.000Z</time>
      </trkpt>
      <trkpt lat="41.36087" lon="1.92474">
        <ele>443.9</ele>
        <time>1970-01-01T00:37:25.000Z</time>
      </trkpt>
      <trkpt lat="41.36087" lon="1.92474">
        <ele>444.9</ele>
        <time>1970-01-01T00:37:26.000Z</time>
      </trkpt>
      <trkpt lat="41.36087" lon="1.92474">
        <ele>444.9</ele>
        <time>1970-01-01T00:37:27.000Z</time>
      </trkpt>
      <trkpt lat="41.36087" lon="1.92474">
        <ele>444.9</ele>
        <time>1970-01-01T00:37:28.000Z</time>
      </trkpt>
      <trkpt lat="41.36087" lon="1.92474">
        <ele>444.9</ele>
        <time>1970-01-01T00:37:29.000Z</time>
      </trkpt>
      <trkpt lat="41.36087" lon="1.92474">
        <ele>444.9</ele>
        <time>1970-01-01T00:37:30.000Z</time>
      </trkpt>
      <trkpt lat="41.36087" lon="1.92474">
        <ele>444.9</ele>
        <time>1970-01-01T00:37:31.000Z</time>
      </trkpt>
      <trkpt lat="41.36087" lon="1.92474">
        <ele>444.9</ele>
        <time>1970-01-01T00:37:32.000Z</time>
      </trkpt>
      <trkpt lat="41.36087" lon="1.92474">
        <ele>444.9</ele>
        <time>1970-01-01T00:37:33.000Z</time>
      </trkpt>
      <trkpt lat="41.36087" lon="1.92474">
        <ele>443.9</ele>
        <time>1970-01-01T00:37:34.000Z</time>
      </trkpt>
      <trkpt lat="41.36087" lon="1.92474">
        <ele>443.9</ele>
        <time>1970-01-01T00:37:35.000Z</time>
      </trkpt>
      <trkpt lat="41.36087" lon="1.92474">
        <ele>443.9</ele>
        <time>1970-01-01T00:37:36.000Z</time>
      </trkpt>
      <trkpt lat="41.36087" lon="1.92474">
        <ele>443.9</ele>
        <time>1970-01-01T00:37:37.000Z</time>
      </trkpt>
      <trkpt lat="41.36087" lon="1.92474">
        <ele>443.9</ele>
        <time>1970-01-01T00:37:38.000Z</time>
      </trkpt>
      <trkpt lat="41.36087" lon="1.92474">
        <ele>443.9</ele>
        <time>1970-01-01T00:37:39.000Z</time>
      </trkpt>
      <trkpt lat="41.36087" lon="1.92474">
        <ele>443.9</ele>
        <time>1970-01-01T00:37:40.000Z</time>
      </trkpt>
      <trkpt lat="41.36087" lon="1.92474">
        <ele>444.9</ele>
        <time>1970-01-01T00:37:41.000Z</time>
      </trkpt>
      <trkpt lat="41.36087" lon="1.92474">
        <ele>444.9</ele>
        <time>1970-01-01T00:37:42.000Z</time>
      </trkpt>
      <trkpt lat="41.36087" lon="1.92474">
        <ele>444.9</ele>
        <time>1970-01-01T00:37:43.000Z</time>
      </trkpt>
      <trkpt lat="41.36087" lon="1.92474">
        <ele>444.9</ele>
        <time>1970-01-01T00:37:44.000Z</time>
      </trkpt>
      <trkpt lat="41.36087" lon="1.92474">
        <ele>444.9</ele>
        <time>1970-01-01T00:37:45.000Z</time>
      </trkpt>
      <trkpt lat="41.36087" lon="1.92474">
        <ele>444.9</ele>
        <time>1970-01-01T00:37:46.000Z</time>
      </trkpt>
      <trkpt lat="41.36087" lon="1.92474">
        <ele>444.9</ele>
        <time>1970-01-01T00:37:47.000Z</time>
      </trkpt>
      <trkpt lat="41.36087" lon="1.92474">
        <ele>444.9</ele>
        <time>1970-01-01T00:37:48.000Z</time>
      </trkpt>
      <trkpt lat="41.36087" lon="1.92474">
        <ele>444.9</ele>
        <time>1970-01-01T00:37:49.000Z</time>
      </trkpt>
      <trkpt lat="41.36087" lon="1.92474">
        <ele>444.9</ele>
        <time>1970-01-01T00:37:50.000Z</time>
      </trkpt>
      <trkpt lat="41.36087" lon="1.92474">
        <ele>444.9</ele>
        <time>1970-01-01T00:37:51.000Z</time>
      </trkpt>
      <trkpt lat="41.36087" lon="1.92474">
        <ele>444.9</ele>
        <time>1970-01-01T00:37:52.000Z</time>
      </trkpt>
      <trkpt lat="41.36087" lon="1.92474">
        <ele>444.9</ele>
        <time>1970-01-01T00:37:53.000Z</time>
      </trkpt>
      <trkpt lat="41.36087" lon="1.92474">
        <ele>444.9</ele>
        <time>1970-01-01T00:37:54.000Z</time>
      </trkpt>
      <trkpt lat="41.36087" lon="1.92474">
        <ele>444.9</ele>
        <time>1970-01-01T00:37:55.000Z</time>
      </trkpt>
      <trkpt lat="41.36087" lon="1.92474">
        <ele>444.9</ele>
        <time>1970-01-01T00:37:56.000Z</time>
      </trkpt>
      <trkpt lat="41.36087" lon="1.92474">
        <ele>444.9</ele>
        <time>1970-01-01T00:37:57.000Z</time>
      </trkpt>
      <trkpt lat="41.36087" lon="1.92474">
        <ele>444.9</ele>
        <time>1970-01-01T00:37:58.000Z</time>
      </trkpt>
      <trkpt lat="41.36087" lon="1.92474">
        <ele>444.9</ele>
        <time>1970-01-01T00:37:59.000Z</time>
      </trkpt>
      <trkpt lat="41.36087" lon="1.92474">
        <ele>444.9</ele>
        <time>1970-01-01T00:38:00.000Z</time>
      </trkpt>
      <trkpt lat="41.36087" lon="1.92474">
        <ele>444.9</ele>
        <time>1970-01-01T00:38:01.000Z</time>
      </trkpt>
      <trkpt lat="41.36087" lon="1.92474">
        <ele>444.9</ele>
        <time>1970-01-01T00:38:02.000Z</time>
      </trkpt>
      <trkpt lat="41.36087" lon="1.92474">
        <ele>444.9</ele>
        <time>1970-01-01T00:38:03.000Z</time>
      </trkpt>
      <trkpt lat="41.36087" lon="1.92474">
        <ele>444.9</ele>
        <time>1970-01-01T00:38:04.000Z</time>
      </trkpt>
      <trkpt lat="41.36087" lon="1.92474">
        <ele>444.9</ele>
        <time>1970-01-01T00:38:05.000Z</time>
      </trkpt>
      <trkpt lat="41.36087" lon="1.92474">
        <ele>444.9</ele>
        <time>1970-01-01T00:38:06.000Z</time>
      </trkpt>
      <trkpt lat="41.36087" lon="1.92474">
        <ele>444.9</ele>
        <time>1970-01-01T00:38:07.000Z</time>
      </trkpt>
      <trkpt lat="41.36087" lon="1.92474">
        <ele>444.9</ele>
        <time>1970-01-01T00:38:08.000Z</time>
      </trkpt>
      <trkpt lat="41.36087" lon="1.92474">
        <ele>443.9</ele>
        <time>1970-01-01T00:38:09.000Z</time>
      </trkpt>
      <trkpt lat="41.36087" lon="1.92474">
        <ele>443.9</ele>
        <time>1970-01-01T00:38:10.000Z</time>
      </trkpt>
      <trkpt lat="41.36087" lon="1.92474">
        <ele>443.9</ele>
        <time>1970-01-01T00:38:11.000Z</time>
      </trkpt>
      <trkpt lat="41.36087" lon="1.92474">
        <ele>443.9</ele>
        <time>1970-01-01T00:38:12.000Z</time>
      </trkpt>
      <trkpt lat="41.36087" lon="1.92474">
        <ele>443.9</ele>
        <time>1970-01-01T00:38:13.000Z</time>
      </trkpt>
      <trkpt lat="41.36087" lon="1.92474">
        <ele>443.9</ele>
        <time>1970-01-01T00:38:14.000Z</time>
      </trkpt>
      <trkpt lat="41.36087" lon="1.92474">
        <ele>443.9</ele>
        <time>1970-01-01T00:38:15.000Z</time>
      </trkpt>
      <trkpt lat="41.36087" lon="1.92474">
        <ele>443.9</ele>
        <time>1970-01-01T00:38:16.000Z</time>
      </trkpt>
      <trkpt lat="41.36087" lon="1.92474">
        <ele>443.9</ele>
        <time>1970-01-01T00:38:17.000Z</time>
      </trkpt>
      <trkpt lat="41.36087" lon="1.92474">
        <ele>443.9</ele>
        <time>1970-01-01T00:38:18.000Z</time>
      </trkpt>
      <trkpt lat="41.36087" lon="1.92474">
        <ele>443.9</ele>
        <time>1970-01-01T00:38:19.000Z</time>
      </trkpt>
      <trkpt lat="41.36087" lon="1.92474">
        <ele>443.9</ele>
        <time>1970-01-01T00:38:20.000Z</time>
      </trkpt>
      <trkpt lat="41.36087" lon="1.92474">
        <ele>443.9</ele>
        <time>1970-01-01T00:38:21.000Z</time>
      </trkpt>
      <trkpt lat="41.36087" lon="1.92474">
        <ele>443.9</ele>
        <time>1970-01-01T00:38:22.000Z</time>
      </trkpt>
      <trkpt lat="41.36087" lon="1.92474">
        <ele>443.9</ele>
        <time>1970-01-01T00:38:23.000Z</time>
      </trkpt>
      <trkpt lat="41.36087" lon="1.92474">
        <ele>443.9</ele>
        <time>1970-01-01T00:38:24.000Z</time>
      </trkpt>
      <trkpt lat="41.36087" lon="1.92474">
        <ele>443.9</ele>
        <time>1970-01-01T00:38:25.000Z</time>
      </trkpt>
      <trkpt lat="41.36087" lon="1.92474">
        <ele>443.9</ele>
        <time>1970-01-01T00:38:26.000Z</time>
      </trkpt>
      <trkpt lat="41.36087" lon="1.92474">
        <ele>443.9</ele>
        <time>1970-01-01T00:38:27.000Z</time>
      </trkpt>
      <trkpt lat="41.36087" lon="1.92474">
        <ele>444.9</ele>
        <time>1970-01-01T00:38:28.000Z</time>
      </trkpt>
      <trkpt lat="41.36087" lon="1.92474">
        <ele>444.9</ele>
        <time>1970-01-01T00:38:29.000Z</time>
      </trkpt>
      <trkpt lat="41.36087" lon="1.92474">
        <ele>444.9</ele>
        <time>1970-01-01T00:38:30.000Z</time>
      </trkpt>
      <trkpt lat="41.36087" lon="1.92474">
        <ele>444.9</ele>
        <time>1970-01-01T00:38:31.000Z</time>
      </trkpt>
      <trkpt lat="41.36087" lon="1.92474">
        <ele>444.9</ele>
        <time>1970-01-01T00:38:32.000Z</time>
      </trkpt>
      <trkpt lat="41.36087" lon="1.92474">
        <ele>444.9</ele>
        <time>1970-01-01T00:38:33.000Z</time>
      </trkpt>
      <trkpt lat="41.36087" lon="1.92474">
        <ele>444.9</ele>
        <time>1970-01-01T00:38:34.000Z</time>
      </trkpt>
      <trkpt lat="41.360827" lon="1.924803">
        <ele>444.9</ele>
        <time>1970-01-01T00:38:35.000Z</time>
      </trkpt>
      <trkpt lat="41.360827" lon="1.924803">
        <ele>444.9</ele>
        <time>1970-01-01T00:38:36.000Z</time>
      </trkpt>
      <trkpt lat="41.360808" lon="1.924818">
        <ele>444.9</ele>
        <time>1970-01-01T00:38:37.000Z</time>
      </trkpt>
      <trkpt lat="41.360808" lon="1.924818">
        <ele>444.9</ele>
        <time>1970-01-01T00:38:38.000Z</time>
      </trkpt>
      <trkpt lat="41.360782" lon="1.924812">
        <ele>444.9</ele>
        <time>1970-01-01T00:38:39.000Z</time>
      </trkpt>
      <trkpt lat="41.360782" lon="1.924812">
        <ele>444.9</ele>
        <time>1970-01-01T00:38:40.000Z</time>
      </trkpt>
      <trkpt lat="41.360763" lon="1.924822">
        <ele>444.9</ele>
        <time>1970-01-01T00:38:41.000Z</time>
      </trkpt>
      <trkpt lat="41.36075" lon="1.924838">
        <ele>444.9</ele>
        <time>1970-01-01T00:38:42.000Z</time>
      </trkpt>
      <trkpt lat="41.36075" lon="1.924838">
        <ele>444.9</ele>
        <time>1970-01-01T00:38:43.000Z</time>
      </trkpt>
      <trkpt lat="41.360713" lon="1.924877">
        <ele>444.9</ele>
        <time>1970-01-01T00:38:44.000Z</time>
      </trkpt>
      <trkpt lat="41.360713" lon="1.924877">
        <ele>444.9</ele>
        <time>1970-01-01T00:38:45.000Z</time>
      </trkpt>
      <trkpt lat="41.36068" lon="1.924925">
        <ele>444.9</ele>
        <time>1970-01-01T00:38:46.000Z</time>
      </trkpt>
      <trkpt lat="41.36068" lon="1.924925">
        <ele>444.9</ele>
        <time>1970-01-01T00:38:47.000Z</time>
      </trkpt>
      <trkpt lat="41.360642" lon="1.92498">
        <ele>444.9</ele>
        <time>1970-01-01T00:38:48.000Z</time>
      </trkpt>
      <trkpt lat="41.360642" lon="1.92498">
        <ele>444.9</ele>
        <time>1970-01-01T00:38:49.000Z</time>
      </trkpt>
      <trkpt lat="41.360607" lon="1.925035">
        <ele>444.9</ele>
        <time>1970-01-01T00:38:50.000Z</time>
      </trkpt>
      <trkpt lat="41.360607" lon="1.925035">
        <ele>444.9</ele>
        <time>1970-01-01T00:38:51.000Z</time>
      </trkpt>
      <trkpt lat="41.360582" lon="1.925072">
        <ele>444.9</ele>
        <time>1970-01-01T00:38:52.000Z</time>
      </trkpt>
      <trkpt lat="41.360582" lon="1.925072">
        <ele>444.9</ele>
        <time>1970-01-01T00:38:53.000Z</time>
      </trkpt>
      <trkpt lat="41.360553" lon="1.925107">
        <ele>444.9</ele>
        <time>1970-01-01T00:38:54.000Z</time>
      </trkpt>
      <trkpt lat="41.360553" lon="1.925107">
        <ele>444.9</ele>
        <time>1970-01-01T00:38:55.000Z</time>
      </trkpt>
      <trkpt lat="41.360528" lon="1.92516">
        <ele>444.9</ele>
        <time>1970-01-01T00:38:56.000Z</time>
      </trkpt>
      <trkpt lat="41.360528" lon="1.92516">
        <ele>445.9</ele>
        <time>1970-01-01T00:38:57.000Z</time>
      </trkpt>
      <trkpt lat="41.360508" lon="1.925193">
        <ele>445.9</ele>
        <time>1970-01-01T00:38:58.000Z</time>
      </trkpt>
      <trkpt lat="41.360508" lon="1.925193">
        <ele>445.9</ele>
        <time>1970-01-01T00:38:59.000Z</time>
      </trkpt>
      <trkpt lat="41.360485" lon="1.925237">
        <ele>445.9</ele>
        <time>1970-01-01T00:39:00.000Z</time>
      </trkpt>
      <trkpt lat="41.360485" lon="1.925237">
        <ele>445.9</ele>
        <time>1970-01-01T00:39:01.000Z</time>
      </trkpt>
      <trkpt lat="41.360452" lon="1.92528">
        <ele>445.9</ele>
        <time>1970-01-01T00:39:02.000Z</time>
      </trkpt>
      <trkpt lat="41.360452" lon="1.92528">
        <ele>445.9</ele>
        <time>1970-01-01T00:39:03.000Z</time>
      </trkpt>
      <trkpt lat="41.360413" lon="1.925305">
        <ele>445.9</ele>
        <time>1970-01-01T00:39:04.000Z</time>
      </trkpt>
      <trkpt lat="41.360413" lon="1.925305">
        <ele>445.9</ele>
        <time>1970-01-01T00:39:05.000Z</time>
      </trkpt>
      <trkpt lat="41.360373" lon="1.925332">
        <ele>445.9</ele>
        <time>1970-01-01T00:39:06.000Z</time>
      </trkpt>
      <trkpt lat="41.36035" lon="1.925338">
        <ele>445.9</ele>
        <time>1970-01-01T00:39:07.000Z</time>
      </trkpt>
      <trkpt lat="41.360332" lon="1.925347">
        <ele>445.9</ele>
        <time>1970-01-01T00:39:08.000Z</time>
      </trkpt>
      <trkpt lat="41.360332" lon="1.925347">
        <ele>445.9</ele>
        <time>1970-01-01T00:39:09.000Z</time>
      </trkpt>
      <trkpt lat="41.360283" lon="1.925353">
        <ele>445.9</ele>
        <time>1970-01-01T00:39:10.000Z</time>
      </trkpt>
      <trkpt lat="41.360255" lon="1.925363">
        <ele>445.9</ele>
        <time>1970-01-01T00:39:11.000Z</time>
      </trkpt>
      <trkpt lat="41.360255" lon="1.925363">
        <ele>445.9</ele>
        <time>1970-01-01T00:39:12.000Z</time>
      </trkpt>
      <trkpt lat="41.360202" lon="1.925383">
        <ele>445.9</ele>
        <time>1970-01-01T00:39:13.000Z</time>
      </trkpt>
      <trkpt lat="41.360182" lon="1.9254">
        <ele>445.9</ele>
        <time>1970-01-01T00:39:14.000Z</time>
      </trkpt>
      <trkpt lat="41.360182" lon="1.9254">
        <ele>445.9</ele>
        <time>1970-01-01T00:39:15.000Z</time>
      </trkpt>
      <trkpt lat="41.360137" lon="1.925432">
        <ele>445.9</ele>
        <time>1970-01-01T00:39:16.000Z</time>
      </trkpt>
      <trkpt lat="41.360117" lon="1.92545">
        <ele>445.9</ele>
        <time>1970-01-01T00:39:17.000Z</time>
      </trkpt>
      <trkpt lat="41.360117" lon="1.92545">
        <ele>445.9</ele>
        <time>1970-01-01T00:39:18.000Z</time>
      </trkpt>
      <trkpt lat="41.36008" lon="1.925482">
        <ele>445.9</ele>
        <time>1970-01-01T00:39:19.000Z</time>
      </trkpt>
      <trkpt lat="41.360068" lon="1.925493">
        <ele>445.9</ele>
        <time>1970-01-01T00:39:20.000Z</time>
      </trkpt>
      <trkpt lat="41.360068" lon="1.925493">
        <ele>445.9</ele>
        <time>1970-01-01T00:39:21.000Z</time>
      </trkpt>
      <trkpt lat="41.360042" lon="1.925513">
        <ele>445.9</ele>
        <time>1970-01-01T00:39:22.000Z</time>
      </trkpt>
      <trkpt lat="41.360042" lon="1.925513">
        <ele>445.9</ele>
        <time>1970-01-01T00:39:23.000Z</time>
      </trkpt>
      <trkpt lat="41.360002" lon="1.925555">
        <ele>445.9</ele>
        <time>1970-01-01T00:39:24.000Z</time>
      </trkpt>
      <trkpt lat="41.359973" lon="1.925585">
        <ele>445.9</ele>
        <time>1970-01-01T00:39:25.000Z</time>
      </trkpt>
      <trkpt lat="41.359973" lon="1.925585">
        <ele>445.9</ele>
        <time>1970-01-01T00:39:26.000Z</time>
      </trkpt>
      <trkpt lat="41.359928" lon="1.92563">
        <ele>445.9</ele>
        <time>1970-01-01T00:39:27.000Z</time>
      </trkpt>
      <trkpt lat="41.359928" lon="1.92563">
        <ele>445.9</ele>
        <time>1970-01-01T00:39:28.000Z</time>
      </trkpt>
      <trkpt lat="41.359888" lon="1.925663">
        <ele>445.9</ele>
        <time>1970-01-01T00:39:29.000Z</time>
      </trkpt>
      <trkpt lat="41.359873" lon="1.925685">
        <ele>445.9</ele>
        <time>1970-01-01T00:39:30.000Z</time>
      </trkpt>
      <trkpt lat="41.359873" lon="1.925685">
        <ele>445.9</ele>
        <time>1970-01-01T00:39:31.000Z</time>
      </trkpt>
      <trkpt lat="41.359847" lon="1.925748">
        <ele>444.9</ele>
        <time>1970-01-01T00:39:32.000Z</time>
      </trkpt>
      <trkpt lat="41.359847" lon="1.925748">
        <ele>444.9</ele>
        <time>1970-01-01T00:39:33.000Z</time>
      </trkpt>
      <trkpt lat="41.359855" lon="1.92582">
        <ele>444.9</ele>
        <time>1970-01-01T00:39:34.000Z</time>
      </trkpt>
      <trkpt lat="41.359855" lon="1.92582">
        <ele>444.9</ele>
        <time>1970-01-01T00:39:35.000Z</time>
      </trkpt>
      <trkpt lat="41.359892" lon="1.925877">
        <ele>443.9</ele>
        <time>1970-01-01T00:39:36.000Z</time>
      </trkpt>
      <trkpt lat="41.359892" lon="1.925877">
        <ele>443.9</ele>
        <time>1970-01-01T00:39:37.000Z</time>
      </trkpt>
      <trkpt lat="41.359953" lon="1.925955">
        <ele>442.9</ele>
        <time>1970-01-01T00:39:38.000Z</time>
      </trkpt>
      <trkpt lat="41.359953" lon="1.925955">
        <ele>442.9</ele>
        <time>1970-01-01T00:39:39.000Z</time>
      </trkpt>
      <trkpt lat="41.360027" lon="1.92605">
        <ele>441.9</ele>
        <time>1970-01-01T00:39:40.000Z</time>
      </trkpt>
      <trkpt lat="41.360075" lon="1.92609">
        <ele>441.9</ele>
        <time>1970-01-01T00:39:41.000Z</time>
      </trkpt>
      <trkpt lat="41.360075" lon="1.92609">
        <ele>441.9</ele>
        <time>1970-01-01T00:39:42.000Z</time>
      </trkpt>
      <trkpt lat="41.360187" lon="1.92617">
        <ele>441.9</ele>
        <time>1970-01-01T00:39:43.000Z</time>
      </trkpt>
      <trkpt lat="41.36025" lon="1.926203">
        <ele>439.9</ele>
        <time>1970-01-01T00:39:44.000Z</time>
      </trkpt>
      <trkpt lat="41.36025" lon="1.926203">
        <ele>437.9</ele>
        <time>1970-01-01T00:39:45.000Z</time>
      </trkpt>
      <trkpt lat="41.36037" lon="1.926273">
        <ele>437.9</ele>
        <time>1970-01-01T00:39:46.000Z</time>
      </trkpt>
      <trkpt lat="41.36037" lon="1.926273">
        <ele>436.9</ele>
        <time>1970-01-01T00:39:47.000Z</time>
      </trkpt>
      <trkpt lat="41.360492" lon="1.926362">
        <ele>436.9</ele>
        <time>1970-01-01T00:39:48.000Z</time>
      </trkpt>
      <trkpt lat="41.360492" lon="1.926362">
        <ele>434.9</ele>
        <time>1970-01-01T00:39:49.000Z</time>
      </trkpt>
      <trkpt lat="41.360607" lon="1.92646">
        <ele>434.9</ele>
        <time>1970-01-01T00:39:50.000Z</time>
      </trkpt>
      <trkpt lat="41.360667" lon="1.926505">
        <ele>433.9</ele>
        <time>1970-01-01T00:39:51.000Z</time>
      </trkpt>
      <trkpt lat="41.360667" lon="1.926505">
        <ele>433.9</ele>
        <time>1970-01-01T00:39:52.000Z</time>
      </trkpt>
      <trkpt lat="41.360777" lon="1.926578">
        <ele>432.9</ele>
        <time>1970-01-01T00:39:53.000Z</time>
      </trkpt>
      <trkpt lat="41.360822" lon="1.926618">
        <ele>432.9</ele>
        <time>1970-01-01T00:39:54.000Z</time>
      </trkpt>
      <trkpt lat="41.360822" lon="1.926618">
        <ele>432.9</ele>
        <time>1970-01-01T00:39:55.000Z</time>
      </trkpt>
      <trkpt lat="41.360905" lon="1.926707">
        <ele>432.9</ele>
        <time>1970-01-01T00:39:56.000Z</time>
      </trkpt>
      <trkpt lat="41.360905" lon="1.926707">
        <ele>430.9</ele>
        <time>1970-01-01T00:39:57.000Z</time>
      </trkpt>
      <trkpt lat="41.360987" lon="1.926803">
        <ele>430.9</ele>
        <time>1970-01-01T00:39:58.000Z</time>
      </trkpt>
      <trkpt lat="41.360987" lon="1.926803">
        <ele>429.9</ele>
        <time>1970-01-01T00:39:59.000Z</time>
      </trkpt>
      <trkpt lat="41.361062" lon="1.926903">
        <ele>429.9</ele>
        <time>1970-01-01T00:40:00.000Z</time>
      </trkpt>
      <trkpt lat="41.361062" lon="1.926903">
        <ele>427.9</ele>
        <time>1970-01-01T00:40:01.000Z</time>
      </trkpt>
      <trkpt lat="41.361123" lon="1.926998">
        <ele>427.9</ele>
        <time>1970-01-01T00:40:02.000Z</time>
      </trkpt>
      <trkpt lat="41.361123" lon="1.926998">
        <ele>425.9</ele>
        <time>1970-01-01T00:40:03.000Z</time>
      </trkpt>
      <trkpt lat="41.361155" lon="1.927093">
        <ele>425.9</ele>
        <time>1970-01-01T00:40:04.000Z</time>
      </trkpt>
      <trkpt lat="41.361155" lon="1.927093">
        <ele>423.9</ele>
        <time>1970-01-01T00:40:05.000Z</time>
      </trkpt>
      <trkpt lat="41.361127" lon="1.927167">
        <ele>423.9</ele>
        <time>1970-01-01T00:40:06.000Z</time>
      </trkpt>
      <trkpt lat="41.361127" lon="1.927167">
        <ele>422.9</ele>
        <time>1970-01-01T00:40:07.000Z</time>
      </trkpt>
      <trkpt lat="41.361068" lon="1.927213">
        <ele>422.9</ele>
        <time>1970-01-01T00:40:08.000Z</time>
      </trkpt>
      <trkpt lat="41.361068" lon="1.927213">
        <ele>422.9</ele>
        <time>1970-01-01T00:40:09.000Z</time>
      </trkpt>
      <trkpt lat="41.361007" lon="1.927205">
        <ele>422.9</ele>
        <time>1970-01-01T00:40:10.000Z</time>
      </trkpt>
      <trkpt lat="41.360968" lon="1.927195">
        <ele>420.9</ele>
        <time>1970-01-01T00:40:11.000Z</time>
      </trkpt>
      <trkpt lat="41.360968" lon="1.927195">
        <ele>420.9</ele>
        <time>1970-01-01T00:40:12.000Z</time>
      </trkpt>
      <trkpt lat="41.360848" lon="1.92718">
        <ele>419.9</ele>
        <time>1970-01-01T00:40:13.000Z</time>
      </trkpt>
      <trkpt lat="41.36078" lon="1.927175">
        <ele>419.9</ele>
        <time>1970-01-01T00:40:14.000Z</time>
      </trkpt>
      <trkpt lat="41.36078" lon="1.927175">
        <ele>418.9</ele>
        <time>1970-01-01T00:40:15.000Z</time>
      </trkpt>
      <trkpt lat="41.360647" lon="1.92715">
        <ele>418.9</ele>
        <time>1970-01-01T00:40:16.000Z</time>
      </trkpt>
      <trkpt lat="41.360578" lon="1.927127">
        <ele>416.9</ele>
        <time>1970-01-01T00:40:17.000Z</time>
      </trkpt>
      <trkpt lat="41.360578" lon="1.927127">
        <ele>416.9</ele>
        <time>1970-01-01T00:40:18.000Z</time>
      </trkpt>
      <trkpt lat="41.36046" lon="1.927087">
        <ele>415.9</ele>
        <time>1970-01-01T00:40:19.000Z</time>
      </trkpt>
      <trkpt lat="41.360398" lon="1.927078">
        <ele>415.9</ele>
        <time>1970-01-01T00:40:20.000Z</time>
      </trkpt>
      <trkpt lat="41.360398" lon="1.927078">
        <ele>413.9</ele>
        <time>1970-01-01T00:40:21.000Z</time>
      </trkpt>
      <trkpt lat="41.360282" lon="1.92712">
        <ele>413.9</ele>
        <time>1970-01-01T00:40:22.000Z</time>
      </trkpt>
      <trkpt lat="41.360282" lon="1.92712">
        <ele>412.9</ele>
        <time>1970-01-01T00:40:23.000Z</time>
      </trkpt>
      <trkpt lat="41.360195" lon="1.927238">
        <ele>412.9</ele>
        <time>1970-01-01T00:40:24.000Z</time>
      </trkpt>
      <trkpt lat="41.360175" lon="1.927295">
        <ele>412.9</ele>
        <time>1970-01-01T00:40:25.000Z</time>
      </trkpt>
      <trkpt lat="41.360175" lon="1.927295">
        <ele>412.9</ele>
        <time>1970-01-01T00:40:26.000Z</time>
      </trkpt>
      <trkpt lat="41.360142" lon="1.927418">
        <ele>411.9</ele>
        <time>1970-01-01T00:40:27.000Z</time>
      </trkpt>
      <trkpt lat="41.360142" lon="1.927418">
        <ele>410.9</ele>
        <time>1970-01-01T00:40:28.000Z</time>
      </trkpt>
      <trkpt lat="41.360132" lon="1.927527">
        <ele>410.9</ele>
        <time>1970-01-01T00:40:29.000Z</time>
      </trkpt>
      <trkpt lat="41.360132" lon="1.927527">
        <ele>409.9</ele>
        <time>1970-01-01T00:40:30.000Z</time>
      </trkpt>
      <trkpt lat="41.360173" lon="1.92763">
        <ele>409.9</ele>
        <time>1970-01-01T00:40:31.000Z</time>
      </trkpt>
      <trkpt lat="41.360173" lon="1.92763">
        <ele>408.9</ele>
        <time>1970-01-01T00:40:32.000Z</time>
      </trkpt>
      <trkpt lat="41.360228" lon="1.927713">
        <ele>408.9</ele>
        <time>1970-01-01T00:40:33.000Z</time>
      </trkpt>
      <trkpt lat="41.360228" lon="1.927713">
        <ele>407.9</ele>
        <time>1970-01-01T00:40:34.000Z</time>
      </trkpt>
      <trkpt lat="41.360322" lon="1.92777">
        <ele>407.9</ele>
        <time>1970-01-01T00:40:35.000Z</time>
      </trkpt>
      <trkpt lat="41.360322" lon="1.92777">
        <ele>406.9</ele>
        <time>1970-01-01T00:40:36.000Z</time>
      </trkpt>
      <trkpt lat="41.360428" lon="1.927842">
        <ele>406.9</ele>
        <time>1970-01-01T00:40:37.000Z</time>
      </trkpt>
      <trkpt lat="41.360428" lon="1.927842">
        <ele>405.9</ele>
        <time>1970-01-01T00:40:38.000Z</time>
      </trkpt>
      <trkpt lat="41.360553" lon="1.927908">
        <ele>405.9</ele>
        <time>1970-01-01T00:40:39.000Z</time>
      </trkpt>
      <trkpt lat="41.360553" lon="1.927908">
        <ele>403.9</ele>
        <time>1970-01-01T00:40:40.000Z</time>
      </trkpt>
      <trkpt lat="41.360655" lon="1.927943">
        <ele>403.9</ele>
        <time>1970-01-01T00:40:41.000Z</time>
      </trkpt>
      <trkpt lat="41.3607" lon="1.927947">
        <ele>402.9</ele>
        <time>1970-01-01T00:40:42.000Z</time>
      </trkpt>
      <trkpt lat="41.360728" lon="1.927952">
        <ele>402.9</ele>
        <time>1970-01-01T00:40:43.000Z</time>
      </trkpt>
      <trkpt lat="41.360728" lon="1.927952">
        <ele>400.9</ele>
        <time>1970-01-01T00:40:44.000Z</time>
      </trkpt>
      <trkpt lat="41.360758" lon="1.92795">
        <ele>400.9</ele>
        <time>1970-01-01T00:40:45.000Z</time>
      </trkpt>
      <trkpt lat="41.360758" lon="1.92795">
        <ele>399.9</ele>
        <time>1970-01-01T00:40:46.000Z</time>
      </trkpt>
      <trkpt lat="41.360753" lon="1.927943">
        <ele>399.9</ele>
        <time>1970-01-01T00:40:47.000Z</time>
      </trkpt>
      <trkpt lat="41.360753" lon="1.927943">
        <ele>399.9</ele>
        <time>1970-01-01T00:40:48.000Z</time>
      </trkpt>
      <trkpt lat="41.360743" lon="1.927953">
        <ele>399.9</ele>
        <time>1970-01-01T00:40:49.000Z</time>
      </trkpt>
      <trkpt lat="41.360743" lon="1.927953">
        <ele>398.9</ele>
        <time>1970-01-01T00:40:50.000Z</time>
      </trkpt>
      <trkpt lat="41.360743" lon="1.927953">
        <ele>398.9</ele>
        <time>1970-01-01T00:40:56.000Z</time>
      </trkpt>
      <trkpt lat="41.360702" lon="1.927958">
        <ele>398.9</ele>
        <time>1970-01-01T00:40:57.000Z</time>
      </trkpt>
      <trkpt lat="41.360702" lon="1.927958">
        <ele>398.9</ele>
        <time>1970-01-01T00:40:58.000Z</time>
      </trkpt>
      <trkpt lat="41.360678" lon="1.92796">
        <ele>398.9</ele>
        <time>1970-01-01T00:40:59.000Z</time>
      </trkpt>
      <trkpt lat="41.360678" lon="1.92796">
        <ele>398.9</ele>
        <time>1970-01-01T00:41:00.000Z</time>
      </trkpt>
      <trkpt lat="41.360647" lon="1.927953">
        <ele>398.9</ele>
        <time>1970-01-01T00:41:01.000Z</time>
      </trkpt>
      <trkpt lat="41.360647" lon="1.927953">
        <ele>398.9</ele>
        <time>1970-01-01T00:41:02.000Z</time>
      </trkpt>
      <trkpt lat="41.360613" lon="1.927942">
        <ele>400.9</ele>
        <time>1970-01-01T00:41:03.000Z</time>
      </trkpt>
      <trkpt lat="41.360597" lon="1.927935">
        <ele>400.9</ele>
        <time>1970-01-01T00:41:04.000Z</time>
      </trkpt>
      <trkpt lat="41.360597" lon="1.927935">
        <ele>400.9</ele>
        <time>1970-01-01T00:41:05.000Z</time>
      </trkpt>
      <trkpt lat="41.360567" lon="1.927922">
        <ele>400.9</ele>
        <time>1970-01-01T00:41:06.000Z</time>
      </trkpt>
      <trkpt lat="41.360548" lon="1.927912">
        <ele>400.9</ele>
        <time>1970-01-01T00:41:07.000Z</time>
      </trkpt>
      <trkpt lat="41.360548" lon="1.927912">
        <ele>400.9</ele>
        <time>1970-01-01T00:41:08.000Z</time>
      </trkpt>
      <trkpt lat="41.360515" lon="1.92789">
        <ele>400.9</ele>
        <time>1970-01-01T00:41:09.000Z</time>
      </trkpt>
      <trkpt lat="41.360515" lon="1.92789">
        <ele>400.9</ele>
        <time>1970-01-01T00:41:10.000Z</time>
      </trkpt>
      <trkpt lat="41.36048" lon="1.927878">
        <ele>400.9</ele>
        <time>1970-01-01T00:41:11.000Z</time>
      </trkpt>
      <trkpt lat="41.360462" lon="1.927877">
        <ele>400.9</ele>
        <time>1970-01-01T00:41:12.000Z</time>
      </trkpt>
      <trkpt lat="41.36044" lon="1.927872">
        <ele>402.9</ele>
        <time>1970-01-01T00:41:13.000Z</time>
      </trkpt>
      <trkpt lat="41.36044" lon="1.927872">
        <ele>402.9</ele>
        <time>1970-01-01T00:41:14.000Z</time>
      </trkpt>
      <trkpt lat="41.360395" lon="1.927855">
        <ele>402.9</ele>
        <time>1970-01-01T00:41:15.000Z</time>
      </trkpt>
      <trkpt lat="41.360395" lon="1.927855">
        <ele>402.9</ele>
        <time>1970-01-01T00:41:16.000Z</time>
      </trkpt>
      <trkpt lat="41.360358" lon="1.927833">
        <ele>403.9</ele>
        <time>1970-01-01T00:41:17.000Z</time>
      </trkpt>
      <trkpt lat="41.360358" lon="1.927833">
        <ele>403.9</ele>
        <time>1970-01-01T00:41:18.000Z</time>
      </trkpt>
      <trkpt lat="41.360313" lon="1.927818">
        <ele>404.9</ele>
        <time>1970-01-01T00:41:19.000Z</time>
      </trkpt>
      <trkpt lat="41.360313" lon="1.927818">
        <ele>404.9</ele>
        <time>1970-01-01T00:41:20.000Z</time>
      </trkpt>
      <trkpt lat="41.360282" lon="1.927803">
        <ele>404.9</ele>
        <time>1970-01-01T00:41:21.000Z</time>
      </trkpt>
      <trkpt lat="41.360265" lon="1.927802">
        <ele>404.9</ele>
        <time>1970-01-01T00:41:22.000Z</time>
      </trkpt>
      <trkpt lat="41.360265" lon="1.927802">
        <ele>404.9</ele>
        <time>1970-01-01T00:41:23.000Z</time>
      </trkpt>
      <trkpt lat="41.360223" lon="1.927808">
        <ele>404.9</ele>
        <time>1970-01-01T00:41:24.000Z</time>
      </trkpt>
      <trkpt lat="41.360203" lon="1.927818">
        <ele>404.9</ele>
        <time>1970-01-01T00:41:25.000Z</time>
      </trkpt>
      <trkpt lat="41.360183" lon="1.927832">
        <ele>404.9</ele>
        <time>1970-01-01T00:41:26.000Z</time>
      </trkpt>
      <trkpt lat="41.360183" lon="1.927832">
        <ele>404.9</ele>
        <time>1970-01-01T00:41:27.000Z</time>
      </trkpt>
      <trkpt lat="41.360142" lon="1.927842">
        <ele>404.9</ele>
        <time>1970-01-01T00:41:28.000Z</time>
      </trkpt>
      <trkpt lat="41.360142" lon="1.927842">
        <ele>404.9</ele>
        <time>1970-01-01T00:41:29.000Z</time>
      </trkpt>
      <trkpt lat="41.360092" lon="1.927847">
        <ele>404.9</ele>
        <time>1970-01-01T00:41:30.000Z</time>
      </trkpt>
      <trkpt lat="41.360092" lon="1.927847">
        <ele>404.9</ele>
        <time>1970-01-01T00:41:31.000Z</time>
      </trkpt>
      <trkpt lat="41.360045" lon="1.927868">
        <ele>404.9</ele>
        <time>1970-01-01T00:41:32.000Z</time>
      </trkpt>
      <trkpt lat="41.360027" lon="1.927883">
        <ele>404.9</ele>
        <time>1970-01-01T00:41:33.000Z</time>
      </trkpt>
      <trkpt lat="41.360027" lon="1.927883">
        <ele>404.9</ele>
        <time>1970-01-01T00:41:34.000Z</time>
      </trkpt>
      <trkpt lat="41.359982" lon="1.927915">
        <ele>404.9</ele>
        <time>1970-01-01T00:41:35.000Z</time>
      </trkpt>
      <trkpt lat="41.359982" lon="1.927915">
        <ele>404.9</ele>
        <time>1970-01-01T00:41:36.000Z</time>
      </trkpt>
      <trkpt lat="41.35995" lon="1.92796">
        <ele>404.9</ele>
        <time>1970-01-01T00:41:37.000Z</time>
      </trkpt>
      <trkpt lat="41.35995" lon="1.92796">
        <ele>404.9</ele>
        <time>1970-01-01T00:41:38.000Z</time>
      </trkpt>
      <trkpt lat="41.35992" lon="1.928025">
        <ele>404.9</ele>
        <time>1970-01-01T00:41:39.000Z</time>
      </trkpt>
      <trkpt lat="41.35992" lon="1.928025">
        <ele>404.9</ele>
        <time>1970-01-01T00:41:40.000Z</time>
      </trkpt>
      <trkpt lat="41.359902" lon="1.928103">
        <ele>404.9</ele>
        <time>1970-01-01T00:41:41.000Z</time>
      </trkpt>
      <trkpt lat="41.359902" lon="1.928103">
        <ele>404.9</ele>
        <time>1970-01-01T00:41:42.000Z</time>
      </trkpt>
      <trkpt lat="41.359888" lon="1.92818">
        <ele>404.9</ele>
        <time>1970-01-01T00:41:43.000Z</time>
      </trkpt>
      <trkpt lat="41.359888" lon="1.92818">
        <ele>404.9</ele>
        <time>1970-01-01T00:41:44.000Z</time>
      </trkpt>
      <trkpt lat="41.359865" lon="1.92825">
        <ele>404.9</ele>
        <time>1970-01-01T00:41:45.000Z</time>
      </trkpt>
      <trkpt lat="41.359865" lon="1.92825">
        <ele>404.9</ele>
        <time>1970-01-01T00:41:46.000Z</time>
      </trkpt>
      <trkpt lat="41.359835" lon="1.928308">
        <ele>404.9</ele>
        <time>1970-01-01T00:41:47.000Z</time>
      </trkpt>
      <trkpt lat="41.359835" lon="1.928308">
        <ele>404.9</ele>
        <time>1970-01-01T00:41:48.000Z</time>
      </trkpt>
      <trkpt lat="41.359813" lon="1.928348">
        <ele>404.9</ele>
        <time>1970-01-01T00:41:49.000Z</time>
      </trkpt>
      <trkpt lat="41.359813" lon="1.928348">
        <ele>404.9</ele>
        <time>1970-01-01T00:41:50.000Z</time>
      </trkpt>
      <trkpt lat="41.359787" lon="1.928412">
        <ele>404.9</ele>
        <time>1970-01-01T00:41:51.000Z</time>
      </trkpt>
      <trkpt lat="41.359787" lon="1.928412">
        <ele>404.9</ele>
        <time>1970-01-01T00:41:52.000Z</time>
      </trkpt>
      <trkpt lat="41.359743" lon="1.928498">
        <ele>404.9</ele>
        <time>1970-01-01T00:41:53.000Z</time>
      </trkpt>
      <trkpt lat="41.359743" lon="1.928498">
        <ele>404.9</ele>
        <time>1970-01-01T00:41:54.000Z</time>
      </trkpt>
      <trkpt lat="41.359677" lon="1.928577">
        <ele>404.9</ele>
        <time>1970-01-01T00:41:55.000Z</time>
      </trkpt>
      <trkpt lat="41.359677" lon="1.928577">
        <ele>404.9</ele>
        <time>1970-01-01T00:41:56.000Z</time>
      </trkpt>
      <trkpt lat="41.359613" lon="1.928632">
        <ele>404.9</ele>
        <time>1970-01-01T00:41:57.000Z</time>
      </trkpt>
      <trkpt lat="41.359613" lon="1.928632">
        <ele>404.9</ele>
        <time>1970-01-01T00:41:58.000Z</time>
      </trkpt>
      <trkpt lat="41.359547" lon="1.928692">
        <ele>403.9</ele>
        <time>1970-01-01T00:41:59.000Z</time>
      </trkpt>
      <trkpt lat="41.359547" lon="1.928692">
        <ele>403.9</ele>
        <time>1970-01-01T00:42:00.000Z</time>
      </trkpt>
      <trkpt lat="41.359465" lon="1.928798">
        <ele>403.9</ele>
        <time>1970-01-01T00:42:01.000Z</time>
      </trkpt>
      <trkpt lat="41.359423" lon="1.928863">
        <ele>403.9</ele>
        <time>1970-01-01T00:42:02.000Z</time>
      </trkpt>
      <trkpt lat="41.359423" lon="1.928863">
        <ele>402.9</ele>
        <time>1970-01-01T00:42:03.000Z</time>
      </trkpt>
      <trkpt lat="41.35933" lon="1.929">
        <ele>402.9</ele>
        <time>1970-01-01T00:42:04.000Z</time>
      </trkpt>
      <trkpt lat="41.35929" lon="1.929063">
        <ele>401.9</ele>
        <time>1970-01-01T00:42:05.000Z</time>
      </trkpt>
      <trkpt lat="41.35929" lon="1.929063">
        <ele>401.9</ele>
        <time>1970-01-01T00:42:06.000Z</time>
      </trkpt>
      <trkpt lat="41.359203" lon="1.92921">
        <ele>400.9</ele>
        <time>1970-01-01T00:42:07.000Z</time>
      </trkpt>
      <trkpt lat="41.359203" lon="1.92921">
        <ele>400.9</ele>
        <time>1970-01-01T00:42:08.000Z</time>
      </trkpt>
      <trkpt lat="41.359153" lon="1.9294">
        <ele>399.9</ele>
        <time>1970-01-01T00:42:09.000Z</time>
      </trkpt>
      <trkpt lat="41.359153" lon="1.9294">
        <ele>399.9</ele>
        <time>1970-01-01T00:42:10.000Z</time>
      </trkpt>
      <trkpt lat="41.359137" lon="1.92958">
        <ele>399.9</ele>
        <time>1970-01-01T00:42:11.000Z</time>
      </trkpt>
      <trkpt lat="41.359137" lon="1.92958">
        <ele>399.9</ele>
        <time>1970-01-01T00:42:12.000Z</time>
      </trkpt>
      <trkpt lat="41.359127" lon="1.92973">
        <ele>398.9</ele>
        <time>1970-01-01T00:42:13.000Z</time>
      </trkpt>
      <trkpt lat="41.359115" lon="1.929813">
        <ele>398.9</ele>
        <time>1970-01-01T00:42:14.000Z</time>
      </trkpt>
      <trkpt lat="41.359115" lon="1.929813">
        <ele>397.9</ele>
        <time>1970-01-01T00:42:15.000Z</time>
      </trkpt>
      <trkpt lat="41.359078" lon="1.92996">
        <ele>397.9</ele>
        <time>1970-01-01T00:42:16.000Z</time>
      </trkpt>
      <trkpt lat="41.359078" lon="1.92996">
        <ele>395.9</ele>
        <time>1970-01-01T00:42:17.000Z</time>
      </trkpt>
      <trkpt lat="41.359048" lon="1.93009">
        <ele>395.9</ele>
        <time>1970-01-01T00:42:18.000Z</time>
      </trkpt>
      <trkpt lat="41.359048" lon="1.93009">
        <ele>393.9</ele>
        <time>1970-01-01T00:42:19.000Z</time>
      </trkpt>
      <trkpt lat="41.359027" lon="1.930205">
        <ele>391.9</ele>
        <time>1970-01-01T00:42:20.000Z</time>
      </trkpt>
      <trkpt lat="41.359005" lon="1.930262">
        <ele>391.9</ele>
        <time>1970-01-01T00:42:21.000Z</time>
      </trkpt>
      <trkpt lat="41.359005" lon="1.930262">
        <ele>390.9</ele>
        <time>1970-01-01T00:42:22.000Z</time>
      </trkpt>
      <trkpt lat="41.358948" lon="1.93035">
        <ele>390.9</ele>
        <time>1970-01-01T00:42:23.000Z</time>
      </trkpt>
      <trkpt lat="41.358948" lon="1.93035">
        <ele>389.9</ele>
        <time>1970-01-01T00:42:24.000Z</time>
      </trkpt>
      <trkpt lat="41.358908" lon="1.93044">
        <ele>389.9</ele>
        <time>1970-01-01T00:42:25.000Z</time>
      </trkpt>
      <trkpt lat="41.358908" lon="1.93044">
        <ele>387.9</ele>
        <time>1970-01-01T00:42:26.000Z</time>
      </trkpt>
      <trkpt lat="41.358917" lon="1.930493">
        <ele>387.9</ele>
        <time>1970-01-01T00:42:27.000Z</time>
      </trkpt>
      <trkpt lat="41.358917" lon="1.930493">
        <ele>386.9</ele>
        <time>1970-01-01T00:42:28.000Z</time>
      </trkpt>
      <trkpt lat="41.35891" lon="1.930555">
        <ele>386.9</ele>
        <time>1970-01-01T00:42:29.000Z</time>
      </trkpt>
      <trkpt lat="41.358902" lon="1.930585">
        <ele>386.9</ele>
        <time>1970-01-01T00:42:30.000Z</time>
      </trkpt>
      <trkpt lat="41.35889" lon="1.93062">
        <ele>386.9</ele>
        <time>1970-01-01T00:42:31.000Z</time>
      </trkpt>
      <trkpt lat="41.35888" lon="1.930648">
        <ele>386.9</ele>
        <time>1970-01-01T00:42:32.000Z</time>
      </trkpt>
      <trkpt lat="41.35888" lon="1.930648">
        <ele>386.9</ele>
        <time>1970-01-01T00:42:33.000Z</time>
      </trkpt>
      <trkpt lat="41.358852" lon="1.930678">
        <ele>386.9</ele>
        <time>1970-01-01T00:42:34.000Z</time>
      </trkpt>
      <trkpt lat="41.358852" lon="1.930678">
        <ele>386.9</ele>
        <time>1970-01-01T00:42:35.000Z</time>
      </trkpt>
      <trkpt lat="41.358823" lon="1.930697">
        <ele>386.9</ele>
        <time>1970-01-01T00:42:36.000Z</time>
      </trkpt>
      <trkpt lat="41.358823" lon="1.930697">
        <ele>386.9</ele>
        <time>1970-01-01T00:42:37.000Z</time>
      </trkpt>
      <trkpt lat="41.35878" lon="1.930715">
        <ele>386.9</ele>
        <time>1970-01-01T00:42:38.000Z</time>
      </trkpt>
      <trkpt lat="41.35878" lon="1.930715">
        <ele>386.9</ele>
        <time>1970-01-01T00:42:39.000Z</time>
      </trkpt>
      <trkpt lat="41.358728" lon="1.930748">
        <ele>386.9</ele>
        <time>1970-01-01T00:42:40.000Z</time>
      </trkpt>
      <trkpt lat="41.358728" lon="1.930748">
        <ele>386.9</ele>
        <time>1970-01-01T00:42:41.000Z</time>
      </trkpt>
      <trkpt lat="41.358697" lon="1.930803">
        <ele>386.9</ele>
        <time>1970-01-01T00:42:42.000Z</time>
      </trkpt>
      <trkpt lat="41.358697" lon="1.930803">
        <ele>386.9</ele>
        <time>1970-01-01T00:42:43.000Z</time>
      </trkpt>
      <trkpt lat="41.35868" lon="1.930863">
        <ele>386.9</ele>
        <time>1970-01-01T00:42:44.000Z</time>
      </trkpt>
      <trkpt lat="41.35868" lon="1.930863">
        <ele>386.9</ele>
        <time>1970-01-01T00:42:45.000Z</time>
      </trkpt>
      <trkpt lat="41.358668" lon="1.930933">
        <ele>386.9</ele>
        <time>1970-01-01T00:42:46.000Z</time>
      </trkpt>
      <trkpt lat="41.358668" lon="1.930933">
        <ele>386.9</ele>
        <time>1970-01-01T00:42:47.000Z</time>
      </trkpt>
      <trkpt lat="41.358612" lon="1.931015">
        <ele>386.9</ele>
        <time>1970-01-01T00:42:48.000Z</time>
      </trkpt>
      <trkpt lat="41.358598" lon="1.931055">
        <ele>386.9</ele>
        <time>1970-01-01T00:42:49.000Z</time>
      </trkpt>
      <trkpt lat="41.358598" lon="1.931055">
        <ele>387.9</ele>
        <time>1970-01-01T00:42:50.000Z</time>
      </trkpt>
      <trkpt lat="41.358577" lon="1.931128">
        <ele>387.9</ele>
        <time>1970-01-01T00:42:51.000Z</time>
      </trkpt>
      <trkpt lat="41.358577" lon="1.931128">
        <ele>387.9</ele>
        <time>1970-01-01T00:42:52.000Z</time>
      </trkpt>
      <trkpt lat="41.35856" lon="1.931197">
        <ele>387.9</ele>
        <time>1970-01-01T00:42:53.000Z</time>
      </trkpt>
      <trkpt lat="41.358558" lon="1.931235">
        <ele>387.9</ele>
        <time>1970-01-01T00:42:54.000Z</time>
      </trkpt>
      <trkpt lat="41.358558" lon="1.931235">
        <ele>387.9</ele>
        <time>1970-01-01T00:42:55.000Z</time>
      </trkpt>
      <trkpt lat="41.358543" lon="1.931303">
        <ele>387.9</ele>
        <time>1970-01-01T00:42:56.000Z</time>
      </trkpt>
      <trkpt lat="41.358523" lon="1.93133">
        <ele>387.9</ele>
        <time>1970-01-01T00:42:57.000Z</time>
      </trkpt>
      <trkpt lat="41.358523" lon="1.93133">
        <ele>388.9</ele>
        <time>1970-01-01T00:42:58.000Z</time>
      </trkpt>
      <trkpt lat="41.358493" lon="1.931375">
        <ele>388.9</ele>
        <time>1970-01-01T00:42:59.000Z</time>
      </trkpt>
      <trkpt lat="41.358493" lon="1.931375">
        <ele>388.9</ele>
        <time>1970-01-01T00:43:00.000Z</time>
      </trkpt>
      <trkpt lat="41.358468" lon="1.931433">
        <ele>388.9</ele>
        <time>1970-01-01T00:43:01.000Z</time>
      </trkpt>
      <trkpt lat="41.358468" lon="1.931433">
        <ele>389.9</ele>
        <time>1970-01-01T00:43:02.000Z</time>
      </trkpt>
      <trkpt lat="41.358443" lon="1.931492">
        <ele>389.9</ele>
        <time>1970-01-01T00:43:03.000Z</time>
      </trkpt>
      <trkpt lat="41.358443" lon="1.931492">
        <ele>389.9</ele>
        <time>1970-01-01T00:43:04.000Z</time>
      </trkpt>
      <trkpt lat="41.358408" lon="1.931563">
        <ele>389.9</ele>
        <time>1970-01-01T00:43:05.000Z</time>
      </trkpt>
      <trkpt lat="41.358408" lon="1.931563">
        <ele>389.9</ele>
        <time>1970-01-01T00:43:06.000Z</time>
      </trkpt>
      <trkpt lat="41.358382" lon="1.931622">
        <ele>389.9</ele>
        <time>1970-01-01T00:43:07.000Z</time>
      </trkpt>
      <trkpt lat="41.358368" lon="1.93165">
        <ele>389.9</ele>
        <time>1970-01-01T00:43:08.000Z</time>
      </trkpt>
      <trkpt lat="41.358368" lon="1.93165">
        <ele>390.9</ele>
        <time>1970-01-01T00:43:09.000Z</time>
      </trkpt>
      <trkpt lat="41.358353" lon="1.931702">
        <ele>390.9</ele>
        <time>1970-01-01T00:43:10.000Z</time>
      </trkpt>
      <trkpt lat="41.358353" lon="1.931702">
        <ele>390.9</ele>
        <time>1970-01-01T00:43:11.000Z</time>
      </trkpt>
      <trkpt lat="41.358347" lon="1.931743">
        <ele>390.9</ele>
        <time>1970-01-01T00:43:12.000Z</time>
      </trkpt>
      <trkpt lat="41.358343" lon="1.931758">
        <ele>390.9</ele>
        <time>1970-01-01T00:43:13.000Z</time>
      </trkpt>
      <trkpt lat="41.358343" lon="1.931758">
        <ele>390.9</ele>
        <time>1970-01-01T00:43:14.000Z</time>
      </trkpt>
      <trkpt lat="41.358325" lon="1.9318">
        <ele>390.9</ele>
        <time>1970-01-01T00:43:15.000Z</time>
      </trkpt>
      <trkpt lat="41.358325" lon="1.9318">
        <ele>390.9</ele>
        <time>1970-01-01T00:43:16.000Z</time>
      </trkpt>
      <trkpt lat="41.358325" lon="1.931843">
        <ele>390.9</ele>
        <time>1970-01-01T00:43:17.000Z</time>
      </trkpt>
      <trkpt lat="41.358295" lon="1.931898">
        <ele>390.9</ele>
        <time>1970-01-01T00:43:18.000Z</time>
      </trkpt>
      <trkpt lat="41.358295" lon="1.931898">
        <ele>390.9</ele>
        <time>1970-01-01T00:43:19.000Z</time>
      </trkpt>
      <trkpt lat="41.358277" lon="1.931972">
        <ele>390.9</ele>
        <time>1970-01-01T00:43:20.000Z</time>
      </trkpt>
      <trkpt lat="41.358277" lon="1.931972">
        <ele>391.9</ele>
        <time>1970-01-01T00:43:21.000Z</time>
      </trkpt>
      <trkpt lat="41.35826" lon="1.932018">
        <ele>391.9</ele>
        <time>1970-01-01T00:43:22.000Z</time>
      </trkpt>
      <trkpt lat="41.358248" lon="1.932038">
        <ele>391.9</ele>
        <time>1970-01-01T00:43:23.000Z</time>
      </trkpt>
      <trkpt lat="41.358237" lon="1.932068">
        <ele>391.9</ele>
        <time>1970-01-01T00:43:24.000Z</time>
      </trkpt>
      <trkpt lat="41.358237" lon="1.932068">
        <ele>391.9</ele>
        <time>1970-01-01T00:43:25.000Z</time>
      </trkpt>
      <trkpt lat="41.358217" lon="1.932148">
        <ele>391.9</ele>
        <time>1970-01-01T00:43:26.000Z</time>
      </trkpt>
      <trkpt lat="41.358218" lon="1.932188">
        <ele>392.9</ele>
        <time>1970-01-01T00:43:27.000Z</time>
      </trkpt>
      <trkpt lat="41.358218" lon="1.932188">
        <ele>392.9</ele>
        <time>1970-01-01T00:43:28.000Z</time>
      </trkpt>
      <trkpt lat="41.358238" lon="1.932255">
        <ele>392.9</ele>
        <time>1970-01-01T00:43:29.000Z</time>
      </trkpt>
      <trkpt lat="41.35824" lon="1.932285">
        <ele>392.9</ele>
        <time>1970-01-01T00:43:30.000Z</time>
      </trkpt>
      <trkpt lat="41.35824" lon="1.932285">
        <ele>393.9</ele>
        <time>1970-01-01T00:43:31.000Z</time>
      </trkpt>
      <trkpt lat="41.358247" lon="1.932337">
        <ele>393.9</ele>
        <time>1970-01-01T00:43:32.000Z</time>
      </trkpt>
      <trkpt lat="41.358255" lon="1.932368">
        <ele>393.9</ele>
        <time>1970-01-01T00:43:33.000Z</time>
      </trkpt>
      <trkpt lat="41.358255" lon="1.932368">
        <ele>393.9</ele>
        <time>1970-01-01T00:43:34.000Z</time>
      </trkpt>
      <trkpt lat="41.358265" lon="1.93243">
        <ele>393.9</ele>
        <time>1970-01-01T00:43:35.000Z</time>
      </trkpt>
      <trkpt lat="41.358265" lon="1.93243">
        <ele>393.9</ele>
        <time>1970-01-01T00:43:36.000Z</time>
      </trkpt>
      <trkpt lat="41.358277" lon="1.932498">
        <ele>394.9</ele>
        <time>1970-01-01T00:43:37.000Z</time>
      </trkpt>
      <trkpt lat="41.358285" lon="1.932538">
        <ele>394.9</ele>
        <time>1970-01-01T00:43:38.000Z</time>
      </trkpt>
      <trkpt lat="41.358285" lon="1.932538">
        <ele>394.9</ele>
        <time>1970-01-01T00:43:39.000Z</time>
      </trkpt>
      <trkpt lat="41.358307" lon="1.932607">
        <ele>394.9</ele>
        <time>1970-01-01T00:43:40.000Z</time>
      </trkpt>
      <trkpt lat="41.358318" lon="1.932637">
        <ele>395.9</ele>
        <time>1970-01-01T00:43:41.000Z</time>
      </trkpt>
      <trkpt lat="41.358318" lon="1.932637">
        <ele>395.9</ele>
        <time>1970-01-01T00:43:42.000Z</time>
      </trkpt>
      <trkpt lat="41.358338" lon="1.932692">
        <ele>395.9</ele>
        <time>1970-01-01T00:43:43.000Z</time>
      </trkpt>
      <trkpt lat="41.358345" lon="1.932717">
        <ele>395.9</ele>
        <time>1970-01-01T00:43:44.000Z</time>
      </trkpt>
      <trkpt lat="41.358345" lon="1.932717">
        <ele>396.9</ele>
        <time>1970-01-01T00:43:45.000Z</time>
      </trkpt>
      <trkpt lat="41.358357" lon="1.932758">
        <ele>396.9</ele>
        <time>1970-01-01T00:43:46.000Z</time>
      </trkpt>
      <trkpt lat="41.358357" lon="1.932758">
        <ele>396.9</ele>
        <time>1970-01-01T00:43:47.000Z</time>
      </trkpt>
      <trkpt lat="41.358377" lon="1.932795">
        <ele>397.9</ele>
        <time>1970-01-01T00:43:48.000Z</time>
      </trkpt>
      <trkpt lat="41.358377" lon="1.932795">
        <ele>397.9</ele>
        <time>1970-01-01T00:43:49.000Z</time>
      </trkpt>
      <trkpt lat="41.3584" lon="1.932867">
        <ele>397.9</ele>
        <time>1970-01-01T00:43:50.000Z</time>
      </trkpt>
      <trkpt lat="41.3584" lon="1.932867">
        <ele>397.9</ele>
        <time>1970-01-01T00:43:51.000Z</time>
      </trkpt>
      <trkpt lat="41.358437" lon="1.93296">
        <ele>397.9</ele>
        <time>1970-01-01T00:43:52.000Z</time>
      </trkpt>
      <trkpt lat="41.358457" lon="1.933013">
        <ele>397.9</ele>
        <time>1970-01-01T00:43:53.000Z</time>
      </trkpt>
      <trkpt lat="41.358457" lon="1.933013">
        <ele>397.9</ele>
        <time>1970-01-01T00:43:54.000Z</time>
      </trkpt>
      <trkpt lat="41.358513" lon="1.933108">
        <ele>397.9</ele>
        <time>1970-01-01T00:43:55.000Z</time>
      </trkpt>
      <trkpt lat="41.358513" lon="1.933108">
        <ele>396.9</ele>
        <time>1970-01-01T00:43:56.000Z</time>
      </trkpt>
      <trkpt lat="41.358582" lon="1.933193">
        <ele>396.9</ele>
        <time>1970-01-01T00:43:57.000Z</time>
      </trkpt>
      <trkpt lat="41.358582" lon="1.933193">
        <ele>396.9</ele>
        <time>1970-01-01T00:43:58.000Z</time>
      </trkpt>
      <trkpt lat="41.358673" lon="1.933265">
        <ele>396.9</ele>
        <time>1970-01-01T00:43:59.000Z</time>
      </trkpt>
      <trkpt lat="41.358673" lon="1.933265">
        <ele>395.9</ele>
        <time>1970-01-01T00:44:00.000Z</time>
      </trkpt>
      <trkpt lat="41.358732" lon="1.933373">
        <ele>395.9</ele>
        <time>1970-01-01T00:44:01.000Z</time>
      </trkpt>
      <trkpt lat="41.358732" lon="1.933373">
        <ele>394.9</ele>
        <time>1970-01-01T00:44:02.000Z</time>
      </trkpt>
      <trkpt lat="41.358747" lon="1.933542">
        <ele>394.9</ele>
        <time>1970-01-01T00:44:03.000Z</time>
      </trkpt>
      <trkpt lat="41.358757" lon="1.933622">
        <ele>394.9</ele>
        <time>1970-01-01T00:44:04.000Z</time>
      </trkpt>
      <trkpt lat="41.358757" lon="1.933622">
        <ele>394.9</ele>
        <time>1970-01-01T00:44:05.000Z</time>
      </trkpt>
      <trkpt lat="41.358803" lon="1.933772">
        <ele>393.9</ele>
        <time>1970-01-01T00:44:06.000Z</time>
      </trkpt>
      <trkpt lat="41.358833" lon="1.93384">
        <ele>393.9</ele>
        <time>1970-01-01T00:44:07.000Z</time>
      </trkpt>
      <trkpt lat="41.358833" lon="1.93384">
        <ele>393.9</ele>
        <time>1970-01-01T00:44:08.000Z</time>
      </trkpt>
      <trkpt lat="41.35889" lon="1.933973">
        <ele>393.9</ele>
        <time>1970-01-01T00:44:09.000Z</time>
      </trkpt>
      <trkpt lat="41.35889" lon="1.933973">
        <ele>393.9</ele>
        <time>1970-01-01T00:44:10.000Z</time>
      </trkpt>
      <trkpt lat="41.35893" lon="1.93406">
        <ele>393.9</ele>
        <time>1970-01-01T00:44:11.000Z</time>
      </trkpt>
      <trkpt lat="41.358947" lon="1.934088">
        <ele>392.9</ele>
        <time>1970-01-01T00:44:12.000Z</time>
      </trkpt>
      <trkpt lat="41.358962" lon="1.934118">
        <ele>392.9</ele>
        <time>1970-01-01T00:44:13.000Z</time>
      </trkpt>
      <trkpt lat="41.358977" lon="1.934143">
        <ele>392.9</ele>
        <time>1970-01-01T00:44:14.000Z</time>
      </trkpt>
      <trkpt lat="41.358977" lon="1.934143">
        <ele>392.9</ele>
        <time>1970-01-01T00:44:15.000Z</time>
      </trkpt>
      <trkpt lat="41.359007" lon="1.934173">
        <ele>392.9</ele>
        <time>1970-01-01T00:44:16.000Z</time>
      </trkpt>
      <trkpt lat="41.359023" lon="1.934188">
        <ele>392.9</ele>
        <time>1970-01-01T00:44:17.000Z</time>
      </trkpt>
      <trkpt lat="41.359045" lon="1.934203">
        <ele>392.9</ele>
        <time>1970-01-01T00:44:18.000Z</time>
      </trkpt>
      <trkpt lat="41.359045" lon="1.934203">
        <ele>392.9</ele>
        <time>1970-01-01T00:44:19.000Z</time>
      </trkpt>
      <trkpt lat="41.359068" lon="1.934215">
        <ele>393.9</ele>
        <time>1970-01-01T00:44:20.000Z</time>
      </trkpt>
      <trkpt lat="41.359078" lon="1.934227">
        <ele>393.9</ele>
        <time>1970-01-01T00:44:21.000Z</time>
      </trkpt>
      <trkpt lat="41.359078" lon="1.934227">
        <ele>393.9</ele>
        <time>1970-01-01T00:44:22.000Z</time>
      </trkpt>
      <trkpt lat="41.359117" lon="1.93427">
        <ele>393.9</ele>
        <time>1970-01-01T00:44:23.000Z</time>
      </trkpt>
      <trkpt lat="41.359135" lon="1.934285">
        <ele>394.9</ele>
        <time>1970-01-01T00:44:24.000Z</time>
      </trkpt>
      <trkpt lat="41.359135" lon="1.934285">
        <ele>394.9</ele>
        <time>1970-01-01T00:44:25.000Z</time>
      </trkpt>
      <trkpt lat="41.359162" lon="1.934315">
        <ele>394.9</ele>
        <time>1970-01-01T00:44:26.000Z</time>
      </trkpt>
      <trkpt lat="41.359178" lon="1.934332">
        <ele>394.9</ele>
        <time>1970-01-01T00:44:27.000Z</time>
      </trkpt>
      <trkpt lat="41.359178" lon="1.934332">
        <ele>395.9</ele>
        <time>1970-01-01T00:44:28.000Z</time>
      </trkpt>
      <trkpt lat="41.35921" lon="1.93436">
        <ele>395.9</ele>
        <time>1970-01-01T00:44:29.000Z</time>
      </trkpt>
      <trkpt lat="41.35921" lon="1.93436">
        <ele>395.9</ele>
        <time>1970-01-01T00:44:30.000Z</time>
      </trkpt>
      <trkpt lat="41.359238" lon="1.934393">
        <ele>396.9</ele>
        <time>1970-01-01T00:44:31.000Z</time>
      </trkpt>
      <trkpt lat="41.359238" lon="1.934393">
        <ele>396.9</ele>
        <time>1970-01-01T00:44:32.000Z</time>
      </trkpt>
      <trkpt lat="41.359265" lon="1.934423">
        <ele>396.9</ele>
        <time>1970-01-01T00:44:33.000Z</time>
      </trkpt>
      <trkpt lat="41.359283" lon="1.934445">
        <ele>396.9</ele>
        <time>1970-01-01T00:44:34.000Z</time>
      </trkpt>
      <trkpt lat="41.359283" lon="1.934445">
        <ele>397.9</ele>
        <time>1970-01-01T00:44:35.000Z</time>
      </trkpt>
      <trkpt lat="41.359318" lon="1.934488">
        <ele>397.9</ele>
        <time>1970-01-01T00:44:36.000Z</time>
      </trkpt>
      <trkpt lat="41.359318" lon="1.934488">
        <ele>397.9</ele>
        <time>1970-01-01T00:44:37.000Z</time>
      </trkpt>
      <trkpt lat="41.359355" lon="1.934527">
        <ele>397.9</ele>
        <time>1970-01-01T00:44:38.000Z</time>
      </trkpt>
      <trkpt lat="41.35937" lon="1.934547">
        <ele>397.9</ele>
        <time>1970-01-01T00:44:39.000Z</time>
      </trkpt>
      <trkpt lat="41.35937" lon="1.934547">
        <ele>397.9</ele>
        <time>1970-01-01T00:44:40.000Z</time>
      </trkpt>
      <trkpt lat="41.359398" lon="1.934583">
        <ele>398.9</ele>
        <time>1970-01-01T00:44:41.000Z</time>
      </trkpt>
      <trkpt lat="41.359398" lon="1.934583">
        <ele>398.9</ele>
        <time>1970-01-01T00:44:42.000Z</time>
      </trkpt>
      <trkpt lat="41.35942" lon="1.934613">
        <ele>399.9</ele>
        <time>1970-01-01T00:44:43.000Z</time>
      </trkpt>
      <trkpt lat="41.35943" lon="1.934628">
        <ele>399.9</ele>
        <time>1970-01-01T00:44:44.000Z</time>
      </trkpt>
      <trkpt lat="41.35943" lon="1.934628">
        <ele>399.9</ele>
        <time>1970-01-01T00:44:45.000Z</time>
      </trkpt>
      <trkpt lat="41.359452" lon="1.934668">
        <ele>399.9</ele>
        <time>1970-01-01T00:44:46.000Z</time>
      </trkpt>
      <trkpt lat="41.359452" lon="1.934668">
        <ele>400.9</ele>
        <time>1970-01-01T00:44:47.000Z</time>
      </trkpt>
      <trkpt lat="41.359478" lon="1.93472">
        <ele>400.9</ele>
        <time>1970-01-01T00:44:48.000Z</time>
      </trkpt>
      <trkpt lat="41.359478" lon="1.93472">
        <ele>400.9</ele>
        <time>1970-01-01T00:44:49.000Z</time>
      </trkpt>
      <trkpt lat="41.3595" lon="1.934775">
        <ele>400.9</ele>
        <time>1970-01-01T00:44:50.000Z</time>
      </trkpt>
      <trkpt lat="41.3595" lon="1.934775">
        <ele>400.9</ele>
        <time>1970-01-01T00:44:51.000Z</time>
      </trkpt>
      <trkpt lat="41.35951" lon="1.934832">
        <ele>400.9</ele>
        <time>1970-01-01T00:44:52.000Z</time>
      </trkpt>
      <trkpt lat="41.35951" lon="1.934832">
        <ele>401.9</ele>
        <time>1970-01-01T00:44:53.000Z</time>
      </trkpt>
      <trkpt lat="41.359523" lon="1.934875">
        <ele>401.9</ele>
        <time>1970-01-01T00:44:54.000Z</time>
      </trkpt>
      <trkpt lat="41.359523" lon="1.934875">
        <ele>402.9</ele>
        <time>1970-01-01T00:44:55.000Z</time>
      </trkpt>
      <trkpt lat="41.359532" lon="1.934907">
        <ele>402.9</ele>
        <time>1970-01-01T00:44:56.000Z</time>
      </trkpt>
      <trkpt lat="41.359533" lon="1.934933">
        <ele>402.9</ele>
        <time>1970-01-01T00:44:57.000Z</time>
      </trkpt>
      <trkpt lat="41.359533" lon="1.934933">
        <ele>402.9</ele>
        <time>1970-01-01T00:44:58.000Z</time>
      </trkpt>
      <trkpt lat="41.359533" lon="1.934988">
        <ele>403.9</ele>
        <time>1970-01-01T00:44:59.000Z</time>
      </trkpt>
      <trkpt lat="41.35953" lon="1.935018">
        <ele>403.9</ele>
        <time>1970-01-01T00:45:00.000Z</time>
      </trkpt>
      <trkpt lat="41.35953" lon="1.935018">
        <ele>403.9</ele>
        <time>1970-01-01T00:45:01.000Z</time>
      </trkpt>
      <trkpt lat="41.359515" lon="1.935077">
        <ele>403.9</ele>
        <time>1970-01-01T00:45:02.000Z</time>
      </trkpt>
      <trkpt lat="41.359515" lon="1.935077">
        <ele>403.9</ele>
        <time>1970-01-01T00:45:03.000Z</time>
      </trkpt>
      <trkpt lat="41.35949" lon="1.935138">
        <ele>403.9</ele>
        <time>1970-01-01T00:45:04.000Z</time>
      </trkpt>
      <trkpt lat="41.359478" lon="1.935168">
        <ele>404.9</ele>
        <time>1970-01-01T00:45:05.000Z</time>
      </trkpt>
      <trkpt lat="41.359478" lon="1.935168">
        <ele>404.9</ele>
        <time>1970-01-01T00:45:06.000Z</time>
      </trkpt>
      <trkpt lat="41.359447" lon="1.935222">
        <ele>404.9</ele>
        <time>1970-01-01T00:45:07.000Z</time>
      </trkpt>
      <trkpt lat="41.359427" lon="1.935247">
        <ele>404.9</ele>
        <time>1970-01-01T00:45:08.000Z</time>
      </trkpt>
      <trkpt lat="41.359427" lon="1.935247">
        <ele>404.9</ele>
        <time>1970-01-01T00:45:09.000Z</time>
      </trkpt>
      <trkpt lat="41.359387" lon="1.935287">
        <ele>404.9</ele>
        <time>1970-01-01T00:45:10.000Z</time>
      </trkpt>
      <trkpt lat="41.359387" lon="1.935287">
        <ele>404.9</ele>
        <time>1970-01-01T00:45:11.000Z</time>
      </trkpt>
      <trkpt lat="41.35935" lon="1.935323">
        <ele>404.9</ele>
        <time>1970-01-01T00:45:12.000Z</time>
      </trkpt>
      <trkpt lat="41.35935" lon="1.935323">
        <ele>404.9</ele>
        <time>1970-01-01T00:45:13.000Z</time>
      </trkpt>
      <trkpt lat="41.35931" lon="1.935362">
        <ele>404.9</ele>
        <time>1970-01-01T00:45:14.000Z</time>
      </trkpt>
      <trkpt lat="41.35931" lon="1.935362">
        <ele>404.9</ele>
        <time>1970-01-01T00:45:15.000Z</time>
      </trkpt>
      <trkpt lat="41.35927" lon="1.935415">
        <ele>405.9</ele>
        <time>1970-01-01T00:45:16.000Z</time>
      </trkpt>
      <trkpt lat="41.35927" lon="1.935415">
        <ele>405.9</ele>
        <time>1970-01-01T00:45:17.000Z</time>
      </trkpt>
      <trkpt lat="41.359232" lon="1.935467">
        <ele>405.9</ele>
        <time>1970-01-01T00:45:18.000Z</time>
      </trkpt>
      <trkpt lat="41.359232" lon="1.935467">
        <ele>405.9</ele>
        <time>1970-01-01T00:45:19.000Z</time>
      </trkpt>
      <trkpt lat="41.359183" lon="1.935508">
        <ele>405.9</ele>
        <time>1970-01-01T00:45:20.000Z</time>
      </trkpt>
      <trkpt lat="41.359162" lon="1.935522">
        <ele>405.9</ele>
        <time>1970-01-01T00:45:21.000Z</time>
      </trkpt>
      <trkpt lat="41.359162" lon="1.935522">
        <ele>405.9</ele>
        <time>1970-01-01T00:45:22.000Z</time>
      </trkpt>
      <trkpt lat="41.359117" lon="1.935533">
        <ele>405.9</ele>
        <time>1970-01-01T00:45:23.000Z</time>
      </trkpt>
      <trkpt lat="41.359093" lon="1.935535">
        <ele>406.9</ele>
        <time>1970-01-01T00:45:24.000Z</time>
      </trkpt>
      <trkpt lat="41.359093" lon="1.935535">
        <ele>406.9</ele>
        <time>1970-01-01T00:45:25.000Z</time>
      </trkpt>
      <trkpt lat="41.359052" lon="1.935522">
        <ele>406.9</ele>
        <time>1970-01-01T00:45:26.000Z</time>
      </trkpt>
      <trkpt lat="41.359052" lon="1.935522">
        <ele>406.9</ele>
        <time>1970-01-01T00:45:27.000Z</time>
      </trkpt>
      <trkpt lat="41.35901" lon="1.935502">
        <ele>406.9</ele>
        <time>1970-01-01T00:45:28.000Z</time>
      </trkpt>
      <trkpt lat="41.35901" lon="1.935502">
        <ele>406.9</ele>
        <time>1970-01-01T00:45:29.000Z</time>
      </trkpt>
      <trkpt lat="41.358972" lon="1.93548">
        <ele>407.9</ele>
        <time>1970-01-01T00:45:30.000Z</time>
      </trkpt>
      <trkpt lat="41.358955" lon="1.935472">
        <ele>407.9</ele>
        <time>1970-01-01T00:45:31.000Z</time>
      </trkpt>
      <trkpt lat="41.358955" lon="1.935472">
        <ele>407.9</ele>
        <time>1970-01-01T00:45:32.000Z</time>
      </trkpt>
      <trkpt lat="41.35892" lon="1.935448">
        <ele>407.9</ele>
        <time>1970-01-01T00:45:33.000Z</time>
      </trkpt>
      <trkpt lat="41.35892" lon="1.935448">
        <ele>408.9</ele>
        <time>1970-01-01T00:45:34.000Z</time>
      </trkpt>
      <trkpt lat="41.358887" lon="1.935433">
        <ele>408.9</ele>
        <time>1970-01-01T00:45:35.000Z</time>
      </trkpt>
      <trkpt lat="41.358873" lon="1.935413">
        <ele>408.9</ele>
        <time>1970-01-01T00:45:36.000Z</time>
      </trkpt>
      <trkpt lat="41.358873" lon="1.935413">
        <ele>408.9</ele>
        <time>1970-01-01T00:45:37.000Z</time>
      </trkpt>
      <trkpt lat="41.358842" lon="1.935387">
        <ele>408.9</ele>
        <time>1970-01-01T00:45:38.000Z</time>
      </trkpt>
      <trkpt lat="41.358827" lon="1.935375">
        <ele>408.9</ele>
        <time>1970-01-01T00:45:39.000Z</time>
      </trkpt>
      <trkpt lat="41.358827" lon="1.935375">
        <ele>409.9</ele>
        <time>1970-01-01T00:45:40.000Z</time>
      </trkpt>
      <trkpt lat="41.358797" lon="1.935355">
        <ele>409.9</ele>
        <time>1970-01-01T00:45:41.000Z</time>
      </trkpt>
      <trkpt lat="41.358777" lon="1.935353">
        <ele>409.9</ele>
        <time>1970-01-01T00:45:42.000Z</time>
      </trkpt>
      <trkpt lat="41.358777" lon="1.935353">
        <ele>409.9</ele>
        <time>1970-01-01T00:45:43.000Z</time>
      </trkpt>
      <trkpt lat="41.358737" lon="1.935353">
        <ele>410.9</ele>
        <time>1970-01-01T00:45:44.000Z</time>
      </trkpt>
      <trkpt lat="41.358737" lon="1.935353">
        <ele>410.9</ele>
        <time>1970-01-01T00:45:45.000Z</time>
      </trkpt>
      <trkpt lat="41.358693" lon="1.935363">
        <ele>410.9</ele>
        <time>1970-01-01T00:45:46.000Z</time>
      </trkpt>
      <trkpt lat="41.358693" lon="1.935363">
        <ele>410.9</ele>
        <time>1970-01-01T00:45:47.000Z</time>
      </trkpt>
      <trkpt lat="41.35865" lon="1.935387">
        <ele>410.9</ele>
        <time>1970-01-01T00:45:48.000Z</time>
      </trkpt>
      <trkpt lat="41.35865" lon="1.935387">
        <ele>410.9</ele>
        <time>1970-01-01T00:45:49.000Z</time>
      </trkpt>
      <trkpt lat="41.35859" lon="1.935447">
        <ele>410.9</ele>
        <time>1970-01-01T00:45:50.000Z</time>
      </trkpt>
      <trkpt lat="41.35859" lon="1.935447">
        <ele>410.9</ele>
        <time>1970-01-01T00:45:51.000Z</time>
      </trkpt>
      <trkpt lat="41.358515" lon="1.935522">
        <ele>410.9</ele>
        <time>1970-01-01T00:45:52.000Z</time>
      </trkpt>
      <trkpt lat="41.358515" lon="1.935522">
        <ele>410.9</ele>
        <time>1970-01-01T00:45:53.000Z</time>
      </trkpt>
      <trkpt lat="41.358447" lon="1.93562">
        <ele>409.9</ele>
        <time>1970-01-01T00:45:54.000Z</time>
      </trkpt>
      <trkpt lat="41.358447" lon="1.93562">
        <ele>409.9</ele>
        <time>1970-01-01T00:45:55.000Z</time>
      </trkpt>
      <trkpt lat="41.358383" lon="1.935728">
        <ele>409.9</ele>
        <time>1970-01-01T00:45:56.000Z</time>
      </trkpt>
      <trkpt lat="41.358352" lon="1.935777">
        <ele>408.9</ele>
        <time>1970-01-01T00:45:57.000Z</time>
      </trkpt>
      <trkpt lat="41.358352" lon="1.935777">
        <ele>408.9</ele>
        <time>1970-01-01T00:45:58.000Z</time>
      </trkpt>
      <trkpt lat="41.358278" lon="1.935858">
        <ele>408.9</ele>
        <time>1970-01-01T00:45:59.000Z</time>
      </trkpt>
      <trkpt lat="41.358243" lon="1.935893">
        <ele>408.9</ele>
        <time>1970-01-01T00:46:00.000Z</time>
      </trkpt>
      <trkpt lat="41.358212" lon="1.935928">
        <ele>408.9</ele>
        <time>1970-01-01T00:46:01.000Z</time>
      </trkpt>
      <trkpt lat="41.358212" lon="1.935928">
        <ele>408.9</ele>
        <time>1970-01-01T00:46:02.000Z</time>
      </trkpt>
      <trkpt lat="41.358157" lon="1.936003">
        <ele>408.9</ele>
        <time>1970-01-01T00:46:03.000Z</time>
      </trkpt>
      <trkpt lat="41.358132" lon="1.936047">
        <ele>408.9</ele>
        <time>1970-01-01T00:46:04.000Z</time>
      </trkpt>
      <trkpt lat="41.358132" lon="1.936047">
        <ele>407.9</ele>
        <time>1970-01-01T00:46:05.000Z</time>
      </trkpt>
      <trkpt lat="41.358088" lon="1.936157">
        <ele>407.9</ele>
        <time>1970-01-01T00:46:06.000Z</time>
      </trkpt>
      <trkpt lat="41.358088" lon="1.936157">
        <ele>407.9</ele>
        <time>1970-01-01T00:46:07.000Z</time>
      </trkpt>
      <trkpt lat="41.358038" lon="1.936292">
        <ele>407.9</ele>
        <time>1970-01-01T00:46:08.000Z</time>
      </trkpt>
      <trkpt lat="41.358038" lon="1.936292">
        <ele>406.9</ele>
        <time>1970-01-01T00:46:09.000Z</time>
      </trkpt>
      <trkpt lat="41.357977" lon="1.936447">
        <ele>406.9</ele>
        <time>1970-01-01T00:46:10.000Z</time>
      </trkpt>
      <trkpt lat="41.357977" lon="1.936447">
        <ele>406.9</ele>
        <time>1970-01-01T00:46:11.000Z</time>
      </trkpt>
      <trkpt lat="41.357915" lon="1.9366">
        <ele>406.9</ele>
        <time>1970-01-01T00:46:12.000Z</time>
      </trkpt>
      <trkpt lat="41.357915" lon="1.9366">
        <ele>406.9</ele>
        <time>1970-01-01T00:46:13.000Z</time>
      </trkpt>
      <trkpt lat="41.357863" lon="1.93674">
        <ele>406.9</ele>
        <time>1970-01-01T00:46:14.000Z</time>
      </trkpt>
      <trkpt lat="41.35784" lon="1.9368">
        <ele>406.9</ele>
        <time>1970-01-01T00:46:15.000Z</time>
      </trkpt>
      <trkpt lat="41.35784" lon="1.9368">
        <ele>406.9</ele>
        <time>1970-01-01T00:46:16.000Z</time>
      </trkpt>
      <trkpt lat="41.357788" lon="1.936902">
        <ele>406.9</ele>
        <time>1970-01-01T00:46:17.000Z</time>
      </trkpt>
      <trkpt lat="41.357762" lon="1.936937">
        <ele>406.9</ele>
        <time>1970-01-01T00:46:18.000Z</time>
      </trkpt>
      <trkpt lat="41.357762" lon="1.936937">
        <ele>406.9</ele>
        <time>1970-01-01T00:46:19.000Z</time>
      </trkpt>
      <trkpt lat="41.357697" lon="1.936967">
        <ele>406.9</ele>
        <time>1970-01-01T00:46:20.000Z</time>
      </trkpt>
      <trkpt lat="41.357697" lon="1.936967">
        <ele>406.9</ele>
        <time>1970-01-01T00:46:21.000Z</time>
      </trkpt>
      <trkpt lat="41.357622" lon="1.936953">
        <ele>406.9</ele>
        <time>1970-01-01T00:46:22.000Z</time>
      </trkpt>
      <trkpt lat="41.357622" lon="1.936953">
        <ele>406.9</ele>
        <time>1970-01-01T00:46:23.000Z</time>
      </trkpt>
      <trkpt lat="41.357552" lon="1.936882">
        <ele>406.9</ele>
        <time>1970-01-01T00:46:24.000Z</time>
      </trkpt>
      <trkpt lat="41.357552" lon="1.936882">
        <ele>406.9</ele>
        <time>1970-01-01T00:46:25.000Z</time>
      </trkpt>
      <trkpt lat="41.357465" lon="1.93679">
        <ele>405.9</ele>
        <time>1970-01-01T00:46:26.000Z</time>
      </trkpt>
      <trkpt lat="41.357413" lon="1.936747">
        <ele>405.9</ele>
        <time>1970-01-01T00:46:27.000Z</time>
      </trkpt>
      <trkpt lat="41.357413" lon="1.936747">
        <ele>404.9</ele>
        <time>1970-01-01T00:46:28.000Z</time>
      </trkpt>
      <trkpt lat="41.357277" lon="1.936698">
        <ele>404.9</ele>
        <time>1970-01-01T00:46:29.000Z</time>
      </trkpt>
      <trkpt lat="41.357202" lon="1.936683">
        <ele>404.9</ele>
        <time>1970-01-01T00:46:30.000Z</time>
      </trkpt>
      <trkpt lat="41.357202" lon="1.936683">
        <ele>404.9</ele>
        <time>1970-01-01T00:46:31.000Z</time>
      </trkpt>
      <trkpt lat="41.357042" lon="1.936667">
        <ele>402.9</ele>
        <time>1970-01-01T00:46:32.000Z</time>
      </trkpt>
      <trkpt lat="41.356972" lon="1.936687">
        <ele>402.9</ele>
        <time>1970-01-01T00:46:33.000Z</time>
      </trkpt>
      <trkpt lat="41.356972" lon="1.936687">
        <ele>402.9</ele>
        <time>1970-01-01T00:46:34.000Z</time>
      </trkpt>
      <trkpt lat="41.35688" lon="1.936763">
        <ele>401.9</ele>
        <time>1970-01-01T00:46:35.000Z</time>
      </trkpt>
      <trkpt lat="41.35688" lon="1.936763">
        <ele>401.9</ele>
        <time>1970-01-01T00:46:36.000Z</time>
      </trkpt>
      <trkpt lat="41.356825" lon="1.936858">
        <ele>400.9</ele>
        <time>1970-01-01T00:46:37.000Z</time>
      </trkpt>
      <trkpt lat="41.356825" lon="1.936858">
        <ele>399.9</ele>
        <time>1970-01-01T00:46:38.000Z</time>
      </trkpt>
      <trkpt lat="41.356768" lon="1.936948">
        <ele>399.9</ele>
        <time>1970-01-01T00:46:39.000Z</time>
      </trkpt>
      <trkpt lat="41.356768" lon="1.936948">
        <ele>399.9</ele>
        <time>1970-01-01T00:46:40.000Z</time>
      </trkpt>
      <trkpt lat="41.356707" lon="1.937025">
        <ele>399.9</ele>
        <time>1970-01-01T00:46:41.000Z</time>
      </trkpt>
      <trkpt lat="41.356673" lon="1.937053">
        <ele>399.9</ele>
        <time>1970-01-01T00:46:42.000Z</time>
      </trkpt>
      <trkpt lat="41.356635" lon="1.937077">
        <ele>399.9</ele>
        <time>1970-01-01T00:46:43.000Z</time>
      </trkpt>
      <trkpt lat="41.356635" lon="1.937077">
        <ele>399.9</ele>
        <time>1970-01-01T00:46:44.000Z</time>
      </trkpt>
      <trkpt lat="41.356552" lon="1.937115">
        <ele>399.9</ele>
        <time>1970-01-01T00:46:45.000Z</time>
      </trkpt>
      <trkpt lat="41.356508" lon="1.937132">
        <ele>400.9</ele>
        <time>1970-01-01T00:46:46.000Z</time>
      </trkpt>
      <trkpt lat="41.356508" lon="1.937132">
        <ele>400.9</ele>
        <time>1970-01-01T00:46:47.000Z</time>
      </trkpt>
      <trkpt lat="41.356432" lon="1.937155">
        <ele>400.9</ele>
        <time>1970-01-01T00:46:48.000Z</time>
      </trkpt>
      <trkpt lat="41.356432" lon="1.937155">
        <ele>400.9</ele>
        <time>1970-01-01T00:46:49.000Z</time>
      </trkpt>
      <trkpt lat="41.356368" lon="1.93716">
        <ele>399.9</ele>
        <time>1970-01-01T00:46:50.000Z</time>
      </trkpt>
      <trkpt lat="41.356368" lon="1.93716">
        <ele>399.9</ele>
        <time>1970-01-01T00:46:51.000Z</time>
      </trkpt>
      <trkpt lat="41.356315" lon="1.93714">
        <ele>399.9</ele>
        <time>1970-01-01T00:46:52.000Z</time>
      </trkpt>
      <trkpt lat="41.356315" lon="1.93714">
        <ele>399.9</ele>
        <time>1970-01-01T00:46:53.000Z</time>
      </trkpt>
      <trkpt lat="41.356272" lon="1.937097">
        <ele>399.9</ele>
        <time>1970-01-01T00:46:54.000Z</time>
      </trkpt>
      <trkpt lat="41.356252" lon="1.937068">
        <ele>399.9</ele>
        <time>1970-01-01T00:46:55.000Z</time>
      </trkpt>
      <trkpt lat="41.356252" lon="1.937068">
        <ele>399.9</ele>
        <time>1970-01-01T00:46:56.000Z</time>
      </trkpt>
      <trkpt lat="41.35622" lon="1.936993">
        <ele>399.9</ele>
        <time>1970-01-01T00:46:57.000Z</time>
      </trkpt>
      <trkpt lat="41.356203" lon="1.93695">
        <ele>399.9</ele>
        <time>1970-01-01T00:46:58.000Z</time>
      </trkpt>
      <trkpt lat="41.356203" lon="1.93695">
        <ele>399.9</ele>
        <time>1970-01-01T00:46:59.000Z</time>
      </trkpt>
      <trkpt lat="41.356163" lon="1.936855">
        <ele>399.9</ele>
        <time>1970-01-01T00:47:00.000Z</time>
      </trkpt>
      <trkpt lat="41.35613" lon="1.936812">
        <ele>399.9</ele>
        <time>1970-01-01T00:47:01.000Z</time>
      </trkpt>
      <trkpt lat="41.35613" lon="1.936812">
        <ele>399.9</ele>
        <time>1970-01-01T00:47:02.000Z</time>
      </trkpt>
      <trkpt lat="41.356057" lon="1.936737">
        <ele>399.9</ele>
        <time>1970-01-01T00:47:03.000Z</time>
      </trkpt>
      <trkpt lat="41.356057" lon="1.936737">
        <ele>399.9</ele>
        <time>1970-01-01T00:47:04.000Z</time>
      </trkpt>
      <trkpt lat="41.355987" lon="1.936683">
        <ele>399.9</ele>
        <time>1970-01-01T00:47:05.000Z</time>
      </trkpt>
      <trkpt lat="41.35595" lon="1.93667">
        <ele>399.9</ele>
        <time>1970-01-01T00:47:06.000Z</time>
      </trkpt>
      <trkpt lat="41.35595" lon="1.93667">
        <ele>399.9</ele>
        <time>1970-01-01T00:47:07.000Z</time>
      </trkpt>
      <trkpt lat="41.355875" lon="1.936648">
        <ele>399.9</ele>
        <time>1970-01-01T00:47:08.000Z</time>
      </trkpt>
      <trkpt lat="41.355875" lon="1.936648">
        <ele>401.9</ele>
        <time>1970-01-01T00:47:09.000Z</time>
      </trkpt>
      <trkpt lat="41.355805" lon="1.936627">
        <ele>401.9</ele>
        <time>1970-01-01T00:47:10.000Z</time>
      </trkpt>
      <trkpt lat="41.355805" lon="1.936627">
        <ele>401.9</ele>
        <time>1970-01-01T00:47:11.000Z</time>
      </trkpt>
      <trkpt lat="41.355733" lon="1.936592">
        <ele>401.9</ele>
        <time>1970-01-01T00:47:12.000Z</time>
      </trkpt>
      <trkpt lat="41.355697" lon="1.936573">
        <ele>401.9</ele>
        <time>1970-01-01T00:47:13.000Z</time>
      </trkpt>
      <trkpt lat="41.355697" lon="1.936573">
        <ele>401.9</ele>
        <time>1970-01-01T00:47:14.000Z</time>
      </trkpt>
      <trkpt lat="41.355617" lon="1.936538">
        <ele>401.9</ele>
        <time>1970-01-01T00:47:15.000Z</time>
      </trkpt>
      <trkpt lat="41.355617" lon="1.936538">
        <ele>401.9</ele>
        <time>1970-01-01T00:47:16.000Z</time>
      </trkpt>
      <trkpt lat="41.355533" lon="1.93648">
        <ele>402.9</ele>
        <time>1970-01-01T00:47:17.000Z</time>
      </trkpt>
      <trkpt lat="41.355533" lon="1.93648">
        <ele>402.9</ele>
        <time>1970-01-01T00:47:18.000Z</time>
      </trkpt>
      <trkpt lat="41.355453" lon="1.936387">
        <ele>402.9</ele>
        <time>1970-01-01T00:47:19.000Z</time>
      </trkpt>
      <trkpt lat="41.355453" lon="1.936387">
        <ele>402.9</ele>
        <time>1970-01-01T00:47:20.000Z</time>
      </trkpt>
      <trkpt lat="41.35538" lon="1.936283">
        <ele>402.9</ele>
        <time>1970-01-01T00:47:21.000Z</time>
      </trkpt>
      <trkpt lat="41.35538" lon="1.936283">
        <ele>402.9</ele>
        <time>1970-01-01T00:47:22.000Z</time>
      </trkpt>
      <trkpt lat="41.355297" lon="1.936225">
        <ele>402.9</ele>
        <time>1970-01-01T00:47:23.000Z</time>
      </trkpt>
      <trkpt lat="41.355253" lon="1.936212">
        <ele>402.9</ele>
        <time>1970-01-01T00:47:24.000Z</time>
      </trkpt>
      <trkpt lat="41.355215" lon="1.936195">
        <ele>402.9</ele>
        <time>1970-01-01T00:47:25.000Z</time>
      </trkpt>
      <trkpt lat="41.355215" lon="1.936195">
        <ele>402.9</ele>
        <time>1970-01-01T00:47:26.000Z</time>
      </trkpt>
      <trkpt lat="41.35514" lon="1.936165">
        <ele>402.9</ele>
        <time>1970-01-01T00:47:27.000Z</time>
      </trkpt>
      <trkpt lat="41.35514" lon="1.936165">
        <ele>402.9</ele>
        <time>1970-01-01T00:47:28.000Z</time>
      </trkpt>
      <trkpt lat="41.355078" lon="1.93614">
        <ele>402.9</ele>
        <time>1970-01-01T00:47:29.000Z</time>
      </trkpt>
      <trkpt lat="41.355057" lon="1.93613">
        <ele>402.9</ele>
        <time>1970-01-01T00:47:30.000Z</time>
      </trkpt>
      <trkpt lat="41.355057" lon="1.93613">
        <ele>402.9</ele>
        <time>1970-01-01T00:47:31.000Z</time>
      </trkpt>
      <trkpt lat="41.355013" lon="1.936115">
        <ele>404.9</ele>
        <time>1970-01-01T00:47:32.000Z</time>
      </trkpt>
      <trkpt lat="41.354993" lon="1.936107">
        <ele>404.9</ele>
        <time>1970-01-01T00:47:33.000Z</time>
      </trkpt>
      <trkpt lat="41.354993" lon="1.936107">
        <ele>404.9</ele>
        <time>1970-01-01T00:47:34.000Z</time>
      </trkpt>
      <trkpt lat="41.354952" lon="1.936093">
        <ele>404.9</ele>
        <time>1970-01-01T00:47:35.000Z</time>
      </trkpt>
      <trkpt lat="41.354952" lon="1.936093">
        <ele>406.9</ele>
        <time>1970-01-01T00:47:36.000Z</time>
      </trkpt>
      <trkpt lat="41.354912" lon="1.936083">
        <ele>406.9</ele>
        <time>1970-01-01T00:47:37.000Z</time>
      </trkpt>
      <trkpt lat="41.354912" lon="1.936083">
        <ele>406.9</ele>
        <time>1970-01-01T00:47:38.000Z</time>
      </trkpt>
      <trkpt lat="41.354872" lon="1.936077">
        <ele>406.9</ele>
        <time>1970-01-01T00:47:39.000Z</time>
      </trkpt>
      <trkpt lat="41.354872" lon="1.936077">
        <ele>407.9</ele>
        <time>1970-01-01T00:47:40.000Z</time>
      </trkpt>
      <trkpt lat="41.354838" lon="1.936068">
        <ele>407.9</ele>
        <time>1970-01-01T00:47:41.000Z</time>
      </trkpt>
      <trkpt lat="41.354822" lon="1.936062">
        <ele>407.9</ele>
        <time>1970-01-01T00:47:42.000Z</time>
      </trkpt>
      <trkpt lat="41.354822" lon="1.936062">
        <ele>407.9</ele>
        <time>1970-01-01T00:47:43.000Z</time>
      </trkpt>
      <trkpt lat="41.354785" lon="1.93604">
        <ele>407.9</ele>
        <time>1970-01-01T00:47:44.000Z</time>
      </trkpt>
      <trkpt lat="41.354767" lon="1.936025">
        <ele>407.9</ele>
        <time>1970-01-01T00:47:45.000Z</time>
      </trkpt>
      <trkpt lat="41.354767" lon="1.936025">
        <ele>408.9</ele>
        <time>1970-01-01T00:47:46.000Z</time>
      </trkpt>
      <trkpt lat="41.354735" lon="1.935995">
        <ele>408.9</ele>
        <time>1970-01-01T00:47:47.000Z</time>
      </trkpt>
      <trkpt lat="41.354735" lon="1.935995">
        <ele>408.9</ele>
        <time>1970-01-01T00:47:48.000Z</time>
      </trkpt>
      <trkpt lat="41.3547" lon="1.935968">
        <ele>408.9</ele>
        <time>1970-01-01T00:47:49.000Z</time>
      </trkpt>
      <trkpt lat="41.354683" lon="1.935958">
        <ele>408.9</ele>
        <time>1970-01-01T00:47:50.000Z</time>
      </trkpt>
      <trkpt lat="41.354683" lon="1.935958">
        <ele>408.9</ele>
        <time>1970-01-01T00:47:51.000Z</time>
      </trkpt>
      <trkpt lat="41.354643" lon="1.93594">
        <ele>409.9</ele>
        <time>1970-01-01T00:47:52.000Z</time>
      </trkpt>
      <trkpt lat="41.354643" lon="1.93594">
        <ele>409.9</ele>
        <time>1970-01-01T00:47:53.000Z</time>
      </trkpt>
      <trkpt lat="41.354613" lon="1.935907">
        <ele>409.9</ele>
        <time>1970-01-01T00:47:54.000Z</time>
      </trkpt>
      <trkpt lat="41.354597" lon="1.935888">
        <ele>409.9</ele>
        <time>1970-01-01T00:47:55.000Z</time>
      </trkpt>
      <trkpt lat="41.354597" lon="1.935888">
        <ele>409.9</ele>
        <time>1970-01-01T00:47:56.000Z</time>
      </trkpt>
      <trkpt lat="41.354557" lon="1.935855">
        <ele>409.9</ele>
        <time>1970-01-01T00:47:57.000Z</time>
      </trkpt>
      <trkpt lat="41.354557" lon="1.935855">
        <ele>410.9</ele>
        <time>1970-01-01T00:47:58.000Z</time>
      </trkpt>
      <trkpt lat="41.354518" lon="1.93583">
        <ele>410.9</ele>
        <time>1970-01-01T00:47:59.000Z</time>
      </trkpt>
      <trkpt lat="41.3545" lon="1.935813">
        <ele>410.9</ele>
        <time>1970-01-01T00:48:00.000Z</time>
      </trkpt>
      <trkpt lat="41.3545" lon="1.935813">
        <ele>410.9</ele>
        <time>1970-01-01T00:48:01.000Z</time>
      </trkpt>
      <trkpt lat="41.354458" lon="1.93578">
        <ele>410.9</ele>
        <time>1970-01-01T00:48:02.000Z</time>
      </trkpt>
      <trkpt lat="41.354437" lon="1.93576">
        <ele>410.9</ele>
        <time>1970-01-01T00:48:03.000Z</time>
      </trkpt>
      <trkpt lat="41.354415" lon="1.935738">
        <ele>410.9</ele>
        <time>1970-01-01T00:48:04.000Z</time>
      </trkpt>
      <trkpt lat="41.354415" lon="1.935738">
        <ele>410.9</ele>
        <time>1970-01-01T00:48:05.000Z</time>
      </trkpt>
      <trkpt lat="41.354372" lon="1.935708">
        <ele>410.9</ele>
        <time>1970-01-01T00:48:06.000Z</time>
      </trkpt>
      <trkpt lat="41.354372" lon="1.935708">
        <ele>410.9</ele>
        <time>1970-01-01T00:48:07.000Z</time>
      </trkpt>
      <trkpt lat="41.354332" lon="1.935682">
        <ele>410.9</ele>
        <time>1970-01-01T00:48:08.000Z</time>
      </trkpt>
      <trkpt lat="41.354305" lon="1.935672">
        <ele>409.9</ele>
        <time>1970-01-01T00:48:09.000Z</time>
      </trkpt>
      <trkpt lat="41.354305" lon="1.935672">
        <ele>409.9</ele>
        <time>1970-01-01T00:48:10.000Z</time>
      </trkpt>
      <trkpt lat="41.35422" lon="1.935662">
        <ele>409.9</ele>
        <time>1970-01-01T00:48:11.000Z</time>
      </trkpt>
      <trkpt lat="41.35422" lon="1.935662">
        <ele>409.9</ele>
        <time>1970-01-01T00:48:12.000Z</time>
      </trkpt>
      <trkpt lat="41.35412" lon="1.9357">
        <ele>409.9</ele>
        <time>1970-01-01T00:48:13.000Z</time>
      </trkpt>
      <trkpt lat="41.35412" lon="1.9357">
        <ele>409.9</ele>
        <time>1970-01-01T00:48:14.000Z</time>
      </trkpt>
      <trkpt lat="41.354067" lon="1.93579">
        <ele>408.9</ele>
        <time>1970-01-01T00:48:15.000Z</time>
      </trkpt>
      <trkpt lat="41.354067" lon="1.93579">
        <ele>408.9</ele>
        <time>1970-01-01T00:48:16.000Z</time>
      </trkpt>
      <trkpt lat="41.354053" lon="1.935885">
        <ele>408.9</ele>
        <time>1970-01-01T00:48:17.000Z</time>
      </trkpt>
      <trkpt lat="41.354053" lon="1.935885">
        <ele>408.9</ele>
        <time>1970-01-01T00:48:18.000Z</time>
      </trkpt>
      <trkpt lat="41.354052" lon="1.935967">
        <ele>408.9</ele>
        <time>1970-01-01T00:48:19.000Z</time>
      </trkpt>
      <trkpt lat="41.35405" lon="1.936005">
        <ele>408.9</ele>
        <time>1970-01-01T00:48:20.000Z</time>
      </trkpt>
      <trkpt lat="41.35405" lon="1.936005">
        <ele>408.9</ele>
        <time>1970-01-01T00:48:21.000Z</time>
      </trkpt>
      <trkpt lat="41.354047" lon="1.936078">
        <ele>408.9</ele>
        <time>1970-01-01T00:48:22.000Z</time>
      </trkpt>
      <trkpt lat="41.354042" lon="1.936115">
        <ele>408.9</ele>
        <time>1970-01-01T00:48:23.000Z</time>
      </trkpt>
      <trkpt lat="41.354042" lon="1.936115">
        <ele>408.9</ele>
        <time>1970-01-01T00:48:24.000Z</time>
      </trkpt>
      <trkpt lat="41.354038" lon="1.936192">
        <ele>408.9</ele>
        <time>1970-01-01T00:48:25.000Z</time>
      </trkpt>
      <trkpt lat="41.354035" lon="1.936228">
        <ele>408.9</ele>
        <time>1970-01-01T00:48:26.000Z</time>
      </trkpt>
      <trkpt lat="41.354035" lon="1.936228">
        <ele>408.9</ele>
        <time>1970-01-01T00:48:27.000Z</time>
      </trkpt>
      <trkpt lat="41.354028" lon="1.936305">
        <ele>408.9</ele>
        <time>1970-01-01T00:48:28.000Z</time>
      </trkpt>
      <trkpt lat="41.354028" lon="1.936305">
        <ele>408.9</ele>
        <time>1970-01-01T00:48:29.000Z</time>
      </trkpt>
      <trkpt lat="41.354018" lon="1.936387">
        <ele>408.9</ele>
        <time>1970-01-01T00:48:30.000Z</time>
      </trkpt>
      <trkpt lat="41.354018" lon="1.936387">
        <ele>408.9</ele>
        <time>1970-01-01T00:48:31.000Z</time>
      </trkpt>
      <trkpt lat="41.354005" lon="1.936487">
        <ele>408.9</ele>
        <time>1970-01-01T00:48:32.000Z</time>
      </trkpt>
      <trkpt lat="41.353995" lon="1.936537">
        <ele>408.9</ele>
        <time>1970-01-01T00:48:33.000Z</time>
      </trkpt>
      <trkpt lat="41.353995" lon="1.936537">
        <ele>408.9</ele>
        <time>1970-01-01T00:48:34.000Z</time>
      </trkpt>
      <trkpt lat="41.35398" lon="1.936632">
        <ele>408.9</ele>
        <time>1970-01-01T00:48:35.000Z</time>
      </trkpt>
      <trkpt lat="41.35398" lon="1.936632">
        <ele>408.9</ele>
        <time>1970-01-01T00:48:36.000Z</time>
      </trkpt>
      <trkpt lat="41.354003" lon="1.936735">
        <ele>408.9</ele>
        <time>1970-01-01T00:48:37.000Z</time>
      </trkpt>
      <trkpt lat="41.354003" lon="1.936735">
        <ele>408.9</ele>
        <time>1970-01-01T00:48:38.000Z</time>
      </trkpt>
      <trkpt lat="41.35404" lon="1.936815">
        <ele>408.9</ele>
        <time>1970-01-01T00:48:39.000Z</time>
      </trkpt>
      <trkpt lat="41.35404" lon="1.936815">
        <ele>408.9</ele>
        <time>1970-01-01T00:48:40.000Z</time>
      </trkpt>
      <trkpt lat="41.354075" lon="1.936868">
        <ele>409.9</ele>
        <time>1970-01-01T00:48:41.000Z</time>
      </trkpt>
      <trkpt lat="41.354075" lon="1.936868">
        <ele>409.9</ele>
        <time>1970-01-01T00:48:42.000Z</time>
      </trkpt>
      <trkpt lat="41.354098" lon="1.936925">
        <ele>409.9</ele>
        <time>1970-01-01T00:48:43.000Z</time>
      </trkpt>
      <trkpt lat="41.3541" lon="1.936947">
        <ele>409.9</ele>
        <time>1970-01-01T00:48:44.000Z</time>
      </trkpt>
      <trkpt lat="41.3541" lon="1.936947">
        <ele>410.9</ele>
        <time>1970-01-01T00:48:45.000Z</time>
      </trkpt>
      <trkpt lat="41.354113" lon="1.937003">
        <ele>410.9</ele>
        <time>1970-01-01T00:48:46.000Z</time>
      </trkpt>
      <trkpt lat="41.354113" lon="1.937003">
        <ele>411.9</ele>
        <time>1970-01-01T00:48:47.000Z</time>
      </trkpt>
      <trkpt lat="41.354122" lon="1.937067">
        <ele>412.9</ele>
        <time>1970-01-01T00:48:48.000Z</time>
      </trkpt>
      <trkpt lat="41.354123" lon="1.937097">
        <ele>412.9</ele>
        <time>1970-01-01T00:48:49.000Z</time>
      </trkpt>
      <trkpt lat="41.354123" lon="1.937097">
        <ele>413.9</ele>
        <time>1970-01-01T00:48:50.000Z</time>
      </trkpt>
      <trkpt lat="41.354125" lon="1.937157">
        <ele>413.9</ele>
        <time>1970-01-01T00:48:51.000Z</time>
      </trkpt>
      <trkpt lat="41.354125" lon="1.937157">
        <ele>414.9</ele>
        <time>1970-01-01T00:48:52.000Z</time>
      </trkpt>
      <trkpt lat="41.354123" lon="1.937212">
        <ele>414.9</ele>
        <time>1970-01-01T00:48:53.000Z</time>
      </trkpt>
      <trkpt lat="41.354118" lon="1.937237">
        <ele>414.9</ele>
        <time>1970-01-01T00:48:54.000Z</time>
      </trkpt>
      <trkpt lat="41.354118" lon="1.937237">
        <ele>414.9</ele>
        <time>1970-01-01T00:48:55.000Z</time>
      </trkpt>
      <trkpt lat="41.354108" lon="1.937288">
        <ele>415.9</ele>
        <time>1970-01-01T00:48:56.000Z</time>
      </trkpt>
      <trkpt lat="41.354103" lon="1.937312">
        <ele>415.9</ele>
        <time>1970-01-01T00:48:57.000Z</time>
      </trkpt>
      <trkpt lat="41.354098" lon="1.937333">
        <ele>415.9</ele>
        <time>1970-01-01T00:48:58.000Z</time>
      </trkpt>
      <trkpt lat="41.354098" lon="1.937333">
        <ele>415.9</ele>
        <time>1970-01-01T00:48:59.000Z</time>
      </trkpt>
      <trkpt lat="41.354085" lon="1.93738">
        <ele>416.9</ele>
        <time>1970-01-01T00:49:00.000Z</time>
      </trkpt>
      <trkpt lat="41.354085" lon="1.93738">
        <ele>416.9</ele>
        <time>1970-01-01T00:49:01.000Z</time>
      </trkpt>
      <trkpt lat="41.35407" lon="1.937425">
        <ele>417.9</ele>
        <time>1970-01-01T00:49:02.000Z</time>
      </trkpt>
      <trkpt lat="41.35407" lon="1.937425">
        <ele>417.9</ele>
        <time>1970-01-01T00:49:03.000Z</time>
      </trkpt>
      <trkpt lat="41.354067" lon="1.937477">
        <ele>417.9</ele>
        <time>1970-01-01T00:49:04.000Z</time>
      </trkpt>
      <trkpt lat="41.354067" lon="1.937477">
        <ele>417.9</ele>
        <time>1970-01-01T00:49:05.000Z</time>
      </trkpt>
      <trkpt lat="41.354052" lon="1.937543">
        <ele>418.9</ele>
        <time>1970-01-01T00:49:06.000Z</time>
      </trkpt>
      <trkpt lat="41.354052" lon="1.937543">
        <ele>418.9</ele>
        <time>1970-01-01T00:49:07.000Z</time>
      </trkpt>
      <trkpt lat="41.354047" lon="1.937603">
        <ele>418.9</ele>
        <time>1970-01-01T00:49:08.000Z</time>
      </trkpt>
      <trkpt lat="41.354047" lon="1.937603">
        <ele>418.9</ele>
        <time>1970-01-01T00:49:09.000Z</time>
      </trkpt>
      <trkpt lat="41.354047" lon="1.937655">
        <ele>418.9</ele>
        <time>1970-01-01T00:49:10.000Z</time>
      </trkpt>
      <trkpt lat="41.354047" lon="1.937655">
        <ele>418.9</ele>
        <time>1970-01-01T00:49:11.000Z</time>
      </trkpt>
      <trkpt lat="41.354053" lon="1.93772">
        <ele>418.9</ele>
        <time>1970-01-01T00:49:12.000Z</time>
      </trkpt>
      <trkpt lat="41.354063" lon="1.937745">
        <ele>418.9</ele>
        <time>1970-01-01T00:49:13.000Z</time>
      </trkpt>
      <trkpt lat="41.354075" lon="1.937768">
        <ele>418.9</ele>
        <time>1970-01-01T00:49:14.000Z</time>
      </trkpt>
      <trkpt lat="41.354075" lon="1.937768">
        <ele>418.9</ele>
        <time>1970-01-01T00:49:15.000Z</time>
      </trkpt>
      <trkpt lat="41.354098" lon="1.93781">
        <ele>418.9</ele>
        <time>1970-01-01T00:49:16.000Z</time>
      </trkpt>
      <trkpt lat="41.354098" lon="1.93781">
        <ele>418.9</ele>
        <time>1970-01-01T00:49:17.000Z</time>
      </trkpt>
      <trkpt lat="41.354117" lon="1.93785">
        <ele>418.9</ele>
        <time>1970-01-01T00:49:18.000Z</time>
      </trkpt>
      <trkpt lat="41.354127" lon="1.937868">
        <ele>418.9</ele>
        <time>1970-01-01T00:49:19.000Z</time>
      </trkpt>
      <trkpt lat="41.354127" lon="1.937868">
        <ele>419.9</ele>
        <time>1970-01-01T00:49:20.000Z</time>
      </trkpt>
      <trkpt lat="41.354153" lon="1.937898">
        <ele>419.9</ele>
        <time>1970-01-01T00:49:21.000Z</time>
      </trkpt>
      <trkpt lat="41.354153" lon="1.937898">
        <ele>419.9</ele>
        <time>1970-01-01T00:49:22.000Z</time>
      </trkpt>
      <trkpt lat="41.354177" lon="1.937925">
        <ele>419.9</ele>
        <time>1970-01-01T00:49:23.000Z</time>
      </trkpt>
      <trkpt lat="41.354177" lon="1.937925">
        <ele>420.9</ele>
        <time>1970-01-01T00:49:24.000Z</time>
      </trkpt>
      <trkpt lat="41.354205" lon="1.937945">
        <ele>420.9</ele>
        <time>1970-01-01T00:49:25.000Z</time>
      </trkpt>
      <trkpt lat="41.354205" lon="1.937945">
        <ele>421.9</ele>
        <time>1970-01-01T00:49:26.000Z</time>
      </trkpt>
      <trkpt lat="41.354225" lon="1.937972">
        <ele>421.9</ele>
        <time>1970-01-01T00:49:27.000Z</time>
      </trkpt>
      <trkpt lat="41.354225" lon="1.937972">
        <ele>421.9</ele>
        <time>1970-01-01T00:49:28.000Z</time>
      </trkpt>
      <trkpt lat="41.354242" lon="1.937995">
        <ele>421.9</ele>
        <time>1970-01-01T00:49:29.000Z</time>
      </trkpt>
      <trkpt lat="41.354248" lon="1.93801">
        <ele>421.9</ele>
        <time>1970-01-01T00:49:30.000Z</time>
      </trkpt>
      <trkpt lat="41.354248" lon="1.93801">
        <ele>422.9</ele>
        <time>1970-01-01T00:49:31.000Z</time>
      </trkpt>
      <trkpt lat="41.35427" lon="1.93805">
        <ele>422.9</ele>
        <time>1970-01-01T00:49:32.000Z</time>
      </trkpt>
      <trkpt lat="41.354275" lon="1.938067">
        <ele>422.9</ele>
        <time>1970-01-01T00:49:33.000Z</time>
      </trkpt>
      <trkpt lat="41.354283" lon="1.938082">
        <ele>422.9</ele>
        <time>1970-01-01T00:49:34.000Z</time>
      </trkpt>
      <trkpt lat="41.354283" lon="1.938082">
        <ele>423.9</ele>
        <time>1970-01-01T00:49:35.000Z</time>
      </trkpt>
      <trkpt lat="41.354297" lon="1.938108">
        <ele>423.9</ele>
        <time>1970-01-01T00:49:36.000Z</time>
      </trkpt>
      <trkpt lat="41.354297" lon="1.938108">
        <ele>423.9</ele>
        <time>1970-01-01T00:49:37.000Z</time>
      </trkpt>
      <trkpt lat="41.354312" lon="1.938138">
        <ele>423.9</ele>
        <time>1970-01-01T00:49:38.000Z</time>
      </trkpt>
      <trkpt lat="41.354322" lon="1.93815">
        <ele>424.9</ele>
        <time>1970-01-01T00:49:39.000Z</time>
      </trkpt>
      <trkpt lat="41.354322" lon="1.93815">
        <ele>424.9</ele>
        <time>1970-01-01T00:49:40.000Z</time>
      </trkpt>
      <trkpt lat="41.354347" lon="1.938175">
        <ele>424.9</ele>
        <time>1970-01-01T00:49:41.000Z</time>
      </trkpt>
      <trkpt lat="41.354347" lon="1.938175">
        <ele>424.9</ele>
        <time>1970-01-01T00:49:42.000Z</time>
      </trkpt>
      <trkpt lat="41.354358" lon="1.938212">
        <ele>424.9</ele>
        <time>1970-01-01T00:49:43.000Z</time>
      </trkpt>
      <trkpt lat="41.354358" lon="1.938212">
        <ele>424.9</ele>
        <time>1970-01-01T00:49:44.000Z</time>
      </trkpt>
      <trkpt lat="41.354358" lon="1.93824">
        <ele>426.9</ele>
        <time>1970-01-01T00:49:45.000Z</time>
      </trkpt>
      <trkpt lat="41.354358" lon="1.93824">
        <ele>426.9</ele>
        <time>1970-01-01T00:49:46.000Z</time>
      </trkpt>
      <trkpt lat="41.354362" lon="1.938272">
        <ele>426.9</ele>
        <time>1970-01-01T00:49:47.000Z</time>
      </trkpt>
      <trkpt lat="41.354363" lon="1.938287">
        <ele>426.9</ele>
        <time>1970-01-01T00:49:48.000Z</time>
      </trkpt>
      <trkpt lat="41.354367" lon="1.938305">
        <ele>426.9</ele>
        <time>1970-01-01T00:49:49.000Z</time>
      </trkpt>
      <trkpt lat="41.354367" lon="1.938305">
        <ele>426.9</ele>
        <time>1970-01-01T00:49:50.000Z</time>
      </trkpt>
      <trkpt lat="41.354373" lon="1.938338">
        <ele>427.9</ele>
        <time>1970-01-01T00:49:51.000Z</time>
      </trkpt>
      <trkpt lat="41.35438" lon="1.938355">
        <ele>427.9</ele>
        <time>1970-01-01T00:49:52.000Z</time>
      </trkpt>
      <trkpt lat="41.35438" lon="1.938355">
        <ele>427.9</ele>
        <time>1970-01-01T00:49:53.000Z</time>
      </trkpt>
      <trkpt lat="41.35439" lon="1.93839">
        <ele>427.9</ele>
        <time>1970-01-01T00:49:54.000Z</time>
      </trkpt>
      <trkpt lat="41.354393" lon="1.938408">
        <ele>427.9</ele>
        <time>1970-01-01T00:49:55.000Z</time>
      </trkpt>
      <trkpt lat="41.354393" lon="1.938408">
        <ele>427.9</ele>
        <time>1970-01-01T00:49:56.000Z</time>
      </trkpt>
      <trkpt lat="41.354397" lon="1.938445">
        <ele>427.9</ele>
        <time>1970-01-01T00:49:57.000Z</time>
      </trkpt>
      <trkpt lat="41.354402" lon="1.938462">
        <ele>427.9</ele>
        <time>1970-01-01T00:49:58.000Z</time>
      </trkpt>
      <trkpt lat="41.354402" lon="1.938462">
        <ele>428.9</ele>
        <time>1970-01-01T00:49:59.000Z</time>
      </trkpt>
      <trkpt lat="41.354412" lon="1.938495">
        <ele>428.9</ele>
        <time>1970-01-01T00:50:00.000Z</time>
      </trkpt>
      <trkpt lat="41.354412" lon="1.938495">
        <ele>428.9</ele>
        <time>1970-01-01T00:50:01.000Z</time>
      </trkpt>
      <trkpt lat="41.354417" lon="1.938528">
        <ele>428.9</ele>
        <time>1970-01-01T00:50:02.000Z</time>
      </trkpt>
      <trkpt lat="41.354422" lon="1.938542">
        <ele>430.9</ele>
        <time>1970-01-01T00:50:03.000Z</time>
      </trkpt>
      <trkpt lat="41.354422" lon="1.938542">
        <ele>430.9</ele>
        <time>1970-01-01T00:50:04.000Z</time>
      </trkpt>
      <trkpt lat="41.354432" lon="1.938573">
        <ele>430.9</ele>
        <time>1970-01-01T00:50:05.000Z</time>
      </trkpt>
      <trkpt lat="41.354432" lon="1.938573">
        <ele>430.9</ele>
        <time>1970-01-01T00:50:06.000Z</time>
      </trkpt>
      <trkpt lat="41.354433" lon="1.938602">
        <ele>431.9</ele>
        <time>1970-01-01T00:50:07.000Z</time>
      </trkpt>
      <trkpt lat="41.354437" lon="1.938615">
        <ele>431.9</ele>
        <time>1970-01-01T00:50:08.000Z</time>
      </trkpt>
      <trkpt lat="41.354438" lon="1.93863">
        <ele>431.9</ele>
        <time>1970-01-01T00:50:09.000Z</time>
      </trkpt>
      <trkpt lat="41.354438" lon="1.93863">
        <ele>431.9</ele>
        <time>1970-01-01T00:50:10.000Z</time>
      </trkpt>
      <trkpt lat="41.354447" lon="1.938657">
        <ele>432.9</ele>
        <time>1970-01-01T00:50:11.000Z</time>
      </trkpt>
      <trkpt lat="41.354453" lon="1.938677">
        <ele>432.9</ele>
        <time>1970-01-01T00:50:12.000Z</time>
      </trkpt>
      <trkpt lat="41.354453" lon="1.938677">
        <ele>432.9</ele>
        <time>1970-01-01T00:50:13.000Z</time>
      </trkpt>
      <trkpt lat="41.354453" lon="1.938698">
        <ele>432.9</ele>
        <time>1970-01-01T00:50:14.000Z</time>
      </trkpt>
      <trkpt lat="41.354453" lon="1.938698">
        <ele>432.9</ele>
        <time>1970-01-01T00:50:15.000Z</time>
      </trkpt>
      <trkpt lat="41.354458" lon="1.938722">
        <ele>433.9</ele>
        <time>1970-01-01T00:50:16.000Z</time>
      </trkpt>
      <trkpt lat="41.35446" lon="1.938735">
        <ele>433.9</ele>
        <time>1970-01-01T00:50:17.000Z</time>
      </trkpt>
      <trkpt lat="41.354463" lon="1.938747">
        <ele>433.9</ele>
        <time>1970-01-01T00:50:18.000Z</time>
      </trkpt>
      <trkpt lat="41.354463" lon="1.938747">
        <ele>433.9</ele>
        <time>1970-01-01T00:50:19.000Z</time>
      </trkpt>
      <trkpt lat="41.354475" lon="1.93878">
        <ele>434.9</ele>
        <time>1970-01-01T00:50:20.000Z</time>
      </trkpt>
      <trkpt lat="41.354475" lon="1.938803">
        <ele>434.9</ele>
        <time>1970-01-01T00:50:21.000Z</time>
      </trkpt>
      <trkpt lat="41.354475" lon="1.938803">
        <ele>434.9</ele>
        <time>1970-01-01T00:50:22.000Z</time>
      </trkpt>
      <trkpt lat="41.354483" lon="1.938838">
        <ele>434.9</ele>
        <time>1970-01-01T00:50:23.000Z</time>
      </trkpt>
      <trkpt lat="41.354488" lon="1.938857">
        <ele>434.9</ele>
        <time>1970-01-01T00:50:24.000Z</time>
      </trkpt>
      <trkpt lat="41.354488" lon="1.938857">
        <ele>434.9</ele>
        <time>1970-01-01T00:50:25.000Z</time>
      </trkpt>
      <trkpt lat="41.354502" lon="1.93889">
        <ele>434.9</ele>
        <time>1970-01-01T00:50:26.000Z</time>
      </trkpt>
      <trkpt lat="41.354508" lon="1.938907">
        <ele>434.9</ele>
        <time>1970-01-01T00:50:27.000Z</time>
      </trkpt>
      <trkpt lat="41.354508" lon="1.938907">
        <ele>435.9</ele>
        <time>1970-01-01T00:50:28.000Z</time>
      </trkpt>
      <trkpt lat="41.354525" lon="1.93894">
        <ele>435.9</ele>
        <time>1970-01-01T00:50:29.000Z</time>
      </trkpt>
      <trkpt lat="41.35453" lon="1.938955">
        <ele>435.9</ele>
        <time>1970-01-01T00:50:30.000Z</time>
      </trkpt>
      <trkpt lat="41.35453" lon="1.938955">
        <ele>435.9</ele>
        <time>1970-01-01T00:50:31.000Z</time>
      </trkpt>
      <trkpt lat="41.354547" lon="1.938978">
        <ele>436.9</ele>
        <time>1970-01-01T00:50:32.000Z</time>
      </trkpt>
      <trkpt lat="41.354557" lon="1.93899">
        <ele>436.9</ele>
        <time>1970-01-01T00:50:33.000Z</time>
      </trkpt>
      <trkpt lat="41.354557" lon="1.93899">
        <ele>436.9</ele>
        <time>1970-01-01T00:50:34.000Z</time>
      </trkpt>
      <trkpt lat="41.354575" lon="1.939028">
        <ele>436.9</ele>
        <time>1970-01-01T00:50:35.000Z</time>
      </trkpt>
      <trkpt lat="41.354575" lon="1.939028">
        <ele>436.9</ele>
        <time>1970-01-01T00:50:36.000Z</time>
      </trkpt>
      <trkpt lat="41.35459" lon="1.93907">
        <ele>436.9</ele>
        <time>1970-01-01T00:50:37.000Z</time>
      </trkpt>
      <trkpt lat="41.35459" lon="1.93907">
        <ele>437.9</ele>
        <time>1970-01-01T00:50:38.000Z</time>
      </trkpt>
      <trkpt lat="41.3546" lon="1.93912">
        <ele>437.9</ele>
        <time>1970-01-01T00:50:39.000Z</time>
      </trkpt>
      <trkpt lat="41.3546" lon="1.93912">
        <ele>437.9</ele>
        <time>1970-01-01T00:50:40.000Z</time>
      </trkpt>
      <trkpt lat="41.354602" lon="1.93917">
        <ele>437.9</ele>
        <time>1970-01-01T00:50:41.000Z</time>
      </trkpt>
      <trkpt lat="41.354602" lon="1.93917">
        <ele>437.9</ele>
        <time>1970-01-01T00:50:42.000Z</time>
      </trkpt>
      <trkpt lat="41.354585" lon="1.939207">
        <ele>437.9</ele>
        <time>1970-01-01T00:50:43.000Z</time>
      </trkpt>
      <trkpt lat="41.354585" lon="1.939207">
        <ele>437.9</ele>
        <time>1970-01-01T00:50:44.000Z</time>
      </trkpt>
      <trkpt lat="41.354562" lon="1.939227">
        <ele>437.9</ele>
        <time>1970-01-01T00:50:45.000Z</time>
      </trkpt>
      <trkpt lat="41.354562" lon="1.939227">
        <ele>437.9</ele>
        <time>1970-01-01T00:50:46.000Z</time>
      </trkpt>
      <trkpt lat="41.354533" lon="1.93921">
        <ele>437.9</ele>
        <time>1970-01-01T00:50:47.000Z</time>
      </trkpt>
      <trkpt lat="41.35452" lon="1.939202">
        <ele>437.9</ele>
        <time>1970-01-01T00:50:48.000Z</time>
      </trkpt>
      <trkpt lat="41.35452" lon="1.939202">
        <ele>437.9</ele>
        <time>1970-01-01T00:50:49.000Z</time>
      </trkpt>
      <trkpt lat="41.354493" lon="1.939177">
        <ele>437.9</ele>
        <time>1970-01-01T00:50:50.000Z</time>
      </trkpt>
      <trkpt lat="41.35448" lon="1.939165">
        <ele>437.9</ele>
        <time>1970-01-01T00:50:51.000Z</time>
      </trkpt>
      <trkpt lat="41.35448" lon="1.939165">
        <ele>437.9</ele>
        <time>1970-01-01T00:50:52.000Z</time>
      </trkpt>
      <trkpt lat="41.35445" lon="1.93914">
        <ele>437.9</ele>
        <time>1970-01-01T00:50:53.000Z</time>
      </trkpt>
      <trkpt lat="41.35445" lon="1.93914">
        <ele>437.9</ele>
        <time>1970-01-01T00:50:54.000Z</time>
      </trkpt>
      <trkpt lat="41.35442" lon="1.939107">
        <ele>438.9</ele>
        <time>1970-01-01T00:50:55.000Z</time>
      </trkpt>
      <trkpt lat="41.35442" lon="1.939107">
        <ele>438.9</ele>
        <time>1970-01-01T00:50:56.000Z</time>
      </trkpt>
      <trkpt lat="41.354387" lon="1.939078">
        <ele>438.9</ele>
        <time>1970-01-01T00:50:57.000Z</time>
      </trkpt>
      <trkpt lat="41.354387" lon="1.939078">
        <ele>438.9</ele>
        <time>1970-01-01T00:50:58.000Z</time>
      </trkpt>
      <trkpt lat="41.354347" lon="1.939052">
        <ele>438.9</ele>
        <time>1970-01-01T00:50:59.000Z</time>
      </trkpt>
      <trkpt lat="41.354347" lon="1.939052">
        <ele>438.9</ele>
        <time>1970-01-01T00:51:00.000Z</time>
      </trkpt>
      <trkpt lat="41.354307" lon="1.939025">
        <ele>438.9</ele>
        <time>1970-01-01T00:51:01.000Z</time>
      </trkpt>
      <trkpt lat="41.354307" lon="1.939025">
        <ele>438.9</ele>
        <time>1970-01-01T00:51:02.000Z</time>
      </trkpt>
      <trkpt lat="41.354265" lon="1.938995">
        <ele>438.9</ele>
        <time>1970-01-01T00:51:03.000Z</time>
      </trkpt>
      <trkpt lat="41.354242" lon="1.938978">
        <ele>438.9</ele>
        <time>1970-01-01T00:51:04.000Z</time>
      </trkpt>
      <trkpt lat="41.354242" lon="1.938978">
        <ele>438.9</ele>
        <time>1970-01-01T00:51:05.000Z</time>
      </trkpt>
      <trkpt lat="41.354193" lon="1.938957">
        <ele>438.9</ele>
        <time>1970-01-01T00:51:06.000Z</time>
      </trkpt>
      <trkpt lat="41.354193" lon="1.938957">
        <ele>438.9</ele>
        <time>1970-01-01T00:51:07.000Z</time>
      </trkpt>
      <trkpt lat="41.354142" lon="1.938945">
        <ele>438.9</ele>
        <time>1970-01-01T00:51:08.000Z</time>
      </trkpt>
      <trkpt lat="41.354113" lon="1.938942">
        <ele>438.9</ele>
        <time>1970-01-01T00:51:09.000Z</time>
      </trkpt>
      <trkpt lat="41.354113" lon="1.938942">
        <ele>438.9</ele>
        <time>1970-01-01T00:51:10.000Z</time>
      </trkpt>
      <trkpt lat="41.354047" lon="1.938933">
        <ele>438.9</ele>
        <time>1970-01-01T00:51:11.000Z</time>
      </trkpt>
      <trkpt lat="41.354005" lon="1.938928">
        <ele>438.9</ele>
        <time>1970-01-01T00:51:12.000Z</time>
      </trkpt>
      <trkpt lat="41.353968" lon="1.938915">
        <ele>438.9</ele>
        <time>1970-01-01T00:51:13.000Z</time>
      </trkpt>
      <trkpt lat="41.353927" lon="1.938903">
        <ele>438.9</ele>
        <time>1970-01-01T00:51:14.000Z</time>
      </trkpt>
      <trkpt lat="41.353927" lon="1.938903">
        <ele>438.9</ele>
        <time>1970-01-01T00:51:15.000Z</time>
      </trkpt>
      <trkpt lat="41.353833" lon="1.93889">
        <ele>438.9</ele>
        <time>1970-01-01T00:51:16.000Z</time>
      </trkpt>
      <trkpt lat="41.353788" lon="1.938892">
        <ele>437.9</ele>
        <time>1970-01-01T00:51:17.000Z</time>
      </trkpt>
      <trkpt lat="41.353788" lon="1.938892">
        <ele>437.9</ele>
        <time>1970-01-01T00:51:18.000Z</time>
      </trkpt>
      <trkpt lat="41.353702" lon="1.938902">
        <ele>437.9</ele>
        <time>1970-01-01T00:51:19.000Z</time>
      </trkpt>
      <trkpt lat="41.353702" lon="1.938902">
        <ele>437.9</ele>
        <time>1970-01-01T00:51:20.000Z</time>
      </trkpt>
      <trkpt lat="41.353615" lon="1.938925">
        <ele>437.9</ele>
        <time>1970-01-01T00:51:21.000Z</time>
      </trkpt>
      <trkpt lat="41.353615" lon="1.938925">
        <ele>437.9</ele>
        <time>1970-01-01T00:51:22.000Z</time>
      </trkpt>
      <trkpt lat="41.353538" lon="1.938947">
        <ele>437.9</ele>
        <time>1970-01-01T00:51:23.000Z</time>
      </trkpt>
      <trkpt lat="41.353538" lon="1.938947">
        <ele>437.9</ele>
        <time>1970-01-01T00:51:24.000Z</time>
      </trkpt>
      <trkpt lat="41.353463" lon="1.938973">
        <ele>437.9</ele>
        <time>1970-01-01T00:51:25.000Z</time>
      </trkpt>
      <trkpt lat="41.353463" lon="1.938973">
        <ele>437.9</ele>
        <time>1970-01-01T00:51:26.000Z</time>
      </trkpt>
      <trkpt lat="41.353395" lon="1.939002">
        <ele>437.9</ele>
        <time>1970-01-01T00:51:27.000Z</time>
      </trkpt>
      <trkpt lat="41.353395" lon="1.939002">
        <ele>437.9</ele>
        <time>1970-01-01T00:51:28.000Z</time>
      </trkpt>
      <trkpt lat="41.353328" lon="1.939043">
        <ele>437.9</ele>
        <time>1970-01-01T00:51:29.000Z</time>
      </trkpt>
      <trkpt lat="41.353297" lon="1.939067">
        <ele>437.9</ele>
        <time>1970-01-01T00:51:30.000Z</time>
      </trkpt>
      <trkpt lat="41.353297" lon="1.939067">
        <ele>437.9</ele>
        <time>1970-01-01T00:51:31.000Z</time>
      </trkpt>
      <trkpt lat="41.353243" lon="1.939133">
        <ele>437.9</ele>
        <time>1970-01-01T00:51:32.000Z</time>
      </trkpt>
      <trkpt lat="41.35322" lon="1.939168">
        <ele>437.9</ele>
        <time>1970-01-01T00:51:33.000Z</time>
      </trkpt>
      <trkpt lat="41.35322" lon="1.939168">
        <ele>437.9</ele>
        <time>1970-01-01T00:51:34.000Z</time>
      </trkpt>
      <trkpt lat="41.353183" lon="1.939232">
        <ele>437.9</ele>
        <time>1970-01-01T00:51:35.000Z</time>
      </trkpt>
      <trkpt lat="41.353183" lon="1.939232">
        <ele>437.9</ele>
        <time>1970-01-01T00:51:36.000Z</time>
      </trkpt>
      <trkpt lat="41.353158" lon="1.939293">
        <ele>438.9</ele>
        <time>1970-01-01T00:51:37.000Z</time>
      </trkpt>
      <trkpt lat="41.353158" lon="1.939293">
        <ele>438.9</ele>
        <time>1970-01-01T00:51:38.000Z</time>
      </trkpt>
      <trkpt lat="41.35315" lon="1.939353">
        <ele>439.9</ele>
        <time>1970-01-01T00:51:39.000Z</time>
      </trkpt>
      <trkpt lat="41.353143" lon="1.939387">
        <ele>439.9</ele>
        <time>1970-01-01T00:51:40.000Z</time>
      </trkpt>
      <trkpt lat="41.353143" lon="1.939387">
        <ele>421.9</ele>
        <time>1970-01-01T00:51:41.000Z</time>
      </trkpt>
      <trkpt lat="41.353137" lon="1.939457">
        <ele>421.9</ele>
        <time>1970-01-01T00:51:42.000Z</time>
      </trkpt>
      <trkpt lat="41.353137" lon="1.939457">
        <ele>445.9</ele>
        <time>1970-01-01T00:51:43.000Z</time>
      </trkpt>
      <trkpt lat="41.353123" lon="1.939513">
        <ele>445.9</ele>
        <time>1970-01-01T00:51:44.000Z</time>
      </trkpt>
      <trkpt lat="41.353123" lon="1.939513">
        <ele>443.9</ele>
        <time>1970-01-01T00:51:45.000Z</time>
      </trkpt>
      <trkpt lat="41.353115" lon="1.939592">
        <ele>443.9</ele>
        <time>1970-01-01T00:51:46.000Z</time>
      </trkpt>
      <trkpt lat="41.353115" lon="1.939592">
        <ele>441.9</ele>
        <time>1970-01-01T00:51:47.000Z</time>
      </trkpt>
      <trkpt lat="41.353092" lon="1.939673">
        <ele>441.9</ele>
        <time>1970-01-01T00:51:48.000Z</time>
      </trkpt>
      <trkpt lat="41.353092" lon="1.939673">
        <ele>441.9</ele>
        <time>1970-01-01T00:51:49.000Z</time>
      </trkpt>
      <trkpt lat="41.353065" lon="1.939745">
        <ele>441.9</ele>
        <time>1970-01-01T00:51:50.000Z</time>
      </trkpt>
      <trkpt lat="41.353065" lon="1.939745">
        <ele>440.9</ele>
        <time>1970-01-01T00:51:51.000Z</time>
      </trkpt>
      <trkpt lat="41.353035" lon="1.939797">
        <ele>440.9</ele>
        <time>1970-01-01T00:51:52.000Z</time>
      </trkpt>
      <trkpt lat="41.353035" lon="1.939797">
        <ele>440.9</ele>
        <time>1970-01-01T00:51:53.000Z</time>
      </trkpt>
      <trkpt lat="41.353002" lon="1.939833">
        <ele>440.9</ele>
        <time>1970-01-01T00:51:54.000Z</time>
      </trkpt>
      <trkpt lat="41.352983" lon="1.93985">
        <ele>440.9</ele>
        <time>1970-01-01T00:51:55.000Z</time>
      </trkpt>
      <trkpt lat="41.352983" lon="1.93985">
        <ele>440.9</ele>
        <time>1970-01-01T00:51:56.000Z</time>
      </trkpt>
      <trkpt lat="41.352938" lon="1.939867">
        <ele>440.9</ele>
        <time>1970-01-01T00:51:57.000Z</time>
      </trkpt>
      <trkpt lat="41.352938" lon="1.939867">
        <ele>440.9</ele>
        <time>1970-01-01T00:51:58.000Z</time>
      </trkpt>
      <trkpt lat="41.35289" lon="1.93987">
        <ele>440.9</ele>
        <time>1970-01-01T00:51:59.000Z</time>
      </trkpt>
      <trkpt lat="41.352865" lon="1.939865">
        <ele>440.9</ele>
        <time>1970-01-01T00:52:00.000Z</time>
      </trkpt>
      <trkpt lat="41.352865" lon="1.939865">
        <ele>440.9</ele>
        <time>1970-01-01T00:52:01.000Z</time>
      </trkpt>
      <trkpt lat="41.352817" lon="1.939853">
        <ele>440.9</ele>
        <time>1970-01-01T00:52:02.000Z</time>
      </trkpt>
      <trkpt lat="41.352785" lon="1.939845">
        <ele>440.9</ele>
        <time>1970-01-01T00:52:03.000Z</time>
      </trkpt>
      <trkpt lat="41.352785" lon="1.939845">
        <ele>440.9</ele>
        <time>1970-01-01T00:52:04.000Z</time>
      </trkpt>
      <trkpt lat="41.352712" lon="1.939827">
        <ele>440.9</ele>
        <time>1970-01-01T00:52:05.000Z</time>
      </trkpt>
      <trkpt lat="41.352673" lon="1.939808">
        <ele>440.9</ele>
        <time>1970-01-01T00:52:06.000Z</time>
      </trkpt>
      <trkpt lat="41.352673" lon="1.939808">
        <ele>440.9</ele>
        <time>1970-01-01T00:52:07.000Z</time>
      </trkpt>
      <trkpt lat="41.352593" lon="1.93976">
        <ele>440.9</ele>
        <time>1970-01-01T00:52:08.000Z</time>
      </trkpt>
      <trkpt lat="41.352553" lon="1.939733">
        <ele>440.9</ele>
        <time>1970-01-01T00:52:09.000Z</time>
      </trkpt>
      <trkpt lat="41.352553" lon="1.939733">
        <ele>440.9</ele>
        <time>1970-01-01T00:52:10.000Z</time>
      </trkpt>
      <trkpt lat="41.352475" lon="1.939702">
        <ele>440.9</ele>
        <time>1970-01-01T00:52:11.000Z</time>
      </trkpt>
      <trkpt lat="41.352475" lon="1.939702">
        <ele>440.9</ele>
        <time>1970-01-01T00:52:12.000Z</time>
      </trkpt>
      <trkpt lat="41.352405" lon="1.93968">
        <ele>440.9</ele>
        <time>1970-01-01T00:52:13.000Z</time>
      </trkpt>
      <trkpt lat="41.352373" lon="1.939672">
        <ele>440.9</ele>
        <time>1970-01-01T00:52:14.000Z</time>
      </trkpt>
      <trkpt lat="41.352373" lon="1.939672">
        <ele>440.9</ele>
        <time>1970-01-01T00:52:15.000Z</time>
      </trkpt>
      <trkpt lat="41.352325" lon="1.939655">
        <ele>440.9</ele>
        <time>1970-01-01T00:52:16.000Z</time>
      </trkpt>
      <trkpt lat="41.352325" lon="1.939655">
        <ele>440.9</ele>
        <time>1970-01-01T00:52:17.000Z</time>
      </trkpt>
      <trkpt lat="41.352278" lon="1.939633">
        <ele>440.9</ele>
        <time>1970-01-01T00:52:18.000Z</time>
      </trkpt>
      <trkpt lat="41.352278" lon="1.939633">
        <ele>440.9</ele>
        <time>1970-01-01T00:52:19.000Z</time>
      </trkpt>
      <trkpt lat="41.35222" lon="1.939602">
        <ele>440.9</ele>
        <time>1970-01-01T00:52:20.000Z</time>
      </trkpt>
      <trkpt lat="41.352187" lon="1.939587">
        <ele>440.9</ele>
        <time>1970-01-01T00:52:21.000Z</time>
      </trkpt>
      <trkpt lat="41.352187" lon="1.939587">
        <ele>437.9</ele>
        <time>1970-01-01T00:52:22.000Z</time>
      </trkpt>
      <trkpt lat="41.35212" lon="1.939558">
        <ele>440.9</ele>
        <time>1970-01-01T00:52:23.000Z</time>
      </trkpt>
      <trkpt lat="41.352087" lon="1.939555">
        <ele>440.9</ele>
        <time>1970-01-01T00:52:24.000Z</time>
      </trkpt>
      <trkpt lat="41.352087" lon="1.939555">
        <ele>440.9</ele>
        <time>1970-01-01T00:52:25.000Z</time>
      </trkpt>
      <trkpt lat="41.352017" lon="1.939562">
        <ele>440.9</ele>
        <time>1970-01-01T00:52:26.000Z</time>
      </trkpt>
      <trkpt lat="41.351985" lon="1.93957">
        <ele>440.9</ele>
        <time>1970-01-01T00:52:27.000Z</time>
      </trkpt>
      <trkpt lat="41.351985" lon="1.93957">
        <ele>440.9</ele>
        <time>1970-01-01T00:52:28.000Z</time>
      </trkpt>
      <trkpt lat="41.351923" lon="1.939605">
        <ele>440.9</ele>
        <time>1970-01-01T00:52:29.000Z</time>
      </trkpt>
      <trkpt lat="41.351892" lon="1.939627">
        <ele>440.9</ele>
        <time>1970-01-01T00:52:30.000Z</time>
      </trkpt>
      <trkpt lat="41.351892" lon="1.939627">
        <ele>441.9</ele>
        <time>1970-01-01T00:52:31.000Z</time>
      </trkpt>
      <trkpt lat="41.351837" lon="1.939688">
        <ele>441.9</ele>
        <time>1970-01-01T00:52:32.000Z</time>
      </trkpt>
      <trkpt lat="41.351813" lon="1.939725">
        <ele>441.9</ele>
        <time>1970-01-01T00:52:33.000Z</time>
      </trkpt>
      <trkpt lat="41.351797" lon="1.939767">
        <ele>441.9</ele>
        <time>1970-01-01T00:52:34.000Z</time>
      </trkpt>
      <trkpt lat="41.351797" lon="1.939767">
        <ele>441.9</ele>
        <time>1970-01-01T00:52:35.000Z</time>
      </trkpt>
      <trkpt lat="41.351772" lon="1.939853">
        <ele>441.9</ele>
        <time>1970-01-01T00:52:36.000Z</time>
      </trkpt>
      <trkpt lat="41.351757" lon="1.939893">
        <ele>441.9</ele>
        <time>1970-01-01T00:52:37.000Z</time>
      </trkpt>
      <trkpt lat="41.351757" lon="1.939893">
        <ele>441.9</ele>
        <time>1970-01-01T00:52:38.000Z</time>
      </trkpt>
      <trkpt lat="41.351732" lon="1.93996">
        <ele>441.9</ele>
        <time>1970-01-01T00:52:39.000Z</time>
      </trkpt>
      <trkpt lat="41.351732" lon="1.93996">
        <ele>441.9</ele>
        <time>1970-01-01T00:52:40.000Z</time>
      </trkpt>
      <trkpt lat="41.351717" lon="1.940028">
        <ele>441.9</ele>
        <time>1970-01-01T00:52:41.000Z</time>
      </trkpt>
      <trkpt lat="41.351717" lon="1.940028">
        <ele>441.9</ele>
        <time>1970-01-01T00:52:42.000Z</time>
      </trkpt>
      <trkpt lat="41.351687" lon="1.940093">
        <ele>441.9</ele>
        <time>1970-01-01T00:52:43.000Z</time>
      </trkpt>
      <trkpt lat="41.351687" lon="1.940093">
        <ele>441.9</ele>
        <time>1970-01-01T00:52:44.000Z</time>
      </trkpt>
      <trkpt lat="41.351657" lon="1.940182">
        <ele>442.9</ele>
        <time>1970-01-01T00:52:45.000Z</time>
      </trkpt>
      <trkpt lat="41.351657" lon="1.940182">
        <ele>442.9</ele>
        <time>1970-01-01T00:52:46.000Z</time>
      </trkpt>
      <trkpt lat="41.351625" lon="1.940277">
        <ele>442.9</ele>
        <time>1970-01-01T00:52:47.000Z</time>
      </trkpt>
      <trkpt lat="41.35161" lon="1.940327">
        <ele>442.9</ele>
        <time>1970-01-01T00:52:48.000Z</time>
      </trkpt>
      <trkpt lat="41.35161" lon="1.940327">
        <ele>444.9</ele>
        <time>1970-01-01T00:52:49.000Z</time>
      </trkpt>
      <trkpt lat="41.351583" lon="1.94044">
        <ele>444.9</ele>
        <time>1970-01-01T00:52:50.000Z</time>
      </trkpt>
      <trkpt lat="41.351572" lon="1.940502">
        <ele>438.9</ele>
        <time>1970-01-01T00:52:51.000Z</time>
      </trkpt>
      <trkpt lat="41.351572" lon="1.940502">
        <ele>438.9</ele>
        <time>1970-01-01T00:52:52.000Z</time>
      </trkpt>
      <trkpt lat="41.351557" lon="1.940627">
        <ele>443.9</ele>
        <time>1970-01-01T00:52:53.000Z</time>
      </trkpt>
      <trkpt lat="41.351553" lon="1.94069">
        <ele>443.9</ele>
        <time>1970-01-01T00:52:54.000Z</time>
      </trkpt>
      <trkpt lat="41.351553" lon="1.94069">
        <ele>442.9</ele>
        <time>1970-01-01T00:52:55.000Z</time>
      </trkpt>
      <trkpt lat="41.351538" lon="1.940813">
        <ele>442.9</ele>
        <time>1970-01-01T00:52:56.000Z</time>
      </trkpt>
      <trkpt lat="41.351527" lon="1.940873">
        <ele>441.9</ele>
        <time>1970-01-01T00:52:57.000Z</time>
      </trkpt>
      <trkpt lat="41.351527" lon="1.940873">
        <ele>441.9</ele>
        <time>1970-01-01T00:52:58.000Z</time>
      </trkpt>
      <trkpt lat="41.351485" lon="1.940987">
        <ele>441.9</ele>
        <time>1970-01-01T00:52:59.000Z</time>
      </trkpt>
      <trkpt lat="41.351455" lon="1.941038">
        <ele>441.9</ele>
        <time>1970-01-01T00:53:00.000Z</time>
      </trkpt>
      <trkpt lat="41.351418" lon="1.941083">
        <ele>441.9</ele>
        <time>1970-01-01T00:53:01.000Z</time>
      </trkpt>
      <trkpt lat="41.351418" lon="1.941083">
        <ele>441.9</ele>
        <time>1970-01-01T00:53:02.000Z</time>
      </trkpt>
      <trkpt lat="41.351342" lon="1.941153">
        <ele>441.9</ele>
        <time>1970-01-01T00:53:03.000Z</time>
      </trkpt>
      <trkpt lat="41.351342" lon="1.941153">
        <ele>441.9</ele>
        <time>1970-01-01T00:53:04.000Z</time>
      </trkpt>
      <trkpt lat="41.351263" lon="1.941202">
        <ele>440.9</ele>
        <time>1970-01-01T00:53:05.000Z</time>
      </trkpt>
      <trkpt lat="41.351222" lon="1.941217">
        <ele>440.9</ele>
        <time>1970-01-01T00:53:06.000Z</time>
      </trkpt>
      <trkpt lat="41.351222" lon="1.941217">
        <ele>440.9</ele>
        <time>1970-01-01T00:53:07.000Z</time>
      </trkpt>
      <trkpt lat="41.351138" lon="1.941227">
        <ele>440.9</ele>
        <time>1970-01-01T00:53:08.000Z</time>
      </trkpt>
      <trkpt lat="41.351102" lon="1.941225">
        <ele>440.9</ele>
        <time>1970-01-01T00:53:09.000Z</time>
      </trkpt>
      <trkpt lat="41.351102" lon="1.941225">
        <ele>440.9</ele>
        <time>1970-01-01T00:53:10.000Z</time>
      </trkpt>
      <trkpt lat="41.351028" lon="1.941213">
        <ele>440.9</ele>
        <time>1970-01-01T00:53:11.000Z</time>
      </trkpt>
      <trkpt lat="41.350998" lon="1.941212">
        <ele>440.9</ele>
        <time>1970-01-01T00:53:12.000Z</time>
      </trkpt>
      <trkpt lat="41.350998" lon="1.941212">
        <ele>440.9</ele>
        <time>1970-01-01T00:53:13.000Z</time>
      </trkpt>
      <trkpt lat="41.350945" lon="1.941248">
        <ele>440.9</ele>
        <time>1970-01-01T00:53:14.000Z</time>
      </trkpt>
      <trkpt lat="41.350918" lon="1.941278">
        <ele>440.9</ele>
        <time>1970-01-01T00:53:15.000Z</time>
      </trkpt>
      <trkpt lat="41.350893" lon="1.941305">
        <ele>441.9</ele>
        <time>1970-01-01T00:53:16.000Z</time>
      </trkpt>
      <trkpt lat="41.350893" lon="1.941305">
        <ele>441.9</ele>
        <time>1970-01-01T00:53:17.000Z</time>
      </trkpt>
      <trkpt lat="41.350858" lon="1.941358">
        <ele>441.9</ele>
        <time>1970-01-01T00:53:18.000Z</time>
      </trkpt>
      <trkpt lat="41.350858" lon="1.941358">
        <ele>441.9</ele>
        <time>1970-01-01T00:53:19.000Z</time>
      </trkpt>
      <trkpt lat="41.350837" lon="1.941425">
        <ele>441.9</ele>
        <time>1970-01-01T00:53:20.000Z</time>
      </trkpt>
      <trkpt lat="41.350828" lon="1.941462">
        <ele>441.9</ele>
        <time>1970-01-01T00:53:21.000Z</time>
      </trkpt>
      <trkpt lat="41.350828" lon="1.941462">
        <ele>442.9</ele>
        <time>1970-01-01T00:53:22.000Z</time>
      </trkpt>
      <trkpt lat="41.350822" lon="1.94154">
        <ele>442.9</ele>
        <time>1970-01-01T00:53:23.000Z</time>
      </trkpt>
      <trkpt lat="41.350822" lon="1.941573">
        <ele>442.9</ele>
        <time>1970-01-01T00:53:24.000Z</time>
      </trkpt>
      <trkpt lat="41.350822" lon="1.941573">
        <ele>442.9</ele>
        <time>1970-01-01T00:53:25.000Z</time>
      </trkpt>
      <trkpt lat="41.350833" lon="1.941642">
        <ele>443.9</ele>
        <time>1970-01-01T00:53:26.000Z</time>
      </trkpt>
      <trkpt lat="41.350835" lon="1.941673">
        <ele>443.9</ele>
        <time>1970-01-01T00:53:27.000Z</time>
      </trkpt>
      <trkpt lat="41.350835" lon="1.941673">
        <ele>443.9</ele>
        <time>1970-01-01T00:53:28.000Z</time>
      </trkpt>
      <trkpt lat="41.350837" lon="1.941747">
        <ele>443.9</ele>
        <time>1970-01-01T00:53:29.000Z</time>
      </trkpt>
      <trkpt lat="41.350838" lon="1.941785">
        <ele>444.9</ele>
        <time>1970-01-01T00:53:30.000Z</time>
      </trkpt>
      <trkpt lat="41.35084" lon="1.94182">
        <ele>444.9</ele>
        <time>1970-01-01T00:53:31.000Z</time>
      </trkpt>
      <trkpt lat="41.35084" lon="1.94182">
        <ele>444.9</ele>
        <time>1970-01-01T00:53:32.000Z</time>
      </trkpt>
      <trkpt lat="41.350847" lon="1.941877">
        <ele>444.9</ele>
        <time>1970-01-01T00:53:33.000Z</time>
      </trkpt>
      <trkpt lat="41.350847" lon="1.941877">
        <ele>444.9</ele>
        <time>1970-01-01T00:53:34.000Z</time>
      </trkpt>
      <trkpt lat="41.350843" lon="1.941922">
        <ele>444.9</ele>
        <time>1970-01-01T00:53:35.000Z</time>
      </trkpt>
      <trkpt lat="41.350843" lon="1.941922">
        <ele>444.9</ele>
        <time>1970-01-01T00:53:36.000Z</time>
      </trkpt>
      <trkpt lat="41.35082" lon="1.941963">
        <ele>444.9</ele>
        <time>1970-01-01T00:53:37.000Z</time>
      </trkpt>
      <trkpt lat="41.350802" lon="1.941975">
        <ele>444.9</ele>
        <time>1970-01-01T00:53:38.000Z</time>
      </trkpt>
      <trkpt lat="41.350802" lon="1.941975">
        <ele>444.9</ele>
        <time>1970-01-01T00:53:39.000Z</time>
      </trkpt>
      <trkpt lat="41.350768" lon="1.941982">
        <ele>444.9</ele>
        <time>1970-01-01T00:53:40.000Z</time>
      </trkpt>
      <trkpt lat="41.350768" lon="1.941982">
        <ele>444.9</ele>
        <time>1970-01-01T00:53:41.000Z</time>
      </trkpt>
      <trkpt lat="41.350742" lon="1.942002">
        <ele>444.9</ele>
        <time>1970-01-01T00:53:42.000Z</time>
      </trkpt>
      <trkpt lat="41.350742" lon="1.942002">
        <ele>444.9</ele>
        <time>1970-01-01T00:53:43.000Z</time>
      </trkpt>
      <trkpt lat="41.350703" lon="1.942015">
        <ele>445.9</ele>
        <time>1970-01-01T00:53:44.000Z</time>
      </trkpt>
      <trkpt lat="41.350703" lon="1.942015">
        <ele>445.9</ele>
        <time>1970-01-01T00:53:45.000Z</time>
      </trkpt>
      <trkpt lat="41.350652" lon="1.942047">
        <ele>445.9</ele>
        <time>1970-01-01T00:53:46.000Z</time>
      </trkpt>
      <trkpt lat="41.350652" lon="1.942047">
        <ele>445.9</ele>
        <time>1970-01-01T00:53:47.000Z</time>
      </trkpt>
      <trkpt lat="41.350583" lon="1.94207">
        <ele>445.9</ele>
        <time>1970-01-01T00:53:48.000Z</time>
      </trkpt>
      <trkpt lat="41.350583" lon="1.94207">
        <ele>443.9</ele>
        <time>1970-01-01T00:53:49.000Z</time>
      </trkpt>
      <trkpt lat="41.350502" lon="1.942093">
        <ele>443.9</ele>
        <time>1970-01-01T00:53:50.000Z</time>
      </trkpt>
      <trkpt lat="41.350453" lon="1.942105">
        <ele>443.9</ele>
        <time>1970-01-01T00:53:51.000Z</time>
      </trkpt>
      <trkpt lat="41.350453" lon="1.942105">
        <ele>443.9</ele>
        <time>1970-01-01T00:53:52.000Z</time>
      </trkpt>
      <trkpt lat="41.350365" lon="1.942138">
        <ele>443.9</ele>
        <time>1970-01-01T00:53:53.000Z</time>
      </trkpt>
      <trkpt lat="41.350328" lon="1.942162">
        <ele>443.9</ele>
        <time>1970-01-01T00:53:54.000Z</time>
      </trkpt>
      <trkpt lat="41.350328" lon="1.942162">
        <ele>443.9</ele>
        <time>1970-01-01T00:53:55.000Z</time>
      </trkpt>
      <trkpt lat="41.350277" lon="1.942208">
        <ele>443.9</ele>
        <time>1970-01-01T00:53:56.000Z</time>
      </trkpt>
      <trkpt lat="41.350277" lon="1.942208">
        <ele>443.9</ele>
        <time>1970-01-01T00:53:57.000Z</time>
      </trkpt>
      <trkpt lat="41.350233" lon="1.942255">
        <ele>443.9</ele>
        <time>1970-01-01T00:53:58.000Z</time>
      </trkpt>
      <trkpt lat="41.350233" lon="1.942255">
        <ele>443.9</ele>
        <time>1970-01-01T00:53:59.000Z</time>
      </trkpt>
      <trkpt lat="41.350203" lon="1.942302">
        <ele>443.9</ele>
        <time>1970-01-01T00:54:00.000Z</time>
      </trkpt>
      <trkpt lat="41.350203" lon="1.942302">
        <ele>443.9</ele>
        <time>1970-01-01T00:54:01.000Z</time>
      </trkpt>
      <trkpt lat="41.350172" lon="1.94235">
        <ele>443.9</ele>
        <time>1970-01-01T00:54:02.000Z</time>
      </trkpt>
      <trkpt lat="41.350155" lon="1.942383">
        <ele>443.9</ele>
        <time>1970-01-01T00:54:03.000Z</time>
      </trkpt>
      <trkpt lat="41.350155" lon="1.942383">
        <ele>443.9</ele>
        <time>1970-01-01T00:54:04.000Z</time>
      </trkpt>
      <trkpt lat="41.350105" lon="1.94242">
        <ele>443.9</ele>
        <time>1970-01-01T00:54:05.000Z</time>
      </trkpt>
      <trkpt lat="41.350105" lon="1.94242">
        <ele>443.9</ele>
        <time>1970-01-01T00:54:06.000Z</time>
      </trkpt>
      <trkpt lat="41.350048" lon="1.942393">
        <ele>443.9</ele>
        <time>1970-01-01T00:54:07.000Z</time>
      </trkpt>
      <trkpt lat="41.350023" lon="1.94236">
        <ele>443.9</ele>
        <time>1970-01-01T00:54:08.000Z</time>
      </trkpt>
      <trkpt lat="41.350002" lon="1.942318">
        <ele>442.9</ele>
        <time>1970-01-01T00:54:09.000Z</time>
      </trkpt>
      <trkpt lat="41.350002" lon="1.942318">
        <ele>442.9</ele>
        <time>1970-01-01T00:54:10.000Z</time>
      </trkpt>
      <trkpt lat="41.34995" lon="1.942217">
        <ele>441.9</ele>
        <time>1970-01-01T00:54:11.000Z</time>
      </trkpt>
      <trkpt lat="41.34995" lon="1.942217">
        <ele>441.9</ele>
        <time>1970-01-01T00:54:12.000Z</time>
      </trkpt>
      <trkpt lat="41.349898" lon="1.942105">
        <ele>440.9</ele>
        <time>1970-01-01T00:54:13.000Z</time>
      </trkpt>
      <trkpt lat="41.349898" lon="1.942105">
        <ele>440.9</ele>
        <time>1970-01-01T00:54:14.000Z</time>
      </trkpt>
      <trkpt lat="41.349867" lon="1.942008">
        <ele>439.9</ele>
        <time>1970-01-01T00:54:15.000Z</time>
      </trkpt>
      <trkpt lat="41.349867" lon="1.942008">
        <ele>439.9</ele>
        <time>1970-01-01T00:54:16.000Z</time>
      </trkpt>
      <trkpt lat="41.349822" lon="1.941908">
        <ele>438.9</ele>
        <time>1970-01-01T00:54:17.000Z</time>
      </trkpt>
      <trkpt lat="41.349822" lon="1.941908">
        <ele>438.9</ele>
        <time>1970-01-01T00:54:18.000Z</time>
      </trkpt>
      <trkpt lat="41.349743" lon="1.941842">
        <ele>437.9</ele>
        <time>1970-01-01T00:54:19.000Z</time>
      </trkpt>
      <trkpt lat="41.349743" lon="1.941842">
        <ele>437.9</ele>
        <time>1970-01-01T00:54:20.000Z</time>
      </trkpt>
      <trkpt lat="41.349648" lon="1.941807">
        <ele>437.9</ele>
        <time>1970-01-01T00:54:21.000Z</time>
      </trkpt>
      <trkpt lat="41.349648" lon="1.941807">
        <ele>437.9</ele>
        <time>1970-01-01T00:54:22.000Z</time>
      </trkpt>
      <trkpt lat="41.349583" lon="1.941795">
        <ele>436.9</ele>
        <time>1970-01-01T00:54:23.000Z</time>
      </trkpt>
      <trkpt lat="41.349583" lon="1.941795">
        <ele>436.9</ele>
        <time>1970-01-01T00:54:24.000Z</time>
      </trkpt>
      <trkpt lat="41.349508" lon="1.941803">
        <ele>436.9</ele>
        <time>1970-01-01T00:54:25.000Z</time>
      </trkpt>
      <trkpt lat="41.349508" lon="1.941803">
        <ele>436.9</ele>
        <time>1970-01-01T00:54:26.000Z</time>
      </trkpt>
      <trkpt lat="41.349428" lon="1.941835">
        <ele>434.9</ele>
        <time>1970-01-01T00:54:27.000Z</time>
      </trkpt>
      <trkpt lat="41.349428" lon="1.941835">
        <ele>434.9</ele>
        <time>1970-01-01T00:54:28.000Z</time>
      </trkpt>
      <trkpt lat="41.34935" lon="1.941855">
        <ele>433.9</ele>
        <time>1970-01-01T00:54:29.000Z</time>
      </trkpt>
      <trkpt lat="41.349313" lon="1.941852">
        <ele>432.9</ele>
        <time>1970-01-01T00:54:30.000Z</time>
      </trkpt>
      <trkpt lat="41.349313" lon="1.941852">
        <ele>432.9</ele>
        <time>1970-01-01T00:54:31.000Z</time>
      </trkpt>
      <trkpt lat="41.349247" lon="1.941802">
        <ele>431.9</ele>
        <time>1970-01-01T00:54:32.000Z</time>
      </trkpt>
      <trkpt lat="41.349247" lon="1.941802">
        <ele>431.9</ele>
        <time>1970-01-01T00:54:33.000Z</time>
      </trkpt>
      <trkpt lat="41.34919" lon="1.9417">
        <ele>430.9</ele>
        <time>1970-01-01T00:54:34.000Z</time>
      </trkpt>
      <trkpt lat="41.34919" lon="1.9417">
        <ele>430.9</ele>
        <time>1970-01-01T00:54:35.000Z</time>
      </trkpt>
      <trkpt lat="41.349163" lon="1.941573">
        <ele>429.9</ele>
        <time>1970-01-01T00:54:36.000Z</time>
      </trkpt>
      <trkpt lat="41.349163" lon="1.941573">
        <ele>429.9</ele>
        <time>1970-01-01T00:54:37.000Z</time>
      </trkpt>
      <trkpt lat="41.349182" lon="1.941427">
        <ele>427.9</ele>
        <time>1970-01-01T00:54:38.000Z</time>
      </trkpt>
      <trkpt lat="41.349183" lon="1.94135">
        <ele>427.9</ele>
        <time>1970-01-01T00:54:39.000Z</time>
      </trkpt>
      <trkpt lat="41.349183" lon="1.94135">
        <ele>427.9</ele>
        <time>1970-01-01T00:54:40.000Z</time>
      </trkpt>
      <trkpt lat="41.349178" lon="1.941223">
        <ele>427.9</ele>
        <time>1970-01-01T00:54:41.000Z</time>
      </trkpt>
      <trkpt lat="41.349178" lon="1.941223">
        <ele>426.9</ele>
        <time>1970-01-01T00:54:42.000Z</time>
      </trkpt>
      <trkpt lat="41.349158" lon="1.941115">
        <ele>426.9</ele>
        <time>1970-01-01T00:54:43.000Z</time>
      </trkpt>
      <trkpt lat="41.349135" lon="1.941057">
        <ele>424.9</ele>
        <time>1970-01-01T00:54:44.000Z</time>
      </trkpt>
      <trkpt lat="41.349135" lon="1.941057">
        <ele>424.9</ele>
        <time>1970-01-01T00:54:45.000Z</time>
      </trkpt>
      <trkpt lat="41.349065" lon="1.940928">
        <ele>423.9</ele>
        <time>1970-01-01T00:54:46.000Z</time>
      </trkpt>
      <trkpt lat="41.349028" lon="1.940872">
        <ele>423.9</ele>
        <time>1970-01-01T00:54:47.000Z</time>
      </trkpt>
      <trkpt lat="41.349028" lon="1.940872">
        <ele>423.9</ele>
        <time>1970-01-01T00:54:48.000Z</time>
      </trkpt>
      <trkpt lat="41.348937" lon="1.94077">
        <ele>423.9</ele>
        <time>1970-01-01T00:54:49.000Z</time>
      </trkpt>
      <trkpt lat="41.348937" lon="1.94077">
        <ele>423.9</ele>
        <time>1970-01-01T00:54:50.000Z</time>
      </trkpt>
      <trkpt lat="41.348843" lon="1.940693">
        <ele>423.9</ele>
        <time>1970-01-01T00:54:51.000Z</time>
      </trkpt>
      <trkpt lat="41.348843" lon="1.940693">
        <ele>422.9</ele>
        <time>1970-01-01T00:54:52.000Z</time>
      </trkpt>
      <trkpt lat="41.34877" lon="1.940598">
        <ele>422.9</ele>
        <time>1970-01-01T00:54:53.000Z</time>
      </trkpt>
      <trkpt lat="41.34877" lon="1.940598">
        <ele>422.9</ele>
        <time>1970-01-01T00:54:54.000Z</time>
      </trkpt>
      <trkpt lat="41.348717" lon="1.940452">
        <ele>422.9</ele>
        <time>1970-01-01T00:54:55.000Z</time>
      </trkpt>
      <trkpt lat="41.348683" lon="1.940363">
        <ele>420.9</ele>
        <time>1970-01-01T00:54:56.000Z</time>
      </trkpt>
      <trkpt lat="41.348683" lon="1.940363">
        <ele>420.9</ele>
        <time>1970-01-01T00:54:57.000Z</time>
      </trkpt>
      <trkpt lat="41.348578" lon="1.940213">
        <ele>419.9</ele>
        <time>1970-01-01T00:54:58.000Z</time>
      </trkpt>
      <trkpt lat="41.348507" lon="1.940152">
        <ele>419.9</ele>
        <time>1970-01-01T00:54:59.000Z</time>
      </trkpt>
      <trkpt lat="41.348507" lon="1.940152">
        <ele>418.9</ele>
        <time>1970-01-01T00:55:00.000Z</time>
      </trkpt>
      <trkpt lat="41.348352" lon="1.940057">
        <ele>418.9</ele>
        <time>1970-01-01T00:55:01.000Z</time>
      </trkpt>
      <trkpt lat="41.348352" lon="1.940057">
        <ele>417.9</ele>
        <time>1970-01-01T00:55:02.000Z</time>
      </trkpt>
      <trkpt lat="41.348202" lon="1.939998">
        <ele>417.9</ele>
        <time>1970-01-01T00:55:03.000Z</time>
      </trkpt>
      <trkpt lat="41.348183" lon="1.939937">
        <ele>416.9</ele>
        <time>1970-01-01T00:55:04.000Z</time>
      </trkpt>
      <trkpt lat="41.348183" lon="1.939937">
        <ele>416.9</ele>
        <time>1970-01-01T00:55:05.000Z</time>
      </trkpt>
      <trkpt lat="41.34819" lon="1.939825">
        <ele>415.9</ele>
        <time>1970-01-01T00:55:06.000Z</time>
      </trkpt>
      <trkpt lat="41.34819" lon="1.939825">
        <ele>415.9</ele>
        <time>1970-01-01T00:55:07.000Z</time>
      </trkpt>
      <trkpt lat="41.348255" lon="1.939738">
        <ele>414.9</ele>
        <time>1970-01-01T00:55:08.000Z</time>
      </trkpt>
      <trkpt lat="41.348255" lon="1.939738">
        <ele>414.9</ele>
        <time>1970-01-01T00:55:09.000Z</time>
      </trkpt>
      <trkpt lat="41.348353" lon="1.9397">
        <ele>412.9</ele>
        <time>1970-01-01T00:55:10.000Z</time>
      </trkpt>
      <trkpt lat="41.348353" lon="1.9397">
        <ele>412.9</ele>
        <time>1970-01-01T00:55:11.000Z</time>
      </trkpt>
      <trkpt lat="41.348443" lon="1.939637">
        <ele>411.9</ele>
        <time>1970-01-01T00:55:12.000Z</time>
      </trkpt>
      <trkpt lat="41.348453" lon="1.93959">
        <ele>410.9</ele>
        <time>1970-01-01T00:55:13.000Z</time>
      </trkpt>
      <trkpt lat="41.348453" lon="1.93959">
        <ele>410.9</ele>
        <time>1970-01-01T00:55:14.000Z</time>
      </trkpt>
      <trkpt lat="41.348423" lon="1.939507">
        <ele>410.9</ele>
        <time>1970-01-01T00:55:15.000Z</time>
      </trkpt>
      <trkpt lat="41.348423" lon="1.939507">
        <ele>410.9</ele>
        <time>1970-01-01T00:55:16.000Z</time>
      </trkpt>
      <trkpt lat="41.348357" lon="1.939465">
        <ele>409.9</ele>
        <time>1970-01-01T00:55:17.000Z</time>
      </trkpt>
      <trkpt lat="41.348357" lon="1.939465">
        <ele>409.9</ele>
        <time>1970-01-01T00:55:18.000Z</time>
      </trkpt>
      <trkpt lat="41.348247" lon="1.939435">
        <ele>408.9</ele>
        <time>1970-01-01T00:55:19.000Z</time>
      </trkpt>
      <trkpt lat="41.348247" lon="1.939435">
        <ele>408.9</ele>
        <time>1970-01-01T00:55:20.000Z</time>
      </trkpt>
      <trkpt lat="41.348147" lon="1.939322">
        <ele>408.9</ele>
        <time>1970-01-01T00:55:21.000Z</time>
      </trkpt>
      <trkpt lat="41.348147" lon="1.939322">
        <ele>408.9</ele>
        <time>1970-01-01T00:55:22.000Z</time>
      </trkpt>
      <trkpt lat="41.348078" lon="1.9392">
        <ele>407.9</ele>
        <time>1970-01-01T00:55:23.000Z</time>
      </trkpt>
      <trkpt lat="41.348078" lon="1.9392">
        <ele>407.9</ele>
        <time>1970-01-01T00:55:24.000Z</time>
      </trkpt>
      <trkpt lat="41.348012" lon="1.939085">
        <ele>406.9</ele>
        <time>1970-01-01T00:55:25.000Z</time>
      </trkpt>
      <trkpt lat="41.348012" lon="1.939085">
        <ele>406.9</ele>
        <time>1970-01-01T00:55:26.000Z</time>
      </trkpt>
      <trkpt lat="41.34799" lon="1.93898">
        <ele>405.9</ele>
        <time>1970-01-01T00:55:27.000Z</time>
      </trkpt>
      <trkpt lat="41.347992" lon="1.938933">
        <ele>405.9</ele>
        <time>1970-01-01T00:55:28.000Z</time>
      </trkpt>
      <trkpt lat="41.347992" lon="1.938933">
        <ele>404.9</ele>
        <time>1970-01-01T00:55:29.000Z</time>
      </trkpt>
      <trkpt lat="41.348018" lon="1.938842">
        <ele>404.9</ele>
        <time>1970-01-01T00:55:30.000Z</time>
      </trkpt>
      <trkpt lat="41.34805" lon="1.93879">
        <ele>403.9</ele>
        <time>1970-01-01T00:55:31.000Z</time>
      </trkpt>
      <trkpt lat="41.34805" lon="1.93879">
        <ele>403.9</ele>
        <time>1970-01-01T00:55:32.000Z</time>
      </trkpt>
      <trkpt lat="41.348127" lon="1.938688">
        <ele>402.9</ele>
        <time>1970-01-01T00:55:33.000Z</time>
      </trkpt>
      <trkpt lat="41.348127" lon="1.938688">
        <ele>402.9</ele>
        <time>1970-01-01T00:55:34.000Z</time>
      </trkpt>
      <trkpt lat="41.348182" lon="1.93857">
        <ele>402.9</ele>
        <time>1970-01-01T00:55:35.000Z</time>
      </trkpt>
      <trkpt lat="41.348182" lon="1.93857">
        <ele>402.9</ele>
        <time>1970-01-01T00:55:36.000Z</time>
      </trkpt>
      <trkpt lat="41.348223" lon="1.938418">
        <ele>400.9</ele>
        <time>1970-01-01T00:55:37.000Z</time>
      </trkpt>
      <trkpt lat="41.348252" lon="1.938332">
        <ele>400.9</ele>
        <time>1970-01-01T00:55:38.000Z</time>
      </trkpt>
      <trkpt lat="41.348252" lon="1.938332">
        <ele>399.9</ele>
        <time>1970-01-01T00:55:39.000Z</time>
      </trkpt>
      <trkpt lat="41.348282" lon="1.938152">
        <ele>399.9</ele>
        <time>1970-01-01T00:55:40.000Z</time>
      </trkpt>
      <trkpt lat="41.348282" lon="1.938152">
        <ele>398.9</ele>
        <time>1970-01-01T00:55:41.000Z</time>
      </trkpt>
      <trkpt lat="41.34826" lon="1.938022">
        <ele>398.9</ele>
        <time>1970-01-01T00:55:42.000Z</time>
      </trkpt>
      <trkpt lat="41.34826" lon="1.938022">
        <ele>397.9</ele>
        <time>1970-01-01T00:55:43.000Z</time>
      </trkpt>
      <trkpt lat="41.348215" lon="1.93795">
        <ele>397.9</ele>
        <time>1970-01-01T00:55:44.000Z</time>
      </trkpt>
      <trkpt lat="41.348215" lon="1.93795">
        <ele>395.9</ele>
        <time>1970-01-01T00:55:45.000Z</time>
      </trkpt>
      <trkpt lat="41.348157" lon="1.937883">
        <ele>395.9</ele>
        <time>1970-01-01T00:55:46.000Z</time>
      </trkpt>
      <trkpt lat="41.348157" lon="1.937883">
        <ele>393.9</ele>
        <time>1970-01-01T00:55:47.000Z</time>
      </trkpt>
      <trkpt lat="41.348088" lon="1.937797">
        <ele>393.9</ele>
        <time>1970-01-01T00:55:48.000Z</time>
      </trkpt>
      <trkpt lat="41.348088" lon="1.937797">
        <ele>392.9</ele>
        <time>1970-01-01T00:55:49.000Z</time>
      </trkpt>
      <trkpt lat="41.348052" lon="1.937682">
        <ele>392.9</ele>
        <time>1970-01-01T00:55:50.000Z</time>
      </trkpt>
      <trkpt lat="41.348052" lon="1.937622">
        <ele>390.9</ele>
        <time>1970-01-01T00:55:51.000Z</time>
      </trkpt>
      <trkpt lat="41.348052" lon="1.937622">
        <ele>390.9</ele>
        <time>1970-01-01T00:55:52.000Z</time>
      </trkpt>
      <trkpt lat="41.348055" lon="1.937443">
        <ele>389.9</ele>
        <time>1970-01-01T00:55:53.000Z</time>
      </trkpt>
      <trkpt lat="41.348072" lon="1.937362">
        <ele>389.9</ele>
        <time>1970-01-01T00:55:54.000Z</time>
      </trkpt>
      <trkpt lat="41.348072" lon="1.937362">
        <ele>388.9</ele>
        <time>1970-01-01T00:55:55.000Z</time>
      </trkpt>
      <trkpt lat="41.348065" lon="1.937202">
        <ele>386.9</ele>
        <time>1970-01-01T00:55:56.000Z</time>
      </trkpt>
      <trkpt lat="41.348028" lon="1.937127">
        <ele>386.9</ele>
        <time>1970-01-01T00:55:57.000Z</time>
      </trkpt>
      <trkpt lat="41.348028" lon="1.937127">
        <ele>385.9</ele>
        <time>1970-01-01T00:55:58.000Z</time>
      </trkpt>
      <trkpt lat="41.347932" lon="1.936998">
        <ele>385.9</ele>
        <time>1970-01-01T00:55:59.000Z</time>
      </trkpt>
      <trkpt lat="41.347932" lon="1.936998">
        <ele>385.9</ele>
        <time>1970-01-01T00:56:00.000Z</time>
      </trkpt>
      <trkpt lat="41.347858" lon="1.936903">
        <ele>385.9</ele>
        <time>1970-01-01T00:56:01.000Z</time>
      </trkpt>
      <trkpt lat="41.34784" lon="1.936847">
        <ele>384.9</ele>
        <time>1970-01-01T00:56:02.000Z</time>
      </trkpt>
      <trkpt lat="41.347838" lon="1.936782">
        <ele>384.9</ele>
        <time>1970-01-01T00:56:03.000Z</time>
      </trkpt>
      <trkpt lat="41.347838" lon="1.936782">
        <ele>384.9</ele>
        <time>1970-01-01T00:56:04.000Z</time>
      </trkpt>
      <trkpt lat="41.347847" lon="1.93665">
        <ele>384.9</ele>
        <time>1970-01-01T00:56:05.000Z</time>
      </trkpt>
      <trkpt lat="41.347847" lon="1.93665">
        <ele>383.9</ele>
        <time>1970-01-01T00:56:06.000Z</time>
      </trkpt>
      <trkpt lat="41.347848" lon="1.93648">
        <ele>383.9</ele>
        <time>1970-01-01T00:56:07.000Z</time>
      </trkpt>
      <trkpt lat="41.347848" lon="1.93648">
        <ele>382.9</ele>
        <time>1970-01-01T00:56:08.000Z</time>
      </trkpt>
      <trkpt lat="41.34784" lon="1.936293">
        <ele>382.9</ele>
        <time>1970-01-01T00:56:09.000Z</time>
      </trkpt>
      <trkpt lat="41.34784" lon="1.936293">
        <ele>381.9</ele>
        <time>1970-01-01T00:56:10.000Z</time>
      </trkpt>
      <trkpt lat="41.347817" lon="1.93612">
        <ele>381.9</ele>
        <time>1970-01-01T00:56:11.000Z</time>
      </trkpt>
      <trkpt lat="41.347817" lon="1.93612">
        <ele>379.9</ele>
        <time>1970-01-01T00:56:12.000Z</time>
      </trkpt>
      <trkpt lat="41.347838" lon="1.935983">
        <ele>379.9</ele>
        <time>1970-01-01T00:56:13.000Z</time>
      </trkpt>
      <trkpt lat="41.347838" lon="1.935983">
        <ele>379.9</ele>
        <time>1970-01-01T00:56:14.000Z</time>
      </trkpt>
      <trkpt lat="41.347863" lon="1.935858">
        <ele>379.9</ele>
        <time>1970-01-01T00:56:15.000Z</time>
      </trkpt>
      <trkpt lat="41.347863" lon="1.935858">
        <ele>379.9</ele>
        <time>1970-01-01T00:56:16.000Z</time>
      </trkpt>
      <trkpt lat="41.347897" lon="1.935742">
        <ele>379.9</ele>
        <time>1970-01-01T00:56:17.000Z</time>
      </trkpt>
      <trkpt lat="41.347897" lon="1.935742">
        <ele>379.9</ele>
        <time>1970-01-01T00:56:18.000Z</time>
      </trkpt>
      <trkpt lat="41.347945" lon="1.935638">
        <ele>379.9</ele>
        <time>1970-01-01T00:56:19.000Z</time>
      </trkpt>
      <trkpt lat="41.347945" lon="1.935638">
        <ele>379.9</ele>
        <time>1970-01-01T00:56:20.000Z</time>
      </trkpt>
      <trkpt lat="41.347985" lon="1.93555">
        <ele>379.9</ele>
        <time>1970-01-01T00:56:21.000Z</time>
      </trkpt>
      <trkpt lat="41.347985" lon="1.93555">
        <ele>379.9</ele>
        <time>1970-01-01T00:56:22.000Z</time>
      </trkpt>
      <trkpt lat="41.348022" lon="1.93549">
        <ele>379.9</ele>
        <time>1970-01-01T00:56:23.000Z</time>
      </trkpt>
      <trkpt lat="41.348022" lon="1.93549">
        <ele>379.9</ele>
        <time>1970-01-01T00:56:24.000Z</time>
      </trkpt>
      <trkpt lat="41.348043" lon="1.935422">
        <ele>379.9</ele>
        <time>1970-01-01T00:56:25.000Z</time>
      </trkpt>
      <trkpt lat="41.348043" lon="1.935422">
        <ele>380.9</ele>
        <time>1970-01-01T00:56:26.000Z</time>
      </trkpt>
      <trkpt lat="41.348068" lon="1.935333">
        <ele>380.9</ele>
        <time>1970-01-01T00:56:27.000Z</time>
      </trkpt>
      <trkpt lat="41.348068" lon="1.935333">
        <ele>380.9</ele>
        <time>1970-01-01T00:56:28.000Z</time>
      </trkpt>
      <trkpt lat="41.348092" lon="1.935272">
        <ele>380.9</ele>
        <time>1970-01-01T00:56:29.000Z</time>
      </trkpt>
      <trkpt lat="41.3481" lon="1.93524">
        <ele>381.9</ele>
        <time>1970-01-01T00:56:30.000Z</time>
      </trkpt>
      <trkpt lat="41.3481" lon="1.93524">
        <ele>381.9</ele>
        <time>1970-01-01T00:56:31.000Z</time>
      </trkpt>
      <trkpt lat="41.348125" lon="1.935167">
        <ele>381.9</ele>
        <time>1970-01-01T00:56:32.000Z</time>
      </trkpt>
      <trkpt lat="41.34814" lon="1.935135">
        <ele>381.9</ele>
        <time>1970-01-01T00:56:33.000Z</time>
      </trkpt>
      <trkpt lat="41.34814" lon="1.935135">
        <ele>382.9</ele>
        <time>1970-01-01T00:56:34.000Z</time>
      </trkpt>
      <trkpt lat="41.348172" lon="1.935068">
        <ele>382.9</ele>
        <time>1970-01-01T00:56:35.000Z</time>
      </trkpt>
      <trkpt lat="41.348172" lon="1.935068">
        <ele>382.9</ele>
        <time>1970-01-01T00:56:36.000Z</time>
      </trkpt>
      <trkpt lat="41.348195" lon="1.935002">
        <ele>383.9</ele>
        <time>1970-01-01T00:56:37.000Z</time>
      </trkpt>
      <trkpt lat="41.348195" lon="1.935002">
        <ele>383.9</ele>
        <time>1970-01-01T00:56:38.000Z</time>
      </trkpt>
      <trkpt lat="41.348215" lon="1.934947">
        <ele>383.9</ele>
        <time>1970-01-01T00:56:39.000Z</time>
      </trkpt>
      <trkpt lat="41.348213" lon="1.934913">
        <ele>384.9</ele>
        <time>1970-01-01T00:56:40.000Z</time>
      </trkpt>
      <trkpt lat="41.348213" lon="1.934913">
        <ele>384.9</ele>
        <time>1970-01-01T00:56:41.000Z</time>
      </trkpt>
      <trkpt lat="41.3482" lon="1.93485">
        <ele>385.9</ele>
        <time>1970-01-01T00:56:42.000Z</time>
      </trkpt>
      <trkpt lat="41.3482" lon="1.93485">
        <ele>385.9</ele>
        <time>1970-01-01T00:56:43.000Z</time>
      </trkpt>
      <trkpt lat="41.348167" lon="1.934797">
        <ele>385.9</ele>
        <time>1970-01-01T00:56:44.000Z</time>
      </trkpt>
      <trkpt lat="41.348142" lon="1.93477">
        <ele>385.9</ele>
        <time>1970-01-01T00:56:45.000Z</time>
      </trkpt>
      <trkpt lat="41.348142" lon="1.93477">
        <ele>385.9</ele>
        <time>1970-01-01T00:56:46.000Z</time>
      </trkpt>
      <trkpt lat="41.348082" lon="1.93471">
        <ele>385.9</ele>
        <time>1970-01-01T00:56:47.000Z</time>
      </trkpt>
      <trkpt lat="41.348082" lon="1.93471">
        <ele>385.9</ele>
        <time>1970-01-01T00:56:48.000Z</time>
      </trkpt>
      <trkpt lat="41.348028" lon="1.93466">
        <ele>385.9</ele>
        <time>1970-01-01T00:56:49.000Z</time>
      </trkpt>
      <trkpt lat="41.348028" lon="1.93466">
        <ele>385.9</ele>
        <time>1970-01-01T00:56:50.000Z</time>
      </trkpt>
      <trkpt lat="41.347988" lon="1.934602">
        <ele>385.9</ele>
        <time>1970-01-01T00:56:51.000Z</time>
      </trkpt>
      <trkpt lat="41.347988" lon="1.934602">
        <ele>385.9</ele>
        <time>1970-01-01T00:56:52.000Z</time>
      </trkpt>
      <trkpt lat="41.347938" lon="1.934522">
        <ele>385.9</ele>
        <time>1970-01-01T00:56:53.000Z</time>
      </trkpt>
      <trkpt lat="41.347918" lon="1.934487">
        <ele>385.9</ele>
        <time>1970-01-01T00:56:54.000Z</time>
      </trkpt>
      <trkpt lat="41.347918" lon="1.934487">
        <ele>385.9</ele>
        <time>1970-01-01T00:56:55.000Z</time>
      </trkpt>
      <trkpt lat="41.347888" lon="1.934408">
        <ele>385.9</ele>
        <time>1970-01-01T00:56:56.000Z</time>
      </trkpt>
      <trkpt lat="41.347882" lon="1.934375">
        <ele>385.9</ele>
        <time>1970-01-01T00:56:57.000Z</time>
      </trkpt>
      <trkpt lat="41.347882" lon="1.934375">
        <ele>385.9</ele>
        <time>1970-01-01T00:56:58.000Z</time>
      </trkpt>
      <trkpt lat="41.34788" lon="1.934307">
        <ele>385.9</ele>
        <time>1970-01-01T00:56:59.000Z</time>
      </trkpt>
      <trkpt lat="41.347878" lon="1.934268">
        <ele>385.9</ele>
        <time>1970-01-01T00:57:00.000Z</time>
      </trkpt>
      <trkpt lat="41.347878" lon="1.934268">
        <ele>385.9</ele>
        <time>1970-01-01T00:57:01.000Z</time>
      </trkpt>
      <trkpt lat="41.34788" lon="1.9342">
        <ele>386.9</ele>
        <time>1970-01-01T00:57:02.000Z</time>
      </trkpt>
      <trkpt lat="41.347883" lon="1.934168">
        <ele>386.9</ele>
        <time>1970-01-01T00:57:03.000Z</time>
      </trkpt>
      <trkpt lat="41.347883" lon="1.934168">
        <ele>386.9</ele>
        <time>1970-01-01T00:57:04.000Z</time>
      </trkpt>
      <trkpt lat="41.347882" lon="1.9341">
        <ele>386.9</ele>
        <time>1970-01-01T00:57:05.000Z</time>
      </trkpt>
      <trkpt lat="41.347882" lon="1.9341">
        <ele>386.9</ele>
        <time>1970-01-01T00:57:06.000Z</time>
      </trkpt>
      <trkpt lat="41.347868" lon="1.934035">
        <ele>386.9</ele>
        <time>1970-01-01T00:57:07.000Z</time>
      </trkpt>
      <trkpt lat="41.347863" lon="1.934002">
        <ele>388.9</ele>
        <time>1970-01-01T00:57:08.000Z</time>
      </trkpt>
      <trkpt lat="41.347863" lon="1.934002">
        <ele>388.9</ele>
        <time>1970-01-01T00:57:09.000Z</time>
      </trkpt>
      <trkpt lat="41.347857" lon="1.933943">
        <ele>388.9</ele>
        <time>1970-01-01T00:57:10.000Z</time>
      </trkpt>
      <trkpt lat="41.347857" lon="1.933943">
        <ele>388.9</ele>
        <time>1970-01-01T00:57:11.000Z</time>
      </trkpt>
      <trkpt lat="41.347843" lon="1.933885">
        <ele>388.9</ele>
        <time>1970-01-01T00:57:12.000Z</time>
      </trkpt>
      <trkpt lat="41.34783" lon="1.933853">
        <ele>388.9</ele>
        <time>1970-01-01T00:57:13.000Z</time>
      </trkpt>
      <trkpt lat="41.347808" lon="1.933827">
        <ele>388.9</ele>
        <time>1970-01-01T00:57:14.000Z</time>
      </trkpt>
      <trkpt lat="41.347808" lon="1.933827">
        <ele>388.9</ele>
        <time>1970-01-01T00:57:15.000Z</time>
      </trkpt>
      <trkpt lat="41.34776" lon="1.933785">
        <ele>388.9</ele>
        <time>1970-01-01T00:57:16.000Z</time>
      </trkpt>
      <trkpt lat="41.34776" lon="1.933785">
        <ele>388.9</ele>
        <time>1970-01-01T00:57:17.000Z</time>
      </trkpt>
      <trkpt lat="41.347703" lon="1.933755">
        <ele>390.9</ele>
        <time>1970-01-01T00:57:18.000Z</time>
      </trkpt>
      <trkpt lat="41.347703" lon="1.933755">
        <ele>390.9</ele>
        <time>1970-01-01T00:57:19.000Z</time>
      </trkpt>
      <trkpt lat="41.34766" lon="1.933758">
        <ele>390.9</ele>
        <time>1970-01-01T00:57:20.000Z</time>
      </trkpt>
      <trkpt lat="41.34764" lon="1.93376">
        <ele>391.9</ele>
        <time>1970-01-01T00:57:21.000Z</time>
      </trkpt>
      <trkpt lat="41.34764" lon="1.93376">
        <ele>391.9</ele>
        <time>1970-01-01T00:57:22.000Z</time>
      </trkpt>
      <trkpt lat="41.347593" lon="1.933793">
        <ele>391.9</ele>
        <time>1970-01-01T00:57:23.000Z</time>
      </trkpt>
      <trkpt lat="41.34758" lon="1.933815">
        <ele>391.9</ele>
        <time>1970-01-01T00:57:24.000Z</time>
      </trkpt>
      <trkpt lat="41.34758" lon="1.933815">
        <ele>391.9</ele>
        <time>1970-01-01T00:57:25.000Z</time>
      </trkpt>
      <trkpt lat="41.347525" lon="1.933848">
        <ele>391.9</ele>
        <time>1970-01-01T00:57:26.000Z</time>
      </trkpt>
      <trkpt lat="41.347495" lon="1.933865">
        <ele>391.9</ele>
        <time>1970-01-01T00:57:27.000Z</time>
      </trkpt>
      <trkpt lat="41.347467" lon="1.933878">
        <ele>391.9</ele>
        <time>1970-01-01T00:57:28.000Z</time>
      </trkpt>
      <trkpt lat="41.347467" lon="1.933878">
        <ele>392.9</ele>
        <time>1970-01-01T00:57:29.000Z</time>
      </trkpt>
      <trkpt lat="41.34742" lon="1.933908">
        <ele>392.9</ele>
        <time>1970-01-01T00:57:30.000Z</time>
      </trkpt>
      <trkpt lat="41.347397" lon="1.933918">
        <ele>392.9</ele>
        <time>1970-01-01T00:57:31.000Z</time>
      </trkpt>
      <trkpt lat="41.34737" lon="1.933932">
        <ele>392.9</ele>
        <time>1970-01-01T00:57:32.000Z</time>
      </trkpt>
      <trkpt lat="41.347345" lon="1.933945">
        <ele>392.9</ele>
        <time>1970-01-01T00:57:33.000Z</time>
      </trkpt>
      <trkpt lat="41.347345" lon="1.933945">
        <ele>392.9</ele>
        <time>1970-01-01T00:57:34.000Z</time>
      </trkpt>
      <trkpt lat="41.347297" lon="1.933977">
        <ele>392.9</ele>
        <time>1970-01-01T00:57:35.000Z</time>
      </trkpt>
      <trkpt lat="41.347297" lon="1.933977">
        <ele>392.9</ele>
        <time>1970-01-01T00:57:36.000Z</time>
      </trkpt>
      <trkpt lat="41.34725" lon="1.934">
        <ele>393.9</ele>
        <time>1970-01-01T00:57:37.000Z</time>
      </trkpt>
      <trkpt lat="41.34723" lon="1.934008">
        <ele>393.9</ele>
        <time>1970-01-01T00:57:38.000Z</time>
      </trkpt>
      <trkpt lat="41.34723" lon="1.934008">
        <ele>393.9</ele>
        <time>1970-01-01T00:57:39.000Z</time>
      </trkpt>
      <trkpt lat="41.347188" lon="1.93402">
        <ele>393.9</ele>
        <time>1970-01-01T00:57:40.000Z</time>
      </trkpt>
      <trkpt lat="41.347188" lon="1.93402">
        <ele>394.9</ele>
        <time>1970-01-01T00:57:41.000Z</time>
      </trkpt>
      <trkpt lat="41.347147" lon="1.934038">
        <ele>394.9</ele>
        <time>1970-01-01T00:57:42.000Z</time>
      </trkpt>
      <trkpt lat="41.347147" lon="1.934038">
        <ele>394.9</ele>
        <time>1970-01-01T00:57:43.000Z</time>
      </trkpt>
      <trkpt lat="41.347103" lon="1.934038">
        <ele>394.9</ele>
        <time>1970-01-01T00:57:44.000Z</time>
      </trkpt>
      <trkpt lat="41.34708" lon="1.934045">
        <ele>394.9</ele>
        <time>1970-01-01T00:57:45.000Z</time>
      </trkpt>
      <trkpt lat="41.34708" lon="1.934045">
        <ele>394.9</ele>
        <time>1970-01-01T00:57:46.000Z</time>
      </trkpt>
      <trkpt lat="41.347032" lon="1.934055">
        <ele>395.9</ele>
        <time>1970-01-01T00:57:47.000Z</time>
      </trkpt>
      <trkpt lat="41.347032" lon="1.934055">
        <ele>395.9</ele>
        <time>1970-01-01T00:57:48.000Z</time>
      </trkpt>
      <trkpt lat="41.346983" lon="1.934065">
        <ele>395.9</ele>
        <time>1970-01-01T00:57:49.000Z</time>
      </trkpt>
      <trkpt lat="41.346983" lon="1.934065">
        <ele>395.9</ele>
        <time>1970-01-01T00:57:50.000Z</time>
      </trkpt>
      <trkpt lat="41.346937" lon="1.934095">
        <ele>395.9</ele>
        <time>1970-01-01T00:57:51.000Z</time>
      </trkpt>
      <trkpt lat="41.346937" lon="1.934095">
        <ele>395.9</ele>
        <time>1970-01-01T00:57:52.000Z</time>
      </trkpt>
      <trkpt lat="41.346902" lon="1.934112">
        <ele>395.9</ele>
        <time>1970-01-01T00:57:53.000Z</time>
      </trkpt>
      <trkpt lat="41.346902" lon="1.934112">
        <ele>395.9</ele>
        <time>1970-01-01T00:57:54.000Z</time>
      </trkpt>
      <trkpt lat="41.34686" lon="1.93411">
        <ele>395.9</ele>
        <time>1970-01-01T00:57:55.000Z</time>
      </trkpt>
      <trkpt lat="41.34686" lon="1.93411">
        <ele>395.9</ele>
        <time>1970-01-01T00:57:56.000Z</time>
      </trkpt>
      <trkpt lat="41.346813" lon="1.934125">
        <ele>395.9</ele>
        <time>1970-01-01T00:57:57.000Z</time>
      </trkpt>
      <trkpt lat="41.346813" lon="1.934125">
        <ele>395.9</ele>
        <time>1970-01-01T00:57:58.000Z</time>
      </trkpt>
      <trkpt lat="41.346763" lon="1.934138">
        <ele>396.9</ele>
        <time>1970-01-01T00:57:59.000Z</time>
      </trkpt>
      <trkpt lat="41.346738" lon="1.934147">
        <ele>396.9</ele>
        <time>1970-01-01T00:58:00.000Z</time>
      </trkpt>
      <trkpt lat="41.346738" lon="1.934147">
        <ele>396.9</ele>
        <time>1970-01-01T00:58:01.000Z</time>
      </trkpt>
      <trkpt lat="41.3467" lon="1.934163">
        <ele>396.9</ele>
        <time>1970-01-01T00:58:02.000Z</time>
      </trkpt>
      <trkpt lat="41.346675" lon="1.934178">
        <ele>397.9</ele>
        <time>1970-01-01T00:58:03.000Z</time>
      </trkpt>
      <trkpt lat="41.34665" lon="1.934192">
        <ele>397.9</ele>
        <time>1970-01-01T00:58:04.000Z</time>
      </trkpt>
      <trkpt lat="41.34665" lon="1.934192">
        <ele>397.9</ele>
        <time>1970-01-01T00:58:05.000Z</time>
      </trkpt>
      <trkpt lat="41.346593" lon="1.934223">
        <ele>398.9</ele>
        <time>1970-01-01T00:58:06.000Z</time>
      </trkpt>
      <trkpt lat="41.346568" lon="1.93424">
        <ele>398.9</ele>
        <time>1970-01-01T00:58:07.000Z</time>
      </trkpt>
      <trkpt lat="41.346568" lon="1.93424">
        <ele>398.9</ele>
        <time>1970-01-01T00:58:08.000Z</time>
      </trkpt>
      <trkpt lat="41.346523" lon="1.934272">
        <ele>398.9</ele>
        <time>1970-01-01T00:58:09.000Z</time>
      </trkpt>
      <trkpt lat="41.346523" lon="1.934272">
        <ele>398.9</ele>
        <time>1970-01-01T00:58:10.000Z</time>
      </trkpt>
      <trkpt lat="41.346478" lon="1.9343">
        <ele>398.9</ele>
        <time>1970-01-01T00:58:11.000Z</time>
      </trkpt>
      <trkpt lat="41.346457" lon="1.93432">
        <ele>399.9</ele>
        <time>1970-01-01T00:58:12.000Z</time>
      </trkpt>
      <trkpt lat="41.346457" lon="1.93432">
        <ele>399.9</ele>
        <time>1970-01-01T00:58:13.000Z</time>
      </trkpt>
      <trkpt lat="41.346412" lon="1.934377">
        <ele>399.9</ele>
        <time>1970-01-01T00:58:14.000Z</time>
      </trkpt>
      <trkpt lat="41.346412" lon="1.934377">
        <ele>399.9</ele>
        <time>1970-01-01T00:58:15.000Z</time>
      </trkpt>
      <trkpt lat="41.346367" lon="1.93442">
        <ele>399.9</ele>
        <time>1970-01-01T00:58:16.000Z</time>
      </trkpt>
      <trkpt lat="41.346367" lon="1.93442">
        <ele>399.9</ele>
        <time>1970-01-01T00:58:17.000Z</time>
      </trkpt>
      <trkpt lat="41.346322" lon="1.934472">
        <ele>399.9</ele>
        <time>1970-01-01T00:58:18.000Z</time>
      </trkpt>
      <trkpt lat="41.346302" lon="1.934503">
        <ele>399.9</ele>
        <time>1970-01-01T00:58:19.000Z</time>
      </trkpt>
      <trkpt lat="41.346302" lon="1.934503">
        <ele>399.9</ele>
        <time>1970-01-01T00:58:20.000Z</time>
      </trkpt>
      <trkpt lat="41.34627" lon="1.93457">
        <ele>399.9</ele>
        <time>1970-01-01T00:58:21.000Z</time>
      </trkpt>
      <trkpt lat="41.34627" lon="1.93457">
        <ele>400.9</ele>
        <time>1970-01-01T00:58:22.000Z</time>
      </trkpt>
      <trkpt lat="41.346243" lon="1.934628">
        <ele>400.9</ele>
        <time>1970-01-01T00:58:23.000Z</time>
      </trkpt>
      <trkpt lat="41.346243" lon="1.934628">
        <ele>400.9</ele>
        <time>1970-01-01T00:58:24.000Z</time>
      </trkpt>
      <trkpt lat="41.346223" lon="1.934707">
        <ele>400.9</ele>
        <time>1970-01-01T00:58:25.000Z</time>
      </trkpt>
      <trkpt lat="41.346223" lon="1.934707">
        <ele>400.9</ele>
        <time>1970-01-01T00:58:26.000Z</time>
      </trkpt>
      <trkpt lat="41.346208" lon="1.934787">
        <ele>400.9</ele>
        <time>1970-01-01T00:58:27.000Z</time>
      </trkpt>
      <trkpt lat="41.346208" lon="1.934787">
        <ele>401.9</ele>
        <time>1970-01-01T00:58:28.000Z</time>
      </trkpt>
      <trkpt lat="41.34619" lon="1.934847">
        <ele>401.9</ele>
        <time>1970-01-01T00:58:29.000Z</time>
      </trkpt>
      <trkpt lat="41.34619" lon="1.934847">
        <ele>401.9</ele>
        <time>1970-01-01T00:58:30.000Z</time>
      </trkpt>
      <trkpt lat="41.346172" lon="1.9349">
        <ele>401.9</ele>
        <time>1970-01-01T00:58:31.000Z</time>
      </trkpt>
      <trkpt lat="41.346172" lon="1.9349">
        <ele>401.9</ele>
        <time>1970-01-01T00:58:32.000Z</time>
      </trkpt>
      <trkpt lat="41.346145" lon="1.934953">
        <ele>401.9</ele>
        <time>1970-01-01T00:58:33.000Z</time>
      </trkpt>
      <trkpt lat="41.346145" lon="1.934953">
        <ele>401.9</ele>
        <time>1970-01-01T00:58:34.000Z</time>
      </trkpt>
      <trkpt lat="41.34611" lon="1.935017">
        <ele>401.9</ele>
        <time>1970-01-01T00:58:35.000Z</time>
      </trkpt>
      <trkpt lat="41.34611" lon="1.935017">
        <ele>401.9</ele>
        <time>1970-01-01T00:58:36.000Z</time>
      </trkpt>
      <trkpt lat="41.346083" lon="1.935075">
        <ele>401.9</ele>
        <time>1970-01-01T00:58:37.000Z</time>
      </trkpt>
      <trkpt lat="41.346073" lon="1.935102">
        <ele>401.9</ele>
        <time>1970-01-01T00:58:38.000Z</time>
      </trkpt>
      <trkpt lat="41.346063" lon="1.935125">
        <ele>401.9</ele>
        <time>1970-01-01T00:58:39.000Z</time>
      </trkpt>
      <trkpt lat="41.346063" lon="1.935125">
        <ele>403.9</ele>
        <time>1970-01-01T00:58:40.000Z</time>
      </trkpt>
      <trkpt lat="41.346047" lon="1.935182">
        <ele>403.9</ele>
        <time>1970-01-01T00:58:41.000Z</time>
      </trkpt>
      <trkpt lat="41.346047" lon="1.935182">
        <ele>403.9</ele>
        <time>1970-01-01T00:58:42.000Z</time>
      </trkpt>
      <trkpt lat="41.34602" lon="1.935242">
        <ele>403.9</ele>
        <time>1970-01-01T00:58:43.000Z</time>
      </trkpt>
      <trkpt lat="41.346008" lon="1.935265">
        <ele>404.9</ele>
        <time>1970-01-01T00:58:44.000Z</time>
      </trkpt>
      <trkpt lat="41.346008" lon="1.935265">
        <ele>404.9</ele>
        <time>1970-01-01T00:58:45.000Z</time>
      </trkpt>
      <trkpt lat="41.345985" lon="1.935313">
        <ele>404.9</ele>
        <time>1970-01-01T00:58:46.000Z</time>
      </trkpt>
      <trkpt lat="41.345985" lon="1.935313">
        <ele>404.9</ele>
        <time>1970-01-01T00:58:47.000Z</time>
      </trkpt>
      <trkpt lat="41.345963" lon="1.935365">
        <ele>404.9</ele>
        <time>1970-01-01T00:58:48.000Z</time>
      </trkpt>
      <trkpt lat="41.345963" lon="1.935365">
        <ele>404.9</ele>
        <time>1970-01-01T00:58:49.000Z</time>
      </trkpt>
      <trkpt lat="41.345942" lon="1.935403">
        <ele>404.9</ele>
        <time>1970-01-01T00:58:50.000Z</time>
      </trkpt>
      <trkpt lat="41.345928" lon="1.935423">
        <ele>404.9</ele>
        <time>1970-01-01T00:58:51.000Z</time>
      </trkpt>
      <trkpt lat="41.345928" lon="1.935423">
        <ele>404.9</ele>
        <time>1970-01-01T00:58:52.000Z</time>
      </trkpt>
      <trkpt lat="41.345908" lon="1.935468">
        <ele>404.9</ele>
        <time>1970-01-01T00:58:53.000Z</time>
      </trkpt>
      <trkpt lat="41.345908" lon="1.935468">
        <ele>404.9</ele>
        <time>1970-01-01T00:58:54.000Z</time>
      </trkpt>
      <trkpt lat="41.34588" lon="1.935515">
        <ele>405.9</ele>
        <time>1970-01-01T00:58:55.000Z</time>
      </trkpt>
      <trkpt lat="41.345868" lon="1.935533">
        <ele>405.9</ele>
        <time>1970-01-01T00:58:56.000Z</time>
      </trkpt>
      <trkpt lat="41.345868" lon="1.935533">
        <ele>405.9</ele>
        <time>1970-01-01T00:58:57.000Z</time>
      </trkpt>
      <trkpt lat="41.345847" lon="1.935582">
        <ele>405.9</ele>
        <time>1970-01-01T00:58:58.000Z</time>
      </trkpt>
      <trkpt lat="41.345847" lon="1.935582">
        <ele>405.9</ele>
        <time>1970-01-01T00:58:59.000Z</time>
      </trkpt>
      <trkpt lat="41.34581" lon="1.935635">
        <ele>405.9</ele>
        <time>1970-01-01T00:59:00.000Z</time>
      </trkpt>
      <trkpt lat="41.34579" lon="1.935655">
        <ele>405.9</ele>
        <time>1970-01-01T00:59:01.000Z</time>
      </trkpt>
      <trkpt lat="41.34579" lon="1.935655">
        <ele>405.9</ele>
        <time>1970-01-01T00:59:02.000Z</time>
      </trkpt>
      <trkpt lat="41.345742" lon="1.935697">
        <ele>406.9</ele>
        <time>1970-01-01T00:59:03.000Z</time>
      </trkpt>
      <trkpt lat="41.345742" lon="1.935697">
        <ele>406.9</ele>
        <time>1970-01-01T00:59:04.000Z</time>
      </trkpt>
      <trkpt lat="41.345673" lon="1.935742">
        <ele>406.9</ele>
        <time>1970-01-01T00:59:05.000Z</time>
      </trkpt>
      <trkpt lat="41.345633" lon="1.935752">
        <ele>406.9</ele>
        <time>1970-01-01T00:59:06.000Z</time>
      </trkpt>
      <trkpt lat="41.345633" lon="1.935752">
        <ele>406.9</ele>
        <time>1970-01-01T00:59:07.000Z</time>
      </trkpt>
      <trkpt lat="41.345547" lon="1.935747">
        <ele>406.9</ele>
        <time>1970-01-01T00:59:08.000Z</time>
      </trkpt>
      <trkpt lat="41.345508" lon="1.935728">
        <ele>406.9</ele>
        <time>1970-01-01T00:59:09.000Z</time>
      </trkpt>
      <trkpt lat="41.345508" lon="1.935728">
        <ele>406.9</ele>
        <time>1970-01-01T00:59:10.000Z</time>
      </trkpt>
      <trkpt lat="41.345445" lon="1.935678">
        <ele>406.9</ele>
        <time>1970-01-01T00:59:11.000Z</time>
      </trkpt>
      <trkpt lat="41.345418" lon="1.935653">
        <ele>406.9</ele>
        <time>1970-01-01T00:59:12.000Z</time>
      </trkpt>
      <trkpt lat="41.345418" lon="1.935653">
        <ele>405.9</ele>
        <time>1970-01-01T00:59:13.000Z</time>
      </trkpt>
      <trkpt lat="41.345373" lon="1.935602">
        <ele>405.9</ele>
        <time>1970-01-01T00:59:14.000Z</time>
      </trkpt>
      <trkpt lat="41.345373" lon="1.935602">
        <ele>405.9</ele>
        <time>1970-01-01T00:59:15.000Z</time>
      </trkpt>
      <trkpt lat="41.345327" lon="1.935545">
        <ele>405.9</ele>
        <time>1970-01-01T00:59:16.000Z</time>
      </trkpt>
      <trkpt lat="41.345327" lon="1.935545">
        <ele>405.9</ele>
        <time>1970-01-01T00:59:17.000Z</time>
      </trkpt>
      <trkpt lat="41.345282" lon="1.935488">
        <ele>405.9</ele>
        <time>1970-01-01T00:59:18.000Z</time>
      </trkpt>
      <trkpt lat="41.345263" lon="1.935457">
        <ele>405.9</ele>
        <time>1970-01-01T00:59:19.000Z</time>
      </trkpt>
      <trkpt lat="41.345263" lon="1.935457">
        <ele>405.9</ele>
        <time>1970-01-01T00:59:20.000Z</time>
      </trkpt>
      <trkpt lat="41.34523" lon="1.935398">
        <ele>405.9</ele>
        <time>1970-01-01T00:59:21.000Z</time>
      </trkpt>
      <trkpt lat="41.34523" lon="1.935398">
        <ele>405.9</ele>
        <time>1970-01-01T00:59:22.000Z</time>
      </trkpt>
      <trkpt lat="41.345195" lon="1.935332">
        <ele>405.9</ele>
        <time>1970-01-01T00:59:23.000Z</time>
      </trkpt>
      <trkpt lat="41.345195" lon="1.935332">
        <ele>406.9</ele>
        <time>1970-01-01T00:59:24.000Z</time>
      </trkpt>
      <trkpt lat="41.345165" lon="1.935252">
        <ele>406.9</ele>
        <time>1970-01-01T00:59:25.000Z</time>
      </trkpt>
      <trkpt lat="41.34515" lon="1.935217">
        <ele>406.9</ele>
        <time>1970-01-01T00:59:26.000Z</time>
      </trkpt>
      <trkpt lat="41.345137" lon="1.935185">
        <ele>406.9</ele>
        <time>1970-01-01T00:59:27.000Z</time>
      </trkpt>
      <trkpt lat="41.345137" lon="1.935185">
        <ele>406.9</ele>
        <time>1970-01-01T00:59:28.000Z</time>
      </trkpt>
      <trkpt lat="41.345113" lon="1.935122">
        <ele>407.9</ele>
        <time>1970-01-01T00:59:29.000Z</time>
      </trkpt>
      <trkpt lat="41.345108" lon="1.935087">
        <ele>407.9</ele>
        <time>1970-01-01T00:59:30.000Z</time>
      </trkpt>
      <trkpt lat="41.345108" lon="1.935087">
        <ele>407.9</ele>
        <time>1970-01-01T00:59:31.000Z</time>
      </trkpt>
      <trkpt lat="41.345093" lon="1.93501">
        <ele>407.9</ele>
        <time>1970-01-01T00:59:32.000Z</time>
      </trkpt>
      <trkpt lat="41.345093" lon="1.934968">
        <ele>407.9</ele>
        <time>1970-01-01T00:59:33.000Z</time>
      </trkpt>
      <trkpt lat="41.345093" lon="1.934968">
        <ele>408.9</ele>
        <time>1970-01-01T00:59:34.000Z</time>
      </trkpt>
      <trkpt lat="41.345085" lon="1.93489">
        <ele>408.9</ele>
        <time>1970-01-01T00:59:35.000Z</time>
      </trkpt>
      <trkpt lat="41.345085" lon="1.93489">
        <ele>408.9</ele>
        <time>1970-01-01T00:59:36.000Z</time>
      </trkpt>
      <trkpt lat="41.345068" lon="1.934828">
        <ele>408.9</ele>
        <time>1970-01-01T00:59:37.000Z</time>
      </trkpt>
      <trkpt lat="41.345062" lon="1.934797">
        <ele>409.9</ele>
        <time>1970-01-01T00:59:38.000Z</time>
      </trkpt>
      <trkpt lat="41.345052" lon="1.934755">
        <ele>409.9</ele>
        <time>1970-01-01T00:59:39.000Z</time>
      </trkpt>
      <trkpt lat="41.345052" lon="1.934755">
        <ele>409.9</ele>
        <time>1970-01-01T00:59:40.000Z</time>
      </trkpt>
      <trkpt lat="41.345027" lon="1.934683">
        <ele>409.9</ele>
        <time>1970-01-01T00:59:41.000Z</time>
      </trkpt>
      <trkpt lat="41.345027" lon="1.934683">
        <ele>410.9</ele>
        <time>1970-01-01T00:59:42.000Z</time>
      </trkpt>
      <trkpt lat="41.34499" lon="1.93462">
        <ele>410.9</ele>
        <time>1970-01-01T00:59:43.000Z</time>
      </trkpt>
      <trkpt lat="41.34499" lon="1.93462">
        <ele>411.9</ele>
        <time>1970-01-01T00:59:44.000Z</time>
      </trkpt>
      <trkpt lat="41.344965" lon="1.934573">
        <ele>411.9</ele>
        <time>1970-01-01T00:59:45.000Z</time>
      </trkpt>
      <trkpt lat="41.344965" lon="1.934573">
        <ele>411.9</ele>
        <time>1970-01-01T00:59:46.000Z</time>
      </trkpt>
      <trkpt lat="41.344937" lon="1.934527">
        <ele>411.9</ele>
        <time>1970-01-01T00:59:47.000Z</time>
      </trkpt>
      <trkpt lat="41.344937" lon="1.934527">
        <ele>411.9</ele>
        <time>1970-01-01T00:59:48.000Z</time>
      </trkpt>
      <trkpt lat="41.344907" lon="1.934477">
        <ele>411.9</ele>
        <time>1970-01-01T00:59:49.000Z</time>
      </trkpt>
      <trkpt lat="41.344892" lon="1.934447">
        <ele>411.9</ele>
        <time>1970-01-01T00:59:50.000Z</time>
      </trkpt>
      <trkpt lat="41.344868" lon="1.934425">
        <ele>411.9</ele>
        <time>1970-01-01T00:59:51.000Z</time>
      </trkpt>
      <trkpt lat="41.344868" lon="1.934425">
        <ele>411.9</ele>
        <time>1970-01-01T00:59:52.000Z</time>
      </trkpt>
      <trkpt lat="41.344807" lon="1.934373">
        <ele>411.9</ele>
        <time>1970-01-01T00:59:53.000Z</time>
      </trkpt>
      <trkpt lat="41.344768" lon="1.934347">
        <ele>411.9</ele>
        <time>1970-01-01T00:59:54.000Z</time>
      </trkpt>
      <trkpt lat="41.344768" lon="1.934347">
        <ele>411.9</ele>
        <time>1970-01-01T00:59:55.000Z</time>
      </trkpt>
      <trkpt lat="41.34468" lon="1.934303">
        <ele>411.9</ele>
        <time>1970-01-01T00:59:56.000Z</time>
      </trkpt>
      <trkpt lat="41.344622" lon="1.934288">
        <ele>411.9</ele>
        <time>1970-01-01T00:59:57.000Z</time>
      </trkpt>
      <trkpt lat="41.344622" lon="1.934288">
        <ele>411.9</ele>
        <time>1970-01-01T00:59:58.000Z</time>
      </trkpt>
      <trkpt lat="41.3445" lon="1.934282">
        <ele>411.9</ele>
        <time>1970-01-01T00:59:59.000Z</time>
      </trkpt>
      <trkpt lat="41.3445" lon="1.934282">
        <ele>410.9</ele>
        <time>1970-01-01T01:00:00.000Z</time>
      </trkpt>
      <trkpt lat="41.344378" lon="1.934293">
        <ele>410.9</ele>
        <time>1970-01-01T01:00:01.000Z</time>
      </trkpt>
      <trkpt lat="41.344325" lon="1.934293">
        <ele>410.9</ele>
        <time>1970-01-01T01:00:02.000Z</time>
      </trkpt>
      <trkpt lat="41.344277" lon="1.934297">
        <ele>410.9</ele>
        <time>1970-01-01T01:00:03.000Z</time>
      </trkpt>
      <trkpt lat="41.344277" lon="1.934297">
        <ele>409.9</ele>
        <time>1970-01-01T01:00:04.000Z</time>
      </trkpt>
      <trkpt lat="41.344188" lon="1.934288">
        <ele>409.9</ele>
        <time>1970-01-01T01:00:05.000Z</time>
      </trkpt>
      <trkpt lat="41.344188" lon="1.934288">
        <ele>409.9</ele>
        <time>1970-01-01T01:00:06.000Z</time>
      </trkpt>
      <trkpt lat="41.34412" lon="1.934272">
        <ele>409.9</ele>
        <time>1970-01-01T01:00:07.000Z</time>
      </trkpt>
      <trkpt lat="41.344087" lon="1.934265">
        <ele>409.9</ele>
        <time>1970-01-01T01:00:08.000Z</time>
      </trkpt>
      <trkpt lat="41.344055" lon="1.934253">
        <ele>409.9</ele>
        <time>1970-01-01T01:00:09.000Z</time>
      </trkpt>
      <trkpt lat="41.344055" lon="1.934253">
        <ele>409.9</ele>
        <time>1970-01-01T01:00:10.000Z</time>
      </trkpt>
      <trkpt lat="41.343997" lon="1.934218">
        <ele>409.9</ele>
        <time>1970-01-01T01:00:11.000Z</time>
      </trkpt>
      <trkpt lat="41.343997" lon="1.934218">
        <ele>409.9</ele>
        <time>1970-01-01T01:00:12.000Z</time>
      </trkpt>
      <trkpt lat="41.34394" lon="1.934168">
        <ele>409.9</ele>
        <time>1970-01-01T01:00:13.000Z</time>
      </trkpt>
      <trkpt lat="41.343908" lon="1.934143">
        <ele>409.9</ele>
        <time>1970-01-01T01:00:14.000Z</time>
      </trkpt>
      <trkpt lat="41.343908" lon="1.934143">
        <ele>409.9</ele>
        <time>1970-01-01T01:00:15.000Z</time>
      </trkpt>
      <trkpt lat="41.343853" lon="1.934098">
        <ele>410.9</ele>
        <time>1970-01-01T01:00:16.000Z</time>
      </trkpt>
      <trkpt lat="41.343827" lon="1.934075">
        <ele>410.9</ele>
        <time>1970-01-01T01:00:17.000Z</time>
      </trkpt>
      <trkpt lat="41.343827" lon="1.934075">
        <ele>410.9</ele>
        <time>1970-01-01T01:00:18.000Z</time>
      </trkpt>
      <trkpt lat="41.343775" lon="1.93404">
        <ele>410.9</ele>
        <time>1970-01-01T01:00:19.000Z</time>
      </trkpt>
      <trkpt lat="41.343748" lon="1.93402">
        <ele>410.9</ele>
        <time>1970-01-01T01:00:20.000Z</time>
      </trkpt>
      <trkpt lat="41.343748" lon="1.93402">
        <ele>410.9</ele>
        <time>1970-01-01T01:00:21.000Z</time>
      </trkpt>
      <trkpt lat="41.343697" lon="1.93397">
        <ele>410.9</ele>
        <time>1970-01-01T01:00:22.000Z</time>
      </trkpt>
      <trkpt lat="41.343668" lon="1.933943">
        <ele>410.9</ele>
        <time>1970-01-01T01:00:23.000Z</time>
      </trkpt>
      <trkpt lat="41.343668" lon="1.933943">
        <ele>410.9</ele>
        <time>1970-01-01T01:00:24.000Z</time>
      </trkpt>
      <trkpt lat="41.343608" lon="1.933873">
        <ele>410.9</ele>
        <time>1970-01-01T01:00:25.000Z</time>
      </trkpt>
      <trkpt lat="41.343582" lon="1.933825">
        <ele>410.9</ele>
        <time>1970-01-01T01:00:26.000Z</time>
      </trkpt>
      <trkpt lat="41.343562" lon="1.933767">
        <ele>410.9</ele>
        <time>1970-01-01T01:00:27.000Z</time>
      </trkpt>
      <trkpt lat="41.343562" lon="1.933767">
        <ele>410.9</ele>
        <time>1970-01-01T01:00:28.000Z</time>
      </trkpt>
      <trkpt lat="41.343537" lon="1.933658">
        <ele>410.9</ele>
        <time>1970-01-01T01:00:29.000Z</time>
      </trkpt>
      <trkpt lat="41.343527" lon="1.933607">
        <ele>409.9</ele>
        <time>1970-01-01T01:00:30.000Z</time>
      </trkpt>
      <trkpt lat="41.343527" lon="1.933607">
        <ele>409.9</ele>
        <time>1970-01-01T01:00:31.000Z</time>
      </trkpt>
      <trkpt lat="41.343498" lon="1.933517">
        <ele>409.9</ele>
        <time>1970-01-01T01:00:32.000Z</time>
      </trkpt>
      <trkpt lat="41.34348" lon="1.933477">
        <ele>409.9</ele>
        <time>1970-01-01T01:00:33.000Z</time>
      </trkpt>
      <trkpt lat="41.34348" lon="1.933477">
        <ele>409.9</ele>
        <time>1970-01-01T01:00:34.000Z</time>
      </trkpt>
      <trkpt lat="41.343437" lon="1.9334">
        <ele>409.9</ele>
        <time>1970-01-01T01:00:35.000Z</time>
      </trkpt>
      <trkpt lat="41.343437" lon="1.9334">
        <ele>409.9</ele>
        <time>1970-01-01T01:00:36.000Z</time>
      </trkpt>
      <trkpt lat="41.34338" lon="1.933342">
        <ele>409.9</ele>
        <time>1970-01-01T01:00:37.000Z</time>
      </trkpt>
      <trkpt lat="41.343348" lon="1.933318">
        <ele>410.9</ele>
        <time>1970-01-01T01:00:38.000Z</time>
      </trkpt>
      <trkpt lat="41.343313" lon="1.933295">
        <ele>410.9</ele>
        <time>1970-01-01T01:00:39.000Z</time>
      </trkpt>
      <trkpt lat="41.343313" lon="1.933295">
        <ele>410.9</ele>
        <time>1970-01-01T01:00:40.000Z</time>
      </trkpt>
      <trkpt lat="41.343257" lon="1.933242">
        <ele>410.9</ele>
        <time>1970-01-01T01:00:41.000Z</time>
      </trkpt>
      <trkpt lat="41.343235" lon="1.933222">
        <ele>411.9</ele>
        <time>1970-01-01T01:00:42.000Z</time>
      </trkpt>
      <trkpt lat="41.343235" lon="1.933222">
        <ele>411.9</ele>
        <time>1970-01-01T01:00:43.000Z</time>
      </trkpt>
      <trkpt lat="41.343185" lon="1.93317">
        <ele>411.9</ele>
        <time>1970-01-01T01:00:44.000Z</time>
      </trkpt>
      <trkpt lat="41.343158" lon="1.93313">
        <ele>411.9</ele>
        <time>1970-01-01T01:00:45.000Z</time>
      </trkpt>
      <trkpt lat="41.343158" lon="1.93313">
        <ele>411.9</ele>
        <time>1970-01-01T01:00:46.000Z</time>
      </trkpt>
      <trkpt lat="41.34311" lon="1.933035">
        <ele>411.9</ele>
        <time>1970-01-01T01:00:47.000Z</time>
      </trkpt>
      <trkpt lat="41.343095" lon="1.932987">
        <ele>411.9</ele>
        <time>1970-01-01T01:00:48.000Z</time>
      </trkpt>
      <trkpt lat="41.343095" lon="1.932987">
        <ele>411.9</ele>
        <time>1970-01-01T01:00:49.000Z</time>
      </trkpt>
      <trkpt lat="41.343073" lon="1.93289">
        <ele>411.9</ele>
        <time>1970-01-01T01:00:50.000Z</time>
      </trkpt>
      <trkpt lat="41.343067" lon="1.932847">
        <ele>411.9</ele>
        <time>1970-01-01T01:00:51.000Z</time>
      </trkpt>
      <trkpt lat="41.343067" lon="1.932847">
        <ele>412.9</ele>
        <time>1970-01-01T01:00:52.000Z</time>
      </trkpt>
      <trkpt lat="41.343053" lon="1.932765">
        <ele>412.9</ele>
        <time>1970-01-01T01:00:53.000Z</time>
      </trkpt>
      <trkpt lat="41.34305" lon="1.932727">
        <ele>412.9</ele>
        <time>1970-01-01T01:00:54.000Z</time>
      </trkpt>
      <trkpt lat="41.34305" lon="1.932727">
        <ele>413.9</ele>
        <time>1970-01-01T01:00:55.000Z</time>
      </trkpt>
      <trkpt lat="41.343045" lon="1.93265">
        <ele>413.9</ele>
        <time>1970-01-01T01:00:56.000Z</time>
      </trkpt>
      <trkpt lat="41.343037" lon="1.932613">
        <ele>413.9</ele>
        <time>1970-01-01T01:00:57.000Z</time>
      </trkpt>
      <trkpt lat="41.343037" lon="1.932613">
        <ele>413.9</ele>
        <time>1970-01-01T01:00:58.000Z</time>
      </trkpt>
      <trkpt lat="41.343023" lon="1.932532">
        <ele>414.9</ele>
        <time>1970-01-01T01:00:59.000Z</time>
      </trkpt>
      <trkpt lat="41.343023" lon="1.932532">
        <ele>414.9</ele>
        <time>1970-01-01T01:01:00.000Z</time>
      </trkpt>
      <trkpt lat="41.343032" lon="1.932452">
        <ele>414.9</ele>
        <time>1970-01-01T01:01:01.000Z</time>
      </trkpt>
      <trkpt lat="41.343032" lon="1.932452">
        <ele>414.9</ele>
        <time>1970-01-01T01:01:02.000Z</time>
      </trkpt>
      <trkpt lat="41.343027" lon="1.93237">
        <ele>414.9</ele>
        <time>1970-01-01T01:01:03.000Z</time>
      </trkpt>
      <trkpt lat="41.343023" lon="1.932323">
        <ele>414.9</ele>
        <time>1970-01-01T01:01:04.000Z</time>
      </trkpt>
      <trkpt lat="41.343023" lon="1.932323">
        <ele>414.9</ele>
        <time>1970-01-01T01:01:05.000Z</time>
      </trkpt>
      <trkpt lat="41.343047" lon="1.932228">
        <ele>414.9</ele>
        <time>1970-01-01T01:01:06.000Z</time>
      </trkpt>
      <trkpt lat="41.343047" lon="1.932228">
        <ele>413.9</ele>
        <time>1970-01-01T01:01:07.000Z</time>
      </trkpt>
      <trkpt lat="41.343078" lon="1.932127">
        <ele>413.9</ele>
        <time>1970-01-01T01:01:08.000Z</time>
      </trkpt>
      <trkpt lat="41.343108" lon="1.932065">
        <ele>413.9</ele>
        <time>1970-01-01T01:01:09.000Z</time>
      </trkpt>
      <trkpt lat="41.343108" lon="1.932065">
        <ele>413.9</ele>
        <time>1970-01-01T01:01:10.000Z</time>
      </trkpt>
      <trkpt lat="41.343173" lon="1.931953">
        <ele>412.9</ele>
        <time>1970-01-01T01:01:11.000Z</time>
      </trkpt>
      <trkpt lat="41.343173" lon="1.931953">
        <ele>412.9</ele>
        <time>1970-01-01T01:01:12.000Z</time>
      </trkpt>
      <trkpt lat="41.343223" lon="1.931848">
        <ele>412.9</ele>
        <time>1970-01-01T01:01:13.000Z</time>
      </trkpt>
      <trkpt lat="41.343238" lon="1.931797">
        <ele>412.9</ele>
        <time>1970-01-01T01:01:14.000Z</time>
      </trkpt>
      <trkpt lat="41.343238" lon="1.931797">
        <ele>412.9</ele>
        <time>1970-01-01T01:01:15.000Z</time>
      </trkpt>
      <trkpt lat="41.343257" lon="1.931712">
        <ele>412.9</ele>
        <time>1970-01-01T01:01:16.000Z</time>
      </trkpt>
      <trkpt lat="41.343263" lon="1.93167">
        <ele>412.9</ele>
        <time>1970-01-01T01:01:17.000Z</time>
      </trkpt>
      <trkpt lat="41.343263" lon="1.93167">
        <ele>412.9</ele>
        <time>1970-01-01T01:01:18.000Z</time>
      </trkpt>
      <trkpt lat="41.34326" lon="1.931572">
        <ele>412.9</ele>
        <time>1970-01-01T01:01:19.000Z</time>
      </trkpt>
      <trkpt lat="41.34326" lon="1.931572">
        <ele>412.9</ele>
        <time>1970-01-01T01:01:20.000Z</time>
      </trkpt>
      <trkpt lat="41.343235" lon="1.93149">
        <ele>412.9</ele>
        <time>1970-01-01T01:01:21.000Z</time>
      </trkpt>
      <trkpt lat="41.343235" lon="1.93149">
        <ele>412.9</ele>
        <time>1970-01-01T01:01:22.000Z</time>
      </trkpt>
      <trkpt lat="41.343195" lon="1.931455">
        <ele>412.9</ele>
        <time>1970-01-01T01:01:23.000Z</time>
      </trkpt>
      <trkpt lat="41.343195" lon="1.931455">
        <ele>412.9</ele>
        <time>1970-01-01T01:01:24.000Z</time>
      </trkpt>
      <trkpt lat="41.343132" lon="1.931453">
        <ele>412.9</ele>
        <time>1970-01-01T01:01:25.000Z</time>
      </trkpt>
      <trkpt lat="41.343103" lon="1.931463">
        <ele>412.9</ele>
        <time>1970-01-01T01:01:26.000Z</time>
      </trkpt>
      <trkpt lat="41.343103" lon="1.931463">
        <ele>412.9</ele>
        <time>1970-01-01T01:01:27.000Z</time>
      </trkpt>
      <trkpt lat="41.343052" lon="1.93148">
        <ele>412.9</ele>
        <time>1970-01-01T01:01:28.000Z</time>
      </trkpt>
      <trkpt lat="41.343052" lon="1.93148">
        <ele>412.9</ele>
        <time>1970-01-01T01:01:29.000Z</time>
      </trkpt>
      <trkpt lat="41.342992" lon="1.931477">
        <ele>412.9</ele>
        <time>1970-01-01T01:01:30.000Z</time>
      </trkpt>
      <trkpt lat="41.342992" lon="1.931477">
        <ele>412.9</ele>
        <time>1970-01-01T01:01:31.000Z</time>
      </trkpt>
      <trkpt lat="41.342933" lon="1.931483">
        <ele>412.9</ele>
        <time>1970-01-01T01:01:32.000Z</time>
      </trkpt>
      <trkpt lat="41.342908" lon="1.931475">
        <ele>412.9</ele>
        <time>1970-01-01T01:01:33.000Z</time>
      </trkpt>
      <trkpt lat="41.342885" lon="1.931472">
        <ele>411.9</ele>
        <time>1970-01-01T01:01:34.000Z</time>
      </trkpt>
      <trkpt lat="41.342885" lon="1.931472">
        <ele>411.9</ele>
        <time>1970-01-01T01:01:35.000Z</time>
      </trkpt>
      <trkpt lat="41.342827" lon="1.93147">
        <ele>411.9</ele>
        <time>1970-01-01T01:01:36.000Z</time>
      </trkpt>
      <trkpt lat="41.342827" lon="1.93147">
        <ele>411.9</ele>
        <time>1970-01-01T01:01:37.000Z</time>
      </trkpt>
      <trkpt lat="41.342765" lon="1.931462">
        <ele>411.9</ele>
        <time>1970-01-01T01:01:38.000Z</time>
      </trkpt>
      <trkpt lat="41.342728" lon="1.931452">
        <ele>411.9</ele>
        <time>1970-01-01T01:01:39.000Z</time>
      </trkpt>
      <trkpt lat="41.342728" lon="1.931452">
        <ele>411.9</ele>
        <time>1970-01-01T01:01:40.000Z</time>
      </trkpt>
      <trkpt lat="41.342653" lon="1.931447">
        <ele>411.9</ele>
        <time>1970-01-01T01:01:41.000Z</time>
      </trkpt>
      <trkpt lat="41.342653" lon="1.931447">
        <ele>411.9</ele>
        <time>1970-01-01T01:01:42.000Z</time>
      </trkpt>
      <trkpt lat="41.342573" lon="1.931457">
        <ele>410.9</ele>
        <time>1970-01-01T01:01:43.000Z</time>
      </trkpt>
      <trkpt lat="41.342573" lon="1.931457">
        <ele>410.9</ele>
        <time>1970-01-01T01:01:44.000Z</time>
      </trkpt>
      <trkpt lat="41.34248" lon="1.931477">
        <ele>410.9</ele>
        <time>1970-01-01T01:01:45.000Z</time>
      </trkpt>
      <trkpt lat="41.34248" lon="1.931477">
        <ele>410.9</ele>
        <time>1970-01-01T01:01:46.000Z</time>
      </trkpt>
      <trkpt lat="41.342393" lon="1.931488">
        <ele>410.9</ele>
        <time>1970-01-01T01:01:47.000Z</time>
      </trkpt>
      <trkpt lat="41.342393" lon="1.931488">
        <ele>410.9</ele>
        <time>1970-01-01T01:01:48.000Z</time>
      </trkpt>
      <trkpt lat="41.342312" lon="1.931497">
        <ele>410.9</ele>
        <time>1970-01-01T01:01:49.000Z</time>
      </trkpt>
      <trkpt lat="41.342312" lon="1.931497">
        <ele>410.9</ele>
        <time>1970-01-01T01:01:50.000Z</time>
      </trkpt>
      <trkpt lat="41.34223" lon="1.9315">
        <ele>410.9</ele>
        <time>1970-01-01T01:01:51.000Z</time>
      </trkpt>
      <trkpt lat="41.34223" lon="1.9315">
        <ele>410.9</ele>
        <time>1970-01-01T01:01:52.000Z</time>
      </trkpt>
      <trkpt lat="41.342162" lon="1.931542">
        <ele>409.9</ele>
        <time>1970-01-01T01:01:53.000Z</time>
      </trkpt>
      <trkpt lat="41.342162" lon="1.931542">
        <ele>409.9</ele>
        <time>1970-01-01T01:01:54.000Z</time>
      </trkpt>
      <trkpt lat="41.342098" lon="1.931622">
        <ele>409.9</ele>
        <time>1970-01-01T01:01:55.000Z</time>
      </trkpt>
      <trkpt lat="41.342098" lon="1.931622">
        <ele>409.9</ele>
        <time>1970-01-01T01:01:56.000Z</time>
      </trkpt>
      <trkpt lat="41.342048" lon="1.931738">
        <ele>409.9</ele>
        <time>1970-01-01T01:01:57.000Z</time>
      </trkpt>
      <trkpt lat="41.342048" lon="1.931738">
        <ele>409.9</ele>
        <time>1970-01-01T01:01:58.000Z</time>
      </trkpt>
      <trkpt lat="41.342028" lon="1.931862">
        <ele>409.9</ele>
        <time>1970-01-01T01:01:59.000Z</time>
      </trkpt>
      <trkpt lat="41.342023" lon="1.931905">
        <ele>409.9</ele>
        <time>1970-01-01T01:02:00.000Z</time>
      </trkpt>
      <trkpt lat="41.342023" lon="1.931905">
        <ele>409.9</ele>
        <time>1970-01-01T01:02:01.000Z</time>
      </trkpt>
      <trkpt lat="41.34201" lon="1.932012">
        <ele>409.9</ele>
        <time>1970-01-01T01:02:02.000Z</time>
      </trkpt>
      <trkpt lat="41.342012" lon="1.932067">
        <ele>408.9</ele>
        <time>1970-01-01T01:02:03.000Z</time>
      </trkpt>
      <trkpt lat="41.342012" lon="1.932067">
        <ele>408.9</ele>
        <time>1970-01-01T01:02:04.000Z</time>
      </trkpt>
      <trkpt lat="41.342002" lon="1.932213">
        <ele>408.9</ele>
        <time>1970-01-01T01:02:05.000Z</time>
      </trkpt>
      <trkpt lat="41.342002" lon="1.932213">
        <ele>408.9</ele>
        <time>1970-01-01T01:02:06.000Z</time>
      </trkpt>
      <trkpt lat="41.341967" lon="1.93236">
        <ele>406.9</ele>
        <time>1970-01-01T01:02:07.000Z</time>
      </trkpt>
      <trkpt lat="41.341922" lon="1.932423">
        <ele>406.9</ele>
        <time>1970-01-01T01:02:08.000Z</time>
      </trkpt>
      <trkpt lat="41.34187" lon="1.932468">
        <ele>406.9</ele>
        <time>1970-01-01T01:02:09.000Z</time>
      </trkpt>
      <trkpt lat="41.34187" lon="1.932468">
        <ele>406.9</ele>
        <time>1970-01-01T01:02:10.000Z</time>
      </trkpt>
      <trkpt lat="41.34177" lon="1.932528">
        <ele>406.9</ele>
        <time>1970-01-01T01:02:11.000Z</time>
      </trkpt>
      <trkpt lat="41.34177" lon="1.932528">
        <ele>405.9</ele>
        <time>1970-01-01T01:02:12.000Z</time>
      </trkpt>
      <trkpt lat="41.341657" lon="1.932597">
        <ele>405.9</ele>
        <time>1970-01-01T01:02:13.000Z</time>
      </trkpt>
      <trkpt lat="41.341588" lon="1.932632">
        <ele>405.9</ele>
        <time>1970-01-01T01:02:14.000Z</time>
      </trkpt>
      <trkpt lat="41.341588" lon="1.932632">
        <ele>405.9</ele>
        <time>1970-01-01T01:02:15.000Z</time>
      </trkpt>
      <trkpt lat="41.341443" lon="1.93271">
        <ele>404.9</ele>
        <time>1970-01-01T01:02:16.000Z</time>
      </trkpt>
      <trkpt lat="41.341443" lon="1.93271">
        <ele>403.9</ele>
        <time>1970-01-01T01:02:17.000Z</time>
      </trkpt>
      <trkpt lat="41.341288" lon="1.932795">
        <ele>403.9</ele>
        <time>1970-01-01T01:02:18.000Z</time>
      </trkpt>
      <trkpt lat="41.34121" lon="1.932833">
        <ele>403.9</ele>
        <time>1970-01-01T01:02:19.000Z</time>
      </trkpt>
      <trkpt lat="41.341128" lon="1.932877">
        <ele>403.9</ele>
        <time>1970-01-01T01:02:20.000Z</time>
      </trkpt>
      <trkpt lat="41.341128" lon="1.932877">
        <ele>402.9</ele>
        <time>1970-01-01T01:02:21.000Z</time>
      </trkpt>
      <trkpt lat="41.340973" lon="1.932953">
        <ele>402.9</ele>
        <time>1970-01-01T01:02:22.000Z</time>
      </trkpt>
      <trkpt lat="41.340898" lon="1.932993">
        <ele>402.9</ele>
        <time>1970-01-01T01:02:23.000Z</time>
      </trkpt>
      <trkpt lat="41.340825" lon="1.933033">
        <ele>402.9</ele>
        <time>1970-01-01T01:02:24.000Z</time>
      </trkpt>
      <trkpt lat="41.340825" lon="1.933033">
        <ele>401.9</ele>
        <time>1970-01-01T01:02:25.000Z</time>
      </trkpt>
      <trkpt lat="41.34068" lon="1.933112">
        <ele>401.9</ele>
        <time>1970-01-01T01:02:26.000Z</time>
      </trkpt>
      <trkpt lat="41.34068" lon="1.933112">
        <ele>401.9</ele>
        <time>1970-01-01T01:02:27.000Z</time>
      </trkpt>
      <trkpt lat="41.340537" lon="1.933185">
        <ele>401.9</ele>
        <time>1970-01-01T01:02:28.000Z</time>
      </trkpt>
      <trkpt lat="41.340537" lon="1.933185">
        <ele>399.9</ele>
        <time>1970-01-01T01:02:29.000Z</time>
      </trkpt>
      <trkpt lat="41.3404" lon="1.933253">
        <ele>399.9</ele>
        <time>1970-01-01T01:02:30.000Z</time>
      </trkpt>
      <trkpt lat="41.3404" lon="1.933253">
        <ele>399.9</ele>
        <time>1970-01-01T01:02:31.000Z</time>
      </trkpt>
      <trkpt lat="41.34028" lon="1.933295">
        <ele>399.9</ele>
        <time>1970-01-01T01:02:32.000Z</time>
      </trkpt>
      <trkpt lat="41.340213" lon="1.933313">
        <ele>398.9</ele>
        <time>1970-01-01T01:02:33.000Z</time>
      </trkpt>
      <trkpt lat="41.340147" lon="1.933333">
        <ele>398.9</ele>
        <time>1970-01-01T01:02:34.000Z</time>
      </trkpt>
      <trkpt lat="41.340147" lon="1.933333">
        <ele>397.9</ele>
        <time>1970-01-01T01:02:35.000Z</time>
      </trkpt>
      <trkpt lat="41.34001" lon="1.933392">
        <ele>397.9</ele>
        <time>1970-01-01T01:02:36.000Z</time>
      </trkpt>
      <trkpt lat="41.34001" lon="1.933392">
        <ele>397.9</ele>
        <time>1970-01-01T01:02:37.000Z</time>
      </trkpt>
      <trkpt lat="41.339878" lon="1.933468">
        <ele>397.9</ele>
        <time>1970-01-01T01:02:38.000Z</time>
      </trkpt>
      <trkpt lat="41.339817" lon="1.933513">
        <ele>397.9</ele>
        <time>1970-01-01T01:02:39.000Z</time>
      </trkpt>
      <trkpt lat="41.339817" lon="1.933513">
        <ele>397.9</ele>
        <time>1970-01-01T01:02:40.000Z</time>
      </trkpt>
      <trkpt lat="41.339697" lon="1.933607">
        <ele>397.9</ele>
        <time>1970-01-01T01:02:41.000Z</time>
      </trkpt>
      <trkpt lat="41.339697" lon="1.933607">
        <ele>397.9</ele>
        <time>1970-01-01T01:02:42.000Z</time>
      </trkpt>
      <trkpt lat="41.339567" lon="1.933695">
        <ele>395.9</ele>
        <time>1970-01-01T01:02:43.000Z</time>
      </trkpt>
      <trkpt lat="41.339498" lon="1.933737">
        <ele>395.9</ele>
        <time>1970-01-01T01:02:44.000Z</time>
      </trkpt>
      <trkpt lat="41.339498" lon="1.933737">
        <ele>395.9</ele>
        <time>1970-01-01T01:02:45.000Z</time>
      </trkpt>
      <trkpt lat="41.33936" lon="1.933825">
        <ele>395.9</ele>
        <time>1970-01-01T01:02:46.000Z</time>
      </trkpt>
      <trkpt lat="41.33929" lon="1.933868">
        <ele>395.9</ele>
        <time>1970-01-01T01:02:47.000Z</time>
      </trkpt>
      <trkpt lat="41.339218" lon="1.93391">
        <ele>395.9</ele>
        <time>1970-01-01T01:02:48.000Z</time>
      </trkpt>
      <trkpt lat="41.339145" lon="1.933953">
        <ele>394.9</ele>
        <time>1970-01-01T01:02:49.000Z</time>
      </trkpt>
      <trkpt lat="41.339145" lon="1.933953">
        <ele>394.9</ele>
        <time>1970-01-01T01:02:50.000Z</time>
      </trkpt>
      <trkpt lat="41.338998" lon="1.934048">
        <ele>393.9</ele>
        <time>1970-01-01T01:02:51.000Z</time>
      </trkpt>
      <trkpt lat="41.338998" lon="1.934048">
        <ele>393.9</ele>
        <time>1970-01-01T01:02:52.000Z</time>
      </trkpt>
      <trkpt lat="41.33885" lon="1.93415">
        <ele>392.9</ele>
        <time>1970-01-01T01:02:53.000Z</time>
      </trkpt>
      <trkpt lat="41.33885" lon="1.93415">
        <ele>392.9</ele>
        <time>1970-01-01T01:02:54.000Z</time>
      </trkpt>
      <trkpt lat="41.338693" lon="1.934257">
        <ele>391.9</ele>
        <time>1970-01-01T01:02:55.000Z</time>
      </trkpt>
      <trkpt lat="41.338693" lon="1.934257">
        <ele>391.9</ele>
        <time>1970-01-01T01:02:56.000Z</time>
      </trkpt>
      <trkpt lat="41.338532" lon="1.934367">
        <ele>390.9</ele>
        <time>1970-01-01T01:02:57.000Z</time>
      </trkpt>
      <trkpt lat="41.338532" lon="1.934367">
        <ele>390.9</ele>
        <time>1970-01-01T01:02:58.000Z</time>
      </trkpt>
      <trkpt lat="41.338417" lon="1.93444">
        <ele>389.9</ele>
        <time>1970-01-01T01:02:59.000Z</time>
      </trkpt>
      <trkpt lat="41.338417" lon="1.93444">
        <ele>387.9</ele>
        <time>1970-01-01T01:03:00.000Z</time>
      </trkpt>
      <trkpt lat="41.338357" lon="1.934463">
        <ele>387.9</ele>
        <time>1970-01-01T01:03:01.000Z</time>
      </trkpt>
      <trkpt lat="41.338357" lon="1.934463">
        <ele>386.9</ele>
        <time>1970-01-01T01:03:02.000Z</time>
      </trkpt>
      <trkpt lat="41.338323" lon="1.934453">
        <ele>386.9</ele>
        <time>1970-01-01T01:03:03.000Z</time>
      </trkpt>
      <trkpt lat="41.338323" lon="1.934453">
        <ele>386.9</ele>
        <time>1970-01-01T01:03:04.000Z</time>
      </trkpt>
      <trkpt lat="41.338272" lon="1.934435">
        <ele>386.9</ele>
        <time>1970-01-01T01:03:05.000Z</time>
      </trkpt>
      <trkpt lat="41.338272" lon="1.934435">
        <ele>385.9</ele>
        <time>1970-01-01T01:03:06.000Z</time>
      </trkpt>
      <trkpt lat="41.338218" lon="1.934382">
        <ele>385.9</ele>
        <time>1970-01-01T01:03:07.000Z</time>
      </trkpt>
      <trkpt lat="41.338218" lon="1.934382">
        <ele>385.9</ele>
        <time>1970-01-01T01:03:08.000Z</time>
      </trkpt>
      <trkpt lat="41.338165" lon="1.9343">
        <ele>385.9</ele>
        <time>1970-01-01T01:03:09.000Z</time>
      </trkpt>
      <trkpt lat="41.33813" lon="1.934253">
        <ele>385.9</ele>
        <time>1970-01-01T01:03:10.000Z</time>
      </trkpt>
      <trkpt lat="41.33813" lon="1.934253">
        <ele>385.9</ele>
        <time>1970-01-01T01:03:11.000Z</time>
      </trkpt>
      <trkpt lat="41.338053" lon="1.934148">
        <ele>384.9</ele>
        <time>1970-01-01T01:03:12.000Z</time>
      </trkpt>
      <trkpt lat="41.338053" lon="1.934148">
        <ele>384.9</ele>
        <time>1970-01-01T01:03:13.000Z</time>
      </trkpt>
      <trkpt lat="41.33797" lon="1.934033">
        <ele>382.9</ele>
        <time>1970-01-01T01:03:14.000Z</time>
      </trkpt>
      <trkpt lat="41.33797" lon="1.934033">
        <ele>382.9</ele>
        <time>1970-01-01T01:03:15.000Z</time>
      </trkpt>
      <trkpt lat="41.33786" lon="1.933945">
        <ele>382.9</ele>
        <time>1970-01-01T01:03:16.000Z</time>
      </trkpt>
      <trkpt lat="41.33786" lon="1.933945">
        <ele>382.9</ele>
        <time>1970-01-01T01:03:17.000Z</time>
      </trkpt>
      <trkpt lat="41.33772" lon="1.933887">
        <ele>381.9</ele>
        <time>1970-01-01T01:03:18.000Z</time>
      </trkpt>
      <trkpt lat="41.33772" lon="1.933887">
        <ele>381.9</ele>
        <time>1970-01-01T01:03:19.000Z</time>
      </trkpt>
      <trkpt lat="41.337557" lon="1.933872">
        <ele>380.9</ele>
        <time>1970-01-01T01:03:20.000Z</time>
      </trkpt>
      <trkpt lat="41.337483" lon="1.933878">
        <ele>380.9</ele>
        <time>1970-01-01T01:03:21.000Z</time>
      </trkpt>
      <trkpt lat="41.337483" lon="1.933878">
        <ele>380.9</ele>
        <time>1970-01-01T01:03:22.000Z</time>
      </trkpt>
      <trkpt lat="41.337345" lon="1.933888">
        <ele>380.9</ele>
        <time>1970-01-01T01:03:23.000Z</time>
      </trkpt>
      <trkpt lat="41.33728" lon="1.933892">
        <ele>380.9</ele>
        <time>1970-01-01T01:03:24.000Z</time>
      </trkpt>
      <trkpt lat="41.33728" lon="1.933892">
        <ele>380.9</ele>
        <time>1970-01-01T01:03:25.000Z</time>
      </trkpt>
      <trkpt lat="41.337165" lon="1.933902">
        <ele>379.9</ele>
        <time>1970-01-01T01:03:26.000Z</time>
      </trkpt>
      <trkpt lat="41.337112" lon="1.933905">
        <ele>379.9</ele>
        <time>1970-01-01T01:03:27.000Z</time>
      </trkpt>
      <trkpt lat="41.337112" lon="1.933905">
        <ele>379.9</ele>
        <time>1970-01-01T01:03:28.000Z</time>
      </trkpt>
      <trkpt lat="41.33702" lon="1.933908">
        <ele>379.9</ele>
        <time>1970-01-01T01:03:29.000Z</time>
      </trkpt>
      <trkpt lat="41.33702" lon="1.933908">
        <ele>379.9</ele>
        <time>1970-01-01T01:03:30.000Z</time>
      </trkpt>
      <trkpt lat="41.336943" lon="1.933893">
        <ele>379.9</ele>
        <time>1970-01-01T01:03:31.000Z</time>
      </trkpt>
      <trkpt lat="41.33691" lon="1.933875">
        <ele>379.9</ele>
        <time>1970-01-01T01:03:32.000Z</time>
      </trkpt>
      <trkpt lat="41.336882" lon="1.933848">
        <ele>379.9</ele>
        <time>1970-01-01T01:03:33.000Z</time>
      </trkpt>
      <trkpt lat="41.336882" lon="1.933848">
        <ele>379.9</ele>
        <time>1970-01-01T01:03:34.000Z</time>
      </trkpt>
      <trkpt lat="41.336842" lon="1.933765">
        <ele>379.9</ele>
        <time>1970-01-01T01:03:35.000Z</time>
      </trkpt>
      <trkpt lat="41.336842" lon="1.933765">
        <ele>380.9</ele>
        <time>1970-01-01T01:03:36.000Z</time>
      </trkpt>
      <trkpt lat="41.336827" lon="1.933658">
        <ele>380.9</ele>
        <time>1970-01-01T01:03:37.000Z</time>
      </trkpt>
      <trkpt lat="41.336827" lon="1.933658">
        <ele>380.9</ele>
        <time>1970-01-01T01:03:38.000Z</time>
      </trkpt>
      <trkpt lat="41.336822" lon="1.933548">
        <ele>380.9</ele>
        <time>1970-01-01T01:03:39.000Z</time>
      </trkpt>
      <trkpt lat="41.336822" lon="1.933548">
        <ele>381.9</ele>
        <time>1970-01-01T01:03:40.000Z</time>
      </trkpt>
      <trkpt lat="41.336807" lon="1.933455">
        <ele>381.9</ele>
        <time>1970-01-01T01:03:41.000Z</time>
      </trkpt>
      <trkpt lat="41.336807" lon="1.933455">
        <ele>381.9</ele>
        <time>1970-01-01T01:03:42.000Z</time>
      </trkpt>
      <trkpt lat="41.336783" lon="1.933383">
        <ele>381.9</ele>
        <time>1970-01-01T01:03:43.000Z</time>
      </trkpt>
      <trkpt lat="41.336783" lon="1.933383">
        <ele>381.9</ele>
        <time>1970-01-01T01:03:44.000Z</time>
      </trkpt>
      <trkpt lat="41.336757" lon="1.933308">
        <ele>380.9</ele>
        <time>1970-01-01T01:03:45.000Z</time>
      </trkpt>
      <trkpt lat="41.336757" lon="1.933308">
        <ele>380.9</ele>
        <time>1970-01-01T01:03:46.000Z</time>
      </trkpt>
      <trkpt lat="41.33674" lon="1.933247">
        <ele>380.9</ele>
        <time>1970-01-01T01:03:47.000Z</time>
      </trkpt>
      <trkpt lat="41.33674" lon="1.933247">
        <ele>380.9</ele>
        <time>1970-01-01T01:03:48.000Z</time>
      </trkpt>
      <trkpt lat="41.336718" lon="1.93318">
        <ele>380.9</ele>
        <time>1970-01-01T01:03:49.000Z</time>
      </trkpt>
      <trkpt lat="41.336718" lon="1.93318">
        <ele>380.9</ele>
        <time>1970-01-01T01:03:50.000Z</time>
      </trkpt>
      <trkpt lat="41.336698" lon="1.933127">
        <ele>381.9</ele>
        <time>1970-01-01T01:03:51.000Z</time>
      </trkpt>
      <trkpt lat="41.336693" lon="1.933098">
        <ele>381.9</ele>
        <time>1970-01-01T01:03:52.000Z</time>
      </trkpt>
      <trkpt lat="41.336693" lon="1.933098">
        <ele>381.9</ele>
        <time>1970-01-01T01:03:53.000Z</time>
      </trkpt>
      <trkpt lat="41.336688" lon="1.93303">
        <ele>381.9</ele>
        <time>1970-01-01T01:03:54.000Z</time>
      </trkpt>
      <trkpt lat="41.336688" lon="1.93303">
        <ele>381.9</ele>
        <time>1970-01-01T01:03:55.000Z</time>
      </trkpt>
      <trkpt lat="41.336685" lon="1.932942">
        <ele>381.9</ele>
        <time>1970-01-01T01:03:56.000Z</time>
      </trkpt>
      <trkpt lat="41.336685" lon="1.932892">
        <ele>381.9</ele>
        <time>1970-01-01T01:03:57.000Z</time>
      </trkpt>
      <trkpt lat="41.336685" lon="1.932892">
        <ele>381.9</ele>
        <time>1970-01-01T01:03:58.000Z</time>
      </trkpt>
      <trkpt lat="41.33668" lon="1.932775">
        <ele>381.9</ele>
        <time>1970-01-01T01:03:59.000Z</time>
      </trkpt>
      <trkpt lat="41.336678" lon="1.932717">
        <ele>381.9</ele>
        <time>1970-01-01T01:04:00.000Z</time>
      </trkpt>
      <trkpt lat="41.336678" lon="1.932717">
        <ele>380.9</ele>
        <time>1970-01-01T01:04:01.000Z</time>
      </trkpt>
      <trkpt lat="41.336682" lon="1.932585">
        <ele>380.9</ele>
        <time>1970-01-01T01:04:02.000Z</time>
      </trkpt>
      <trkpt lat="41.336682" lon="1.932585">
        <ele>379.9</ele>
        <time>1970-01-01T01:04:03.000Z</time>
      </trkpt>
      <trkpt lat="41.336697" lon="1.932448">
        <ele>379.9</ele>
        <time>1970-01-01T01:04:04.000Z</time>
      </trkpt>
      <trkpt lat="41.336697" lon="1.932448">
        <ele>379.9</ele>
        <time>1970-01-01T01:04:05.000Z</time>
      </trkpt>
      <trkpt lat="41.336712" lon="1.932305">
        <ele>379.9</ele>
        <time>1970-01-01T01:04:06.000Z</time>
      </trkpt>
      <trkpt lat="41.336712" lon="1.932305">
        <ele>378.9</ele>
        <time>1970-01-01T01:04:07.000Z</time>
      </trkpt>
      <trkpt lat="41.336718" lon="1.932185">
        <ele>378.9</ele>
        <time>1970-01-01T01:04:08.000Z</time>
      </trkpt>
      <trkpt lat="41.336727" lon="1.93211">
        <ele>378.9</ele>
        <time>1970-01-01T01:04:09.000Z</time>
      </trkpt>
      <trkpt lat="41.336727" lon="1.93211">
        <ele>378.9</ele>
        <time>1970-01-01T01:04:10.000Z</time>
      </trkpt>
      <trkpt lat="41.336727" lon="1.931977">
        <ele>377.9</ele>
        <time>1970-01-01T01:04:11.000Z</time>
      </trkpt>
      <trkpt lat="41.336727" lon="1.931977">
        <ele>377.9</ele>
        <time>1970-01-01T01:04:12.000Z</time>
      </trkpt>
      <trkpt lat="41.336722" lon="1.931858">
        <ele>377.9</ele>
        <time>1970-01-01T01:04:13.000Z</time>
      </trkpt>
      <trkpt lat="41.336718" lon="1.931802">
        <ele>377.9</ele>
        <time>1970-01-01T01:04:14.000Z</time>
      </trkpt>
      <trkpt lat="41.33671" lon="1.931752">
        <ele>377.9</ele>
        <time>1970-01-01T01:04:15.000Z</time>
      </trkpt>
      <trkpt lat="41.33671" lon="1.931752">
        <ele>377.9</ele>
        <time>1970-01-01T01:04:16.000Z</time>
      </trkpt>
      <trkpt lat="41.336693" lon="1.931642">
        <ele>377.9</ele>
        <time>1970-01-01T01:04:17.000Z</time>
      </trkpt>
      <trkpt lat="41.336688" lon="1.931583">
        <ele>377.9</ele>
        <time>1970-01-01T01:04:18.000Z</time>
      </trkpt>
      <trkpt lat="41.336688" lon="1.931583">
        <ele>376.9</ele>
        <time>1970-01-01T01:04:19.000Z</time>
      </trkpt>
      <trkpt lat="41.336687" lon="1.931452">
        <ele>376.9</ele>
        <time>1970-01-01T01:04:20.000Z</time>
      </trkpt>
      <trkpt lat="41.336675" lon="1.931377">
        <ele>376.9</ele>
        <time>1970-01-01T01:04:21.000Z</time>
      </trkpt>
      <trkpt lat="41.336675" lon="1.931377">
        <ele>376.9</ele>
        <time>1970-01-01T01:04:22.000Z</time>
      </trkpt>
      <trkpt lat="41.336657" lon="1.931237">
        <ele>375.9</ele>
        <time>1970-01-01T01:04:23.000Z</time>
      </trkpt>
      <trkpt lat="41.336657" lon="1.931237">
        <ele>375.9</ele>
        <time>1970-01-01T01:04:24.000Z</time>
      </trkpt>
      <trkpt lat="41.336627" lon="1.93111">
        <ele>375.9</ele>
        <time>1970-01-01T01:04:25.000Z</time>
      </trkpt>
      <trkpt lat="41.336627" lon="1.93111">
        <ele>375.9</ele>
        <time>1970-01-01T01:04:26.000Z</time>
      </trkpt>
      <trkpt lat="41.336602" lon="1.930988">
        <ele>375.9</ele>
        <time>1970-01-01T01:04:27.000Z</time>
      </trkpt>
      <trkpt lat="41.336602" lon="1.930988">
        <ele>375.9</ele>
        <time>1970-01-01T01:04:28.000Z</time>
      </trkpt>
      <trkpt lat="41.33658" lon="1.930875">
        <ele>375.9</ele>
        <time>1970-01-01T01:04:29.000Z</time>
      </trkpt>
      <trkpt lat="41.33657" lon="1.93082">
        <ele>375.9</ele>
        <time>1970-01-01T01:04:30.000Z</time>
      </trkpt>
      <trkpt lat="41.336563" lon="1.930768">
        <ele>375.9</ele>
        <time>1970-01-01T01:04:31.000Z</time>
      </trkpt>
      <trkpt lat="41.336563" lon="1.930768">
        <ele>375.9</ele>
        <time>1970-01-01T01:04:32.000Z</time>
      </trkpt>
      <trkpt lat="41.336553" lon="1.93068">
        <ele>375.9</ele>
        <time>1970-01-01T01:04:33.000Z</time>
      </trkpt>
      <trkpt lat="41.336547" lon="1.930635">
        <ele>375.9</ele>
        <time>1970-01-01T01:04:34.000Z</time>
      </trkpt>
      <trkpt lat="41.336547" lon="1.930635">
        <ele>375.9</ele>
        <time>1970-01-01T01:04:35.000Z</time>
      </trkpt>
      <trkpt lat="41.336532" lon="1.930532">
        <ele>375.9</ele>
        <time>1970-01-01T01:04:36.000Z</time>
      </trkpt>
      <trkpt lat="41.336515" lon="1.930483">
        <ele>375.9</ele>
        <time>1970-01-01T01:04:37.000Z</time>
      </trkpt>
      <trkpt lat="41.336515" lon="1.930483">
        <ele>375.9</ele>
        <time>1970-01-01T01:04:38.000Z</time>
      </trkpt>
      <trkpt lat="41.336483" lon="1.9304">
        <ele>375.9</ele>
        <time>1970-01-01T01:04:39.000Z</time>
      </trkpt>
      <trkpt lat="41.336483" lon="1.9304">
        <ele>375.9</ele>
        <time>1970-01-01T01:04:40.000Z</time>
      </trkpt>
      <trkpt lat="41.336457" lon="1.930315">
        <ele>375.9</ele>
        <time>1970-01-01T01:04:41.000Z</time>
      </trkpt>
      <trkpt lat="41.336443" lon="1.93027">
        <ele>375.9</ele>
        <time>1970-01-01T01:04:42.000Z</time>
      </trkpt>
      <trkpt lat="41.336443" lon="1.93027">
        <ele>375.9</ele>
        <time>1970-01-01T01:04:43.000Z</time>
      </trkpt>
      <trkpt lat="41.336415" lon="1.930187">
        <ele>375.9</ele>
        <time>1970-01-01T01:04:44.000Z</time>
      </trkpt>
      <trkpt lat="41.336415" lon="1.930187">
        <ele>375.9</ele>
        <time>1970-01-01T01:04:45.000Z</time>
      </trkpt>
      <trkpt lat="41.336382" lon="1.930093">
        <ele>375.9</ele>
        <time>1970-01-01T01:04:46.000Z</time>
      </trkpt>
      <trkpt lat="41.336382" lon="1.930093">
        <ele>375.9</ele>
        <time>1970-01-01T01:04:47.000Z</time>
      </trkpt>
      <trkpt lat="41.336347" lon="1.930005">
        <ele>375.9</ele>
        <time>1970-01-01T01:04:48.000Z</time>
      </trkpt>
      <trkpt lat="41.336347" lon="1.930005">
        <ele>375.9</ele>
        <time>1970-01-01T01:04:49.000Z</time>
      </trkpt>
      <trkpt lat="41.336308" lon="1.929922">
        <ele>375.9</ele>
        <time>1970-01-01T01:04:50.000Z</time>
      </trkpt>
      <trkpt lat="41.336292" lon="1.929877">
        <ele>375.9</ele>
        <time>1970-01-01T01:04:51.000Z</time>
      </trkpt>
      <trkpt lat="41.336292" lon="1.929877">
        <ele>375.9</ele>
        <time>1970-01-01T01:04:52.000Z</time>
      </trkpt>
      <trkpt lat="41.336257" lon="1.929787">
        <ele>375.9</ele>
        <time>1970-01-01T01:04:53.000Z</time>
      </trkpt>
      <trkpt lat="41.336238" lon="1.929747">
        <ele>375.9</ele>
        <time>1970-01-01T01:04:54.000Z</time>
      </trkpt>
      <trkpt lat="41.336238" lon="1.929747">
        <ele>375.9</ele>
        <time>1970-01-01T01:04:55.000Z</time>
      </trkpt>
      <trkpt lat="41.336198" lon="1.929663">
        <ele>375.9</ele>
        <time>1970-01-01T01:04:56.000Z</time>
      </trkpt>
      <trkpt lat="41.336182" lon="1.929618">
        <ele>375.9</ele>
        <time>1970-01-01T01:04:57.000Z</time>
      </trkpt>
      <trkpt lat="41.336182" lon="1.929618">
        <ele>375.9</ele>
        <time>1970-01-01T01:04:58.000Z</time>
      </trkpt>
      <trkpt lat="41.336147" lon="1.929532">
        <ele>376.9</ele>
        <time>1970-01-01T01:04:59.000Z</time>
      </trkpt>
      <trkpt lat="41.336147" lon="1.929532">
        <ele>376.9</ele>
        <time>1970-01-01T01:05:00.000Z</time>
      </trkpt>
      <trkpt lat="41.33611" lon="1.92945">
        <ele>376.9</ele>
        <time>1970-01-01T01:05:01.000Z</time>
      </trkpt>
      <trkpt lat="41.336092" lon="1.92941">
        <ele>376.9</ele>
        <time>1970-01-01T01:05:02.000Z</time>
      </trkpt>
      <trkpt lat="41.336092" lon="1.92941">
        <ele>376.9</ele>
        <time>1970-01-01T01:05:03.000Z</time>
      </trkpt>
      <trkpt lat="41.336055" lon="1.92933">
        <ele>376.9</ele>
        <time>1970-01-01T01:05:04.000Z</time>
      </trkpt>
      <trkpt lat="41.336055" lon="1.92933">
        <ele>376.9</ele>
        <time>1970-01-01T01:05:05.000Z</time>
      </trkpt>
      <trkpt lat="41.336023" lon="1.929248">
        <ele>376.9</ele>
        <time>1970-01-01T01:05:06.000Z</time>
      </trkpt>
      <trkpt lat="41.336023" lon="1.929248">
        <ele>376.9</ele>
        <time>1970-01-01T01:05:07.000Z</time>
      </trkpt>
      <trkpt lat="41.33599" lon="1.929168">
        <ele>376.9</ele>
        <time>1970-01-01T01:05:08.000Z</time>
      </trkpt>
      <trkpt lat="41.335975" lon="1.929132">
        <ele>376.9</ele>
        <time>1970-01-01T01:05:09.000Z</time>
      </trkpt>
      <trkpt lat="41.335975" lon="1.929132">
        <ele>376.9</ele>
        <time>1970-01-01T01:05:10.000Z</time>
      </trkpt>
      <trkpt lat="41.335955" lon="1.929047">
        <ele>377.9</ele>
        <time>1970-01-01T01:05:11.000Z</time>
      </trkpt>
      <trkpt lat="41.335955" lon="1.929047">
        <ele>377.9</ele>
        <time>1970-01-01T01:05:12.000Z</time>
      </trkpt>
      <trkpt lat="41.335917" lon="1.928957">
        <ele>377.9</ele>
        <time>1970-01-01T01:05:13.000Z</time>
      </trkpt>
      <trkpt lat="41.335902" lon="1.928912">
        <ele>377.9</ele>
        <time>1970-01-01T01:05:14.000Z</time>
      </trkpt>
      <trkpt lat="41.335902" lon="1.928912">
        <ele>377.9</ele>
        <time>1970-01-01T01:05:15.000Z</time>
      </trkpt>
      <trkpt lat="41.335872" lon="1.928825">
        <ele>377.9</ele>
        <time>1970-01-01T01:05:16.000Z</time>
      </trkpt>
      <trkpt lat="41.335858" lon="1.928787">
        <ele>377.9</ele>
        <time>1970-01-01T01:05:17.000Z</time>
      </trkpt>
      <trkpt lat="41.335858" lon="1.928787">
        <ele>377.9</ele>
        <time>1970-01-01T01:05:18.000Z</time>
      </trkpt>
      <trkpt lat="41.335825" lon="1.928722">
        <ele>377.9</ele>
        <time>1970-01-01T01:05:19.000Z</time>
      </trkpt>
      <trkpt lat="41.335825" lon="1.928722">
        <ele>377.9</ele>
        <time>1970-01-01T01:05:20.000Z</time>
      </trkpt>
      <trkpt lat="41.335795" lon="1.928675">
        <ele>377.9</ele>
        <time>1970-01-01T01:05:21.000Z</time>
      </trkpt>
      <trkpt lat="41.335785" lon="1.928665">
        <ele>377.9</ele>
        <time>1970-01-01T01:05:22.000Z</time>
      </trkpt>
      <trkpt lat="41.335785" lon="1.928665">
        <ele>377.9</ele>
        <time>1970-01-01T01:05:23.000Z</time>
      </trkpt>
      <trkpt lat="41.335767" lon="1.928648">
        <ele>377.9</ele>
        <time>1970-01-01T01:05:24.000Z</time>
      </trkpt>
      <trkpt lat="41.335755" lon="1.928632">
        <ele>377.9</ele>
        <time>1970-01-01T01:05:25.000Z</time>
      </trkpt>
      <trkpt lat="41.335755" lon="1.928632">
        <ele>377.9</ele>
        <time>1970-01-01T01:05:26.000Z</time>
      </trkpt>
      <trkpt lat="41.335722" lon="1.928587">
        <ele>377.9</ele>
        <time>1970-01-01T01:05:27.000Z</time>
      </trkpt>
      <trkpt lat="41.335697" lon="1.92857">
        <ele>377.9</ele>
        <time>1970-01-01T01:05:28.000Z</time>
      </trkpt>
      <trkpt lat="41.335697" lon="1.92857">
        <ele>377.9</ele>
        <time>1970-01-01T01:05:29.000Z</time>
      </trkpt>
      <trkpt lat="41.335645" lon="1.928542">
        <ele>377.9</ele>
        <time>1970-01-01T01:05:30.000Z</time>
      </trkpt>
      <trkpt lat="41.33562" lon="1.928522">
        <ele>377.9</ele>
        <time>1970-01-01T01:05:31.000Z</time>
      </trkpt>
      <trkpt lat="41.33562" lon="1.928522">
        <ele>377.9</ele>
        <time>1970-01-01T01:05:32.000Z</time>
      </trkpt>
      <trkpt lat="41.335572" lon="1.928483">
        <ele>377.9</ele>
        <time>1970-01-01T01:05:33.000Z</time>
      </trkpt>
      <trkpt lat="41.335572" lon="1.928483">
        <ele>377.9</ele>
        <time>1970-01-01T01:05:34.000Z</time>
      </trkpt>
      <trkpt lat="41.335517" lon="1.928465">
        <ele>377.9</ele>
        <time>1970-01-01T01:05:35.000Z</time>
      </trkpt>
      <trkpt lat="41.335488" lon="1.928455">
        <ele>377.9</ele>
        <time>1970-01-01T01:05:36.000Z</time>
      </trkpt>
      <trkpt lat="41.335488" lon="1.928455">
        <ele>377.9</ele>
        <time>1970-01-01T01:05:37.000Z</time>
      </trkpt>
      <trkpt lat="41.335428" lon="1.928437">
        <ele>377.9</ele>
        <time>1970-01-01T01:05:38.000Z</time>
      </trkpt>
      <trkpt lat="41.335428" lon="1.928437">
        <ele>377.9</ele>
        <time>1970-01-01T01:05:39.000Z</time>
      </trkpt>
      <trkpt lat="41.33537" lon="1.928415">
        <ele>377.9</ele>
        <time>1970-01-01T01:05:40.000Z</time>
      </trkpt>
      <trkpt lat="41.33537" lon="1.928415">
        <ele>377.9</ele>
        <time>1970-01-01T01:05:41.000Z</time>
      </trkpt>
      <trkpt lat="41.335307" lon="1.928392">
        <ele>377.9</ele>
        <time>1970-01-01T01:05:42.000Z</time>
      </trkpt>
      <trkpt lat="41.335307" lon="1.928392">
        <ele>377.9</ele>
        <time>1970-01-01T01:05:43.000Z</time>
      </trkpt>
      <trkpt lat="41.335245" lon="1.928367">
        <ele>377.9</ele>
        <time>1970-01-01T01:05:44.000Z</time>
      </trkpt>
      <trkpt lat="41.335245" lon="1.928367">
        <ele>377.9</ele>
        <time>1970-01-01T01:05:45.000Z</time>
      </trkpt>
      <trkpt lat="41.335188" lon="1.928363">
        <ele>378.9</ele>
        <time>1970-01-01T01:05:46.000Z</time>
      </trkpt>
      <trkpt lat="41.335188" lon="1.928363">
        <ele>378.9</ele>
        <time>1970-01-01T01:05:47.000Z</time>
      </trkpt>
      <trkpt lat="41.335125" lon="1.92837">
        <ele>378.9</ele>
        <time>1970-01-01T01:05:48.000Z</time>
      </trkpt>
      <trkpt lat="41.335093" lon="1.92837">
        <ele>378.9</ele>
        <time>1970-01-01T01:05:49.000Z</time>
      </trkpt>
      <trkpt lat="41.335093" lon="1.92837">
        <ele>378.9</ele>
        <time>1970-01-01T01:05:50.000Z</time>
      </trkpt>
      <trkpt lat="41.335027" lon="1.928377">
        <ele>378.9</ele>
        <time>1970-01-01T01:05:51.000Z</time>
      </trkpt>
      <trkpt lat="41.335027" lon="1.928377">
        <ele>378.9</ele>
        <time>1970-01-01T01:05:52.000Z</time>
      </trkpt>
      <trkpt lat="41.334967" lon="1.928395">
        <ele>378.9</ele>
        <time>1970-01-01T01:05:53.000Z</time>
      </trkpt>
      <trkpt lat="41.334938" lon="1.928405">
        <ele>378.9</ele>
        <time>1970-01-01T01:05:54.000Z</time>
      </trkpt>
      <trkpt lat="41.334938" lon="1.928405">
        <ele>378.9</ele>
        <time>1970-01-01T01:05:55.000Z</time>
      </trkpt>
      <trkpt lat="41.33488" lon="1.92844">
        <ele>378.9</ele>
        <time>1970-01-01T01:05:56.000Z</time>
      </trkpt>
      <trkpt lat="41.334848" lon="1.928453">
        <ele>378.9</ele>
        <time>1970-01-01T01:05:57.000Z</time>
      </trkpt>
      <trkpt lat="41.334848" lon="1.928453">
        <ele>378.9</ele>
        <time>1970-01-01T01:05:58.000Z</time>
      </trkpt>
      <trkpt lat="41.334792" lon="1.928488">
        <ele>378.9</ele>
        <time>1970-01-01T01:05:59.000Z</time>
      </trkpt>
      <trkpt lat="41.334765" lon="1.928498">
        <ele>378.9</ele>
        <time>1970-01-01T01:06:00.000Z</time>
      </trkpt>
      <trkpt lat="41.334765" lon="1.928498">
        <ele>378.9</ele>
        <time>1970-01-01T01:06:01.000Z</time>
      </trkpt>
      <trkpt lat="41.334715" lon="1.928543">
        <ele>378.9</ele>
        <time>1970-01-01T01:06:02.000Z</time>
      </trkpt>
      <trkpt lat="41.334693" lon="1.928568">
        <ele>379.9</ele>
        <time>1970-01-01T01:06:03.000Z</time>
      </trkpt>
      <trkpt lat="41.334693" lon="1.928568">
        <ele>379.9</ele>
        <time>1970-01-01T01:06:04.000Z</time>
      </trkpt>
      <trkpt lat="41.334643" lon="1.92862">
        <ele>379.9</ele>
        <time>1970-01-01T01:06:05.000Z</time>
      </trkpt>
      <trkpt lat="41.33462" lon="1.928648">
        <ele>379.9</ele>
        <time>1970-01-01T01:06:06.000Z</time>
      </trkpt>
      <trkpt lat="41.33462" lon="1.928648">
        <ele>379.9</ele>
        <time>1970-01-01T01:06:07.000Z</time>
      </trkpt>
      <trkpt lat="41.334565" lon="1.928702">
        <ele>379.9</ele>
        <time>1970-01-01T01:06:08.000Z</time>
      </trkpt>
      <trkpt lat="41.334537" lon="1.92873">
        <ele>379.9</ele>
        <time>1970-01-01T01:06:09.000Z</time>
      </trkpt>
      <trkpt lat="41.334537" lon="1.92873">
        <ele>379.9</ele>
        <time>1970-01-01T01:06:10.000Z</time>
      </trkpt>
      <trkpt lat="41.334478" lon="1.928782">
        <ele>379.9</ele>
        <time>1970-01-01T01:06:11.000Z</time>
      </trkpt>
      <trkpt lat="41.33445" lon="1.92881">
        <ele>379.9</ele>
        <time>1970-01-01T01:06:12.000Z</time>
      </trkpt>
      <trkpt lat="41.33445" lon="1.92881">
        <ele>379.9</ele>
        <time>1970-01-01T01:06:13.000Z</time>
      </trkpt>
      <trkpt lat="41.33439" lon="1.92887">
        <ele>379.9</ele>
        <time>1970-01-01T01:06:14.000Z</time>
      </trkpt>
      <trkpt lat="41.334358" lon="1.928903">
        <ele>379.9</ele>
        <time>1970-01-01T01:06:15.000Z</time>
      </trkpt>
      <trkpt lat="41.334358" lon="1.928903">
        <ele>379.9</ele>
        <time>1970-01-01T01:06:16.000Z</time>
      </trkpt>
      <trkpt lat="41.334293" lon="1.928967">
        <ele>379.9</ele>
        <time>1970-01-01T01:06:17.000Z</time>
      </trkpt>
      <trkpt lat="41.334293" lon="1.928967">
        <ele>379.9</ele>
        <time>1970-01-01T01:06:18.000Z</time>
      </trkpt>
      <trkpt lat="41.334218" lon="1.929035">
        <ele>379.9</ele>
        <time>1970-01-01T01:06:19.000Z</time>
      </trkpt>
      <trkpt lat="41.334178" lon="1.929073">
        <ele>379.9</ele>
        <time>1970-01-01T01:06:20.000Z</time>
      </trkpt>
      <trkpt lat="41.334178" lon="1.929073">
        <ele>378.9</ele>
        <time>1970-01-01T01:06:21.000Z</time>
      </trkpt>
      <trkpt lat="41.334102" lon="1.929145">
        <ele>378.9</ele>
        <time>1970-01-01T01:06:22.000Z</time>
      </trkpt>
      <trkpt lat="41.334102" lon="1.929145">
        <ele>378.9</ele>
        <time>1970-01-01T01:06:23.000Z</time>
      </trkpt>
      <trkpt lat="41.334022" lon="1.929223">
        <ele>378.9</ele>
        <time>1970-01-01T01:06:24.000Z</time>
      </trkpt>
      <trkpt lat="41.334022" lon="1.929223">
        <ele>378.9</ele>
        <time>1970-01-01T01:06:25.000Z</time>
      </trkpt>
      <trkpt lat="41.33395" lon="1.929277">
        <ele>378.9</ele>
        <time>1970-01-01T01:06:26.000Z</time>
      </trkpt>
      <trkpt lat="41.33395" lon="1.929277">
        <ele>378.9</ele>
        <time>1970-01-01T01:06:27.000Z</time>
      </trkpt>
      <trkpt lat="41.333885" lon="1.929328">
        <ele>378.9</ele>
        <time>1970-01-01T01:06:28.000Z</time>
      </trkpt>
      <trkpt lat="41.333885" lon="1.929328">
        <ele>377.9</ele>
        <time>1970-01-01T01:06:29.000Z</time>
      </trkpt>
      <trkpt lat="41.333823" lon="1.929368">
        <ele>377.9</ele>
        <time>1970-01-01T01:06:30.000Z</time>
      </trkpt>
      <trkpt lat="41.333793" lon="1.929378">
        <ele>377.9</ele>
        <time>1970-01-01T01:06:31.000Z</time>
      </trkpt>
      <trkpt lat="41.333793" lon="1.929378">
        <ele>377.9</ele>
        <time>1970-01-01T01:06:32.000Z</time>
      </trkpt>
      <trkpt lat="41.33373" lon="1.929362">
        <ele>377.9</ele>
        <time>1970-01-01T01:06:33.000Z</time>
      </trkpt>
      <trkpt lat="41.333697" lon="1.929347">
        <ele>377.9</ele>
        <time>1970-01-01T01:06:34.000Z</time>
      </trkpt>
      <trkpt lat="41.333697" lon="1.929347">
        <ele>377.9</ele>
        <time>1970-01-01T01:06:35.000Z</time>
      </trkpt>
      <trkpt lat="41.333622" lon="1.929303">
        <ele>377.9</ele>
        <time>1970-01-01T01:06:36.000Z</time>
      </trkpt>
      <trkpt lat="41.333622" lon="1.929303">
        <ele>377.9</ele>
        <time>1970-01-01T01:06:37.000Z</time>
      </trkpt>
      <trkpt lat="41.333545" lon="1.929245">
        <ele>377.9</ele>
        <time>1970-01-01T01:06:38.000Z</time>
      </trkpt>
      <trkpt lat="41.333545" lon="1.929245">
        <ele>377.9</ele>
        <time>1970-01-01T01:06:39.000Z</time>
      </trkpt>
      <trkpt lat="41.333473" lon="1.929195">
        <ele>377.9</ele>
        <time>1970-01-01T01:06:40.000Z</time>
      </trkpt>
      <trkpt lat="41.333435" lon="1.929178">
        <ele>377.9</ele>
        <time>1970-01-01T01:06:41.000Z</time>
      </trkpt>
      <trkpt lat="41.333435" lon="1.929178">
        <ele>377.9</ele>
        <time>1970-01-01T01:06:42.000Z</time>
      </trkpt>
      <trkpt lat="41.333355" lon="1.929138">
        <ele>377.9</ele>
        <time>1970-01-01T01:06:43.000Z</time>
      </trkpt>
      <trkpt lat="41.333315" lon="1.929122">
        <ele>377.9</ele>
        <time>1970-01-01T01:06:44.000Z</time>
      </trkpt>
      <trkpt lat="41.333315" lon="1.929122">
        <ele>377.9</ele>
        <time>1970-01-01T01:06:45.000Z</time>
      </trkpt>
      <trkpt lat="41.333232" lon="1.929073">
        <ele>377.9</ele>
        <time>1970-01-01T01:06:46.000Z</time>
      </trkpt>
      <trkpt lat="41.333193" lon="1.92905">
        <ele>377.9</ele>
        <time>1970-01-01T01:06:47.000Z</time>
      </trkpt>
      <trkpt lat="41.33315" lon="1.929028">
        <ele>377.9</ele>
        <time>1970-01-01T01:06:48.000Z</time>
      </trkpt>
      <trkpt lat="41.33315" lon="1.929028">
        <ele>377.9</ele>
        <time>1970-01-01T01:06:49.000Z</time>
      </trkpt>
      <trkpt lat="41.333073" lon="1.928987">
        <ele>377.9</ele>
        <time>1970-01-01T01:06:50.000Z</time>
      </trkpt>
      <trkpt lat="41.333035" lon="1.928963">
        <ele>377.9</ele>
        <time>1970-01-01T01:06:51.000Z</time>
      </trkpt>
      <trkpt lat="41.333035" lon="1.928963">
        <ele>377.9</ele>
        <time>1970-01-01T01:06:52.000Z</time>
      </trkpt>
      <trkpt lat="41.332962" lon="1.928913">
        <ele>376.9</ele>
        <time>1970-01-01T01:06:53.000Z</time>
      </trkpt>
      <trkpt lat="41.332962" lon="1.928913">
        <ele>376.9</ele>
        <time>1970-01-01T01:06:54.000Z</time>
      </trkpt>
      <trkpt lat="41.332887" lon="1.92886">
        <ele>376.9</ele>
        <time>1970-01-01T01:06:55.000Z</time>
      </trkpt>
      <trkpt lat="41.332887" lon="1.92886">
        <ele>376.9</ele>
        <time>1970-01-01T01:06:56.000Z</time>
      </trkpt>
      <trkpt lat="41.332805" lon="1.928805">
        <ele>376.9</ele>
        <time>1970-01-01T01:06:57.000Z</time>
      </trkpt>
      <trkpt lat="41.332762" lon="1.928778">
        <ele>376.9</ele>
        <time>1970-01-01T01:06:58.000Z</time>
      </trkpt>
      <trkpt lat="41.332762" lon="1.928778">
        <ele>375.9</ele>
        <time>1970-01-01T01:06:59.000Z</time>
      </trkpt>
      <trkpt lat="41.332665" lon="1.928732">
        <ele>375.9</ele>
        <time>1970-01-01T01:07:00.000Z</time>
      </trkpt>
      <trkpt lat="41.332665" lon="1.928732">
        <ele>375.9</ele>
        <time>1970-01-01T01:07:01.000Z</time>
      </trkpt>
      <trkpt lat="41.332563" lon="1.928675">
        <ele>375.9</ele>
        <time>1970-01-01T01:07:02.000Z</time>
      </trkpt>
      <trkpt lat="41.332563" lon="1.928675">
        <ele>375.9</ele>
        <time>1970-01-01T01:07:03.000Z</time>
      </trkpt>
      <trkpt lat="41.332483" lon="1.928627">
        <ele>375.9</ele>
        <time>1970-01-01T01:07:04.000Z</time>
      </trkpt>
      <trkpt lat="41.332483" lon="1.928627">
        <ele>374.9</ele>
        <time>1970-01-01T01:07:05.000Z</time>
      </trkpt>
      <trkpt lat="41.332402" lon="1.9286">
        <ele>374.9</ele>
        <time>1970-01-01T01:07:06.000Z</time>
      </trkpt>
      <trkpt lat="41.332358" lon="1.928597">
        <ele>374.9</ele>
        <time>1970-01-01T01:07:07.000Z</time>
      </trkpt>
      <trkpt lat="41.332315" lon="1.928595">
        <ele>374.9</ele>
        <time>1970-01-01T01:07:08.000Z</time>
      </trkpt>
      <trkpt lat="41.332265" lon="1.928592">
        <ele>374.9</ele>
        <time>1970-01-01T01:07:09.000Z</time>
      </trkpt>
      <trkpt lat="41.332265" lon="1.928592">
        <ele>373.9</ele>
        <time>1970-01-01T01:07:10.000Z</time>
      </trkpt>
      <trkpt lat="41.332148" lon="1.928582">
        <ele>372.9</ele>
        <time>1970-01-01T01:07:11.000Z</time>
      </trkpt>
      <trkpt lat="41.33208" lon="1.928578">
        <ele>372.9</ele>
        <time>1970-01-01T01:07:12.000Z</time>
      </trkpt>
      <trkpt lat="41.33208" lon="1.928578">
        <ele>371.9</ele>
        <time>1970-01-01T01:07:13.000Z</time>
      </trkpt>
      <trkpt lat="41.331935" lon="1.92858">
        <ele>371.9</ele>
        <time>1970-01-01T01:07:14.000Z</time>
      </trkpt>
      <trkpt lat="41.331865" lon="1.928575">
        <ele>369.9</ele>
        <time>1970-01-01T01:07:15.000Z</time>
      </trkpt>
      <trkpt lat="41.331865" lon="1.928575">
        <ele>369.9</ele>
        <time>1970-01-01T01:07:16.000Z</time>
      </trkpt>
      <trkpt lat="41.331717" lon="1.928557">
        <ele>369.9</ele>
        <time>1970-01-01T01:07:17.000Z</time>
      </trkpt>
      <trkpt lat="41.331717" lon="1.928557">
        <ele>369.9</ele>
        <time>1970-01-01T01:07:18.000Z</time>
      </trkpt>
      <trkpt lat="41.331568" lon="1.928532">
        <ele>368.9</ele>
        <time>1970-01-01T01:07:19.000Z</time>
      </trkpt>
      <trkpt lat="41.331497" lon="1.928507">
        <ele>368.9</ele>
        <time>1970-01-01T01:07:20.000Z</time>
      </trkpt>
      <trkpt lat="41.331497" lon="1.928507">
        <ele>368.9</ele>
        <time>1970-01-01T01:07:21.000Z</time>
      </trkpt>
      <trkpt lat="41.331367" lon="1.928467">
        <ele>368.9</ele>
        <time>1970-01-01T01:07:22.000Z</time>
      </trkpt>
      <trkpt lat="41.331305" lon="1.928452">
        <ele>368.9</ele>
        <time>1970-01-01T01:07:23.000Z</time>
      </trkpt>
      <trkpt lat="41.331305" lon="1.928452">
        <ele>368.9</ele>
        <time>1970-01-01T01:07:24.000Z</time>
      </trkpt>
      <trkpt lat="41.331183" lon="1.928408">
        <ele>367.9</ele>
        <time>1970-01-01T01:07:25.000Z</time>
      </trkpt>
      <trkpt lat="41.331125" lon="1.928383">
        <ele>367.9</ele>
        <time>1970-01-01T01:07:26.000Z</time>
      </trkpt>
      <trkpt lat="41.331125" lon="1.928383">
        <ele>367.9</ele>
        <time>1970-01-01T01:07:27.000Z</time>
      </trkpt>
      <trkpt lat="41.331015" lon="1.928335">
        <ele>367.9</ele>
        <time>1970-01-01T01:07:28.000Z</time>
      </trkpt>
      <trkpt lat="41.331015" lon="1.928335">
        <ele>367.9</ele>
        <time>1970-01-01T01:07:29.000Z</time>
      </trkpt>
      <trkpt lat="41.330927" lon="1.928305">
        <ele>367.9</ele>
        <time>1970-01-01T01:07:30.000Z</time>
      </trkpt>
      <trkpt lat="41.330927" lon="1.928305">
        <ele>367.9</ele>
        <time>1970-01-01T01:07:31.000Z</time>
      </trkpt>
      <trkpt lat="41.330852" lon="1.928278">
        <ele>367.9</ele>
        <time>1970-01-01T01:07:32.000Z</time>
      </trkpt>
      <trkpt lat="41.330817" lon="1.928272">
        <ele>367.9</ele>
        <time>1970-01-01T01:07:33.000Z</time>
      </trkpt>
      <trkpt lat="41.33078" lon="1.928265">
        <ele>367.9</ele>
        <time>1970-01-01T01:07:34.000Z</time>
      </trkpt>
      <trkpt lat="41.33078" lon="1.928265">
        <ele>367.9</ele>
        <time>1970-01-01T01:07:35.000Z</time>
      </trkpt>
      <trkpt lat="41.330702" lon="1.928232">
        <ele>367.9</ele>
        <time>1970-01-01T01:07:36.000Z</time>
      </trkpt>
      <trkpt lat="41.330702" lon="1.928232">
        <ele>366.9</ele>
        <time>1970-01-01T01:07:37.000Z</time>
      </trkpt>
      <trkpt lat="41.330608" lon="1.928183">
        <ele>366.9</ele>
        <time>1970-01-01T01:07:38.000Z</time>
      </trkpt>
      <trkpt lat="41.330567" lon="1.928168">
        <ele>366.9</ele>
        <time>1970-01-01T01:07:39.000Z</time>
      </trkpt>
      <trkpt lat="41.330567" lon="1.928168">
        <ele>366.9</ele>
        <time>1970-01-01T01:07:40.000Z</time>
      </trkpt>
      <trkpt lat="41.330492" lon="1.928142">
        <ele>366.9</ele>
        <time>1970-01-01T01:07:41.000Z</time>
      </trkpt>
      <trkpt lat="41.330458" lon="1.928118">
        <ele>366.9</ele>
        <time>1970-01-01T01:07:42.000Z</time>
      </trkpt>
      <trkpt lat="41.330458" lon="1.928118">
        <ele>365.9</ele>
        <time>1970-01-01T01:07:43.000Z</time>
      </trkpt>
      <trkpt lat="41.330395" lon="1.928097">
        <ele>365.9</ele>
        <time>1970-01-01T01:07:44.000Z</time>
      </trkpt>
      <trkpt lat="41.330395" lon="1.928097">
        <ele>365.9</ele>
        <time>1970-01-01T01:07:45.000Z</time>
      </trkpt>
      <trkpt lat="41.330318" lon="1.928117">
        <ele>365.9</ele>
        <time>1970-01-01T01:07:46.000Z</time>
      </trkpt>
      <trkpt lat="41.330292" lon="1.928145">
        <ele>365.9</ele>
        <time>1970-01-01T01:07:47.000Z</time>
      </trkpt>
      <trkpt lat="41.330275" lon="1.928183">
        <ele>365.9</ele>
        <time>1970-01-01T01:07:48.000Z</time>
      </trkpt>
      <trkpt lat="41.330275" lon="1.928183">
        <ele>365.9</ele>
        <time>1970-01-01T01:07:49.000Z</time>
      </trkpt>
      <trkpt lat="41.33025" lon="1.928273">
        <ele>365.9</ele>
        <time>1970-01-01T01:07:50.000Z</time>
      </trkpt>
      <trkpt lat="41.330238" lon="1.928317">
        <ele>365.9</ele>
        <time>1970-01-01T01:07:51.000Z</time>
      </trkpt>
      <trkpt lat="41.330238" lon="1.928317">
        <ele>365.9</ele>
        <time>1970-01-01T01:07:52.000Z</time>
      </trkpt>
      <trkpt lat="41.330222" lon="1.928393">
        <ele>365.9</ele>
        <time>1970-01-01T01:07:53.000Z</time>
      </trkpt>
      <trkpt lat="41.330213" lon="1.92843">
        <ele>367.9</ele>
        <time>1970-01-01T01:07:54.000Z</time>
      </trkpt>
      <trkpt lat="41.330213" lon="1.92843">
        <ele>367.9</ele>
        <time>1970-01-01T01:07:55.000Z</time>
      </trkpt>
      <trkpt lat="41.330187" lon="1.928505">
        <ele>366.9</ele>
        <time>1970-01-01T01:07:56.000Z</time>
      </trkpt>
      <trkpt lat="41.330175" lon="1.928548">
        <ele>366.9</ele>
        <time>1970-01-01T01:07:57.000Z</time>
      </trkpt>
      <trkpt lat="41.330175" lon="1.928548">
        <ele>365.9</ele>
        <time>1970-01-01T01:07:58.000Z</time>
      </trkpt>
      <trkpt lat="41.33015" lon="1.928635">
        <ele>365.9</ele>
        <time>1970-01-01T01:07:59.000Z</time>
      </trkpt>
      <trkpt lat="41.33015" lon="1.928635">
        <ele>365.9</ele>
        <time>1970-01-01T01:08:00.000Z</time>
      </trkpt>
      <trkpt lat="41.330118" lon="1.928738">
        <ele>365.9</ele>
        <time>1970-01-01T01:08:01.000Z</time>
      </trkpt>
      <trkpt lat="41.330118" lon="1.928738">
        <ele>365.9</ele>
        <time>1970-01-01T01:08:02.000Z</time>
      </trkpt>
      <trkpt lat="41.33009" lon="1.928843">
        <ele>365.9</ele>
        <time>1970-01-01T01:08:03.000Z</time>
      </trkpt>
      <trkpt lat="41.33009" lon="1.928843">
        <ele>365.9</ele>
        <time>1970-01-01T01:08:04.000Z</time>
      </trkpt>
      <trkpt lat="41.33006" lon="1.928943">
        <ele>365.9</ele>
        <time>1970-01-01T01:08:05.000Z</time>
      </trkpt>
      <trkpt lat="41.33006" lon="1.928943">
        <ele>365.9</ele>
        <time>1970-01-01T01:08:06.000Z</time>
      </trkpt>
      <trkpt lat="41.33003" lon="1.929027">
        <ele>365.9</ele>
        <time>1970-01-01T01:08:07.000Z</time>
      </trkpt>
      <trkpt lat="41.330018" lon="1.929067">
        <ele>365.9</ele>
        <time>1970-01-01T01:08:08.000Z</time>
      </trkpt>
      <trkpt lat="41.330018" lon="1.929067">
        <ele>365.9</ele>
        <time>1970-01-01T01:08:09.000Z</time>
      </trkpt>
      <trkpt lat="41.329993" lon="1.929157">
        <ele>365.9</ele>
        <time>1970-01-01T01:08:10.000Z</time>
      </trkpt>
      <trkpt lat="41.329993" lon="1.929157">
        <ele>365.9</ele>
        <time>1970-01-01T01:08:11.000Z</time>
      </trkpt>
      <trkpt lat="41.329972" lon="1.929248">
        <ele>365.9</ele>
        <time>1970-01-01T01:08:12.000Z</time>
      </trkpt>
      <trkpt lat="41.329972" lon="1.929248">
        <ele>365.9</ele>
        <time>1970-01-01T01:08:13.000Z</time>
      </trkpt>
      <trkpt lat="41.32995" lon="1.929347">
        <ele>365.9</ele>
        <time>1970-01-01T01:08:14.000Z</time>
      </trkpt>
      <trkpt lat="41.32995" lon="1.929347">
        <ele>365.9</ele>
        <time>1970-01-01T01:08:15.000Z</time>
      </trkpt>
      <trkpt lat="41.329932" lon="1.929435">
        <ele>365.9</ele>
        <time>1970-01-01T01:08:16.000Z</time>
      </trkpt>
      <trkpt lat="41.329922" lon="1.929485">
        <ele>365.9</ele>
        <time>1970-01-01T01:08:17.000Z</time>
      </trkpt>
      <trkpt lat="41.329922" lon="1.929485">
        <ele>365.9</ele>
        <time>1970-01-01T01:08:18.000Z</time>
      </trkpt>
      <trkpt lat="41.329902" lon="1.929577">
        <ele>365.9</ele>
        <time>1970-01-01T01:08:19.000Z</time>
      </trkpt>
      <trkpt lat="41.329893" lon="1.929622">
        <ele>365.9</ele>
        <time>1970-01-01T01:08:20.000Z</time>
      </trkpt>
      <trkpt lat="41.329883" lon="1.929673">
        <ele>365.9</ele>
        <time>1970-01-01T01:08:21.000Z</time>
      </trkpt>
      <trkpt lat="41.329883" lon="1.929673">
        <ele>365.9</ele>
        <time>1970-01-01T01:08:22.000Z</time>
      </trkpt>
      <trkpt lat="41.329858" lon="1.929773">
        <ele>365.9</ele>
        <time>1970-01-01T01:08:23.000Z</time>
      </trkpt>
      <trkpt lat="41.329858" lon="1.929773">
        <ele>365.9</ele>
        <time>1970-01-01T01:08:24.000Z</time>
      </trkpt>
      <trkpt lat="41.329838" lon="1.929878">
        <ele>365.9</ele>
        <time>1970-01-01T01:08:25.000Z</time>
      </trkpt>
      <trkpt lat="41.329838" lon="1.929878">
        <ele>365.9</ele>
        <time>1970-01-01T01:08:26.000Z</time>
      </trkpt>
      <trkpt lat="41.329817" lon="1.92998">
        <ele>365.9</ele>
        <time>1970-01-01T01:08:27.000Z</time>
      </trkpt>
      <trkpt lat="41.329817" lon="1.92998">
        <ele>365.9</ele>
        <time>1970-01-01T01:08:28.000Z</time>
      </trkpt>
      <trkpt lat="41.329793" lon="1.930078">
        <ele>365.9</ele>
        <time>1970-01-01T01:08:29.000Z</time>
      </trkpt>
      <trkpt lat="41.329793" lon="1.930078">
        <ele>365.9</ele>
        <time>1970-01-01T01:08:30.000Z</time>
      </trkpt>
      <trkpt lat="41.329767" lon="1.930172">
        <ele>365.9</ele>
        <time>1970-01-01T01:08:31.000Z</time>
      </trkpt>
      <trkpt lat="41.329767" lon="1.930172">
        <ele>365.9</ele>
        <time>1970-01-01T01:08:32.000Z</time>
      </trkpt>
      <trkpt lat="41.32974" lon="1.930278">
        <ele>366.9</ele>
        <time>1970-01-01T01:08:33.000Z</time>
      </trkpt>
      <trkpt lat="41.329728" lon="1.93033">
        <ele>366.9</ele>
        <time>1970-01-01T01:08:34.000Z</time>
      </trkpt>
      <trkpt lat="41.329728" lon="1.93033">
        <ele>366.9</ele>
        <time>1970-01-01T01:08:35.000Z</time>
      </trkpt>
      <trkpt lat="41.329702" lon="1.930427">
        <ele>366.9</ele>
        <time>1970-01-01T01:08:36.000Z</time>
      </trkpt>
      <trkpt lat="41.329702" lon="1.930427">
        <ele>366.9</ele>
        <time>1970-01-01T01:08:37.000Z</time>
      </trkpt>
      <trkpt lat="41.32968" lon="1.930518">
        <ele>364.9</ele>
        <time>1970-01-01T01:08:38.000Z</time>
      </trkpt>
      <trkpt lat="41.329668" lon="1.930567">
        <ele>364.9</ele>
        <time>1970-01-01T01:08:39.000Z</time>
      </trkpt>
      <trkpt lat="41.329668" lon="1.930567">
        <ele>366.9</ele>
        <time>1970-01-01T01:08:40.000Z</time>
      </trkpt>
      <trkpt lat="41.329642" lon="1.930647">
        <ele>366.9</ele>
        <time>1970-01-01T01:08:41.000Z</time>
      </trkpt>
      <trkpt lat="41.329642" lon="1.930647">
        <ele>365.9</ele>
        <time>1970-01-01T01:08:42.000Z</time>
      </trkpt>
      <trkpt lat="41.329618" lon="1.930722">
        <ele>365.9</ele>
        <time>1970-01-01T01:08:43.000Z</time>
      </trkpt>
      <trkpt lat="41.329608" lon="1.930765">
        <ele>367.9</ele>
        <time>1970-01-01T01:08:44.000Z</time>
      </trkpt>
      <trkpt lat="41.329608" lon="1.930765">
        <ele>367.9</ele>
        <time>1970-01-01T01:08:45.000Z</time>
      </trkpt>
      <trkpt lat="41.329583" lon="1.930857">
        <ele>368.9</ele>
        <time>1970-01-01T01:08:46.000Z</time>
      </trkpt>
      <trkpt lat="41.329583" lon="1.930857">
        <ele>368.9</ele>
        <time>1970-01-01T01:08:47.000Z</time>
      </trkpt>
      <trkpt lat="41.329563" lon="1.930977">
        <ele>368.9</ele>
        <time>1970-01-01T01:08:48.000Z</time>
      </trkpt>
      <trkpt lat="41.329563" lon="1.930977">
        <ele>368.9</ele>
        <time>1970-01-01T01:08:49.000Z</time>
      </trkpt>
      <trkpt lat="41.329535" lon="1.93108">
        <ele>367.9</ele>
        <time>1970-01-01T01:08:50.000Z</time>
      </trkpt>
      <trkpt lat="41.329523" lon="1.931132">
        <ele>367.9</ele>
        <time>1970-01-01T01:08:51.000Z</time>
      </trkpt>
      <trkpt lat="41.329523" lon="1.931132">
        <ele>367.9</ele>
        <time>1970-01-01T01:08:52.000Z</time>
      </trkpt>
      <trkpt lat="41.329508" lon="1.931243">
        <ele>367.9</ele>
        <time>1970-01-01T01:08:53.000Z</time>
      </trkpt>
      <trkpt lat="41.329498" lon="1.931295">
        <ele>367.9</ele>
        <time>1970-01-01T01:08:54.000Z</time>
      </trkpt>
      <trkpt lat="41.329498" lon="1.931295">
        <ele>367.9</ele>
        <time>1970-01-01T01:08:55.000Z</time>
      </trkpt>
      <trkpt lat="41.329475" lon="1.931392">
        <ele>367.9</ele>
        <time>1970-01-01T01:08:56.000Z</time>
      </trkpt>
      <trkpt lat="41.329462" lon="1.931443">
        <ele>367.9</ele>
        <time>1970-01-01T01:08:57.000Z</time>
      </trkpt>
      <trkpt lat="41.329447" lon="1.931493">
        <ele>367.9</ele>
        <time>1970-01-01T01:08:58.000Z</time>
      </trkpt>
      <trkpt lat="41.329447" lon="1.931493">
        <ele>367.9</ele>
        <time>1970-01-01T01:08:59.000Z</time>
      </trkpt>
      <trkpt lat="41.329425" lon="1.931595">
        <ele>367.9</ele>
        <time>1970-01-01T01:09:00.000Z</time>
      </trkpt>
      <trkpt lat="41.329415" lon="1.931643">
        <ele>367.9</ele>
        <time>1970-01-01T01:09:01.000Z</time>
      </trkpt>
      <trkpt lat="41.329415" lon="1.931643">
        <ele>367.9</ele>
        <time>1970-01-01T01:09:02.000Z</time>
      </trkpt>
      <trkpt lat="41.32939" lon="1.931745">
        <ele>367.9</ele>
        <time>1970-01-01T01:09:03.000Z</time>
      </trkpt>
      <trkpt lat="41.329378" lon="1.931797">
        <ele>367.9</ele>
        <time>1970-01-01T01:09:04.000Z</time>
      </trkpt>
      <trkpt lat="41.329378" lon="1.931797">
        <ele>367.9</ele>
        <time>1970-01-01T01:09:05.000Z</time>
      </trkpt>
      <trkpt lat="41.32936" lon="1.9319">
        <ele>368.9</ele>
        <time>1970-01-01T01:09:06.000Z</time>
      </trkpt>
      <trkpt lat="41.32936" lon="1.9319">
        <ele>368.9</ele>
        <time>1970-01-01T01:09:07.000Z</time>
      </trkpt>
      <trkpt lat="41.32934" lon="1.931985">
        <ele>368.9</ele>
        <time>1970-01-01T01:09:08.000Z</time>
      </trkpt>
      <trkpt lat="41.329325" lon="1.932023">
        <ele>368.9</ele>
        <time>1970-01-01T01:09:09.000Z</time>
      </trkpt>
      <trkpt lat="41.329325" lon="1.932023">
        <ele>368.9</ele>
        <time>1970-01-01T01:09:10.000Z</time>
      </trkpt>
      <trkpt lat="41.329295" lon="1.9321">
        <ele>368.9</ele>
        <time>1970-01-01T01:09:11.000Z</time>
      </trkpt>
      <trkpt lat="41.329295" lon="1.9321">
        <ele>368.9</ele>
        <time>1970-01-01T01:09:12.000Z</time>
      </trkpt>
      <trkpt lat="41.329278" lon="1.932187">
        <ele>368.9</ele>
        <time>1970-01-01T01:09:13.000Z</time>
      </trkpt>
      <trkpt lat="41.329278" lon="1.932187">
        <ele>368.9</ele>
        <time>1970-01-01T01:09:14.000Z</time>
      </trkpt>
      <trkpt lat="41.32926" lon="1.932275">
        <ele>368.9</ele>
        <time>1970-01-01T01:09:15.000Z</time>
      </trkpt>
      <trkpt lat="41.32926" lon="1.932275">
        <ele>368.9</ele>
        <time>1970-01-01T01:09:16.000Z</time>
      </trkpt>
      <trkpt lat="41.32924" lon="1.932362">
        <ele>368.9</ele>
        <time>1970-01-01T01:09:17.000Z</time>
      </trkpt>
      <trkpt lat="41.32924" lon="1.932362">
        <ele>368.9</ele>
        <time>1970-01-01T01:09:18.000Z</time>
      </trkpt>
      <trkpt lat="41.329208" lon="1.932457">
        <ele>368.9</ele>
        <time>1970-01-01T01:09:19.000Z</time>
      </trkpt>
      <trkpt lat="41.329208" lon="1.932457">
        <ele>368.9</ele>
        <time>1970-01-01T01:09:20.000Z</time>
      </trkpt>
      <trkpt lat="41.329167" lon="1.93255">
        <ele>368.9</ele>
        <time>1970-01-01T01:09:21.000Z</time>
      </trkpt>
      <trkpt lat="41.329147" lon="1.93259">
        <ele>368.9</ele>
        <time>1970-01-01T01:09:22.000Z</time>
      </trkpt>
      <trkpt lat="41.329147" lon="1.93259">
        <ele>369.9</ele>
        <time>1970-01-01T01:09:23.000Z</time>
      </trkpt>
      <trkpt lat="41.329105" lon="1.932673">
        <ele>369.9</ele>
        <time>1970-01-01T01:09:24.000Z</time>
      </trkpt>
      <trkpt lat="41.329085" lon="1.93271">
        <ele>369.9</ele>
        <time>1970-01-01T01:09:25.000Z</time>
      </trkpt>
      <trkpt lat="41.329085" lon="1.93271">
        <ele>369.9</ele>
        <time>1970-01-01T01:09:26.000Z</time>
      </trkpt>
      <trkpt lat="41.329047" lon="1.932792">
        <ele>369.9</ele>
        <time>1970-01-01T01:09:27.000Z</time>
      </trkpt>
      <trkpt lat="41.329023" lon="1.932835">
        <ele>369.9</ele>
        <time>1970-01-01T01:09:28.000Z</time>
      </trkpt>
      <trkpt lat="41.329023" lon="1.932835">
        <ele>369.9</ele>
        <time>1970-01-01T01:09:29.000Z</time>
      </trkpt>
      <trkpt lat="41.328978" lon="1.932922">
        <ele>369.9</ele>
        <time>1970-01-01T01:09:30.000Z</time>
      </trkpt>
      <trkpt lat="41.328978" lon="1.932922">
        <ele>369.9</ele>
        <time>1970-01-01T01:09:31.000Z</time>
      </trkpt>
      <trkpt lat="41.328933" lon="1.933033">
        <ele>369.9</ele>
        <time>1970-01-01T01:09:32.000Z</time>
      </trkpt>
      <trkpt lat="41.328908" lon="1.933093">
        <ele>369.9</ele>
        <time>1970-01-01T01:09:33.000Z</time>
      </trkpt>
      <trkpt lat="41.328908" lon="1.933093">
        <ele>369.9</ele>
        <time>1970-01-01T01:09:34.000Z</time>
      </trkpt>
      <trkpt lat="41.328855" lon="1.933213">
        <ele>368.9</ele>
        <time>1970-01-01T01:09:35.000Z</time>
      </trkpt>
      <trkpt lat="41.328855" lon="1.933213">
        <ele>368.9</ele>
        <time>1970-01-01T01:09:36.000Z</time>
      </trkpt>
      <trkpt lat="41.328792" lon="1.933347">
        <ele>368.9</ele>
        <time>1970-01-01T01:09:37.000Z</time>
      </trkpt>
      <trkpt lat="41.328792" lon="1.933347">
        <ele>368.9</ele>
        <time>1970-01-01T01:09:38.000Z</time>
      </trkpt>
      <trkpt lat="41.328732" lon="1.933493">
        <ele>367.9</ele>
        <time>1970-01-01T01:09:39.000Z</time>
      </trkpt>
      <trkpt lat="41.328708" lon="1.933573">
        <ele>367.9</ele>
        <time>1970-01-01T01:09:40.000Z</time>
      </trkpt>
      <trkpt lat="41.328708" lon="1.933573">
        <ele>367.9</ele>
        <time>1970-01-01T01:09:41.000Z</time>
      </trkpt>
      <trkpt lat="41.328662" lon="1.93373">
        <ele>367.9</ele>
        <time>1970-01-01T01:09:42.000Z</time>
      </trkpt>
      <trkpt lat="41.328647" lon="1.933808">
        <ele>366.9</ele>
        <time>1970-01-01T01:09:43.000Z</time>
      </trkpt>
      <trkpt lat="41.328647" lon="1.933808">
        <ele>366.9</ele>
        <time>1970-01-01T01:09:44.000Z</time>
      </trkpt>
      <trkpt lat="41.328632" lon="1.93395">
        <ele>366.9</ele>
        <time>1970-01-01T01:09:45.000Z</time>
      </trkpt>
      <trkpt lat="41.328632" lon="1.93395">
        <ele>366.9</ele>
        <time>1970-01-01T01:09:46.000Z</time>
      </trkpt>
      <trkpt lat="41.328622" lon="1.934048">
        <ele>366.9</ele>
        <time>1970-01-01T01:09:47.000Z</time>
      </trkpt>
      <trkpt lat="41.328622" lon="1.934048">
        <ele>366.9</ele>
        <time>1970-01-01T01:09:48.000Z</time>
      </trkpt>
      <trkpt lat="41.328612" lon="1.934102">
        <ele>366.9</ele>
        <time>1970-01-01T01:09:49.000Z</time>
      </trkpt>
      <trkpt lat="41.328612" lon="1.934102">
        <ele>366.9</ele>
        <time>1970-01-01T01:09:50.000Z</time>
      </trkpt>
      <trkpt lat="41.328583" lon="1.934153">
        <ele>366.9</ele>
        <time>1970-01-01T01:09:51.000Z</time>
      </trkpt>
      <trkpt lat="41.328583" lon="1.934153">
        <ele>366.9</ele>
        <time>1970-01-01T01:09:52.000Z</time>
      </trkpt>
      <trkpt lat="41.328582" lon="1.934217">
        <ele>366.9</ele>
        <time>1970-01-01T01:09:53.000Z</time>
      </trkpt>
      <trkpt lat="41.328582" lon="1.934217">
        <ele>366.9</ele>
        <time>1970-01-01T01:09:54.000Z</time>
      </trkpt>
      <trkpt lat="41.328567" lon="1.934267">
        <ele>366.9</ele>
        <time>1970-01-01T01:09:55.000Z</time>
      </trkpt>
      <trkpt lat="41.328567" lon="1.934267">
        <ele>366.9</ele>
        <time>1970-01-01T01:09:56.000Z</time>
      </trkpt>
      <trkpt lat="41.328548" lon="1.934323">
        <ele>366.9</ele>
        <time>1970-01-01T01:09:57.000Z</time>
      </trkpt>
      <trkpt lat="41.328548" lon="1.934323">
        <ele>366.9</ele>
        <time>1970-01-01T01:09:58.000Z</time>
      </trkpt>
      <trkpt lat="41.328532" lon="1.9344">
        <ele>366.9</ele>
        <time>1970-01-01T01:09:59.000Z</time>
      </trkpt>
      <trkpt lat="41.328532" lon="1.9344">
        <ele>366.9</ele>
        <time>1970-01-01T01:10:00.000Z</time>
      </trkpt>
      <trkpt lat="41.328533" lon="1.934482">
        <ele>366.9</ele>
        <time>1970-01-01T01:10:01.000Z</time>
      </trkpt>
      <trkpt lat="41.328533" lon="1.934482">
        <ele>366.9</ele>
        <time>1970-01-01T01:10:02.000Z</time>
      </trkpt>
      <trkpt lat="41.328525" lon="1.93457">
        <ele>366.9</ele>
        <time>1970-01-01T01:10:03.000Z</time>
      </trkpt>
      <trkpt lat="41.328525" lon="1.93457">
        <ele>366.9</ele>
        <time>1970-01-01T01:10:04.000Z</time>
      </trkpt>
      <trkpt lat="41.32852" lon="1.93467">
        <ele>366.9</ele>
        <time>1970-01-01T01:10:05.000Z</time>
      </trkpt>
      <trkpt lat="41.32852" lon="1.93467">
        <ele>366.9</ele>
        <time>1970-01-01T01:10:06.000Z</time>
      </trkpt>
      <trkpt lat="41.328522" lon="1.934763">
        <ele>366.9</ele>
        <time>1970-01-01T01:10:07.000Z</time>
      </trkpt>
      <trkpt lat="41.328522" lon="1.934763">
        <ele>366.9</ele>
        <time>1970-01-01T01:10:08.000Z</time>
      </trkpt>
      <trkpt lat="41.328517" lon="1.934863">
        <ele>366.9</ele>
        <time>1970-01-01T01:10:09.000Z</time>
      </trkpt>
      <trkpt lat="41.328517" lon="1.934863">
        <ele>366.9</ele>
        <time>1970-01-01T01:10:10.000Z</time>
      </trkpt>
      <trkpt lat="41.328512" lon="1.93495">
        <ele>367.9</ele>
        <time>1970-01-01T01:10:11.000Z</time>
      </trkpt>
      <trkpt lat="41.328512" lon="1.93495">
        <ele>367.9</ele>
        <time>1970-01-01T01:10:12.000Z</time>
      </trkpt>
      <trkpt lat="41.328513" lon="1.935023">
        <ele>367.9</ele>
        <time>1970-01-01T01:10:13.000Z</time>
      </trkpt>
      <trkpt lat="41.328513" lon="1.935023">
        <ele>367.9</ele>
        <time>1970-01-01T01:10:14.000Z</time>
      </trkpt>
      <trkpt lat="41.32852" lon="1.93512">
        <ele>367.9</ele>
        <time>1970-01-01T01:10:15.000Z</time>
      </trkpt>
      <trkpt lat="41.32852" lon="1.93512">
        <ele>367.9</ele>
        <time>1970-01-01T01:10:16.000Z</time>
      </trkpt>
      <trkpt lat="41.328522" lon="1.93521">
        <ele>367.9</ele>
        <time>1970-01-01T01:10:17.000Z</time>
      </trkpt>
      <trkpt lat="41.32852" lon="1.93525">
        <ele>367.9</ele>
        <time>1970-01-01T01:10:18.000Z</time>
      </trkpt>
      <trkpt lat="41.32852" lon="1.93525">
        <ele>367.9</ele>
        <time>1970-01-01T01:10:19.000Z</time>
      </trkpt>
      <trkpt lat="41.328517" lon="1.935337">
        <ele>367.9</ele>
        <time>1970-01-01T01:10:20.000Z</time>
      </trkpt>
      <trkpt lat="41.328513" lon="1.93539">
        <ele>367.9</ele>
        <time>1970-01-01T01:10:21.000Z</time>
      </trkpt>
      <trkpt lat="41.328513" lon="1.93539">
        <ele>367.9</ele>
        <time>1970-01-01T01:10:22.000Z</time>
      </trkpt>
      <trkpt lat="41.328515" lon="1.935487">
        <ele>367.9</ele>
        <time>1970-01-01T01:10:23.000Z</time>
      </trkpt>
      <trkpt lat="41.328515" lon="1.935487">
        <ele>367.9</ele>
        <time>1970-01-01T01:10:24.000Z</time>
      </trkpt>
      <trkpt lat="41.328508" lon="1.935597">
        <ele>367.9</ele>
        <time>1970-01-01T01:10:25.000Z</time>
      </trkpt>
      <trkpt lat="41.328508" lon="1.935597">
        <ele>367.9</ele>
        <time>1970-01-01T01:10:26.000Z</time>
      </trkpt>
      <trkpt lat="41.3285" lon="1.935715">
        <ele>367.9</ele>
        <time>1970-01-01T01:10:27.000Z</time>
      </trkpt>
      <trkpt lat="41.3285" lon="1.935715">
        <ele>367.9</ele>
        <time>1970-01-01T01:10:28.000Z</time>
      </trkpt>
      <trkpt lat="41.328485" lon="1.935813">
        <ele>367.9</ele>
        <time>1970-01-01T01:10:29.000Z</time>
      </trkpt>
      <trkpt lat="41.32848" lon="1.93587">
        <ele>367.9</ele>
        <time>1970-01-01T01:10:30.000Z</time>
      </trkpt>
      <trkpt lat="41.32848" lon="1.93587">
        <ele>367.9</ele>
        <time>1970-01-01T01:10:31.000Z</time>
      </trkpt>
      <trkpt lat="41.328468" lon="1.935975">
        <ele>367.9</ele>
        <time>1970-01-01T01:10:32.000Z</time>
      </trkpt>
      <trkpt lat="41.328463" lon="1.936023">
        <ele>368.9</ele>
        <time>1970-01-01T01:10:33.000Z</time>
      </trkpt>
      <trkpt lat="41.328463" lon="1.936023">
        <ele>368.9</ele>
        <time>1970-01-01T01:10:34.000Z</time>
      </trkpt>
      <trkpt lat="41.328458" lon="1.936117">
        <ele>368.9</ele>
        <time>1970-01-01T01:10:35.000Z</time>
      </trkpt>
      <trkpt lat="41.328458" lon="1.936117">
        <ele>368.9</ele>
        <time>1970-01-01T01:10:36.000Z</time>
      </trkpt>
      <trkpt lat="41.32845" lon="1.93622">
        <ele>368.9</ele>
        <time>1970-01-01T01:10:37.000Z</time>
      </trkpt>
      <trkpt lat="41.328445" lon="1.936277">
        <ele>368.9</ele>
        <time>1970-01-01T01:10:38.000Z</time>
      </trkpt>
      <trkpt lat="41.32844" lon="1.93633">
        <ele>368.9</ele>
        <time>1970-01-01T01:10:39.000Z</time>
      </trkpt>
      <trkpt lat="41.32844" lon="1.93633">
        <ele>368.9</ele>
        <time>1970-01-01T01:10:40.000Z</time>
      </trkpt>
      <trkpt lat="41.328435" lon="1.936435">
        <ele>368.9</ele>
        <time>1970-01-01T01:10:41.000Z</time>
      </trkpt>
      <trkpt lat="41.328435" lon="1.936435">
        <ele>368.9</ele>
        <time>1970-01-01T01:10:42.000Z</time>
      </trkpt>
      <trkpt lat="41.328428" lon="1.936538">
        <ele>368.9</ele>
        <time>1970-01-01T01:10:43.000Z</time>
      </trkpt>
      <trkpt lat="41.328428" lon="1.936538">
        <ele>368.9</ele>
        <time>1970-01-01T01:10:44.000Z</time>
      </trkpt>
      <trkpt lat="41.328428" lon="1.93665">
        <ele>368.9</ele>
        <time>1970-01-01T01:10:45.000Z</time>
      </trkpt>
      <trkpt lat="41.328428" lon="1.93665">
        <ele>368.9</ele>
        <time>1970-01-01T01:10:46.000Z</time>
      </trkpt>
      <trkpt lat="41.328425" lon="1.93676">
        <ele>368.9</ele>
        <time>1970-01-01T01:10:47.000Z</time>
      </trkpt>
      <trkpt lat="41.328425" lon="1.936812">
        <ele>368.9</ele>
        <time>1970-01-01T01:10:48.000Z</time>
      </trkpt>
      <trkpt lat="41.328425" lon="1.936812">
        <ele>368.9</ele>
        <time>1970-01-01T01:10:49.000Z</time>
      </trkpt>
      <trkpt lat="41.32843" lon="1.93692">
        <ele>368.9</ele>
        <time>1970-01-01T01:10:50.000Z</time>
      </trkpt>
      <trkpt lat="41.32843" lon="1.93692">
        <ele>369.9</ele>
        <time>1970-01-01T01:10:51.000Z</time>
      </trkpt>
      <trkpt lat="41.328433" lon="1.93703">
        <ele>369.9</ele>
        <time>1970-01-01T01:10:52.000Z</time>
      </trkpt>
      <trkpt lat="41.328433" lon="1.93703">
        <ele>369.9</ele>
        <time>1970-01-01T01:10:53.000Z</time>
      </trkpt>
      <trkpt lat="41.328445" lon="1.93714">
        <ele>369.9</ele>
        <time>1970-01-01T01:10:54.000Z</time>
      </trkpt>
      <trkpt lat="41.328455" lon="1.93719">
        <ele>369.9</ele>
        <time>1970-01-01T01:10:55.000Z</time>
      </trkpt>
      <trkpt lat="41.328455" lon="1.93719">
        <ele>369.9</ele>
        <time>1970-01-01T01:10:56.000Z</time>
      </trkpt>
      <trkpt lat="41.328477" lon="1.937283">
        <ele>370.9</ele>
        <time>1970-01-01T01:10:57.000Z</time>
      </trkpt>
      <trkpt lat="41.328477" lon="1.937283">
        <ele>370.9</ele>
        <time>1970-01-01T01:10:58.000Z</time>
      </trkpt>
      <trkpt lat="41.328508" lon="1.93736">
        <ele>370.9</ele>
        <time>1970-01-01T01:10:59.000Z</time>
      </trkpt>
      <trkpt lat="41.328508" lon="1.93736">
        <ele>370.9</ele>
        <time>1970-01-01T01:11:00.000Z</time>
      </trkpt>
      <trkpt lat="41.328535" lon="1.937435">
        <ele>371.9</ele>
        <time>1970-01-01T01:11:01.000Z</time>
      </trkpt>
      <trkpt lat="41.328535" lon="1.937435">
        <ele>371.9</ele>
        <time>1970-01-01T01:11:02.000Z</time>
      </trkpt>
      <trkpt lat="41.328568" lon="1.937508">
        <ele>371.9</ele>
        <time>1970-01-01T01:11:03.000Z</time>
      </trkpt>
      <trkpt lat="41.328568" lon="1.937508">
        <ele>371.9</ele>
        <time>1970-01-01T01:11:04.000Z</time>
      </trkpt>
      <trkpt lat="41.328602" lon="1.937583">
        <ele>372.9</ele>
        <time>1970-01-01T01:11:05.000Z</time>
      </trkpt>
      <trkpt lat="41.328612" lon="1.937625">
        <ele>372.9</ele>
        <time>1970-01-01T01:11:06.000Z</time>
      </trkpt>
      <trkpt lat="41.328612" lon="1.937625">
        <ele>372.9</ele>
        <time>1970-01-01T01:11:07.000Z</time>
      </trkpt>
      <trkpt lat="41.328602" lon="1.937707">
        <ele>372.9</ele>
        <time>1970-01-01T01:11:08.000Z</time>
      </trkpt>
      <trkpt lat="41.328602" lon="1.937707">
        <ele>373.9</ele>
        <time>1970-01-01T01:11:09.000Z</time>
      </trkpt>
      <trkpt lat="41.328567" lon="1.93778">
        <ele>373.9</ele>
        <time>1970-01-01T01:11:10.000Z</time>
      </trkpt>
      <trkpt lat="41.328567" lon="1.93778">
        <ele>373.9</ele>
        <time>1970-01-01T01:11:11.000Z</time>
      </trkpt>
      <trkpt lat="41.328522" lon="1.937835">
        <ele>373.9</ele>
        <time>1970-01-01T01:11:12.000Z</time>
      </trkpt>
      <trkpt lat="41.328522" lon="1.937835">
        <ele>373.9</ele>
        <time>1970-01-01T01:11:13.000Z</time>
      </trkpt>
      <trkpt lat="41.328472" lon="1.937862">
        <ele>373.9</ele>
        <time>1970-01-01T01:11:14.000Z</time>
      </trkpt>
      <trkpt lat="41.328472" lon="1.937862">
        <ele>373.9</ele>
        <time>1970-01-01T01:11:15.000Z</time>
      </trkpt>
      <trkpt lat="41.328415" lon="1.937858">
        <ele>373.9</ele>
        <time>1970-01-01T01:11:16.000Z</time>
      </trkpt>
      <trkpt lat="41.328415" lon="1.937858">
        <ele>374.9</ele>
        <time>1970-01-01T01:11:17.000Z</time>
      </trkpt>
      <trkpt lat="41.328362" lon="1.937825">
        <ele>374.9</ele>
        <time>1970-01-01T01:11:18.000Z</time>
      </trkpt>
      <trkpt lat="41.328362" lon="1.937825">
        <ele>374.9</ele>
        <time>1970-01-01T01:11:19.000Z</time>
      </trkpt>
      <trkpt lat="41.328298" lon="1.937788">
        <ele>374.9</ele>
        <time>1970-01-01T01:11:20.000Z</time>
      </trkpt>
      <trkpt lat="41.328298" lon="1.937788">
        <ele>374.9</ele>
        <time>1970-01-01T01:11:21.000Z</time>
      </trkpt>
      <trkpt lat="41.328223" lon="1.937777">
        <ele>374.9</ele>
        <time>1970-01-01T01:11:22.000Z</time>
      </trkpt>
      <trkpt lat="41.328223" lon="1.937777">
        <ele>374.9</ele>
        <time>1970-01-01T01:11:23.000Z</time>
      </trkpt>
      <trkpt lat="41.328145" lon="1.937817">
        <ele>374.9</ele>
        <time>1970-01-01T01:11:24.000Z</time>
      </trkpt>
      <trkpt lat="41.32811" lon="1.937853">
        <ele>374.9</ele>
        <time>1970-01-01T01:11:25.000Z</time>
      </trkpt>
      <trkpt lat="41.32811" lon="1.937853">
        <ele>374.9</ele>
        <time>1970-01-01T01:11:26.000Z</time>
      </trkpt>
      <trkpt lat="41.328058" lon="1.937953">
        <ele>374.9</ele>
        <time>1970-01-01T01:11:27.000Z</time>
      </trkpt>
      <trkpt lat="41.328045" lon="1.93801">
        <ele>374.9</ele>
        <time>1970-01-01T01:11:28.000Z</time>
      </trkpt>
      <trkpt lat="41.328045" lon="1.93801">
        <ele>374.9</ele>
        <time>1970-01-01T01:11:29.000Z</time>
      </trkpt>
      <trkpt lat="41.328062" lon="1.938123">
        <ele>374.9</ele>
        <time>1970-01-01T01:11:30.000Z</time>
      </trkpt>
      <trkpt lat="41.328062" lon="1.938123">
        <ele>374.9</ele>
        <time>1970-01-01T01:11:31.000Z</time>
      </trkpt>
      <trkpt lat="41.328112" lon="1.938212">
        <ele>374.9</ele>
        <time>1970-01-01T01:11:32.000Z</time>
      </trkpt>
      <trkpt lat="41.328137" lon="1.938255">
        <ele>374.9</ele>
        <time>1970-01-01T01:11:33.000Z</time>
      </trkpt>
      <trkpt lat="41.328137" lon="1.938255">
        <ele>373.9</ele>
        <time>1970-01-01T01:11:34.000Z</time>
      </trkpt>
      <trkpt lat="41.328183" lon="1.938348">
        <ele>373.9</ele>
        <time>1970-01-01T01:11:35.000Z</time>
      </trkpt>
      <trkpt lat="41.328183" lon="1.938348">
        <ele>373.9</ele>
        <time>1970-01-01T01:11:36.000Z</time>
      </trkpt>
      <trkpt lat="41.328208" lon="1.938462">
        <ele>373.9</ele>
        <time>1970-01-01T01:11:37.000Z</time>
      </trkpt>
      <trkpt lat="41.328208" lon="1.938462">
        <ele>373.9</ele>
        <time>1970-01-01T01:11:38.000Z</time>
      </trkpt>
      <trkpt lat="41.32822" lon="1.938587">
        <ele>373.9</ele>
        <time>1970-01-01T01:11:39.000Z</time>
      </trkpt>
      <trkpt lat="41.328227" lon="1.938655">
        <ele>373.9</ele>
        <time>1970-01-01T01:11:40.000Z</time>
      </trkpt>
      <trkpt lat="41.328227" lon="1.938655">
        <ele>373.9</ele>
        <time>1970-01-01T01:11:41.000Z</time>
      </trkpt>
      <trkpt lat="41.328237" lon="1.938783">
        <ele>373.9</ele>
        <time>1970-01-01T01:11:42.000Z</time>
      </trkpt>
      <trkpt lat="41.328237" lon="1.938783">
        <ele>373.9</ele>
        <time>1970-01-01T01:11:43.000Z</time>
      </trkpt>
      <trkpt lat="41.328243" lon="1.938907">
        <ele>373.9</ele>
        <time>1970-01-01T01:11:44.000Z</time>
      </trkpt>
      <trkpt lat="41.328243" lon="1.938907">
        <ele>373.9</ele>
        <time>1970-01-01T01:11:45.000Z</time>
      </trkpt>
      <trkpt lat="41.328247" lon="1.939018">
        <ele>373.9</ele>
        <time>1970-01-01T01:11:46.000Z</time>
      </trkpt>
      <trkpt lat="41.328247" lon="1.939018">
        <ele>373.9</ele>
        <time>1970-01-01T01:11:47.000Z</time>
      </trkpt>
      <trkpt lat="41.32824" lon="1.939113">
        <ele>373.9</ele>
        <time>1970-01-01T01:11:48.000Z</time>
      </trkpt>
      <trkpt lat="41.32824" lon="1.939113">
        <ele>373.9</ele>
        <time>1970-01-01T01:11:49.000Z</time>
      </trkpt>
      <trkpt lat="41.328238" lon="1.939213">
        <ele>373.9</ele>
        <time>1970-01-01T01:11:50.000Z</time>
      </trkpt>
      <trkpt lat="41.328237" lon="1.939265">
        <ele>373.9</ele>
        <time>1970-01-01T01:11:51.000Z</time>
      </trkpt>
      <trkpt lat="41.328237" lon="1.939265">
        <ele>373.9</ele>
        <time>1970-01-01T01:11:52.000Z</time>
      </trkpt>
      <trkpt lat="41.328235" lon="1.939372">
        <ele>373.9</ele>
        <time>1970-01-01T01:11:53.000Z</time>
      </trkpt>
      <trkpt lat="41.32823" lon="1.939425">
        <ele>373.9</ele>
        <time>1970-01-01T01:11:54.000Z</time>
      </trkpt>
      <trkpt lat="41.32823" lon="1.939425">
        <ele>373.9</ele>
        <time>1970-01-01T01:11:55.000Z</time>
      </trkpt>
      <trkpt lat="41.328222" lon="1.93953">
        <ele>373.9</ele>
        <time>1970-01-01T01:11:56.000Z</time>
      </trkpt>
      <trkpt lat="41.328215" lon="1.939577">
        <ele>373.9</ele>
        <time>1970-01-01T01:11:57.000Z</time>
      </trkpt>
      <trkpt lat="41.328215" lon="1.939577">
        <ele>373.9</ele>
        <time>1970-01-01T01:11:58.000Z</time>
      </trkpt>
      <trkpt lat="41.328205" lon="1.939673">
        <ele>373.9</ele>
        <time>1970-01-01T01:11:59.000Z</time>
      </trkpt>
      <trkpt lat="41.328205" lon="1.939673">
        <ele>373.9</ele>
        <time>1970-01-01T01:12:00.000Z</time>
      </trkpt>
      <trkpt lat="41.328197" lon="1.939768">
        <ele>373.9</ele>
        <time>1970-01-01T01:12:01.000Z</time>
      </trkpt>
      <trkpt lat="41.328197" lon="1.939768">
        <ele>373.9</ele>
        <time>1970-01-01T01:12:02.000Z</time>
      </trkpt>
      <trkpt lat="41.32818" lon="1.939865">
        <ele>374.9</ele>
        <time>1970-01-01T01:12:03.000Z</time>
      </trkpt>
      <trkpt lat="41.328173" lon="1.939915">
        <ele>374.9</ele>
        <time>1970-01-01T01:12:04.000Z</time>
      </trkpt>
      <trkpt lat="41.328173" lon="1.939915">
        <ele>374.9</ele>
        <time>1970-01-01T01:12:05.000Z</time>
      </trkpt>
      <trkpt lat="41.328165" lon="1.940017">
        <ele>374.9</ele>
        <time>1970-01-01T01:12:06.000Z</time>
      </trkpt>
      <trkpt lat="41.328165" lon="1.940017">
        <ele>374.9</ele>
        <time>1970-01-01T01:12:07.000Z</time>
      </trkpt>
      <trkpt lat="41.32815" lon="1.940117">
        <ele>374.9</ele>
        <time>1970-01-01T01:12:08.000Z</time>
      </trkpt>
      <trkpt lat="41.32815" lon="1.940117">
        <ele>374.9</ele>
        <time>1970-01-01T01:12:09.000Z</time>
      </trkpt>
      <trkpt lat="41.328145" lon="1.940217">
        <ele>374.9</ele>
        <time>1970-01-01T01:12:10.000Z</time>
      </trkpt>
      <trkpt lat="41.328145" lon="1.940217">
        <ele>374.9</ele>
        <time>1970-01-01T01:12:11.000Z</time>
      </trkpt>
      <trkpt lat="41.328138" lon="1.94031">
        <ele>374.9</ele>
        <time>1970-01-01T01:12:12.000Z</time>
      </trkpt>
      <trkpt lat="41.328138" lon="1.94031">
        <ele>374.9</ele>
        <time>1970-01-01T01:12:13.000Z</time>
      </trkpt>
      <trkpt lat="41.328128" lon="1.940402">
        <ele>374.9</ele>
        <time>1970-01-01T01:12:14.000Z</time>
      </trkpt>
      <trkpt lat="41.328128" lon="1.940402">
        <ele>375.9</ele>
        <time>1970-01-01T01:12:15.000Z</time>
      </trkpt>
      <trkpt lat="41.328108" lon="1.940505">
        <ele>375.9</ele>
        <time>1970-01-01T01:12:16.000Z</time>
      </trkpt>
      <trkpt lat="41.328108" lon="1.940505">
        <ele>375.9</ele>
        <time>1970-01-01T01:12:17.000Z</time>
      </trkpt>
      <trkpt lat="41.328098" lon="1.940603">
        <ele>375.9</ele>
        <time>1970-01-01T01:12:18.000Z</time>
      </trkpt>
      <trkpt lat="41.328098" lon="1.940603">
        <ele>375.9</ele>
        <time>1970-01-01T01:12:19.000Z</time>
      </trkpt>
      <trkpt lat="41.328087" lon="1.9407">
        <ele>375.9</ele>
        <time>1970-01-01T01:12:20.000Z</time>
      </trkpt>
      <trkpt lat="41.32808" lon="1.940747">
        <ele>375.9</ele>
        <time>1970-01-01T01:12:21.000Z</time>
      </trkpt>
      <trkpt lat="41.32808" lon="1.940747">
        <ele>375.9</ele>
        <time>1970-01-01T01:12:22.000Z</time>
      </trkpt>
      <trkpt lat="41.328063" lon="1.94084">
        <ele>375.9</ele>
        <time>1970-01-01T01:12:23.000Z</time>
      </trkpt>
      <trkpt lat="41.328063" lon="1.94084">
        <ele>375.9</ele>
        <time>1970-01-01T01:12:24.000Z</time>
      </trkpt>
      <trkpt lat="41.328053" lon="1.94094">
        <ele>375.9</ele>
        <time>1970-01-01T01:12:25.000Z</time>
      </trkpt>
      <trkpt lat="41.328053" lon="1.94094">
        <ele>375.9</ele>
        <time>1970-01-01T01:12:26.000Z</time>
      </trkpt>
      <trkpt lat="41.328043" lon="1.941038">
        <ele>376.9</ele>
        <time>1970-01-01T01:12:27.000Z</time>
      </trkpt>
      <trkpt lat="41.328037" lon="1.94109">
        <ele>376.9</ele>
        <time>1970-01-01T01:12:28.000Z</time>
      </trkpt>
      <trkpt lat="41.328037" lon="1.94109">
        <ele>376.9</ele>
        <time>1970-01-01T01:12:29.000Z</time>
      </trkpt>
      <trkpt lat="41.328027" lon="1.94119">
        <ele>376.9</ele>
        <time>1970-01-01T01:12:30.000Z</time>
      </trkpt>
      <trkpt lat="41.328027" lon="1.94119">
        <ele>376.9</ele>
        <time>1970-01-01T01:12:31.000Z</time>
      </trkpt>
      <trkpt lat="41.328015" lon="1.941285">
        <ele>376.9</ele>
        <time>1970-01-01T01:12:32.000Z</time>
      </trkpt>
      <trkpt lat="41.32801" lon="1.941335">
        <ele>377.9</ele>
        <time>1970-01-01T01:12:33.000Z</time>
      </trkpt>
      <trkpt lat="41.32801" lon="1.941335">
        <ele>377.9</ele>
        <time>1970-01-01T01:12:34.000Z</time>
      </trkpt>
      <trkpt lat="41.328" lon="1.94143">
        <ele>377.9</ele>
        <time>1970-01-01T01:12:35.000Z</time>
      </trkpt>
      <trkpt lat="41.327992" lon="1.941472">
        <ele>377.9</ele>
        <time>1970-01-01T01:12:36.000Z</time>
      </trkpt>
      <trkpt lat="41.327992" lon="1.941472">
        <ele>377.9</ele>
        <time>1970-01-01T01:12:37.000Z</time>
      </trkpt>
      <trkpt lat="41.327977" lon="1.941563">
        <ele>377.9</ele>
        <time>1970-01-01T01:12:38.000Z</time>
      </trkpt>
      <trkpt lat="41.327975" lon="1.941612">
        <ele>377.9</ele>
        <time>1970-01-01T01:12:39.000Z</time>
      </trkpt>
      <trkpt lat="41.327972" lon="1.941658">
        <ele>377.9</ele>
        <time>1970-01-01T01:12:40.000Z</time>
      </trkpt>
      <trkpt lat="41.327972" lon="1.941658">
        <ele>377.9</ele>
        <time>1970-01-01T01:12:41.000Z</time>
      </trkpt>
      <trkpt lat="41.32796" lon="1.941747">
        <ele>377.9</ele>
        <time>1970-01-01T01:12:42.000Z</time>
      </trkpt>
      <trkpt lat="41.32796" lon="1.941747">
        <ele>377.9</ele>
        <time>1970-01-01T01:12:43.000Z</time>
      </trkpt>
      <trkpt lat="41.327945" lon="1.941842">
        <ele>377.9</ele>
        <time>1970-01-01T01:12:44.000Z</time>
      </trkpt>
      <trkpt lat="41.327937" lon="1.941888">
        <ele>378.9</ele>
        <time>1970-01-01T01:12:45.000Z</time>
      </trkpt>
      <trkpt lat="41.327937" lon="1.941888">
        <ele>378.9</ele>
        <time>1970-01-01T01:12:46.000Z</time>
      </trkpt>
      <trkpt lat="41.327925" lon="1.941985">
        <ele>378.9</ele>
        <time>1970-01-01T01:12:47.000Z</time>
      </trkpt>
      <trkpt lat="41.32792" lon="1.942028">
        <ele>378.9</ele>
        <time>1970-01-01T01:12:48.000Z</time>
      </trkpt>
      <trkpt lat="41.32792" lon="1.942028">
        <ele>378.9</ele>
        <time>1970-01-01T01:12:49.000Z</time>
      </trkpt>
      <trkpt lat="41.327903" lon="1.942118">
        <ele>378.9</ele>
        <time>1970-01-01T01:12:50.000Z</time>
      </trkpt>
      <trkpt lat="41.327898" lon="1.942165">
        <ele>378.9</ele>
        <time>1970-01-01T01:12:51.000Z</time>
      </trkpt>
      <trkpt lat="41.327898" lon="1.942165">
        <ele>378.9</ele>
        <time>1970-01-01T01:12:52.000Z</time>
      </trkpt>
      <trkpt lat="41.327887" lon="1.942257">
        <ele>379.9</ele>
        <time>1970-01-01T01:12:53.000Z</time>
      </trkpt>
      <trkpt lat="41.327883" lon="1.942302">
        <ele>379.9</ele>
        <time>1970-01-01T01:12:54.000Z</time>
      </trkpt>
      <trkpt lat="41.327883" lon="1.942302">
        <ele>379.9</ele>
        <time>1970-01-01T01:12:55.000Z</time>
      </trkpt>
      <trkpt lat="41.327872" lon="1.942388">
        <ele>379.9</ele>
        <time>1970-01-01T01:12:56.000Z</time>
      </trkpt>
      <trkpt lat="41.327867" lon="1.942435">
        <ele>379.9</ele>
        <time>1970-01-01T01:12:57.000Z</time>
      </trkpt>
      <trkpt lat="41.327867" lon="1.942435">
        <ele>379.9</ele>
        <time>1970-01-01T01:12:58.000Z</time>
      </trkpt>
      <trkpt lat="41.327853" lon="1.94252">
        <ele>380.9</ele>
        <time>1970-01-01T01:12:59.000Z</time>
      </trkpt>
      <trkpt lat="41.327845" lon="1.94256">
        <ele>380.9</ele>
        <time>1970-01-01T01:13:00.000Z</time>
      </trkpt>
      <trkpt lat="41.327845" lon="1.94256">
        <ele>380.9</ele>
        <time>1970-01-01T01:13:01.000Z</time>
      </trkpt>
      <trkpt lat="41.327832" lon="1.94264">
        <ele>380.9</ele>
        <time>1970-01-01T01:13:02.000Z</time>
      </trkpt>
      <trkpt lat="41.327825" lon="1.942683">
        <ele>380.9</ele>
        <time>1970-01-01T01:13:03.000Z</time>
      </trkpt>
      <trkpt lat="41.327818" lon="1.942728">
        <ele>380.9</ele>
        <time>1970-01-01T01:13:04.000Z</time>
      </trkpt>
      <trkpt lat="41.327818" lon="1.942728">
        <ele>380.9</ele>
        <time>1970-01-01T01:13:05.000Z</time>
      </trkpt>
      <trkpt lat="41.327805" lon="1.942817">
        <ele>380.9</ele>
        <time>1970-01-01T01:13:06.000Z</time>
      </trkpt>
      <trkpt lat="41.327805" lon="1.942817">
        <ele>382.9</ele>
        <time>1970-01-01T01:13:07.000Z</time>
      </trkpt>
      <trkpt lat="41.327797" lon="1.942902">
        <ele>382.9</ele>
        <time>1970-01-01T01:13:08.000Z</time>
      </trkpt>
      <trkpt lat="41.327792" lon="1.942947">
        <ele>382.9</ele>
        <time>1970-01-01T01:13:09.000Z</time>
      </trkpt>
      <trkpt lat="41.327792" lon="1.942947">
        <ele>382.9</ele>
        <time>1970-01-01T01:13:10.000Z</time>
      </trkpt>
      <trkpt lat="41.327785" lon="1.943043">
        <ele>382.9</ele>
        <time>1970-01-01T01:13:11.000Z</time>
      </trkpt>
      <trkpt lat="41.327785" lon="1.943043">
        <ele>382.9</ele>
        <time>1970-01-01T01:13:12.000Z</time>
      </trkpt>
      <trkpt lat="41.32777" lon="1.943132">
        <ele>382.9</ele>
        <time>1970-01-01T01:13:13.000Z</time>
      </trkpt>
      <trkpt lat="41.327763" lon="1.943173">
        <ele>382.9</ele>
        <time>1970-01-01T01:13:14.000Z</time>
      </trkpt>
      <trkpt lat="41.327763" lon="1.943173">
        <ele>382.9</ele>
        <time>1970-01-01T01:13:15.000Z</time>
      </trkpt>
      <trkpt lat="41.32775" lon="1.943263">
        <ele>382.9</ele>
        <time>1970-01-01T01:13:16.000Z</time>
      </trkpt>
      <trkpt lat="41.32775" lon="1.943263">
        <ele>382.9</ele>
        <time>1970-01-01T01:13:17.000Z</time>
      </trkpt>
      <trkpt lat="41.327743" lon="1.943358">
        <ele>382.9</ele>
        <time>1970-01-01T01:13:18.000Z</time>
      </trkpt>
      <trkpt lat="41.327743" lon="1.943358">
        <ele>382.9</ele>
        <time>1970-01-01T01:13:19.000Z</time>
      </trkpt>
      <trkpt lat="41.327732" lon="1.94345">
        <ele>382.9</ele>
        <time>1970-01-01T01:13:20.000Z</time>
      </trkpt>
      <trkpt lat="41.327725" lon="1.943498">
        <ele>382.9</ele>
        <time>1970-01-01T01:13:21.000Z</time>
      </trkpt>
      <trkpt lat="41.327725" lon="1.943498">
        <ele>382.9</ele>
        <time>1970-01-01T01:13:22.000Z</time>
      </trkpt>
      <trkpt lat="41.327717" lon="1.943588">
        <ele>383.9</ele>
        <time>1970-01-01T01:13:23.000Z</time>
      </trkpt>
      <trkpt lat="41.327717" lon="1.943588">
        <ele>383.9</ele>
        <time>1970-01-01T01:13:24.000Z</time>
      </trkpt>
      <trkpt lat="41.327703" lon="1.943677">
        <ele>383.9</ele>
        <time>1970-01-01T01:13:25.000Z</time>
      </trkpt>
      <trkpt lat="41.327703" lon="1.943677">
        <ele>383.9</ele>
        <time>1970-01-01T01:13:26.000Z</time>
      </trkpt>
      <trkpt lat="41.32769" lon="1.943767">
        <ele>383.9</ele>
        <time>1970-01-01T01:13:27.000Z</time>
      </trkpt>
      <trkpt lat="41.32769" lon="1.943767">
        <ele>384.9</ele>
        <time>1970-01-01T01:13:28.000Z</time>
      </trkpt>
      <trkpt lat="41.327677" lon="1.943857">
        <ele>384.9</ele>
        <time>1970-01-01T01:13:29.000Z</time>
      </trkpt>
      <trkpt lat="41.32767" lon="1.943903">
        <ele>384.9</ele>
        <time>1970-01-01T01:13:30.000Z</time>
      </trkpt>
      <trkpt lat="41.32767" lon="1.943903">
        <ele>384.9</ele>
        <time>1970-01-01T01:13:31.000Z</time>
      </trkpt>
      <trkpt lat="41.327658" lon="1.943993">
        <ele>384.9</ele>
        <time>1970-01-01T01:13:32.000Z</time>
      </trkpt>
      <trkpt lat="41.327658" lon="1.943993">
        <ele>384.9</ele>
        <time>1970-01-01T01:13:33.000Z</time>
      </trkpt>
      <trkpt lat="41.327642" lon="1.944082">
        <ele>384.9</ele>
        <time>1970-01-01T01:13:34.000Z</time>
      </trkpt>
      <trkpt lat="41.327642" lon="1.944082">
        <ele>384.9</ele>
        <time>1970-01-01T01:13:35.000Z</time>
      </trkpt>
      <trkpt lat="41.32762" lon="1.944175">
        <ele>385.9</ele>
        <time>1970-01-01T01:13:36.000Z</time>
      </trkpt>
      <trkpt lat="41.327608" lon="1.944225">
        <ele>385.9</ele>
        <time>1970-01-01T01:13:37.000Z</time>
      </trkpt>
      <trkpt lat="41.327608" lon="1.944225">
        <ele>385.9</ele>
        <time>1970-01-01T01:13:38.000Z</time>
      </trkpt>
      <trkpt lat="41.327587" lon="1.94432">
        <ele>385.9</ele>
        <time>1970-01-01T01:13:39.000Z</time>
      </trkpt>
      <trkpt lat="41.327587" lon="1.94432">
        <ele>385.9</ele>
        <time>1970-01-01T01:13:40.000Z</time>
      </trkpt>
      <trkpt lat="41.327562" lon="1.94441">
        <ele>385.9</ele>
        <time>1970-01-01T01:13:41.000Z</time>
      </trkpt>
      <trkpt lat="41.32755" lon="1.944453">
        <ele>385.9</ele>
        <time>1970-01-01T01:13:42.000Z</time>
      </trkpt>
      <trkpt lat="41.32755" lon="1.944453">
        <ele>385.9</ele>
        <time>1970-01-01T01:13:43.000Z</time>
      </trkpt>
      <trkpt lat="41.327532" lon="1.944545">
        <ele>386.9</ele>
        <time>1970-01-01T01:13:44.000Z</time>
      </trkpt>
      <trkpt lat="41.327532" lon="1.944545">
        <ele>386.9</ele>
        <time>1970-01-01T01:13:45.000Z</time>
      </trkpt>
      <trkpt lat="41.327503" lon="1.944638">
        <ele>386.9</ele>
        <time>1970-01-01T01:13:46.000Z</time>
      </trkpt>
      <trkpt lat="41.327503" lon="1.944638">
        <ele>386.9</ele>
        <time>1970-01-01T01:13:47.000Z</time>
      </trkpt>
      <trkpt lat="41.327477" lon="1.944728">
        <ele>386.9</ele>
        <time>1970-01-01T01:13:48.000Z</time>
      </trkpt>
      <trkpt lat="41.327477" lon="1.944728">
        <ele>386.9</ele>
        <time>1970-01-01T01:13:49.000Z</time>
      </trkpt>
      <trkpt lat="41.327452" lon="1.944815">
        <ele>386.9</ele>
        <time>1970-01-01T01:13:50.000Z</time>
      </trkpt>
      <trkpt lat="41.327438" lon="1.944858">
        <ele>386.9</ele>
        <time>1970-01-01T01:13:51.000Z</time>
      </trkpt>
      <trkpt lat="41.327438" lon="1.944858">
        <ele>387.9</ele>
        <time>1970-01-01T01:13:52.000Z</time>
      </trkpt>
      <trkpt lat="41.327413" lon="1.944945">
        <ele>387.9</ele>
        <time>1970-01-01T01:13:53.000Z</time>
      </trkpt>
      <trkpt lat="41.3274" lon="1.944987">
        <ele>387.9</ele>
        <time>1970-01-01T01:13:54.000Z</time>
      </trkpt>
      <trkpt lat="41.3274" lon="1.944987">
        <ele>387.9</ele>
        <time>1970-01-01T01:13:55.000Z</time>
      </trkpt>
      <trkpt lat="41.327372" lon="1.94507">
        <ele>388.9</ele>
        <time>1970-01-01T01:13:56.000Z</time>
      </trkpt>
      <trkpt lat="41.327372" lon="1.94507">
        <ele>388.9</ele>
        <time>1970-01-01T01:13:57.000Z</time>
      </trkpt>
      <trkpt lat="41.327343" lon="1.945155">
        <ele>388.9</ele>
        <time>1970-01-01T01:13:58.000Z</time>
      </trkpt>
      <trkpt lat="41.327343" lon="1.945155">
        <ele>388.9</ele>
        <time>1970-01-01T01:13:59.000Z</time>
      </trkpt>
      <trkpt lat="41.327313" lon="1.94524">
        <ele>389.9</ele>
        <time>1970-01-01T01:14:00.000Z</time>
      </trkpt>
      <trkpt lat="41.327313" lon="1.94524">
        <ele>389.9</ele>
        <time>1970-01-01T01:14:01.000Z</time>
      </trkpt>
      <trkpt lat="41.327285" lon="1.945327">
        <ele>389.9</ele>
        <time>1970-01-01T01:14:02.000Z</time>
      </trkpt>
      <trkpt lat="41.327268" lon="1.945368">
        <ele>389.9</ele>
        <time>1970-01-01T01:14:03.000Z</time>
      </trkpt>
      <trkpt lat="41.327268" lon="1.945368">
        <ele>389.9</ele>
        <time>1970-01-01T01:14:04.000Z</time>
      </trkpt>
      <trkpt lat="41.327237" lon="1.94545">
        <ele>389.9</ele>
        <time>1970-01-01T01:14:05.000Z</time>
      </trkpt>
      <trkpt lat="41.327237" lon="1.94545">
        <ele>390.9</ele>
        <time>1970-01-01T01:14:06.000Z</time>
      </trkpt>
      <trkpt lat="41.327205" lon="1.945538">
        <ele>390.9</ele>
        <time>1970-01-01T01:14:07.000Z</time>
      </trkpt>
      <trkpt lat="41.327205" lon="1.945538">
        <ele>390.9</ele>
        <time>1970-01-01T01:14:08.000Z</time>
      </trkpt>
      <trkpt lat="41.327172" lon="1.945627">
        <ele>390.9</ele>
        <time>1970-01-01T01:14:09.000Z</time>
      </trkpt>
      <trkpt lat="41.327172" lon="1.945627">
        <ele>390.9</ele>
        <time>1970-01-01T01:14:10.000Z</time>
      </trkpt>
      <trkpt lat="41.32714" lon="1.945712">
        <ele>390.9</ele>
        <time>1970-01-01T01:14:11.000Z</time>
      </trkpt>
      <trkpt lat="41.32714" lon="1.945712">
        <ele>391.9</ele>
        <time>1970-01-01T01:14:12.000Z</time>
      </trkpt>
      <trkpt lat="41.327108" lon="1.945793">
        <ele>391.9</ele>
        <time>1970-01-01T01:14:13.000Z</time>
      </trkpt>
      <trkpt lat="41.327108" lon="1.945793">
        <ele>391.9</ele>
        <time>1970-01-01T01:14:14.000Z</time>
      </trkpt>
      <trkpt lat="41.32707" lon="1.945877">
        <ele>391.9</ele>
        <time>1970-01-01T01:14:15.000Z</time>
      </trkpt>
      <trkpt lat="41.32707" lon="1.945877">
        <ele>391.9</ele>
        <time>1970-01-01T01:14:16.000Z</time>
      </trkpt>
      <trkpt lat="41.327038" lon="1.945967">
        <ele>391.9</ele>
        <time>1970-01-01T01:14:17.000Z</time>
      </trkpt>
      <trkpt lat="41.327038" lon="1.945967">
        <ele>391.9</ele>
        <time>1970-01-01T01:14:18.000Z</time>
      </trkpt>
      <trkpt lat="41.327" lon="1.94606">
        <ele>391.9</ele>
        <time>1970-01-01T01:14:19.000Z</time>
      </trkpt>
      <trkpt lat="41.327" lon="1.94606">
        <ele>391.9</ele>
        <time>1970-01-01T01:14:20.000Z</time>
      </trkpt>
      <trkpt lat="41.326947" lon="1.946137">
        <ele>391.9</ele>
        <time>1970-01-01T01:14:21.000Z</time>
      </trkpt>
      <trkpt lat="41.326947" lon="1.946137">
        <ele>391.9</ele>
        <time>1970-01-01T01:14:22.000Z</time>
      </trkpt>
      <trkpt lat="41.32688" lon="1.946187">
        <ele>391.9</ele>
        <time>1970-01-01T01:14:23.000Z</time>
      </trkpt>
      <trkpt lat="41.32688" lon="1.946187">
        <ele>391.9</ele>
        <time>1970-01-01T01:14:24.000Z</time>
      </trkpt>
      <trkpt lat="41.326813" lon="1.946248">
        <ele>391.9</ele>
        <time>1970-01-01T01:14:25.000Z</time>
      </trkpt>
      <trkpt lat="41.326785" lon="1.94629">
        <ele>391.9</ele>
        <time>1970-01-01T01:14:26.000Z</time>
      </trkpt>
      <trkpt lat="41.326785" lon="1.94629">
        <ele>391.9</ele>
        <time>1970-01-01T01:14:27.000Z</time>
      </trkpt>
      <trkpt lat="41.326743" lon="1.946387">
        <ele>391.9</ele>
        <time>1970-01-01T01:14:28.000Z</time>
      </trkpt>
      <trkpt lat="41.326743" lon="1.946387">
        <ele>391.9</ele>
        <time>1970-01-01T01:14:29.000Z</time>
      </trkpt>
      <trkpt lat="41.32674" lon="1.9465">
        <ele>391.9</ele>
        <time>1970-01-01T01:14:30.000Z</time>
      </trkpt>
      <trkpt lat="41.32674" lon="1.9465">
        <ele>391.9</ele>
        <time>1970-01-01T01:14:31.000Z</time>
      </trkpt>
      <trkpt lat="41.326777" lon="1.946597">
        <ele>391.9</ele>
        <time>1970-01-01T01:14:32.000Z</time>
      </trkpt>
      <trkpt lat="41.326807" lon="1.94663">
        <ele>391.9</ele>
        <time>1970-01-01T01:14:33.000Z</time>
      </trkpt>
      <trkpt lat="41.326807" lon="1.94663">
        <ele>391.9</ele>
        <time>1970-01-01T01:14:34.000Z</time>
      </trkpt>
      <trkpt lat="41.326875" lon="1.946668">
        <ele>391.9</ele>
        <time>1970-01-01T01:14:35.000Z</time>
      </trkpt>
      <trkpt lat="41.326875" lon="1.946668">
        <ele>391.9</ele>
        <time>1970-01-01T01:14:36.000Z</time>
      </trkpt>
      <trkpt lat="41.326953" lon="1.946668">
        <ele>391.9</ele>
        <time>1970-01-01T01:14:37.000Z</time>
      </trkpt>
      <trkpt lat="41.326953" lon="1.946668">
        <ele>391.9</ele>
        <time>1970-01-01T01:14:38.000Z</time>
      </trkpt>
      <trkpt lat="41.327035" lon="1.946647">
        <ele>391.9</ele>
        <time>1970-01-01T01:14:39.000Z</time>
      </trkpt>
      <trkpt lat="41.327035" lon="1.946647">
        <ele>393.9</ele>
        <time>1970-01-01T01:14:40.000Z</time>
      </trkpt>
      <trkpt lat="41.32713" lon="1.946625">
        <ele>393.9</ele>
        <time>1970-01-01T01:14:41.000Z</time>
      </trkpt>
      <trkpt lat="41.327177" lon="1.946627">
        <ele>393.9</ele>
        <time>1970-01-01T01:14:42.000Z</time>
      </trkpt>
      <trkpt lat="41.327222" lon="1.946635">
        <ele>393.9</ele>
        <time>1970-01-01T01:14:43.000Z</time>
      </trkpt>
      <trkpt lat="41.327262" lon="1.946648">
        <ele>393.9</ele>
        <time>1970-01-01T01:14:44.000Z</time>
      </trkpt>
      <trkpt lat="41.327262" lon="1.946648">
        <ele>393.9</ele>
        <time>1970-01-01T01:14:45.000Z</time>
      </trkpt>
      <trkpt lat="41.327333" lon="1.946668">
        <ele>393.9</ele>
        <time>1970-01-01T01:14:46.000Z</time>
      </trkpt>
      <trkpt lat="41.327333" lon="1.946668">
        <ele>393.9</ele>
        <time>1970-01-01T01:14:47.000Z</time>
      </trkpt>
      <trkpt lat="41.327407" lon="1.946683">
        <ele>393.9</ele>
        <time>1970-01-01T01:14:48.000Z</time>
      </trkpt>
      <trkpt lat="41.327445" lon="1.946688">
        <ele>393.9</ele>
        <time>1970-01-01T01:14:49.000Z</time>
      </trkpt>
      <trkpt lat="41.327445" lon="1.946688">
        <ele>393.9</ele>
        <time>1970-01-01T01:14:50.000Z</time>
      </trkpt>
      <trkpt lat="41.327522" lon="1.946693">
        <ele>393.9</ele>
        <time>1970-01-01T01:14:51.000Z</time>
      </trkpt>
      <trkpt lat="41.327522" lon="1.946693">
        <ele>393.9</ele>
        <time>1970-01-01T01:14:52.000Z</time>
      </trkpt>
      <trkpt lat="41.3276" lon="1.946703">
        <ele>393.9</ele>
        <time>1970-01-01T01:14:53.000Z</time>
      </trkpt>
      <trkpt lat="41.327638" lon="1.946705">
        <ele>393.9</ele>
        <time>1970-01-01T01:14:54.000Z</time>
      </trkpt>
      <trkpt lat="41.327638" lon="1.946705">
        <ele>393.9</ele>
        <time>1970-01-01T01:14:55.000Z</time>
      </trkpt>
      <trkpt lat="41.327713" lon="1.946713">
        <ele>393.9</ele>
        <time>1970-01-01T01:14:56.000Z</time>
      </trkpt>
      <trkpt lat="41.32775" lon="1.946715">
        <ele>393.9</ele>
        <time>1970-01-01T01:14:57.000Z</time>
      </trkpt>
      <trkpt lat="41.32775" lon="1.946715">
        <ele>393.9</ele>
        <time>1970-01-01T01:14:58.000Z</time>
      </trkpt>
      <trkpt lat="41.327828" lon="1.946713">
        <ele>393.9</ele>
        <time>1970-01-01T01:14:59.000Z</time>
      </trkpt>
      <trkpt lat="41.327867" lon="1.946712">
        <ele>393.9</ele>
        <time>1970-01-01T01:15:00.000Z</time>
      </trkpt>
      <trkpt lat="41.327867" lon="1.946712">
        <ele>393.9</ele>
        <time>1970-01-01T01:15:01.000Z</time>
      </trkpt>
      <trkpt lat="41.32795" lon="1.94671">
        <ele>393.9</ele>
        <time>1970-01-01T01:15:02.000Z</time>
      </trkpt>
      <trkpt lat="41.32799" lon="1.946707">
        <ele>393.9</ele>
        <time>1970-01-01T01:15:03.000Z</time>
      </trkpt>
      <trkpt lat="41.32799" lon="1.946707">
        <ele>393.9</ele>
        <time>1970-01-01T01:15:04.000Z</time>
      </trkpt>
      <trkpt lat="41.328057" lon="1.946697">
        <ele>393.9</ele>
        <time>1970-01-01T01:15:05.000Z</time>
      </trkpt>
      <trkpt lat="41.328057" lon="1.946697">
        <ele>395.9</ele>
        <time>1970-01-01T01:15:06.000Z</time>
      </trkpt>
      <trkpt lat="41.328128" lon="1.946682">
        <ele>395.9</ele>
        <time>1970-01-01T01:15:07.000Z</time>
      </trkpt>
      <trkpt lat="41.328128" lon="1.946682">
        <ele>395.9</ele>
        <time>1970-01-01T01:15:08.000Z</time>
      </trkpt>
      <trkpt lat="41.328195" lon="1.946673">
        <ele>395.9</ele>
        <time>1970-01-01T01:15:09.000Z</time>
      </trkpt>
      <trkpt lat="41.328195" lon="1.946673">
        <ele>395.9</ele>
        <time>1970-01-01T01:15:10.000Z</time>
      </trkpt>
      <trkpt lat="41.328263" lon="1.946658">
        <ele>395.9</ele>
        <time>1970-01-01T01:15:11.000Z</time>
      </trkpt>
      <trkpt lat="41.328298" lon="1.946652">
        <ele>395.9</ele>
        <time>1970-01-01T01:15:12.000Z</time>
      </trkpt>
      <trkpt lat="41.328298" lon="1.946652">
        <ele>395.9</ele>
        <time>1970-01-01T01:15:13.000Z</time>
      </trkpt>
      <trkpt lat="41.328367" lon="1.946642">
        <ele>395.9</ele>
        <time>1970-01-01T01:15:14.000Z</time>
      </trkpt>
      <trkpt lat="41.328367" lon="1.946642">
        <ele>395.9</ele>
        <time>1970-01-01T01:15:15.000Z</time>
      </trkpt>
      <trkpt lat="41.328438" lon="1.946622">
        <ele>395.9</ele>
        <time>1970-01-01T01:15:16.000Z</time>
      </trkpt>
      <trkpt lat="41.328438" lon="1.946622">
        <ele>395.9</ele>
        <time>1970-01-01T01:15:17.000Z</time>
      </trkpt>
      <trkpt lat="41.328513" lon="1.946602">
        <ele>395.9</ele>
        <time>1970-01-01T01:15:18.000Z</time>
      </trkpt>
      <trkpt lat="41.328513" lon="1.946602">
        <ele>395.9</ele>
        <time>1970-01-01T01:15:19.000Z</time>
      </trkpt>
      <trkpt lat="41.328583" lon="1.946585">
        <ele>395.9</ele>
        <time>1970-01-01T01:15:20.000Z</time>
      </trkpt>
      <trkpt lat="41.328618" lon="1.946573">
        <ele>395.9</ele>
        <time>1970-01-01T01:15:21.000Z</time>
      </trkpt>
      <trkpt lat="41.328618" lon="1.946573">
        <ele>395.9</ele>
        <time>1970-01-01T01:15:22.000Z</time>
      </trkpt>
      <trkpt lat="41.32869" lon="1.94655">
        <ele>395.9</ele>
        <time>1970-01-01T01:15:23.000Z</time>
      </trkpt>
      <trkpt lat="41.328725" lon="1.946542">
        <ele>395.9</ele>
        <time>1970-01-01T01:15:24.000Z</time>
      </trkpt>
      <trkpt lat="41.328725" lon="1.946542">
        <ele>395.9</ele>
        <time>1970-01-01T01:15:25.000Z</time>
      </trkpt>
      <trkpt lat="41.328792" lon="1.946525">
        <ele>395.9</ele>
        <time>1970-01-01T01:15:26.000Z</time>
      </trkpt>
      <trkpt lat="41.328825" lon="1.946518">
        <ele>395.9</ele>
        <time>1970-01-01T01:15:27.000Z</time>
      </trkpt>
      <trkpt lat="41.328825" lon="1.946518">
        <ele>395.9</ele>
        <time>1970-01-01T01:15:28.000Z</time>
      </trkpt>
      <trkpt lat="41.328883" lon="1.9465">
        <ele>395.9</ele>
        <time>1970-01-01T01:15:29.000Z</time>
      </trkpt>
      <trkpt lat="41.328912" lon="1.946487">
        <ele>395.9</ele>
        <time>1970-01-01T01:15:30.000Z</time>
      </trkpt>
      <trkpt lat="41.328943" lon="1.946473">
        <ele>396.9</ele>
        <time>1970-01-01T01:15:31.000Z</time>
      </trkpt>
      <trkpt lat="41.328943" lon="1.946473">
        <ele>396.9</ele>
        <time>1970-01-01T01:15:32.000Z</time>
      </trkpt>
      <trkpt lat="41.32901" lon="1.946435">
        <ele>396.9</ele>
        <time>1970-01-01T01:15:33.000Z</time>
      </trkpt>
      <trkpt lat="41.329048" lon="1.946417">
        <ele>396.9</ele>
        <time>1970-01-01T01:15:34.000Z</time>
      </trkpt>
      <trkpt lat="41.329048" lon="1.946417">
        <ele>396.9</ele>
        <time>1970-01-01T01:15:35.000Z</time>
      </trkpt>
      <trkpt lat="41.329127" lon="1.94637">
        <ele>396.9</ele>
        <time>1970-01-01T01:15:36.000Z</time>
      </trkpt>
      <trkpt lat="41.329127" lon="1.94637">
        <ele>396.9</ele>
        <time>1970-01-01T01:15:37.000Z</time>
      </trkpt>
      <trkpt lat="41.329198" lon="1.946323">
        <ele>396.9</ele>
        <time>1970-01-01T01:15:38.000Z</time>
      </trkpt>
      <trkpt lat="41.329198" lon="1.946323">
        <ele>396.9</ele>
        <time>1970-01-01T01:15:39.000Z</time>
      </trkpt>
      <trkpt lat="41.329267" lon="1.946285">
        <ele>396.9</ele>
        <time>1970-01-01T01:15:40.000Z</time>
      </trkpt>
      <trkpt lat="41.329267" lon="1.946285">
        <ele>396.9</ele>
        <time>1970-01-01T01:15:41.000Z</time>
      </trkpt>
      <trkpt lat="41.329333" lon="1.946247">
        <ele>396.9</ele>
        <time>1970-01-01T01:15:42.000Z</time>
      </trkpt>
      <trkpt lat="41.329333" lon="1.946247">
        <ele>396.9</ele>
        <time>1970-01-01T01:15:43.000Z</time>
      </trkpt>
      <trkpt lat="41.329398" lon="1.946207">
        <ele>396.9</ele>
        <time>1970-01-01T01:15:44.000Z</time>
      </trkpt>
      <trkpt lat="41.329428" lon="1.946188">
        <ele>396.9</ele>
        <time>1970-01-01T01:15:45.000Z</time>
      </trkpt>
      <trkpt lat="41.329428" lon="1.946188">
        <ele>396.9</ele>
        <time>1970-01-01T01:15:46.000Z</time>
      </trkpt>
      <trkpt lat="41.32949" lon="1.946148">
        <ele>396.9</ele>
        <time>1970-01-01T01:15:47.000Z</time>
      </trkpt>
      <trkpt lat="41.32952" lon="1.946127">
        <ele>396.9</ele>
        <time>1970-01-01T01:15:48.000Z</time>
      </trkpt>
      <trkpt lat="41.32952" lon="1.946127">
        <ele>396.9</ele>
        <time>1970-01-01T01:15:49.000Z</time>
      </trkpt>
      <trkpt lat="41.329582" lon="1.946088">
        <ele>396.9</ele>
        <time>1970-01-01T01:15:50.000Z</time>
      </trkpt>
      <trkpt lat="41.32961" lon="1.94607">
        <ele>396.9</ele>
        <time>1970-01-01T01:15:51.000Z</time>
      </trkpt>
      <trkpt lat="41.32961" lon="1.94607">
        <ele>396.9</ele>
        <time>1970-01-01T01:15:52.000Z</time>
      </trkpt>
      <trkpt lat="41.329667" lon="1.946037">
        <ele>396.9</ele>
        <time>1970-01-01T01:15:53.000Z</time>
      </trkpt>
      <trkpt lat="41.329693" lon="1.94602">
        <ele>396.9</ele>
        <time>1970-01-01T01:15:54.000Z</time>
      </trkpt>
      <trkpt lat="41.329693" lon="1.94602">
        <ele>396.9</ele>
        <time>1970-01-01T01:15:55.000Z</time>
      </trkpt>
      <trkpt lat="41.329747" lon="1.94599">
        <ele>396.9</ele>
        <time>1970-01-01T01:15:56.000Z</time>
      </trkpt>
      <trkpt lat="41.329772" lon="1.945978">
        <ele>396.9</ele>
        <time>1970-01-01T01:15:57.000Z</time>
      </trkpt>
      <trkpt lat="41.329772" lon="1.945978">
        <ele>396.9</ele>
        <time>1970-01-01T01:15:58.000Z</time>
      </trkpt>
      <trkpt lat="41.329822" lon="1.945948">
        <ele>396.9</ele>
        <time>1970-01-01T01:15:59.000Z</time>
      </trkpt>
      <trkpt lat="41.329848" lon="1.945927">
        <ele>396.9</ele>
        <time>1970-01-01T01:16:00.000Z</time>
      </trkpt>
      <trkpt lat="41.329848" lon="1.945927">
        <ele>396.9</ele>
        <time>1970-01-01T01:16:01.000Z</time>
      </trkpt>
      <trkpt lat="41.329903" lon="1.945883">
        <ele>396.9</ele>
        <time>1970-01-01T01:16:02.000Z</time>
      </trkpt>
      <trkpt lat="41.329935" lon="1.945863">
        <ele>396.9</ele>
        <time>1970-01-01T01:16:03.000Z</time>
      </trkpt>
      <trkpt lat="41.329935" lon="1.945863">
        <ele>396.9</ele>
        <time>1970-01-01T01:16:04.000Z</time>
      </trkpt>
      <trkpt lat="41.330002" lon="1.94582">
        <ele>396.9</ele>
        <time>1970-01-01T01:16:05.000Z</time>
      </trkpt>
      <trkpt lat="41.330002" lon="1.94582">
        <ele>396.9</ele>
        <time>1970-01-01T01:16:06.000Z</time>
      </trkpt>
      <trkpt lat="41.330062" lon="1.945787">
        <ele>396.9</ele>
        <time>1970-01-01T01:16:07.000Z</time>
      </trkpt>
      <trkpt lat="41.330062" lon="1.945787">
        <ele>396.9</ele>
        <time>1970-01-01T01:16:08.000Z</time>
      </trkpt>
      <trkpt lat="41.330112" lon="1.945755">
        <ele>396.9</ele>
        <time>1970-01-01T01:16:09.000Z</time>
      </trkpt>
      <trkpt lat="41.330112" lon="1.945755">
        <ele>396.9</ele>
        <time>1970-01-01T01:16:10.000Z</time>
      </trkpt>
      <trkpt lat="41.330163" lon="1.94573">
        <ele>396.9</ele>
        <time>1970-01-01T01:16:11.000Z</time>
      </trkpt>
      <trkpt lat="41.33019" lon="1.945713">
        <ele>396.9</ele>
        <time>1970-01-01T01:16:12.000Z</time>
      </trkpt>
      <trkpt lat="41.33019" lon="1.945713">
        <ele>396.9</ele>
        <time>1970-01-01T01:16:13.000Z</time>
      </trkpt>
      <trkpt lat="41.330245" lon="1.945678">
        <ele>396.9</ele>
        <time>1970-01-01T01:16:14.000Z</time>
      </trkpt>
      <trkpt lat="41.330245" lon="1.945678">
        <ele>396.9</ele>
        <time>1970-01-01T01:16:15.000Z</time>
      </trkpt>
      <trkpt lat="41.330297" lon="1.945647">
        <ele>396.9</ele>
        <time>1970-01-01T01:16:16.000Z</time>
      </trkpt>
      <trkpt lat="41.330297" lon="1.945647">
        <ele>396.9</ele>
        <time>1970-01-01T01:16:17.000Z</time>
      </trkpt>
      <trkpt lat="41.33036" lon="1.945613">
        <ele>396.9</ele>
        <time>1970-01-01T01:16:18.000Z</time>
      </trkpt>
      <trkpt lat="41.33036" lon="1.945613">
        <ele>395.9</ele>
        <time>1970-01-01T01:16:19.000Z</time>
      </trkpt>
      <trkpt lat="41.33043" lon="1.945567">
        <ele>395.9</ele>
        <time>1970-01-01T01:16:20.000Z</time>
      </trkpt>
      <trkpt lat="41.330463" lon="1.945545">
        <ele>395.9</ele>
        <time>1970-01-01T01:16:21.000Z</time>
      </trkpt>
      <trkpt lat="41.330463" lon="1.945545">
        <ele>395.9</ele>
        <time>1970-01-01T01:16:22.000Z</time>
      </trkpt>
      <trkpt lat="41.330547" lon="1.945493">
        <ele>395.9</ele>
        <time>1970-01-01T01:16:23.000Z</time>
      </trkpt>
      <trkpt lat="41.330592" lon="1.945465">
        <ele>395.9</ele>
        <time>1970-01-01T01:16:24.000Z</time>
      </trkpt>
      <trkpt lat="41.330592" lon="1.945465">
        <ele>394.9</ele>
        <time>1970-01-01T01:16:25.000Z</time>
      </trkpt>
      <trkpt lat="41.330693" lon="1.945398">
        <ele>394.9</ele>
        <time>1970-01-01T01:16:26.000Z</time>
      </trkpt>
      <trkpt lat="41.330693" lon="1.945398">
        <ele>393.9</ele>
        <time>1970-01-01T01:16:27.000Z</time>
      </trkpt>
      <trkpt lat="41.330813" lon="1.945327">
        <ele>393.9</ele>
        <time>1970-01-01T01:16:28.000Z</time>
      </trkpt>
      <trkpt lat="41.330813" lon="1.945327">
        <ele>393.9</ele>
        <time>1970-01-01T01:16:29.000Z</time>
      </trkpt>
      <trkpt lat="41.33093" lon="1.945248">
        <ele>393.9</ele>
        <time>1970-01-01T01:16:30.000Z</time>
      </trkpt>
      <trkpt lat="41.330988" lon="1.945213">
        <ele>392.9</ele>
        <time>1970-01-01T01:16:31.000Z</time>
      </trkpt>
      <trkpt lat="41.330988" lon="1.945213">
        <ele>392.9</ele>
        <time>1970-01-01T01:16:32.000Z</time>
      </trkpt>
      <trkpt lat="41.331107" lon="1.945137">
        <ele>392.9</ele>
        <time>1970-01-01T01:16:33.000Z</time>
      </trkpt>
      <trkpt lat="41.331107" lon="1.945137">
        <ele>392.9</ele>
        <time>1970-01-01T01:16:34.000Z</time>
      </trkpt>
      <trkpt lat="41.331205" lon="1.945015">
        <ele>392.9</ele>
        <time>1970-01-01T01:16:35.000Z</time>
      </trkpt>
      <trkpt lat="41.331205" lon="1.945015">
        <ele>392.9</ele>
        <time>1970-01-01T01:16:36.000Z</time>
      </trkpt>
      <trkpt lat="41.33127" lon="1.944863">
        <ele>392.9</ele>
        <time>1970-01-01T01:16:37.000Z</time>
      </trkpt>
      <trkpt lat="41.33127" lon="1.944863">
        <ele>392.9</ele>
        <time>1970-01-01T01:16:38.000Z</time>
      </trkpt>
      <trkpt lat="41.331332" lon="1.944737">
        <ele>391.9</ele>
        <time>1970-01-01T01:16:39.000Z</time>
      </trkpt>
      <trkpt lat="41.331332" lon="1.944737">
        <ele>391.9</ele>
        <time>1970-01-01T01:16:40.000Z</time>
      </trkpt>
      <trkpt lat="41.33138" lon="1.94462">
        <ele>391.9</ele>
        <time>1970-01-01T01:16:41.000Z</time>
      </trkpt>
      <trkpt lat="41.331402" lon="1.944568">
        <ele>391.9</ele>
        <time>1970-01-01T01:16:42.000Z</time>
      </trkpt>
      <trkpt lat="41.331402" lon="1.944568">
        <ele>391.9</ele>
        <time>1970-01-01T01:16:43.000Z</time>
      </trkpt>
      <trkpt lat="41.331422" lon="1.944433">
        <ele>391.9</ele>
        <time>1970-01-01T01:16:44.000Z</time>
      </trkpt>
      <trkpt lat="41.331422" lon="1.944433">
        <ele>391.9</ele>
        <time>1970-01-01T01:16:45.000Z</time>
      </trkpt>
      <trkpt lat="41.331408" lon="1.944287">
        <ele>391.9</ele>
        <time>1970-01-01T01:16:46.000Z</time>
      </trkpt>
      <trkpt lat="41.331393" lon="1.944215">
        <ele>391.9</ele>
        <time>1970-01-01T01:16:47.000Z</time>
      </trkpt>
      <trkpt lat="41.331393" lon="1.944215">
        <ele>391.9</ele>
        <time>1970-01-01T01:16:48.000Z</time>
      </trkpt>
      <trkpt lat="41.331348" lon="1.944083">
        <ele>390.9</ele>
        <time>1970-01-01T01:16:49.000Z</time>
      </trkpt>
      <trkpt lat="41.331348" lon="1.944083">
        <ele>390.9</ele>
        <time>1970-01-01T01:16:50.000Z</time>
      </trkpt>
      <trkpt lat="41.331298" lon="1.943942">
        <ele>390.9</ele>
        <time>1970-01-01T01:16:51.000Z</time>
      </trkpt>
      <trkpt lat="41.331298" lon="1.943942">
        <ele>390.9</ele>
        <time>1970-01-01T01:16:52.000Z</time>
      </trkpt>
      <trkpt lat="41.331313" lon="1.943778">
        <ele>390.9</ele>
        <time>1970-01-01T01:16:53.000Z</time>
      </trkpt>
      <trkpt lat="41.331353" lon="1.943705">
        <ele>389.9</ele>
        <time>1970-01-01T01:16:54.000Z</time>
      </trkpt>
      <trkpt lat="41.331353" lon="1.943705">
        <ele>389.9</ele>
        <time>1970-01-01T01:16:55.000Z</time>
      </trkpt>
      <trkpt lat="41.331443" lon="1.943587">
        <ele>389.9</ele>
        <time>1970-01-01T01:16:56.000Z</time>
      </trkpt>
      <trkpt lat="41.331487" lon="1.943535">
        <ele>389.9</ele>
        <time>1970-01-01T01:16:57.000Z</time>
      </trkpt>
      <trkpt lat="41.331487" lon="1.943535">
        <ele>389.9</ele>
        <time>1970-01-01T01:16:58.000Z</time>
      </trkpt>
      <trkpt lat="41.331568" lon="1.943435">
        <ele>389.9</ele>
        <time>1970-01-01T01:16:59.000Z</time>
      </trkpt>
      <trkpt lat="41.331607" lon="1.943388">
        <ele>389.9</ele>
        <time>1970-01-01T01:17:00.000Z</time>
      </trkpt>
      <trkpt lat="41.331607" lon="1.943388">
        <ele>389.9</ele>
        <time>1970-01-01T01:17:01.000Z</time>
      </trkpt>
      <trkpt lat="41.331697" lon="1.943313">
        <ele>389.9</ele>
        <time>1970-01-01T01:17:02.000Z</time>
      </trkpt>
      <trkpt lat="41.331743" lon="1.9433">
        <ele>389.9</ele>
        <time>1970-01-01T01:17:03.000Z</time>
      </trkpt>
      <trkpt lat="41.331743" lon="1.9433">
        <ele>389.9</ele>
        <time>1970-01-01T01:17:04.000Z</time>
      </trkpt>
      <trkpt lat="41.331828" lon="1.943325">
        <ele>389.9</ele>
        <time>1970-01-01T01:17:05.000Z</time>
      </trkpt>
      <trkpt lat="41.331828" lon="1.943325">
        <ele>389.9</ele>
        <time>1970-01-01T01:17:06.000Z</time>
      </trkpt>
      <trkpt lat="41.331893" lon="1.943395">
        <ele>389.9</ele>
        <time>1970-01-01T01:17:07.000Z</time>
      </trkpt>
      <trkpt lat="41.331893" lon="1.943395">
        <ele>388.9</ele>
        <time>1970-01-01T01:17:08.000Z</time>
      </trkpt>
      <trkpt lat="41.331968" lon="1.94346">
        <ele>388.9</ele>
        <time>1970-01-01T01:17:09.000Z</time>
      </trkpt>
      <trkpt lat="41.331968" lon="1.94346">
        <ele>388.9</ele>
        <time>1970-01-01T01:17:10.000Z</time>
      </trkpt>
      <trkpt lat="41.332045" lon="1.943487">
        <ele>388.9</ele>
        <time>1970-01-01T01:17:11.000Z</time>
      </trkpt>
      <trkpt lat="41.332045" lon="1.943487">
        <ele>387.9</ele>
        <time>1970-01-01T01:17:12.000Z</time>
      </trkpt>
      <trkpt lat="41.332102" lon="1.943468">
        <ele>387.9</ele>
        <time>1970-01-01T01:17:13.000Z</time>
      </trkpt>
      <trkpt lat="41.332128" lon="1.943457">
        <ele>387.9</ele>
        <time>1970-01-01T01:17:14.000Z</time>
      </trkpt>
      <trkpt lat="41.332128" lon="1.943457">
        <ele>387.9</ele>
        <time>1970-01-01T01:17:15.000Z</time>
      </trkpt>
      <trkpt lat="41.332185" lon="1.943455">
        <ele>387.9</ele>
        <time>1970-01-01T01:17:16.000Z</time>
      </trkpt>
      <trkpt lat="41.332213" lon="1.943465">
        <ele>387.9</ele>
        <time>1970-01-01T01:17:17.000Z</time>
      </trkpt>
      <trkpt lat="41.332213" lon="1.943465">
        <ele>388.9</ele>
        <time>1970-01-01T01:17:18.000Z</time>
      </trkpt>
      <trkpt lat="41.332268" lon="1.943487">
        <ele>388.9</ele>
        <time>1970-01-01T01:17:19.000Z</time>
      </trkpt>
      <trkpt lat="41.332297" lon="1.9435">
        <ele>388.9</ele>
        <time>1970-01-01T01:17:20.000Z</time>
      </trkpt>
      <trkpt lat="41.332327" lon="1.943518">
        <ele>388.9</ele>
        <time>1970-01-01T01:17:21.000Z</time>
      </trkpt>
      <trkpt lat="41.332327" lon="1.943518">
        <ele>388.9</ele>
        <time>1970-01-01T01:17:22.000Z</time>
      </trkpt>
      <trkpt lat="41.332388" lon="1.943545">
        <ele>388.9</ele>
        <time>1970-01-01T01:17:23.000Z</time>
      </trkpt>
      <trkpt lat="41.332388" lon="1.943545">
        <ele>388.9</ele>
        <time>1970-01-01T01:17:24.000Z</time>
      </trkpt>
      <trkpt lat="41.332447" lon="1.943587">
        <ele>388.9</ele>
        <time>1970-01-01T01:17:25.000Z</time>
      </trkpt>
      <trkpt lat="41.332447" lon="1.943587">
        <ele>388.9</ele>
        <time>1970-01-01T01:17:26.000Z</time>
      </trkpt>
      <trkpt lat="41.332508" lon="1.943647">
        <ele>388.9</ele>
        <time>1970-01-01T01:17:27.000Z</time>
      </trkpt>
      <trkpt lat="41.332508" lon="1.943647">
        <ele>388.9</ele>
        <time>1970-01-01T01:17:28.000Z</time>
      </trkpt>
      <trkpt lat="41.332565" lon="1.943747">
        <ele>388.9</ele>
        <time>1970-01-01T01:17:29.000Z</time>
      </trkpt>
      <trkpt lat="41.332565" lon="1.943747">
        <ele>387.9</ele>
        <time>1970-01-01T01:17:30.000Z</time>
      </trkpt>
      <trkpt lat="41.332615" lon="1.943885">
        <ele>387.9</ele>
        <time>1970-01-01T01:17:31.000Z</time>
      </trkpt>
      <trkpt lat="41.332615" lon="1.943885">
        <ele>386.9</ele>
        <time>1970-01-01T01:17:32.000Z</time>
      </trkpt>
      <trkpt lat="41.33269" lon="1.944057">
        <ele>386.9</ele>
        <time>1970-01-01T01:17:33.000Z</time>
      </trkpt>
      <trkpt lat="41.332747" lon="1.944138">
        <ele>385.9</ele>
        <time>1970-01-01T01:17:34.000Z</time>
      </trkpt>
      <trkpt lat="41.332747" lon="1.944138">
        <ele>383.9</ele>
        <time>1970-01-01T01:17:35.000Z</time>
      </trkpt>
      <trkpt lat="41.332883" lon="1.9443">
        <ele>383.9</ele>
        <time>1970-01-01T01:17:36.000Z</time>
      </trkpt>
      <trkpt lat="41.332883" lon="1.9443">
        <ele>382.9</ele>
        <time>1970-01-01T01:17:37.000Z</time>
      </trkpt>
      <trkpt lat="41.333032" lon="1.944487">
        <ele>382.9</ele>
        <time>1970-01-01T01:17:38.000Z</time>
      </trkpt>
      <trkpt lat="41.333032" lon="1.944487">
        <ele>380.9</ele>
        <time>1970-01-01T01:17:39.000Z</time>
      </trkpt>
      <trkpt lat="41.333195" lon="1.944707">
        <ele>380.9</ele>
        <time>1970-01-01T01:17:40.000Z</time>
      </trkpt>
      <trkpt lat="41.333273" lon="1.944832">
        <ele>377.9</ele>
        <time>1970-01-01T01:17:41.000Z</time>
      </trkpt>
      <trkpt lat="41.333273" lon="1.944832">
        <ele>377.9</ele>
        <time>1970-01-01T01:17:42.000Z</time>
      </trkpt>
      <trkpt lat="41.33343" lon="1.945097">
        <ele>375.9</ele>
        <time>1970-01-01T01:17:43.000Z</time>
      </trkpt>
      <trkpt lat="41.333525" lon="1.945218">
        <ele>375.9</ele>
        <time>1970-01-01T01:17:44.000Z</time>
      </trkpt>
      <trkpt lat="41.333525" lon="1.945218">
        <ele>372.9</ele>
        <time>1970-01-01T01:17:45.000Z</time>
      </trkpt>
      <trkpt lat="41.333743" lon="1.945417">
        <ele>372.9</ele>
        <time>1970-01-01T01:17:46.000Z</time>
      </trkpt>
      <trkpt lat="41.333867" lon="1.945488">
        <ele>369.9</ele>
        <time>1970-01-01T01:17:47.000Z</time>
      </trkpt>
      <trkpt lat="41.333867" lon="1.945488">
        <ele>369.9</ele>
        <time>1970-01-01T01:17:48.000Z</time>
      </trkpt>
      <trkpt lat="41.334112" lon="1.945588">
        <ele>365.9</ele>
        <time>1970-01-01T01:17:49.000Z</time>
      </trkpt>
      <trkpt lat="41.334112" lon="1.945588">
        <ele>365.9</ele>
        <time>1970-01-01T01:17:50.000Z</time>
      </trkpt>
      <trkpt lat="41.334335" lon="1.945617">
        <ele>361.9</ele>
        <time>1970-01-01T01:17:51.000Z</time>
      </trkpt>
      <trkpt lat="41.334335" lon="1.945617">
        <ele>361.9</ele>
        <time>1970-01-01T01:17:52.000Z</time>
      </trkpt>
      <trkpt lat="41.33457" lon="1.945605">
        <ele>358.9</ele>
        <time>1970-01-01T01:17:53.000Z</time>
      </trkpt>
      <trkpt lat="41.334702" lon="1.94559">
        <ele>358.9</ele>
        <time>1970-01-01T01:17:54.000Z</time>
      </trkpt>
      <trkpt lat="41.334702" lon="1.94559">
        <ele>354.9</ele>
        <time>1970-01-01T01:17:55.000Z</time>
      </trkpt>
      <trkpt lat="41.334978" lon="1.945607">
        <ele>354.9</ele>
        <time>1970-01-01T01:17:56.000Z</time>
      </trkpt>
      <trkpt lat="41.335125" lon="1.945603">
        <ele>350.9</ele>
        <time>1970-01-01T01:17:57.000Z</time>
      </trkpt>
      <trkpt lat="41.335125" lon="1.945603">
        <ele>350.9</ele>
        <time>1970-01-01T01:17:58.000Z</time>
      </trkpt>
      <trkpt lat="41.335418" lon="1.945602">
        <ele>347.9</ele>
        <time>1970-01-01T01:17:59.000Z</time>
      </trkpt>
      <trkpt lat="41.335418" lon="1.945602">
        <ele>347.9</ele>
        <time>1970-01-01T01:18:00.000Z</time>
      </trkpt>
      <trkpt lat="41.335692" lon="1.945673">
        <ele>343.9</ele>
        <time>1970-01-01T01:18:01.000Z</time>
      </trkpt>
      <trkpt lat="41.335692" lon="1.945673">
        <ele>343.9</ele>
        <time>1970-01-01T01:18:02.000Z</time>
      </trkpt>
      <trkpt lat="41.335958" lon="1.94571">
        <ele>340.9</ele>
        <time>1970-01-01T01:18:03.000Z</time>
      </trkpt>
      <trkpt lat="41.336097" lon="1.945688">
        <ele>340.9</ele>
        <time>1970-01-01T01:18:04.000Z</time>
      </trkpt>
      <trkpt lat="41.336097" lon="1.945688">
        <ele>337.9</ele>
        <time>1970-01-01T01:18:05.000Z</time>
      </trkpt>
      <trkpt lat="41.336332" lon="1.94567">
        <ele>337.9</ele>
        <time>1970-01-01T01:18:06.000Z</time>
      </trkpt>
      <trkpt lat="41.336332" lon="1.94567">
        <ele>334.9</ele>
        <time>1970-01-01T01:18:07.000Z</time>
      </trkpt>
      <trkpt lat="41.336487" lon="1.94569">
        <ele>334.9</ele>
        <time>1970-01-01T01:18:08.000Z</time>
      </trkpt>
      <trkpt lat="41.336487" lon="1.94569">
        <ele>332.9</ele>
        <time>1970-01-01T01:18:09.000Z</time>
      </trkpt>
      <trkpt lat="41.336567" lon="1.945733">
        <ele>332.9</ele>
        <time>1970-01-01T01:18:10.000Z</time>
      </trkpt>
      <trkpt lat="41.336587" lon="1.945762">
        <ele>331.9</ele>
        <time>1970-01-01T01:18:11.000Z</time>
      </trkpt>
      <trkpt lat="41.336587" lon="1.945762">
        <ele>331.9</ele>
        <time>1970-01-01T01:18:12.000Z</time>
      </trkpt>
      <trkpt lat="41.336576" lon="1.945806">
        <ele>330.9</ele>
        <time>1970-01-01T01:18:13.000Z</time>
      </trkpt>
      <trkpt lat="41.33655" lon="1.945806">
        <ele>330.9</ele>
        <time>1970-01-01T01:18:14.000Z</time>
      </trkpt>
      <trkpt lat="41.336525" lon="1.945807">
        <ele>330.9</ele>
        <time>1970-01-01T01:18:15.000Z</time>
      </trkpt>
      <trkpt lat="41.336499" lon="1.945808">
        <ele>330.9</ele>
        <time>1970-01-01T01:18:16.000Z</time>
      </trkpt>
      <trkpt lat="41.336473" lon="1.945808">
        <ele>330.9</ele>
        <time>1970-01-01T01:18:17.000Z</time>
      </trkpt>
      <trkpt lat="41.336447" lon="1.945809">
        <ele>329.9</ele>
        <time>1970-01-01T01:18:18.000Z</time>
      </trkpt>
      <trkpt lat="41.336421" lon="1.945809">
        <ele>329.9</ele>
        <time>1970-01-01T01:18:19.000Z</time>
      </trkpt>
      <trkpt lat="41.336395" lon="1.94581">
        <ele>329.9</ele>
        <time>1970-01-01T01:18:20.000Z</time>
      </trkpt>
      <trkpt lat="41.33637" lon="1.945811">
        <ele>329.9</ele>
        <time>1970-01-01T01:18:21.000Z</time>
      </trkpt>
      <trkpt lat="41.336344" lon="1.945811">
        <ele>327.9</ele>
        <time>1970-01-01T01:18:22.000Z</time>
      </trkpt>
      <trkpt lat="41.336318" lon="1.945812">
        <ele>327.9</ele>
        <time>1970-01-01T01:18:23.000Z</time>
      </trkpt>
      <trkpt lat="41.33622" lon="1.945865">
        <ele>326.9</ele>
        <time>1970-01-01T01:18:24.000Z</time>
      </trkpt>
      <trkpt lat="41.33622" lon="1.945865">
        <ele>326.9</ele>
        <time>1970-01-01T01:18:25.000Z</time>
      </trkpt>
      <trkpt lat="41.336153" lon="1.945937">
        <ele>324.9</ele>
        <time>1970-01-01T01:18:26.000Z</time>
      </trkpt>
      <trkpt lat="41.336153" lon="1.945937">
        <ele>324.9</ele>
        <time>1970-01-01T01:18:27.000Z</time>
      </trkpt>
      <trkpt lat="41.33607" lon="1.945967">
        <ele>324.9</ele>
        <time>1970-01-01T01:18:28.000Z</time>
      </trkpt>
      <trkpt lat="41.33607" lon="1.945967">
        <ele>324.9</ele>
        <time>1970-01-01T01:18:29.000Z</time>
      </trkpt>
      <trkpt lat="41.335963" lon="1.945978">
        <ele>323.9</ele>
        <time>1970-01-01T01:18:30.000Z</time>
      </trkpt>
      <trkpt lat="41.335903" lon="1.945993">
        <ele>323.9</ele>
        <time>1970-01-01T01:18:31.000Z</time>
      </trkpt>
      <trkpt lat="41.335903" lon="1.945993">
        <ele>322.9</ele>
        <time>1970-01-01T01:18:32.000Z</time>
      </trkpt>
      <trkpt lat="41.335777" lon="1.946057">
        <ele>322.9</ele>
        <time>1970-01-01T01:18:33.000Z</time>
      </trkpt>
      <trkpt lat="41.335777" lon="1.946057">
        <ele>322.9</ele>
        <time>1970-01-01T01:18:34.000Z</time>
      </trkpt>
      <trkpt lat="41.33565" lon="1.946162">
        <ele>322.9</ele>
        <time>1970-01-01T01:18:35.000Z</time>
      </trkpt>
      <trkpt lat="41.335588" lon="1.94621">
        <ele>319.9</ele>
        <time>1970-01-01T01:18:36.000Z</time>
      </trkpt>
      <trkpt lat="41.335588" lon="1.94621">
        <ele>319.9</ele>
        <time>1970-01-01T01:18:37.000Z</time>
      </trkpt>
      <trkpt lat="41.335442" lon="1.946278">
        <ele>318.9</ele>
        <time>1970-01-01T01:18:38.000Z</time>
      </trkpt>
      <trkpt lat="41.335442" lon="1.946278">
        <ele>318.9</ele>
        <time>1970-01-01T01:18:39.000Z</time>
      </trkpt>
      <trkpt lat="41.335312" lon="1.946352">
        <ele>315.9</ele>
        <time>1970-01-01T01:18:40.000Z</time>
      </trkpt>
      <trkpt lat="41.335257" lon="1.946363">
        <ele>315.9</ele>
        <time>1970-01-01T01:18:41.000Z</time>
      </trkpt>
      <trkpt lat="41.335257" lon="1.946363">
        <ele>314.9</ele>
        <time>1970-01-01T01:18:42.000Z</time>
      </trkpt>
      <trkpt lat="41.33517" lon="1.946437">
        <ele>314.9</ele>
        <time>1970-01-01T01:18:43.000Z</time>
      </trkpt>
      <trkpt lat="41.335148" lon="1.946497">
        <ele>313.9</ele>
        <time>1970-01-01T01:18:44.000Z</time>
      </trkpt>
      <trkpt lat="41.335148" lon="1.946497">
        <ele>313.9</ele>
        <time>1970-01-01T01:18:45.000Z</time>
      </trkpt>
      <trkpt lat="41.33514" lon="1.946613">
        <ele>312.9</ele>
        <time>1970-01-01T01:18:46.000Z</time>
      </trkpt>
      <trkpt lat="41.33514" lon="1.946613">
        <ele>312.9</ele>
        <time>1970-01-01T01:18:47.000Z</time>
      </trkpt>
      <trkpt lat="41.335155" lon="1.946737">
        <ele>310.9</ele>
        <time>1970-01-01T01:18:48.000Z</time>
      </trkpt>
      <trkpt lat="41.335165" lon="1.946787">
        <ele>310.9</ele>
        <time>1970-01-01T01:18:49.000Z</time>
      </trkpt>
      <trkpt lat="41.335165" lon="1.946787">
        <ele>308.9</ele>
        <time>1970-01-01T01:18:50.000Z</time>
      </trkpt>
      <trkpt lat="41.335185" lon="1.946893">
        <ele>308.9</ele>
        <time>1970-01-01T01:18:51.000Z</time>
      </trkpt>
      <trkpt lat="41.335185" lon="1.946893">
        <ele>307.9</ele>
        <time>1970-01-01T01:18:52.000Z</time>
      </trkpt>
      <trkpt lat="41.335208" lon="1.946997">
        <ele>307.9</ele>
        <time>1970-01-01T01:18:53.000Z</time>
      </trkpt>
      <trkpt lat="41.335208" lon="1.946997">
        <ele>305.9</ele>
        <time>1970-01-01T01:18:54.000Z</time>
      </trkpt>
      <trkpt lat="41.33523" lon="1.947078">
        <ele>305.9</ele>
        <time>1970-01-01T01:18:55.000Z</time>
      </trkpt>
      <trkpt lat="41.33523" lon="1.947078">
        <ele>304.9</ele>
        <time>1970-01-01T01:18:56.000Z</time>
      </trkpt>
      <trkpt lat="41.335258" lon="1.947143">
        <ele>302.9</ele>
        <time>1970-01-01T01:18:57.000Z</time>
      </trkpt>
      <trkpt lat="41.335258" lon="1.947143">
        <ele>302.9</ele>
        <time>1970-01-01T01:18:58.000Z</time>
      </trkpt>
      <trkpt lat="41.335272" lon="1.947193">
        <ele>301.9</ele>
        <time>1970-01-01T01:18:59.000Z</time>
      </trkpt>
      <trkpt lat="41.335282" lon="1.947218">
        <ele>301.9</ele>
        <time>1970-01-01T01:19:00.000Z</time>
      </trkpt>
      <trkpt lat="41.335282" lon="1.947218">
        <ele>299.9</ele>
        <time>1970-01-01T01:19:01.000Z</time>
      </trkpt>
      <trkpt lat="41.335287" lon="1.94727">
        <ele>299.9</ele>
        <time>1970-01-01T01:19:02.000Z</time>
      </trkpt>
      <trkpt lat="41.335287" lon="1.94727">
        <ele>298.9</ele>
        <time>1970-01-01T01:19:03.000Z</time>
      </trkpt>
      <trkpt lat="41.335303" lon="1.947337">
        <ele>298.9</ele>
        <time>1970-01-01T01:19:04.000Z</time>
      </trkpt>
      <trkpt lat="41.335303" lon="1.947337">
        <ele>297.9</ele>
        <time>1970-01-01T01:19:05.000Z</time>
      </trkpt>
      <trkpt lat="41.335318" lon="1.947423">
        <ele>297.9</ele>
        <time>1970-01-01T01:19:06.000Z</time>
      </trkpt>
      <trkpt lat="41.335318" lon="1.947423">
        <ele>295.9</ele>
        <time>1970-01-01T01:19:07.000Z</time>
      </trkpt>
      <trkpt lat="41.335318" lon="1.947528">
        <ele>295.9</ele>
        <time>1970-01-01T01:19:08.000Z</time>
      </trkpt>
      <trkpt lat="41.335322" lon="1.947588">
        <ele>294.9</ele>
        <time>1970-01-01T01:19:09.000Z</time>
      </trkpt>
      <trkpt lat="41.335322" lon="1.947588">
        <ele>294.9</ele>
        <time>1970-01-01T01:19:10.000Z</time>
      </trkpt>
      <trkpt lat="41.335332" lon="1.94768">
        <ele>292.9</ele>
        <time>1970-01-01T01:19:11.000Z</time>
      </trkpt>
      <trkpt lat="41.335328" lon="1.947715">
        <ele>292.9</ele>
        <time>1970-01-01T01:19:12.000Z</time>
      </trkpt>
      <trkpt lat="41.335328" lon="1.947715">
        <ele>291.9</ele>
        <time>1970-01-01T01:19:13.000Z</time>
      </trkpt>
      <trkpt lat="41.335305" lon="1.947855">
        <ele>291.9</ele>
        <time>1970-01-01T01:19:14.000Z</time>
      </trkpt>
      <trkpt lat="41.335293" lon="1.947912">
        <ele>291.9</ele>
        <time>1970-01-01T01:19:15.000Z</time>
      </trkpt>
      <trkpt lat="41.335293" lon="1.947912">
        <ele>290.9</ele>
        <time>1970-01-01T01:19:16.000Z</time>
      </trkpt>
      <trkpt lat="41.335257" lon="1.948043">
        <ele>290.9</ele>
        <time>1970-01-01T01:19:17.000Z</time>
      </trkpt>
      <trkpt lat="41.335232" lon="1.948105">
        <ele>289.9</ele>
        <time>1970-01-01T01:19:18.000Z</time>
      </trkpt>
      <trkpt lat="41.335232" lon="1.948105">
        <ele>289.9</ele>
        <time>1970-01-01T01:19:19.000Z</time>
      </trkpt>
      <trkpt lat="41.335212" lon="1.948227">
        <ele>287.9</ele>
        <time>1970-01-01T01:19:20.000Z</time>
      </trkpt>
      <trkpt lat="41.335218" lon="1.94828">
        <ele>287.9</ele>
        <time>1970-01-01T01:19:21.000Z</time>
      </trkpt>
      <trkpt lat="41.335218" lon="1.94828">
        <ele>286.9</ele>
        <time>1970-01-01T01:19:22.000Z</time>
      </trkpt>
      <trkpt lat="41.335247" lon="1.948403">
        <ele>286.9</ele>
        <time>1970-01-01T01:19:23.000Z</time>
      </trkpt>
      <trkpt lat="41.335247" lon="1.948403">
        <ele>284.9</ele>
        <time>1970-01-01T01:19:24.000Z</time>
      </trkpt>
      <trkpt lat="41.335245" lon="1.948543">
        <ele>284.9</ele>
        <time>1970-01-01T01:19:25.000Z</time>
      </trkpt>
      <trkpt lat="41.335245" lon="1.948543">
        <ele>283.9</ele>
        <time>1970-01-01T01:19:26.000Z</time>
      </trkpt>
      <trkpt lat="41.335208" lon="1.948683">
        <ele>283.9</ele>
        <time>1970-01-01T01:19:27.000Z</time>
      </trkpt>
      <trkpt lat="41.335208" lon="1.948683">
        <ele>281.9</ele>
        <time>1970-01-01T01:19:28.000Z</time>
      </trkpt>
      <trkpt lat="41.335177" lon="1.948808">
        <ele>281.9</ele>
        <time>1970-01-01T01:19:29.000Z</time>
      </trkpt>
      <trkpt lat="41.33515" lon="1.948855">
        <ele>279.9</ele>
        <time>1970-01-01T01:19:30.000Z</time>
      </trkpt>
      <trkpt lat="41.33515" lon="1.948855">
        <ele>279.9</ele>
        <time>1970-01-01T01:19:31.000Z</time>
      </trkpt>
      <trkpt lat="41.335092" lon="1.948935">
        <ele>277.9</ele>
        <time>1970-01-01T01:19:32.000Z</time>
      </trkpt>
      <trkpt lat="41.33506" lon="1.948973">
        <ele>277.9</ele>
        <time>1970-01-01T01:19:33.000Z</time>
      </trkpt>
      <trkpt lat="41.33506" lon="1.948973">
        <ele>275.9</ele>
        <time>1970-01-01T01:19:34.000Z</time>
      </trkpt>
      <trkpt lat="41.335007" lon="1.949047">
        <ele>275.9</ele>
        <time>1970-01-01T01:19:35.000Z</time>
      </trkpt>
      <trkpt lat="41.335007" lon="1.949047">
        <ele>274.9</ele>
        <time>1970-01-01T01:19:36.000Z</time>
      </trkpt>
      <trkpt lat="41.334957" lon="1.949122">
        <ele>274.9</ele>
        <time>1970-01-01T01:19:37.000Z</time>
      </trkpt>
      <trkpt lat="41.334923" lon="1.949162">
        <ele>272.9</ele>
        <time>1970-01-01T01:19:38.000Z</time>
      </trkpt>
      <trkpt lat="41.334892" lon="1.9492">
        <ele>270.9</ele>
        <time>1970-01-01T01:19:39.000Z</time>
      </trkpt>
      <trkpt lat="41.334892" lon="1.9492">
        <ele>270.9</ele>
        <time>1970-01-01T01:19:40.000Z</time>
      </trkpt>
      <trkpt lat="41.334813" lon="1.949272">
        <ele>268.9</ele>
        <time>1970-01-01T01:19:41.000Z</time>
      </trkpt>
      <trkpt lat="41.33478" lon="1.94931">
        <ele>268.9</ele>
        <time>1970-01-01T01:19:42.000Z</time>
      </trkpt>
      <trkpt lat="41.33478" lon="1.94931">
        <ele>267.9</ele>
        <time>1970-01-01T01:19:43.000Z</time>
      </trkpt>
      <trkpt lat="41.334725" lon="1.949403">
        <ele>267.9</ele>
        <time>1970-01-01T01:19:44.000Z</time>
      </trkpt>
      <trkpt lat="41.334725" lon="1.949403">
        <ele>266.9</ele>
        <time>1970-01-01T01:19:45.000Z</time>
      </trkpt>
      <trkpt lat="41.334682" lon="1.949485">
        <ele>266.9</ele>
        <time>1970-01-01T01:19:46.000Z</time>
      </trkpt>
      <trkpt lat="41.334682" lon="1.949485">
        <ele>264.9</ele>
        <time>1970-01-01T01:19:47.000Z</time>
      </trkpt>
      <trkpt lat="41.33468" lon="1.949602">
        <ele>264.9</ele>
        <time>1970-01-01T01:19:48.000Z</time>
      </trkpt>
      <trkpt lat="41.33468" lon="1.949602">
        <ele>262.9</ele>
        <time>1970-01-01T01:19:49.000Z</time>
      </trkpt>
      <trkpt lat="41.334678" lon="1.94971">
        <ele>262.9</ele>
        <time>1970-01-01T01:19:50.000Z</time>
      </trkpt>
      <trkpt lat="41.334678" lon="1.94971">
        <ele>261.9</ele>
        <time>1970-01-01T01:19:51.000Z</time>
      </trkpt>
      <trkpt lat="41.334637" lon="1.949783">
        <ele>261.9</ele>
        <time>1970-01-01T01:19:52.000Z</time>
      </trkpt>
      <trkpt lat="41.334637" lon="1.949783">
        <ele>260.9</ele>
        <time>1970-01-01T01:19:53.000Z</time>
      </trkpt>
      <trkpt lat="41.334592" lon="1.949832">
        <ele>260.9</ele>
        <time>1970-01-01T01:19:54.000Z</time>
      </trkpt>
      <trkpt lat="41.334592" lon="1.949832">
        <ele>260.9</ele>
        <time>1970-01-01T01:19:55.000Z</time>
      </trkpt>
      <trkpt lat="41.334543" lon="1.94987">
        <ele>260.9</ele>
        <time>1970-01-01T01:19:56.000Z</time>
      </trkpt>
      <trkpt lat="41.334522" lon="1.949907">
        <ele>258.9</ele>
        <time>1970-01-01T01:19:57.000Z</time>
      </trkpt>
      <trkpt lat="41.334522" lon="1.949907">
        <ele>258.9</ele>
        <time>1970-01-01T01:19:58.000Z</time>
      </trkpt>
      <trkpt lat="41.334498" lon="1.950003">
        <ele>257.9</ele>
        <time>1970-01-01T01:19:59.000Z</time>
      </trkpt>
      <trkpt lat="41.334498" lon="1.950003">
        <ele>257.9</ele>
        <time>1970-01-01T01:20:00.000Z</time>
      </trkpt>
      <trkpt lat="41.334498" lon="1.95013">
        <ele>255.9</ele>
        <time>1970-01-01T01:20:01.000Z</time>
      </trkpt>
      <trkpt lat="41.334518" lon="1.950198">
        <ele>255.9</ele>
        <time>1970-01-01T01:20:02.000Z</time>
      </trkpt>
      <trkpt lat="41.334557" lon="1.950252">
        <ele>254.9</ele>
        <time>1970-01-01T01:20:03.000Z</time>
      </trkpt>
      <trkpt lat="41.334557" lon="1.950252">
        <ele>254.9</ele>
        <time>1970-01-01T01:20:04.000Z</time>
      </trkpt>
      <trkpt lat="41.334635" lon="1.950343">
        <ele>252.9</ele>
        <time>1970-01-01T01:20:05.000Z</time>
      </trkpt>
      <trkpt lat="41.334635" lon="1.950343">
        <ele>252.9</ele>
        <time>1970-01-01T01:20:06.000Z</time>
      </trkpt>
      <trkpt lat="41.334712" lon="1.950372">
        <ele>252.9</ele>
        <time>1970-01-01T01:20:07.000Z</time>
      </trkpt>
      <trkpt lat="41.334712" lon="1.950372">
        <ele>252.9</ele>
        <time>1970-01-01T01:20:08.000Z</time>
      </trkpt>
      <trkpt lat="41.334783" lon="1.95038">
        <ele>252.9</ele>
        <time>1970-01-01T01:20:09.000Z</time>
      </trkpt>
      <trkpt lat="41.334783" lon="1.95038">
        <ele>252.9</ele>
        <time>1970-01-01T01:20:10.000Z</time>
      </trkpt>
      <trkpt lat="41.334865" lon="1.950397">
        <ele>252.9</ele>
        <time>1970-01-01T01:20:11.000Z</time>
      </trkpt>
      <trkpt lat="41.334865" lon="1.950397">
        <ele>252.9</ele>
        <time>1970-01-01T01:20:12.000Z</time>
      </trkpt>
      <trkpt lat="41.334947" lon="1.95048">
        <ele>252.9</ele>
        <time>1970-01-01T01:20:13.000Z</time>
      </trkpt>
      <trkpt lat="41.334947" lon="1.95048">
        <ele>252.9</ele>
        <time>1970-01-01T01:20:14.000Z</time>
      </trkpt>
      <trkpt lat="41.334968" lon="1.950625">
        <ele>251.9</ele>
        <time>1970-01-01T01:20:15.000Z</time>
      </trkpt>
      <trkpt lat="41.334968" lon="1.950625">
        <ele>251.9</ele>
        <time>1970-01-01T01:20:16.000Z</time>
      </trkpt>
      <trkpt lat="41.334932" lon="1.95069">
        <ele>251.9</ele>
        <time>1970-01-01T01:20:17.000Z</time>
      </trkpt>
      <trkpt lat="41.334913" lon="1.950697">
        <ele>251.9</ele>
        <time>1970-01-01T01:20:18.000Z</time>
      </trkpt>
      <trkpt lat="41.334913" lon="1.950697">
        <ele>251.9</ele>
        <time>1970-01-01T01:20:19.000Z</time>
      </trkpt>
      <trkpt lat="41.334882" lon="1.950725">
        <ele>250.9</ele>
        <time>1970-01-01T01:20:20.000Z</time>
      </trkpt>
      <trkpt lat="41.334868" lon="1.950743">
        <ele>250.9</ele>
        <time>1970-01-01T01:20:21.000Z</time>
      </trkpt>
      <trkpt lat="41.334855" lon="1.95077">
        <ele>250.9</ele>
        <time>1970-01-01T01:20:22.000Z</time>
      </trkpt>
      <trkpt lat="41.334855" lon="1.95077">
        <ele>250.9</ele>
        <time>1970-01-01T01:20:23.000Z</time>
      </trkpt>
      <trkpt lat="41.334822" lon="1.95083">
        <ele>250.9</ele>
        <time>1970-01-01T01:20:24.000Z</time>
      </trkpt>
      <trkpt lat="41.334822" lon="1.95083">
        <ele>250.9</ele>
        <time>1970-01-01T01:20:25.000Z</time>
      </trkpt>
      <trkpt lat="41.334785" lon="1.9509">
        <ele>250.9</ele>
        <time>1970-01-01T01:20:26.000Z</time>
      </trkpt>
      <trkpt lat="41.334765" lon="1.950933">
        <ele>250.9</ele>
        <time>1970-01-01T01:20:27.000Z</time>
      </trkpt>
      <trkpt lat="41.334743" lon="1.950962">
        <ele>250.9</ele>
        <time>1970-01-01T01:20:28.000Z</time>
      </trkpt>
      <trkpt lat="41.334743" lon="1.950962">
        <ele>250.9</ele>
        <time>1970-01-01T01:20:29.000Z</time>
      </trkpt>
      <trkpt lat="41.334688" lon="1.951012">
        <ele>250.9</ele>
        <time>1970-01-01T01:20:30.000Z</time>
      </trkpt>
      <trkpt lat="41.334688" lon="1.951012">
        <ele>250.9</ele>
        <time>1970-01-01T01:20:31.000Z</time>
      </trkpt>
      <trkpt lat="41.334615" lon="1.95105">
        <ele>250.9</ele>
        <time>1970-01-01T01:20:32.000Z</time>
      </trkpt>
      <trkpt lat="41.334615" lon="1.95105">
        <ele>250.9</ele>
        <time>1970-01-01T01:20:33.000Z</time>
      </trkpt>
      <trkpt lat="41.334552" lon="1.95109">
        <ele>250.9</ele>
        <time>1970-01-01T01:20:34.000Z</time>
      </trkpt>
      <trkpt lat="41.334527" lon="1.951105">
        <ele>250.9</ele>
        <time>1970-01-01T01:20:35.000Z</time>
      </trkpt>
      <trkpt lat="41.334527" lon="1.951105">
        <ele>250.9</ele>
        <time>1970-01-01T01:20:36.000Z</time>
      </trkpt>
      <trkpt lat="41.334483" lon="1.951145">
        <ele>250.9</ele>
        <time>1970-01-01T01:20:37.000Z</time>
      </trkpt>
      <trkpt lat="41.334483" lon="1.951145">
        <ele>250.9</ele>
        <time>1970-01-01T01:20:38.000Z</time>
      </trkpt>
      <trkpt lat="41.334447" lon="1.95119">
        <ele>250.9</ele>
        <time>1970-01-01T01:20:39.000Z</time>
      </trkpt>
      <trkpt lat="41.334447" lon="1.95119">
        <ele>250.9</ele>
        <time>1970-01-01T01:20:40.000Z</time>
      </trkpt>
      <trkpt lat="41.334418" lon="1.951242">
        <ele>250.9</ele>
        <time>1970-01-01T01:20:41.000Z</time>
      </trkpt>
      <trkpt lat="41.334407" lon="1.951277">
        <ele>250.9</ele>
        <time>1970-01-01T01:20:42.000Z</time>
      </trkpt>
      <trkpt lat="41.334407" lon="1.951277">
        <ele>250.9</ele>
        <time>1970-01-01T01:20:43.000Z</time>
      </trkpt>
      <trkpt lat="41.334383" lon="1.951357">
        <ele>250.9</ele>
        <time>1970-01-01T01:20:44.000Z</time>
      </trkpt>
      <trkpt lat="41.334383" lon="1.951357">
        <ele>250.9</ele>
        <time>1970-01-01T01:20:45.000Z</time>
      </trkpt>
      <trkpt lat="41.334363" lon="1.951432">
        <ele>250.9</ele>
        <time>1970-01-01T01:20:46.000Z</time>
      </trkpt>
      <trkpt lat="41.334363" lon="1.951432">
        <ele>250.9</ele>
        <time>1970-01-01T01:20:47.000Z</time>
      </trkpt>
      <trkpt lat="41.334377" lon="1.951522">
        <ele>250.9</ele>
        <time>1970-01-01T01:20:48.000Z</time>
      </trkpt>
      <trkpt lat="41.334377" lon="1.951522">
        <ele>250.9</ele>
        <time>1970-01-01T01:20:49.000Z</time>
      </trkpt>
      <trkpt lat="41.334425" lon="1.95161">
        <ele>250.9</ele>
        <time>1970-01-01T01:20:50.000Z</time>
      </trkpt>
      <trkpt lat="41.334425" lon="1.95161">
        <ele>250.9</ele>
        <time>1970-01-01T01:20:51.000Z</time>
      </trkpt>
      <trkpt lat="41.334493" lon="1.951667">
        <ele>250.9</ele>
        <time>1970-01-01T01:20:52.000Z</time>
      </trkpt>
      <trkpt lat="41.33453" lon="1.951682">
        <ele>250.9</ele>
        <time>1970-01-01T01:20:53.000Z</time>
      </trkpt>
      <trkpt lat="41.33453" lon="1.951682">
        <ele>249.9</ele>
        <time>1970-01-01T01:20:54.000Z</time>
      </trkpt>
      <trkpt lat="41.334607" lon="1.951717">
        <ele>249.9</ele>
        <time>1970-01-01T01:20:55.000Z</time>
      </trkpt>
      <trkpt lat="41.334648" lon="1.951728">
        <ele>249.9</ele>
        <time>1970-01-01T01:20:56.000Z</time>
      </trkpt>
      <trkpt lat="41.334648" lon="1.951728">
        <ele>249.9</ele>
        <time>1970-01-01T01:20:57.000Z</time>
      </trkpt>
      <trkpt lat="41.334728" lon="1.951782">
        <ele>249.9</ele>
        <time>1970-01-01T01:20:58.000Z</time>
      </trkpt>
      <trkpt lat="41.334773" lon="1.951818">
        <ele>249.9</ele>
        <time>1970-01-01T01:20:59.000Z</time>
      </trkpt>
      <trkpt lat="41.334773" lon="1.951818">
        <ele>249.9</ele>
        <time>1970-01-01T01:21:00.000Z</time>
      </trkpt>
      <trkpt lat="41.334852" lon="1.951892">
        <ele>249.9</ele>
        <time>1970-01-01T01:21:01.000Z</time>
      </trkpt>
      <trkpt lat="41.334883" lon="1.951938">
        <ele>249.9</ele>
        <time>1970-01-01T01:21:02.000Z</time>
      </trkpt>
      <trkpt lat="41.33491" lon="1.951993">
        <ele>249.9</ele>
        <time>1970-01-01T01:21:03.000Z</time>
      </trkpt>
      <trkpt lat="41.334928" lon="1.952047">
        <ele>249.9</ele>
        <time>1970-01-01T01:21:04.000Z</time>
      </trkpt>
      <trkpt lat="41.334928" lon="1.952047">
        <ele>249.9</ele>
        <time>1970-01-01T01:21:05.000Z</time>
      </trkpt>
      <trkpt lat="41.334923" lon="1.952168">
        <ele>249.9</ele>
        <time>1970-01-01T01:21:06.000Z</time>
      </trkpt>
      <trkpt lat="41.334923" lon="1.952168">
        <ele>249.9</ele>
        <time>1970-01-01T01:21:07.000Z</time>
      </trkpt>
      <trkpt lat="41.334862" lon="1.95227">
        <ele>249.9</ele>
        <time>1970-01-01T01:21:08.000Z</time>
      </trkpt>
      <trkpt lat="41.334862" lon="1.95227">
        <ele>249.9</ele>
        <time>1970-01-01T01:21:09.000Z</time>
      </trkpt>
      <trkpt lat="41.334793" lon="1.952328">
        <ele>249.9</ele>
        <time>1970-01-01T01:21:10.000Z</time>
      </trkpt>
      <trkpt lat="41.334793" lon="1.952328">
        <ele>249.9</ele>
        <time>1970-01-01T01:21:11.000Z</time>
      </trkpt>
      <trkpt lat="41.334728" lon="1.952357">
        <ele>249.9</ele>
        <time>1970-01-01T01:21:12.000Z</time>
      </trkpt>
      <trkpt lat="41.334728" lon="1.952357">
        <ele>249.9</ele>
        <time>1970-01-01T01:21:13.000Z</time>
      </trkpt>
      <trkpt lat="41.334687" lon="1.952397">
        <ele>249.9</ele>
        <time>1970-01-01T01:21:14.000Z</time>
      </trkpt>
      <trkpt lat="41.334687" lon="1.952397">
        <ele>249.9</ele>
        <time>1970-01-01T01:21:15.000Z</time>
      </trkpt>
      <trkpt lat="41.334632" lon="1.952468">
        <ele>249.9</ele>
        <time>1970-01-01T01:21:16.000Z</time>
      </trkpt>
      <trkpt lat="41.334632" lon="1.952468">
        <ele>249.9</ele>
        <time>1970-01-01T01:21:17.000Z</time>
      </trkpt>
      <trkpt lat="41.334573" lon="1.95257">
        <ele>249.9</ele>
        <time>1970-01-01T01:21:18.000Z</time>
      </trkpt>
      <trkpt lat="41.334573" lon="1.95257">
        <ele>249.9</ele>
        <time>1970-01-01T01:21:19.000Z</time>
      </trkpt>
      <trkpt lat="41.33452" lon="1.952675">
        <ele>249.9</ele>
        <time>1970-01-01T01:21:20.000Z</time>
      </trkpt>
      <trkpt lat="41.33452" lon="1.952675">
        <ele>248.9</ele>
        <time>1970-01-01T01:21:21.000Z</time>
      </trkpt>
      <trkpt lat="41.33444" lon="1.95274">
        <ele>248.9</ele>
        <time>1970-01-01T01:21:22.000Z</time>
      </trkpt>
      <trkpt lat="41.334402" lon="1.952763">
        <ele>248.9</ele>
        <time>1970-01-01T01:21:23.000Z</time>
      </trkpt>
      <trkpt lat="41.334368" lon="1.95279">
        <ele>248.9</ele>
        <time>1970-01-01T01:21:24.000Z</time>
      </trkpt>
      <trkpt lat="41.334368" lon="1.95279">
        <ele>248.9</ele>
        <time>1970-01-01T01:21:25.000Z</time>
      </trkpt>
      <trkpt lat="41.334327" lon="1.952872">
        <ele>248.9</ele>
        <time>1970-01-01T01:21:26.000Z</time>
      </trkpt>
      <trkpt lat="41.334308" lon="1.952923">
        <ele>248.9</ele>
        <time>1970-01-01T01:21:27.000Z</time>
      </trkpt>
      <trkpt lat="41.334308" lon="1.952923">
        <ele>248.9</ele>
        <time>1970-01-01T01:21:28.000Z</time>
      </trkpt>
      <trkpt lat="41.334262" lon="1.953028">
        <ele>248.9</ele>
        <time>1970-01-01T01:21:29.000Z</time>
      </trkpt>
      <trkpt lat="41.334262" lon="1.953028">
        <ele>248.9</ele>
        <time>1970-01-01T01:21:30.000Z</time>
      </trkpt>
      <trkpt lat="41.334207" lon="1.953123">
        <ele>247.9</ele>
        <time>1970-01-01T01:21:31.000Z</time>
      </trkpt>
      <trkpt lat="41.334207" lon="1.953123">
        <ele>247.9</ele>
        <time>1970-01-01T01:21:32.000Z</time>
      </trkpt>
      <trkpt lat="41.33416" lon="1.953198">
        <ele>247.9</ele>
        <time>1970-01-01T01:21:33.000Z</time>
      </trkpt>
      <trkpt lat="41.334132" lon="1.953227">
        <ele>247.9</ele>
        <time>1970-01-01T01:21:34.000Z</time>
      </trkpt>
      <trkpt lat="41.334132" lon="1.953227">
        <ele>247.9</ele>
        <time>1970-01-01T01:21:35.000Z</time>
      </trkpt>
      <trkpt lat="41.33408" lon="1.9533">
        <ele>247.9</ele>
        <time>1970-01-01T01:21:36.000Z</time>
      </trkpt>
      <trkpt lat="41.334048" lon="1.953337">
        <ele>247.9</ele>
        <time>1970-01-01T01:21:37.000Z</time>
      </trkpt>
      <trkpt lat="41.334048" lon="1.953337">
        <ele>247.9</ele>
        <time>1970-01-01T01:21:38.000Z</time>
      </trkpt>
      <trkpt lat="41.333972" lon="1.953387">
        <ele>247.9</ele>
        <time>1970-01-01T01:21:39.000Z</time>
      </trkpt>
      <trkpt lat="41.333972" lon="1.953387">
        <ele>247.9</ele>
        <time>1970-01-01T01:21:40.000Z</time>
      </trkpt>
      <trkpt lat="41.3339" lon="1.953443">
        <ele>247.9</ele>
        <time>1970-01-01T01:21:41.000Z</time>
      </trkpt>
      <trkpt lat="41.33387" lon="1.953482">
        <ele>247.9</ele>
        <time>1970-01-01T01:21:42.000Z</time>
      </trkpt>
      <trkpt lat="41.33387" lon="1.953482">
        <ele>247.9</ele>
        <time>1970-01-01T01:21:43.000Z</time>
      </trkpt>
      <trkpt lat="41.333835" lon="1.953572">
        <ele>247.9</ele>
        <time>1970-01-01T01:21:44.000Z</time>
      </trkpt>
      <trkpt lat="41.333835" lon="1.953572">
        <ele>247.9</ele>
        <time>1970-01-01T01:21:45.000Z</time>
      </trkpt>
      <trkpt lat="41.33388" lon="1.953672">
        <ele>247.9</ele>
        <time>1970-01-01T01:21:46.000Z</time>
      </trkpt>
      <trkpt lat="41.33388" lon="1.953672">
        <ele>246.9</ele>
        <time>1970-01-01T01:21:47.000Z</time>
      </trkpt>
      <trkpt lat="41.333968" lon="1.953787">
        <ele>246.9</ele>
        <time>1970-01-01T01:21:48.000Z</time>
      </trkpt>
      <trkpt lat="41.333968" lon="1.953787">
        <ele>245.9</ele>
        <time>1970-01-01T01:21:49.000Z</time>
      </trkpt>
      <trkpt lat="41.334013" lon="1.95393">
        <ele>245.9</ele>
        <time>1970-01-01T01:21:50.000Z</time>
      </trkpt>
      <trkpt lat="41.334008" lon="1.954">
        <ele>244.9</ele>
        <time>1970-01-01T01:21:51.000Z</time>
      </trkpt>
      <trkpt lat="41.334008" lon="1.954">
        <ele>244.9</ele>
        <time>1970-01-01T01:21:52.000Z</time>
      </trkpt>
      <trkpt lat="41.334017" lon="1.954155">
        <ele>244.9</ele>
        <time>1970-01-01T01:21:53.000Z</time>
      </trkpt>
      <trkpt lat="41.334017" lon="1.954155">
        <ele>244.9</ele>
        <time>1970-01-01T01:21:54.000Z</time>
      </trkpt>
      <trkpt lat="41.334035" lon="1.954327">
        <ele>243.9</ele>
        <time>1970-01-01T01:21:55.000Z</time>
      </trkpt>
      <trkpt lat="41.334035" lon="1.954327">
        <ele>243.9</ele>
        <time>1970-01-01T01:21:56.000Z</time>
      </trkpt>
      <trkpt lat="41.333987" lon="1.954487">
        <ele>243.9</ele>
        <time>1970-01-01T01:21:57.000Z</time>
      </trkpt>
      <trkpt lat="41.333987" lon="1.954487">
        <ele>243.9</ele>
        <time>1970-01-01T01:21:58.000Z</time>
      </trkpt>
      <trkpt lat="41.333893" lon="1.954585">
        <ele>242.9</ele>
        <time>1970-01-01T01:21:59.000Z</time>
      </trkpt>
      <trkpt lat="41.333893" lon="1.954585">
        <ele>242.9</ele>
        <time>1970-01-01T01:22:00.000Z</time>
      </trkpt>
      <trkpt lat="41.333797" lon="1.954662">
        <ele>242.9</ele>
        <time>1970-01-01T01:22:01.000Z</time>
      </trkpt>
      <trkpt lat="41.333797" lon="1.954662">
        <ele>242.9</ele>
        <time>1970-01-01T01:22:02.000Z</time>
      </trkpt>
      <trkpt lat="41.333712" lon="1.95473">
        <ele>242.9</ele>
        <time>1970-01-01T01:22:03.000Z</time>
      </trkpt>
      <trkpt lat="41.333712" lon="1.95473">
        <ele>242.9</ele>
        <time>1970-01-01T01:22:04.000Z</time>
      </trkpt>
      <trkpt lat="41.33364" lon="1.954788">
        <ele>242.9</ele>
        <time>1970-01-01T01:22:05.000Z</time>
      </trkpt>
      <trkpt lat="41.333605" lon="1.954822">
        <ele>242.9</ele>
        <time>1970-01-01T01:22:06.000Z</time>
      </trkpt>
      <trkpt lat="41.333605" lon="1.954822">
        <ele>243.9</ele>
        <time>1970-01-01T01:22:07.000Z</time>
      </trkpt>
      <trkpt lat="41.333545" lon="1.954888">
        <ele>243.9</ele>
        <time>1970-01-01T01:22:08.000Z</time>
      </trkpt>
      <trkpt lat="41.333545" lon="1.954888">
        <ele>243.9</ele>
        <time>1970-01-01T01:22:09.000Z</time>
      </trkpt>
      <trkpt lat="41.333485" lon="1.954967">
        <ele>243.9</ele>
        <time>1970-01-01T01:22:10.000Z</time>
      </trkpt>
      <trkpt lat="41.333485" lon="1.954967">
        <ele>243.9</ele>
        <time>1970-01-01T01:22:11.000Z</time>
      </trkpt>
      <trkpt lat="41.333448" lon="1.955067">
        <ele>243.9</ele>
        <time>1970-01-01T01:22:12.000Z</time>
      </trkpt>
      <trkpt lat="41.333448" lon="1.955067">
        <ele>243.9</ele>
        <time>1970-01-01T01:22:13.000Z</time>
      </trkpt>
      <trkpt lat="41.333448" lon="1.955173">
        <ele>243.9</ele>
        <time>1970-01-01T01:22:14.000Z</time>
      </trkpt>
      <trkpt lat="41.333462" lon="1.955228">
        <ele>243.9</ele>
        <time>1970-01-01T01:22:15.000Z</time>
      </trkpt>
      <trkpt lat="41.333462" lon="1.955228">
        <ele>243.9</ele>
        <time>1970-01-01T01:22:16.000Z</time>
      </trkpt>
      <trkpt lat="41.333492" lon="1.955348">
        <ele>243.9</ele>
        <time>1970-01-01T01:22:17.000Z</time>
      </trkpt>
      <trkpt lat="41.333492" lon="1.955348">
        <ele>243.9</ele>
        <time>1970-01-01T01:22:18.000Z</time>
      </trkpt>
      <trkpt lat="41.33347" lon="1.955478">
        <ele>242.9</ele>
        <time>1970-01-01T01:22:19.000Z</time>
      </trkpt>
      <trkpt lat="41.33347" lon="1.955478">
        <ele>242.9</ele>
        <time>1970-01-01T01:22:20.000Z</time>
      </trkpt>
      <trkpt lat="41.33341" lon="1.955558">
        <ele>242.9</ele>
        <time>1970-01-01T01:22:21.000Z</time>
      </trkpt>
      <trkpt lat="41.33341" lon="1.955558">
        <ele>242.9</ele>
        <time>1970-01-01T01:22:22.000Z</time>
      </trkpt>
      <trkpt lat="41.33337" lon="1.955623">
        <ele>242.9</ele>
        <time>1970-01-01T01:22:23.000Z</time>
      </trkpt>
      <trkpt lat="41.333363" lon="1.955643">
        <ele>242.9</ele>
        <time>1970-01-01T01:22:24.000Z</time>
      </trkpt>
      <trkpt lat="41.333363" lon="1.955643">
        <ele>242.9</ele>
        <time>1970-01-01T01:22:25.000Z</time>
      </trkpt>
      <trkpt lat="41.33336" lon="1.955655">
        <ele>242.9</ele>
        <time>1970-01-01T01:22:26.000Z</time>
      </trkpt>
      <trkpt lat="41.33336" lon="1.955655">
        <ele>242.9</ele>
        <time>1970-01-01T01:22:27.000Z</time>
      </trkpt>
      <trkpt lat="41.33336" lon="1.955655">
        <ele>242.9</ele>
        <time>1970-01-01T01:22:28.000Z</time>
      </trkpt>
      <trkpt lat="41.333343" lon="1.955682">
        <ele>242.9</ele>
        <time>1970-01-01T01:22:29.000Z</time>
      </trkpt>
      <trkpt lat="41.333343" lon="1.955682">
        <ele>242.9</ele>
        <time>1970-01-01T01:22:30.000Z</time>
      </trkpt>
      <trkpt lat="41.333335" lon="1.955728">
        <ele>242.9</ele>
        <time>1970-01-01T01:22:31.000Z</time>
      </trkpt>
      <trkpt lat="41.333328" lon="1.95575">
        <ele>242.9</ele>
        <time>1970-01-01T01:22:32.000Z</time>
      </trkpt>
      <trkpt lat="41.333328" lon="1.95575">
        <ele>242.9</ele>
        <time>1970-01-01T01:22:33.000Z</time>
      </trkpt>
      <trkpt lat="41.333305" lon="1.955805">
        <ele>242.9</ele>
        <time>1970-01-01T01:22:34.000Z</time>
      </trkpt>
      <trkpt lat="41.333305" lon="1.955805">
        <ele>242.9</ele>
        <time>1970-01-01T01:22:35.000Z</time>
      </trkpt>
      <trkpt lat="41.333238" lon="1.955865">
        <ele>242.9</ele>
        <time>1970-01-01T01:22:36.000Z</time>
      </trkpt>
      <trkpt lat="41.333238" lon="1.955865">
        <ele>242.9</ele>
        <time>1970-01-01T01:22:37.000Z</time>
      </trkpt>
      <trkpt lat="41.333177" lon="1.955877">
        <ele>242.9</ele>
        <time>1970-01-01T01:22:38.000Z</time>
      </trkpt>
      <trkpt lat="41.333177" lon="1.955877">
        <ele>242.9</ele>
        <time>1970-01-01T01:22:39.000Z</time>
      </trkpt>
      <trkpt lat="41.333122" lon="1.955862">
        <ele>242.9</ele>
        <time>1970-01-01T01:22:40.000Z</time>
      </trkpt>
      <trkpt lat="41.333122" lon="1.955862">
        <ele>241.9</ele>
        <time>1970-01-01T01:22:41.000Z</time>
      </trkpt>
      <trkpt lat="41.333057" lon="1.955838">
        <ele>241.9</ele>
        <time>1970-01-01T01:22:42.000Z</time>
      </trkpt>
      <trkpt lat="41.333022" lon="1.955833">
        <ele>241.9</ele>
        <time>1970-01-01T01:22:43.000Z</time>
      </trkpt>
      <trkpt lat="41.333022" lon="1.955833">
        <ele>241.9</ele>
        <time>1970-01-01T01:22:44.000Z</time>
      </trkpt>
      <trkpt lat="41.332953" lon="1.955818">
        <ele>241.9</ele>
        <time>1970-01-01T01:22:45.000Z</time>
      </trkpt>
      <trkpt lat="41.332953" lon="1.955818">
        <ele>241.9</ele>
        <time>1970-01-01T01:22:46.000Z</time>
      </trkpt>
      <trkpt lat="41.332915" lon="1.955808">
        <ele>241.9</ele>
        <time>1970-01-01T01:22:47.000Z</time>
      </trkpt>
      <trkpt lat="41.332915" lon="1.955808">
        <ele>241.9</ele>
        <time>1970-01-01T01:22:48.000Z</time>
      </trkpt>
      <trkpt lat="41.332863" lon="1.955823">
        <ele>243.9</ele>
        <time>1970-01-01T01:22:49.000Z</time>
      </trkpt>
      <trkpt lat="41.332833" lon="1.955825">
        <ele>243.9</ele>
        <time>1970-01-01T01:22:50.000Z</time>
      </trkpt>
      <trkpt lat="41.332833" lon="1.955825">
        <ele>243.9</ele>
        <time>1970-01-01T01:22:51.000Z</time>
      </trkpt>
      <trkpt lat="41.332768" lon="1.955843">
        <ele>244.9</ele>
        <time>1970-01-01T01:22:52.000Z</time>
      </trkpt>
      <trkpt lat="41.332732" lon="1.95585">
        <ele>244.9</ele>
        <time>1970-01-01T01:22:53.000Z</time>
      </trkpt>
      <trkpt lat="41.33269" lon="1.955855">
        <ele>244.9</ele>
        <time>1970-01-01T01:22:54.000Z</time>
      </trkpt>
      <trkpt lat="41.33269" lon="1.955855">
        <ele>244.9</ele>
        <time>1970-01-01T01:22:55.000Z</time>
      </trkpt>
      <trkpt lat="41.332603" lon="1.955872">
        <ele>244.9</ele>
        <time>1970-01-01T01:22:56.000Z</time>
      </trkpt>
      <trkpt lat="41.332603" lon="1.955872">
        <ele>244.9</ele>
        <time>1970-01-01T01:22:57.000Z</time>
      </trkpt>
      <trkpt lat="41.332522" lon="1.955888">
        <ele>244.9</ele>
        <time>1970-01-01T01:22:58.000Z</time>
      </trkpt>
      <trkpt lat="41.332522" lon="1.955888">
        <ele>244.9</ele>
        <time>1970-01-01T01:22:59.000Z</time>
      </trkpt>
      <trkpt lat="41.332442" lon="1.955908">
        <ele>244.9</ele>
        <time>1970-01-01T01:23:00.000Z</time>
      </trkpt>
      <trkpt lat="41.332403" lon="1.955922">
        <ele>244.9</ele>
        <time>1970-01-01T01:23:01.000Z</time>
      </trkpt>
      <trkpt lat="41.332403" lon="1.955922">
        <ele>244.9</ele>
        <time>1970-01-01T01:23:02.000Z</time>
      </trkpt>
      <trkpt lat="41.332332" lon="1.955953">
        <ele>244.9</ele>
        <time>1970-01-01T01:23:03.000Z</time>
      </trkpt>
      <trkpt lat="41.332297" lon="1.955972">
        <ele>244.9</ele>
        <time>1970-01-01T01:23:04.000Z</time>
      </trkpt>
      <trkpt lat="41.332297" lon="1.955972">
        <ele>244.9</ele>
        <time>1970-01-01T01:23:05.000Z</time>
      </trkpt>
      <trkpt lat="41.332228" lon="1.95603">
        <ele>244.9</ele>
        <time>1970-01-01T01:23:06.000Z</time>
      </trkpt>
      <trkpt lat="41.332228" lon="1.95603">
        <ele>244.9</ele>
        <time>1970-01-01T01:23:07.000Z</time>
      </trkpt>
      <trkpt lat="41.332157" lon="1.956102">
        <ele>244.9</ele>
        <time>1970-01-01T01:23:08.000Z</time>
      </trkpt>
      <trkpt lat="41.332157" lon="1.956102">
        <ele>244.9</ele>
        <time>1970-01-01T01:23:09.000Z</time>
      </trkpt>
      <trkpt lat="41.33209" lon="1.956193">
        <ele>243.9</ele>
        <time>1970-01-01T01:23:10.000Z</time>
      </trkpt>
      <trkpt lat="41.33209" lon="1.956193">
        <ele>243.9</ele>
        <time>1970-01-01T01:23:11.000Z</time>
      </trkpt>
      <trkpt lat="41.332032" lon="1.956317">
        <ele>243.9</ele>
        <time>1970-01-01T01:23:12.000Z</time>
      </trkpt>
      <trkpt lat="41.332032" lon="1.956317">
        <ele>243.9</ele>
        <time>1970-01-01T01:23:13.000Z</time>
      </trkpt>
      <trkpt lat="41.331967" lon="1.95643">
        <ele>242.9</ele>
        <time>1970-01-01T01:23:14.000Z</time>
      </trkpt>
      <trkpt lat="41.331967" lon="1.95643">
        <ele>242.9</ele>
        <time>1970-01-01T01:23:15.000Z</time>
      </trkpt>
      <trkpt lat="41.33191" lon="1.95651">
        <ele>241.9</ele>
        <time>1970-01-01T01:23:16.000Z</time>
      </trkpt>
      <trkpt lat="41.33191" lon="1.95651">
        <ele>241.9</ele>
        <time>1970-01-01T01:23:17.000Z</time>
      </trkpt>
      <trkpt lat="41.331862" lon="1.956613">
        <ele>241.9</ele>
        <time>1970-01-01T01:23:18.000Z</time>
      </trkpt>
      <trkpt lat="41.331862" lon="1.956613">
        <ele>239.9</ele>
        <time>1970-01-01T01:23:19.000Z</time>
      </trkpt>
      <trkpt lat="41.33185" lon="1.95674">
        <ele>239.9</ele>
        <time>1970-01-01T01:23:20.000Z</time>
      </trkpt>
      <trkpt lat="41.33185" lon="1.95674">
        <ele>238.9</ele>
        <time>1970-01-01T01:23:21.000Z</time>
      </trkpt>
      <trkpt lat="41.33187" lon="1.956872">
        <ele>238.9</ele>
        <time>1970-01-01T01:23:22.000Z</time>
      </trkpt>
      <trkpt lat="41.331885" lon="1.956935">
        <ele>238.9</ele>
        <time>1970-01-01T01:23:23.000Z</time>
      </trkpt>
      <trkpt lat="41.331885" lon="1.956935">
        <ele>238.9</ele>
        <time>1970-01-01T01:23:24.000Z</time>
      </trkpt>
      <trkpt lat="41.331905" lon="1.95708">
        <ele>237.9</ele>
        <time>1970-01-01T01:23:25.000Z</time>
      </trkpt>
      <trkpt lat="41.331908" lon="1.95716">
        <ele>237.9</ele>
        <time>1970-01-01T01:23:26.000Z</time>
      </trkpt>
      <trkpt lat="41.331908" lon="1.95716">
        <ele>237.9</ele>
        <time>1970-01-01T01:23:27.000Z</time>
      </trkpt>
      <trkpt lat="41.3319" lon="1.957325">
        <ele>237.9</ele>
        <time>1970-01-01T01:23:28.000Z</time>
      </trkpt>
      <trkpt lat="41.3319" lon="1.957325">
        <ele>237.9</ele>
        <time>1970-01-01T01:23:29.000Z</time>
      </trkpt>
      <trkpt lat="41.331842" lon="1.957448">
        <ele>237.9</ele>
        <time>1970-01-01T01:23:30.000Z</time>
      </trkpt>
      <trkpt lat="41.331792" lon="1.957482">
        <ele>236.9</ele>
        <time>1970-01-01T01:23:31.000Z</time>
      </trkpt>
      <trkpt lat="41.331792" lon="1.957482">
        <ele>236.9</ele>
        <time>1970-01-01T01:23:32.000Z</time>
      </trkpt>
      <trkpt lat="41.33168" lon="1.957505">
        <ele>236.9</ele>
        <time>1970-01-01T01:23:33.000Z</time>
      </trkpt>
      <trkpt lat="41.331623" lon="1.957512">
        <ele>236.9</ele>
        <time>1970-01-01T01:23:34.000Z</time>
      </trkpt>
      <trkpt lat="41.331623" lon="1.957512">
        <ele>236.9</ele>
        <time>1970-01-01T01:23:35.000Z</time>
      </trkpt>
      <trkpt lat="41.33153" lon="1.957528">
        <ele>234.9</ele>
        <time>1970-01-01T01:23:36.000Z</time>
      </trkpt>
      <trkpt lat="41.33153" lon="1.957528">
        <ele>234.9</ele>
        <time>1970-01-01T01:23:37.000Z</time>
      </trkpt>
      <trkpt lat="41.331452" lon="1.957565">
        <ele>234.9</ele>
        <time>1970-01-01T01:23:38.000Z</time>
      </trkpt>
      <trkpt lat="41.331452" lon="1.957565">
        <ele>234.9</ele>
        <time>1970-01-01T01:23:39.000Z</time>
      </trkpt>
      <trkpt lat="41.331387" lon="1.957628">
        <ele>232.9</ele>
        <time>1970-01-01T01:23:40.000Z</time>
      </trkpt>
      <trkpt lat="41.331362" lon="1.957665">
        <ele>232.9</ele>
        <time>1970-01-01T01:23:41.000Z</time>
      </trkpt>
      <trkpt lat="41.331362" lon="1.957665">
        <ele>231.9</ele>
        <time>1970-01-01T01:23:42.000Z</time>
      </trkpt>
      <trkpt lat="41.331325" lon="1.957762">
        <ele>231.9</ele>
        <time>1970-01-01T01:23:43.000Z</time>
      </trkpt>
      <trkpt lat="41.331325" lon="1.957762">
        <ele>231.9</ele>
        <time>1970-01-01T01:23:44.000Z</time>
      </trkpt>
      <trkpt lat="41.33128" lon="1.957888">
        <ele>231.9</ele>
        <time>1970-01-01T01:23:45.000Z</time>
      </trkpt>
      <trkpt lat="41.33128" lon="1.957888">
        <ele>230.9</ele>
        <time>1970-01-01T01:23:46.000Z</time>
      </trkpt>
      <trkpt lat="41.331228" lon="1.958047">
        <ele>230.9</ele>
        <time>1970-01-01T01:23:47.000Z</time>
      </trkpt>
      <trkpt lat="41.331228" lon="1.958047">
        <ele>228.9</ele>
        <time>1970-01-01T01:23:48.000Z</time>
      </trkpt>
      <trkpt lat="41.331175" lon="1.95823">
        <ele>228.9</ele>
        <time>1970-01-01T01:23:49.000Z</time>
      </trkpt>
      <trkpt lat="41.331145" lon="1.958332">
        <ele>227.9</ele>
        <time>1970-01-01T01:23:50.000Z</time>
      </trkpt>
      <trkpt lat="41.331117" lon="1.958435">
        <ele>227.9</ele>
        <time>1970-01-01T01:23:51.000Z</time>
      </trkpt>
      <trkpt lat="41.331117" lon="1.958435">
        <ele>226.9</ele>
        <time>1970-01-01T01:23:52.000Z</time>
      </trkpt>
      <trkpt lat="41.33105" lon="1.958637">
        <ele>226.9</ele>
        <time>1970-01-01T01:23:53.000Z</time>
      </trkpt>
      <trkpt lat="41.33105" lon="1.958637">
        <ele>224.9</ele>
        <time>1970-01-01T01:23:54.000Z</time>
      </trkpt>
      <trkpt lat="41.331005" lon="1.958828">
        <ele>224.9</ele>
        <time>1970-01-01T01:23:55.000Z</time>
      </trkpt>
      <trkpt lat="41.330987" lon="1.958913">
        <ele>222.9</ele>
        <time>1970-01-01T01:23:56.000Z</time>
      </trkpt>
      <trkpt lat="41.330987" lon="1.958913">
        <ele>222.9</ele>
        <time>1970-01-01T01:23:57.000Z</time>
      </trkpt>
      <trkpt lat="41.330945" lon="1.959068">
        <ele>221.9</ele>
        <time>1970-01-01T01:23:58.000Z</time>
      </trkpt>
      <trkpt lat="41.330945" lon="1.959068">
        <ele>221.9</ele>
        <time>1970-01-01T01:23:59.000Z</time>
      </trkpt>
      <trkpt lat="41.330935" lon="1.959213">
        <ele>220.9</ele>
        <time>1970-01-01T01:24:00.000Z</time>
      </trkpt>
      <trkpt lat="41.330957" lon="1.95929">
        <ele>220.9</ele>
        <time>1970-01-01T01:24:01.000Z</time>
      </trkpt>
      <trkpt lat="41.330972" lon="1.959377">
        <ele>218.9</ele>
        <time>1970-01-01T01:24:02.000Z</time>
      </trkpt>
      <trkpt lat="41.330972" lon="1.959377">
        <ele>218.9</ele>
        <time>1970-01-01T01:24:03.000Z</time>
      </trkpt>
      <trkpt lat="41.331017" lon="1.959548">
        <ele>217.9</ele>
        <time>1970-01-01T01:24:04.000Z</time>
      </trkpt>
      <trkpt lat="41.331052" lon="1.95962">
        <ele>217.9</ele>
        <time>1970-01-01T01:24:05.000Z</time>
      </trkpt>
      <trkpt lat="41.331052" lon="1.95962">
        <ele>216.9</ele>
        <time>1970-01-01T01:24:06.000Z</time>
      </trkpt>
      <trkpt lat="41.331113" lon="1.959777">
        <ele>216.9</ele>
        <time>1970-01-01T01:24:07.000Z</time>
      </trkpt>
      <trkpt lat="41.331108" lon="1.959857">
        <ele>215.9</ele>
        <time>1970-01-01T01:24:08.000Z</time>
      </trkpt>
      <trkpt lat="41.331108" lon="1.959857">
        <ele>215.9</ele>
        <time>1970-01-01T01:24:09.000Z</time>
      </trkpt>
      <trkpt lat="41.331068" lon="1.959948">
        <ele>215.9</ele>
        <time>1970-01-01T01:24:10.000Z</time>
      </trkpt>
      <trkpt lat="41.331052" lon="1.959968">
        <ele>215.9</ele>
        <time>1970-01-01T01:24:11.000Z</time>
      </trkpt>
      <trkpt lat="41.331038" lon="1.959982">
        <ele>215.9</ele>
        <time>1970-01-01T01:24:12.000Z</time>
      </trkpt>
      <trkpt lat="41.331022" lon="1.95999">
        <ele>215.9</ele>
        <time>1970-01-01T01:24:13.000Z</time>
      </trkpt>
      <trkpt lat="41.331022" lon="1.95999">
        <ele>215.9</ele>
        <time>1970-01-01T01:24:14.000Z</time>
      </trkpt>
      <trkpt lat="41.33099" lon="1.96001">
        <ele>217.9</ele>
        <time>1970-01-01T01:24:15.000Z</time>
      </trkpt>
      <trkpt lat="41.33099" lon="1.96001">
        <ele>217.9</ele>
        <time>1970-01-01T01:24:16.000Z</time>
      </trkpt>
      <trkpt lat="41.33095" lon="1.96004">
        <ele>217.9</ele>
        <time>1970-01-01T01:24:17.000Z</time>
      </trkpt>
      <trkpt lat="41.330935" lon="1.96005">
        <ele>217.9</ele>
        <time>1970-01-01T01:24:18.000Z</time>
      </trkpt>
      <trkpt lat="41.330935" lon="1.96005">
        <ele>217.9</ele>
        <time>1970-01-01T01:24:19.000Z</time>
      </trkpt>
      <trkpt lat="41.330915" lon="1.960075">
        <ele>217.9</ele>
        <time>1970-01-01T01:24:20.000Z</time>
      </trkpt>
      <trkpt lat="41.330915" lon="1.960075">
        <ele>218.9</ele>
        <time>1970-01-01T01:24:21.000Z</time>
      </trkpt>
      <trkpt lat="41.330892" lon="1.960112">
        <ele>218.9</ele>
        <time>1970-01-01T01:24:22.000Z</time>
      </trkpt>
      <trkpt lat="41.330882" lon="1.960125">
        <ele>218.9</ele>
        <time>1970-01-01T01:24:23.000Z</time>
      </trkpt>
      <trkpt lat="41.330868" lon="1.960148">
        <ele>218.9</ele>
        <time>1970-01-01T01:24:24.000Z</time>
      </trkpt>
      <trkpt lat="41.330858" lon="1.960172">
        <ele>219.9</ele>
        <time>1970-01-01T01:24:25.000Z</time>
      </trkpt>
      <trkpt lat="41.330858" lon="1.960172">
        <ele>219.9</ele>
        <time>1970-01-01T01:24:26.000Z</time>
      </trkpt>
      <trkpt lat="41.330845" lon="1.960203">
        <ele>220.9</ele>
        <time>1970-01-01T01:24:27.000Z</time>
      </trkpt>
      <trkpt lat="41.330842" lon="1.96023">
        <ele>220.9</ele>
        <time>1970-01-01T01:24:28.000Z</time>
      </trkpt>
      <trkpt lat="41.330842" lon="1.96023">
        <ele>220.9</ele>
        <time>1970-01-01T01:24:29.000Z</time>
      </trkpt>
      <trkpt lat="41.330828" lon="1.960277">
        <ele>220.9</ele>
        <time>1970-01-01T01:24:30.000Z</time>
      </trkpt>
      <trkpt lat="41.330828" lon="1.960277">
        <ele>221.9</ele>
        <time>1970-01-01T01:24:31.000Z</time>
      </trkpt>
      <trkpt lat="41.330818" lon="1.96033">
        <ele>221.9</ele>
        <time>1970-01-01T01:24:32.000Z</time>
      </trkpt>
      <trkpt lat="41.330818" lon="1.96033">
        <ele>221.9</ele>
        <time>1970-01-01T01:24:33.000Z</time>
      </trkpt>
      <trkpt lat="41.330813" lon="1.960393">
        <ele>221.9</ele>
        <time>1970-01-01T01:24:34.000Z</time>
      </trkpt>
      <trkpt lat="41.330813" lon="1.960393">
        <ele>222.9</ele>
        <time>1970-01-01T01:24:35.000Z</time>
      </trkpt>
      <trkpt lat="41.330808" lon="1.960437">
        <ele>222.9</ele>
        <time>1970-01-01T01:24:36.000Z</time>
      </trkpt>
      <trkpt lat="41.330808" lon="1.960437">
        <ele>222.9</ele>
        <time>1970-01-01T01:24:37.000Z</time>
      </trkpt>
      <trkpt lat="41.330817" lon="1.960468">
        <ele>222.9</ele>
        <time>1970-01-01T01:24:38.000Z</time>
      </trkpt>
      <trkpt lat="41.330817" lon="1.960468">
        <ele>223.9</ele>
        <time>1970-01-01T01:24:39.000Z</time>
      </trkpt>
      <trkpt lat="41.330823" lon="1.96051">
        <ele>223.9</ele>
        <time>1970-01-01T01:24:40.000Z</time>
      </trkpt>
      <trkpt lat="41.330822" lon="1.96053">
        <ele>223.9</ele>
        <time>1970-01-01T01:24:41.000Z</time>
      </trkpt>
      <trkpt lat="41.330825" lon="1.960552">
        <ele>223.9</ele>
        <time>1970-01-01T01:24:42.000Z</time>
      </trkpt>
      <trkpt lat="41.330825" lon="1.960552">
        <ele>224.9</ele>
        <time>1970-01-01T01:24:43.000Z</time>
      </trkpt>
      <trkpt lat="41.330842" lon="1.960587">
        <ele>224.9</ele>
        <time>1970-01-01T01:24:44.000Z</time>
      </trkpt>
      <trkpt lat="41.330842" lon="1.960587">
        <ele>224.9</ele>
        <time>1970-01-01T01:24:45.000Z</time>
      </trkpt>
      <trkpt lat="41.330853" lon="1.960625">
        <ele>224.9</ele>
        <time>1970-01-01T01:24:46.000Z</time>
      </trkpt>
      <trkpt lat="41.330853" lon="1.960625">
        <ele>226.9</ele>
        <time>1970-01-01T01:24:47.000Z</time>
      </trkpt>
      <trkpt lat="41.330862" lon="1.960668">
        <ele>226.9</ele>
        <time>1970-01-01T01:24:48.000Z</time>
      </trkpt>
      <trkpt lat="41.330862" lon="1.960668">
        <ele>226.9</ele>
        <time>1970-01-01T01:24:49.000Z</time>
      </trkpt>
      <trkpt lat="41.330873" lon="1.960712">
        <ele>226.9</ele>
        <time>1970-01-01T01:24:50.000Z</time>
      </trkpt>
      <trkpt lat="41.330873" lon="1.960712">
        <ele>226.9</ele>
        <time>1970-01-01T01:24:51.000Z</time>
      </trkpt>
      <trkpt lat="41.330883" lon="1.960757">
        <ele>226.9</ele>
        <time>1970-01-01T01:24:52.000Z</time>
      </trkpt>
      <trkpt lat="41.330883" lon="1.960757">
        <ele>226.9</ele>
        <time>1970-01-01T01:24:53.000Z</time>
      </trkpt>
      <trkpt lat="41.330893" lon="1.960795">
        <ele>226.9</ele>
        <time>1970-01-01T01:24:54.000Z</time>
      </trkpt>
      <trkpt lat="41.330893" lon="1.960795">
        <ele>226.9</ele>
        <time>1970-01-01T01:24:55.000Z</time>
      </trkpt>
      <trkpt lat="41.330905" lon="1.960842">
        <ele>226.9</ele>
        <time>1970-01-01T01:24:56.000Z</time>
      </trkpt>
      <trkpt lat="41.33091" lon="1.960865">
        <ele>226.9</ele>
        <time>1970-01-01T01:24:57.000Z</time>
      </trkpt>
      <trkpt lat="41.33091" lon="1.960865">
        <ele>226.9</ele>
        <time>1970-01-01T01:24:58.000Z</time>
      </trkpt>
      <trkpt lat="41.330925" lon="1.960923">
        <ele>226.9</ele>
        <time>1970-01-01T01:24:59.000Z</time>
      </trkpt>
      <trkpt lat="41.330925" lon="1.960923">
        <ele>226.9</ele>
        <time>1970-01-01T01:25:00.000Z</time>
      </trkpt>
      <trkpt lat="41.330943" lon="1.960985">
        <ele>226.9</ele>
        <time>1970-01-01T01:25:01.000Z</time>
      </trkpt>
      <trkpt lat="41.330953" lon="1.961008">
        <ele>227.9</ele>
        <time>1970-01-01T01:25:02.000Z</time>
      </trkpt>
      <trkpt lat="41.330963" lon="1.961035">
        <ele>227.9</ele>
        <time>1970-01-01T01:25:03.000Z</time>
      </trkpt>
      <trkpt lat="41.330963" lon="1.961035">
        <ele>227.9</ele>
        <time>1970-01-01T01:25:04.000Z</time>
      </trkpt>
      <trkpt lat="41.330978" lon="1.961127">
        <ele>227.9</ele>
        <time>1970-01-01T01:25:05.000Z</time>
      </trkpt>
      <trkpt lat="41.330977" lon="1.961187">
        <ele>227.9</ele>
        <time>1970-01-01T01:25:06.000Z</time>
      </trkpt>
      <trkpt lat="41.330977" lon="1.961187">
        <ele>227.9</ele>
        <time>1970-01-01T01:25:07.000Z</time>
      </trkpt>
      <trkpt lat="41.330943" lon="1.961295">
        <ele>227.9</ele>
        <time>1970-01-01T01:25:08.000Z</time>
      </trkpt>
      <trkpt lat="41.330943" lon="1.961295">
        <ele>227.9</ele>
        <time>1970-01-01T01:25:09.000Z</time>
      </trkpt>
      <trkpt lat="41.330882" lon="1.961377">
        <ele>227.9</ele>
        <time>1970-01-01T01:25:10.000Z</time>
      </trkpt>
      <trkpt lat="41.330843" lon="1.961402">
        <ele>227.9</ele>
        <time>1970-01-01T01:25:11.000Z</time>
      </trkpt>
      <trkpt lat="41.330843" lon="1.961402">
        <ele>227.9</ele>
        <time>1970-01-01T01:25:12.000Z</time>
      </trkpt>
      <trkpt lat="41.330765" lon="1.961438">
        <ele>227.9</ele>
        <time>1970-01-01T01:25:13.000Z</time>
      </trkpt>
      <trkpt lat="41.330765" lon="1.961438">
        <ele>227.9</ele>
        <time>1970-01-01T01:25:14.000Z</time>
      </trkpt>
      <trkpt lat="41.330682" lon="1.961457">
        <ele>227.9</ele>
        <time>1970-01-01T01:25:15.000Z</time>
      </trkpt>
      <trkpt lat="41.330682" lon="1.961457">
        <ele>227.9</ele>
        <time>1970-01-01T01:25:16.000Z</time>
      </trkpt>
      <trkpt lat="41.33058" lon="1.961477">
        <ele>227.9</ele>
        <time>1970-01-01T01:25:17.000Z</time>
      </trkpt>
      <trkpt lat="41.330523" lon="1.961485">
        <ele>225.9</ele>
        <time>1970-01-01T01:25:18.000Z</time>
      </trkpt>
      <trkpt lat="41.330523" lon="1.961485">
        <ele>225.9</ele>
        <time>1970-01-01T01:25:19.000Z</time>
      </trkpt>
      <trkpt lat="41.33041" lon="1.961518">
        <ele>225.9</ele>
        <time>1970-01-01T01:25:20.000Z</time>
      </trkpt>
      <trkpt lat="41.33041" lon="1.961518">
        <ele>225.9</ele>
        <time>1970-01-01T01:25:21.000Z</time>
      </trkpt>
      <trkpt lat="41.33031" lon="1.96158">
        <ele>225.9</ele>
        <time>1970-01-01T01:25:22.000Z</time>
      </trkpt>
      <trkpt lat="41.33031" lon="1.96158">
        <ele>225.9</ele>
        <time>1970-01-01T01:25:23.000Z</time>
      </trkpt>
      <trkpt lat="41.330245" lon="1.961677">
        <ele>225.9</ele>
        <time>1970-01-01T01:25:24.000Z</time>
      </trkpt>
      <trkpt lat="41.33024" lon="1.961738">
        <ele>225.9</ele>
        <time>1970-01-01T01:25:25.000Z</time>
      </trkpt>
      <trkpt lat="41.330248" lon="1.961797">
        <ele>224.9</ele>
        <time>1970-01-01T01:25:26.000Z</time>
      </trkpt>
      <trkpt lat="41.330248" lon="1.961797">
        <ele>224.9</ele>
        <time>1970-01-01T01:25:27.000Z</time>
      </trkpt>
      <trkpt lat="41.330288" lon="1.961895">
        <ele>223.9</ele>
        <time>1970-01-01T01:25:28.000Z</time>
      </trkpt>
      <trkpt lat="41.330288" lon="1.961895">
        <ele>223.9</ele>
        <time>1970-01-01T01:25:29.000Z</time>
      </trkpt>
      <trkpt lat="41.33033" lon="1.961988">
        <ele>223.9</ele>
        <time>1970-01-01T01:25:30.000Z</time>
      </trkpt>
      <trkpt lat="41.33033" lon="1.961988">
        <ele>223.9</ele>
        <time>1970-01-01T01:25:31.000Z</time>
      </trkpt>
      <trkpt lat="41.330342" lon="1.96208">
        <ele>223.9</ele>
        <time>1970-01-01T01:25:32.000Z</time>
      </trkpt>
      <trkpt lat="41.330342" lon="1.96208">
        <ele>223.9</ele>
        <time>1970-01-01T01:25:33.000Z</time>
      </trkpt>
      <trkpt lat="41.33035" lon="1.962177">
        <ele>222.9</ele>
        <time>1970-01-01T01:25:34.000Z</time>
      </trkpt>
      <trkpt lat="41.330343" lon="1.962227">
        <ele>222.9</ele>
        <time>1970-01-01T01:25:35.000Z</time>
      </trkpt>
      <trkpt lat="41.330343" lon="1.962227">
        <ele>222.9</ele>
        <time>1970-01-01T01:25:36.000Z</time>
      </trkpt>
      <trkpt lat="41.33031" lon="1.962345">
        <ele>222.9</ele>
        <time>1970-01-01T01:25:37.000Z</time>
      </trkpt>
      <trkpt lat="41.33031" lon="1.962345">
        <ele>222.9</ele>
        <time>1970-01-01T01:25:38.000Z</time>
      </trkpt>
      <trkpt lat="41.330272" lon="1.96245">
        <ele>221.9</ele>
        <time>1970-01-01T01:25:39.000Z</time>
      </trkpt>
      <trkpt lat="41.330272" lon="1.96245">
        <ele>221.9</ele>
        <time>1970-01-01T01:25:40.000Z</time>
      </trkpt>
      <trkpt lat="41.330277" lon="1.962567">
        <ele>220.9</ele>
        <time>1970-01-01T01:25:41.000Z</time>
      </trkpt>
      <trkpt lat="41.330277" lon="1.962567">
        <ele>220.9</ele>
        <time>1970-01-01T01:25:42.000Z</time>
      </trkpt>
      <trkpt lat="41.330313" lon="1.96267">
        <ele>219.9</ele>
        <time>1970-01-01T01:25:43.000Z</time>
      </trkpt>
      <trkpt lat="41.330333" lon="1.962717">
        <ele>219.9</ele>
        <time>1970-01-01T01:25:44.000Z</time>
      </trkpt>
      <trkpt lat="41.330333" lon="1.962717">
        <ele>218.9</ele>
        <time>1970-01-01T01:25:45.000Z</time>
      </trkpt>
      <trkpt lat="41.33034" lon="1.962815">
        <ele>218.9</ele>
        <time>1970-01-01T01:25:46.000Z</time>
      </trkpt>
      <trkpt lat="41.330322" lon="1.962852">
        <ele>218.9</ele>
        <time>1970-01-01T01:25:47.000Z</time>
      </trkpt>
      <trkpt lat="41.330322" lon="1.962852">
        <ele>218.9</ele>
        <time>1970-01-01T01:25:48.000Z</time>
      </trkpt>
      <trkpt lat="41.330257" lon="1.962897">
        <ele>216.9</ele>
        <time>1970-01-01T01:25:49.000Z</time>
      </trkpt>
      <trkpt lat="41.330257" lon="1.962897">
        <ele>216.9</ele>
        <time>1970-01-01T01:25:50.000Z</time>
      </trkpt>
      <trkpt lat="41.330192" lon="1.962937">
        <ele>214.9</ele>
        <time>1970-01-01T01:25:51.000Z</time>
      </trkpt>
      <trkpt lat="41.33016" lon="1.962958">
        <ele>214.9</ele>
        <time>1970-01-01T01:25:52.000Z</time>
      </trkpt>
      <trkpt lat="41.330128" lon="1.962985">
        <ele>213.9</ele>
        <time>1970-01-01T01:25:53.000Z</time>
      </trkpt>
      <trkpt lat="41.330128" lon="1.962985">
        <ele>213.9</ele>
        <time>1970-01-01T01:25:54.000Z</time>
      </trkpt>
      <trkpt lat="41.330072" lon="1.963027">
        <ele>211.9</ele>
        <time>1970-01-01T01:25:55.000Z</time>
      </trkpt>
      <trkpt lat="41.330072" lon="1.963027">
        <ele>211.9</ele>
        <time>1970-01-01T01:25:56.000Z</time>
      </trkpt>
      <trkpt lat="41.330027" lon="1.963065">
        <ele>209.9</ele>
        <time>1970-01-01T01:25:57.000Z</time>
      </trkpt>
      <trkpt lat="41.330027" lon="1.963065">
        <ele>209.9</ele>
        <time>1970-01-01T01:25:58.000Z</time>
      </trkpt>
      <trkpt lat="41.329975" lon="1.96309">
        <ele>207.9</ele>
        <time>1970-01-01T01:25:59.000Z</time>
      </trkpt>
      <trkpt lat="41.329975" lon="1.96309">
        <ele>207.9</ele>
        <time>1970-01-01T01:26:00.000Z</time>
      </trkpt>
      <trkpt lat="41.329913" lon="1.96314">
        <ele>206.9</ele>
        <time>1970-01-01T01:26:01.000Z</time>
      </trkpt>
      <trkpt lat="41.329913" lon="1.96314">
        <ele>206.9</ele>
        <time>1970-01-01T01:26:02.000Z</time>
      </trkpt>
      <trkpt lat="41.329853" lon="1.963188">
        <ele>205.9</ele>
        <time>1970-01-01T01:26:03.000Z</time>
      </trkpt>
      <trkpt lat="41.329853" lon="1.963188">
        <ele>205.9</ele>
        <time>1970-01-01T01:26:04.000Z</time>
      </trkpt>
      <trkpt lat="41.32981" lon="1.963217">
        <ele>202.9</ele>
        <time>1970-01-01T01:26:05.000Z</time>
      </trkpt>
      <trkpt lat="41.32981" lon="1.963217">
        <ele>202.9</ele>
        <time>1970-01-01T01:26:06.000Z</time>
      </trkpt>
      <trkpt lat="41.32978" lon="1.96324">
        <ele>201.9</ele>
        <time>1970-01-01T01:26:07.000Z</time>
      </trkpt>
      <trkpt lat="41.32978" lon="1.96324">
        <ele>201.9</ele>
        <time>1970-01-01T01:26:08.000Z</time>
      </trkpt>
      <trkpt lat="41.329755" lon="1.96326">
        <ele>200.9</ele>
        <time>1970-01-01T01:26:09.000Z</time>
      </trkpt>
      <trkpt lat="41.329755" lon="1.96326">
        <ele>200.9</ele>
        <time>1970-01-01T01:26:10.000Z</time>
      </trkpt>
      <trkpt lat="41.329738" lon="1.963273">
        <ele>199.9</ele>
        <time>1970-01-01T01:26:11.000Z</time>
      </trkpt>
      <trkpt lat="41.329738" lon="1.963273">
        <ele>199.9</ele>
        <time>1970-01-01T01:26:12.000Z</time>
      </trkpt>
      <trkpt lat="41.329722" lon="1.963297">
        <ele>198.9</ele>
        <time>1970-01-01T01:26:13.000Z</time>
      </trkpt>
      <trkpt lat="41.329712" lon="1.963308">
        <ele>198.9</ele>
        <time>1970-01-01T01:26:14.000Z</time>
      </trkpt>
      <trkpt lat="41.329712" lon="1.963308">
        <ele>198.9</ele>
        <time>1970-01-01T01:26:15.000Z</time>
      </trkpt>
      <trkpt lat="41.329678" lon="1.963333">
        <ele>197.9</ele>
        <time>1970-01-01T01:26:16.000Z</time>
      </trkpt>
      <trkpt lat="41.329655" lon="1.963347">
        <ele>197.9</ele>
        <time>1970-01-01T01:26:17.000Z</time>
      </trkpt>
      <trkpt lat="41.329655" lon="1.963347">
        <ele>197.9</ele>
        <time>1970-01-01T01:26:18.000Z</time>
      </trkpt>
      <trkpt lat="41.329608" lon="1.96336">
        <ele>197.9</ele>
        <time>1970-01-01T01:26:19.000Z</time>
      </trkpt>
      <trkpt lat="41.329587" lon="1.96337">
        <ele>196.9</ele>
        <time>1970-01-01T01:26:20.000Z</time>
      </trkpt>
      <trkpt lat="41.329587" lon="1.96337">
        <ele>196.9</ele>
        <time>1970-01-01T01:26:21.000Z</time>
      </trkpt>
      <trkpt lat="41.329547" lon="1.9634">
        <ele>194.9</ele>
        <time>1970-01-01T01:26:22.000Z</time>
      </trkpt>
      <trkpt lat="41.329527" lon="1.963415">
        <ele>194.9</ele>
        <time>1970-01-01T01:26:23.000Z</time>
      </trkpt>
      <trkpt lat="41.329527" lon="1.963415">
        <ele>193.9</ele>
        <time>1970-01-01T01:26:24.000Z</time>
      </trkpt>
      <trkpt lat="41.329478" lon="1.963457">
        <ele>193.9</ele>
        <time>1970-01-01T01:26:25.000Z</time>
      </trkpt>
      <trkpt lat="41.329452" lon="1.96348">
        <ele>192.9</ele>
        <time>1970-01-01T01:26:26.000Z</time>
      </trkpt>
      <trkpt lat="41.329452" lon="1.96348">
        <ele>192.9</ele>
        <time>1970-01-01T01:26:27.000Z</time>
      </trkpt>
      <trkpt lat="41.329405" lon="1.963518">
        <ele>191.9</ele>
        <time>1970-01-01T01:26:28.000Z</time>
      </trkpt>
      <trkpt lat="41.329392" lon="1.963538">
        <ele>191.9</ele>
        <time>1970-01-01T01:26:29.000Z</time>
      </trkpt>
      <trkpt lat="41.329385" lon="1.963562">
        <ele>190.9</ele>
        <time>1970-01-01T01:26:30.000Z</time>
      </trkpt>
      <trkpt lat="41.329383" lon="1.963592">
        <ele>190.9</ele>
        <time>1970-01-01T01:26:31.000Z</time>
      </trkpt>
      <trkpt lat="41.329383" lon="1.963592">
        <ele>190.9</ele>
        <time>1970-01-01T01:26:32.000Z</time>
      </trkpt>
      <trkpt lat="41.329363" lon="1.963628">
        <ele>190.9</ele>
        <time>1970-01-01T01:26:33.000Z</time>
      </trkpt>
      <trkpt lat="41.329363" lon="1.963628">
        <ele>190.9</ele>
        <time>1970-01-01T01:26:34.000Z</time>
      </trkpt>
      <trkpt lat="41.329333" lon="1.963662">
        <ele>190.9</ele>
        <time>1970-01-01T01:26:35.000Z</time>
      </trkpt>
      <trkpt lat="41.329333" lon="1.963662">
        <ele>190.9</ele>
        <time>1970-01-01T01:26:36.000Z</time>
      </trkpt>
      <trkpt lat="41.329307" lon="1.963698">
        <ele>188.9</ele>
        <time>1970-01-01T01:26:37.000Z</time>
      </trkpt>
      <trkpt lat="41.329292" lon="1.963708">
        <ele>188.9</ele>
        <time>1970-01-01T01:26:38.000Z</time>
      </trkpt>
      <trkpt lat="41.329275" lon="1.963717">
        <ele>187.9</ele>
        <time>1970-01-01T01:26:39.000Z</time>
      </trkpt>
      <trkpt lat="41.329275" lon="1.963717">
        <ele>187.9</ele>
        <time>1970-01-01T01:26:40.000Z</time>
      </trkpt>
      <trkpt lat="41.329238" lon="1.963718">
        <ele>186.9</ele>
        <time>1970-01-01T01:26:41.000Z</time>
      </trkpt>
      <trkpt lat="41.329217" lon="1.96371">
        <ele>186.9</ele>
        <time>1970-01-01T01:26:42.000Z</time>
      </trkpt>
      <trkpt lat="41.329197" lon="1.963698">
        <ele>185.9</ele>
        <time>1970-01-01T01:26:43.000Z</time>
      </trkpt>
      <trkpt lat="41.329197" lon="1.963698">
        <ele>185.9</ele>
        <time>1970-01-01T01:26:44.000Z</time>
      </trkpt>
      <trkpt lat="41.329147" lon="1.963672">
        <ele>185.9</ele>
        <time>1970-01-01T01:26:45.000Z</time>
      </trkpt>
      <trkpt lat="41.329147" lon="1.963672">
        <ele>185.9</ele>
        <time>1970-01-01T01:26:46.000Z</time>
      </trkpt>
      <trkpt lat="41.3291" lon="1.963637">
        <ele>183.9</ele>
        <time>1970-01-01T01:26:47.000Z</time>
      </trkpt>
      <trkpt lat="41.3291" lon="1.963637">
        <ele>183.9</ele>
        <time>1970-01-01T01:26:48.000Z</time>
      </trkpt>
      <trkpt lat="41.32906" lon="1.963582">
        <ele>182.9</ele>
        <time>1970-01-01T01:26:49.000Z</time>
      </trkpt>
      <trkpt lat="41.32904" lon="1.963562">
        <ele>182.9</ele>
        <time>1970-01-01T01:26:50.000Z</time>
      </trkpt>
      <trkpt lat="41.32904" lon="1.963562">
        <ele>181.9</ele>
        <time>1970-01-01T01:26:51.000Z</time>
      </trkpt>
      <trkpt lat="41.329002" lon="1.963495">
        <ele>181.9</ele>
        <time>1970-01-01T01:26:52.000Z</time>
      </trkpt>
      <trkpt lat="41.329002" lon="1.963495">
        <ele>179.9</ele>
        <time>1970-01-01T01:26:53.000Z</time>
      </trkpt>
      <trkpt lat="41.329" lon="1.963412">
        <ele>179.9</ele>
        <time>1970-01-01T01:26:54.000Z</time>
      </trkpt>
      <trkpt lat="41.329008" lon="1.963372">
        <ele>179.9</ele>
        <time>1970-01-01T01:26:55.000Z</time>
      </trkpt>
      <trkpt lat="41.329008" lon="1.963372">
        <ele>178.9</ele>
        <time>1970-01-01T01:26:56.000Z</time>
      </trkpt>
      <trkpt lat="41.329047" lon="1.963292">
        <ele>177.9</ele>
        <time>1970-01-01T01:26:57.000Z</time>
      </trkpt>
      <trkpt lat="41.32908" lon="1.963253">
        <ele>177.9</ele>
        <time>1970-01-01T01:26:58.000Z</time>
      </trkpt>
      <trkpt lat="41.32908" lon="1.963253">
        <ele>176.9</ele>
        <time>1970-01-01T01:26:59.000Z</time>
      </trkpt>
      <trkpt lat="41.32915" lon="1.963177">
        <ele>176.9</ele>
        <time>1970-01-01T01:27:00.000Z</time>
      </trkpt>
      <trkpt lat="41.32915" lon="1.963177">
        <ele>175.9</ele>
        <time>1970-01-01T01:27:01.000Z</time>
      </trkpt>
      <trkpt lat="41.329175" lon="1.963085">
        <ele>175.9</ele>
        <time>1970-01-01T01:27:02.000Z</time>
      </trkpt>
      <trkpt lat="41.32916" lon="1.963033">
        <ele>174.9</ele>
        <time>1970-01-01T01:27:03.000Z</time>
      </trkpt>
      <trkpt lat="41.32916" lon="1.963033">
        <ele>174.9</ele>
        <time>1970-01-01T01:27:04.000Z</time>
      </trkpt>
      <trkpt lat="41.329077" lon="1.962935">
        <ele>172.9</ele>
        <time>1970-01-01T01:27:05.000Z</time>
      </trkpt>
      <trkpt lat="41.32903" lon="1.962917">
        <ele>172.9</ele>
        <time>1970-01-01T01:27:06.000Z</time>
      </trkpt>
      <trkpt lat="41.32903" lon="1.962917">
        <ele>170.9</ele>
        <time>1970-01-01T01:27:07.000Z</time>
      </trkpt>
      <trkpt lat="41.328963" lon="1.962963">
        <ele>170.9</ele>
        <time>1970-01-01T01:27:08.000Z</time>
      </trkpt>
      <trkpt lat="41.328963" lon="1.962963">
        <ele>169.9</ele>
        <time>1970-01-01T01:27:09.000Z</time>
      </trkpt>
      <trkpt lat="41.328925" lon="1.963042">
        <ele>169.9</ele>
        <time>1970-01-01T01:27:10.000Z</time>
      </trkpt>
      <trkpt lat="41.328918" lon="1.963073">
        <ele>168.9</ele>
        <time>1970-01-01T01:27:11.000Z</time>
      </trkpt>
      <trkpt lat="41.328923" lon="1.963088">
        <ele>168.9</ele>
        <time>1970-01-01T01:27:12.000Z</time>
      </trkpt>
      <trkpt lat="41.328923" lon="1.963088">
        <ele>168.9</ele>
        <time>1970-01-01T01:27:13.000Z</time>
      </trkpt>
      <trkpt lat="41.328925" lon="1.963102">
        <ele>168.9</ele>
        <time>1970-01-01T01:27:14.000Z</time>
      </trkpt>
      <trkpt lat="41.328925" lon="1.963102">
        <ele>167.9</ele>
        <time>1970-01-01T01:27:15.000Z</time>
      </trkpt>
      <trkpt lat="41.328917" lon="1.963117">
        <ele>167.9</ele>
        <time>1970-01-01T01:27:16.000Z</time>
      </trkpt>
      <trkpt lat="41.328915" lon="1.963115">
        <ele>167.9</ele>
        <time>1970-01-01T01:27:17.000Z</time>
      </trkpt>
      <trkpt lat="41.328915" lon="1.963115">
        <ele>167.9</ele>
        <time>1970-01-01T01:27:54.000Z</time>
      </trkpt>
      <trkpt lat="41.328855" lon="1.96308">
        <ele>167.9</ele>
        <time>1970-01-01T01:27:55.000Z</time>
      </trkpt>
      <trkpt lat="41.328855" lon="1.96308">
        <ele>167.9</ele>
        <time>1970-01-01T01:27:56.000Z</time>
      </trkpt>
      <trkpt lat="41.328827" lon="1.963122">
        <ele>167.9</ele>
        <time>1970-01-01T01:27:57.000Z</time>
      </trkpt>
      <trkpt lat="41.328813" lon="1.963153">
        <ele>167.9</ele>
        <time>1970-01-01T01:27:58.000Z</time>
      </trkpt>
      <trkpt lat="41.328813" lon="1.963153">
        <ele>167.9</ele>
        <time>1970-01-01T01:27:59.000Z</time>
      </trkpt>
      <trkpt lat="41.32879" lon="1.963218">
        <ele>167.9</ele>
        <time>1970-01-01T01:28:00.000Z</time>
      </trkpt>
      <trkpt lat="41.328777" lon="1.963255">
        <ele>167.9</ele>
        <time>1970-01-01T01:28:01.000Z</time>
      </trkpt>
      <trkpt lat="41.328777" lon="1.963255">
        <ele>167.9</ele>
        <time>1970-01-01T01:28:02.000Z</time>
      </trkpt>
      <trkpt lat="41.32878" lon="1.963338">
        <ele>167.9</ele>
        <time>1970-01-01T01:28:03.000Z</time>
      </trkpt>
      <trkpt lat="41.32878" lon="1.963338">
        <ele>167.9</ele>
        <time>1970-01-01T01:28:04.000Z</time>
      </trkpt>
      <trkpt lat="41.328805" lon="1.963412">
        <ele>167.9</ele>
        <time>1970-01-01T01:28:05.000Z</time>
      </trkpt>
      <trkpt lat="41.328805" lon="1.963412">
        <ele>167.9</ele>
        <time>1970-01-01T01:28:06.000Z</time>
      </trkpt>
      <trkpt lat="41.328823" lon="1.963485">
        <ele>167.9</ele>
        <time>1970-01-01T01:28:07.000Z</time>
      </trkpt>
      <trkpt lat="41.328828" lon="1.963517">
        <ele>167.9</ele>
        <time>1970-01-01T01:28:08.000Z</time>
      </trkpt>
      <trkpt lat="41.328828" lon="1.963517">
        <ele>168.9</ele>
        <time>1970-01-01T01:28:09.000Z</time>
      </trkpt>
      <trkpt lat="41.32884" lon="1.963572">
        <ele>168.9</ele>
        <time>1970-01-01T01:28:10.000Z</time>
      </trkpt>
      <trkpt lat="41.32884" lon="1.963572">
        <ele>168.9</ele>
        <time>1970-01-01T01:28:11.000Z</time>
      </trkpt>
      <trkpt lat="41.328852" lon="1.963615">
        <ele>168.9</ele>
        <time>1970-01-01T01:28:12.000Z</time>
      </trkpt>
      <trkpt lat="41.328858" lon="1.963635">
        <ele>168.9</ele>
        <time>1970-01-01T01:28:13.000Z</time>
      </trkpt>
      <trkpt lat="41.328858" lon="1.963635">
        <ele>168.9</ele>
        <time>1970-01-01T01:28:14.000Z</time>
      </trkpt>
      <trkpt lat="41.328867" lon="1.963675">
        <ele>169.9</ele>
        <time>1970-01-01T01:28:15.000Z</time>
      </trkpt>
      <trkpt lat="41.328867" lon="1.963675">
        <ele>169.9</ele>
        <time>1970-01-01T01:28:16.000Z</time>
      </trkpt>
      <trkpt lat="41.328875" lon="1.963717">
        <ele>169.9</ele>
        <time>1970-01-01T01:28:17.000Z</time>
      </trkpt>
      <trkpt lat="41.328875" lon="1.963717">
        <ele>169.9</ele>
        <time>1970-01-01T01:28:18.000Z</time>
      </trkpt>
      <trkpt lat="41.328887" lon="1.963753">
        <ele>170.9</ele>
        <time>1970-01-01T01:28:19.000Z</time>
      </trkpt>
      <trkpt lat="41.328895" lon="1.96377">
        <ele>170.9</ele>
        <time>1970-01-01T01:28:20.000Z</time>
      </trkpt>
      <trkpt lat="41.328895" lon="1.96377">
        <ele>170.9</ele>
        <time>1970-01-01T01:28:21.000Z</time>
      </trkpt>
      <trkpt lat="41.328913" lon="1.96381">
        <ele>171.9</ele>
        <time>1970-01-01T01:28:22.000Z</time>
      </trkpt>
      <trkpt lat="41.328913" lon="1.96381">
        <ele>171.9</ele>
        <time>1970-01-01T01:28:23.000Z</time>
      </trkpt>
      <trkpt lat="41.328933" lon="1.963858">
        <ele>171.9</ele>
        <time>1970-01-01T01:28:24.000Z</time>
      </trkpt>
      <trkpt lat="41.328933" lon="1.963858">
        <ele>171.9</ele>
        <time>1970-01-01T01:28:25.000Z</time>
      </trkpt>
      <trkpt lat="41.328967" lon="1.963912">
        <ele>171.9</ele>
        <time>1970-01-01T01:28:26.000Z</time>
      </trkpt>
      <trkpt lat="41.328995" lon="1.96394">
        <ele>171.9</ele>
        <time>1970-01-01T01:28:27.000Z</time>
      </trkpt>
      <trkpt lat="41.328995" lon="1.96394">
        <ele>171.9</ele>
        <time>1970-01-01T01:28:28.000Z</time>
      </trkpt>
      <trkpt lat="41.329047" lon="1.964003">
        <ele>171.9</ele>
        <time>1970-01-01T01:28:29.000Z</time>
      </trkpt>
      <trkpt lat="41.329062" lon="1.964042">
        <ele>171.9</ele>
        <time>1970-01-01T01:28:30.000Z</time>
      </trkpt>
      <trkpt lat="41.329062" lon="1.964042">
        <ele>171.9</ele>
        <time>1970-01-01T01:28:31.000Z</time>
      </trkpt>
      <trkpt lat="41.329073" lon="1.964127">
        <ele>171.9</ele>
        <time>1970-01-01T01:28:32.000Z</time>
      </trkpt>
      <trkpt lat="41.329073" lon="1.964127">
        <ele>171.9</ele>
        <time>1970-01-01T01:28:33.000Z</time>
      </trkpt>
      <trkpt lat="41.32906" lon="1.964187">
        <ele>171.9</ele>
        <time>1970-01-01T01:28:34.000Z</time>
      </trkpt>
      <trkpt lat="41.32906" lon="1.964187">
        <ele>171.9</ele>
        <time>1970-01-01T01:28:35.000Z</time>
      </trkpt>
      <trkpt lat="41.329045" lon="1.964242">
        <ele>171.9</ele>
        <time>1970-01-01T01:28:36.000Z</time>
      </trkpt>
      <trkpt lat="41.329045" lon="1.964242">
        <ele>171.9</ele>
        <time>1970-01-01T01:28:37.000Z</time>
      </trkpt>
      <trkpt lat="41.32903" lon="1.964302">
        <ele>171.9</ele>
        <time>1970-01-01T01:28:38.000Z</time>
      </trkpt>
      <trkpt lat="41.32903" lon="1.964302">
        <ele>171.9</ele>
        <time>1970-01-01T01:28:39.000Z</time>
      </trkpt>
      <trkpt lat="41.32901" lon="1.96434">
        <ele>171.9</ele>
        <time>1970-01-01T01:28:40.000Z</time>
      </trkpt>
      <trkpt lat="41.32901" lon="1.96434">
        <ele>171.9</ele>
        <time>1970-01-01T01:28:41.000Z</time>
      </trkpt>
      <trkpt lat="41.328985" lon="1.96438">
        <ele>171.9</ele>
        <time>1970-01-01T01:28:42.000Z</time>
      </trkpt>
      <trkpt lat="41.328985" lon="1.96438">
        <ele>171.9</ele>
        <time>1970-01-01T01:28:43.000Z</time>
      </trkpt>
      <trkpt lat="41.328957" lon="1.964435">
        <ele>172.9</ele>
        <time>1970-01-01T01:28:44.000Z</time>
      </trkpt>
      <trkpt lat="41.328957" lon="1.964435">
        <ele>172.9</ele>
        <time>1970-01-01T01:28:45.000Z</time>
      </trkpt>
      <trkpt lat="41.328922" lon="1.964485">
        <ele>172.9</ele>
        <time>1970-01-01T01:28:46.000Z</time>
      </trkpt>
      <trkpt lat="41.328922" lon="1.964485">
        <ele>172.9</ele>
        <time>1970-01-01T01:28:47.000Z</time>
      </trkpt>
      <trkpt lat="41.32889" lon="1.964548">
        <ele>172.9</ele>
        <time>1970-01-01T01:28:48.000Z</time>
      </trkpt>
      <trkpt lat="41.328872" lon="1.964585">
        <ele>172.9</ele>
        <time>1970-01-01T01:28:49.000Z</time>
      </trkpt>
      <trkpt lat="41.328872" lon="1.964585">
        <ele>171.9</ele>
        <time>1970-01-01T01:28:50.000Z</time>
      </trkpt>
      <trkpt lat="41.328842" lon="1.96466">
        <ele>171.9</ele>
        <time>1970-01-01T01:28:51.000Z</time>
      </trkpt>
      <trkpt lat="41.328842" lon="1.96466">
        <ele>171.9</ele>
        <time>1970-01-01T01:28:52.000Z</time>
      </trkpt>
      <trkpt lat="41.328818" lon="1.964752">
        <ele>171.9</ele>
        <time>1970-01-01T01:28:53.000Z</time>
      </trkpt>
      <trkpt lat="41.328818" lon="1.964752">
        <ele>171.9</ele>
        <time>1970-01-01T01:28:54.000Z</time>
      </trkpt>
      <trkpt lat="41.3288" lon="1.96484">
        <ele>171.9</ele>
        <time>1970-01-01T01:28:55.000Z</time>
      </trkpt>
      <trkpt lat="41.328793" lon="1.964897">
        <ele>171.9</ele>
        <time>1970-01-01T01:28:56.000Z</time>
      </trkpt>
      <trkpt lat="41.328793" lon="1.964897">
        <ele>171.9</ele>
        <time>1970-01-01T01:28:57.000Z</time>
      </trkpt>
      <trkpt lat="41.32877" lon="1.965025">
        <ele>170.9</ele>
        <time>1970-01-01T01:28:58.000Z</time>
      </trkpt>
      <trkpt lat="41.32877" lon="1.965025">
        <ele>170.9</ele>
        <time>1970-01-01T01:28:59.000Z</time>
      </trkpt>
      <trkpt lat="41.328737" lon="1.965142">
        <ele>170.9</ele>
        <time>1970-01-01T01:29:00.000Z</time>
      </trkpt>
      <trkpt lat="41.328718" lon="1.965207">
        <ele>169.9</ele>
        <time>1970-01-01T01:29:01.000Z</time>
      </trkpt>
      <trkpt lat="41.3287" lon="1.965273">
        <ele>169.9</ele>
        <time>1970-01-01T01:29:02.000Z</time>
      </trkpt>
      <trkpt lat="41.3287" lon="1.965273">
        <ele>169.9</ele>
        <time>1970-01-01T01:29:03.000Z</time>
      </trkpt>
      <trkpt lat="41.32867" lon="1.965418">
        <ele>169.9</ele>
        <time>1970-01-01T01:29:04.000Z</time>
      </trkpt>
      <trkpt lat="41.32867" lon="1.965418">
        <ele>168.9</ele>
        <time>1970-01-01T01:29:05.000Z</time>
      </trkpt>
      <trkpt lat="41.328665" lon="1.965588">
        <ele>168.9</ele>
        <time>1970-01-01T01:29:06.000Z</time>
      </trkpt>
      <trkpt lat="41.328673" lon="1.965672">
        <ele>168.9</ele>
        <time>1970-01-01T01:29:07.000Z</time>
      </trkpt>
      <trkpt lat="41.328698" lon="1.965742">
        <ele>168.9</ele>
        <time>1970-01-01T01:29:08.000Z</time>
      </trkpt>
      <trkpt lat="41.328698" lon="1.965742">
        <ele>168.9</ele>
        <time>1970-01-01T01:29:09.000Z</time>
      </trkpt>
      <trkpt lat="41.328763" lon="1.965848">
        <ele>168.9</ele>
        <time>1970-01-01T01:29:10.000Z</time>
      </trkpt>
      <trkpt lat="41.328797" lon="1.965892">
        <ele>167.9</ele>
        <time>1970-01-01T01:29:11.000Z</time>
      </trkpt>
      <trkpt lat="41.328797" lon="1.965892">
        <ele>167.9</ele>
        <time>1970-01-01T01:29:12.000Z</time>
      </trkpt>
      <trkpt lat="41.328853" lon="1.965948">
        <ele>167.9</ele>
        <time>1970-01-01T01:29:13.000Z</time>
      </trkpt>
      <trkpt lat="41.328895" lon="1.96594">
        <ele>167.9</ele>
        <time>1970-01-01T01:29:14.000Z</time>
      </trkpt>
      <trkpt lat="41.328895" lon="1.96594">
        <ele>167.9</ele>
        <time>1970-01-01T01:29:15.000Z</time>
      </trkpt>
      <trkpt lat="41.328972" lon="1.96593">
        <ele>167.9</ele>
        <time>1970-01-01T01:29:16.000Z</time>
      </trkpt>
      <trkpt lat="41.329007" lon="1.965932">
        <ele>167.9</ele>
        <time>1970-01-01T01:29:17.000Z</time>
      </trkpt>
      <trkpt lat="41.329007" lon="1.965932">
        <ele>167.9</ele>
        <time>1970-01-01T01:29:18.000Z</time>
      </trkpt>
      <trkpt lat="41.329072" lon="1.965927">
        <ele>167.9</ele>
        <time>1970-01-01T01:29:19.000Z</time>
      </trkpt>
      <trkpt lat="41.329072" lon="1.965927">
        <ele>167.9</ele>
        <time>1970-01-01T01:29:20.000Z</time>
      </trkpt>
      <trkpt lat="41.329145" lon="1.965918">
        <ele>167.9</ele>
        <time>1970-01-01T01:29:21.000Z</time>
      </trkpt>
      <trkpt lat="41.329145" lon="1.965918">
        <ele>167.9</ele>
        <time>1970-01-01T01:29:22.000Z</time>
      </trkpt>
      <trkpt lat="41.329233" lon="1.965917">
        <ele>167.9</ele>
        <time>1970-01-01T01:29:23.000Z</time>
      </trkpt>
      <trkpt lat="41.329233" lon="1.965917">
        <ele>167.9</ele>
        <time>1970-01-01T01:29:24.000Z</time>
      </trkpt>
      <trkpt lat="41.329332" lon="1.965932">
        <ele>167.9</ele>
        <time>1970-01-01T01:29:25.000Z</time>
      </trkpt>
      <trkpt lat="41.329362" lon="1.965982">
        <ele>167.9</ele>
        <time>1970-01-01T01:29:26.000Z</time>
      </trkpt>
      <trkpt lat="41.329362" lon="1.965982">
        <ele>166.9</ele>
        <time>1970-01-01T01:29:27.000Z</time>
      </trkpt>
      <trkpt lat="41.329393" lon="1.966078">
        <ele>166.9</ele>
        <time>1970-01-01T01:29:28.000Z</time>
      </trkpt>
      <trkpt lat="41.329393" lon="1.966078">
        <ele>166.9</ele>
        <time>1970-01-01T01:29:29.000Z</time>
      </trkpt>
      <trkpt lat="41.329368" lon="1.96618">
        <ele>166.9</ele>
        <time>1970-01-01T01:29:30.000Z</time>
      </trkpt>
      <trkpt lat="41.329353" lon="1.96623">
        <ele>166.9</ele>
        <time>1970-01-01T01:29:31.000Z</time>
      </trkpt>
      <trkpt lat="41.329335" lon="1.96628">
        <ele>166.9</ele>
        <time>1970-01-01T01:29:32.000Z</time>
      </trkpt>
      <trkpt lat="41.329335" lon="1.96628">
        <ele>166.9</ele>
        <time>1970-01-01T01:29:33.000Z</time>
      </trkpt>
      <trkpt lat="41.329287" lon="1.966355">
        <ele>166.9</ele>
        <time>1970-01-01T01:29:34.000Z</time>
      </trkpt>
      <trkpt lat="41.329255" lon="1.966377">
        <ele>166.9</ele>
        <time>1970-01-01T01:29:35.000Z</time>
      </trkpt>
      <trkpt lat="41.329255" lon="1.966377">
        <ele>166.9</ele>
        <time>1970-01-01T01:29:36.000Z</time>
      </trkpt>
      <trkpt lat="41.32919" lon="1.96641">
        <ele>166.9</ele>
        <time>1970-01-01T01:29:37.000Z</time>
      </trkpt>
      <trkpt lat="41.329152" lon="1.966423">
        <ele>166.9</ele>
        <time>1970-01-01T01:29:38.000Z</time>
      </trkpt>
      <trkpt lat="41.329152" lon="1.966423">
        <ele>166.9</ele>
        <time>1970-01-01T01:29:39.000Z</time>
      </trkpt>
      <trkpt lat="41.329068" lon="1.966458">
        <ele>166.9</ele>
        <time>1970-01-01T01:29:40.000Z</time>
      </trkpt>
      <trkpt lat="41.329023" lon="1.966478">
        <ele>166.9</ele>
        <time>1970-01-01T01:29:41.000Z</time>
      </trkpt>
      <trkpt lat="41.329023" lon="1.966478">
        <ele>165.9</ele>
        <time>1970-01-01T01:29:42.000Z</time>
      </trkpt>
      <trkpt lat="41.32894" lon="1.966518">
        <ele>165.9</ele>
        <time>1970-01-01T01:29:43.000Z</time>
      </trkpt>
      <trkpt lat="41.328898" lon="1.966547">
        <ele>164.9</ele>
        <time>1970-01-01T01:29:44.000Z</time>
      </trkpt>
      <trkpt lat="41.328898" lon="1.966547">
        <ele>164.9</ele>
        <time>1970-01-01T01:29:45.000Z</time>
      </trkpt>
      <trkpt lat="41.32881" lon="1.966637">
        <ele>163.9</ele>
        <time>1970-01-01T01:29:46.000Z</time>
      </trkpt>
      <trkpt lat="41.328762" lon="1.966685">
        <ele>163.9</ele>
        <time>1970-01-01T01:29:47.000Z</time>
      </trkpt>
      <trkpt lat="41.328762" lon="1.966685">
        <ele>163.9</ele>
        <time>1970-01-01T01:29:48.000Z</time>
      </trkpt>
      <trkpt lat="41.328638" lon="1.96673">
        <ele>162.9</ele>
        <time>1970-01-01T01:29:49.000Z</time>
      </trkpt>
      <trkpt lat="41.328578" lon="1.966727">
        <ele>162.9</ele>
        <time>1970-01-01T01:29:50.000Z</time>
      </trkpt>
      <trkpt lat="41.328578" lon="1.966727">
        <ele>162.9</ele>
        <time>1970-01-01T01:29:51.000Z</time>
      </trkpt>
      <trkpt lat="41.328462" lon="1.966728">
        <ele>162.9</ele>
        <time>1970-01-01T01:29:52.000Z</time>
      </trkpt>
      <trkpt lat="41.328462" lon="1.966728">
        <ele>161.9</ele>
        <time>1970-01-01T01:29:53.000Z</time>
      </trkpt>
      <trkpt lat="41.328342" lon="1.966763">
        <ele>161.9</ele>
        <time>1970-01-01T01:29:54.000Z</time>
      </trkpt>
      <trkpt lat="41.328282" lon="1.966792">
        <ele>161.9</ele>
        <time>1970-01-01T01:29:55.000Z</time>
      </trkpt>
      <trkpt lat="41.328282" lon="1.966792">
        <ele>161.9</ele>
        <time>1970-01-01T01:29:56.000Z</time>
      </trkpt>
      <trkpt lat="41.328177" lon="1.966867">
        <ele>161.9</ele>
        <time>1970-01-01T01:29:57.000Z</time>
      </trkpt>
      <trkpt lat="41.328177" lon="1.966867">
        <ele>161.9</ele>
        <time>1970-01-01T01:29:58.000Z</time>
      </trkpt>
      <trkpt lat="41.328093" lon="1.966967">
        <ele>160.9</ele>
        <time>1970-01-01T01:29:59.000Z</time>
      </trkpt>
      <trkpt lat="41.328063" lon="1.967038">
        <ele>160.9</ele>
        <time>1970-01-01T01:30:00.000Z</time>
      </trkpt>
      <trkpt lat="41.328063" lon="1.967038">
        <ele>160.9</ele>
        <time>1970-01-01T01:30:01.000Z</time>
      </trkpt>
      <trkpt lat="41.328028" lon="1.967187">
        <ele>160.9</ele>
        <time>1970-01-01T01:30:02.000Z</time>
      </trkpt>
      <trkpt lat="41.328028" lon="1.967187">
        <ele>160.9</ele>
        <time>1970-01-01T01:30:03.000Z</time>
      </trkpt>
      <trkpt lat="41.328022" lon="1.96735">
        <ele>160.9</ele>
        <time>1970-01-01T01:30:04.000Z</time>
      </trkpt>
      <trkpt lat="41.328022" lon="1.96735">
        <ele>159.9</ele>
        <time>1970-01-01T01:30:05.000Z</time>
      </trkpt>
      <trkpt lat="41.328018" lon="1.967533">
        <ele>159.9</ele>
        <time>1970-01-01T01:30:06.000Z</time>
      </trkpt>
      <trkpt lat="41.328015" lon="1.967633">
        <ele>158.9</ele>
        <time>1970-01-01T01:30:07.000Z</time>
      </trkpt>
      <trkpt lat="41.328015" lon="1.967633">
        <ele>158.9</ele>
        <time>1970-01-01T01:30:08.000Z</time>
      </trkpt>
      <trkpt lat="41.328015" lon="1.967827">
        <ele>157.9</ele>
        <time>1970-01-01T01:30:09.000Z</time>
      </trkpt>
      <trkpt lat="41.328015" lon="1.967827">
        <ele>157.9</ele>
        <time>1970-01-01T01:30:10.000Z</time>
      </trkpt>
      <trkpt lat="41.328022" lon="1.968043">
        <ele>157.9</ele>
        <time>1970-01-01T01:30:11.000Z</time>
      </trkpt>
      <trkpt lat="41.328022" lon="1.968043">
        <ele>157.9</ele>
        <time>1970-01-01T01:30:12.000Z</time>
      </trkpt>
      <trkpt lat="41.32804" lon="1.968265">
        <ele>155.9</ele>
        <time>1970-01-01T01:30:13.000Z</time>
      </trkpt>
      <trkpt lat="41.328058" lon="1.968375">
        <ele>155.9</ele>
        <time>1970-01-01T01:30:14.000Z</time>
      </trkpt>
      <trkpt lat="41.328058" lon="1.968375">
        <ele>154.9</ele>
        <time>1970-01-01T01:30:15.000Z</time>
      </trkpt>
      <trkpt lat="41.328068" lon="1.968607">
        <ele>154.9</ele>
        <time>1970-01-01T01:30:16.000Z</time>
      </trkpt>
      <trkpt lat="41.328068" lon="1.968607">
        <ele>153.9</ele>
        <time>1970-01-01T01:30:17.000Z</time>
      </trkpt>
      <trkpt lat="41.328048" lon="1.968827">
        <ele>153.9</ele>
        <time>1970-01-01T01:30:18.000Z</time>
      </trkpt>
      <trkpt lat="41.32805" lon="1.968942">
        <ele>152.9</ele>
        <time>1970-01-01T01:30:19.000Z</time>
      </trkpt>
      <trkpt lat="41.32805" lon="1.968942">
        <ele>152.9</ele>
        <time>1970-01-01T01:30:20.000Z</time>
      </trkpt>
      <trkpt lat="41.328088" lon="1.969158">
        <ele>150.9</ele>
        <time>1970-01-01T01:30:21.000Z</time>
      </trkpt>
      <trkpt lat="41.328088" lon="1.969158">
        <ele>150.9</ele>
        <time>1970-01-01T01:30:22.000Z</time>
      </trkpt>
      <trkpt lat="41.328153" lon="1.96936">
        <ele>150.9</ele>
        <time>1970-01-01T01:30:23.000Z</time>
      </trkpt>
      <trkpt lat="41.328153" lon="1.96936">
        <ele>149.9</ele>
        <time>1970-01-01T01:30:24.000Z</time>
      </trkpt>
      <trkpt lat="41.328177" lon="1.969542">
        <ele>149.9</ele>
        <time>1970-01-01T01:30:25.000Z</time>
      </trkpt>
      <trkpt lat="41.328155" lon="1.969622">
        <ele>149.9</ele>
        <time>1970-01-01T01:30:26.000Z</time>
      </trkpt>
      <trkpt lat="41.328155" lon="1.969622">
        <ele>149.9</ele>
        <time>1970-01-01T01:30:27.000Z</time>
      </trkpt>
      <trkpt lat="41.328067" lon="1.969788">
        <ele>147.9</ele>
        <time>1970-01-01T01:30:28.000Z</time>
      </trkpt>
      <trkpt lat="41.328067" lon="1.969788">
        <ele>147.9</ele>
        <time>1970-01-01T01:30:29.000Z</time>
      </trkpt>
      <trkpt lat="41.32803" lon="1.96996">
        <ele>146.9</ele>
        <time>1970-01-01T01:30:30.000Z</time>
      </trkpt>
      <trkpt lat="41.32805" lon="1.97007">
        <ele>146.9</ele>
        <time>1970-01-01T01:30:31.000Z</time>
      </trkpt>
      <trkpt lat="41.32806" lon="1.970162">
        <ele>145.9</ele>
        <time>1970-01-01T01:30:32.000Z</time>
      </trkpt>
      <trkpt lat="41.32806" lon="1.970162">
        <ele>145.9</ele>
        <time>1970-01-01T01:30:33.000Z</time>
      </trkpt>
      <trkpt lat="41.328015" lon="1.970315">
        <ele>143.9</ele>
        <time>1970-01-01T01:30:34.000Z</time>
      </trkpt>
      <trkpt lat="41.32797" lon="1.970375">
        <ele>143.9</ele>
        <time>1970-01-01T01:30:35.000Z</time>
      </trkpt>
      <trkpt lat="41.32797" lon="1.970375">
        <ele>142.9</ele>
        <time>1970-01-01T01:30:36.000Z</time>
      </trkpt>
      <trkpt lat="41.327875" lon="1.970485">
        <ele>142.9</ele>
        <time>1970-01-01T01:30:37.000Z</time>
      </trkpt>
      <trkpt lat="41.327875" lon="1.970485">
        <ele>141.9</ele>
        <time>1970-01-01T01:30:38.000Z</time>
      </trkpt>
      <trkpt lat="41.327782" lon="1.970573">
        <ele>141.9</ele>
        <time>1970-01-01T01:30:39.000Z</time>
      </trkpt>
      <trkpt lat="41.327782" lon="1.970573">
        <ele>141.9</ele>
        <time>1970-01-01T01:30:40.000Z</time>
      </trkpt>
      <trkpt lat="41.327687" lon="1.97069">
        <ele>141.9</ele>
        <time>1970-01-01T01:30:41.000Z</time>
      </trkpt>
      <trkpt lat="41.327687" lon="1.97069">
        <ele>139.9</ele>
        <time>1970-01-01T01:30:42.000Z</time>
      </trkpt>
      <trkpt lat="41.327612" lon="1.970862">
        <ele>139.9</ele>
        <time>1970-01-01T01:30:43.000Z</time>
      </trkpt>
      <trkpt lat="41.327585" lon="1.970963">
        <ele>138.9</ele>
        <time>1970-01-01T01:30:44.000Z</time>
      </trkpt>
      <trkpt lat="41.327585" lon="1.970963">
        <ele>138.9</ele>
        <time>1970-01-01T01:30:45.000Z</time>
      </trkpt>
      <trkpt lat="41.327557" lon="1.971187">
        <ele>138.9</ele>
        <time>1970-01-01T01:30:46.000Z</time>
      </trkpt>
      <trkpt lat="41.32755" lon="1.97131">
        <ele>138.9</ele>
        <time>1970-01-01T01:30:47.000Z</time>
      </trkpt>
      <trkpt lat="41.32755" lon="1.97131">
        <ele>137.9</ele>
        <time>1970-01-01T01:30:48.000Z</time>
      </trkpt>
      <trkpt lat="41.327545" lon="1.971552">
        <ele>137.9</ele>
        <time>1970-01-01T01:30:49.000Z</time>
      </trkpt>
      <trkpt lat="41.327545" lon="1.971552">
        <ele>135.9</ele>
        <time>1970-01-01T01:30:50.000Z</time>
      </trkpt>
      <trkpt lat="41.327542" lon="1.971805">
        <ele>135.9</ele>
        <time>1970-01-01T01:30:51.000Z</time>
      </trkpt>
      <trkpt lat="41.327542" lon="1.971805">
        <ele>134.9</ele>
        <time>1970-01-01T01:30:52.000Z</time>
      </trkpt>
      <trkpt lat="41.327542" lon="1.972072">
        <ele>134.9</ele>
        <time>1970-01-01T01:30:53.000Z</time>
      </trkpt>
      <trkpt lat="41.327535" lon="1.972207">
        <ele>133.9</ele>
        <time>1970-01-01T01:30:54.000Z</time>
      </trkpt>
      <trkpt lat="41.327535" lon="1.972207">
        <ele>133.9</ele>
        <time>1970-01-01T01:30:55.000Z</time>
      </trkpt>
      <trkpt lat="41.327538" lon="1.972448">
        <ele>131.9</ele>
        <time>1970-01-01T01:30:56.000Z</time>
      </trkpt>
      <trkpt lat="41.327538" lon="1.972448">
        <ele>131.9</ele>
        <time>1970-01-01T01:30:57.000Z</time>
      </trkpt>
      <trkpt lat="41.32757" lon="1.972683">
        <ele>130.9</ele>
        <time>1970-01-01T01:30:58.000Z</time>
      </trkpt>
      <trkpt lat="41.327588" lon="1.972787">
        <ele>130.9</ele>
        <time>1970-01-01T01:30:59.000Z</time>
      </trkpt>
      <trkpt lat="41.327588" lon="1.972787">
        <ele>129.9</ele>
        <time>1970-01-01T01:31:00.000Z</time>
      </trkpt>
      <trkpt lat="41.32754" lon="1.97297">
        <ele>129.9</ele>
        <time>1970-01-01T01:31:01.000Z</time>
      </trkpt>
      <trkpt lat="41.32754" lon="1.97297">
        <ele>128.9</ele>
        <time>1970-01-01T01:31:02.000Z</time>
      </trkpt>
      <trkpt lat="41.327475" lon="1.973108">
        <ele>128.9</ele>
        <time>1970-01-01T01:31:03.000Z</time>
      </trkpt>
      <trkpt lat="41.327475" lon="1.973108">
        <ele>128.9</ele>
        <time>1970-01-01T01:31:04.000Z</time>
      </trkpt>
      <trkpt lat="41.327442" lon="1.973235">
        <ele>128.9</ele>
        <time>1970-01-01T01:31:05.000Z</time>
      </trkpt>
      <trkpt lat="41.327442" lon="1.973235">
        <ele>128.9</ele>
        <time>1970-01-01T01:31:06.000Z</time>
      </trkpt>
      <trkpt lat="41.327397" lon="1.97335">
        <ele>128.9</ele>
        <time>1970-01-01T01:31:07.000Z</time>
      </trkpt>
      <trkpt lat="41.327397" lon="1.97335">
        <ele>128.9</ele>
        <time>1970-01-01T01:31:08.000Z</time>
      </trkpt>
      <trkpt lat="41.32734" lon="1.973463">
        <ele>128.9</ele>
        <time>1970-01-01T01:31:09.000Z</time>
      </trkpt>
      <trkpt lat="41.32734" lon="1.973463">
        <ele>128.9</ele>
        <time>1970-01-01T01:31:10.000Z</time>
      </trkpt>
      <trkpt lat="41.327272" lon="1.973603">
        <ele>128.9</ele>
        <time>1970-01-01T01:31:11.000Z</time>
      </trkpt>
      <trkpt lat="41.327272" lon="1.973603">
        <ele>128.9</ele>
        <time>1970-01-01T01:31:12.000Z</time>
      </trkpt>
      <trkpt lat="41.327182" lon="1.973742">
        <ele>128.9</ele>
        <time>1970-01-01T01:31:13.000Z</time>
      </trkpt>
      <trkpt lat="41.327138" lon="1.973798">
        <ele>128.9</ele>
        <time>1970-01-01T01:31:14.000Z</time>
      </trkpt>
      <trkpt lat="41.327138" lon="1.973798">
        <ele>128.9</ele>
        <time>1970-01-01T01:31:15.000Z</time>
      </trkpt>
      <trkpt lat="41.327075" lon="1.973933">
        <ele>128.9</ele>
        <time>1970-01-01T01:31:16.000Z</time>
      </trkpt>
      <trkpt lat="41.327058" lon="1.974013">
        <ele>128.9</ele>
        <time>1970-01-01T01:31:17.000Z</time>
      </trkpt>
      <trkpt lat="41.327058" lon="1.974013">
        <ele>127.9</ele>
        <time>1970-01-01T01:31:18.000Z</time>
      </trkpt>
      <trkpt lat="41.327057" lon="1.974187">
        <ele>127.9</ele>
        <time>1970-01-01T01:31:19.000Z</time>
      </trkpt>
      <trkpt lat="41.327063" lon="1.974268">
        <ele>127.9</ele>
        <time>1970-01-01T01:31:20.000Z</time>
      </trkpt>
      <trkpt lat="41.327063" lon="1.974268">
        <ele>127.9</ele>
        <time>1970-01-01T01:31:21.000Z</time>
      </trkpt>
      <trkpt lat="41.327095" lon="1.974437">
        <ele>127.9</ele>
        <time>1970-01-01T01:31:22.000Z</time>
      </trkpt>
      <trkpt lat="41.327118" lon="1.974513">
        <ele>127.9</ele>
        <time>1970-01-01T01:31:23.000Z</time>
      </trkpt>
      <trkpt lat="41.327118" lon="1.974513">
        <ele>127.9</ele>
        <time>1970-01-01T01:31:24.000Z</time>
      </trkpt>
      <trkpt lat="41.327167" lon="1.974655">
        <ele>127.9</ele>
        <time>1970-01-01T01:31:25.000Z</time>
      </trkpt>
      <trkpt lat="41.327198" lon="1.974715">
        <ele>127.9</ele>
        <time>1970-01-01T01:31:26.000Z</time>
      </trkpt>
      <trkpt lat="41.327198" lon="1.974715">
        <ele>127.9</ele>
        <time>1970-01-01T01:31:27.000Z</time>
      </trkpt>
      <trkpt lat="41.327272" lon="1.974803">
        <ele>127.9</ele>
        <time>1970-01-01T01:31:28.000Z</time>
      </trkpt>
      <trkpt lat="41.327312" lon="1.97484">
        <ele>127.9</ele>
        <time>1970-01-01T01:31:29.000Z</time>
      </trkpt>
      <trkpt lat="41.327312" lon="1.97484">
        <ele>127.9</ele>
        <time>1970-01-01T01:31:30.000Z</time>
      </trkpt>
      <trkpt lat="41.327387" lon="1.974905">
        <ele>127.9</ele>
        <time>1970-01-01T01:31:31.000Z</time>
      </trkpt>
      <trkpt lat="41.327422" lon="1.974943">
        <ele>127.9</ele>
        <time>1970-01-01T01:31:32.000Z</time>
      </trkpt>
      <trkpt lat="41.327422" lon="1.974943">
        <ele>127.9</ele>
        <time>1970-01-01T01:31:33.000Z</time>
      </trkpt>
      <trkpt lat="41.327483" lon="1.975042">
        <ele>128.9</ele>
        <time>1970-01-01T01:31:34.000Z</time>
      </trkpt>
      <trkpt lat="41.327508" lon="1.975087">
        <ele>128.9</ele>
        <time>1970-01-01T01:31:35.000Z</time>
      </trkpt>
      <trkpt lat="41.327508" lon="1.975087">
        <ele>128.9</ele>
        <time>1970-01-01T01:31:36.000Z</time>
      </trkpt>
      <trkpt lat="41.327575" lon="1.975195">
        <ele>128.9</ele>
        <time>1970-01-01T01:31:37.000Z</time>
      </trkpt>
      <trkpt lat="41.327613" lon="1.975243">
        <ele>128.9</ele>
        <time>1970-01-01T01:31:38.000Z</time>
      </trkpt>
      <trkpt lat="41.327613" lon="1.975243">
        <ele>128.9</ele>
        <time>1970-01-01T01:31:39.000Z</time>
      </trkpt>
      <trkpt lat="41.327697" lon="1.975338">
        <ele>128.9</ele>
        <time>1970-01-01T01:31:40.000Z</time>
      </trkpt>
      <trkpt lat="41.327742" lon="1.975388">
        <ele>128.9</ele>
        <time>1970-01-01T01:31:41.000Z</time>
      </trkpt>
      <trkpt lat="41.327742" lon="1.975388">
        <ele>128.9</ele>
        <time>1970-01-01T01:31:42.000Z</time>
      </trkpt>
      <trkpt lat="41.327822" lon="1.97549">
        <ele>127.9</ele>
        <time>1970-01-01T01:31:43.000Z</time>
      </trkpt>
      <trkpt lat="41.327853" lon="1.975545">
        <ele>127.9</ele>
        <time>1970-01-01T01:31:44.000Z</time>
      </trkpt>
      <trkpt lat="41.327853" lon="1.975545">
        <ele>127.9</ele>
        <time>1970-01-01T01:31:45.000Z</time>
      </trkpt>
      <trkpt lat="41.327928" lon="1.975648">
        <ele>127.9</ele>
        <time>1970-01-01T01:31:46.000Z</time>
      </trkpt>
      <trkpt lat="41.327972" lon="1.975695">
        <ele>127.9</ele>
        <time>1970-01-01T01:31:47.000Z</time>
      </trkpt>
      <trkpt lat="41.327972" lon="1.975695">
        <ele>127.9</ele>
        <time>1970-01-01T01:31:48.000Z</time>
      </trkpt>
      <trkpt lat="41.328067" lon="1.97576">
        <ele>126.9</ele>
        <time>1970-01-01T01:31:49.000Z</time>
      </trkpt>
      <trkpt lat="41.328067" lon="1.97576">
        <ele>126.9</ele>
        <time>1970-01-01T01:31:50.000Z</time>
      </trkpt>
      <trkpt lat="41.328148" lon="1.975825">
        <ele>126.9</ele>
        <time>1970-01-01T01:31:51.000Z</time>
      </trkpt>
      <trkpt lat="41.328148" lon="1.975825">
        <ele>126.9</ele>
        <time>1970-01-01T01:31:52.000Z</time>
      </trkpt>
      <trkpt lat="41.328202" lon="1.975923">
        <ele>126.9</ele>
        <time>1970-01-01T01:31:53.000Z</time>
      </trkpt>
      <trkpt lat="41.328202" lon="1.975923">
        <ele>126.9</ele>
        <time>1970-01-01T01:31:54.000Z</time>
      </trkpt>
      <trkpt lat="41.328215" lon="1.976047">
        <ele>126.9</ele>
        <time>1970-01-01T01:31:55.000Z</time>
      </trkpt>
      <trkpt lat="41.328212" lon="1.97612">
        <ele>126.9</ele>
        <time>1970-01-01T01:31:56.000Z</time>
      </trkpt>
      <trkpt lat="41.328212" lon="1.97612">
        <ele>126.9</ele>
        <time>1970-01-01T01:31:57.000Z</time>
      </trkpt>
      <trkpt lat="41.328213" lon="1.976282">
        <ele>126.9</ele>
        <time>1970-01-01T01:31:58.000Z</time>
      </trkpt>
      <trkpt lat="41.328213" lon="1.976282">
        <ele>124.9</ele>
        <time>1970-01-01T01:31:59.000Z</time>
      </trkpt>
      <trkpt lat="41.328252" lon="1.976438">
        <ele>124.9</ele>
        <time>1970-01-01T01:32:00.000Z</time>
      </trkpt>
      <trkpt lat="41.328252" lon="1.976438">
        <ele>124.9</ele>
        <time>1970-01-01T01:32:01.000Z</time>
      </trkpt>
      <trkpt lat="41.328308" lon="1.976575">
        <ele>124.9</ele>
        <time>1970-01-01T01:32:02.000Z</time>
      </trkpt>
      <trkpt lat="41.328352" lon="1.976632">
        <ele>124.9</ele>
        <time>1970-01-01T01:32:03.000Z</time>
      </trkpt>
      <trkpt lat="41.328352" lon="1.976632">
        <ele>124.9</ele>
        <time>1970-01-01T01:32:04.000Z</time>
      </trkpt>
      <trkpt lat="41.328452" lon="1.976712">
        <ele>124.9</ele>
        <time>1970-01-01T01:32:05.000Z</time>
      </trkpt>
      <trkpt lat="41.328502" lon="1.976745">
        <ele>124.9</ele>
        <time>1970-01-01T01:32:06.000Z</time>
      </trkpt>
      <trkpt lat="41.328502" lon="1.976745">
        <ele>124.9</ele>
        <time>1970-01-01T01:32:07.000Z</time>
      </trkpt>
      <trkpt lat="41.328613" lon="1.976802">
        <ele>124.9</ele>
        <time>1970-01-01T01:32:08.000Z</time>
      </trkpt>
      <trkpt lat="41.328613" lon="1.976802">
        <ele>123.9</ele>
        <time>1970-01-01T01:32:09.000Z</time>
      </trkpt>
      <trkpt lat="41.328727" lon="1.976872">
        <ele>123.9</ele>
        <time>1970-01-01T01:32:10.000Z</time>
      </trkpt>
      <trkpt lat="41.328727" lon="1.976872">
        <ele>122.9</ele>
        <time>1970-01-01T01:32:11.000Z</time>
      </trkpt>
      <trkpt lat="41.328865" lon="1.976957">
        <ele>122.9</ele>
        <time>1970-01-01T01:32:12.000Z</time>
      </trkpt>
      <trkpt lat="41.328933" lon="1.977012">
        <ele>121.9</ele>
        <time>1970-01-01T01:32:13.000Z</time>
      </trkpt>
      <trkpt lat="41.328933" lon="1.977012">
        <ele>121.9</ele>
        <time>1970-01-01T01:32:14.000Z</time>
      </trkpt>
      <trkpt lat="41.329062" lon="1.977112">
        <ele>119.9</ele>
        <time>1970-01-01T01:32:15.000Z</time>
      </trkpt>
      <trkpt lat="41.329062" lon="1.977112">
        <ele>119.9</ele>
        <time>1970-01-01T01:32:16.000Z</time>
      </trkpt>
      <trkpt lat="41.329185" lon="1.977203">
        <ele>117.9</ele>
        <time>1970-01-01T01:32:17.000Z</time>
      </trkpt>
      <trkpt lat="41.329185" lon="1.977203">
        <ele>117.9</ele>
        <time>1970-01-01T01:32:18.000Z</time>
      </trkpt>
      <trkpt lat="41.329323" lon="1.97726">
        <ele>116.9</ele>
        <time>1970-01-01T01:32:19.000Z</time>
      </trkpt>
      <trkpt lat="41.329395" lon="1.977282">
        <ele>116.9</ele>
        <time>1970-01-01T01:32:20.000Z</time>
      </trkpt>
      <trkpt lat="41.329395" lon="1.977282">
        <ele>114.9</ele>
        <time>1970-01-01T01:32:21.000Z</time>
      </trkpt>
      <trkpt lat="41.329558" lon="1.97727">
        <ele>114.9</ele>
        <time>1970-01-01T01:32:22.000Z</time>
      </trkpt>
      <trkpt lat="41.329558" lon="1.97727">
        <ele>112.9</ele>
        <time>1970-01-01T01:32:23.000Z</time>
      </trkpt>
      <trkpt lat="41.329725" lon="1.977293">
        <ele>110.9</ele>
        <time>1970-01-01T01:32:24.000Z</time>
      </trkpt>
      <trkpt lat="41.329725" lon="1.977293">
        <ele>110.9</ele>
        <time>1970-01-01T01:32:25.000Z</time>
      </trkpt>
      <trkpt lat="41.329893" lon="1.977395">
        <ele>108.9</ele>
        <time>1970-01-01T01:32:26.000Z</time>
      </trkpt>
      <trkpt lat="41.329893" lon="1.977395">
        <ele>108.9</ele>
        <time>1970-01-01T01:32:27.000Z</time>
      </trkpt>
      <trkpt lat="41.330012" lon="1.977577">
        <ele>106.9</ele>
        <time>1970-01-01T01:32:28.000Z</time>
      </trkpt>
      <trkpt lat="41.330012" lon="1.977577">
        <ele>106.9</ele>
        <time>1970-01-01T01:32:29.000Z</time>
      </trkpt>
      <trkpt lat="41.330085" lon="1.977793">
        <ele>106.9</ele>
        <time>1970-01-01T01:32:30.000Z</time>
      </trkpt>
      <trkpt lat="41.330113" lon="1.977883">
        <ele>105.9</ele>
        <time>1970-01-01T01:32:31.000Z</time>
      </trkpt>
      <trkpt lat="41.330113" lon="1.977883">
        <ele>102.9</ele>
        <time>1970-01-01T01:32:32.000Z</time>
      </trkpt>
      <trkpt lat="41.330163" lon="1.978037">
        <ele>102.9</ele>
        <time>1970-01-01T01:32:33.000Z</time>
      </trkpt>
      <trkpt lat="41.33022" lon="1.978052">
        <ele>101.9</ele>
        <time>1970-01-01T01:32:34.000Z</time>
      </trkpt>
      <trkpt lat="41.33022" lon="1.978052">
        <ele>101.9</ele>
        <time>1970-01-01T01:32:35.000Z</time>
      </trkpt>
      <trkpt lat="41.33033" lon="1.978095">
        <ele>99.9</ele>
        <time>1970-01-01T01:32:36.000Z</time>
      </trkpt>
      <trkpt lat="41.33033" lon="1.978095">
        <ele>99.9</ele>
        <time>1970-01-01T01:32:37.000Z</time>
      </trkpt>
      <trkpt lat="41.330422" lon="1.978222">
        <ele>98.9</ele>
        <time>1970-01-01T01:32:38.000Z</time>
      </trkpt>
      <trkpt lat="41.330447" lon="1.978303">
        <ele>98.9</ele>
        <time>1970-01-01T01:32:39.000Z</time>
      </trkpt>
      <trkpt lat="41.330447" lon="1.978303">
        <ele>97.9</ele>
        <time>1970-01-01T01:32:40.000Z</time>
      </trkpt>
      <trkpt lat="41.330477" lon="1.97846">
        <ele>97.9</ele>
        <time>1970-01-01T01:32:41.000Z</time>
      </trkpt>
      <trkpt lat="41.330477" lon="1.97846">
        <ele>97.9</ele>
        <time>1970-01-01T01:32:42.000Z</time>
      </trkpt>
      <trkpt lat="41.330445" lon="1.978637">
        <ele>97.9</ele>
        <time>1970-01-01T01:32:43.000Z</time>
      </trkpt>
      <trkpt lat="41.330445" lon="1.978637">
        <ele>96.9</ele>
        <time>1970-01-01T01:32:44.000Z</time>
      </trkpt>
      <trkpt lat="41.330412" lon="1.978858">
        <ele>96.9</ele>
        <time>1970-01-01T01:32:45.000Z</time>
      </trkpt>
      <trkpt lat="41.330415" lon="1.978977">
        <ele>95.9</ele>
        <time>1970-01-01T01:32:46.000Z</time>
      </trkpt>
      <trkpt lat="41.330415" lon="1.978977">
        <ele>95.9</ele>
        <time>1970-01-01T01:32:47.000Z</time>
      </trkpt>
      <trkpt lat="41.330477" lon="1.97919">
        <ele>93.9</ele>
        <time>1970-01-01T01:32:48.000Z</time>
      </trkpt>
      <trkpt lat="41.33052" lon="1.979293">
        <ele>93.9</ele>
        <time>1970-01-01T01:32:49.000Z</time>
      </trkpt>
      <trkpt lat="41.330533" lon="1.979407">
        <ele>93.9</ele>
        <time>1970-01-01T01:32:50.000Z</time>
      </trkpt>
      <trkpt lat="41.330533" lon="1.979407">
        <ele>93.9</ele>
        <time>1970-01-01T01:32:51.000Z</time>
      </trkpt>
      <trkpt lat="41.330542" lon="1.979622">
        <ele>92.9</ele>
        <time>1970-01-01T01:32:52.000Z</time>
      </trkpt>
      <trkpt lat="41.330542" lon="1.979622">
        <ele>92.9</ele>
        <time>1970-01-01T01:32:53.000Z</time>
      </trkpt>
      <trkpt lat="41.330528" lon="1.979802">
        <ele>92.9</ele>
        <time>1970-01-01T01:32:54.000Z</time>
      </trkpt>
      <trkpt lat="41.330528" lon="1.979802">
        <ele>92.9</ele>
        <time>1970-01-01T01:32:55.000Z</time>
      </trkpt>
      <trkpt lat="41.330525" lon="1.979927">
        <ele>92.9</ele>
        <time>1970-01-01T01:32:56.000Z</time>
      </trkpt>
      <trkpt lat="41.330525" lon="1.979927">
        <ele>92.9</ele>
        <time>1970-01-01T01:32:57.000Z</time>
      </trkpt>
      <trkpt lat="41.330528" lon="1.98002">
        <ele>92.9</ele>
        <time>1970-01-01T01:32:58.000Z</time>
      </trkpt>
      <trkpt lat="41.330528" lon="1.98002">
        <ele>92.9</ele>
        <time>1970-01-01T01:32:59.000Z</time>
      </trkpt>
      <trkpt lat="41.330535" lon="1.98011">
        <ele>92.9</ele>
        <time>1970-01-01T01:33:00.000Z</time>
      </trkpt>
      <trkpt lat="41.330535" lon="1.98011">
        <ele>92.9</ele>
        <time>1970-01-01T01:33:01.000Z</time>
      </trkpt>
      <trkpt lat="41.330545" lon="1.980178">
        <ele>92.9</ele>
        <time>1970-01-01T01:33:02.000Z</time>
      </trkpt>
      <trkpt lat="41.330545" lon="1.980178">
        <ele>92.9</ele>
        <time>1970-01-01T01:33:03.000Z</time>
      </trkpt>
      <trkpt lat="41.330557" lon="1.980242">
        <ele>92.9</ele>
        <time>1970-01-01T01:33:04.000Z</time>
      </trkpt>
      <trkpt lat="41.330557" lon="1.980242">
        <ele>93.9</ele>
        <time>1970-01-01T01:33:05.000Z</time>
      </trkpt>
      <trkpt lat="41.330565" lon="1.980302">
        <ele>93.9</ele>
        <time>1970-01-01T01:33:06.000Z</time>
      </trkpt>
      <trkpt lat="41.330565" lon="1.980302">
        <ele>93.9</ele>
        <time>1970-01-01T01:33:07.000Z</time>
      </trkpt>
      <trkpt lat="41.330587" lon="1.980357">
        <ele>93.9</ele>
        <time>1970-01-01T01:33:08.000Z</time>
      </trkpt>
      <trkpt lat="41.330587" lon="1.980357">
        <ele>94.9</ele>
        <time>1970-01-01T01:33:09.000Z</time>
      </trkpt>
      <trkpt lat="41.330615" lon="1.980413">
        <ele>94.9</ele>
        <time>1970-01-01T01:33:10.000Z</time>
      </trkpt>
      <trkpt lat="41.330615" lon="1.980413">
        <ele>94.9</ele>
        <time>1970-01-01T01:33:11.000Z</time>
      </trkpt>
      <trkpt lat="41.330647" lon="1.980487">
        <ele>94.9</ele>
        <time>1970-01-01T01:33:12.000Z</time>
      </trkpt>
      <trkpt lat="41.330665" lon="1.980523">
        <ele>94.9</ele>
        <time>1970-01-01T01:33:13.000Z</time>
      </trkpt>
      <trkpt lat="41.330665" lon="1.980523">
        <ele>94.9</ele>
        <time>1970-01-01T01:33:14.000Z</time>
      </trkpt>
      <trkpt lat="41.330695" lon="1.980583">
        <ele>94.9</ele>
        <time>1970-01-01T01:33:15.000Z</time>
      </trkpt>
      <trkpt lat="41.330695" lon="1.980583">
        <ele>94.9</ele>
        <time>1970-01-01T01:33:16.000Z</time>
      </trkpt>
      <trkpt lat="41.330732" lon="1.980637">
        <ele>94.9</ele>
        <time>1970-01-01T01:33:17.000Z</time>
      </trkpt>
      <trkpt lat="41.330753" lon="1.98066">
        <ele>94.9</ele>
        <time>1970-01-01T01:33:18.000Z</time>
      </trkpt>
      <trkpt lat="41.330778" lon="1.980682">
        <ele>94.9</ele>
        <time>1970-01-01T01:33:19.000Z</time>
      </trkpt>
      <trkpt lat="41.330778" lon="1.980682">
        <ele>94.9</ele>
        <time>1970-01-01T01:33:20.000Z</time>
      </trkpt>
      <trkpt lat="41.330827" lon="1.980733">
        <ele>94.9</ele>
        <time>1970-01-01T01:33:21.000Z</time>
      </trkpt>
      <trkpt lat="41.330827" lon="1.980733">
        <ele>94.9</ele>
        <time>1970-01-01T01:33:22.000Z</time>
      </trkpt>
      <trkpt lat="41.33084" lon="1.98081">
        <ele>94.9</ele>
        <time>1970-01-01T01:33:23.000Z</time>
      </trkpt>
      <trkpt lat="41.330827" lon="1.980845">
        <ele>94.9</ele>
        <time>1970-01-01T01:33:24.000Z</time>
      </trkpt>
      <trkpt lat="41.330827" lon="1.980845">
        <ele>94.9</ele>
        <time>1970-01-01T01:33:25.000Z</time>
      </trkpt>
      <trkpt lat="41.330778" lon="1.980902">
        <ele>94.9</ele>
        <time>1970-01-01T01:33:26.000Z</time>
      </trkpt>
      <trkpt lat="41.330778" lon="1.980902">
        <ele>94.9</ele>
        <time>1970-01-01T01:33:27.000Z</time>
      </trkpt>
      <trkpt lat="41.330742" lon="1.980972">
        <ele>94.9</ele>
        <time>1970-01-01T01:33:28.000Z</time>
      </trkpt>
      <trkpt lat="41.330742" lon="1.980972">
        <ele>94.9</ele>
        <time>1970-01-01T01:33:29.000Z</time>
      </trkpt>
      <trkpt lat="41.330722" lon="1.98105">
        <ele>94.9</ele>
        <time>1970-01-01T01:33:30.000Z</time>
      </trkpt>
      <trkpt lat="41.330722" lon="1.98105">
        <ele>94.9</ele>
        <time>1970-01-01T01:33:31.000Z</time>
      </trkpt>
      <trkpt lat="41.330725" lon="1.981137">
        <ele>94.9</ele>
        <time>1970-01-01T01:33:32.000Z</time>
      </trkpt>
      <trkpt lat="41.330725" lon="1.981137">
        <ele>94.9</ele>
        <time>1970-01-01T01:33:33.000Z</time>
      </trkpt>
      <trkpt lat="41.33075" lon="1.981212">
        <ele>94.9</ele>
        <time>1970-01-01T01:33:34.000Z</time>
      </trkpt>
      <trkpt lat="41.33077" lon="1.981242">
        <ele>94.9</ele>
        <time>1970-01-01T01:33:35.000Z</time>
      </trkpt>
      <trkpt lat="41.33077" lon="1.981242">
        <ele>96.9</ele>
        <time>1970-01-01T01:33:36.000Z</time>
      </trkpt>
      <trkpt lat="41.33081" lon="1.981293">
        <ele>96.9</ele>
        <time>1970-01-01T01:33:37.000Z</time>
      </trkpt>
      <trkpt lat="41.330835" lon="1.981318">
        <ele>96.9</ele>
        <time>1970-01-01T01:33:38.000Z</time>
      </trkpt>
      <trkpt lat="41.330835" lon="1.981318">
        <ele>96.9</ele>
        <time>1970-01-01T01:33:39.000Z</time>
      </trkpt>
      <trkpt lat="41.33088" lon="1.981357">
        <ele>96.9</ele>
        <time>1970-01-01T01:33:40.000Z</time>
      </trkpt>
      <trkpt lat="41.330905" lon="1.981372">
        <ele>96.9</ele>
        <time>1970-01-01T01:33:41.000Z</time>
      </trkpt>
      <trkpt lat="41.33093" lon="1.98139">
        <ele>96.9</ele>
        <time>1970-01-01T01:33:42.000Z</time>
      </trkpt>
      <trkpt lat="41.33093" lon="1.98139">
        <ele>96.9</ele>
        <time>1970-01-01T01:33:43.000Z</time>
      </trkpt>
      <trkpt lat="41.33098" lon="1.981428">
        <ele>96.9</ele>
        <time>1970-01-01T01:33:44.000Z</time>
      </trkpt>
      <trkpt lat="41.33098" lon="1.981428">
        <ele>96.9</ele>
        <time>1970-01-01T01:33:45.000Z</time>
      </trkpt>
      <trkpt lat="41.33103" lon="1.98147">
        <ele>96.9</ele>
        <time>1970-01-01T01:33:46.000Z</time>
      </trkpt>
      <trkpt lat="41.331057" lon="1.981492">
        <ele>96.9</ele>
        <time>1970-01-01T01:33:47.000Z</time>
      </trkpt>
      <trkpt lat="41.331057" lon="1.981492">
        <ele>96.9</ele>
        <time>1970-01-01T01:33:48.000Z</time>
      </trkpt>
      <trkpt lat="41.331103" lon="1.981535">
        <ele>97.9</ele>
        <time>1970-01-01T01:33:49.000Z</time>
      </trkpt>
      <trkpt lat="41.331122" lon="1.981557">
        <ele>97.9</ele>
        <time>1970-01-01T01:33:50.000Z</time>
      </trkpt>
      <trkpt lat="41.331145" lon="1.981583">
        <ele>97.9</ele>
        <time>1970-01-01T01:33:51.000Z</time>
      </trkpt>
      <trkpt lat="41.331145" lon="1.981583">
        <ele>97.9</ele>
        <time>1970-01-01T01:33:52.000Z</time>
      </trkpt>
      <trkpt lat="41.331182" lon="1.98164">
        <ele>98.9</ele>
        <time>1970-01-01T01:33:53.000Z</time>
      </trkpt>
      <trkpt lat="41.331198" lon="1.981673">
        <ele>98.9</ele>
        <time>1970-01-01T01:33:54.000Z</time>
      </trkpt>
      <trkpt lat="41.331212" lon="1.981707">
        <ele>98.9</ele>
        <time>1970-01-01T01:33:55.000Z</time>
      </trkpt>
      <trkpt lat="41.331212" lon="1.981707">
        <ele>98.9</ele>
        <time>1970-01-01T01:33:56.000Z</time>
      </trkpt>
      <trkpt lat="41.33123" lon="1.981765">
        <ele>98.9</ele>
        <time>1970-01-01T01:33:57.000Z</time>
      </trkpt>
      <trkpt lat="41.33124" lon="1.981795">
        <ele>98.9</ele>
        <time>1970-01-01T01:33:58.000Z</time>
      </trkpt>
      <trkpt lat="41.33124" lon="1.981795">
        <ele>99.9</ele>
        <time>1970-01-01T01:33:59.000Z</time>
      </trkpt>
      <trkpt lat="41.331272" lon="1.981867">
        <ele>99.9</ele>
        <time>1970-01-01T01:34:00.000Z</time>
      </trkpt>
      <trkpt lat="41.331288" lon="1.981915">
        <ele>99.9</ele>
        <time>1970-01-01T01:34:01.000Z</time>
      </trkpt>
      <trkpt lat="41.331288" lon="1.981915">
        <ele>99.9</ele>
        <time>1970-01-01T01:34:02.000Z</time>
      </trkpt>
      <trkpt lat="41.331322" lon="1.98201">
        <ele>99.9</ele>
        <time>1970-01-01T01:34:03.000Z</time>
      </trkpt>
      <trkpt lat="41.331322" lon="1.98201">
        <ele>99.9</ele>
        <time>1970-01-01T01:34:04.000Z</time>
      </trkpt>
      <trkpt lat="41.331362" lon="1.98211">
        <ele>99.9</ele>
        <time>1970-01-01T01:34:05.000Z</time>
      </trkpt>
      <trkpt lat="41.331362" lon="1.98211">
        <ele>99.9</ele>
        <time>1970-01-01T01:34:06.000Z</time>
      </trkpt>
      <trkpt lat="41.331388" lon="1.98222">
        <ele>98.9</ele>
        <time>1970-01-01T01:34:07.000Z</time>
      </trkpt>
      <trkpt lat="41.3314" lon="1.98228">
        <ele>98.9</ele>
        <time>1970-01-01T01:34:08.000Z</time>
      </trkpt>
      <trkpt lat="41.3314" lon="1.98228">
        <ele>98.9</ele>
        <time>1970-01-01T01:34:09.000Z</time>
      </trkpt>
      <trkpt lat="41.331413" lon="1.982387">
        <ele>98.9</ele>
        <time>1970-01-01T01:34:10.000Z</time>
      </trkpt>
      <trkpt lat="41.331415" lon="1.982433">
        <ele>98.9</ele>
        <time>1970-01-01T01:34:11.000Z</time>
      </trkpt>
      <trkpt lat="41.331415" lon="1.982433">
        <ele>98.9</ele>
        <time>1970-01-01T01:34:12.000Z</time>
      </trkpt>
      <trkpt lat="41.331435" lon="1.982522">
        <ele>99.9</ele>
        <time>1970-01-01T01:34:13.000Z</time>
      </trkpt>
      <trkpt lat="41.331435" lon="1.982522">
        <ele>99.9</ele>
        <time>1970-01-01T01:34:14.000Z</time>
      </trkpt>
      <trkpt lat="41.331462" lon="1.982595">
        <ele>99.9</ele>
        <time>1970-01-01T01:34:15.000Z</time>
      </trkpt>
      <trkpt lat="41.331475" lon="1.982635">
        <ele>99.9</ele>
        <time>1970-01-01T01:34:16.000Z</time>
      </trkpt>
      <trkpt lat="41.331475" lon="1.982635">
        <ele>100.9</ele>
        <time>1970-01-01T01:34:17.000Z</time>
      </trkpt>
      <trkpt lat="41.331505" lon="1.982705">
        <ele>100.9</ele>
        <time>1970-01-01T01:34:18.000Z</time>
      </trkpt>
      <trkpt lat="41.33152" lon="1.982737">
        <ele>100.9</ele>
        <time>1970-01-01T01:34:19.000Z</time>
      </trkpt>
      <trkpt lat="41.331533" lon="1.982767">
        <ele>100.9</ele>
        <time>1970-01-01T01:34:20.000Z</time>
      </trkpt>
      <trkpt lat="41.331533" lon="1.982767">
        <ele>101.9</ele>
        <time>1970-01-01T01:34:21.000Z</time>
      </trkpt>
      <trkpt lat="41.331558" lon="1.98282">
        <ele>101.9</ele>
        <time>1970-01-01T01:34:22.000Z</time>
      </trkpt>
      <trkpt lat="41.331573" lon="1.982845">
        <ele>101.9</ele>
        <time>1970-01-01T01:34:23.000Z</time>
      </trkpt>
      <trkpt lat="41.331573" lon="1.982845">
        <ele>101.9</ele>
        <time>1970-01-01T01:34:24.000Z</time>
      </trkpt>
      <trkpt lat="41.331612" lon="1.982907">
        <ele>101.9</ele>
        <time>1970-01-01T01:34:25.000Z</time>
      </trkpt>
      <trkpt lat="41.331633" lon="1.982947">
        <ele>101.9</ele>
        <time>1970-01-01T01:34:26.000Z</time>
      </trkpt>
      <trkpt lat="41.331633" lon="1.982947">
        <ele>101.9</ele>
        <time>1970-01-01T01:34:27.000Z</time>
      </trkpt>
      <trkpt lat="41.331665" lon="1.983087">
        <ele>101.9</ele>
        <time>1970-01-01T01:34:28.000Z</time>
      </trkpt>
      <trkpt lat="41.331675" lon="1.983163">
        <ele>101.9</ele>
        <time>1970-01-01T01:34:29.000Z</time>
      </trkpt>
      <trkpt lat="41.331675" lon="1.983163">
        <ele>101.9</ele>
        <time>1970-01-01T01:34:30.000Z</time>
      </trkpt>
      <trkpt lat="41.331678" lon="1.98334">
        <ele>101.9</ele>
        <time>1970-01-01T01:34:31.000Z</time>
      </trkpt>
      <trkpt lat="41.331678" lon="1.98334">
        <ele>99.9</ele>
        <time>1970-01-01T01:34:32.000Z</time>
      </trkpt>
      <trkpt lat="41.331673" lon="1.983557">
        <ele>99.9</ele>
        <time>1970-01-01T01:34:33.000Z</time>
      </trkpt>
      <trkpt lat="41.331668" lon="1.983662">
        <ele>98.9</ele>
        <time>1970-01-01T01:34:34.000Z</time>
      </trkpt>
      <trkpt lat="41.331668" lon="1.983662">
        <ele>98.9</ele>
        <time>1970-01-01T01:34:35.000Z</time>
      </trkpt>
      <trkpt lat="41.331635" lon="1.98388">
        <ele>96.9</ele>
        <time>1970-01-01T01:34:36.000Z</time>
      </trkpt>
      <trkpt lat="41.331635" lon="1.98388">
        <ele>96.9</ele>
        <time>1970-01-01T01:34:37.000Z</time>
      </trkpt>
      <trkpt lat="41.331602" lon="1.984082">
        <ele>95.9</ele>
        <time>1970-01-01T01:34:38.000Z</time>
      </trkpt>
      <trkpt lat="41.331602" lon="1.984082">
        <ele>95.9</ele>
        <time>1970-01-01T01:34:39.000Z</time>
      </trkpt>
      <trkpt lat="41.331578" lon="1.984292">
        <ele>94.9</ele>
        <time>1970-01-01T01:34:40.000Z</time>
      </trkpt>
      <trkpt lat="41.33158" lon="1.984402">
        <ele>94.9</ele>
        <time>1970-01-01T01:34:41.000Z</time>
      </trkpt>
      <trkpt lat="41.33158" lon="1.984402">
        <ele>93.9</ele>
        <time>1970-01-01T01:34:42.000Z</time>
      </trkpt>
      <trkpt lat="41.331625" lon="1.984587">
        <ele>93.9</ele>
        <time>1970-01-01T01:34:43.000Z</time>
      </trkpt>
      <trkpt lat="41.331678" lon="1.984662">
        <ele>92.9</ele>
        <time>1970-01-01T01:34:44.000Z</time>
      </trkpt>
      <trkpt lat="41.331678" lon="1.984662">
        <ele>92.9</ele>
        <time>1970-01-01T01:34:45.000Z</time>
      </trkpt>
      <trkpt lat="41.331795" lon="1.984793">
        <ele>91.9</ele>
        <time>1970-01-01T01:34:46.000Z</time>
      </trkpt>
      <trkpt lat="41.331808" lon="1.984872">
        <ele>91.9</ele>
        <time>1970-01-01T01:34:47.000Z</time>
      </trkpt>
      <trkpt lat="41.331808" lon="1.984872">
        <ele>90.9</ele>
        <time>1970-01-01T01:34:48.000Z</time>
      </trkpt>
      <trkpt lat="41.331748" lon="1.985007">
        <ele>90.9</ele>
        <time>1970-01-01T01:34:49.000Z</time>
      </trkpt>
      <trkpt lat="41.331748" lon="1.985007">
        <ele>90.9</ele>
        <time>1970-01-01T01:34:50.000Z</time>
      </trkpt>
      <trkpt lat="41.331677" lon="1.98507">
        <ele>90.9</ele>
        <time>1970-01-01T01:34:51.000Z</time>
      </trkpt>
      <trkpt lat="41.331677" lon="1.98507">
        <ele>90.9</ele>
        <time>1970-01-01T01:34:52.000Z</time>
      </trkpt>
      <trkpt lat="41.331635" lon="1.985142">
        <ele>90.9</ele>
        <time>1970-01-01T01:34:53.000Z</time>
      </trkpt>
      <trkpt lat="41.331635" lon="1.985142">
        <ele>90.9</ele>
        <time>1970-01-01T01:34:54.000Z</time>
      </trkpt>
      <trkpt lat="41.331627" lon="1.985225">
        <ele>90.9</ele>
        <time>1970-01-01T01:34:55.000Z</time>
      </trkpt>
      <trkpt lat="41.331632" lon="1.98527">
        <ele>90.9</ele>
        <time>1970-01-01T01:34:56.000Z</time>
      </trkpt>
      <trkpt lat="41.331632" lon="1.98527">
        <ele>90.9</ele>
        <time>1970-01-01T01:34:57.000Z</time>
      </trkpt>
      <trkpt lat="41.331655" lon="1.985372">
        <ele>90.9</ele>
        <time>1970-01-01T01:34:58.000Z</time>
      </trkpt>
      <trkpt lat="41.331668" lon="1.985418">
        <ele>90.9</ele>
        <time>1970-01-01T01:34:59.000Z</time>
      </trkpt>
      <trkpt lat="41.331685" lon="1.985465">
        <ele>90.9</ele>
        <time>1970-01-01T01:35:00.000Z</time>
      </trkpt>
      <trkpt lat="41.331685" lon="1.985465">
        <ele>90.9</ele>
        <time>1970-01-01T01:35:01.000Z</time>
      </trkpt>
      <trkpt lat="41.331723" lon="1.985548">
        <ele>90.9</ele>
        <time>1970-01-01T01:35:02.000Z</time>
      </trkpt>
      <trkpt lat="41.331723" lon="1.985548">
        <ele>90.9</ele>
        <time>1970-01-01T01:35:03.000Z</time>
      </trkpt>
      <trkpt lat="41.331777" lon="1.98562">
        <ele>90.9</ele>
        <time>1970-01-01T01:35:04.000Z</time>
      </trkpt>
      <trkpt lat="41.331807" lon="1.985652">
        <ele>90.9</ele>
        <time>1970-01-01T01:35:05.000Z</time>
      </trkpt>
      <trkpt lat="41.331807" lon="1.985652">
        <ele>90.9</ele>
        <time>1970-01-01T01:35:06.000Z</time>
      </trkpt>
      <trkpt lat="41.331868" lon="1.985717">
        <ele>90.9</ele>
        <time>1970-01-01T01:35:07.000Z</time>
      </trkpt>
      <trkpt lat="41.331897" lon="1.985743">
        <ele>91.9</ele>
        <time>1970-01-01T01:35:08.000Z</time>
      </trkpt>
      <trkpt lat="41.331897" lon="1.985743">
        <ele>91.9</ele>
        <time>1970-01-01T01:35:09.000Z</time>
      </trkpt>
      <trkpt lat="41.33194" lon="1.985817">
        <ele>92.9</ele>
        <time>1970-01-01T01:35:10.000Z</time>
      </trkpt>
      <trkpt lat="41.33194" lon="1.985817">
        <ele>93.9</ele>
        <time>1970-01-01T01:35:11.000Z</time>
      </trkpt>
      <trkpt lat="41.33194" lon="1.985908">
        <ele>93.9</ele>
        <time>1970-01-01T01:35:12.000Z</time>
      </trkpt>
      <trkpt lat="41.331927" lon="1.985952">
        <ele>93.9</ele>
        <time>1970-01-01T01:35:13.000Z</time>
      </trkpt>
      <trkpt lat="41.331927" lon="1.985952">
        <ele>93.9</ele>
        <time>1970-01-01T01:35:14.000Z</time>
      </trkpt>
      <trkpt lat="41.331913" lon="1.986025">
        <ele>94.9</ele>
        <time>1970-01-01T01:35:15.000Z</time>
      </trkpt>
      <trkpt lat="41.331913" lon="1.986025">
        <ele>94.9</ele>
        <time>1970-01-01T01:35:16.000Z</time>
      </trkpt>
      <trkpt lat="41.331908" lon="1.986092">
        <ele>94.9</ele>
        <time>1970-01-01T01:35:17.000Z</time>
      </trkpt>
      <trkpt lat="41.331913" lon="1.986137">
        <ele>94.9</ele>
        <time>1970-01-01T01:35:18.000Z</time>
      </trkpt>
      <trkpt lat="41.331913" lon="1.986137">
        <ele>95.9</ele>
        <time>1970-01-01T01:35:19.000Z</time>
      </trkpt>
      <trkpt lat="41.331928" lon="1.986238">
        <ele>95.9</ele>
        <time>1970-01-01T01:35:20.000Z</time>
      </trkpt>
      <trkpt lat="41.331932" lon="1.986297">
        <ele>95.9</ele>
        <time>1970-01-01T01:35:21.000Z</time>
      </trkpt>
      <trkpt lat="41.331932" lon="1.986297">
        <ele>95.9</ele>
        <time>1970-01-01T01:35:22.000Z</time>
      </trkpt>
      <trkpt lat="41.331943" lon="1.986375">
        <ele>96.9</ele>
        <time>1970-01-01T01:35:23.000Z</time>
      </trkpt>
      <trkpt lat="41.331943" lon="1.986375">
        <ele>96.9</ele>
        <time>1970-01-01T01:35:24.000Z</time>
      </trkpt>
      <trkpt lat="41.331968" lon="1.986442">
        <ele>97.9</ele>
        <time>1970-01-01T01:35:25.000Z</time>
      </trkpt>
      <trkpt lat="41.331975" lon="1.986468">
        <ele>97.9</ele>
        <time>1970-01-01T01:35:26.000Z</time>
      </trkpt>
      <trkpt lat="41.331975" lon="1.986468">
        <ele>97.9</ele>
        <time>1970-01-01T01:35:27.000Z</time>
      </trkpt>
      <trkpt lat="41.33199" lon="1.986523">
        <ele>97.9</ele>
        <time>1970-01-01T01:35:28.000Z</time>
      </trkpt>
      <trkpt lat="41.33199" lon="1.986523">
        <ele>97.9</ele>
        <time>1970-01-01T01:35:29.000Z</time>
      </trkpt>
      <trkpt lat="41.332015" lon="1.98657">
        <ele>98.9</ele>
        <time>1970-01-01T01:35:30.000Z</time>
      </trkpt>
      <trkpt lat="41.332015" lon="1.98657">
        <ele>98.9</ele>
        <time>1970-01-01T01:35:31.000Z</time>
      </trkpt>
      <trkpt lat="41.332042" lon="1.986625">
        <ele>99.9</ele>
        <time>1970-01-01T01:35:32.000Z</time>
      </trkpt>
      <trkpt lat="41.332042" lon="1.986625">
        <ele>99.9</ele>
        <time>1970-01-01T01:35:33.000Z</time>
      </trkpt>
      <trkpt lat="41.332072" lon="1.986682">
        <ele>99.9</ele>
        <time>1970-01-01T01:35:34.000Z</time>
      </trkpt>
      <trkpt lat="41.332072" lon="1.986682">
        <ele>99.9</ele>
        <time>1970-01-01T01:35:35.000Z</time>
      </trkpt>
      <trkpt lat="41.332108" lon="1.986753">
        <ele>99.9</ele>
        <time>1970-01-01T01:35:36.000Z</time>
      </trkpt>
      <trkpt lat="41.332125" lon="1.986803">
        <ele>99.9</ele>
        <time>1970-01-01T01:35:37.000Z</time>
      </trkpt>
      <trkpt lat="41.332125" lon="1.986803">
        <ele>99.9</ele>
        <time>1970-01-01T01:35:38.000Z</time>
      </trkpt>
      <trkpt lat="41.332157" lon="1.986933">
        <ele>99.9</ele>
        <time>1970-01-01T01:35:39.000Z</time>
      </trkpt>
      <trkpt lat="41.332157" lon="1.986933">
        <ele>99.9</ele>
        <time>1970-01-01T01:35:40.000Z</time>
      </trkpt>
      <trkpt lat="41.33213" lon="1.98708">
        <ele>99.9</ele>
        <time>1970-01-01T01:35:41.000Z</time>
      </trkpt>
      <trkpt lat="41.33213" lon="1.98708">
        <ele>99.9</ele>
        <time>1970-01-01T01:35:42.000Z</time>
      </trkpt>
      <trkpt lat="41.332082" lon="1.987175">
        <ele>99.9</ele>
        <time>1970-01-01T01:35:43.000Z</time>
      </trkpt>
      <trkpt lat="41.33206" lon="1.987215">
        <ele>98.9</ele>
        <time>1970-01-01T01:35:44.000Z</time>
      </trkpt>
      <trkpt lat="41.33206" lon="1.987215">
        <ele>98.9</ele>
        <time>1970-01-01T01:35:45.000Z</time>
      </trkpt>
      <trkpt lat="41.332035" lon="1.98731">
        <ele>98.9</ele>
        <time>1970-01-01T01:35:46.000Z</time>
      </trkpt>
      <trkpt lat="41.332035" lon="1.98731">
        <ele>98.9</ele>
        <time>1970-01-01T01:35:47.000Z</time>
      </trkpt>
      <trkpt lat="41.332027" lon="1.9874">
        <ele>98.9</ele>
        <time>1970-01-01T01:35:48.000Z</time>
      </trkpt>
      <trkpt lat="41.332027" lon="1.9874">
        <ele>98.9</ele>
        <time>1970-01-01T01:35:49.000Z</time>
      </trkpt>
      <trkpt lat="41.332053" lon="1.987488">
        <ele>98.9</ele>
        <time>1970-01-01T01:35:50.000Z</time>
      </trkpt>
      <trkpt lat="41.332053" lon="1.987488">
        <ele>98.9</ele>
        <time>1970-01-01T01:35:51.000Z</time>
      </trkpt>
      <trkpt lat="41.332103" lon="1.987605">
        <ele>97.9</ele>
        <time>1970-01-01T01:35:52.000Z</time>
      </trkpt>
      <trkpt lat="41.332103" lon="1.987605">
        <ele>97.9</ele>
        <time>1970-01-01T01:35:53.000Z</time>
      </trkpt>
      <trkpt lat="41.332097" lon="1.987755">
        <ele>97.9</ele>
        <time>1970-01-01T01:35:54.000Z</time>
      </trkpt>
      <trkpt lat="41.332063" lon="1.987815">
        <ele>96.9</ele>
        <time>1970-01-01T01:35:55.000Z</time>
      </trkpt>
      <trkpt lat="41.332027" lon="1.987863">
        <ele>96.9</ele>
        <time>1970-01-01T01:35:56.000Z</time>
      </trkpt>
      <trkpt lat="41.332027" lon="1.987863">
        <ele>96.9</ele>
        <time>1970-01-01T01:35:57.000Z</time>
      </trkpt>
      <trkpt lat="41.33194" lon="1.987922">
        <ele>96.9</ele>
        <time>1970-01-01T01:35:58.000Z</time>
      </trkpt>
      <trkpt lat="41.3319" lon="1.987958">
        <ele>96.9</ele>
        <time>1970-01-01T01:35:59.000Z</time>
      </trkpt>
      <trkpt lat="41.3319" lon="1.987958">
        <ele>96.9</ele>
        <time>1970-01-01T01:36:00.000Z</time>
      </trkpt>
      <trkpt lat="41.331842" lon="1.988037">
        <ele>96.9</ele>
        <time>1970-01-01T01:36:01.000Z</time>
      </trkpt>
      <trkpt lat="41.331817" lon="1.988073">
        <ele>96.9</ele>
        <time>1970-01-01T01:36:02.000Z</time>
      </trkpt>
      <trkpt lat="41.331817" lon="1.988073">
        <ele>96.9</ele>
        <time>1970-01-01T01:36:03.000Z</time>
      </trkpt>
      <trkpt lat="41.331783" lon="1.988137">
        <ele>96.9</ele>
        <time>1970-01-01T01:36:04.000Z</time>
      </trkpt>
      <trkpt lat="41.331783" lon="1.988137">
        <ele>97.9</ele>
        <time>1970-01-01T01:36:05.000Z</time>
      </trkpt>
      <trkpt lat="41.331757" lon="1.988198">
        <ele>97.9</ele>
        <time>1970-01-01T01:36:06.000Z</time>
      </trkpt>
      <trkpt lat="41.331757" lon="1.988198">
        <ele>97.9</ele>
        <time>1970-01-01T01:36:07.000Z</time>
      </trkpt>
      <trkpt lat="41.331728" lon="1.988257">
        <ele>97.9</ele>
        <time>1970-01-01T01:36:08.000Z</time>
      </trkpt>
      <trkpt lat="41.331728" lon="1.988257">
        <ele>99.9</ele>
        <time>1970-01-01T01:36:09.000Z</time>
      </trkpt>
      <trkpt lat="41.331703" lon="1.98831">
        <ele>99.9</ele>
        <time>1970-01-01T01:36:10.000Z</time>
      </trkpt>
      <trkpt lat="41.331703" lon="1.98831">
        <ele>99.9</ele>
        <time>1970-01-01T01:36:11.000Z</time>
      </trkpt>
      <trkpt lat="41.331688" lon="1.988373">
        <ele>99.9</ele>
        <time>1970-01-01T01:36:12.000Z</time>
      </trkpt>
      <trkpt lat="41.331688" lon="1.988373">
        <ele>100.9</ele>
        <time>1970-01-01T01:36:13.000Z</time>
      </trkpt>
      <trkpt lat="41.331677" lon="1.988447">
        <ele>100.9</ele>
        <time>1970-01-01T01:36:14.000Z</time>
      </trkpt>
      <trkpt lat="41.331677" lon="1.988447">
        <ele>100.9</ele>
        <time>1970-01-01T01:36:15.000Z</time>
      </trkpt>
      <trkpt lat="41.331668" lon="1.988513">
        <ele>100.9</ele>
        <time>1970-01-01T01:36:16.000Z</time>
      </trkpt>
      <trkpt lat="41.331668" lon="1.988513">
        <ele>100.9</ele>
        <time>1970-01-01T01:36:17.000Z</time>
      </trkpt>
      <trkpt lat="41.331652" lon="1.988573">
        <ele>100.9</ele>
        <time>1970-01-01T01:36:18.000Z</time>
      </trkpt>
      <trkpt lat="41.331643" lon="1.988612">
        <ele>101.9</ele>
        <time>1970-01-01T01:36:19.000Z</time>
      </trkpt>
      <trkpt lat="41.331643" lon="1.988612">
        <ele>101.9</ele>
        <time>1970-01-01T01:36:20.000Z</time>
      </trkpt>
      <trkpt lat="41.331633" lon="1.988692">
        <ele>101.9</ele>
        <time>1970-01-01T01:36:21.000Z</time>
      </trkpt>
      <trkpt lat="41.331628" lon="1.988743">
        <ele>101.9</ele>
        <time>1970-01-01T01:36:22.000Z</time>
      </trkpt>
      <trkpt lat="41.33162" lon="1.988783">
        <ele>101.9</ele>
        <time>1970-01-01T01:36:23.000Z</time>
      </trkpt>
      <trkpt lat="41.33162" lon="1.988783">
        <ele>101.9</ele>
        <time>1970-01-01T01:36:24.000Z</time>
      </trkpt>
      <trkpt lat="41.33162" lon="1.988857">
        <ele>101.9</ele>
        <time>1970-01-01T01:36:25.000Z</time>
      </trkpt>
      <trkpt lat="41.331625" lon="1.98889">
        <ele>101.9</ele>
        <time>1970-01-01T01:36:26.000Z</time>
      </trkpt>
      <trkpt lat="41.331625" lon="1.98889">
        <ele>101.9</ele>
        <time>1970-01-01T01:36:27.000Z</time>
      </trkpt>
      <trkpt lat="41.331638" lon="1.988968">
        <ele>101.9</ele>
        <time>1970-01-01T01:36:28.000Z</time>
      </trkpt>
      <trkpt lat="41.331648" lon="1.989013">
        <ele>101.9</ele>
        <time>1970-01-01T01:36:29.000Z</time>
      </trkpt>
      <trkpt lat="41.331648" lon="1.989013">
        <ele>101.9</ele>
        <time>1970-01-01T01:36:30.000Z</time>
      </trkpt>
      <trkpt lat="41.331683" lon="1.989128">
        <ele>101.9</ele>
        <time>1970-01-01T01:36:31.000Z</time>
      </trkpt>
      <trkpt lat="41.331707" lon="1.989183">
        <ele>101.9</ele>
        <time>1970-01-01T01:36:32.000Z</time>
      </trkpt>
      <trkpt lat="41.33174" lon="1.989238">
        <ele>101.9</ele>
        <time>1970-01-01T01:36:33.000Z</time>
      </trkpt>
      <trkpt lat="41.33174" lon="1.989238">
        <ele>101.9</ele>
        <time>1970-01-01T01:36:34.000Z</time>
      </trkpt>
      <trkpt lat="41.331817" lon="1.989342">
        <ele>101.9</ele>
        <time>1970-01-01T01:36:35.000Z</time>
      </trkpt>
      <trkpt lat="41.331817" lon="1.989342">
        <ele>101.9</ele>
        <time>1970-01-01T01:36:36.000Z</time>
      </trkpt>
      <trkpt lat="41.331895" lon="1.98943">
        <ele>100.9</ele>
        <time>1970-01-01T01:36:37.000Z</time>
      </trkpt>
      <trkpt lat="41.331933" lon="1.989473">
        <ele>100.9</ele>
        <time>1970-01-01T01:36:38.000Z</time>
      </trkpt>
      <trkpt lat="41.331933" lon="1.989473">
        <ele>100.9</ele>
        <time>1970-01-01T01:36:39.000Z</time>
      </trkpt>
      <trkpt lat="41.332012" lon="1.989577">
        <ele>100.9</ele>
        <time>1970-01-01T01:36:40.000Z</time>
      </trkpt>
      <trkpt lat="41.33205" lon="1.989627">
        <ele>99.9</ele>
        <time>1970-01-01T01:36:41.000Z</time>
      </trkpt>
      <trkpt lat="41.33205" lon="1.989627">
        <ele>99.9</ele>
        <time>1970-01-01T01:36:42.000Z</time>
      </trkpt>
      <trkpt lat="41.332137" lon="1.989712">
        <ele>99.9</ele>
        <time>1970-01-01T01:36:43.000Z</time>
      </trkpt>
      <trkpt lat="41.332137" lon="1.989712">
        <ele>99.9</ele>
        <time>1970-01-01T01:36:44.000Z</time>
      </trkpt>
      <trkpt lat="41.332225" lon="1.989768">
        <ele>99.9</ele>
        <time>1970-01-01T01:36:45.000Z</time>
      </trkpt>
      <trkpt lat="41.332225" lon="1.989768">
        <ele>99.9</ele>
        <time>1970-01-01T01:36:46.000Z</time>
      </trkpt>
      <trkpt lat="41.332308" lon="1.989832">
        <ele>99.9</ele>
        <time>1970-01-01T01:36:47.000Z</time>
      </trkpt>
      <trkpt lat="41.33235" lon="1.989862">
        <ele>99.9</ele>
        <time>1970-01-01T01:36:48.000Z</time>
      </trkpt>
      <trkpt lat="41.33235" lon="1.989862">
        <ele>99.9</ele>
        <time>1970-01-01T01:36:49.000Z</time>
      </trkpt>
      <trkpt lat="41.332385" lon="1.989963">
        <ele>99.9</ele>
        <time>1970-01-01T01:36:50.000Z</time>
      </trkpt>
      <trkpt lat="41.332385" lon="1.989963">
        <ele>99.9</ele>
        <time>1970-01-01T01:36:51.000Z</time>
      </trkpt>
      <trkpt lat="41.332352" lon="1.990063">
        <ele>99.9</ele>
        <time>1970-01-01T01:36:52.000Z</time>
      </trkpt>
      <trkpt lat="41.332322" lon="1.990092">
        <ele>99.9</ele>
        <time>1970-01-01T01:36:53.000Z</time>
      </trkpt>
      <trkpt lat="41.332322" lon="1.990092">
        <ele>99.9</ele>
        <time>1970-01-01T01:36:54.000Z</time>
      </trkpt>
      <trkpt lat="41.332248" lon="1.990122">
        <ele>99.9</ele>
        <time>1970-01-01T01:36:55.000Z</time>
      </trkpt>
      <trkpt lat="41.332212" lon="1.990152">
        <ele>99.9</ele>
        <time>1970-01-01T01:36:56.000Z</time>
      </trkpt>
      <trkpt lat="41.332212" lon="1.990152">
        <ele>99.9</ele>
        <time>1970-01-01T01:36:57.000Z</time>
      </trkpt>
      <trkpt lat="41.33216" lon="1.990213">
        <ele>99.9</ele>
        <time>1970-01-01T01:36:58.000Z</time>
      </trkpt>
      <trkpt lat="41.33216" lon="1.990213">
        <ele>100.9</ele>
        <time>1970-01-01T01:36:59.000Z</time>
      </trkpt>
      <trkpt lat="41.332107" lon="1.990257">
        <ele>100.9</ele>
        <time>1970-01-01T01:37:00.000Z</time>
      </trkpt>
      <trkpt lat="41.332107" lon="1.990257">
        <ele>101.9</ele>
        <time>1970-01-01T01:37:01.000Z</time>
      </trkpt>
      <trkpt lat="41.332052" lon="1.990317">
        <ele>101.9</ele>
        <time>1970-01-01T01:37:02.000Z</time>
      </trkpt>
      <trkpt lat="41.332052" lon="1.990317">
        <ele>101.9</ele>
        <time>1970-01-01T01:37:03.000Z</time>
      </trkpt>
      <trkpt lat="41.332007" lon="1.990378">
        <ele>101.9</ele>
        <time>1970-01-01T01:37:04.000Z</time>
      </trkpt>
      <trkpt lat="41.332007" lon="1.990378">
        <ele>102.9</ele>
        <time>1970-01-01T01:37:05.000Z</time>
      </trkpt>
      <trkpt lat="41.331968" lon="1.990448">
        <ele>102.9</ele>
        <time>1970-01-01T01:37:06.000Z</time>
      </trkpt>
      <trkpt lat="41.331968" lon="1.990448">
        <ele>102.9</ele>
        <time>1970-01-01T01:37:07.000Z</time>
      </trkpt>
      <trkpt lat="41.331942" lon="1.990528">
        <ele>103.9</ele>
        <time>1970-01-01T01:37:08.000Z</time>
      </trkpt>
      <trkpt lat="41.331942" lon="1.990528">
        <ele>103.9</ele>
        <time>1970-01-01T01:37:09.000Z</time>
      </trkpt>
      <trkpt lat="41.33193" lon="1.990608">
        <ele>103.9</ele>
        <time>1970-01-01T01:37:10.000Z</time>
      </trkpt>
      <trkpt lat="41.33193" lon="1.990608">
        <ele>103.9</ele>
        <time>1970-01-01T01:37:11.000Z</time>
      </trkpt>
      <trkpt lat="41.331937" lon="1.990693">
        <ele>103.9</ele>
        <time>1970-01-01T01:37:12.000Z</time>
      </trkpt>
      <trkpt lat="41.331943" lon="1.990737">
        <ele>104.9</ele>
        <time>1970-01-01T01:37:13.000Z</time>
      </trkpt>
      <trkpt lat="41.331953" lon="1.990777">
        <ele>104.9</ele>
        <time>1970-01-01T01:37:14.000Z</time>
      </trkpt>
      <trkpt lat="41.331953" lon="1.990777">
        <ele>104.9</ele>
        <time>1970-01-01T01:37:15.000Z</time>
      </trkpt>
      <trkpt lat="41.331983" lon="1.99085">
        <ele>105.9</ele>
        <time>1970-01-01T01:37:16.000Z</time>
      </trkpt>
      <trkpt lat="41.331983" lon="1.99085">
        <ele>105.9</ele>
        <time>1970-01-01T01:37:17.000Z</time>
      </trkpt>
      <trkpt lat="41.332027" lon="1.99091">
        <ele>105.9</ele>
        <time>1970-01-01T01:37:18.000Z</time>
      </trkpt>
      <trkpt lat="41.332027" lon="1.99091">
        <ele>105.9</ele>
        <time>1970-01-01T01:37:19.000Z</time>
      </trkpt>
      <trkpt lat="41.332072" lon="1.990962">
        <ele>105.9</ele>
        <time>1970-01-01T01:37:20.000Z</time>
      </trkpt>
      <trkpt lat="41.332072" lon="1.990962">
        <ele>105.9</ele>
        <time>1970-01-01T01:37:21.000Z</time>
      </trkpt>
      <trkpt lat="41.332125" lon="1.990998">
        <ele>106.9</ele>
        <time>1970-01-01T01:37:22.000Z</time>
      </trkpt>
      <trkpt lat="41.332125" lon="1.990998">
        <ele>106.9</ele>
        <time>1970-01-01T01:37:23.000Z</time>
      </trkpt>
      <trkpt lat="41.332178" lon="1.991043">
        <ele>106.9</ele>
        <time>1970-01-01T01:37:24.000Z</time>
      </trkpt>
      <trkpt lat="41.332178" lon="1.991043">
        <ele>106.9</ele>
        <time>1970-01-01T01:37:25.000Z</time>
      </trkpt>
      <trkpt lat="41.332232" lon="1.991097">
        <ele>106.9</ele>
        <time>1970-01-01T01:37:26.000Z</time>
      </trkpt>
      <trkpt lat="41.332232" lon="1.991097">
        <ele>106.9</ele>
        <time>1970-01-01T01:37:27.000Z</time>
      </trkpt>
      <trkpt lat="41.332273" lon="1.991158">
        <ele>106.9</ele>
        <time>1970-01-01T01:37:28.000Z</time>
      </trkpt>
      <trkpt lat="41.332273" lon="1.991158">
        <ele>106.9</ele>
        <time>1970-01-01T01:37:29.000Z</time>
      </trkpt>
      <trkpt lat="41.332308" lon="1.991223">
        <ele>107.9</ele>
        <time>1970-01-01T01:37:30.000Z</time>
      </trkpt>
      <trkpt lat="41.332322" lon="1.991252">
        <ele>107.9</ele>
        <time>1970-01-01T01:37:31.000Z</time>
      </trkpt>
      <trkpt lat="41.332332" lon="1.991287">
        <ele>107.9</ele>
        <time>1970-01-01T01:37:32.000Z</time>
      </trkpt>
      <trkpt lat="41.332332" lon="1.991287">
        <ele>107.9</ele>
        <time>1970-01-01T01:37:33.000Z</time>
      </trkpt>
      <trkpt lat="41.332352" lon="1.991357">
        <ele>107.9</ele>
        <time>1970-01-01T01:37:34.000Z</time>
      </trkpt>
      <trkpt lat="41.332363" lon="1.991387">
        <ele>107.9</ele>
        <time>1970-01-01T01:37:35.000Z</time>
      </trkpt>
      <trkpt lat="41.332363" lon="1.991387">
        <ele>108.9</ele>
        <time>1970-01-01T01:37:36.000Z</time>
      </trkpt>
      <trkpt lat="41.332375" lon="1.991462">
        <ele>108.9</ele>
        <time>1970-01-01T01:37:37.000Z</time>
      </trkpt>
      <trkpt lat="41.332377" lon="1.991503">
        <ele>108.9</ele>
        <time>1970-01-01T01:37:38.000Z</time>
      </trkpt>
      <trkpt lat="41.332377" lon="1.991503">
        <ele>108.9</ele>
        <time>1970-01-01T01:37:39.000Z</time>
      </trkpt>
      <trkpt lat="41.332377" lon="1.991587">
        <ele>108.9</ele>
        <time>1970-01-01T01:37:40.000Z</time>
      </trkpt>
      <trkpt lat="41.332383" lon="1.991623">
        <ele>108.9</ele>
        <time>1970-01-01T01:37:41.000Z</time>
      </trkpt>
      <trkpt lat="41.332383" lon="1.991623">
        <ele>109.9</ele>
        <time>1970-01-01T01:37:42.000Z</time>
      </trkpt>
      <trkpt lat="41.332395" lon="1.991698">
        <ele>109.9</ele>
        <time>1970-01-01T01:37:43.000Z</time>
      </trkpt>
      <trkpt lat="41.332395" lon="1.991698">
        <ele>109.9</ele>
        <time>1970-01-01T01:37:44.000Z</time>
      </trkpt>
      <trkpt lat="41.332408" lon="1.991775">
        <ele>109.9</ele>
        <time>1970-01-01T01:37:45.000Z</time>
      </trkpt>
      <trkpt lat="41.332408" lon="1.991775">
        <ele>109.9</ele>
        <time>1970-01-01T01:37:46.000Z</time>
      </trkpt>
      <trkpt lat="41.332433" lon="1.99184">
        <ele>109.9</ele>
        <time>1970-01-01T01:37:47.000Z</time>
      </trkpt>
      <trkpt lat="41.332433" lon="1.99184">
        <ele>110.9</ele>
        <time>1970-01-01T01:37:48.000Z</time>
      </trkpt>
      <trkpt lat="41.332458" lon="1.991895">
        <ele>110.9</ele>
        <time>1970-01-01T01:37:49.000Z</time>
      </trkpt>
      <trkpt lat="41.332467" lon="1.991923">
        <ele>110.9</ele>
        <time>1970-01-01T01:37:50.000Z</time>
      </trkpt>
      <trkpt lat="41.332467" lon="1.991923">
        <ele>110.9</ele>
        <time>1970-01-01T01:37:51.000Z</time>
      </trkpt>
      <trkpt lat="41.332495" lon="1.991973">
        <ele>110.9</ele>
        <time>1970-01-01T01:37:52.000Z</time>
      </trkpt>
      <trkpt lat="41.33251" lon="1.992">
        <ele>110.9</ele>
        <time>1970-01-01T01:37:53.000Z</time>
      </trkpt>
      <trkpt lat="41.33251" lon="1.992">
        <ele>111.9</ele>
        <time>1970-01-01T01:37:54.000Z</time>
      </trkpt>
      <trkpt lat="41.332535" lon="1.992058">
        <ele>111.9</ele>
        <time>1970-01-01T01:37:55.000Z</time>
      </trkpt>
      <trkpt lat="41.332545" lon="1.992093">
        <ele>111.9</ele>
        <time>1970-01-01T01:37:56.000Z</time>
      </trkpt>
      <trkpt lat="41.332545" lon="1.992093">
        <ele>112.9</ele>
        <time>1970-01-01T01:37:57.000Z</time>
      </trkpt>
      <trkpt lat="41.33254" lon="1.992157">
        <ele>112.9</ele>
        <time>1970-01-01T01:37:58.000Z</time>
      </trkpt>
      <trkpt lat="41.33254" lon="1.992157">
        <ele>112.9</ele>
        <time>1970-01-01T01:37:59.000Z</time>
      </trkpt>
      <trkpt lat="41.332508" lon="1.992193">
        <ele>112.9</ele>
        <time>1970-01-01T01:38:00.000Z</time>
      </trkpt>
      <trkpt lat="41.332487" lon="1.99221">
        <ele>113.9</ele>
        <time>1970-01-01T01:38:01.000Z</time>
      </trkpt>
      <trkpt lat="41.332487" lon="1.99221">
        <ele>113.9</ele>
        <time>1970-01-01T01:38:02.000Z</time>
      </trkpt>
      <trkpt lat="41.332415" lon="1.992227">
        <ele>113.9</ele>
        <time>1970-01-01T01:38:03.000Z</time>
      </trkpt>
      <trkpt lat="41.332363" lon="1.992233">
        <ele>113.9</ele>
        <time>1970-01-01T01:38:04.000Z</time>
      </trkpt>
      <trkpt lat="41.332363" lon="1.992233">
        <ele>112.9</ele>
        <time>1970-01-01T01:38:05.000Z</time>
      </trkpt>
      <trkpt lat="41.332238" lon="1.992253">
        <ele>112.9</ele>
        <time>1970-01-01T01:38:06.000Z</time>
      </trkpt>
      <trkpt lat="41.332238" lon="1.992253">
        <ele>111.9</ele>
        <time>1970-01-01T01:38:07.000Z</time>
      </trkpt>
      <trkpt lat="41.332093" lon="1.992277">
        <ele>111.9</ele>
        <time>1970-01-01T01:38:08.000Z</time>
      </trkpt>
      <trkpt lat="41.332093" lon="1.992277">
        <ele>110.9</ele>
        <time>1970-01-01T01:38:09.000Z</time>
      </trkpt>
      <trkpt lat="41.33193" lon="1.992285">
        <ele>110.9</ele>
        <time>1970-01-01T01:38:10.000Z</time>
      </trkpt>
      <trkpt lat="41.33185" lon="1.992288">
        <ele>109.9</ele>
        <time>1970-01-01T01:38:11.000Z</time>
      </trkpt>
      <trkpt lat="41.33185" lon="1.992288">
        <ele>109.9</ele>
        <time>1970-01-01T01:38:12.000Z</time>
      </trkpt>
      <trkpt lat="41.331693" lon="1.992292">
        <ele>108.9</ele>
        <time>1970-01-01T01:38:13.000Z</time>
      </trkpt>
      <trkpt lat="41.331617" lon="1.992293">
        <ele>108.9</ele>
        <time>1970-01-01T01:38:14.000Z</time>
      </trkpt>
      <trkpt lat="41.331617" lon="1.992293">
        <ele>108.9</ele>
        <time>1970-01-01T01:38:15.000Z</time>
      </trkpt>
      <trkpt lat="41.331467" lon="1.99227">
        <ele>108.9</ele>
        <time>1970-01-01T01:38:16.000Z</time>
      </trkpt>
      <trkpt lat="41.331387" lon="1.992242">
        <ele>107.9</ele>
        <time>1970-01-01T01:38:17.000Z</time>
      </trkpt>
      <trkpt lat="41.331387" lon="1.992242">
        <ele>107.9</ele>
        <time>1970-01-01T01:38:18.000Z</time>
      </trkpt>
      <trkpt lat="41.331235" lon="1.99218">
        <ele>106.9</ele>
        <time>1970-01-01T01:38:19.000Z</time>
      </trkpt>
      <trkpt lat="41.331235" lon="1.99218">
        <ele>106.9</ele>
        <time>1970-01-01T01:38:20.000Z</time>
      </trkpt>
      <trkpt lat="41.331108" lon="1.992132">
        <ele>104.9</ele>
        <time>1970-01-01T01:38:21.000Z</time>
      </trkpt>
      <trkpt lat="41.331057" lon="1.992105">
        <ele>104.9</ele>
        <time>1970-01-01T01:38:22.000Z</time>
      </trkpt>
      <trkpt lat="41.331057" lon="1.992105">
        <ele>103.9</ele>
        <time>1970-01-01T01:38:23.000Z</time>
      </trkpt>
      <trkpt lat="41.330957" lon="1.99205">
        <ele>103.9</ele>
        <time>1970-01-01T01:38:24.000Z</time>
      </trkpt>
      <trkpt lat="41.330912" lon="1.992017">
        <ele>102.9</ele>
        <time>1970-01-01T01:38:25.000Z</time>
      </trkpt>
      <trkpt lat="41.330912" lon="1.992017">
        <ele>102.9</ele>
        <time>1970-01-01T01:38:26.000Z</time>
      </trkpt>
      <trkpt lat="41.330817" lon="1.991962">
        <ele>101.9</ele>
        <time>1970-01-01T01:38:27.000Z</time>
      </trkpt>
      <trkpt lat="41.330763" lon="1.991928">
        <ele>101.9</ele>
        <time>1970-01-01T01:38:28.000Z</time>
      </trkpt>
      <trkpt lat="41.330763" lon="1.991928">
        <ele>100.9</ele>
        <time>1970-01-01T01:38:29.000Z</time>
      </trkpt>
      <trkpt lat="41.33064" lon="1.991863">
        <ele>100.9</ele>
        <time>1970-01-01T01:38:30.000Z</time>
      </trkpt>
      <trkpt lat="41.33058" lon="1.991833">
        <ele>99.9</ele>
        <time>1970-01-01T01:38:31.000Z</time>
      </trkpt>
      <trkpt lat="41.330523" lon="1.991795">
        <ele>99.9</ele>
        <time>1970-01-01T01:38:32.000Z</time>
      </trkpt>
      <trkpt lat="41.330523" lon="1.991795">
        <ele>98.9</ele>
        <time>1970-01-01T01:38:33.000Z</time>
      </trkpt>
      <trkpt lat="41.330415" lon="1.991725">
        <ele>96.9</ele>
        <time>1970-01-01T01:38:34.000Z</time>
      </trkpt>
      <trkpt lat="41.330415" lon="1.991725">
        <ele>96.9</ele>
        <time>1970-01-01T01:38:35.000Z</time>
      </trkpt>
      <trkpt lat="41.330298" lon="1.991662">
        <ele>96.9</ele>
        <time>1970-01-01T01:38:36.000Z</time>
      </trkpt>
      <trkpt lat="41.330235" lon="1.991633">
        <ele>94.9</ele>
        <time>1970-01-01T01:38:37.000Z</time>
      </trkpt>
      <trkpt lat="41.330172" lon="1.991608">
        <ele>92.9</ele>
        <time>1970-01-01T01:38:38.000Z</time>
      </trkpt>
      <trkpt lat="41.330172" lon="1.991608">
        <ele>92.9</ele>
        <time>1970-01-01T01:38:39.000Z</time>
      </trkpt>
      <trkpt lat="41.330047" lon="1.991545">
        <ele>89.9</ele>
        <time>1970-01-01T01:38:40.000Z</time>
      </trkpt>
      <trkpt lat="41.329978" lon="1.991515">
        <ele>89.9</ele>
        <time>1970-01-01T01:38:41.000Z</time>
      </trkpt>
      <trkpt lat="41.329978" lon="1.991515">
        <ele>86.9</ele>
        <time>1970-01-01T01:38:42.000Z</time>
      </trkpt>
      <trkpt lat="41.329847" lon="1.991467">
        <ele>86.9</ele>
        <time>1970-01-01T01:38:43.000Z</time>
      </trkpt>
      <trkpt lat="41.329847" lon="1.991467">
        <ele>83.9</ele>
        <time>1970-01-01T01:38:44.000Z</time>
      </trkpt>
      <trkpt lat="41.329718" lon="1.991512">
        <ele>83.9</ele>
        <time>1970-01-01T01:38:45.000Z</time>
      </trkpt>
      <trkpt lat="41.329718" lon="1.991512">
        <ele>80.9</ele>
        <time>1970-01-01T01:38:46.000Z</time>
      </trkpt>
      <trkpt lat="41.32959" lon="1.991635">
        <ele>80.9</ele>
        <time>1970-01-01T01:38:47.000Z</time>
      </trkpt>
      <trkpt lat="41.329517" lon="1.991698">
        <ele>77.9</ele>
        <time>1970-01-01T01:38:48.000Z</time>
      </trkpt>
      <trkpt lat="41.329517" lon="1.991698">
        <ele>77.9</ele>
        <time>1970-01-01T01:38:49.000Z</time>
      </trkpt>
      <trkpt lat="41.329377" lon="1.99183">
        <ele>75.9</ele>
        <time>1970-01-01T01:38:50.000Z</time>
      </trkpt>
      <trkpt lat="41.329377" lon="1.99183">
        <ele>75.9</ele>
        <time>1970-01-01T01:38:51.000Z</time>
      </trkpt>
      <trkpt lat="41.329243" lon="1.991975">
        <ele>72.9</ele>
        <time>1970-01-01T01:38:52.000Z</time>
      </trkpt>
      <trkpt lat="41.329195" lon="1.992062">
        <ele>72.9</ele>
        <time>1970-01-01T01:38:53.000Z</time>
      </trkpt>
      <trkpt lat="41.329195" lon="1.992062">
        <ele>70.9</ele>
        <time>1970-01-01T01:38:54.000Z</time>
      </trkpt>
      <trkpt lat="41.329133" lon="1.992242">
        <ele>70.9</ele>
        <time>1970-01-01T01:38:55.000Z</time>
      </trkpt>
      <trkpt lat="41.329133" lon="1.992242">
        <ele>69.9</ele>
        <time>1970-01-01T01:38:56.000Z</time>
      </trkpt>
      <trkpt lat="41.32911" lon="1.992425">
        <ele>69.9</ele>
        <time>1970-01-01T01:38:57.000Z</time>
      </trkpt>
      <trkpt lat="41.32911" lon="1.992425">
        <ele>67.9</ele>
        <time>1970-01-01T01:38:58.000Z</time>
      </trkpt>
      <trkpt lat="41.329127" lon="1.992643">
        <ele>67.9</ele>
        <time>1970-01-01T01:38:59.000Z</time>
      </trkpt>
      <trkpt lat="41.329127" lon="1.992643">
        <ele>65.9</ele>
        <time>1970-01-01T01:39:00.000Z</time>
      </trkpt>
      <trkpt lat="41.329133" lon="1.992855">
        <ele>65.9</ele>
        <time>1970-01-01T01:39:01.000Z</time>
      </trkpt>
      <trkpt lat="41.329133" lon="1.992855">
        <ele>63.9</ele>
        <time>1970-01-01T01:39:02.000Z</time>
      </trkpt>
      <trkpt lat="41.329173" lon="1.993075">
        <ele>63.9</ele>
        <time>1970-01-01T01:39:03.000Z</time>
      </trkpt>
      <trkpt lat="41.329173" lon="1.993075">
        <ele>61.9</ele>
        <time>1970-01-01T01:39:04.000Z</time>
      </trkpt>
      <trkpt lat="41.329235" lon="1.99324">
        <ele>61.9</ele>
        <time>1970-01-01T01:39:05.000Z</time>
      </trkpt>
      <trkpt lat="41.329265" lon="1.993312">
        <ele>60.9</ele>
        <time>1970-01-01T01:39:06.000Z</time>
      </trkpt>
      <trkpt lat="41.329265" lon="1.993312">
        <ele>60.9</ele>
        <time>1970-01-01T01:39:07.000Z</time>
      </trkpt>
      <trkpt lat="41.329253" lon="1.99347">
        <ele>57.9</ele>
        <time>1970-01-01T01:39:08.000Z</time>
      </trkpt>
      <trkpt lat="41.329253" lon="1.99347">
        <ele>57.9</ele>
        <time>1970-01-01T01:39:09.000Z</time>
      </trkpt>
      <trkpt lat="41.329205" lon="1.99366">
        <ele>55.9</ele>
        <time>1970-01-01T01:39:10.000Z</time>
      </trkpt>
      <trkpt lat="41.329198" lon="1.993757">
        <ele>55.9</ele>
        <time>1970-01-01T01:39:11.000Z</time>
      </trkpt>
      <trkpt lat="41.3292" lon="1.99385">
        <ele>53.9</ele>
        <time>1970-01-01T01:39:12.000Z</time>
      </trkpt>
      <trkpt lat="41.3292" lon="1.99385">
        <ele>51.9</ele>
        <time>1970-01-01T01:39:13.000Z</time>
      </trkpt>
      <trkpt lat="41.329262" lon="1.993998">
        <ele>51.9</ele>
        <time>1970-01-01T01:39:14.000Z</time>
      </trkpt>
      <trkpt lat="41.329262" lon="1.993998">
        <ele>51.9</ele>
        <time>1970-01-01T01:39:15.000Z</time>
      </trkpt>
      <trkpt lat="41.329343" lon="1.994103">
        <ele>51.9</ele>
        <time>1970-01-01T01:39:16.000Z</time>
      </trkpt>
      <trkpt lat="41.329343" lon="1.994103">
        <ele>51.9</ele>
        <time>1970-01-01T01:39:17.000Z</time>
      </trkpt>
      <trkpt lat="41.329423" lon="1.994185">
        <ele>51.9</ele>
        <time>1970-01-01T01:39:18.000Z</time>
      </trkpt>
      <trkpt lat="41.329463" lon="1.994242">
        <ele>51.9</ele>
        <time>1970-01-01T01:39:19.000Z</time>
      </trkpt>
      <trkpt lat="41.329463" lon="1.994242">
        <ele>51.9</ele>
        <time>1970-01-01T01:39:20.000Z</time>
      </trkpt>
      <trkpt lat="41.329528" lon="1.994365">
        <ele>51.9</ele>
        <time>1970-01-01T01:39:21.000Z</time>
      </trkpt>
      <trkpt lat="41.329557" lon="1.994428">
        <ele>51.9</ele>
        <time>1970-01-01T01:39:22.000Z</time>
      </trkpt>
      <trkpt lat="41.32958" lon="1.9945">
        <ele>50.9</ele>
        <time>1970-01-01T01:39:23.000Z</time>
      </trkpt>
      <trkpt lat="41.32958" lon="1.9945">
        <ele>50.9</ele>
        <time>1970-01-01T01:39:24.000Z</time>
      </trkpt>
      <trkpt lat="41.329617" lon="1.99464">
        <ele>50.9</ele>
        <time>1970-01-01T01:39:25.000Z</time>
      </trkpt>
      <trkpt lat="41.329623" lon="1.994708">
        <ele>50.9</ele>
        <time>1970-01-01T01:39:26.000Z</time>
      </trkpt>
      <trkpt lat="41.329623" lon="1.994708">
        <ele>50.9</ele>
        <time>1970-01-01T01:39:27.000Z</time>
      </trkpt>
      <trkpt lat="41.329583" lon="1.994833">
        <ele>50.9</ele>
        <time>1970-01-01T01:39:28.000Z</time>
      </trkpt>
      <trkpt lat="41.329538" lon="1.994883">
        <ele>50.9</ele>
        <time>1970-01-01T01:39:29.000Z</time>
      </trkpt>
      <trkpt lat="41.329538" lon="1.994883">
        <ele>49.9</ele>
        <time>1970-01-01T01:39:30.000Z</time>
      </trkpt>
      <trkpt lat="41.32945" lon="1.994985">
        <ele>49.9</ele>
        <time>1970-01-01T01:39:31.000Z</time>
      </trkpt>
      <trkpt lat="41.32945" lon="1.994985">
        <ele>48.9</ele>
        <time>1970-01-01T01:39:32.000Z</time>
      </trkpt>
      <trkpt lat="41.329355" lon="1.99502">
        <ele>48.9</ele>
        <time>1970-01-01T01:39:33.000Z</time>
      </trkpt>
      <trkpt lat="41.329355" lon="1.99502">
        <ele>48.9</ele>
        <time>1970-01-01T01:39:34.000Z</time>
      </trkpt>
      <trkpt lat="41.329262" lon="1.995047">
        <ele>48.9</ele>
        <time>1970-01-01T01:39:35.000Z</time>
      </trkpt>
      <trkpt lat="41.329222" lon="1.995068">
        <ele>48.9</ele>
        <time>1970-01-01T01:39:36.000Z</time>
      </trkpt>
      <trkpt lat="41.329222" lon="1.995068">
        <ele>48.9</ele>
        <time>1970-01-01T01:39:37.000Z</time>
      </trkpt>
      <trkpt lat="41.329147" lon="1.995117">
        <ele>48.9</ele>
        <time>1970-01-01T01:39:38.000Z</time>
      </trkpt>
      <trkpt lat="41.329147" lon="1.995117">
        <ele>48.9</ele>
        <time>1970-01-01T01:39:39.000Z</time>
      </trkpt>
      <trkpt lat="41.329075" lon="1.995172">
        <ele>48.9</ele>
        <time>1970-01-01T01:39:40.000Z</time>
      </trkpt>
      <trkpt lat="41.329047" lon="1.995205">
        <ele>48.9</ele>
        <time>1970-01-01T01:39:41.000Z</time>
      </trkpt>
      <trkpt lat="41.329047" lon="1.995205">
        <ele>48.9</ele>
        <time>1970-01-01T01:39:42.000Z</time>
      </trkpt>
      <trkpt lat="41.329" lon="1.995287">
        <ele>48.9</ele>
        <time>1970-01-01T01:39:43.000Z</time>
      </trkpt>
      <trkpt lat="41.32898" lon="1.995333">
        <ele>49.9</ele>
        <time>1970-01-01T01:39:44.000Z</time>
      </trkpt>
      <trkpt lat="41.32898" lon="1.995333">
        <ele>49.9</ele>
        <time>1970-01-01T01:39:45.000Z</time>
      </trkpt>
      <trkpt lat="41.328953" lon="1.995428">
        <ele>49.9</ele>
        <time>1970-01-01T01:39:46.000Z</time>
      </trkpt>
      <trkpt lat="41.328947" lon="1.99547">
        <ele>49.9</ele>
        <time>1970-01-01T01:39:47.000Z</time>
      </trkpt>
      <trkpt lat="41.328947" lon="1.99547">
        <ele>50.9</ele>
        <time>1970-01-01T01:39:48.000Z</time>
      </trkpt>
      <trkpt lat="41.328953" lon="1.995583">
        <ele>50.9</ele>
        <time>1970-01-01T01:39:49.000Z</time>
      </trkpt>
      <trkpt lat="41.328953" lon="1.995583">
        <ele>50.9</ele>
        <time>1970-01-01T01:39:50.000Z</time>
      </trkpt>
      <trkpt lat="41.328977" lon="1.995688">
        <ele>50.9</ele>
        <time>1970-01-01T01:39:51.000Z</time>
      </trkpt>
      <trkpt lat="41.328992" lon="1.995745">
        <ele>50.9</ele>
        <time>1970-01-01T01:39:52.000Z</time>
      </trkpt>
      <trkpt lat="41.328992" lon="1.995745">
        <ele>50.9</ele>
        <time>1970-01-01T01:39:53.000Z</time>
      </trkpt>
      <trkpt lat="41.329032" lon="1.995847">
        <ele>50.9</ele>
        <time>1970-01-01T01:39:54.000Z</time>
      </trkpt>
      <trkpt lat="41.329055" lon="1.995893">
        <ele>51.9</ele>
        <time>1970-01-01T01:39:55.000Z</time>
      </trkpt>
      <trkpt lat="41.329055" lon="1.995893">
        <ele>51.9</ele>
        <time>1970-01-01T01:39:56.000Z</time>
      </trkpt>
      <trkpt lat="41.32911" lon="1.995985">
        <ele>51.9</ele>
        <time>1970-01-01T01:39:57.000Z</time>
      </trkpt>
      <trkpt lat="41.32911" lon="1.995985">
        <ele>51.9</ele>
        <time>1970-01-01T01:39:58.000Z</time>
      </trkpt>
      <trkpt lat="41.329197" lon="1.996055">
        <ele>51.9</ele>
        <time>1970-01-01T01:39:59.000Z</time>
      </trkpt>
      <trkpt lat="41.329197" lon="1.996055">
        <ele>51.9</ele>
        <time>1970-01-01T01:40:00.000Z</time>
      </trkpt>
      <trkpt lat="41.329295" lon="1.99613">
        <ele>51.9</ele>
        <time>1970-01-01T01:40:01.000Z</time>
      </trkpt>
      <trkpt lat="41.329357" lon="1.996175">
        <ele>50.9</ele>
        <time>1970-01-01T01:40:02.000Z</time>
      </trkpt>
      <trkpt lat="41.329357" lon="1.996175">
        <ele>50.9</ele>
        <time>1970-01-01T01:40:03.000Z</time>
      </trkpt>
      <trkpt lat="41.32946" lon="1.996275">
        <ele>50.9</ele>
        <time>1970-01-01T01:40:04.000Z</time>
      </trkpt>
      <trkpt lat="41.32946" lon="1.996275">
        <ele>50.9</ele>
        <time>1970-01-01T01:40:05.000Z</time>
      </trkpt>
      <trkpt lat="41.329563" lon="1.996408">
        <ele>49.9</ele>
        <time>1970-01-01T01:40:06.000Z</time>
      </trkpt>
      <trkpt lat="41.329563" lon="1.996408">
        <ele>49.9</ele>
        <time>1970-01-01T01:40:07.000Z</time>
      </trkpt>
      <trkpt lat="41.329675" lon="1.996552">
        <ele>49.9</ele>
        <time>1970-01-01T01:40:08.000Z</time>
      </trkpt>
      <trkpt lat="41.329675" lon="1.996552">
        <ele>49.9</ele>
        <time>1970-01-01T01:40:09.000Z</time>
      </trkpt>
      <trkpt lat="41.329788" lon="1.996707">
        <ele>48.9</ele>
        <time>1970-01-01T01:40:10.000Z</time>
      </trkpt>
      <trkpt lat="41.329788" lon="1.996707">
        <ele>48.9</ele>
        <time>1970-01-01T01:40:11.000Z</time>
      </trkpt>
      <trkpt lat="41.329893" lon="1.996882">
        <ele>47.9</ele>
        <time>1970-01-01T01:40:12.000Z</time>
      </trkpt>
      <trkpt lat="41.329938" lon="1.996973">
        <ele>47.9</ele>
        <time>1970-01-01T01:40:13.000Z</time>
      </trkpt>
      <trkpt lat="41.329938" lon="1.996973">
        <ele>46.9</ele>
        <time>1970-01-01T01:40:14.000Z</time>
      </trkpt>
      <trkpt lat="41.330025" lon="1.99716">
        <ele>46.9</ele>
        <time>1970-01-01T01:40:15.000Z</time>
      </trkpt>
      <trkpt lat="41.330025" lon="1.99716">
        <ele>46.9</ele>
        <time>1970-01-01T01:40:16.000Z</time>
      </trkpt>
      <trkpt lat="41.330095" lon="1.997372">
        <ele>46.9</ele>
        <time>1970-01-01T01:40:17.000Z</time>
      </trkpt>
      <trkpt lat="41.330095" lon="1.997372">
        <ele>45.9</ele>
        <time>1970-01-01T01:40:18.000Z</time>
      </trkpt>
      <trkpt lat="41.33016" lon="1.997582">
        <ele>45.9</ele>
        <time>1970-01-01T01:40:19.000Z</time>
      </trkpt>
      <trkpt lat="41.33016" lon="1.997582">
        <ele>44.9</ele>
        <time>1970-01-01T01:40:20.000Z</time>
      </trkpt>
      <trkpt lat="41.3302" lon="1.997778">
        <ele>44.9</ele>
        <time>1970-01-01T01:40:21.000Z</time>
      </trkpt>
      <trkpt lat="41.3302" lon="1.997778">
        <ele>44.9</ele>
        <time>1970-01-01T01:40:22.000Z</time>
      </trkpt>
      <trkpt lat="41.330187" lon="1.997962">
        <ele>44.9</ele>
        <time>1970-01-01T01:40:23.000Z</time>
      </trkpt>
      <trkpt lat="41.330187" lon="1.997962">
        <ele>44.9</ele>
        <time>1970-01-01T01:40:24.000Z</time>
      </trkpt>
      <trkpt lat="41.330095" lon="1.998113">
        <ele>44.9</ele>
        <time>1970-01-01T01:40:25.000Z</time>
      </trkpt>
      <trkpt lat="41.330095" lon="1.998113">
        <ele>43.9</ele>
        <time>1970-01-01T01:40:26.000Z</time>
      </trkpt>
      <trkpt lat="41.32999" lon="1.998198">
        <ele>43.9</ele>
        <time>1970-01-01T01:40:27.000Z</time>
      </trkpt>
      <trkpt lat="41.32999" lon="1.998198">
        <ele>43.9</ele>
        <time>1970-01-01T01:40:28.000Z</time>
      </trkpt>
      <trkpt lat="41.32988" lon="1.998288">
        <ele>43.9</ele>
        <time>1970-01-01T01:40:29.000Z</time>
      </trkpt>
      <trkpt lat="41.32988" lon="1.998288">
        <ele>43.9</ele>
        <time>1970-01-01T01:40:30.000Z</time>
      </trkpt>
      <trkpt lat="41.329782" lon="1.998375">
        <ele>43.9</ele>
        <time>1970-01-01T01:40:31.000Z</time>
      </trkpt>
      <trkpt lat="41.329737" lon="1.998418">
        <ele>43.9</ele>
        <time>1970-01-01T01:40:32.000Z</time>
      </trkpt>
      <trkpt lat="41.329737" lon="1.998418">
        <ele>43.9</ele>
        <time>1970-01-01T01:40:33.000Z</time>
      </trkpt>
      <trkpt lat="41.329677" lon="1.998528">
        <ele>43.9</ele>
        <time>1970-01-01T01:40:34.000Z</time>
      </trkpt>
      <trkpt lat="41.329665" lon="1.9986">
        <ele>43.9</ele>
        <time>1970-01-01T01:40:35.000Z</time>
      </trkpt>
      <trkpt lat="41.329668" lon="1.998683">
        <ele>43.9</ele>
        <time>1970-01-01T01:40:36.000Z</time>
      </trkpt>
      <trkpt lat="41.329668" lon="1.998683">
        <ele>43.9</ele>
        <time>1970-01-01T01:40:37.000Z</time>
      </trkpt>
      <trkpt lat="41.329662" lon="1.99885">
        <ele>42.9</ele>
        <time>1970-01-01T01:40:38.000Z</time>
      </trkpt>
      <trkpt lat="41.329662" lon="1.99885">
        <ele>42.9</ele>
        <time>1970-01-01T01:40:39.000Z</time>
      </trkpt>
      <trkpt lat="41.329618" lon="1.998995">
        <ele>42.9</ele>
        <time>1970-01-01T01:40:40.000Z</time>
      </trkpt>
      <trkpt lat="41.329618" lon="1.998995">
        <ele>42.9</ele>
        <time>1970-01-01T01:40:41.000Z</time>
      </trkpt>
      <trkpt lat="41.32954" lon="1.999128">
        <ele>41.9</ele>
        <time>1970-01-01T01:40:42.000Z</time>
      </trkpt>
      <trkpt lat="41.32954" lon="1.999128">
        <ele>41.9</ele>
        <time>1970-01-01T01:40:43.000Z</time>
      </trkpt>
      <trkpt lat="41.32948" lon="1.99927">
        <ele>41.9</ele>
        <time>1970-01-01T01:40:44.000Z</time>
      </trkpt>
      <trkpt lat="41.32948" lon="1.99927">
        <ele>41.9</ele>
        <time>1970-01-01T01:40:45.000Z</time>
      </trkpt>
      <trkpt lat="41.329505" lon="1.999438">
        <ele>40.9</ele>
        <time>1970-01-01T01:40:46.000Z</time>
      </trkpt>
      <trkpt lat="41.329505" lon="1.999438">
        <ele>40.9</ele>
        <time>1970-01-01T01:40:47.000Z</time>
      </trkpt>
      <trkpt lat="41.329562" lon="1.999617">
        <ele>39.9</ele>
        <time>1970-01-01T01:40:48.000Z</time>
      </trkpt>
      <trkpt lat="41.329562" lon="1.999617">
        <ele>39.9</ele>
        <time>1970-01-01T01:40:49.000Z</time>
      </trkpt>
      <trkpt lat="41.329637" lon="1.99979">
        <ele>39.9</ele>
        <time>1970-01-01T01:40:50.000Z</time>
      </trkpt>
      <trkpt lat="41.329637" lon="1.99979">
        <ele>37.9</ele>
        <time>1970-01-01T01:40:51.000Z</time>
      </trkpt>
      <trkpt lat="41.329757" lon="1.99989">
        <ele>37.9</ele>
        <time>1970-01-01T01:40:52.000Z</time>
      </trkpt>
      <trkpt lat="41.329757" lon="1.99989">
        <ele>37.9</ele>
        <time>1970-01-01T01:40:53.000Z</time>
      </trkpt>
      <trkpt lat="41.329895" lon="1.999952">
        <ele>37.9</ele>
        <time>1970-01-01T01:40:54.000Z</time>
      </trkpt>
      <trkpt lat="41.329895" lon="1.999952">
        <ele>36.9</ele>
        <time>1970-01-01T01:40:55.000Z</time>
      </trkpt>
      <trkpt lat="41.330032" lon="2.000015">
        <ele>36.9</ele>
        <time>1970-01-01T01:40:56.000Z</time>
      </trkpt>
      <trkpt lat="41.330032" lon="2.000015">
        <ele>36.9</ele>
        <time>1970-01-01T01:40:57.000Z</time>
      </trkpt>
      <trkpt lat="41.330165" lon="2.000083">
        <ele>36.9</ele>
        <time>1970-01-01T01:40:58.000Z</time>
      </trkpt>
      <trkpt lat="41.330165" lon="2.000083">
        <ele>35.9</ele>
        <time>1970-01-01T01:40:59.000Z</time>
      </trkpt>
      <trkpt lat="41.330303" lon="2.000162">
        <ele>35.9</ele>
        <time>1970-01-01T01:41:00.000Z</time>
      </trkpt>
      <trkpt lat="41.330303" lon="2.000162">
        <ele>34.9</ele>
        <time>1970-01-01T01:41:01.000Z</time>
      </trkpt>
      <trkpt lat="41.330437" lon="2.000287">
        <ele>34.9</ele>
        <time>1970-01-01T01:41:02.000Z</time>
      </trkpt>
      <trkpt lat="41.330487" lon="2.000363">
        <ele>34.9</ele>
        <time>1970-01-01T01:41:03.000Z</time>
      </trkpt>
      <trkpt lat="41.330487" lon="2.000363">
        <ele>34.9</ele>
        <time>1970-01-01T01:41:04.000Z</time>
      </trkpt>
      <trkpt lat="41.33058" lon="2.00053">
        <ele>33.9</ele>
        <time>1970-01-01T01:41:05.000Z</time>
      </trkpt>
      <trkpt lat="41.330623" lon="2.00061">
        <ele>33.9</ele>
        <time>1970-01-01T01:41:06.000Z</time>
      </trkpt>
      <trkpt lat="41.33066" lon="2.000688">
        <ele>33.9</ele>
        <time>1970-01-01T01:41:07.000Z</time>
      </trkpt>
      <trkpt lat="41.330685" lon="2.000767">
        <ele>33.9</ele>
        <time>1970-01-01T01:41:08.000Z</time>
      </trkpt>
      <trkpt lat="41.330685" lon="2.000767">
        <ele>32.9</ele>
        <time>1970-01-01T01:41:09.000Z</time>
      </trkpt>
      <trkpt lat="41.330715" lon="2.00091">
        <ele>32.9</ele>
        <time>1970-01-01T01:41:10.000Z</time>
      </trkpt>
      <trkpt lat="41.330727" lon="2.000978">
        <ele>32.9</ele>
        <time>1970-01-01T01:41:11.000Z</time>
      </trkpt>
      <trkpt lat="41.330727" lon="2.000978">
        <ele>32.9</ele>
        <time>1970-01-01T01:41:12.000Z</time>
      </trkpt>
      <trkpt lat="41.330767" lon="2.001103">
        <ele>32.9</ele>
        <time>1970-01-01T01:41:13.000Z</time>
      </trkpt>
      <trkpt lat="41.330803" lon="2.001153">
        <ele>32.9</ele>
        <time>1970-01-01T01:41:14.000Z</time>
      </trkpt>
      <trkpt lat="41.330803" lon="2.001153">
        <ele>32.9</ele>
        <time>1970-01-01T01:41:15.000Z</time>
      </trkpt>
      <trkpt lat="41.330888" lon="2.001232">
        <ele>32.9</ele>
        <time>1970-01-01T01:41:16.000Z</time>
      </trkpt>
      <trkpt lat="41.330935" lon="2.001267">
        <ele>32.9</ele>
        <time>1970-01-01T01:41:17.000Z</time>
      </trkpt>
      <trkpt lat="41.330935" lon="2.001267">
        <ele>32.9</ele>
        <time>1970-01-01T01:41:18.000Z</time>
      </trkpt>
      <trkpt lat="41.331022" lon="2.001333">
        <ele>31.9</ele>
        <time>1970-01-01T01:41:19.000Z</time>
      </trkpt>
      <trkpt lat="41.331022" lon="2.001333">
        <ele>31.9</ele>
        <time>1970-01-01T01:41:20.000Z</time>
      </trkpt>
      <trkpt lat="41.331098" lon="2.001403">
        <ele>31.9</ele>
        <time>1970-01-01T01:41:21.000Z</time>
      </trkpt>
      <trkpt lat="41.331133" lon="2.001442">
        <ele>31.9</ele>
        <time>1970-01-01T01:41:22.000Z</time>
      </trkpt>
      <trkpt lat="41.331133" lon="2.001442">
        <ele>31.9</ele>
        <time>1970-01-01T01:41:23.000Z</time>
      </trkpt>
      <trkpt lat="41.331203" lon="2.001512">
        <ele>32.9</ele>
        <time>1970-01-01T01:41:24.000Z</time>
      </trkpt>
      <trkpt lat="41.331203" lon="2.001512">
        <ele>32.9</ele>
        <time>1970-01-01T01:41:25.000Z</time>
      </trkpt>
      <trkpt lat="41.331257" lon="2.001598">
        <ele>32.9</ele>
        <time>1970-01-01T01:41:26.000Z</time>
      </trkpt>
      <trkpt lat="41.331257" lon="2.001598">
        <ele>32.9</ele>
        <time>1970-01-01T01:41:27.000Z</time>
      </trkpt>
      <trkpt lat="41.331288" lon="2.001688">
        <ele>32.9</ele>
        <time>1970-01-01T01:41:28.000Z</time>
      </trkpt>
      <trkpt lat="41.331302" lon="2.001735">
        <ele>32.9</ele>
        <time>1970-01-01T01:41:29.000Z</time>
      </trkpt>
      <trkpt lat="41.331317" lon="2.001782">
        <ele>32.9</ele>
        <time>1970-01-01T01:41:30.000Z</time>
      </trkpt>
      <trkpt lat="41.331317" lon="2.001782">
        <ele>32.9</ele>
        <time>1970-01-01T01:41:31.000Z</time>
      </trkpt>
      <trkpt lat="41.331358" lon="2.001877">
        <ele>32.9</ele>
        <time>1970-01-01T01:41:32.000Z</time>
      </trkpt>
      <trkpt lat="41.331358" lon="2.001877">
        <ele>32.9</ele>
        <time>1970-01-01T01:41:33.000Z</time>
      </trkpt>
      <trkpt lat="41.331405" lon="2.001973">
        <ele>32.9</ele>
        <time>1970-01-01T01:41:34.000Z</time>
      </trkpt>
      <trkpt lat="41.331428" lon="2.002013">
        <ele>32.9</ele>
        <time>1970-01-01T01:41:35.000Z</time>
      </trkpt>
      <trkpt lat="41.331428" lon="2.002013">
        <ele>32.9</ele>
        <time>1970-01-01T01:41:36.000Z</time>
      </trkpt>
      <trkpt lat="41.331452" lon="2.002075">
        <ele>32.9</ele>
        <time>1970-01-01T01:41:37.000Z</time>
      </trkpt>
      <trkpt lat="41.331452" lon="2.002075">
        <ele>32.9</ele>
        <time>1970-01-01T01:41:38.000Z</time>
      </trkpt>
      <trkpt lat="41.331468" lon="2.00214">
        <ele>32.9</ele>
        <time>1970-01-01T01:41:39.000Z</time>
      </trkpt>
      <trkpt lat="41.331468" lon="2.00214">
        <ele>31.9</ele>
        <time>1970-01-01T01:41:40.000Z</time>
      </trkpt>
      <trkpt lat="41.331443" lon="2.002207">
        <ele>31.9</ele>
        <time>1970-01-01T01:41:41.000Z</time>
      </trkpt>
      <trkpt lat="41.331412" lon="2.002235">
        <ele>31.9</ele>
        <time>1970-01-01T01:41:42.000Z</time>
      </trkpt>
      <trkpt lat="41.331378" lon="2.002268">
        <ele>31.9</ele>
        <time>1970-01-01T01:41:43.000Z</time>
      </trkpt>
      <trkpt lat="41.331378" lon="2.002268">
        <ele>31.9</ele>
        <time>1970-01-01T01:41:44.000Z</time>
      </trkpt>
      <trkpt lat="41.33131" lon="2.002335">
        <ele>31.9</ele>
        <time>1970-01-01T01:41:45.000Z</time>
      </trkpt>
      <trkpt lat="41.331273" lon="2.002373">
        <ele>30.9</ele>
        <time>1970-01-01T01:41:46.000Z</time>
      </trkpt>
      <trkpt lat="41.33124" lon="2.002405">
        <ele>30.9</ele>
        <time>1970-01-01T01:41:47.000Z</time>
      </trkpt>
      <trkpt lat="41.33124" lon="2.002405">
        <ele>30.9</ele>
        <time>1970-01-01T01:41:48.000Z</time>
      </trkpt>
      <trkpt lat="41.331197" lon="2.002483">
        <ele>30.9</ele>
        <time>1970-01-01T01:41:49.000Z</time>
      </trkpt>
      <trkpt lat="41.331197" lon="2.002483">
        <ele>30.9</ele>
        <time>1970-01-01T01:41:50.000Z</time>
      </trkpt>
      <trkpt lat="41.331133" lon="2.002578">
        <ele>30.9</ele>
        <time>1970-01-01T01:41:51.000Z</time>
      </trkpt>
      <trkpt lat="41.331133" lon="2.002578">
        <ele>29.9</ele>
        <time>1970-01-01T01:41:52.000Z</time>
      </trkpt>
      <trkpt lat="41.331078" lon="2.002653">
        <ele>29.9</ele>
        <time>1970-01-01T01:41:53.000Z</time>
      </trkpt>
      <trkpt lat="41.331078" lon="2.002653">
        <ele>29.9</ele>
        <time>1970-01-01T01:41:54.000Z</time>
      </trkpt>
      <trkpt lat="41.331025" lon="2.002748">
        <ele>29.9</ele>
        <time>1970-01-01T01:41:55.000Z</time>
      </trkpt>
      <trkpt lat="41.331003" lon="2.002803">
        <ele>29.9</ele>
        <time>1970-01-01T01:41:56.000Z</time>
      </trkpt>
      <trkpt lat="41.331003" lon="2.002803">
        <ele>29.9</ele>
        <time>1970-01-01T01:41:57.000Z</time>
      </trkpt>
      <trkpt lat="41.330972" lon="2.002923">
        <ele>29.9</ele>
        <time>1970-01-01T01:41:58.000Z</time>
      </trkpt>
      <trkpt lat="41.330972" lon="2.002923">
        <ele>29.9</ele>
        <time>1970-01-01T01:41:59.000Z</time>
      </trkpt>
      <trkpt lat="41.33096" lon="2.003058">
        <ele>29.9</ele>
        <time>1970-01-01T01:42:00.000Z</time>
      </trkpt>
      <trkpt lat="41.330958" lon="2.003135">
        <ele>29.9</ele>
        <time>1970-01-01T01:42:01.000Z</time>
      </trkpt>
      <trkpt lat="41.330958" lon="2.003135">
        <ele>29.9</ele>
        <time>1970-01-01T01:42:02.000Z</time>
      </trkpt>
      <trkpt lat="41.330952" lon="2.003287">
        <ele>29.9</ele>
        <time>1970-01-01T01:42:03.000Z</time>
      </trkpt>
      <trkpt lat="41.33095" lon="2.003358">
        <ele>29.9</ele>
        <time>1970-01-01T01:42:04.000Z</time>
      </trkpt>
      <trkpt lat="41.33095" lon="2.003358">
        <ele>29.9</ele>
        <time>1970-01-01T01:42:05.000Z</time>
      </trkpt>
      <trkpt lat="41.330942" lon="2.003508">
        <ele>29.9</ele>
        <time>1970-01-01T01:42:06.000Z</time>
      </trkpt>
      <trkpt lat="41.330942" lon="2.003508">
        <ele>29.9</ele>
        <time>1970-01-01T01:42:07.000Z</time>
      </trkpt>
      <trkpt lat="41.33094" lon="2.003653">
        <ele>29.9</ele>
        <time>1970-01-01T01:42:08.000Z</time>
      </trkpt>
      <trkpt lat="41.33094" lon="2.003653">
        <ele>29.9</ele>
        <time>1970-01-01T01:42:09.000Z</time>
      </trkpt>
      <trkpt lat="41.330933" lon="2.003788">
        <ele>29.9</ele>
        <time>1970-01-01T01:42:10.000Z</time>
      </trkpt>
      <trkpt lat="41.33093" lon="2.003858">
        <ele>29.9</ele>
        <time>1970-01-01T01:42:11.000Z</time>
      </trkpt>
      <trkpt lat="41.33093" lon="2.003858">
        <ele>29.9</ele>
        <time>1970-01-01T01:42:12.000Z</time>
      </trkpt>
      <trkpt lat="41.330925" lon="2.003993">
        <ele>29.9</ele>
        <time>1970-01-01T01:42:13.000Z</time>
      </trkpt>
      <trkpt lat="41.330925" lon="2.003993">
        <ele>29.9</ele>
        <time>1970-01-01T01:42:14.000Z</time>
      </trkpt>
      <trkpt lat="41.330918" lon="2.004138">
        <ele>28.9</ele>
        <time>1970-01-01T01:42:15.000Z</time>
      </trkpt>
      <trkpt lat="41.330918" lon="2.004138">
        <ele>28.9</ele>
        <time>1970-01-01T01:42:16.000Z</time>
      </trkpt>
      <trkpt lat="41.33091" lon="2.004292">
        <ele>28.9</ele>
        <time>1970-01-01T01:42:17.000Z</time>
      </trkpt>
      <trkpt lat="41.33091" lon="2.004292">
        <ele>28.9</ele>
        <time>1970-01-01T01:42:18.000Z</time>
      </trkpt>
      <trkpt lat="41.330895" lon="2.004445">
        <ele>28.9</ele>
        <time>1970-01-01T01:42:19.000Z</time>
      </trkpt>
      <trkpt lat="41.330895" lon="2.004445">
        <ele>28.9</ele>
        <time>1970-01-01T01:42:20.000Z</time>
      </trkpt>
      <trkpt lat="41.33089" lon="2.004613">
        <ele>28.9</ele>
        <time>1970-01-01T01:42:21.000Z</time>
      </trkpt>
      <trkpt lat="41.33089" lon="2.004613">
        <ele>28.9</ele>
        <time>1970-01-01T01:42:22.000Z</time>
      </trkpt>
      <trkpt lat="41.330882" lon="2.00479">
        <ele>28.9</ele>
        <time>1970-01-01T01:42:23.000Z</time>
      </trkpt>
      <trkpt lat="41.330882" lon="2.00479">
        <ele>28.9</ele>
        <time>1970-01-01T01:42:24.000Z</time>
      </trkpt>
      <trkpt lat="41.330872" lon="2.00497">
        <ele>28.9</ele>
        <time>1970-01-01T01:42:25.000Z</time>
      </trkpt>
      <trkpt lat="41.330865" lon="2.005062">
        <ele>28.9</ele>
        <time>1970-01-01T01:42:26.000Z</time>
      </trkpt>
      <trkpt lat="41.330862" lon="2.005152">
        <ele>28.9</ele>
        <time>1970-01-01T01:42:27.000Z</time>
      </trkpt>
      <trkpt lat="41.330862" lon="2.005152">
        <ele>28.9</ele>
        <time>1970-01-01T01:42:28.000Z</time>
      </trkpt>
      <trkpt lat="41.330855" lon="2.00534">
        <ele>28.9</ele>
        <time>1970-01-01T01:42:29.000Z</time>
      </trkpt>
      <trkpt lat="41.330855" lon="2.00534">
        <ele>28.9</ele>
        <time>1970-01-01T01:42:30.000Z</time>
      </trkpt>
      <trkpt lat="41.330852" lon="2.005527">
        <ele>28.9</ele>
        <time>1970-01-01T01:42:31.000Z</time>
      </trkpt>
      <trkpt lat="41.330852" lon="2.00562">
        <ele>27.9</ele>
        <time>1970-01-01T01:42:32.000Z</time>
      </trkpt>
      <trkpt lat="41.330852" lon="2.00562">
        <ele>27.9</ele>
        <time>1970-01-01T01:42:33.000Z</time>
      </trkpt>
      <trkpt lat="41.330833" lon="2.005798">
        <ele>27.9</ele>
        <time>1970-01-01T01:42:34.000Z</time>
      </trkpt>
      <trkpt lat="41.330833" lon="2.005798">
        <ele>27.9</ele>
        <time>1970-01-01T01:42:35.000Z</time>
      </trkpt>
      <trkpt lat="41.330817" lon="2.005965">
        <ele>27.9</ele>
        <time>1970-01-01T01:42:36.000Z</time>
      </trkpt>
      <trkpt lat="41.330817" lon="2.005965">
        <ele>27.9</ele>
        <time>1970-01-01T01:42:37.000Z</time>
      </trkpt>
      <trkpt lat="41.330797" lon="2.006142">
        <ele>27.9</ele>
        <time>1970-01-01T01:42:38.000Z</time>
      </trkpt>
      <trkpt lat="41.330785" lon="2.006228">
        <ele>27.9</ele>
        <time>1970-01-01T01:42:39.000Z</time>
      </trkpt>
      <trkpt lat="41.330772" lon="2.00632">
        <ele>27.9</ele>
        <time>1970-01-01T01:42:40.000Z</time>
      </trkpt>
      <trkpt lat="41.330772" lon="2.00632">
        <ele>27.9</ele>
        <time>1970-01-01T01:42:41.000Z</time>
      </trkpt>
      <trkpt lat="41.330745" lon="2.006502">
        <ele>27.9</ele>
        <time>1970-01-01T01:42:42.000Z</time>
      </trkpt>
      <trkpt lat="41.330728" lon="2.006593">
        <ele>26.9</ele>
        <time>1970-01-01T01:42:43.000Z</time>
      </trkpt>
      <trkpt lat="41.330728" lon="2.006593">
        <ele>26.9</ele>
        <time>1970-01-01T01:42:44.000Z</time>
      </trkpt>
      <trkpt lat="41.330685" lon="2.006767">
        <ele>26.9</ele>
        <time>1970-01-01T01:42:45.000Z</time>
      </trkpt>
      <trkpt lat="41.33066" lon="2.006853">
        <ele>26.9</ele>
        <time>1970-01-01T01:42:46.000Z</time>
      </trkpt>
      <trkpt lat="41.33066" lon="2.006853">
        <ele>26.9</ele>
        <time>1970-01-01T01:42:47.000Z</time>
      </trkpt>
      <trkpt lat="41.33061" lon="2.00703">
        <ele>26.9</ele>
        <time>1970-01-01T01:42:48.000Z</time>
      </trkpt>
      <trkpt lat="41.33061" lon="2.00703">
        <ele>26.9</ele>
        <time>1970-01-01T01:42:49.000Z</time>
      </trkpt>
      <trkpt lat="41.33056" lon="2.007197">
        <ele>26.9</ele>
        <time>1970-01-01T01:42:50.000Z</time>
      </trkpt>
      <trkpt lat="41.33056" lon="2.007197">
        <ele>25.9</ele>
        <time>1970-01-01T01:42:51.000Z</time>
      </trkpt>
      <trkpt lat="41.330485" lon="2.007342">
        <ele>25.9</ele>
        <time>1970-01-01T01:42:52.000Z</time>
      </trkpt>
      <trkpt lat="41.330443" lon="2.00741">
        <ele>25.9</ele>
        <time>1970-01-01T01:42:53.000Z</time>
      </trkpt>
      <trkpt lat="41.330397" lon="2.007478">
        <ele>25.9</ele>
        <time>1970-01-01T01:42:54.000Z</time>
      </trkpt>
      <trkpt lat="41.330397" lon="2.007478">
        <ele>24.9</ele>
        <time>1970-01-01T01:42:55.000Z</time>
      </trkpt>
      <trkpt lat="41.330302" lon="2.007612">
        <ele>24.9</ele>
        <time>1970-01-01T01:42:56.000Z</time>
      </trkpt>
      <trkpt lat="41.330302" lon="2.007612">
        <ele>24.9</ele>
        <time>1970-01-01T01:42:57.000Z</time>
      </trkpt>
      <trkpt lat="41.330203" lon="2.00775">
        <ele>24.9</ele>
        <time>1970-01-01T01:42:58.000Z</time>
      </trkpt>
      <trkpt lat="41.330155" lon="2.00782">
        <ele>23.9</ele>
        <time>1970-01-01T01:42:59.000Z</time>
      </trkpt>
      <trkpt lat="41.330155" lon="2.00782">
        <ele>23.9</ele>
        <time>1970-01-01T01:43:00.000Z</time>
      </trkpt>
      <trkpt lat="41.330067" lon="2.007962">
        <ele>23.9</ele>
        <time>1970-01-01T01:43:01.000Z</time>
      </trkpt>
      <trkpt lat="41.330067" lon="2.007962">
        <ele>23.9</ele>
        <time>1970-01-01T01:43:02.000Z</time>
      </trkpt>
      <trkpt lat="41.32997" lon="2.008093">
        <ele>23.9</ele>
        <time>1970-01-01T01:43:03.000Z</time>
      </trkpt>
      <trkpt lat="41.329922" lon="2.008162">
        <ele>23.9</ele>
        <time>1970-01-01T01:43:04.000Z</time>
      </trkpt>
      <trkpt lat="41.329922" lon="2.008162">
        <ele>23.9</ele>
        <time>1970-01-01T01:43:05.000Z</time>
      </trkpt>
      <trkpt lat="41.329822" lon="2.008298">
        <ele>23.9</ele>
        <time>1970-01-01T01:43:06.000Z</time>
      </trkpt>
      <trkpt lat="41.329822" lon="2.008298">
        <ele>23.9</ele>
        <time>1970-01-01T01:43:07.000Z</time>
      </trkpt>
      <trkpt lat="41.329727" lon="2.008437">
        <ele>23.9</ele>
        <time>1970-01-01T01:43:08.000Z</time>
      </trkpt>
      <trkpt lat="41.329677" lon="2.008505">
        <ele>23.9</ele>
        <time>1970-01-01T01:43:09.000Z</time>
      </trkpt>
      <trkpt lat="41.329677" lon="2.008505">
        <ele>23.9</ele>
        <time>1970-01-01T01:43:10.000Z</time>
      </trkpt>
      <trkpt lat="41.32957" lon="2.008638">
        <ele>22.9</ele>
        <time>1970-01-01T01:43:11.000Z</time>
      </trkpt>
      <trkpt lat="41.32957" lon="2.008638">
        <ele>22.9</ele>
        <time>1970-01-01T01:43:12.000Z</time>
      </trkpt>
      <trkpt lat="41.329453" lon="2.008762">
        <ele>22.9</ele>
        <time>1970-01-01T01:43:13.000Z</time>
      </trkpt>
      <trkpt lat="41.329398" lon="2.008817">
        <ele>22.9</ele>
        <time>1970-01-01T01:43:14.000Z</time>
      </trkpt>
      <trkpt lat="41.32934" lon="2.00887">
        <ele>21.9</ele>
        <time>1970-01-01T01:43:15.000Z</time>
      </trkpt>
      <trkpt lat="41.32934" lon="2.00887">
        <ele>21.9</ele>
        <time>1970-01-01T01:43:16.000Z</time>
      </trkpt>
      <trkpt lat="41.329218" lon="2.008973">
        <ele>21.9</ele>
        <time>1970-01-01T01:43:17.000Z</time>
      </trkpt>
      <trkpt lat="41.329218" lon="2.008973">
        <ele>21.9</ele>
        <time>1970-01-01T01:43:18.000Z</time>
      </trkpt>
      <trkpt lat="41.329103" lon="2.009067">
        <ele>21.9</ele>
        <time>1970-01-01T01:43:19.000Z</time>
      </trkpt>
      <trkpt lat="41.329103" lon="2.009067">
        <ele>20.9</ele>
        <time>1970-01-01T01:43:20.000Z</time>
      </trkpt>
      <trkpt lat="41.328977" lon="2.00913">
        <ele>20.9</ele>
        <time>1970-01-01T01:43:21.000Z</time>
      </trkpt>
      <trkpt lat="41.328977" lon="2.00913">
        <ele>20.9</ele>
        <time>1970-01-01T01:43:22.000Z</time>
      </trkpt>
      <trkpt lat="41.328847" lon="2.009183">
        <ele>20.9</ele>
        <time>1970-01-01T01:43:23.000Z</time>
      </trkpt>
      <trkpt lat="41.328783" lon="2.009212">
        <ele>20.9</ele>
        <time>1970-01-01T01:43:24.000Z</time>
      </trkpt>
      <trkpt lat="41.328783" lon="2.009212">
        <ele>20.9</ele>
        <time>1970-01-01T01:43:25.000Z</time>
      </trkpt>
      <trkpt lat="41.328662" lon="2.009295">
        <ele>20.9</ele>
        <time>1970-01-01T01:43:26.000Z</time>
      </trkpt>
      <trkpt lat="41.328662" lon="2.009295">
        <ele>20.9</ele>
        <time>1970-01-01T01:43:27.000Z</time>
      </trkpt>
      <trkpt lat="41.328553" lon="2.009373">
        <ele>20.9</ele>
        <time>1970-01-01T01:43:28.000Z</time>
      </trkpt>
      <trkpt lat="41.328553" lon="2.009373">
        <ele>20.9</ele>
        <time>1970-01-01T01:43:29.000Z</time>
      </trkpt>
      <trkpt lat="41.328447" lon="2.009468">
        <ele>20.9</ele>
        <time>1970-01-01T01:43:30.000Z</time>
      </trkpt>
      <trkpt lat="41.328447" lon="2.009468">
        <ele>20.9</ele>
        <time>1970-01-01T01:43:31.000Z</time>
      </trkpt>
      <trkpt lat="41.328338" lon="2.009583">
        <ele>20.9</ele>
        <time>1970-01-01T01:43:32.000Z</time>
      </trkpt>
      <trkpt lat="41.328338" lon="2.009583">
        <ele>20.9</ele>
        <time>1970-01-01T01:43:33.000Z</time>
      </trkpt>
      <trkpt lat="41.32823" lon="2.0097">
        <ele>20.9</ele>
        <time>1970-01-01T01:43:34.000Z</time>
      </trkpt>
      <trkpt lat="41.32823" lon="2.0097">
        <ele>20.9</ele>
        <time>1970-01-01T01:43:35.000Z</time>
      </trkpt>
      <trkpt lat="41.32811" lon="2.009813">
        <ele>20.9</ele>
        <time>1970-01-01T01:43:36.000Z</time>
      </trkpt>
      <trkpt lat="41.328052" lon="2.009867">
        <ele>20.9</ele>
        <time>1970-01-01T01:43:37.000Z</time>
      </trkpt>
      <trkpt lat="41.327997" lon="2.009923">
        <ele>20.9</ele>
        <time>1970-01-01T01:43:38.000Z</time>
      </trkpt>
      <trkpt lat="41.327997" lon="2.009923">
        <ele>20.9</ele>
        <time>1970-01-01T01:43:39.000Z</time>
      </trkpt>
      <trkpt lat="41.327888" lon="2.01004">
        <ele>20.9</ele>
        <time>1970-01-01T01:43:40.000Z</time>
      </trkpt>
      <trkpt lat="41.327832" lon="2.010102">
        <ele>20.9</ele>
        <time>1970-01-01T01:43:41.000Z</time>
      </trkpt>
      <trkpt lat="41.327832" lon="2.010102">
        <ele>20.9</ele>
        <time>1970-01-01T01:43:42.000Z</time>
      </trkpt>
      <trkpt lat="41.327732" lon="2.01023">
        <ele>20.9</ele>
        <time>1970-01-01T01:43:43.000Z</time>
      </trkpt>
      <trkpt lat="41.32768" lon="2.010293">
        <ele>20.9</ele>
        <time>1970-01-01T01:43:44.000Z</time>
      </trkpt>
      <trkpt lat="41.327623" lon="2.010353">
        <ele>20.9</ele>
        <time>1970-01-01T01:43:45.000Z</time>
      </trkpt>
      <trkpt lat="41.327623" lon="2.010353">
        <ele>20.9</ele>
        <time>1970-01-01T01:43:46.000Z</time>
      </trkpt>
      <trkpt lat="41.32751" lon="2.010475">
        <ele>19.9</ele>
        <time>1970-01-01T01:43:47.000Z</time>
      </trkpt>
      <trkpt lat="41.32751" lon="2.010475">
        <ele>19.9</ele>
        <time>1970-01-01T01:43:48.000Z</time>
      </trkpt>
      <trkpt lat="41.327393" lon="2.010597">
        <ele>19.9</ele>
        <time>1970-01-01T01:43:49.000Z</time>
      </trkpt>
      <trkpt lat="41.327332" lon="2.010655">
        <ele>19.9</ele>
        <time>1970-01-01T01:43:50.000Z</time>
      </trkpt>
      <trkpt lat="41.327332" lon="2.010655">
        <ele>18.9</ele>
        <time>1970-01-01T01:43:51.000Z</time>
      </trkpt>
      <trkpt lat="41.327207" lon="2.010777">
        <ele>18.9</ele>
        <time>1970-01-01T01:43:52.000Z</time>
      </trkpt>
      <trkpt lat="41.327147" lon="2.010842">
        <ele>18.9</ele>
        <time>1970-01-01T01:43:53.000Z</time>
      </trkpt>
      <trkpt lat="41.327147" lon="2.010842">
        <ele>18.9</ele>
        <time>1970-01-01T01:43:54.000Z</time>
      </trkpt>
      <trkpt lat="41.327027" lon="2.010958">
        <ele>17.9</ele>
        <time>1970-01-01T01:43:55.000Z</time>
      </trkpt>
      <trkpt lat="41.327027" lon="2.010958">
        <ele>17.9</ele>
        <time>1970-01-01T01:43:56.000Z</time>
      </trkpt>
      <trkpt lat="41.326942" lon="2.011092">
        <ele>17.9</ele>
        <time>1970-01-01T01:43:57.000Z</time>
      </trkpt>
      <trkpt lat="41.326942" lon="2.011092">
        <ele>17.9</ele>
        <time>1970-01-01T01:43:58.000Z</time>
      </trkpt>
      <trkpt lat="41.326942" lon="2.011248">
        <ele>17.9</ele>
        <time>1970-01-01T01:43:59.000Z</time>
      </trkpt>
      <trkpt lat="41.326957" lon="2.011327">
        <ele>17.9</ele>
        <time>1970-01-01T01:44:00.000Z</time>
      </trkpt>
      <trkpt lat="41.326957" lon="2.011327">
        <ele>17.9</ele>
        <time>1970-01-01T01:44:01.000Z</time>
      </trkpt>
      <trkpt lat="41.327025" lon="2.01146">
        <ele>16.9</ele>
        <time>1970-01-01T01:44:02.000Z</time>
      </trkpt>
      <trkpt lat="41.327025" lon="2.01146">
        <ele>16.9</ele>
        <time>1970-01-01T01:44:03.000Z</time>
      </trkpt>
      <trkpt lat="41.327157" lon="2.01151">
        <ele>16.9</ele>
        <time>1970-01-01T01:44:04.000Z</time>
      </trkpt>
      <trkpt lat="41.327157" lon="2.01151">
        <ele>16.9</ele>
        <time>1970-01-01T01:44:05.000Z</time>
      </trkpt>
      <trkpt lat="41.327278" lon="2.011523">
        <ele>15.9</ele>
        <time>1970-01-01T01:44:06.000Z</time>
      </trkpt>
      <trkpt lat="41.327332" lon="2.011543">
        <ele>15.9</ele>
        <time>1970-01-01T01:44:07.000Z</time>
      </trkpt>
      <trkpt lat="41.327367" lon="2.011585">
        <ele>14.9</ele>
        <time>1970-01-01T01:44:08.000Z</time>
      </trkpt>
      <trkpt lat="41.327367" lon="2.011585">
        <ele>14.9</ele>
        <time>1970-01-01T01:44:09.000Z</time>
      </trkpt>
      <trkpt lat="41.327392" lon="2.011677">
        <ele>14.9</ele>
        <time>1970-01-01T01:44:10.000Z</time>
      </trkpt>
      <trkpt lat="41.327392" lon="2.011677">
        <ele>14.9</ele>
        <time>1970-01-01T01:44:11.000Z</time>
      </trkpt>
      <trkpt lat="41.327382" lon="2.011743">
        <ele>14.9</ele>
        <time>1970-01-01T01:44:12.000Z</time>
      </trkpt>
      <trkpt lat="41.327382" lon="2.011743">
        <ele>14.9</ele>
        <time>1970-01-01T01:44:13.000Z</time>
      </trkpt>
      <trkpt lat="41.327372" lon="2.011808">
        <ele>14.9</ele>
        <time>1970-01-01T01:44:14.000Z</time>
      </trkpt>
      <trkpt lat="41.327372" lon="2.011808">
        <ele>14.9</ele>
        <time>1970-01-01T01:44:15.000Z</time>
      </trkpt>
      <trkpt lat="41.327357" lon="2.011875">
        <ele>14.9</ele>
        <time>1970-01-01T01:44:16.000Z</time>
      </trkpt>
      <trkpt lat="41.327357" lon="2.011915">
        <ele>14.9</ele>
        <time>1970-01-01T01:44:17.000Z</time>
      </trkpt>
      <trkpt lat="41.327357" lon="2.011915">
        <ele>14.9</ele>
        <time>1970-01-01T01:44:18.000Z</time>
      </trkpt>
      <trkpt lat="41.327367" lon="2.012002">
        <ele>14.9</ele>
        <time>1970-01-01T01:44:19.000Z</time>
      </trkpt>
      <trkpt lat="41.327367" lon="2.012002">
        <ele>15.9</ele>
        <time>1970-01-01T01:44:20.000Z</time>
      </trkpt>
      <trkpt lat="41.327388" lon="2.012085">
        <ele>15.9</ele>
        <time>1970-01-01T01:44:21.000Z</time>
      </trkpt>
      <trkpt lat="41.327388" lon="2.012085">
        <ele>15.9</ele>
        <time>1970-01-01T01:44:22.000Z</time>
      </trkpt>
      <trkpt lat="41.327413" lon="2.012172">
        <ele>15.9</ele>
        <time>1970-01-01T01:44:23.000Z</time>
      </trkpt>
      <trkpt lat="41.327413" lon="2.012172">
        <ele>15.9</ele>
        <time>1970-01-01T01:44:24.000Z</time>
      </trkpt>
      <trkpt lat="41.327438" lon="2.01226">
        <ele>15.9</ele>
        <time>1970-01-01T01:44:25.000Z</time>
      </trkpt>
      <trkpt lat="41.327452" lon="2.012302">
        <ele>15.9</ele>
        <time>1970-01-01T01:44:26.000Z</time>
      </trkpt>
      <trkpt lat="41.327463" lon="2.012343">
        <ele>15.9</ele>
        <time>1970-01-01T01:44:27.000Z</time>
      </trkpt>
      <trkpt lat="41.327463" lon="2.012343">
        <ele>15.9</ele>
        <time>1970-01-01T01:44:28.000Z</time>
      </trkpt>
      <trkpt lat="41.327485" lon="2.012427">
        <ele>16.9</ele>
        <time>1970-01-01T01:44:29.000Z</time>
      </trkpt>
      <trkpt lat="41.327485" lon="2.012427">
        <ele>16.9</ele>
        <time>1970-01-01T01:44:30.000Z</time>
      </trkpt>
      <trkpt lat="41.327512" lon="2.012502">
        <ele>16.9</ele>
        <time>1970-01-01T01:44:31.000Z</time>
      </trkpt>
      <trkpt lat="41.327512" lon="2.012502">
        <ele>16.9</ele>
        <time>1970-01-01T01:44:32.000Z</time>
      </trkpt>
      <trkpt lat="41.327537" lon="2.012573">
        <ele>16.9</ele>
        <time>1970-01-01T01:44:33.000Z</time>
      </trkpt>
      <trkpt lat="41.327547" lon="2.01261">
        <ele>16.9</ele>
        <time>1970-01-01T01:44:34.000Z</time>
      </trkpt>
      <trkpt lat="41.327547" lon="2.01261">
        <ele>16.9</ele>
        <time>1970-01-01T01:44:35.000Z</time>
      </trkpt>
      <trkpt lat="41.327567" lon="2.012678">
        <ele>17.9</ele>
        <time>1970-01-01T01:44:36.000Z</time>
      </trkpt>
      <trkpt lat="41.327567" lon="2.012678">
        <ele>17.9</ele>
        <time>1970-01-01T01:44:37.000Z</time>
      </trkpt>
      <trkpt lat="41.327583" lon="2.012735">
        <ele>17.9</ele>
        <time>1970-01-01T01:44:38.000Z</time>
      </trkpt>
      <trkpt lat="41.327583" lon="2.012735">
        <ele>17.9</ele>
        <time>1970-01-01T01:44:39.000Z</time>
      </trkpt>
      <trkpt lat="41.327605" lon="2.012785">
        <ele>17.9</ele>
        <time>1970-01-01T01:44:40.000Z</time>
      </trkpt>
      <trkpt lat="41.327617" lon="2.012807">
        <ele>18.9</ele>
        <time>1970-01-01T01:44:41.000Z</time>
      </trkpt>
      <trkpt lat="41.327617" lon="2.012807">
        <ele>18.9</ele>
        <time>1970-01-01T01:44:42.000Z</time>
      </trkpt>
      <trkpt lat="41.327623" lon="2.012848">
        <ele>18.9</ele>
        <time>1970-01-01T01:44:43.000Z</time>
      </trkpt>
      <trkpt lat="41.327628" lon="2.01287">
        <ele>18.9</ele>
        <time>1970-01-01T01:44:44.000Z</time>
      </trkpt>
      <trkpt lat="41.327628" lon="2.01287">
        <ele>19.9</ele>
        <time>1970-01-01T01:44:45.000Z</time>
      </trkpt>
      <trkpt lat="41.327638" lon="2.012905">
        <ele>19.9</ele>
        <time>1970-01-01T01:44:46.000Z</time>
      </trkpt>
      <trkpt lat="41.327638" lon="2.012905">
        <ele>20.9</ele>
        <time>1970-01-01T01:44:47.000Z</time>
      </trkpt>
      <trkpt lat="41.327645" lon="2.012953">
        <ele>20.9</ele>
        <time>1970-01-01T01:44:48.000Z</time>
      </trkpt>
      <trkpt lat="41.327643" lon="2.012987">
        <ele>21.9</ele>
        <time>1970-01-01T01:44:49.000Z</time>
      </trkpt>
      <trkpt lat="41.327645" lon="2.013015">
        <ele>21.9</ele>
        <time>1970-01-01T01:44:50.000Z</time>
      </trkpt>
      <trkpt lat="41.327645" lon="2.013015">
        <ele>21.9</ele>
        <time>1970-01-01T01:44:51.000Z</time>
      </trkpt>
      <trkpt lat="41.327655" lon="2.013062">
        <ele>21.9</ele>
        <time>1970-01-01T01:44:52.000Z</time>
      </trkpt>
      <trkpt lat="41.327658" lon="2.013083">
        <ele>22.9</ele>
        <time>1970-01-01T01:44:53.000Z</time>
      </trkpt>
      <trkpt lat="41.327658" lon="2.013083">
        <ele>22.9</ele>
        <time>1970-01-01T01:44:54.000Z</time>
      </trkpt>
      <trkpt lat="41.327668" lon="2.013123">
        <ele>22.9</ele>
        <time>1970-01-01T01:44:55.000Z</time>
      </trkpt>
      <trkpt lat="41.32767" lon="2.013157">
        <ele>22.9</ele>
        <time>1970-01-01T01:44:56.000Z</time>
      </trkpt>
      <trkpt lat="41.32767" lon="2.013157">
        <ele>23.9</ele>
        <time>1970-01-01T01:44:57.000Z</time>
      </trkpt>
      <trkpt lat="41.327682" lon="2.013212">
        <ele>23.9</ele>
        <time>1970-01-01T01:44:58.000Z</time>
      </trkpt>
      <trkpt lat="41.327682" lon="2.013212">
        <ele>23.9</ele>
        <time>1970-01-01T01:44:59.000Z</time>
      </trkpt>
      <trkpt lat="41.327698" lon="2.013258">
        <ele>23.9</ele>
        <time>1970-01-01T01:45:00.000Z</time>
      </trkpt>
      <trkpt lat="41.3277" lon="2.013285">
        <ele>24.9</ele>
        <time>1970-01-01T01:45:01.000Z</time>
      </trkpt>
      <trkpt lat="41.3277" lon="2.013285">
        <ele>24.9</ele>
        <time>1970-01-01T01:45:02.000Z</time>
      </trkpt>
      <trkpt lat="41.327708" lon="2.013337">
        <ele>24.9</ele>
        <time>1970-01-01T01:45:03.000Z</time>
      </trkpt>
      <trkpt lat="41.327715" lon="2.013355">
        <ele>24.9</ele>
        <time>1970-01-01T01:45:04.000Z</time>
      </trkpt>
      <trkpt lat="41.327715" lon="2.013355">
        <ele>25.9</ele>
        <time>1970-01-01T01:45:05.000Z</time>
      </trkpt>
      <trkpt lat="41.327723" lon="2.013388">
        <ele>25.9</ele>
        <time>1970-01-01T01:45:06.000Z</time>
      </trkpt>
      <trkpt lat="41.327727" lon="2.013405">
        <ele>26.9</ele>
        <time>1970-01-01T01:45:07.000Z</time>
      </trkpt>
      <trkpt lat="41.32773" lon="2.013423">
        <ele>26.9</ele>
        <time>1970-01-01T01:45:08.000Z</time>
      </trkpt>
      <trkpt lat="41.32773" lon="2.013423">
        <ele>26.9</ele>
        <time>1970-01-01T01:45:09.000Z</time>
      </trkpt>
      <trkpt lat="41.327733" lon="2.013475">
        <ele>26.9</ele>
        <time>1970-01-01T01:45:10.000Z</time>
      </trkpt>
      <trkpt lat="41.327733" lon="2.013475">
        <ele>26.9</ele>
        <time>1970-01-01T01:45:11.000Z</time>
      </trkpt>
      <trkpt lat="41.327743" lon="2.013532">
        <ele>26.9</ele>
        <time>1970-01-01T01:45:12.000Z</time>
      </trkpt>
      <trkpt lat="41.327743" lon="2.013532">
        <ele>26.9</ele>
        <time>1970-01-01T01:45:13.000Z</time>
      </trkpt>
      <trkpt lat="41.327745" lon="2.013572">
        <ele>27.9</ele>
        <time>1970-01-01T01:45:14.000Z</time>
      </trkpt>
      <trkpt lat="41.327745" lon="2.013572">
        <ele>27.9</ele>
        <time>1970-01-01T01:45:15.000Z</time>
      </trkpt>
      <trkpt lat="41.327742" lon="2.013603">
        <ele>27.9</ele>
        <time>1970-01-01T01:45:16.000Z</time>
      </trkpt>
      <trkpt lat="41.327742" lon="2.013603">
        <ele>27.9</ele>
        <time>1970-01-01T01:45:17.000Z</time>
      </trkpt>
      <trkpt lat="41.327732" lon="2.013658">
        <ele>27.9</ele>
        <time>1970-01-01T01:45:18.000Z</time>
      </trkpt>
      <trkpt lat="41.327732" lon="2.013658">
        <ele>28.9</ele>
        <time>1970-01-01T01:45:19.000Z</time>
      </trkpt>
      <trkpt lat="41.327732" lon="2.013703">
        <ele>28.9</ele>
        <time>1970-01-01T01:45:20.000Z</time>
      </trkpt>
      <trkpt lat="41.327732" lon="2.013703">
        <ele>28.9</ele>
        <time>1970-01-01T01:45:21.000Z</time>
      </trkpt>
      <trkpt lat="41.327727" lon="2.013755">
        <ele>28.9</ele>
        <time>1970-01-01T01:45:22.000Z</time>
      </trkpt>
      <trkpt lat="41.327727" lon="2.013755">
        <ele>28.9</ele>
        <time>1970-01-01T01:45:23.000Z</time>
      </trkpt>
      <trkpt lat="41.32772" lon="2.013808">
        <ele>28.9</ele>
        <time>1970-01-01T01:45:24.000Z</time>
      </trkpt>
      <trkpt lat="41.32772" lon="2.013838">
        <ele>29.9</ele>
        <time>1970-01-01T01:45:25.000Z</time>
      </trkpt>
      <trkpt lat="41.327715" lon="2.013868">
        <ele>29.9</ele>
        <time>1970-01-01T01:45:26.000Z</time>
      </trkpt>
      <trkpt lat="41.327715" lon="2.013868">
        <ele>29.9</ele>
        <time>1970-01-01T01:45:27.000Z</time>
      </trkpt>
      <trkpt lat="41.327707" lon="2.013918">
        <ele>29.9</ele>
        <time>1970-01-01T01:45:28.000Z</time>
      </trkpt>
      <trkpt lat="41.327707" lon="2.01395">
        <ele>29.9</ele>
        <time>1970-01-01T01:45:29.000Z</time>
      </trkpt>
      <trkpt lat="41.327707" lon="2.01395">
        <ele>29.9</ele>
        <time>1970-01-01T01:45:30.000Z</time>
      </trkpt>
      <trkpt lat="41.327705" lon="2.014008">
        <ele>29.9</ele>
        <time>1970-01-01T01:45:31.000Z</time>
      </trkpt>
      <trkpt lat="41.327707" lon="2.014032">
        <ele>29.9</ele>
        <time>1970-01-01T01:45:32.000Z</time>
      </trkpt>
      <trkpt lat="41.327707" lon="2.014032">
        <ele>30.9</ele>
        <time>1970-01-01T01:45:33.000Z</time>
      </trkpt>
      <trkpt lat="41.327708" lon="2.014082">
        <ele>30.9</ele>
        <time>1970-01-01T01:45:34.000Z</time>
      </trkpt>
      <trkpt lat="41.327713" lon="2.014107">
        <ele>30.9</ele>
        <time>1970-01-01T01:45:35.000Z</time>
      </trkpt>
      <trkpt lat="41.327713" lon="2.014107">
        <ele>30.9</ele>
        <time>1970-01-01T01:45:36.000Z</time>
      </trkpt>
      <trkpt lat="41.327727" lon="2.014158">
        <ele>31.9</ele>
        <time>1970-01-01T01:45:37.000Z</time>
      </trkpt>
      <trkpt lat="41.327727" lon="2.014158">
        <ele>31.9</ele>
        <time>1970-01-01T01:45:38.000Z</time>
      </trkpt>
      <trkpt lat="41.32774" lon="2.01421">
        <ele>31.9</ele>
        <time>1970-01-01T01:45:39.000Z</time>
      </trkpt>
      <trkpt lat="41.32774" lon="2.01421">
        <ele>31.9</ele>
        <time>1970-01-01T01:45:40.000Z</time>
      </trkpt>
      <trkpt lat="41.32775" lon="2.014283">
        <ele>32.9</ele>
        <time>1970-01-01T01:45:41.000Z</time>
      </trkpt>
      <trkpt lat="41.32775" lon="2.014283">
        <ele>32.9</ele>
        <time>1970-01-01T01:45:42.000Z</time>
      </trkpt>
      <trkpt lat="41.327748" lon="2.014358">
        <ele>32.9</ele>
        <time>1970-01-01T01:45:43.000Z</time>
      </trkpt>
      <trkpt lat="41.327748" lon="2.014358">
        <ele>32.9</ele>
        <time>1970-01-01T01:45:44.000Z</time>
      </trkpt>
      <trkpt lat="41.327748" lon="2.014417">
        <ele>32.9</ele>
        <time>1970-01-01T01:45:45.000Z</time>
      </trkpt>
      <trkpt lat="41.327748" lon="2.014417">
        <ele>32.9</ele>
        <time>1970-01-01T01:45:46.000Z</time>
      </trkpt>
      <trkpt lat="41.327747" lon="2.014472">
        <ele>32.9</ele>
        <time>1970-01-01T01:45:47.000Z</time>
      </trkpt>
      <trkpt lat="41.327747" lon="2.014472">
        <ele>32.9</ele>
        <time>1970-01-01T01:45:48.000Z</time>
      </trkpt>
      <trkpt lat="41.327747" lon="2.014513">
        <ele>32.9</ele>
        <time>1970-01-01T01:45:49.000Z</time>
      </trkpt>
      <trkpt lat="41.327747" lon="2.014532">
        <ele>32.9</ele>
        <time>1970-01-01T01:45:50.000Z</time>
      </trkpt>
      <trkpt lat="41.327747" lon="2.014555">
        <ele>33.9</ele>
        <time>1970-01-01T01:45:51.000Z</time>
      </trkpt>
      <trkpt lat="41.327748" lon="2.014578">
        <ele>33.9</ele>
        <time>1970-01-01T01:45:52.000Z</time>
      </trkpt>
      <trkpt lat="41.327748" lon="2.014578">
        <ele>33.9</ele>
        <time>1970-01-01T01:45:53.000Z</time>
      </trkpt>
      <trkpt lat="41.327742" lon="2.014637">
        <ele>33.9</ele>
        <time>1970-01-01T01:45:54.000Z</time>
      </trkpt>
      <trkpt lat="41.32774" lon="2.014672">
        <ele>33.9</ele>
        <time>1970-01-01T01:45:55.000Z</time>
      </trkpt>
      <trkpt lat="41.32774" lon="2.014672">
        <ele>33.9</ele>
        <time>1970-01-01T01:45:56.000Z</time>
      </trkpt>
      <trkpt lat="41.327728" lon="2.01475">
        <ele>33.9</ele>
        <time>1970-01-01T01:45:57.000Z</time>
      </trkpt>
      <trkpt lat="41.327728" lon="2.01475">
        <ele>33.9</ele>
        <time>1970-01-01T01:45:58.000Z</time>
      </trkpt>
      <trkpt lat="41.327723" lon="2.01482">
        <ele>33.9</ele>
        <time>1970-01-01T01:45:59.000Z</time>
      </trkpt>
      <trkpt lat="41.327723" lon="2.01482">
        <ele>33.9</ele>
        <time>1970-01-01T01:46:00.000Z</time>
      </trkpt>
      <trkpt lat="41.327707" lon="2.014895">
        <ele>33.9</ele>
        <time>1970-01-01T01:46:01.000Z</time>
      </trkpt>
      <trkpt lat="41.327707" lon="2.014895">
        <ele>33.9</ele>
        <time>1970-01-01T01:46:02.000Z</time>
      </trkpt>
      <trkpt lat="41.327697" lon="2.014978">
        <ele>33.9</ele>
        <time>1970-01-01T01:46:03.000Z</time>
      </trkpt>
      <trkpt lat="41.327692" lon="2.015018">
        <ele>33.9</ele>
        <time>1970-01-01T01:46:04.000Z</time>
      </trkpt>
      <trkpt lat="41.327692" lon="2.015018">
        <ele>33.9</ele>
        <time>1970-01-01T01:46:05.000Z</time>
      </trkpt>
      <trkpt lat="41.327683" lon="2.01509">
        <ele>35.9</ele>
        <time>1970-01-01T01:46:06.000Z</time>
      </trkpt>
      <trkpt lat="41.327683" lon="2.01509">
        <ele>35.9</ele>
        <time>1970-01-01T01:46:07.000Z</time>
      </trkpt>
      <trkpt lat="41.327678" lon="2.015172">
        <ele>35.9</ele>
        <time>1970-01-01T01:46:08.000Z</time>
      </trkpt>
      <trkpt lat="41.327678" lon="2.015172">
        <ele>35.9</ele>
        <time>1970-01-01T01:46:09.000Z</time>
      </trkpt>
      <trkpt lat="41.32767" lon="2.015242">
        <ele>35.9</ele>
        <time>1970-01-01T01:46:10.000Z</time>
      </trkpt>
      <trkpt lat="41.32767" lon="2.015285">
        <ele>35.9</ele>
        <time>1970-01-01T01:46:11.000Z</time>
      </trkpt>
      <trkpt lat="41.32767" lon="2.015285">
        <ele>35.9</ele>
        <time>1970-01-01T01:46:12.000Z</time>
      </trkpt>
      <trkpt lat="41.327653" lon="2.015375">
        <ele>35.9</ele>
        <time>1970-01-01T01:46:13.000Z</time>
      </trkpt>
      <trkpt lat="41.327657" lon="2.01541">
        <ele>35.9</ele>
        <time>1970-01-01T01:46:14.000Z</time>
      </trkpt>
      <trkpt lat="41.327657" lon="2.01541">
        <ele>35.9</ele>
        <time>1970-01-01T01:46:15.000Z</time>
      </trkpt>
      <trkpt lat="41.327692" lon="2.015463">
        <ele>35.9</ele>
        <time>1970-01-01T01:46:16.000Z</time>
      </trkpt>
      <trkpt lat="41.327692" lon="2.015463">
        <ele>35.9</ele>
        <time>1970-01-01T01:46:17.000Z</time>
      </trkpt>
      <trkpt lat="41.327723" lon="2.01553">
        <ele>35.9</ele>
        <time>1970-01-01T01:46:18.000Z</time>
      </trkpt>
      <trkpt lat="41.327735" lon="2.015568">
        <ele>35.9</ele>
        <time>1970-01-01T01:46:19.000Z</time>
      </trkpt>
      <trkpt lat="41.327735" lon="2.015568">
        <ele>35.9</ele>
        <time>1970-01-01T01:46:20.000Z</time>
      </trkpt>
      <trkpt lat="41.327757" lon="2.015652">
        <ele>35.9</ele>
        <time>1970-01-01T01:46:21.000Z</time>
      </trkpt>
      <trkpt lat="41.327757" lon="2.015652">
        <ele>37.9</ele>
        <time>1970-01-01T01:46:22.000Z</time>
      </trkpt>
      <trkpt lat="41.327778" lon="2.015723">
        <ele>37.9</ele>
        <time>1970-01-01T01:46:23.000Z</time>
      </trkpt>
      <trkpt lat="41.327778" lon="2.015723">
        <ele>37.9</ele>
        <time>1970-01-01T01:46:24.000Z</time>
      </trkpt>
      <trkpt lat="41.327812" lon="2.015802">
        <ele>37.9</ele>
        <time>1970-01-01T01:46:25.000Z</time>
      </trkpt>
      <trkpt lat="41.327812" lon="2.01584">
        <ele>37.9</ele>
        <time>1970-01-01T01:46:26.000Z</time>
      </trkpt>
      <trkpt lat="41.327812" lon="2.01584">
        <ele>37.9</ele>
        <time>1970-01-01T01:46:27.000Z</time>
      </trkpt>
      <trkpt lat="41.327803" lon="2.015922">
        <ele>37.9</ele>
        <time>1970-01-01T01:46:28.000Z</time>
      </trkpt>
      <trkpt lat="41.327803" lon="2.015922">
        <ele>37.9</ele>
        <time>1970-01-01T01:46:29.000Z</time>
      </trkpt>
      <trkpt lat="41.327805" lon="2.016012">
        <ele>37.9</ele>
        <time>1970-01-01T01:46:30.000Z</time>
      </trkpt>
      <trkpt lat="41.327807" lon="2.016057">
        <ele>37.9</ele>
        <time>1970-01-01T01:46:31.000Z</time>
      </trkpt>
      <trkpt lat="41.327807" lon="2.016057">
        <ele>37.9</ele>
        <time>1970-01-01T01:46:32.000Z</time>
      </trkpt>
      <trkpt lat="41.327808" lon="2.016138">
        <ele>37.9</ele>
        <time>1970-01-01T01:46:33.000Z</time>
      </trkpt>
      <trkpt lat="41.327808" lon="2.016138">
        <ele>37.9</ele>
        <time>1970-01-01T01:46:34.000Z</time>
      </trkpt>
      <trkpt lat="41.327812" lon="2.01622">
        <ele>37.9</ele>
        <time>1970-01-01T01:46:35.000Z</time>
      </trkpt>
      <trkpt lat="41.32781" lon="2.016262">
        <ele>37.9</ele>
        <time>1970-01-01T01:46:36.000Z</time>
      </trkpt>
      <trkpt lat="41.32781" lon="2.016262">
        <ele>37.9</ele>
        <time>1970-01-01T01:46:37.000Z</time>
      </trkpt>
      <trkpt lat="41.327808" lon="2.016348">
        <ele>38.9</ele>
        <time>1970-01-01T01:46:38.000Z</time>
      </trkpt>
      <trkpt lat="41.327808" lon="2.016348">
        <ele>38.9</ele>
        <time>1970-01-01T01:46:39.000Z</time>
      </trkpt>
      <trkpt lat="41.32782" lon="2.01643">
        <ele>38.9</ele>
        <time>1970-01-01T01:46:40.000Z</time>
      </trkpt>
      <trkpt lat="41.32782" lon="2.01643">
        <ele>38.9</ele>
        <time>1970-01-01T01:46:41.000Z</time>
      </trkpt>
      <trkpt lat="41.327847" lon="2.016525">
        <ele>38.9</ele>
        <time>1970-01-01T01:46:42.000Z</time>
      </trkpt>
      <trkpt lat="41.327847" lon="2.016525">
        <ele>38.9</ele>
        <time>1970-01-01T01:46:43.000Z</time>
      </trkpt>
      <trkpt lat="41.327873" lon="2.016647">
        <ele>38.9</ele>
        <time>1970-01-01T01:46:44.000Z</time>
      </trkpt>
      <trkpt lat="41.327885" lon="2.016705">
        <ele>38.9</ele>
        <time>1970-01-01T01:46:45.000Z</time>
      </trkpt>
      <trkpt lat="41.327885" lon="2.016705">
        <ele>38.9</ele>
        <time>1970-01-01T01:46:46.000Z</time>
      </trkpt>
      <trkpt lat="41.327903" lon="2.016793">
        <ele>38.9</ele>
        <time>1970-01-01T01:46:47.000Z</time>
      </trkpt>
      <trkpt lat="41.327913" lon="2.016835">
        <ele>38.9</ele>
        <time>1970-01-01T01:46:48.000Z</time>
      </trkpt>
      <trkpt lat="41.327913" lon="2.016835">
        <ele>38.9</ele>
        <time>1970-01-01T01:46:49.000Z</time>
      </trkpt>
      <trkpt lat="41.327923" lon="2.016933">
        <ele>37.9</ele>
        <time>1970-01-01T01:46:50.000Z</time>
      </trkpt>
      <trkpt lat="41.327923" lon="2.016933">
        <ele>37.9</ele>
        <time>1970-01-01T01:46:51.000Z</time>
      </trkpt>
      <trkpt lat="41.327937" lon="2.017028">
        <ele>37.9</ele>
        <time>1970-01-01T01:46:52.000Z</time>
      </trkpt>
      <trkpt lat="41.327937" lon="2.017028">
        <ele>37.9</ele>
        <time>1970-01-01T01:46:53.000Z</time>
      </trkpt>
      <trkpt lat="41.327955" lon="2.017112">
        <ele>37.9</ele>
        <time>1970-01-01T01:46:54.000Z</time>
      </trkpt>
      <trkpt lat="41.327955" lon="2.017112">
        <ele>37.9</ele>
        <time>1970-01-01T01:46:55.000Z</time>
      </trkpt>
      <trkpt lat="41.327988" lon="2.01719">
        <ele>37.9</ele>
        <time>1970-01-01T01:46:56.000Z</time>
      </trkpt>
      <trkpt lat="41.327988" lon="2.01719">
        <ele>37.9</ele>
        <time>1970-01-01T01:46:57.000Z</time>
      </trkpt>
      <trkpt lat="41.328025" lon="2.017283">
        <ele>37.9</ele>
        <time>1970-01-01T01:46:58.000Z</time>
      </trkpt>
      <trkpt lat="41.328025" lon="2.017283">
        <ele>37.9</ele>
        <time>1970-01-01T01:46:59.000Z</time>
      </trkpt>
      <trkpt lat="41.328065" lon="2.017375">
        <ele>37.9</ele>
        <time>1970-01-01T01:47:00.000Z</time>
      </trkpt>
      <trkpt lat="41.328065" lon="2.017375">
        <ele>37.9</ele>
        <time>1970-01-01T01:47:01.000Z</time>
      </trkpt>
      <trkpt lat="41.328093" lon="2.017472">
        <ele>37.9</ele>
        <time>1970-01-01T01:47:02.000Z</time>
      </trkpt>
      <trkpt lat="41.328093" lon="2.017472">
        <ele>37.9</ele>
        <time>1970-01-01T01:47:03.000Z</time>
      </trkpt>
      <trkpt lat="41.328095" lon="2.017577">
        <ele>37.9</ele>
        <time>1970-01-01T01:47:04.000Z</time>
      </trkpt>
      <trkpt lat="41.328095" lon="2.017577">
        <ele>37.9</ele>
        <time>1970-01-01T01:47:05.000Z</time>
      </trkpt>
      <trkpt lat="41.328082" lon="2.017682">
        <ele>37.9</ele>
        <time>1970-01-01T01:47:06.000Z</time>
      </trkpt>
      <trkpt lat="41.328065" lon="2.017735">
        <ele>37.9</ele>
        <time>1970-01-01T01:47:07.000Z</time>
      </trkpt>
      <trkpt lat="41.328065" lon="2.017735">
        <ele>37.9</ele>
        <time>1970-01-01T01:47:08.000Z</time>
      </trkpt>
      <trkpt lat="41.328043" lon="2.017842">
        <ele>37.9</ele>
        <time>1970-01-01T01:47:09.000Z</time>
      </trkpt>
      <trkpt lat="41.328042" lon="2.017888">
        <ele>38.9</ele>
        <time>1970-01-01T01:47:10.000Z</time>
      </trkpt>
      <trkpt lat="41.328042" lon="2.017888">
        <ele>38.9</ele>
        <time>1970-01-01T01:47:11.000Z</time>
      </trkpt>
      <trkpt lat="41.32804" lon="2.01798">
        <ele>39.9</ele>
        <time>1970-01-01T01:47:12.000Z</time>
      </trkpt>
      <trkpt lat="41.328038" lon="2.018025">
        <ele>39.9</ele>
        <time>1970-01-01T01:47:13.000Z</time>
      </trkpt>
      <trkpt lat="41.328038" lon="2.018025">
        <ele>39.9</ele>
        <time>1970-01-01T01:47:14.000Z</time>
      </trkpt>
      <trkpt lat="41.328032" lon="2.018108">
        <ele>39.9</ele>
        <time>1970-01-01T01:47:15.000Z</time>
      </trkpt>
      <trkpt lat="41.328032" lon="2.018108">
        <ele>40.9</ele>
        <time>1970-01-01T01:47:16.000Z</time>
      </trkpt>
      <trkpt lat="41.328017" lon="2.01819">
        <ele>40.9</ele>
        <time>1970-01-01T01:47:17.000Z</time>
      </trkpt>
      <trkpt lat="41.328017" lon="2.01819">
        <ele>40.9</ele>
        <time>1970-01-01T01:47:18.000Z</time>
      </trkpt>
      <trkpt lat="41.327997" lon="2.018272">
        <ele>40.9</ele>
        <time>1970-01-01T01:47:19.000Z</time>
      </trkpt>
      <trkpt lat="41.327993" lon="2.018312">
        <ele>41.9</ele>
        <time>1970-01-01T01:47:20.000Z</time>
      </trkpt>
      <trkpt lat="41.327993" lon="2.018312">
        <ele>41.9</ele>
        <time>1970-01-01T01:47:21.000Z</time>
      </trkpt>
      <trkpt lat="41.327983" lon="2.0184">
        <ele>41.9</ele>
        <time>1970-01-01T01:47:22.000Z</time>
      </trkpt>
      <trkpt lat="41.327983" lon="2.0184">
        <ele>41.9</ele>
        <time>1970-01-01T01:47:23.000Z</time>
      </trkpt>
      <trkpt lat="41.327982" lon="2.018495">
        <ele>41.9</ele>
        <time>1970-01-01T01:47:24.000Z</time>
      </trkpt>
      <trkpt lat="41.327982" lon="2.018495">
        <ele>41.9</ele>
        <time>1970-01-01T01:47:25.000Z</time>
      </trkpt>
      <trkpt lat="41.32799" lon="2.018598">
        <ele>41.9</ele>
        <time>1970-01-01T01:47:26.000Z</time>
      </trkpt>
      <trkpt lat="41.32799" lon="2.018598">
        <ele>41.9</ele>
        <time>1970-01-01T01:47:27.000Z</time>
      </trkpt>
      <trkpt lat="41.32802" lon="2.018695">
        <ele>41.9</ele>
        <time>1970-01-01T01:47:28.000Z</time>
      </trkpt>
      <trkpt lat="41.328047" lon="2.018722">
        <ele>41.9</ele>
        <time>1970-01-01T01:47:29.000Z</time>
      </trkpt>
      <trkpt lat="41.328047" lon="2.018722">
        <ele>41.9</ele>
        <time>1970-01-01T01:47:30.000Z</time>
      </trkpt>
      <trkpt lat="41.328105" lon="2.01875">
        <ele>42.9</ele>
        <time>1970-01-01T01:47:31.000Z</time>
      </trkpt>
      <trkpt lat="41.328105" lon="2.01875">
        <ele>42.9</ele>
        <time>1970-01-01T01:47:32.000Z</time>
      </trkpt>
      <trkpt lat="41.328155" lon="2.018782">
        <ele>42.9</ele>
        <time>1970-01-01T01:47:33.000Z</time>
      </trkpt>
      <trkpt lat="41.328155" lon="2.018782">
        <ele>42.9</ele>
        <time>1970-01-01T01:47:34.000Z</time>
      </trkpt>
      <trkpt lat="41.328197" lon="2.01883">
        <ele>42.9</ele>
        <time>1970-01-01T01:47:35.000Z</time>
      </trkpt>
      <trkpt lat="41.328197" lon="2.01883">
        <ele>42.9</ele>
        <time>1970-01-01T01:47:36.000Z</time>
      </trkpt>
      <trkpt lat="41.32823" lon="2.018898">
        <ele>43.9</ele>
        <time>1970-01-01T01:47:37.000Z</time>
      </trkpt>
      <trkpt lat="41.328243" lon="2.018937">
        <ele>43.9</ele>
        <time>1970-01-01T01:47:38.000Z</time>
      </trkpt>
      <trkpt lat="41.328243" lon="2.018937">
        <ele>43.9</ele>
        <time>1970-01-01T01:47:39.000Z</time>
      </trkpt>
      <trkpt lat="41.328273" lon="2.01902">
        <ele>43.9</ele>
        <time>1970-01-01T01:47:40.000Z</time>
      </trkpt>
      <trkpt lat="41.328273" lon="2.01902">
        <ele>43.9</ele>
        <time>1970-01-01T01:47:41.000Z</time>
      </trkpt>
      <trkpt lat="41.328297" lon="2.01911">
        <ele>43.9</ele>
        <time>1970-01-01T01:47:42.000Z</time>
      </trkpt>
      <trkpt lat="41.328297" lon="2.01911">
        <ele>43.9</ele>
        <time>1970-01-01T01:47:43.000Z</time>
      </trkpt>
      <trkpt lat="41.328287" lon="2.019223">
        <ele>43.9</ele>
        <time>1970-01-01T01:47:44.000Z</time>
      </trkpt>
      <trkpt lat="41.328287" lon="2.019223">
        <ele>43.9</ele>
        <time>1970-01-01T01:47:45.000Z</time>
      </trkpt>
      <trkpt lat="41.328262" lon="2.019312">
        <ele>43.9</ele>
        <time>1970-01-01T01:47:46.000Z</time>
      </trkpt>
      <trkpt lat="41.328233" lon="2.01934">
        <ele>43.9</ele>
        <time>1970-01-01T01:47:47.000Z</time>
      </trkpt>
      <trkpt lat="41.328233" lon="2.01934">
        <ele>43.9</ele>
        <time>1970-01-01T01:47:48.000Z</time>
      </trkpt>
      <trkpt lat="41.328167" lon="2.019382">
        <ele>43.9</ele>
        <time>1970-01-01T01:47:49.000Z</time>
      </trkpt>
      <trkpt lat="41.328167" lon="2.019382">
        <ele>43.9</ele>
        <time>1970-01-01T01:47:50.000Z</time>
      </trkpt>
      <trkpt lat="41.328108" lon="2.019435">
        <ele>44.9</ele>
        <time>1970-01-01T01:47:51.000Z</time>
      </trkpt>
      <trkpt lat="41.328108" lon="2.019435">
        <ele>44.9</ele>
        <time>1970-01-01T01:47:52.000Z</time>
      </trkpt>
      <trkpt lat="41.328075" lon="2.019515">
        <ele>44.9</ele>
        <time>1970-01-01T01:47:53.000Z</time>
      </trkpt>
      <trkpt lat="41.328075" lon="2.019515">
        <ele>44.9</ele>
        <time>1970-01-01T01:47:54.000Z</time>
      </trkpt>
      <trkpt lat="41.328057" lon="2.0196">
        <ele>44.9</ele>
        <time>1970-01-01T01:47:55.000Z</time>
      </trkpt>
      <trkpt lat="41.328057" lon="2.019643">
        <ele>44.9</ele>
        <time>1970-01-01T01:47:56.000Z</time>
      </trkpt>
      <trkpt lat="41.328057" lon="2.019643">
        <ele>44.9</ele>
        <time>1970-01-01T01:47:57.000Z</time>
      </trkpt>
      <trkpt lat="41.328068" lon="2.019737">
        <ele>44.9</ele>
        <time>1970-01-01T01:47:58.000Z</time>
      </trkpt>
      <trkpt lat="41.328075" lon="2.019782">
        <ele>45.9</ele>
        <time>1970-01-01T01:47:59.000Z</time>
      </trkpt>
      <trkpt lat="41.328075" lon="2.019782">
        <ele>45.9</ele>
        <time>1970-01-01T01:48:00.000Z</time>
      </trkpt>
      <trkpt lat="41.32808" lon="2.019862">
        <ele>45.9</ele>
        <time>1970-01-01T01:48:01.000Z</time>
      </trkpt>
      <trkpt lat="41.32808" lon="2.019862">
        <ele>45.9</ele>
        <time>1970-01-01T01:48:02.000Z</time>
      </trkpt>
      <trkpt lat="41.328077" lon="2.019932">
        <ele>45.9</ele>
        <time>1970-01-01T01:48:03.000Z</time>
      </trkpt>
      <trkpt lat="41.328072" lon="2.019963">
        <ele>47.9</ele>
        <time>1970-01-01T01:48:04.000Z</time>
      </trkpt>
      <trkpt lat="41.328072" lon="2.019963">
        <ele>47.9</ele>
        <time>1970-01-01T01:48:05.000Z</time>
      </trkpt>
      <trkpt lat="41.32807" lon="2.020028">
        <ele>47.9</ele>
        <time>1970-01-01T01:48:06.000Z</time>
      </trkpt>
      <trkpt lat="41.32807" lon="2.020028">
        <ele>47.9</ele>
        <time>1970-01-01T01:48:07.000Z</time>
      </trkpt>
      <trkpt lat="41.328053" lon="2.020083">
        <ele>47.9</ele>
        <time>1970-01-01T01:48:08.000Z</time>
      </trkpt>
      <trkpt lat="41.328053" lon="2.020083">
        <ele>48.9</ele>
        <time>1970-01-01T01:48:09.000Z</time>
      </trkpt>
      <trkpt lat="41.328035" lon="2.02014">
        <ele>48.9</ele>
        <time>1970-01-01T01:48:10.000Z</time>
      </trkpt>
      <trkpt lat="41.328027" lon="2.02017">
        <ele>48.9</ele>
        <time>1970-01-01T01:48:11.000Z</time>
      </trkpt>
      <trkpt lat="41.328027" lon="2.02017">
        <ele>48.9</ele>
        <time>1970-01-01T01:48:12.000Z</time>
      </trkpt>
      <trkpt lat="41.328028" lon="2.020238">
        <ele>48.9</ele>
        <time>1970-01-01T01:48:13.000Z</time>
      </trkpt>
      <trkpt lat="41.328032" lon="2.02028">
        <ele>48.9</ele>
        <time>1970-01-01T01:48:14.000Z</time>
      </trkpt>
      <trkpt lat="41.328032" lon="2.02028">
        <ele>48.9</ele>
        <time>1970-01-01T01:48:15.000Z</time>
      </trkpt>
      <trkpt lat="41.328033" lon="2.020385">
        <ele>48.9</ele>
        <time>1970-01-01T01:48:16.000Z</time>
      </trkpt>
      <trkpt lat="41.328033" lon="2.020385">
        <ele>48.9</ele>
        <time>1970-01-01T01:48:17.000Z</time>
      </trkpt>
      <trkpt lat="41.328018" lon="2.020448">
        <ele>48.9</ele>
        <time>1970-01-01T01:48:18.000Z</time>
      </trkpt>
      <trkpt lat="41.328017" lon="2.020485">
        <ele>49.9</ele>
        <time>1970-01-01T01:48:19.000Z</time>
      </trkpt>
      <trkpt lat="41.328017" lon="2.020485">
        <ele>49.9</ele>
        <time>1970-01-01T01:48:20.000Z</time>
      </trkpt>
      <trkpt lat="41.328023" lon="2.02058">
        <ele>49.9</ele>
        <time>1970-01-01T01:48:21.000Z</time>
      </trkpt>
      <trkpt lat="41.328023" lon="2.02058">
        <ele>49.9</ele>
        <time>1970-01-01T01:48:22.000Z</time>
      </trkpt>
      <trkpt lat="41.32802" lon="2.020673">
        <ele>50.9</ele>
        <time>1970-01-01T01:48:23.000Z</time>
      </trkpt>
      <trkpt lat="41.328017" lon="2.020718">
        <ele>50.9</ele>
        <time>1970-01-01T01:48:24.000Z</time>
      </trkpt>
      <trkpt lat="41.328017" lon="2.020718">
        <ele>50.9</ele>
        <time>1970-01-01T01:48:25.000Z</time>
      </trkpt>
      <trkpt lat="41.32802" lon="2.020807">
        <ele>50.9</ele>
        <time>1970-01-01T01:48:26.000Z</time>
      </trkpt>
      <trkpt lat="41.32802" lon="2.020807">
        <ele>50.9</ele>
        <time>1970-01-01T01:48:27.000Z</time>
      </trkpt>
      <trkpt lat="41.328008" lon="2.020897">
        <ele>50.9</ele>
        <time>1970-01-01T01:48:28.000Z</time>
      </trkpt>
      <trkpt lat="41.328008" lon="2.020897">
        <ele>50.9</ele>
        <time>1970-01-01T01:48:29.000Z</time>
      </trkpt>
      <trkpt lat="41.327982" lon="2.020987">
        <ele>50.9</ele>
        <time>1970-01-01T01:48:30.000Z</time>
      </trkpt>
      <trkpt lat="41.32797" lon="2.021033">
        <ele>50.9</ele>
        <time>1970-01-01T01:48:31.000Z</time>
      </trkpt>
      <trkpt lat="41.327958" lon="2.021078">
        <ele>50.9</ele>
        <time>1970-01-01T01:48:32.000Z</time>
      </trkpt>
      <trkpt lat="41.327958" lon="2.021078">
        <ele>50.9</ele>
        <time>1970-01-01T01:48:33.000Z</time>
      </trkpt>
      <trkpt lat="41.327927" lon="2.021168">
        <ele>50.9</ele>
        <time>1970-01-01T01:48:34.000Z</time>
      </trkpt>
      <trkpt lat="41.327927" lon="2.021168">
        <ele>50.9</ele>
        <time>1970-01-01T01:48:35.000Z</time>
      </trkpt>
      <trkpt lat="41.327908" lon="2.021277">
        <ele>50.9</ele>
        <time>1970-01-01T01:48:36.000Z</time>
      </trkpt>
      <trkpt lat="41.327908" lon="2.021277">
        <ele>50.9</ele>
        <time>1970-01-01T01:48:37.000Z</time>
      </trkpt>
      <trkpt lat="41.327902" lon="2.021388">
        <ele>50.9</ele>
        <time>1970-01-01T01:48:38.000Z</time>
      </trkpt>
      <trkpt lat="41.327902" lon="2.021388">
        <ele>50.9</ele>
        <time>1970-01-01T01:48:39.000Z</time>
      </trkpt>
      <trkpt lat="41.327908" lon="2.0215">
        <ele>50.9</ele>
        <time>1970-01-01T01:48:40.000Z</time>
      </trkpt>
      <trkpt lat="41.327915" lon="2.021555">
        <ele>50.9</ele>
        <time>1970-01-01T01:48:41.000Z</time>
      </trkpt>
      <trkpt lat="41.327915" lon="2.021555">
        <ele>50.9</ele>
        <time>1970-01-01T01:48:42.000Z</time>
      </trkpt>
      <trkpt lat="41.327943" lon="2.021653">
        <ele>51.9</ele>
        <time>1970-01-01T01:48:43.000Z</time>
      </trkpt>
      <trkpt lat="41.327957" lon="2.0217">
        <ele>51.9</ele>
        <time>1970-01-01T01:48:44.000Z</time>
      </trkpt>
      <trkpt lat="41.327957" lon="2.0217">
        <ele>51.9</ele>
        <time>1970-01-01T01:48:45.000Z</time>
      </trkpt>
      <trkpt lat="41.327983" lon="2.0218">
        <ele>52.9</ele>
        <time>1970-01-01T01:48:46.000Z</time>
      </trkpt>
      <trkpt lat="41.327983" lon="2.0218">
        <ele>52.9</ele>
        <time>1970-01-01T01:48:47.000Z</time>
      </trkpt>
      <trkpt lat="41.328015" lon="2.021892">
        <ele>52.9</ele>
        <time>1970-01-01T01:48:48.000Z</time>
      </trkpt>
      <trkpt lat="41.328015" lon="2.021892">
        <ele>52.9</ele>
        <time>1970-01-01T01:48:49.000Z</time>
      </trkpt>
      <trkpt lat="41.32806" lon="2.021978">
        <ele>52.9</ele>
        <time>1970-01-01T01:48:50.000Z</time>
      </trkpt>
      <trkpt lat="41.32806" lon="2.021978">
        <ele>52.9</ele>
        <time>1970-01-01T01:48:51.000Z</time>
      </trkpt>
      <trkpt lat="41.32811" lon="2.022072">
        <ele>52.9</ele>
        <time>1970-01-01T01:48:52.000Z</time>
      </trkpt>
      <trkpt lat="41.32811" lon="2.022072">
        <ele>52.9</ele>
        <time>1970-01-01T01:48:53.000Z</time>
      </trkpt>
      <trkpt lat="41.32816" lon="2.022165">
        <ele>52.9</ele>
        <time>1970-01-01T01:48:54.000Z</time>
      </trkpt>
      <trkpt lat="41.32816" lon="2.022165">
        <ele>52.9</ele>
        <time>1970-01-01T01:48:55.000Z</time>
      </trkpt>
      <trkpt lat="41.328197" lon="2.022263">
        <ele>52.9</ele>
        <time>1970-01-01T01:48:56.000Z</time>
      </trkpt>
      <trkpt lat="41.328197" lon="2.022263">
        <ele>52.9</ele>
        <time>1970-01-01T01:48:57.000Z</time>
      </trkpt>
      <trkpt lat="41.328248" lon="2.022357">
        <ele>52.9</ele>
        <time>1970-01-01T01:48:58.000Z</time>
      </trkpt>
      <trkpt lat="41.328248" lon="2.022357">
        <ele>52.9</ele>
        <time>1970-01-01T01:48:59.000Z</time>
      </trkpt>
      <trkpt lat="41.328292" lon="2.022447">
        <ele>52.9</ele>
        <time>1970-01-01T01:49:00.000Z</time>
      </trkpt>
      <trkpt lat="41.328292" lon="2.022507">
        <ele>52.9</ele>
        <time>1970-01-01T01:49:01.000Z</time>
      </trkpt>
      <trkpt lat="41.328277" lon="2.02256">
        <ele>52.9</ele>
        <time>1970-01-01T01:49:02.000Z</time>
      </trkpt>
      <trkpt lat="41.328277" lon="2.02256">
        <ele>52.9</ele>
        <time>1970-01-01T01:49:03.000Z</time>
      </trkpt>
      <trkpt lat="41.328248" lon="2.022663">
        <ele>51.9</ele>
        <time>1970-01-01T01:49:04.000Z</time>
      </trkpt>
      <trkpt lat="41.328248" lon="2.022663">
        <ele>51.9</ele>
        <time>1970-01-01T01:49:05.000Z</time>
      </trkpt>
      <trkpt lat="41.3282" lon="2.02273">
        <ele>51.9</ele>
        <time>1970-01-01T01:49:06.000Z</time>
      </trkpt>
      <trkpt lat="41.3282" lon="2.02273">
        <ele>51.9</ele>
        <time>1970-01-01T01:49:07.000Z</time>
      </trkpt>
      <trkpt lat="41.328127" lon="2.022795">
        <ele>51.9</ele>
        <time>1970-01-01T01:49:08.000Z</time>
      </trkpt>
      <trkpt lat="41.328127" lon="2.022795">
        <ele>51.9</ele>
        <time>1970-01-01T01:49:09.000Z</time>
      </trkpt>
      <trkpt lat="41.328072" lon="2.02291">
        <ele>51.9</ele>
        <time>1970-01-01T01:49:10.000Z</time>
      </trkpt>
      <trkpt lat="41.328072" lon="2.02291">
        <ele>51.9</ele>
        <time>1970-01-01T01:49:11.000Z</time>
      </trkpt>
      <trkpt lat="41.32806" lon="2.02304">
        <ele>51.9</ele>
        <time>1970-01-01T01:49:12.000Z</time>
      </trkpt>
      <trkpt lat="41.32806" lon="2.02304">
        <ele>51.9</ele>
        <time>1970-01-01T01:49:13.000Z</time>
      </trkpt>
      <trkpt lat="41.328058" lon="2.02316">
        <ele>51.9</ele>
        <time>1970-01-01T01:49:14.000Z</time>
      </trkpt>
      <trkpt lat="41.328058" lon="2.02316">
        <ele>51.9</ele>
        <time>1970-01-01T01:49:15.000Z</time>
      </trkpt>
      <trkpt lat="41.328047" lon="2.023258">
        <ele>51.9</ele>
        <time>1970-01-01T01:49:16.000Z</time>
      </trkpt>
      <trkpt lat="41.328038" lon="2.023308">
        <ele>51.9</ele>
        <time>1970-01-01T01:49:17.000Z</time>
      </trkpt>
      <trkpt lat="41.328038" lon="2.023308">
        <ele>53.9</ele>
        <time>1970-01-01T01:49:18.000Z</time>
      </trkpt>
      <trkpt lat="41.328022" lon="2.023393">
        <ele>53.9</ele>
        <time>1970-01-01T01:49:19.000Z</time>
      </trkpt>
      <trkpt lat="41.328023" lon="2.023442">
        <ele>53.9</ele>
        <time>1970-01-01T01:49:20.000Z</time>
      </trkpt>
      <trkpt lat="41.328023" lon="2.023442">
        <ele>53.9</ele>
        <time>1970-01-01T01:49:21.000Z</time>
      </trkpt>
      <trkpt lat="41.328015" lon="2.02354">
        <ele>54.9</ele>
        <time>1970-01-01T01:49:22.000Z</time>
      </trkpt>
      <trkpt lat="41.328015" lon="2.02354">
        <ele>54.9</ele>
        <time>1970-01-01T01:49:23.000Z</time>
      </trkpt>
      <trkpt lat="41.32801" lon="2.023663">
        <ele>54.9</ele>
        <time>1970-01-01T01:49:24.000Z</time>
      </trkpt>
      <trkpt lat="41.32801" lon="2.023663">
        <ele>54.9</ele>
        <time>1970-01-01T01:49:25.000Z</time>
      </trkpt>
      <trkpt lat="41.327988" lon="2.023808">
        <ele>54.9</ele>
        <time>1970-01-01T01:49:26.000Z</time>
      </trkpt>
      <trkpt lat="41.327988" lon="2.023808">
        <ele>54.9</ele>
        <time>1970-01-01T01:49:27.000Z</time>
      </trkpt>
      <trkpt lat="41.327955" lon="2.023968">
        <ele>54.9</ele>
        <time>1970-01-01T01:49:28.000Z</time>
      </trkpt>
      <trkpt lat="41.32793" lon="2.024043">
        <ele>54.9</ele>
        <time>1970-01-01T01:49:29.000Z</time>
      </trkpt>
      <trkpt lat="41.32793" lon="2.024043">
        <ele>53.9</ele>
        <time>1970-01-01T01:49:30.000Z</time>
      </trkpt>
      <trkpt lat="41.327873" lon="2.02418">
        <ele>53.9</ele>
        <time>1970-01-01T01:49:31.000Z</time>
      </trkpt>
      <trkpt lat="41.327873" lon="2.02418">
        <ele>53.9</ele>
        <time>1970-01-01T01:49:32.000Z</time>
      </trkpt>
      <trkpt lat="41.32783" lon="2.024312">
        <ele>53.9</ele>
        <time>1970-01-01T01:49:33.000Z</time>
      </trkpt>
      <trkpt lat="41.32781" lon="2.024375">
        <ele>53.9</ele>
        <time>1970-01-01T01:49:34.000Z</time>
      </trkpt>
      <trkpt lat="41.32781" lon="2.024375">
        <ele>53.9</ele>
        <time>1970-01-01T01:49:35.000Z</time>
      </trkpt>
      <trkpt lat="41.327792" lon="2.024518">
        <ele>53.9</ele>
        <time>1970-01-01T01:49:36.000Z</time>
      </trkpt>
      <trkpt lat="41.327792" lon="2.024518">
        <ele>53.9</ele>
        <time>1970-01-01T01:49:37.000Z</time>
      </trkpt>
      <trkpt lat="41.327823" lon="2.024663">
        <ele>53.9</ele>
        <time>1970-01-01T01:49:38.000Z</time>
      </trkpt>
      <trkpt lat="41.327823" lon="2.024663">
        <ele>53.9</ele>
        <time>1970-01-01T01:49:39.000Z</time>
      </trkpt>
      <trkpt lat="41.327843" lon="2.024793">
        <ele>53.9</ele>
        <time>1970-01-01T01:49:40.000Z</time>
      </trkpt>
      <trkpt lat="41.327853" lon="2.02486">
        <ele>53.9</ele>
        <time>1970-01-01T01:49:41.000Z</time>
      </trkpt>
      <trkpt lat="41.327853" lon="2.02486">
        <ele>53.9</ele>
        <time>1970-01-01T01:49:42.000Z</time>
      </trkpt>
      <trkpt lat="41.327902" lon="2.02499">
        <ele>53.9</ele>
        <time>1970-01-01T01:49:43.000Z</time>
      </trkpt>
      <trkpt lat="41.327902" lon="2.02499">
        <ele>53.9</ele>
        <time>1970-01-01T01:49:44.000Z</time>
      </trkpt>
      <trkpt lat="41.327977" lon="2.025097">
        <ele>53.9</ele>
        <time>1970-01-01T01:49:45.000Z</time>
      </trkpt>
      <trkpt lat="41.327977" lon="2.025097">
        <ele>53.9</ele>
        <time>1970-01-01T01:49:46.000Z</time>
      </trkpt>
      <trkpt lat="41.328043" lon="2.025193">
        <ele>53.9</ele>
        <time>1970-01-01T01:49:47.000Z</time>
      </trkpt>
      <trkpt lat="41.328072" lon="2.025253">
        <ele>53.9</ele>
        <time>1970-01-01T01:49:48.000Z</time>
      </trkpt>
      <trkpt lat="41.328095" lon="2.025307">
        <ele>53.9</ele>
        <time>1970-01-01T01:49:49.000Z</time>
      </trkpt>
      <trkpt lat="41.328095" lon="2.025307">
        <ele>53.9</ele>
        <time>1970-01-01T01:49:50.000Z</time>
      </trkpt>
      <trkpt lat="41.32815" lon="2.025412">
        <ele>53.9</ele>
        <time>1970-01-01T01:49:51.000Z</time>
      </trkpt>
      <trkpt lat="41.32815" lon="2.025412">
        <ele>54.9</ele>
        <time>1970-01-01T01:49:52.000Z</time>
      </trkpt>
      <trkpt lat="41.3282" lon="2.025518">
        <ele>54.9</ele>
        <time>1970-01-01T01:49:53.000Z</time>
      </trkpt>
      <trkpt lat="41.328223" lon="2.02557">
        <ele>54.9</ele>
        <time>1970-01-01T01:49:54.000Z</time>
      </trkpt>
      <trkpt lat="41.328223" lon="2.02557">
        <ele>54.9</ele>
        <time>1970-01-01T01:49:55.000Z</time>
      </trkpt>
      <trkpt lat="41.328275" lon="2.025645">
        <ele>55.9</ele>
        <time>1970-01-01T01:49:56.000Z</time>
      </trkpt>
      <trkpt lat="41.328275" lon="2.025645">
        <ele>55.9</ele>
        <time>1970-01-01T01:49:57.000Z</time>
      </trkpt>
      <trkpt lat="41.328332" lon="2.025693">
        <ele>55.9</ele>
        <time>1970-01-01T01:49:58.000Z</time>
      </trkpt>
      <trkpt lat="41.328332" lon="2.025693">
        <ele>55.9</ele>
        <time>1970-01-01T01:49:59.000Z</time>
      </trkpt>
      <trkpt lat="41.328398" lon="2.025732">
        <ele>56.9</ele>
        <time>1970-01-01T01:50:00.000Z</time>
      </trkpt>
      <trkpt lat="41.328433" lon="2.025745">
        <ele>56.9</ele>
        <time>1970-01-01T01:50:01.000Z</time>
      </trkpt>
      <trkpt lat="41.328433" lon="2.025745">
        <ele>56.9</ele>
        <time>1970-01-01T01:50:02.000Z</time>
      </trkpt>
      <trkpt lat="41.328528" lon="2.025763">
        <ele>56.9</ele>
        <time>1970-01-01T01:50:03.000Z</time>
      </trkpt>
      <trkpt lat="41.328585" lon="2.025777">
        <ele>56.9</ele>
        <time>1970-01-01T01:50:04.000Z</time>
      </trkpt>
      <trkpt lat="41.32864" lon="2.025795">
        <ele>56.9</ele>
        <time>1970-01-01T01:50:05.000Z</time>
      </trkpt>
      <trkpt lat="41.32864" lon="2.025795">
        <ele>56.9</ele>
        <time>1970-01-01T01:50:06.000Z</time>
      </trkpt>
      <trkpt lat="41.328743" lon="2.025832">
        <ele>55.9</ele>
        <time>1970-01-01T01:50:07.000Z</time>
      </trkpt>
      <trkpt lat="41.328807" lon="2.025837">
        <ele>55.9</ele>
        <time>1970-01-01T01:50:08.000Z</time>
      </trkpt>
      <trkpt lat="41.328807" lon="2.025837">
        <ele>55.9</ele>
        <time>1970-01-01T01:50:09.000Z</time>
      </trkpt>
      <trkpt lat="41.32894" lon="2.025837">
        <ele>55.9</ele>
        <time>1970-01-01T01:50:10.000Z</time>
      </trkpt>
      <trkpt lat="41.32901" lon="2.025842">
        <ele>53.9</ele>
        <time>1970-01-01T01:50:11.000Z</time>
      </trkpt>
      <trkpt lat="41.32901" lon="2.025842">
        <ele>53.9</ele>
        <time>1970-01-01T01:50:12.000Z</time>
      </trkpt>
      <trkpt lat="41.329157" lon="2.025868">
        <ele>53.9</ele>
        <time>1970-01-01T01:50:13.000Z</time>
      </trkpt>
      <trkpt lat="41.329157" lon="2.025868">
        <ele>53.9</ele>
        <time>1970-01-01T01:50:14.000Z</time>
      </trkpt>
      <trkpt lat="41.329302" lon="2.02594">
        <ele>53.9</ele>
        <time>1970-01-01T01:50:15.000Z</time>
      </trkpt>
      <trkpt lat="41.329365" lon="2.025983">
        <ele>52.9</ele>
        <time>1970-01-01T01:50:16.000Z</time>
      </trkpt>
      <trkpt lat="41.329365" lon="2.025983">
        <ele>52.9</ele>
        <time>1970-01-01T01:50:17.000Z</time>
      </trkpt>
      <trkpt lat="41.329505" lon="2.026092">
        <ele>51.9</ele>
        <time>1970-01-01T01:50:18.000Z</time>
      </trkpt>
      <trkpt lat="41.329505" lon="2.026092">
        <ele>51.9</ele>
        <time>1970-01-01T01:50:19.000Z</time>
      </trkpt>
      <trkpt lat="41.329667" lon="2.026198">
        <ele>50.9</ele>
        <time>1970-01-01T01:50:20.000Z</time>
      </trkpt>
      <trkpt lat="41.329667" lon="2.026198">
        <ele>50.9</ele>
        <time>1970-01-01T01:50:21.000Z</time>
      </trkpt>
      <trkpt lat="41.329817" lon="2.026325">
        <ele>49.9</ele>
        <time>1970-01-01T01:50:22.000Z</time>
      </trkpt>
      <trkpt lat="41.329817" lon="2.026325">
        <ele>49.9</ele>
        <time>1970-01-01T01:50:23.000Z</time>
      </trkpt>
      <trkpt lat="41.329925" lon="2.0265">
        <ele>49.9</ele>
        <time>1970-01-01T01:50:24.000Z</time>
      </trkpt>
      <trkpt lat="41.329925" lon="2.0265">
        <ele>49.9</ele>
        <time>1970-01-01T01:50:25.000Z</time>
      </trkpt>
      <trkpt lat="41.330005" lon="2.026692">
        <ele>48.9</ele>
        <time>1970-01-01T01:50:26.000Z</time>
      </trkpt>
      <trkpt lat="41.330005" lon="2.026692">
        <ele>48.9</ele>
        <time>1970-01-01T01:50:27.000Z</time>
      </trkpt>
      <trkpt lat="41.330072" lon="2.026878">
        <ele>48.9</ele>
        <time>1970-01-01T01:50:28.000Z</time>
      </trkpt>
      <trkpt lat="41.330093" lon="2.026972">
        <ele>48.9</ele>
        <time>1970-01-01T01:50:29.000Z</time>
      </trkpt>
      <trkpt lat="41.330093" lon="2.026972">
        <ele>48.9</ele>
        <time>1970-01-01T01:50:30.000Z</time>
      </trkpt>
      <trkpt lat="41.330125" lon="2.027152">
        <ele>48.9</ele>
        <time>1970-01-01T01:50:31.000Z</time>
      </trkpt>
      <trkpt lat="41.330125" lon="2.027152">
        <ele>48.9</ele>
        <time>1970-01-01T01:50:32.000Z</time>
      </trkpt>
      <trkpt lat="41.33015" lon="2.027308">
        <ele>48.9</ele>
        <time>1970-01-01T01:50:33.000Z</time>
      </trkpt>
      <trkpt lat="41.33015" lon="2.027308">
        <ele>49.9</ele>
        <time>1970-01-01T01:50:34.000Z</time>
      </trkpt>
      <trkpt lat="41.330157" lon="2.027433">
        <ele>49.9</ele>
        <time>1970-01-01T01:50:35.000Z</time>
      </trkpt>
      <trkpt lat="41.330157" lon="2.027433">
        <ele>50.9</ele>
        <time>1970-01-01T01:50:36.000Z</time>
      </trkpt>
      <trkpt lat="41.330138" lon="2.027557">
        <ele>50.9</ele>
        <time>1970-01-01T01:50:37.000Z</time>
      </trkpt>
      <trkpt lat="41.330122" lon="2.027615">
        <ele>50.9</ele>
        <time>1970-01-01T01:50:38.000Z</time>
      </trkpt>
      <trkpt lat="41.330122" lon="2.027615">
        <ele>50.9</ele>
        <time>1970-01-01T01:50:39.000Z</time>
      </trkpt>
      <trkpt lat="41.330082" lon="2.027727">
        <ele>50.9</ele>
        <time>1970-01-01T01:50:40.000Z</time>
      </trkpt>
      <trkpt lat="41.330057" lon="2.027782">
        <ele>50.9</ele>
        <time>1970-01-01T01:50:41.000Z</time>
      </trkpt>
      <trkpt lat="41.330057" lon="2.027782">
        <ele>50.9</ele>
        <time>1970-01-01T01:50:42.000Z</time>
      </trkpt>
      <trkpt lat="41.329985" lon="2.027895">
        <ele>50.9</ele>
        <time>1970-01-01T01:50:43.000Z</time>
      </trkpt>
      <trkpt lat="41.329938" lon="2.027948">
        <ele>50.9</ele>
        <time>1970-01-01T01:50:44.000Z</time>
      </trkpt>
      <trkpt lat="41.329938" lon="2.027948">
        <ele>50.9</ele>
        <time>1970-01-01T01:50:45.000Z</time>
      </trkpt>
      <trkpt lat="41.329828" lon="2.028058">
        <ele>50.9</ele>
        <time>1970-01-01T01:50:46.000Z</time>
      </trkpt>
      <trkpt lat="41.329768" lon="2.028123">
        <ele>49.9</ele>
        <time>1970-01-01T01:50:47.000Z</time>
      </trkpt>
      <trkpt lat="41.329768" lon="2.028123">
        <ele>49.9</ele>
        <time>1970-01-01T01:50:48.000Z</time>
      </trkpt>
      <trkpt lat="41.329695" lon="2.028315">
        <ele>48.9</ele>
        <time>1970-01-01T01:50:49.000Z</time>
      </trkpt>
      <trkpt lat="41.329692" lon="2.028433">
        <ele>48.9</ele>
        <time>1970-01-01T01:50:50.000Z</time>
      </trkpt>
      <trkpt lat="41.329692" lon="2.028433">
        <ele>47.9</ele>
        <time>1970-01-01T01:50:51.000Z</time>
      </trkpt>
      <trkpt lat="41.329765" lon="2.02868">
        <ele>47.9</ele>
        <time>1970-01-01T01:50:52.000Z</time>
      </trkpt>
      <trkpt lat="41.329765" lon="2.02868">
        <ele>45.9</ele>
        <time>1970-01-01T01:50:53.000Z</time>
      </trkpt>
      <trkpt lat="41.329903" lon="2.02892">
        <ele>45.9</ele>
        <time>1970-01-01T01:50:54.000Z</time>
      </trkpt>
      <trkpt lat="41.32998" lon="2.029043">
        <ele>43.9</ele>
        <time>1970-01-01T01:50:55.000Z</time>
      </trkpt>
      <trkpt lat="41.330057" lon="2.029165">
        <ele>43.9</ele>
        <time>1970-01-01T01:50:56.000Z</time>
      </trkpt>
      <trkpt lat="41.330057" lon="2.029165">
        <ele>40.9</ele>
        <time>1970-01-01T01:50:57.000Z</time>
      </trkpt>
      <trkpt lat="41.330202" lon="2.029392">
        <ele>40.9</ele>
        <time>1970-01-01T01:50:58.000Z</time>
      </trkpt>
      <trkpt lat="41.330202" lon="2.029392">
        <ele>38.9</ele>
        <time>1970-01-01T01:50:59.000Z</time>
      </trkpt>
      <trkpt lat="41.330322" lon="2.029583">
        <ele>38.9</ele>
        <time>1970-01-01T01:51:00.000Z</time>
      </trkpt>
      <trkpt lat="41.330372" lon="2.029663">
        <ele>36.9</ele>
        <time>1970-01-01T01:51:01.000Z</time>
      </trkpt>
      <trkpt lat="41.330372" lon="2.029663">
        <ele>36.9</ele>
        <time>1970-01-01T01:51:02.000Z</time>
      </trkpt>
      <trkpt lat="41.330458" lon="2.029793">
        <ele>35.9</ele>
        <time>1970-01-01T01:51:03.000Z</time>
      </trkpt>
      <trkpt lat="41.330492" lon="2.029847">
        <ele>35.9</ele>
        <time>1970-01-01T01:51:04.000Z</time>
      </trkpt>
      <trkpt lat="41.330492" lon="2.029847">
        <ele>35.9</ele>
        <time>1970-01-01T01:51:05.000Z</time>
      </trkpt>
      <trkpt lat="41.330535" lon="2.029922">
        <ele>35.9</ele>
        <time>1970-01-01T01:51:06.000Z</time>
      </trkpt>
      <trkpt lat="41.33055" lon="2.029943">
        <ele>33.9</ele>
        <time>1970-01-01T01:51:07.000Z</time>
      </trkpt>
      <trkpt lat="41.33056" lon="2.029967">
        <ele>33.9</ele>
        <time>1970-01-01T01:51:08.000Z</time>
      </trkpt>
      <trkpt lat="41.33056" lon="2.029967">
        <ele>33.9</ele>
        <time>1970-01-01T01:51:09.000Z</time>
      </trkpt>
      <trkpt lat="41.330577" lon="2.029998">
        <ele>33.9</ele>
        <time>1970-01-01T01:51:10.000Z</time>
      </trkpt>
      <trkpt lat="41.330597" lon="2.030012">
        <ele>31.9</ele>
        <time>1970-01-01T01:51:11.000Z</time>
      </trkpt>
      <trkpt lat="41.330597" lon="2.030012">
        <ele>31.9</ele>
        <time>1970-01-01T01:51:12.000Z</time>
      </trkpt>
      <trkpt lat="41.330652" lon="2.03006">
        <ele>31.9</ele>
        <time>1970-01-01T01:51:13.000Z</time>
      </trkpt>
      <trkpt lat="41.330668" lon="2.030105">
        <ele>31.9</ele>
        <time>1970-01-01T01:51:14.000Z</time>
      </trkpt>
      <trkpt lat="41.330682" lon="2.030163">
        <ele>31.9</ele>
        <time>1970-01-01T01:51:15.000Z</time>
      </trkpt>
      <trkpt lat="41.330682" lon="2.030163">
        <ele>31.9</ele>
        <time>1970-01-01T01:51:16.000Z</time>
      </trkpt>
      <trkpt lat="41.330713" lon="2.030292">
        <ele>30.9</ele>
        <time>1970-01-01T01:51:17.000Z</time>
      </trkpt>
      <trkpt lat="41.33073" lon="2.030357">
        <ele>30.9</ele>
        <time>1970-01-01T01:51:18.000Z</time>
      </trkpt>
      <trkpt lat="41.330752" lon="2.03042">
        <ele>29.9</ele>
        <time>1970-01-01T01:51:19.000Z</time>
      </trkpt>
      <trkpt lat="41.330752" lon="2.03042">
        <ele>29.9</ele>
        <time>1970-01-01T01:51:20.000Z</time>
      </trkpt>
      <trkpt lat="41.330812" lon="2.030537">
        <ele>29.9</ele>
        <time>1970-01-01T01:51:21.000Z</time>
      </trkpt>
      <trkpt lat="41.330812" lon="2.030537">
        <ele>29.9</ele>
        <time>1970-01-01T01:51:22.000Z</time>
      </trkpt>
      <trkpt lat="41.330887" lon="2.030637">
        <ele>28.9</ele>
        <time>1970-01-01T01:51:23.000Z</time>
      </trkpt>
      <trkpt lat="41.33093" lon="2.030695">
        <ele>28.9</ele>
        <time>1970-01-01T01:51:24.000Z</time>
      </trkpt>
      <trkpt lat="41.33093" lon="2.030695">
        <ele>28.9</ele>
        <time>1970-01-01T01:51:25.000Z</time>
      </trkpt>
      <trkpt lat="41.331022" lon="2.03082">
        <ele>27.9</ele>
        <time>1970-01-01T01:51:26.000Z</time>
      </trkpt>
      <trkpt lat="41.331022" lon="2.03082">
        <ele>27.9</ele>
        <time>1970-01-01T01:51:27.000Z</time>
      </trkpt>
      <trkpt lat="41.33112" lon="2.030958">
        <ele>26.9</ele>
        <time>1970-01-01T01:51:28.000Z</time>
      </trkpt>
      <trkpt lat="41.33112" lon="2.030958">
        <ele>26.9</ele>
        <time>1970-01-01T01:51:29.000Z</time>
      </trkpt>
      <trkpt lat="41.33123" lon="2.031108">
        <ele>26.9</ele>
        <time>1970-01-01T01:51:30.000Z</time>
      </trkpt>
      <trkpt lat="41.331285" lon="2.03119">
        <ele>26.9</ele>
        <time>1970-01-01T01:51:31.000Z</time>
      </trkpt>
      <trkpt lat="41.331343" lon="2.031273">
        <ele>24.9</ele>
        <time>1970-01-01T01:51:32.000Z</time>
      </trkpt>
      <trkpt lat="41.331343" lon="2.031273">
        <ele>24.9</ele>
        <time>1970-01-01T01:51:33.000Z</time>
      </trkpt>
      <trkpt lat="41.331458" lon="2.031448">
        <ele>23.9</ele>
        <time>1970-01-01T01:51:34.000Z</time>
      </trkpt>
      <trkpt lat="41.331458" lon="2.031448">
        <ele>23.9</ele>
        <time>1970-01-01T01:51:35.000Z</time>
      </trkpt>
      <trkpt lat="41.33157" lon="2.03161">
        <ele>21.9</ele>
        <time>1970-01-01T01:51:36.000Z</time>
      </trkpt>
      <trkpt lat="41.33162" lon="2.031682">
        <ele>21.9</ele>
        <time>1970-01-01T01:51:37.000Z</time>
      </trkpt>
      <trkpt lat="41.33162" lon="2.031682">
        <ele>19.9</ele>
        <time>1970-01-01T01:51:38.000Z</time>
      </trkpt>
      <trkpt lat="41.331707" lon="2.031818">
        <ele>19.9</ele>
        <time>1970-01-01T01:51:39.000Z</time>
      </trkpt>
      <trkpt lat="41.331707" lon="2.031818">
        <ele>18.9</ele>
        <time>1970-01-01T01:51:40.000Z</time>
      </trkpt>
      <trkpt lat="41.331775" lon="2.031932">
        <ele>18.9</ele>
        <time>1970-01-01T01:51:41.000Z</time>
      </trkpt>
      <trkpt lat="41.331775" lon="2.031932">
        <ele>16.9</ele>
        <time>1970-01-01T01:51:42.000Z</time>
      </trkpt>
      <trkpt lat="41.3318" lon="2.032027">
        <ele>16.9</ele>
        <time>1970-01-01T01:51:43.000Z</time>
      </trkpt>
      <trkpt lat="41.3318" lon="2.032075">
        <ele>16.9</ele>
        <time>1970-01-01T01:51:44.000Z</time>
      </trkpt>
      <trkpt lat="41.3318" lon="2.032075">
        <ele>16.9</ele>
        <time>1970-01-01T01:51:45.000Z</time>
      </trkpt>
      <trkpt lat="41.33182" lon="2.032173">
        <ele>15.9</ele>
        <time>1970-01-01T01:51:46.000Z</time>
      </trkpt>
      <trkpt lat="41.33182" lon="2.032173">
        <ele>15.9</ele>
        <time>1970-01-01T01:51:47.000Z</time>
      </trkpt>
      <trkpt lat="41.331862" lon="2.032263">
        <ele>15.9</ele>
        <time>1970-01-01T01:51:48.000Z</time>
      </trkpt>
      <trkpt lat="41.331862" lon="2.032263">
        <ele>15.9</ele>
        <time>1970-01-01T01:51:49.000Z</time>
      </trkpt>
      <trkpt lat="41.331887" lon="2.032333">
        <ele>15.9</ele>
        <time>1970-01-01T01:51:50.000Z</time>
      </trkpt>
      <trkpt lat="41.331887" lon="2.032333">
        <ele>14.9</ele>
        <time>1970-01-01T01:51:51.000Z</time>
      </trkpt>
      <trkpt lat="41.331878" lon="2.032413">
        <ele>14.9</ele>
        <time>1970-01-01T01:51:52.000Z</time>
      </trkpt>
      <trkpt lat="41.331878" lon="2.032413">
        <ele>14.9</ele>
        <time>1970-01-01T01:51:53.000Z</time>
      </trkpt>
      <trkpt lat="41.33184" lon="2.032483">
        <ele>14.9</ele>
        <time>1970-01-01T01:51:54.000Z</time>
      </trkpt>
      <trkpt lat="41.331818" lon="2.032515">
        <ele>14.9</ele>
        <time>1970-01-01T01:51:55.000Z</time>
      </trkpt>
      <trkpt lat="41.3318" lon="2.032545">
        <ele>14.9</ele>
        <time>1970-01-01T01:51:56.000Z</time>
      </trkpt>
      <trkpt lat="41.3318" lon="2.032545">
        <ele>14.9</ele>
        <time>1970-01-01T01:51:57.000Z</time>
      </trkpt>
      <trkpt lat="41.331755" lon="2.032625">
        <ele>14.9</ele>
        <time>1970-01-01T01:51:58.000Z</time>
      </trkpt>
      <trkpt lat="41.331755" lon="2.032625">
        <ele>13.9</ele>
        <time>1970-01-01T01:51:59.000Z</time>
      </trkpt>
      <trkpt lat="41.331708" lon="2.032712">
        <ele>13.9</ele>
        <time>1970-01-01T01:52:00.000Z</time>
      </trkpt>
      <trkpt lat="41.331685" lon="2.03276">
        <ele>13.9</ele>
        <time>1970-01-01T01:52:01.000Z</time>
      </trkpt>
      <trkpt lat="41.331685" lon="2.03276">
        <ele>13.9</ele>
        <time>1970-01-01T01:52:02.000Z</time>
      </trkpt>
      <trkpt lat="41.331633" lon="2.032867">
        <ele>13.9</ele>
        <time>1970-01-01T01:52:03.000Z</time>
      </trkpt>
      <trkpt lat="41.331633" lon="2.032867">
        <ele>13.9</ele>
        <time>1970-01-01T01:52:04.000Z</time>
      </trkpt>
      <trkpt lat="41.331588" lon="2.032975">
        <ele>13.9</ele>
        <time>1970-01-01T01:52:05.000Z</time>
      </trkpt>
      <trkpt lat="41.331588" lon="2.032975">
        <ele>13.9</ele>
        <time>1970-01-01T01:52:06.000Z</time>
      </trkpt>
      <trkpt lat="41.331542" lon="2.03311">
        <ele>11.9</ele>
        <time>1970-01-01T01:52:07.000Z</time>
      </trkpt>
      <trkpt lat="41.331518" lon="2.033192">
        <ele>11.9</ele>
        <time>1970-01-01T01:52:08.000Z</time>
      </trkpt>
      <trkpt lat="41.331518" lon="2.033192">
        <ele>11.9</ele>
        <time>1970-01-01T01:52:09.000Z</time>
      </trkpt>
      <trkpt lat="41.331495" lon="2.033335">
        <ele>10.9</ele>
        <time>1970-01-01T01:52:10.000Z</time>
      </trkpt>
      <trkpt lat="41.331495" lon="2.033335">
        <ele>10.9</ele>
        <time>1970-01-01T01:52:11.000Z</time>
      </trkpt>
      <trkpt lat="41.331495" lon="2.03347">
        <ele>9.9</ele>
        <time>1970-01-01T01:52:12.000Z</time>
      </trkpt>
      <trkpt lat="41.331495" lon="2.03347">
        <ele>9.9</ele>
        <time>1970-01-01T01:52:13.000Z</time>
      </trkpt>
      <trkpt lat="41.331525" lon="2.03361">
        <ele>9.9</ele>
        <time>1970-01-01T01:52:14.000Z</time>
      </trkpt>
      <trkpt lat="41.331525" lon="2.03361">
        <ele>9.9</ele>
        <time>1970-01-01T01:52:15.000Z</time>
      </trkpt>
      <trkpt lat="41.331575" lon="2.03374">
        <ele>8.9</ele>
        <time>1970-01-01T01:52:16.000Z</time>
      </trkpt>
      <trkpt lat="41.331575" lon="2.03374">
        <ele>8.9</ele>
        <time>1970-01-01T01:52:17.000Z</time>
      </trkpt>
      <trkpt lat="41.331622" lon="2.033875">
        <ele>8.9</ele>
        <time>1970-01-01T01:52:18.000Z</time>
      </trkpt>
      <trkpt lat="41.331622" lon="2.033875">
        <ele>8.9</ele>
        <time>1970-01-01T01:52:19.000Z</time>
      </trkpt>
      <trkpt lat="41.331655" lon="2.034018">
        <ele>7.9</ele>
        <time>1970-01-01T01:52:20.000Z</time>
      </trkpt>
      <trkpt lat="41.331655" lon="2.034018">
        <ele>7.9</ele>
        <time>1970-01-01T01:52:21.000Z</time>
      </trkpt>
      <trkpt lat="41.331702" lon="2.034147">
        <ele>7.9</ele>
        <time>1970-01-01T01:52:22.000Z</time>
      </trkpt>
      <trkpt lat="41.331727" lon="2.034197">
        <ele>7.9</ele>
        <time>1970-01-01T01:52:23.000Z</time>
      </trkpt>
      <trkpt lat="41.331727" lon="2.034197">
        <ele>7.9</ele>
        <time>1970-01-01T01:52:24.000Z</time>
      </trkpt>
      <trkpt lat="41.331775" lon="2.03429">
        <ele>7.9</ele>
        <time>1970-01-01T01:52:25.000Z</time>
      </trkpt>
      <trkpt lat="41.331775" lon="2.03429">
        <ele>7.9</ele>
        <time>1970-01-01T01:52:26.000Z</time>
      </trkpt>
      <trkpt lat="41.331817" lon="2.034365">
        <ele>7.9</ele>
        <time>1970-01-01T01:52:27.000Z</time>
      </trkpt>
      <trkpt lat="41.331837" lon="2.0344">
        <ele>7.9</ele>
        <time>1970-01-01T01:52:28.000Z</time>
      </trkpt>
      <trkpt lat="41.331837" lon="2.0344">
        <ele>7.9</ele>
        <time>1970-01-01T01:52:29.000Z</time>
      </trkpt>
      <trkpt lat="41.331877" lon="2.034468">
        <ele>7.9</ele>
        <time>1970-01-01T01:52:30.000Z</time>
      </trkpt>
      <trkpt lat="41.331877" lon="2.034468">
        <ele>7.9</ele>
        <time>1970-01-01T01:52:31.000Z</time>
      </trkpt>
      <trkpt lat="41.331917" lon="2.034537">
        <ele>7.9</ele>
        <time>1970-01-01T01:52:32.000Z</time>
      </trkpt>
      <trkpt lat="41.331917" lon="2.034537">
        <ele>8.9</ele>
        <time>1970-01-01T01:52:33.000Z</time>
      </trkpt>
      <trkpt lat="41.331957" lon="2.0346">
        <ele>8.9</ele>
        <time>1970-01-01T01:52:34.000Z</time>
      </trkpt>
      <trkpt lat="41.331957" lon="2.0346">
        <ele>8.9</ele>
        <time>1970-01-01T01:52:35.000Z</time>
      </trkpt>
      <trkpt lat="41.332002" lon="2.034662">
        <ele>8.9</ele>
        <time>1970-01-01T01:52:36.000Z</time>
      </trkpt>
      <trkpt lat="41.332002" lon="2.034662">
        <ele>8.9</ele>
        <time>1970-01-01T01:52:37.000Z</time>
      </trkpt>
      <trkpt lat="41.332048" lon="2.034708">
        <ele>8.9</ele>
        <time>1970-01-01T01:52:38.000Z</time>
      </trkpt>
      <trkpt lat="41.332048" lon="2.034708">
        <ele>9.9</ele>
        <time>1970-01-01T01:52:39.000Z</time>
      </trkpt>
      <trkpt lat="41.332095" lon="2.034755">
        <ele>9.9</ele>
        <time>1970-01-01T01:52:40.000Z</time>
      </trkpt>
      <trkpt lat="41.332125" lon="2.034777">
        <ele>9.9</ele>
        <time>1970-01-01T01:52:41.000Z</time>
      </trkpt>
      <trkpt lat="41.332125" lon="2.034777">
        <ele>9.9</ele>
        <time>1970-01-01T01:52:42.000Z</time>
      </trkpt>
      <trkpt lat="41.332183" lon="2.034818">
        <ele>9.9</ele>
        <time>1970-01-01T01:52:43.000Z</time>
      </trkpt>
      <trkpt lat="41.332208" lon="2.034843">
        <ele>9.9</ele>
        <time>1970-01-01T01:52:44.000Z</time>
      </trkpt>
      <trkpt lat="41.332208" lon="2.034843">
        <ele>9.9</ele>
        <time>1970-01-01T01:52:45.000Z</time>
      </trkpt>
      <trkpt lat="41.332255" lon="2.034893">
        <ele>9.9</ele>
        <time>1970-01-01T01:52:46.000Z</time>
      </trkpt>
      <trkpt lat="41.332277" lon="2.034922">
        <ele>10.9</ele>
        <time>1970-01-01T01:52:47.000Z</time>
      </trkpt>
      <trkpt lat="41.332277" lon="2.034922">
        <ele>10.9</ele>
        <time>1970-01-01T01:52:48.000Z</time>
      </trkpt>
      <trkpt lat="41.332318" lon="2.034968">
        <ele>10.9</ele>
        <time>1970-01-01T01:52:49.000Z</time>
      </trkpt>
      <trkpt lat="41.332337" lon="2.034992">
        <ele>10.9</ele>
        <time>1970-01-01T01:52:50.000Z</time>
      </trkpt>
      <trkpt lat="41.332337" lon="2.034992">
        <ele>10.9</ele>
        <time>1970-01-01T01:52:51.000Z</time>
      </trkpt>
      <trkpt lat="41.33236" lon="2.035048">
        <ele>10.9</ele>
        <time>1970-01-01T01:52:52.000Z</time>
      </trkpt>
      <trkpt lat="41.332372" lon="2.035072">
        <ele>10.9</ele>
        <time>1970-01-01T01:52:53.000Z</time>
      </trkpt>
      <trkpt lat="41.332372" lon="2.035072">
        <ele>10.9</ele>
        <time>1970-01-01T01:52:54.000Z</time>
      </trkpt>
      <trkpt lat="41.332395" lon="2.03511">
        <ele>10.9</ele>
        <time>1970-01-01T01:52:55.000Z</time>
      </trkpt>
      <trkpt lat="41.332413" lon="2.035122">
        <ele>10.9</ele>
        <time>1970-01-01T01:52:56.000Z</time>
      </trkpt>
      <trkpt lat="41.332413" lon="2.035122">
        <ele>10.9</ele>
        <time>1970-01-01T01:52:57.000Z</time>
      </trkpt>
      <trkpt lat="41.33245" lon="2.035147">
        <ele>10.9</ele>
        <time>1970-01-01T01:52:58.000Z</time>
      </trkpt>
      <trkpt lat="41.33245" lon="2.035147">
        <ele>10.9</ele>
        <time>1970-01-01T01:52:59.000Z</time>
      </trkpt>
      <trkpt lat="41.33247" lon="2.035188">
        <ele>10.9</ele>
        <time>1970-01-01T01:53:00.000Z</time>
      </trkpt>
      <trkpt lat="41.332475" lon="2.035215">
        <ele>10.9</ele>
        <time>1970-01-01T01:53:01.000Z</time>
      </trkpt>
      <trkpt lat="41.332482" lon="2.035252">
        <ele>10.9</ele>
        <time>1970-01-01T01:53:02.000Z</time>
      </trkpt>
      <trkpt lat="41.332492" lon="2.035292">
        <ele>10.9</ele>
        <time>1970-01-01T01:53:03.000Z</time>
      </trkpt>
      <trkpt lat="41.332492" lon="2.035292">
        <ele>11.9</ele>
        <time>1970-01-01T01:53:04.000Z</time>
      </trkpt>
      <trkpt lat="41.332523" lon="2.035365">
        <ele>11.9</ele>
        <time>1970-01-01T01:53:05.000Z</time>
      </trkpt>
      <trkpt lat="41.332523" lon="2.035365">
        <ele>11.9</ele>
        <time>1970-01-01T01:53:06.000Z</time>
      </trkpt>
      <trkpt lat="41.332565" lon="2.03543">
        <ele>11.9</ele>
        <time>1970-01-01T01:53:07.000Z</time>
      </trkpt>
      <trkpt lat="41.332583" lon="2.035462">
        <ele>11.9</ele>
        <time>1970-01-01T01:53:08.000Z</time>
      </trkpt>
      <trkpt lat="41.332583" lon="2.035462">
        <ele>11.9</ele>
        <time>1970-01-01T01:53:09.000Z</time>
      </trkpt>
      <trkpt lat="41.332618" lon="2.03552">
        <ele>11.9</ele>
        <time>1970-01-01T01:53:10.000Z</time>
      </trkpt>
      <trkpt lat="41.332618" lon="2.03552">
        <ele>11.9</ele>
        <time>1970-01-01T01:53:11.000Z</time>
      </trkpt>
      <trkpt lat="41.332662" lon="2.035577">
        <ele>11.9</ele>
        <time>1970-01-01T01:53:12.000Z</time>
      </trkpt>
      <trkpt lat="41.332662" lon="2.035577">
        <ele>11.9</ele>
        <time>1970-01-01T01:53:13.000Z</time>
      </trkpt>
      <trkpt lat="41.332697" lon="2.035662">
        <ele>11.9</ele>
        <time>1970-01-01T01:53:14.000Z</time>
      </trkpt>
      <trkpt lat="41.332697" lon="2.035662">
        <ele>11.9</ele>
        <time>1970-01-01T01:53:15.000Z</time>
      </trkpt>
      <trkpt lat="41.33274" lon="2.035747">
        <ele>11.9</ele>
        <time>1970-01-01T01:53:16.000Z</time>
      </trkpt>
      <trkpt lat="41.332762" lon="2.03578">
        <ele>11.9</ele>
        <time>1970-01-01T01:53:17.000Z</time>
      </trkpt>
      <trkpt lat="41.332785" lon="2.035812">
        <ele>11.9</ele>
        <time>1970-01-01T01:53:18.000Z</time>
      </trkpt>
      <trkpt lat="41.332785" lon="2.035812">
        <ele>11.9</ele>
        <time>1970-01-01T01:53:19.000Z</time>
      </trkpt>
      <trkpt lat="41.332832" lon="2.035868">
        <ele>11.9</ele>
        <time>1970-01-01T01:53:20.000Z</time>
      </trkpt>
      <trkpt lat="41.332832" lon="2.035868">
        <ele>11.9</ele>
        <time>1970-01-01T01:53:21.000Z</time>
      </trkpt>
      <trkpt lat="41.332885" lon="2.035915">
        <ele>11.9</ele>
        <time>1970-01-01T01:53:22.000Z</time>
      </trkpt>
      <trkpt lat="41.332912" lon="2.035937">
        <ele>11.9</ele>
        <time>1970-01-01T01:53:23.000Z</time>
      </trkpt>
      <trkpt lat="41.332912" lon="2.035937">
        <ele>11.9</ele>
        <time>1970-01-01T01:53:24.000Z</time>
      </trkpt>
      <trkpt lat="41.332973" lon="2.035985">
        <ele>11.9</ele>
        <time>1970-01-01T01:53:25.000Z</time>
      </trkpt>
      <trkpt lat="41.333003" lon="2.036012">
        <ele>11.9</ele>
        <time>1970-01-01T01:53:26.000Z</time>
      </trkpt>
      <trkpt lat="41.333003" lon="2.036012">
        <ele>11.9</ele>
        <time>1970-01-01T01:53:27.000Z</time>
      </trkpt>
      <trkpt lat="41.333068" lon="2.036063">
        <ele>11.9</ele>
        <time>1970-01-01T01:53:28.000Z</time>
      </trkpt>
      <trkpt lat="41.333068" lon="2.036063">
        <ele>11.9</ele>
        <time>1970-01-01T01:53:29.000Z</time>
      </trkpt>
      <trkpt lat="41.333145" lon="2.036122">
        <ele>11.9</ele>
        <time>1970-01-01T01:53:30.000Z</time>
      </trkpt>
      <trkpt lat="41.333183" lon="2.036152">
        <ele>11.9</ele>
        <time>1970-01-01T01:53:31.000Z</time>
      </trkpt>
      <trkpt lat="41.33322" lon="2.036187">
        <ele>11.9</ele>
        <time>1970-01-01T01:53:32.000Z</time>
      </trkpt>
      <trkpt lat="41.33322" lon="2.036187">
        <ele>11.9</ele>
        <time>1970-01-01T01:53:33.000Z</time>
      </trkpt>
      <trkpt lat="41.333303" lon="2.036233">
        <ele>11.9</ele>
        <time>1970-01-01T01:53:34.000Z</time>
      </trkpt>
      <trkpt lat="41.333303" lon="2.036233">
        <ele>11.9</ele>
        <time>1970-01-01T01:53:35.000Z</time>
      </trkpt>
      <trkpt lat="41.333387" lon="2.036305">
        <ele>11.9</ele>
        <time>1970-01-01T01:53:36.000Z</time>
      </trkpt>
      <trkpt lat="41.333387" lon="2.036305">
        <ele>11.9</ele>
        <time>1970-01-01T01:53:37.000Z</time>
      </trkpt>
      <trkpt lat="41.333402" lon="2.036483">
        <ele>11.9</ele>
        <time>1970-01-01T01:53:38.000Z</time>
      </trkpt>
      <trkpt lat="41.333402" lon="2.036483">
        <ele>11.9</ele>
        <time>1970-01-01T01:53:39.000Z</time>
      </trkpt>
      <trkpt lat="41.33344" lon="2.036605">
        <ele>11.9</ele>
        <time>1970-01-01T01:53:40.000Z</time>
      </trkpt>
      <trkpt lat="41.33344" lon="2.036605">
        <ele>11.9</ele>
        <time>1970-01-01T01:53:41.000Z</time>
      </trkpt>
      <trkpt lat="41.33349" lon="2.036722">
        <ele>11.9</ele>
        <time>1970-01-01T01:53:42.000Z</time>
      </trkpt>
      <trkpt lat="41.333525" lon="2.036767">
        <ele>11.9</ele>
        <time>1970-01-01T01:53:43.000Z</time>
      </trkpt>
      <trkpt lat="41.333525" lon="2.036767">
        <ele>11.9</ele>
        <time>1970-01-01T01:53:44.000Z</time>
      </trkpt>
      <trkpt lat="41.333583" lon="2.036853">
        <ele>11.9</ele>
        <time>1970-01-01T01:53:45.000Z</time>
      </trkpt>
      <trkpt lat="41.333583" lon="2.036853">
        <ele>11.9</ele>
        <time>1970-01-01T01:53:46.000Z</time>
      </trkpt>
      <trkpt lat="41.333638" lon="2.036932">
        <ele>11.9</ele>
        <time>1970-01-01T01:53:47.000Z</time>
      </trkpt>
      <trkpt lat="41.333672" lon="2.03696">
        <ele>11.9</ele>
        <time>1970-01-01T01:53:48.000Z</time>
      </trkpt>
      <trkpt lat="41.333672" lon="2.03696">
        <ele>11.9</ele>
        <time>1970-01-01T01:53:49.000Z</time>
      </trkpt>
      <trkpt lat="41.333745" lon="2.037008">
        <ele>11.9</ele>
        <time>1970-01-01T01:53:50.000Z</time>
      </trkpt>
      <trkpt lat="41.333778" lon="2.037033">
        <ele>10.9</ele>
        <time>1970-01-01T01:53:51.000Z</time>
      </trkpt>
      <trkpt lat="41.333815" lon="2.037058">
        <ele>10.9</ele>
        <time>1970-01-01T01:53:52.000Z</time>
      </trkpt>
      <trkpt lat="41.333815" lon="2.037058">
        <ele>10.9</ele>
        <time>1970-01-01T01:53:53.000Z</time>
      </trkpt>
      <trkpt lat="41.333887" lon="2.03713">
        <ele>10.9</ele>
        <time>1970-01-01T01:53:54.000Z</time>
      </trkpt>
      <trkpt lat="41.333887" lon="2.03713">
        <ele>10.9</ele>
        <time>1970-01-01T01:53:55.000Z</time>
      </trkpt>
      <trkpt lat="41.333937" lon="2.037227">
        <ele>10.9</ele>
        <time>1970-01-01T01:53:56.000Z</time>
      </trkpt>
      <trkpt lat="41.333937" lon="2.037227">
        <ele>10.9</ele>
        <time>1970-01-01T01:53:57.000Z</time>
      </trkpt>
      <trkpt lat="41.333982" lon="2.03733">
        <ele>10.9</ele>
        <time>1970-01-01T01:53:58.000Z</time>
      </trkpt>
      <trkpt lat="41.334008" lon="2.03738">
        <ele>10.9</ele>
        <time>1970-01-01T01:53:59.000Z</time>
      </trkpt>
      <trkpt lat="41.334008" lon="2.03738">
        <ele>10.9</ele>
        <time>1970-01-01T01:54:00.000Z</time>
      </trkpt>
      <trkpt lat="41.334063" lon="2.03748">
        <ele>10.9</ele>
        <time>1970-01-01T01:54:01.000Z</time>
      </trkpt>
      <trkpt lat="41.334095" lon="2.037525">
        <ele>10.9</ele>
        <time>1970-01-01T01:54:02.000Z</time>
      </trkpt>
      <trkpt lat="41.334095" lon="2.037525">
        <ele>10.9</ele>
        <time>1970-01-01T01:54:03.000Z</time>
      </trkpt>
      <trkpt lat="41.334157" lon="2.037623">
        <ele>10.9</ele>
        <time>1970-01-01T01:54:04.000Z</time>
      </trkpt>
      <trkpt lat="41.334157" lon="2.037623">
        <ele>9.9</ele>
        <time>1970-01-01T01:54:05.000Z</time>
      </trkpt>
      <trkpt lat="41.33423" lon="2.037728">
        <ele>9.9</ele>
        <time>1970-01-01T01:54:06.000Z</time>
      </trkpt>
      <trkpt lat="41.33423" lon="2.037728">
        <ele>9.9</ele>
        <time>1970-01-01T01:54:07.000Z</time>
      </trkpt>
      <trkpt lat="41.334292" lon="2.037832">
        <ele>9.9</ele>
        <time>1970-01-01T01:54:08.000Z</time>
      </trkpt>
      <trkpt lat="41.334292" lon="2.037832">
        <ele>9.9</ele>
        <time>1970-01-01T01:54:09.000Z</time>
      </trkpt>
      <trkpt lat="41.33435" lon="2.037908">
        <ele>7.9</ele>
        <time>1970-01-01T01:54:10.000Z</time>
      </trkpt>
      <trkpt lat="41.334385" lon="2.037937">
        <ele>7.9</ele>
        <time>1970-01-01T01:54:11.000Z</time>
      </trkpt>
      <trkpt lat="41.334418" lon="2.037967">
        <ele>7.9</ele>
        <time>1970-01-01T01:54:12.000Z</time>
      </trkpt>
      <trkpt lat="41.334448" lon="2.038002">
        <ele>7.9</ele>
        <time>1970-01-01T01:54:13.000Z</time>
      </trkpt>
      <trkpt lat="41.334448" lon="2.038002">
        <ele>6.9</ele>
        <time>1970-01-01T01:54:14.000Z</time>
      </trkpt>
      <trkpt lat="41.334495" lon="2.038052">
        <ele>6.9</ele>
        <time>1970-01-01T01:54:15.000Z</time>
      </trkpt>
      <trkpt lat="41.334495" lon="2.038052">
        <ele>6.9</ele>
        <time>1970-01-01T01:54:16.000Z</time>
      </trkpt>
      <trkpt lat="41.334527" lon="2.038077">
        <ele>6.9</ele>
        <time>1970-01-01T01:54:17.000Z</time>
      </trkpt>
      <trkpt lat="41.334527" lon="2.038077">
        <ele>6.9</ele>
        <time>1970-01-01T01:54:18.000Z</time>
      </trkpt>
      <trkpt lat="41.33453" lon="2.038087">
        <ele>6.9</ele>
        <time>1970-01-01T01:54:19.000Z</time>
      </trkpt>
      <trkpt lat="41.334528" lon="2.038087">
        <ele>6.9</ele>
        <time>1970-01-01T01:54:20.000Z</time>
      </trkpt>
      <trkpt lat="41.334528" lon="2.038087">
        <ele>6.9</ele>
        <time>1970-01-01T01:54:21.000Z</time>
      </trkpt>
      <trkpt lat="41.334532" lon="2.038083">
        <ele>6.9</ele>
        <time>1970-01-01T01:54:28.000Z</time>
      </trkpt>
      <trkpt lat="41.334503" lon="2.038152">
        <ele>6.9</ele>
        <time>1970-01-01T01:54:29.000Z</time>
      </trkpt>
      <trkpt lat="41.334503" lon="2.038152">
        <ele>6.9</ele>
        <time>1970-01-01T01:54:30.000Z</time>
      </trkpt>
    </trkseg>
  </trk>
</gpx>
